<?xml version='1.0' encoding='UTF-8'?><gpx version="1.1" creator="JPX - https://github.com/jenetics/jpx" xmlns="http://www.topografix.com/GPX/1/1"><trk><trkseg><trkpt lat="45.988582878885175" lon="11.705101595228841"><ele>1223.0</ele><time>2026-05-02T08:37:04.998Z</time></trkpt><trkpt lat="45.98850825043692" lon="11.70504289326696"><ele>1223.0</ele><time>2026-05-02T08:37:28Z</time></trkpt><trkpt lat="45.98841507390999" lon="11.70498440608664"><ele>1223.0</ele><time>2026-05-02T08:37:32Z</time></trkpt><trkpt lat="45.98836236577183" lon="11.704859367608547"><ele>1223.0</ele><time>2026-05-02T08:37:34Z</time></trkpt><trkpt lat="45.98834257518284" lon="11.704730414019396"><ele>1223.0</ele><time>2026-05-02T08:37:36Z</time></trkpt><trkpt lat="45.9883375428955" lon="11.704602198635364"><ele>1224.8</ele><time>2026-05-02T08:37:38Z</time></trkpt><trkpt lat="45.98830605895373" lon="11.704481705822538"><ele>1226.6</ele><time>2026-05-02T08:37:40Z</time></trkpt><trkpt lat="45.9882573830141" lon="11.704339371090665"><ele>1228.4</ele><time>2026-05-02T08:37:42Z</time></trkpt><trkpt lat="45.98824067702989" lon="11.70415154244731"><ele>1230.2</ele><time>2026-05-02T08:37:44Z</time></trkpt><trkpt lat="45.98819946610665" lon="11.703998474578356"><ele>1232.0</ele><time>2026-05-02T08:37:45.999Z</time></trkpt><trkpt lat="45.9881700968038" lon="11.7038952252443"><ele>1233.8333333333335</ele><time>2026-05-02T08:37:46.999Z</time></trkpt><trkpt lat="45.988146086707644" lon="11.703810817398171"><ele>1235.6666666666667</ele><time>2026-05-02T08:37:47.999Z</time></trkpt><trkpt lat="45.98810238434165" lon="11.703725659292997"><ele>1237.5</ele><time>2026-05-02T08:37:48.999Z</time></trkpt><trkpt lat="45.98808565317988" lon="11.703613116849123"><ele>1239.3333333333333</ele><time>2026-05-02T08:37:50.999Z</time></trkpt><trkpt lat="45.98803918316327" lon="11.703453395537684"><ele>1241.1666666666665</ele><time>2026-05-02T08:37:52.999Z</time></trkpt><trkpt lat="45.987974977974396" lon="11.703411951902535"><ele>1243.0</ele><time>2026-05-02T08:37:54.999Z</time></trkpt><trkpt lat="45.98789528298306" lon="11.703482233507012"><ele>1245.4</ele><time>2026-05-02T08:37:56.999Z</time></trkpt><trkpt lat="45.98781506313935" lon="11.703534256020548"><ele>1247.8</ele><time>2026-05-02T08:37:58.999Z</time></trkpt><trkpt lat="45.987741781260404" lon="11.703489766282651"><ele>1250.2</ele><time>2026-05-02T08:38:00.999Z</time></trkpt><trkpt lat="45.98767917380598" lon="11.703394095578972"><ele>1252.6</ele><time>2026-05-02T08:38:02.999Z</time></trkpt><trkpt lat="45.987623121251744" lon="11.70328029742122"><ele>1255.0</ele><time>2026-05-02T08:38:04.999Z</time></trkpt><trkpt lat="45.987671310744986" lon="11.703158503256507"><ele>1255.0</ele><time>2026-05-02T08:38:06.999Z</time></trkpt><trkpt lat="45.98774009818529" lon="11.703022642284857"><ele>1255.0</ele><time>2026-05-02T08:38:08.999Z</time></trkpt><trkpt lat="45.98778101709128" lon="11.702951241621792"><ele>1255.0</ele><time>2026-05-02T08:38:09.999Z</time></trkpt><trkpt lat="45.98784209313471" lon="11.70282131704239"><ele>1255.0</ele><time>2026-05-02T08:38:11.999Z</time></trkpt><trkpt lat="45.987881654617645" lon="11.70274804818199"><ele>1255.0</ele><time>2026-05-02T08:38:12.999Z</time></trkpt><trkpt lat="45.98796515427994" lon="11.702631305523983"><ele>1260.5</ele><time>2026-05-02T08:38:14.999Z</time></trkpt><trkpt lat="45.98805860331979" lon="11.702546710529035"><ele>1266.0</ele><time>2026-05-02T08:38:16.999Z</time></trkpt><trkpt lat="45.988151654832215" lon="11.702417813657721"><ele>1271.5</ele><time>2026-05-02T08:38:18.999Z</time></trkpt><trkpt lat="45.988245923806964" lon="11.702280363603322"><ele>1277.0</ele><time>2026-05-02T08:38:20.999Z</time></trkpt><trkpt lat="45.98830693567661" lon="11.702136752397301"><ele>1277.0</ele><time>2026-05-02T08:38:22.999Z</time></trkpt><trkpt lat="45.98832029107423" lon="11.701991675254018"><ele>1277.0</ele><time>2026-05-02T08:38:24.999Z</time></trkpt><trkpt lat="45.98831843213786" lon="11.701900385085334"><ele>1277.0</ele><time>2026-05-02T08:38:25.999Z</time></trkpt><trkpt lat="45.98835217203252" lon="11.701747078406184"><ele>1277.0</ele><time>2026-05-02T08:38:27.999Z</time></trkpt><trkpt lat="45.988364561690936" lon="11.701654031919686"><ele>1277.0</ele><time>2026-05-02T08:38:29.998Z</time></trkpt><trkpt lat="45.98832064233532" lon="11.701565791622981"><ele>1277.0</ele><time>2026-05-02T08:38:32.998Z</time></trkpt><trkpt lat="45.98826291502196" lon="11.701617280033597"><ele>1277.0</ele><time>2026-05-02T08:38:34.998Z</time></trkpt><trkpt lat="45.98820356340657" lon="11.70173670904683"><ele>1277.0</ele><time>2026-05-02T08:38:36.998Z</time></trkpt><trkpt lat="45.9881397482162" lon="11.701857711839674"><ele>1277.0</ele><time>2026-05-02T08:38:38.998Z</time></trkpt><trkpt lat="45.98806488485893" lon="11.70193609466214"><ele>1277.0</ele><time>2026-05-02T08:38:40.998Z</time></trkpt><trkpt lat="45.98799526756691" lon="11.70198177620107"><ele>1277.0</ele><time>2026-05-02T08:38:42.998Z</time></trkpt><trkpt lat="45.987885588721" lon="11.702018858069428"><ele>1277.0</ele><time>2026-05-02T08:38:44.998Z</time></trkpt><trkpt lat="45.98777039521651" lon="11.701980892938169"><ele>1277.0</ele><time>2026-05-02T08:38:46.998Z</time></trkpt><trkpt lat="45.987706446990266" lon="11.701970981279782"><ele>1277.0</ele><time>2026-05-02T08:38:47.998Z</time></trkpt><trkpt lat="45.98763695538014" lon="11.701974358111297"><ele>1277.0</ele><time>2026-05-02T08:38:49.998Z</time></trkpt><trkpt lat="45.98757047799795" lon="11.70196217421065"><ele>1277.0</ele><time>2026-05-02T08:38:51.998Z</time></trkpt><trkpt lat="45.987515598589724" lon="11.70189457650255"><ele>1277.0</ele><time>2026-05-02T08:38:54.998Z</time></trkpt><trkpt lat="45.98755800712183" lon="11.701822631534412"><ele>1279.6666666666667</ele><time>2026-05-02T08:39:07.998Z</time></trkpt><trkpt lat="45.987662278324294" lon="11.70185653138189"><ele>1282.3333333333335</ele><time>2026-05-02T08:39:09.998Z</time></trkpt><trkpt lat="45.9877510612783" lon="11.701800416552711"><ele>1285.0</ele><time>2026-05-02T08:39:11.998Z</time></trkpt><trkpt lat="45.98779817509222" lon="11.701731198887687"><ele>1287.6666666666667</ele><time>2026-05-02T08:39:12.998Z</time></trkpt><trkpt lat="45.987856792832396" lon="11.701597997887154"><ele>1290.3333333333333</ele><time>2026-05-02T08:39:15Z</time></trkpt><trkpt lat="45.98788235482014" lon="11.701510472982015"><ele>1293.0</ele><time>2026-05-02T08:39:16Z</time></trkpt><trkpt lat="45.98791783092539" lon="11.701339380360505"><ele>1293.0</ele><time>2026-05-02T08:39:18Z</time></trkpt><trkpt lat="45.98792363279724" lon="11.701247086767676"><ele>1293.0</ele><time>2026-05-02T08:39:19Z</time></trkpt><trkpt lat="45.987917136419874" lon="11.701149751008225"><ele>1293.0</ele><time>2026-05-02T08:39:20Z</time></trkpt><trkpt lat="45.98793754914953" lon="11.701041913304788"><ele>1293.0</ele><time>2026-05-02T08:39:21Z</time></trkpt><trkpt lat="45.987944900725424" lon="11.700913083850196"><ele>1293.0</ele><time>2026-05-02T08:39:23Z</time></trkpt><trkpt lat="45.98795327332089" lon="11.700783371448043"><ele>1293.0</ele><time>2026-05-02T08:39:26Z</time></trkpt><trkpt lat="45.98784312810472" lon="11.700773895200564"><ele>1294.6666666666667</ele><time>2026-05-02T08:39:30Z</time></trkpt><trkpt lat="45.987764197118054" lon="11.700920350652575"><ele>1296.3333333333333</ele><time>2026-05-02T08:39:32Z</time></trkpt><trkpt lat="45.9876817441295" lon="11.700986312955985"><ele>1298.0</ele><time>2026-05-02T08:39:34Z</time></trkpt><trkpt lat="45.98760476305567" lon="11.700979304687449"><ele>1299.6666666666665</ele><time>2026-05-02T08:39:36Z</time></trkpt><trkpt lat="45.98753148973093" lon="11.700969834786134"><ele>1301.3333333333333</ele><time>2026-05-02T08:39:38Z</time></trkpt><trkpt lat="45.98746465878512" lon="11.70091955471374"><ele>1303.0</ele><time>2026-05-02T08:39:40Z</time></trkpt><trkpt lat="45.98741428758769" lon="11.700828157500233"><ele>1303.0</ele><time>2026-05-02T08:39:42.999Z</time></trkpt><trkpt lat="45.98744427377342" lon="11.700739914809285"><ele>1303.0</ele><time>2026-05-02T08:39:44.999Z</time></trkpt><trkpt lat="45.98751714761004" lon="11.70073873886044"><ele>1303.0</ele><time>2026-05-02T08:39:46.999Z</time></trkpt><trkpt lat="45.98759296505348" lon="11.700685406833845"><ele>1303.0</ele><time>2026-05-02T08:39:48.999Z</time></trkpt><trkpt lat="45.98764274201201" lon="11.70055454307273"><ele>1303.0</ele><time>2026-05-02T08:39:50.999Z</time></trkpt><trkpt lat="45.987670781784885" lon="11.700398834693523"><ele>1303.0</ele><time>2026-05-02T08:39:52.999Z</time></trkpt><trkpt lat="45.98768642089826" lon="11.700257317491925"><ele>1305.4</ele><time>2026-05-02T08:39:54.999Z</time></trkpt><trkpt lat="45.98771232836061" lon="11.70017093562512"><ele>1307.8000000000002</ele><time>2026-05-02T08:39:55.999Z</time></trkpt><trkpt lat="45.98773931616451" lon="11.70003065823513"><ele>1310.2</ele><time>2026-05-02T08:39:57.999Z</time></trkpt><trkpt lat="45.98781958368131" lon="11.699934114662906"><ele>1312.6</ele><time>2026-05-02T08:39:59.999Z</time></trkpt><trkpt lat="45.987891265704185" lon="11.699851970412652"><ele>1315.0</ele><time>2026-05-02T08:40:01.999Z</time></trkpt><trkpt lat="45.98796081798439" lon="11.699760097163324"><ele>1315.0</ele><time>2026-05-02T08:40:03.999Z</time></trkpt><trkpt lat="45.988013557948676" lon="11.699706036276773"><ele>1315.0</ele><time>2026-05-02T08:40:04.999Z</time></trkpt><trkpt lat="45.988068559899006" lon="11.699563033588879"><ele>1315.0</ele><time>2026-05-02T08:40:06.999Z</time></trkpt><trkpt lat="45.98809443000789" lon="11.699393828511472"><ele>1315.0</ele><time>2026-05-02T08:40:08.999Z</time></trkpt><trkpt lat="45.98809908593241" lon="11.699283379774844"><ele>1315.0</ele><time>2026-05-02T08:40:09.999Z</time></trkpt><trkpt lat="45.98809591354747" lon="11.699189472051785"><ele>1315.0</ele><time>2026-05-02T08:40:10.999Z</time></trkpt><trkpt lat="45.988119766572495" lon="11.699094275928482"><ele>1317.3333333333333</ele><time>2026-05-02T08:40:11.999Z</time></trkpt><trkpt lat="45.98814177163065" lon="11.699005032478606"><ele>1319.6666666666665</ele><time>2026-05-02T08:40:12.999Z</time></trkpt><trkpt lat="45.98816826606147" lon="11.698897447729317"><ele>1322.0</ele><time>2026-05-02T08:40:13.999Z</time></trkpt><trkpt lat="45.98818995760512" lon="11.698779943773667"><ele>1324.3333333333333</ele><time>2026-05-02T08:40:14.999Z</time></trkpt><trkpt lat="45.98819226394756" lon="11.6985791887267"><ele>1326.6666666666667</ele><time>2026-05-02T08:40:16.999Z</time></trkpt><trkpt lat="45.98819357582167" lon="11.698474375022792"><ele>1329.0</ele><time>2026-05-02T08:40:17.999Z</time></trkpt><trkpt lat="45.98821931709249" lon="11.698319985318198"><ele>1332.4</ele><time>2026-05-02T08:40:19.999Z</time></trkpt><trkpt lat="45.98827679650436" lon="11.698197064366285"><ele>1335.8000000000002</ele><time>2026-05-02T08:40:21.999Z</time></trkpt><trkpt lat="45.98833161556692" lon="11.698125866351127"><ele>1339.1999999999998</ele><time>2026-05-02T08:40:22.999Z</time></trkpt><trkpt lat="45.988410398449595" lon="11.69802911756887"><ele>1342.6</ele><time>2026-05-02T08:40:24.999Z</time></trkpt><trkpt lat="45.98848933043771" lon="11.697912792272504"><ele>1346.0</ele><time>2026-05-02T08:40:26.999Z</time></trkpt><trkpt lat="45.98853612030828" lon="11.697767437436104"><ele>1341.8</ele><time>2026-05-02T08:40:28.999Z</time></trkpt><trkpt lat="45.988580428382846" lon="11.697571339388725"><ele>1337.6</ele><time>2026-05-02T08:40:30.998Z</time></trkpt><trkpt lat="45.988583702559325" lon="11.697472633707827"><ele>1333.4</ele><time>2026-05-02T08:40:31.998Z</time></trkpt><trkpt lat="45.98858864365734" lon="11.697379062321465"><ele>1329.2</ele><time>2026-05-02T08:40:32.998Z</time></trkpt><trkpt lat="45.98860382730172" lon="11.69720146902635"><ele>1325.0</ele><time>2026-05-02T08:40:34.998Z</time></trkpt><trkpt lat="45.98860541000874" lon="11.697105008093214"><ele>1325.0</ele><time>2026-05-02T08:40:35.998Z</time></trkpt><trkpt lat="45.988616126193136" lon="11.696971892434817"><ele>1325.0</ele><time>2026-05-02T08:40:37.998Z</time></trkpt><trkpt lat="45.98867449278355" lon="11.696864565511891"><ele>1325.0</ele><time>2026-05-02T08:40:39.998Z</time></trkpt><trkpt lat="45.988757258885954" lon="11.696779482278975"><ele>1325.0</ele><time>2026-05-02T08:40:41.998Z</time></trkpt><trkpt lat="45.98884621998897" lon="11.696695390854627"><ele>1325.0</ele><time>2026-05-02T08:40:43.998Z</time></trkpt><trkpt lat="45.98893217176832" lon="11.696593633364925"><ele>1328.5</ele><time>2026-05-02T08:40:45.998Z</time></trkpt><trkpt lat="45.988994952294334" lon="11.696452604766886"><ele>1332.0</ele><time>2026-05-02T08:40:47.998Z</time></trkpt><trkpt lat="45.989020036699394" lon="11.696367067472114"><ele>1335.5</ele><time>2026-05-02T08:40:48.998Z</time></trkpt><trkpt lat="45.98905114017694" lon="11.696276756940874"><ele>1339.0</ele><time>2026-05-02T08:40:49.998Z</time></trkpt><trkpt lat="45.98906941606177" lon="11.69618926590204"><ele>1342.5</ele><time>2026-05-02T08:40:50.998Z</time></trkpt><trkpt lat="45.98910819072571" lon="11.696090336255212"><ele>1346.0</ele><time>2026-05-02T08:40:51.998Z</time></trkpt><trkpt lat="45.98915569883891" lon="11.695985726308676"><ele>1345.1666666666667</ele><time>2026-05-02T08:40:52.998Z</time></trkpt><trkpt lat="45.9891968798954" lon="11.695872287080547"><ele>1344.3333333333335</ele><time>2026-05-02T08:40:53.998Z</time></trkpt><trkpt lat="45.98923950972596" lon="11.695772673776949"><ele>1343.5</ele><time>2026-05-02T08:40:54.998Z</time></trkpt><trkpt lat="45.989281383110786" lon="11.695689054714437"><ele>1342.6666666666667</ele><time>2026-05-02T08:40:55.998Z</time></trkpt><trkpt lat="45.98932275772713" lon="11.695608752927798"><ele>1341.8333333333333</ele><time>2026-05-02T08:40:56.998Z</time></trkpt><trkpt lat="45.98937871360319" lon="11.695518326733149"><ele>1341.0</ele><time>2026-05-02T08:40:57.998Z</time></trkpt><trkpt lat="45.98942869571785" lon="11.695443723072875"><ele>1341.0</ele><time>2026-05-02T08:40:58.998Z</time></trkpt><trkpt lat="45.98946709368991" lon="11.69530326655174"><ele>1341.0</ele><time>2026-05-02T08:41:00.998Z</time></trkpt><trkpt lat="45.98947519676637" lon="11.69521289506917"><ele>1341.0</ele><time>2026-05-02T08:41:01.998Z</time></trkpt><trkpt lat="45.98948412024051" lon="11.695090327476237"><ele>1341.0</ele><time>2026-05-02T08:41:02.998Z</time></trkpt><trkpt lat="45.989495821288955" lon="11.69494521560271"><ele>1341.0</ele><time>2026-05-02T08:41:03.998Z</time></trkpt><trkpt lat="45.989513249257236" lon="11.694811468661364"><ele>1344.3333333333333</ele><time>2026-05-02T08:41:04.998Z</time></trkpt><trkpt lat="45.98953912704928" lon="11.694700426922857"><ele>1347.6666666666667</ele><time>2026-05-02T08:41:05.998Z</time></trkpt><trkpt lat="45.98958114219507" lon="11.694609344109177"><ele>1351.0</ele><time>2026-05-02T08:41:06.998Z</time></trkpt><trkpt lat="45.98969124580067" lon="11.694480996556154"><ele>1354.3333333333335</ele><time>2026-05-02T08:41:08.998Z</time></trkpt><trkpt lat="45.98975338486603" lon="11.694434943688409"><ele>1357.6666666666667</ele><time>2026-05-02T08:41:09.998Z</time></trkpt><trkpt lat="45.98982409986766" lon="11.694393698818656"><ele>1361.0</ele><time>2026-05-02T08:41:10.998Z</time></trkpt><trkpt lat="45.98990228462471" lon="11.69434568909015"><ele>1362.4</ele><time>2026-05-02T08:41:11.998Z</time></trkpt><trkpt lat="45.98996159392804" lon="11.694286041910898"><ele>1363.8</ele><time>2026-05-02T08:41:12.998Z</time></trkpt><trkpt lat="45.99002745192347" lon="11.694157163860398"><ele>1365.2</ele><time>2026-05-02T08:41:14.998Z</time></trkpt><trkpt lat="45.99006613912593" lon="11.693959762450511"><ele>1366.6000000000001</ele><time>2026-05-02T08:41:16.998Z</time></trkpt><trkpt lat="45.99007844259091" lon="11.693797004666184"><ele>1368.0</ele><time>2026-05-02T08:41:17.997Z</time></trkpt><trkpt lat="45.99011515930832" lon="11.693648412790472"><ele>1369.8333333333333</ele><time>2026-05-02T08:41:18.997Z</time></trkpt><trkpt lat="45.990134878409954" lon="11.693534886350125"><ele>1371.6666666666667</ele><time>2026-05-02T08:41:19.997Z</time></trkpt><trkpt lat="45.990155721471886" lon="11.693414889228617"><ele>1373.5</ele><time>2026-05-02T08:41:20.999Z</time></trkpt><trkpt lat="45.990176351327285" lon="11.693307318533536"><ele>1375.3333333333335</ele><time>2026-05-02T08:41:21.999Z</time></trkpt><trkpt lat="45.990186717166154" lon="11.693196984228996"><ele>1377.1666666666667</ele><time>2026-05-02T08:41:22.999Z</time></trkpt><trkpt lat="45.99023967942452" lon="11.693092069605704"><ele>1379.0</ele><time>2026-05-02T08:41:23.999Z</time></trkpt><trkpt lat="45.99031135225635" lon="11.693028073984692"><ele>1379.0</ele><time>2026-05-02T08:41:24.999Z</time></trkpt><trkpt lat="45.990394176395895" lon="11.692972449919358"><ele>1379.0</ele><time>2026-05-02T08:41:25.999Z</time></trkpt><trkpt lat="45.990493543323765" lon="11.692929062754517"><ele>1379.0</ele><time>2026-05-02T08:41:26.999Z</time></trkpt><trkpt lat="45.9906083906045" lon="11.69285978702972"><ele>1379.0</ele><time>2026-05-02T08:41:27.999Z</time></trkpt><trkpt lat="45.99070378222264" lon="11.692781121306501"><ele>1379.0</ele><time>2026-05-02T08:41:28.999Z</time></trkpt><trkpt lat="45.99083931953579" lon="11.692720279650413"><ele>1380.8000000000002</ele><time>2026-05-02T08:41:30.999Z</time></trkpt><trkpt lat="45.99094549978661" lon="11.69268795474575"><ele>1382.6000000000001</ele><time>2026-05-02T08:41:31.999Z</time></trkpt><trkpt lat="45.991048227137355" lon="11.692658346600712"><ele>1384.4</ele><time>2026-05-02T08:41:32.999Z</time></trkpt><trkpt lat="45.991133211952196" lon="11.692631565391322"><ele>1386.2</ele><time>2026-05-02T08:41:33.999Z</time></trkpt><trkpt lat="45.991212327045154" lon="11.692640418846567"><ele>1388.0</ele><time>2026-05-02T08:41:34.999Z</time></trkpt><trkpt lat="45.99131716276508" lon="11.692596089771014"><ele>1388.0</ele><time>2026-05-02T08:41:36.999Z</time></trkpt><trkpt lat="45.991400014590184" lon="11.692477178697631"><ele>1388.0</ele><time>2026-05-02T08:41:38.999Z</time></trkpt><trkpt lat="45.991450351948906" lon="11.692411578537206"><ele>1388.0</ele><time>2026-05-02T08:41:39.999Z</time></trkpt><trkpt lat="45.991525861809066" lon="11.692304061679494"><ele>1388.0</ele><time>2026-05-02T08:41:41.999Z</time></trkpt><trkpt lat="45.99157957157876" lon="11.692248256711158"><ele>1388.0</ele><time>2026-05-02T08:41:42.999Z</time></trkpt><trkpt lat="45.99162851499386" lon="11.692175257468993"><ele>1388.0</ele><time>2026-05-02T08:41:43.999Z</time></trkpt><trkpt lat="45.99168764691846" lon="11.692119048659759"><ele>1388.5</ele><time>2026-05-02T08:41:44.999Z</time></trkpt><trkpt lat="45.99176857947181" lon="11.69208092296059"><ele>1389.0</ele><time>2026-05-02T08:41:45.999Z</time></trkpt><trkpt lat="45.991845004866896" lon="11.692059466288589"><ele>1389.5</ele><time>2026-05-02T08:41:46.999Z</time></trkpt><trkpt lat="45.99194846321954" lon="11.69205950566935"><ele>1390.0</ele><time>2026-05-02T08:41:47.999Z</time></trkpt><trkpt lat="45.9920356603566" lon="11.69206620277597"><ele>1390.5</ele><time>2026-05-02T08:41:48.999Z</time></trkpt><trkpt lat="45.99211604877487" lon="11.692051051163638"><ele>1391.0</ele><time>2026-05-02T08:41:49.999Z</time></trkpt><trkpt lat="45.99221832240133" lon="11.692049498461854"><ele>1391.0</ele><time>2026-05-02T08:41:50.999Z</time></trkpt><trkpt lat="45.992315835451386" lon="11.692042471477086"><ele>1391.0</ele><time>2026-05-02T08:41:51.999Z</time></trkpt><trkpt lat="45.99240261411285" lon="11.692025438522624"><ele>1391.0</ele><time>2026-05-02T08:41:52.999Z</time></trkpt><trkpt lat="45.992494535152616" lon="11.691994329794577"><ele>1391.0</ele><time>2026-05-02T08:41:53.999Z</time></trkpt><trkpt lat="45.99255918582736" lon="11.691959441629143"><ele>1391.0</ele><time>2026-05-02T08:41:54.999Z</time></trkpt><trkpt lat="45.99263132819161" lon="11.69189181478724"><ele>1391.0</ele><time>2026-05-02T08:41:55.999Z</time></trkpt><trkpt lat="45.992683298006725" lon="11.691831178798736"><ele>1392.3333333333335</ele><time>2026-05-02T08:41:56.999Z</time></trkpt><trkpt lat="45.9927062711686" lon="11.691739617805052"><ele>1393.6666666666667</ele><time>2026-05-02T08:41:57.999Z</time></trkpt><trkpt lat="45.99275439714507" lon="11.691656561741524"><ele>1395.0</ele><time>2026-05-02T08:41:58.999Z</time></trkpt><trkpt lat="45.992789499693316" lon="11.691563560884653"><ele>1396.3333333333333</ele><time>2026-05-02T08:41:59.999Z</time></trkpt><trkpt lat="45.992849973619535" lon="11.69149029557614"><ele>1397.6666666666665</ele><time>2026-05-02T08:42:00.999Z</time></trkpt><trkpt lat="45.99290179146168" lon="11.691409005991282"><ele>1399.0</ele><time>2026-05-02T08:42:01.999Z</time></trkpt><trkpt lat="45.9929817524229" lon="11.691314319697103"><ele>1399.0</ele><time>2026-05-02T08:42:03.999Z</time></trkpt><trkpt lat="45.993049614354966" lon="11.691281158951815"><ele>1399.0</ele><time>2026-05-02T08:42:04.999Z</time></trkpt><trkpt lat="45.99311358462364" lon="11.69129978190126"><ele>1399.0</ele><time>2026-05-02T08:42:05.999Z</time></trkpt><trkpt lat="45.99319460204048" lon="11.69134370437313"><ele>1399.0</ele><time>2026-05-02T08:42:06.999Z</time></trkpt><trkpt lat="45.993274336389504" lon="11.691390454738531"><ele>1399.0</ele><time>2026-05-02T08:42:07.999Z</time></trkpt><trkpt lat="45.99340207858526" lon="11.691492186535816"><ele>1400.5</ele><time>2026-05-02T08:42:09.999Z</time></trkpt><trkpt lat="45.99347207773857" lon="11.69155719030277"><ele>1402.0</ele><time>2026-05-02T08:42:10.999Z</time></trkpt><trkpt lat="45.99353985034215" lon="11.691626881228657"><ele>1403.5</ele><time>2026-05-02T08:42:11.999Z</time></trkpt><trkpt lat="45.99360564832567" lon="11.691689878686086"><ele>1405.0</ele><time>2026-05-02T08:42:12.999Z</time></trkpt><trkpt lat="45.993667796488474" lon="11.69174135320239"><ele>1406.5</ele><time>2026-05-02T08:42:13.999Z</time></trkpt><trkpt lat="45.99374481114238" lon="11.691784081756442"><ele>1408.0</ele><time>2026-05-02T08:42:14.999Z</time></trkpt><trkpt lat="45.99381177099799" lon="11.691814109294837"><ele>1408.0</ele><time>2026-05-02T08:42:15.999Z</time></trkpt><trkpt lat="45.99393973793632" lon="11.691830924094472"><ele>1408.0</ele><time>2026-05-02T08:42:17.999Z</time></trkpt><trkpt lat="45.99402799732166" lon="11.691805787372743"><ele>1408.0</ele><time>2026-05-02T08:42:18.999Z</time></trkpt><trkpt lat="45.99411922890358" lon="11.691761446853985"><ele>1408.0</ele><time>2026-05-02T08:42:19.999Z</time></trkpt><trkpt lat="45.99422798983913" lon="11.69172298802352"><ele>1408.0</ele><time>2026-05-02T08:42:20.999Z</time></trkpt><trkpt lat="45.9943400194619" lon="11.691698902685246"><ele>1409.0</ele><time>2026-05-02T08:42:21.999Z</time></trkpt><trkpt lat="45.99444575108015" lon="11.691690765485923"><ele>1410.0</ele><time>2026-05-02T08:42:22.999Z</time></trkpt><trkpt lat="45.994526261383484" lon="11.691690723856764"><ele>1411.0</ele><time>2026-05-02T08:42:23.999Z</time></trkpt><trkpt lat="45.99461392528703" lon="11.69173776241144"><ele>1412.0</ele><time>2026-05-02T08:42:25.999Z</time></trkpt><trkpt lat="45.99468207939148" lon="11.69177515455232"><ele>1413.0</ele><time>2026-05-02T08:42:26.999Z</time></trkpt><trkpt lat="45.99475271221709" lon="11.691815101289931"><ele>1414.0</ele><time>2026-05-02T08:42:27.999Z</time></trkpt><trkpt lat="45.99487391158441" lon="11.691895103161272"><ele>1415.6</ele><time>2026-05-02T08:42:29.999Z</time></trkpt><trkpt lat="45.99500543774573" lon="11.691920036905874"><ele>1417.2</ele><time>2026-05-02T08:42:31.999Z</time></trkpt><trkpt lat="45.99507011256484" lon="11.691901536468528"><ele>1418.8</ele><time>2026-05-02T08:42:32.998Z</time></trkpt><trkpt lat="45.99514741461685" lon="11.691872758489245"><ele>1420.3999999999999</ele><time>2026-05-02T08:42:33.998Z</time></trkpt><trkpt lat="45.99522485890536" lon="11.691809761031005"><ele>1422.0</ele><time>2026-05-02T08:42:34.998Z</time></trkpt><trkpt lat="45.99529697734886" lon="11.69175029852009"><ele>1422.0</ele><time>2026-05-02T08:42:35.998Z</time></trkpt><trkpt lat="45.995369213195936" lon="11.69174313072156"><ele>1422.0</ele><time>2026-05-02T08:42:36.998Z</time></trkpt><trkpt lat="45.99543820519842" lon="11.691744202546563"><ele>1422.0</ele><time>2026-05-02T08:42:37.998Z</time></trkpt><trkpt lat="45.99550121340108" lon="11.691775343730114"><ele>1422.0</ele><time>2026-05-02T08:42:38.998Z</time></trkpt><trkpt lat="45.99555042605175" lon="11.691837265080562"><ele>1422.0</ele><time>2026-05-02T08:42:39.998Z</time></trkpt><trkpt lat="45.995622756279374" lon="11.691896874071151"><ele>1422.0</ele><time>2026-05-02T08:42:40.998Z</time></trkpt><trkpt lat="45.995706965940414" lon="11.691976989258896"><ele>1418.3999999999999</ele><time>2026-05-02T08:42:41.998Z</time></trkpt><trkpt lat="45.9958105714214" lon="11.692025033983317"><ele>1414.8</ele><time>2026-05-02T08:42:42.998Z</time></trkpt><trkpt lat="45.995905091535725" lon="11.69208726445583"><ele>1411.2</ele><time>2026-05-02T08:42:43.998Z</time></trkpt><trkpt lat="45.99600677182574" lon="11.692114889081441"><ele>1407.6</ele><time>2026-05-02T08:42:44.998Z</time></trkpt><trkpt lat="45.99610087753908" lon="11.692146357730381"><ele>1404.0</ele><time>2026-05-02T08:42:45.998Z</time></trkpt><trkpt lat="45.99619241563594" lon="11.69218324813099"><ele>1404.0</ele><time>2026-05-02T08:42:46.998Z</time></trkpt><trkpt lat="45.996289916745965" lon="11.692197818669436"><ele>1404.0</ele><time>2026-05-02T08:42:47.998Z</time></trkpt><trkpt lat="45.99637030661789" lon="11.69223237685365"><ele>1404.0</ele><time>2026-05-02T08:42:48.998Z</time></trkpt><trkpt lat="45.99646414939122" lon="11.692246679721503"><ele>1404.0</ele><time>2026-05-02T08:42:49.998Z</time></trkpt><trkpt lat="45.99655587843883" lon="11.692227587981671"><ele>1404.0</ele><time>2026-05-02T08:42:50.998Z</time></trkpt><trkpt lat="45.99663727152552" lon="11.692211841038592"><ele>1404.6666666666667</ele><time>2026-05-02T08:42:52.998Z</time></trkpt><trkpt lat="45.99670559871876" lon="11.692199428242631"><ele>1405.3333333333333</ele><time>2026-05-02T08:42:55.998Z</time></trkpt><trkpt lat="45.99677340508968" lon="11.692095384612616"><ele>1406.0</ele><time>2026-05-02T08:42:58.998Z</time></trkpt><trkpt lat="45.996833778372235" lon="11.692030704958725"><ele>1406.6666666666665</ele><time>2026-05-02T08:42:59.998Z</time></trkpt><trkpt lat="45.996919331441596" lon="11.692025771921127"><ele>1407.3333333333333</ele><time>2026-05-02T08:43:00.998Z</time></trkpt><trkpt lat="45.996984802253664" lon="11.691993272513908"><ele>1408.0</ele><time>2026-05-02T08:43:01.998Z</time></trkpt><trkpt lat="45.99705905101888" lon="11.69199417347456"><ele>1408.0</ele><time>2026-05-02T08:43:02.998Z</time></trkpt><trkpt lat="45.99712412989797" lon="11.691994560849066"><ele>1408.0</ele><time>2026-05-02T08:43:03.998Z</time></trkpt><trkpt lat="45.99724560227769" lon="11.692074371461635"><ele>1408.0</ele><time>2026-05-02T08:43:05.998Z</time></trkpt><trkpt lat="45.99732208903" lon="11.692165146852524"><ele>1408.0</ele><time>2026-05-02T08:43:06.998Z</time></trkpt><trkpt lat="45.99738282242198" lon="11.692276501802755"><ele>1408.0</ele><time>2026-05-02T08:43:07.998Z</time></trkpt><trkpt lat="45.99745562245176" lon="11.692397878948968"><ele>1410.4</ele><time>2026-05-02T08:43:08.998Z</time></trkpt><trkpt lat="45.99753484957415" lon="11.692490704589959"><ele>1412.8000000000002</ele><time>2026-05-02T08:43:09.998Z</time></trkpt><trkpt lat="45.997597679439224" lon="11.692602386704074"><ele>1415.2</ele><time>2026-05-02T08:43:10.998Z</time></trkpt><trkpt lat="45.99766327630436" lon="11.692682339556194"><ele>1417.6</ele><time>2026-05-02T08:43:11.998Z</time></trkpt><trkpt lat="45.997731624411706" lon="11.692766817413371"><ele>1420.0</ele><time>2026-05-02T08:43:12.998Z</time></trkpt><trkpt lat="45.9977872339232" lon="11.692847237351051"><ele>1416.0</ele><time>2026-05-02T08:43:13.998Z</time></trkpt><trkpt lat="45.9978448782142" lon="11.69293728564027"><ele>1412.0</ele><time>2026-05-02T08:43:14.998Z</time></trkpt><trkpt lat="45.99792284841274" lon="11.69303307351157"><ele>1408.0</ele><time>2026-05-02T08:43:15.998Z</time></trkpt><trkpt lat="45.99799069461221" lon="11.693109129919444"><ele>1404.0</ele><time>2026-05-02T08:43:16.998Z</time></trkpt><trkpt lat="45.99804699914433" lon="11.693186685220333"><ele>1400.0</ele><time>2026-05-02T08:43:17.998Z</time></trkpt><trkpt lat="45.99811183972268" lon="11.693236877290465"><ele>1396.0</ele><time>2026-05-02T08:43:18.998Z</time></trkpt><trkpt lat="45.99816240492471" lon="11.69330912655106"><ele>1396.0</ele><time>2026-05-02T08:43:19.998Z</time></trkpt><trkpt lat="45.998232881993395" lon="11.693347359187973"><ele>1396.0</ele><time>2026-05-02T08:43:20.998Z</time></trkpt><trkpt lat="45.998351019811956" lon="11.69341774220482"><ele>1396.0</ele><time>2026-05-02T08:43:22.998Z</time></trkpt><trkpt lat="45.99841888693084" lon="11.693457417972965"><ele>1396.0</ele><time>2026-05-02T08:43:23.998Z</time></trkpt><trkpt lat="45.998477720870305" lon="11.693490828257703"><ele>1396.0</ele><time>2026-05-02T08:43:24.998Z</time></trkpt><trkpt lat="45.99858512831774" lon="11.693563083867419"><ele>1397.1666666666665</ele><time>2026-05-02T08:43:26.999Z</time></trkpt><trkpt lat="45.99869053791865" lon="11.693585807642009"><ele>1398.3333333333333</ele><time>2026-05-02T08:43:28.999Z</time></trkpt><trkpt lat="45.998752755898785" lon="11.693571913695363"><ele>1399.5</ele><time>2026-05-02T08:43:29.999Z</time></trkpt><trkpt lat="45.998816516161725" lon="11.69352465833852"><ele>1400.6666666666667</ele><time>2026-05-02T08:43:30.999Z</time></trkpt><trkpt lat="45.99892871518265" lon="11.693504450171929"><ele>1401.8333333333335</ele><time>2026-05-02T08:43:32.999Z</time></trkpt><trkpt lat="45.99898622429562" lon="11.693586065960123"><ele>1403.0</ele><time>2026-05-02T08:43:34.999Z</time></trkpt><trkpt lat="45.99903413281384" lon="11.693670463633943"><ele>1402.3333333333335</ele><time>2026-05-02T08:43:59.999Z</time></trkpt><trkpt lat="45.99909561759557" lon="11.693753962784822"><ele>1401.6666666666667</ele><time>2026-05-02T08:44:22.999Z</time></trkpt><trkpt lat="45.99915188231225" lon="11.693835509682199"><ele>1401.0</ele><time>2026-05-02T08:44:25.999Z</time></trkpt><trkpt lat="45.99921113611321" lon="11.693949925599455"><ele>1400.3333333333333</ele><time>2026-05-02T08:44:28.999Z</time></trkpt><trkpt lat="45.99926152468696" lon="11.69404756190608"><ele>1399.6666666666665</ele><time>2026-05-02T08:44:31.999Z</time></trkpt><trkpt lat="45.99930271503949" lon="11.69413156471626"><ele>1399.0</ele><time>2026-05-02T08:44:34.999Z</time></trkpt><trkpt lat="45.99934477040907" lon="11.69423443891927"><ele>1399.0</ele><time>2026-05-02T08:44:37.999Z</time></trkpt><trkpt lat="45.99938371553517" lon="11.694342772685765"><ele>1399.0</ele><time>2026-05-02T08:44:59.998Z</time></trkpt><trkpt lat="45.99941547467144" lon="11.694446665351895"><ele>1399.0</ele><time>2026-05-02T08:45:01.998Z</time></trkpt><trkpt lat="45.99946348514462" lon="11.69458307062671"><ele>1399.0</ele><time>2026-05-02T08:45:03.998Z</time></trkpt><trkpt lat="45.99950396617798" lon="11.694684282626088"><ele>1399.0</ele><time>2026-05-02T08:45:05.998Z</time></trkpt><trkpt lat="45.99955339341184" lon="11.694800342600123"><ele>1399.0</ele><time>2026-05-02T08:45:07.998Z</time></trkpt><trkpt lat="45.9995917503352" lon="11.694882336460031"><ele>1397.0</ele><time>2026-05-02T08:45:08.998Z</time></trkpt><trkpt lat="45.999635296070224" lon="11.694968590707408"><ele>1395.0</ele><time>2026-05-02T08:45:09.998Z</time></trkpt><trkpt lat="45.999674054441265" lon="11.695043450798382"><ele>1393.0</ele><time>2026-05-02T08:45:10.998Z</time></trkpt><trkpt lat="45.99971393408763" lon="11.695120476653898"><ele>1391.0</ele><time>2026-05-02T08:45:11.998Z</time></trkpt><trkpt lat="45.99978328320361" lon="11.695254421565682"><ele>1389.0</ele><time>2026-05-02T08:45:13.998Z</time></trkpt><trkpt lat="45.99986783008039" lon="11.695381197696205"><ele>1387.0</ele><time>2026-05-02T08:45:15.998Z</time></trkpt><trkpt lat="45.99990195517049" lon="11.695465995030162"><ele>1384.1999999999998</ele><time>2026-05-02T08:45:16.998Z</time></trkpt><trkpt lat="45.9999646962754" lon="11.695592136699425"><ele>1381.4</ele><time>2026-05-02T08:45:18.998Z</time></trkpt><trkpt lat="46.000024257672145" lon="11.695707207501773"><ele>1378.6</ele><time>2026-05-02T08:45:20.998Z</time></trkpt><trkpt lat="46.00008577048335" lon="11.695872543939137"><ele>1375.8000000000002</ele><time>2026-05-02T08:45:22.998Z</time></trkpt><trkpt lat="46.00012417560696" lon="11.695972184300608"><ele>1373.0</ele><time>2026-05-02T08:45:23.998Z</time></trkpt><trkpt lat="46.00016253591303" lon="11.696074145176775"><ele>1370.8000000000002</ele><time>2026-05-02T08:45:24.998Z</time></trkpt><trkpt lat="46.00020428946129" lon="11.696174552444111"><ele>1368.6</ele><time>2026-05-02T08:45:25.998Z</time></trkpt><trkpt lat="46.000245432791054" lon="11.696274196426772"><ele>1366.4</ele><time>2026-05-02T08:45:26.998Z</time></trkpt><trkpt lat="46.00027658748768" lon="11.696373337958248"><ele>1364.1999999999998</ele><time>2026-05-02T08:45:27.998Z</time></trkpt><trkpt lat="46.00030540965467" lon="11.69651448380408"><ele>1362.0</ele><time>2026-05-02T08:45:28.998Z</time></trkpt><trkpt lat="46.000329431110835" lon="11.696700528236581"><ele>1362.0</ele><time>2026-05-02T08:45:29.998Z</time></trkpt><trkpt lat="46.00036462201727" lon="11.69685759453647"><ele>1362.0</ele><time>2026-05-02T08:45:30.998Z</time></trkpt><trkpt lat="46.00038835845504" lon="11.697017971881698"><ele>1362.0</ele><time>2026-05-02T08:45:31.998Z</time></trkpt><trkpt lat="46.00053164455666" lon="11.697143274683677"><ele>1362.0</ele><time>2026-05-02T08:45:33Z</time></trkpt><trkpt lat="46.00054853538534" lon="11.697280570827052"><ele>1360.1666666666667</ele><time>2026-05-02T08:45:34Z</time></trkpt><trkpt lat="46.000563308483756" lon="11.69740093897615"><ele>1358.3333333333333</ele><time>2026-05-02T08:45:35Z</time></trkpt><trkpt lat="46.00056716035854" lon="11.69750815348436"><ele>1356.5</ele><time>2026-05-02T08:45:36Z</time></trkpt><trkpt lat="46.000603960094885" lon="11.69767672807171"><ele>1354.6666666666665</ele><time>2026-05-02T08:45:38Z</time></trkpt><trkpt lat="46.00066518382727" lon="11.697729951867194"><ele>1352.8333333333333</ele><time>2026-05-02T08:45:39Z</time></trkpt><trkpt lat="46.00074200331068" lon="11.697719655805377"><ele>1351.0</ele><time>2026-05-02T08:45:40Z</time></trkpt><trkpt lat="46.00082384631058" lon="11.697607489719383"><ele>1351.0</ele><time>2026-05-02T08:45:41Z</time></trkpt><trkpt lat="46.00084678858757" lon="11.697459798857164"><ele>1351.0</ele><time>2026-05-02T08:45:42Z</time></trkpt><trkpt lat="46.00083292408548" lon="11.69731638979151"><ele>1351.0</ele><time>2026-05-02T08:45:43Z</time></trkpt><trkpt lat="46.00081234130455" lon="11.697192603641598"><ele>1351.0</ele><time>2026-05-02T08:45:44Z</time></trkpt><trkpt lat="46.00079893578519" lon="11.697099350370234"><ele>1351.0</ele><time>2026-05-02T08:45:45Z</time></trkpt><trkpt lat="46.00078155276543" lon="11.6969639892988"><ele>1352.8333333333333</ele><time>2026-05-02T08:45:47Z</time></trkpt><trkpt lat="46.00075329004647" lon="11.696809859237177"><ele>1354.6666666666665</ele><time>2026-05-02T08:45:49Z</time></trkpt><trkpt lat="46.000735723400204" lon="11.696722063567895"><ele>1356.5</ele><time>2026-05-02T08:45:50Z</time></trkpt><trkpt lat="46.000715717209836" lon="11.696629760303098"><ele>1358.3333333333333</ele><time>2026-05-02T08:45:51Z</time></trkpt><trkpt lat="46.0007049067181" lon="11.696524263880315"><ele>1360.1666666666667</ele><time>2026-05-02T08:45:52Z</time></trkpt><trkpt lat="46.00067783215212" lon="11.696413007721333"><ele>1362.0</ele><time>2026-05-02T08:45:53Z</time></trkpt><trkpt lat="46.00064055775844" lon="11.696284876294971"><ele>1362.0</ele><time>2026-05-02T08:45:54Z</time></trkpt><trkpt lat="46.0006048315974" lon="11.696158259732485"><ele>1362.0</ele><time>2026-05-02T08:45:55Z</time></trkpt><trkpt lat="46.000568699317064" lon="11.696020938574804"><ele>1362.0</ele><time>2026-05-02T08:45:56Z</time></trkpt><trkpt lat="46.00052664658387" lon="11.695888173950841"><ele>1362.0</ele><time>2026-05-02T08:45:57Z</time></trkpt><trkpt lat="46.00048255928471" lon="11.695754470043772"><ele>1362.0</ele><time>2026-05-02T08:45:58Z</time></trkpt><trkpt lat="46.00043837804575" lon="11.695622734552735"><ele>1363.8333333333333</ele><time>2026-05-02T08:45:59Z</time></trkpt><trkpt lat="46.00039741981778" lon="11.695512675234301"><ele>1365.6666666666667</ele><time>2026-05-02T08:46:00Z</time></trkpt><trkpt lat="46.0003630142995" lon="11.695423967959869"><ele>1367.5</ele><time>2026-05-02T08:46:01Z</time></trkpt><trkpt lat="46.000322359441974" lon="11.695347043557149"><ele>1369.3333333333335</ele><time>2026-05-02T08:46:02Z</time></trkpt><trkpt lat="46.000328116799565" lon="11.695199248133902"><ele>1371.1666666666667</ele><time>2026-05-02T08:46:04Z</time></trkpt><trkpt lat="46.00042660290471" lon="11.695249152412043"><ele>1373.0</ele><time>2026-05-02T08:46:06Z</time></trkpt><trkpt lat="46.00044260190768" lon="11.69534290395168"><ele>1373.0</ele><time>2026-05-02T08:46:07Z</time></trkpt><trkpt lat="46.00046767017266" lon="11.69543227919235"><ele>1373.0</ele><time>2026-05-02T08:46:08Z</time></trkpt><trkpt lat="46.000501844711195" lon="11.69551548688381"><ele>1373.0</ele><time>2026-05-02T08:46:09Z</time></trkpt><trkpt lat="46.00057277547166" lon="11.695621498535221"><ele>1373.0</ele><time>2026-05-02T08:46:11Z</time></trkpt><trkpt lat="46.00064024355002" lon="11.695588285362295"><ele>1373.0</ele><time>2026-05-02T08:46:12Z</time></trkpt><trkpt lat="46.00067687166027" lon="11.695458310970016"><ele>1373.0</ele><time>2026-05-02T08:46:14Z</time></trkpt><trkpt lat="46.000606586437485" lon="11.695293402496171"><ele>1375.8000000000002</ele><time>2026-05-02T08:46:16Z</time></trkpt><trkpt lat="46.000572600058725" lon="11.695182815551723"><ele>1378.6</ele><time>2026-05-02T08:46:16.999Z</time></trkpt><trkpt lat="46.00053292789466" lon="11.69505490596418"><ele>1381.4</ele><time>2026-05-02T08:46:17.999Z</time></trkpt><trkpt lat="46.00048656053704" lon="11.694908943688755"><ele>1384.1999999999998</ele><time>2026-05-02T08:46:18.999Z</time></trkpt><trkpt lat="46.00042322559245" lon="11.694771410176603"><ele>1387.0</ele><time>2026-05-02T08:46:19.999Z</time></trkpt><trkpt lat="46.000378895215455" lon="11.69462522087963"><ele>1387.0</ele><time>2026-05-02T08:46:20.999Z</time></trkpt><trkpt lat="46.00034294974455" lon="11.694493394664248"><ele>1387.0</ele><time>2026-05-02T08:46:21.999Z</time></trkpt><trkpt lat="46.00031065804304" lon="11.694352209689269"><ele>1387.0</ele><time>2026-05-02T08:46:22.999Z</time></trkpt><trkpt lat="46.000280599006565" lon="11.694202616959497"><ele>1387.0</ele><time>2026-05-02T08:46:23.999Z</time></trkpt><trkpt lat="46.00024982737247" lon="11.6940443075661"><ele>1387.0</ele><time>2026-05-02T08:46:24.999Z</time></trkpt><trkpt lat="46.00022428988359" lon="11.693883350015755"><ele>1389.0</ele><time>2026-05-02T08:46:25.999Z</time></trkpt><trkpt lat="46.00020603948799" lon="11.693749775402875"><ele>1391.0</ele><time>2026-05-02T08:46:26.999Z</time></trkpt><trkpt lat="46.0001905046702" lon="11.69363818137959"><ele>1393.0</ele><time>2026-05-02T08:46:27.999Z</time></trkpt><trkpt lat="46.00017748938216" lon="11.69354355410605"><ele>1395.0</ele><time>2026-05-02T08:46:28.999Z</time></trkpt><trkpt lat="46.00018139701499" lon="11.693388517163994"><ele>1397.0</ele><time>2026-05-02T08:46:30.999Z</time></trkpt><trkpt lat="46.00023252037958" lon="11.69333055278887"><ele>1399.0</ele><time>2026-05-02T08:46:31.999Z</time></trkpt><trkpt lat="46.00035217466755" lon="11.693434981536456"><ele>1402.2</ele><time>2026-05-02T08:46:33.999Z</time></trkpt><trkpt lat="46.0004290930387" lon="11.693492885977657"><ele>1405.4</ele><time>2026-05-02T08:46:34.999Z</time></trkpt><trkpt lat="46.00051569000499" lon="11.693540790282293"><ele>1408.6</ele><time>2026-05-02T08:46:35.999Z</time></trkpt><trkpt lat="46.00061710085464" lon="11.693571562476219"><ele>1411.8</ele><time>2026-05-02T08:46:36.999Z</time></trkpt><trkpt lat="46.0007128005761" lon="11.693560711985208"><ele>1415.0</ele><time>2026-05-02T08:46:37.999Z</time></trkpt><trkpt lat="46.000813962263344" lon="11.693524662273886"><ele>1414.6</ele><time>2026-05-02T08:46:38.999Z</time></trkpt><trkpt lat="46.00089447059306" lon="11.693446329965466"><ele>1414.2</ele><time>2026-05-02T08:46:39.999Z</time></trkpt><trkpt lat="46.00096764985568" lon="11.693373511813805"><ele>1413.8000000000002</ele><time>2026-05-02T08:46:40.999Z</time></trkpt><trkpt lat="46.001043832125696" lon="11.693281625395477"><ele>1413.4</ele><time>2026-05-02T08:46:41.999Z</time></trkpt><trkpt lat="46.00112041669528" lon="11.693186120455026"><ele>1413.0</ele><time>2026-05-02T08:46:42.999Z</time></trkpt><trkpt lat="46.0011927952719" lon="11.693092560924113"><ele>1413.0</ele><time>2026-05-02T08:46:43.999Z</time></trkpt><trkpt lat="46.00126284905462" lon="11.69298592933634"><ele>1413.0</ele><time>2026-05-02T08:46:44.999Z</time></trkpt><trkpt lat="46.001338105352524" lon="11.692869843250254"><ele>1413.0</ele><time>2026-05-02T08:46:45.999Z</time></trkpt><trkpt lat="46.00141647067204" lon="11.692744029454598"><ele>1413.0</ele><time>2026-05-02T08:46:46.999Z</time></trkpt><trkpt lat="46.00151087725569" lon="11.692631927028089"><ele>1415.0</ele><time>2026-05-02T08:46:47.999Z</time></trkpt><trkpt lat="46.00161901369639" lon="11.692549543936"><ele>1417.0</ele><time>2026-05-02T08:46:48.999Z</time></trkpt><trkpt lat="46.00174436083977" lon="11.692546464973534"><ele>1419.0</ele><time>2026-05-02T08:46:49.999Z</time></trkpt><trkpt lat="46.00186301337097" lon="11.692532432538215"><ele>1421.0</ele><time>2026-05-02T08:46:50.999Z</time></trkpt><trkpt lat="46.00198047249663" lon="11.692553743268245"><ele>1421.0</ele><time>2026-05-02T08:46:51.999Z</time></trkpt><trkpt lat="46.00208664770515" lon="11.692590161933287"><ele>1421.0</ele><time>2026-05-02T08:46:52.999Z</time></trkpt><trkpt lat="46.00219530674801" lon="11.6926060664861"><ele>1421.0</ele><time>2026-05-02T08:46:53.999Z</time></trkpt><trkpt lat="46.00229985208576" lon="11.692625723624323"><ele>1421.0</ele><time>2026-05-02T08:46:54.999Z</time></trkpt><trkpt lat="46.00239990225873" lon="11.692635165277057"><ele>1421.0</ele><time>2026-05-02T08:46:55.999Z</time></trkpt><trkpt lat="46.00251355879878" lon="11.6925790555016"><ele>1421.0</ele><time>2026-05-02T08:46:56.999Z</time></trkpt><trkpt lat="46.00262038778809" lon="11.692598163371034"><ele>1421.0</ele><time>2026-05-02T08:46:57.999Z</time></trkpt><trkpt lat="46.00272408326013" lon="11.692675535038132"><ele>1421.0</ele><time>2026-05-02T08:46:58.999Z</time></trkpt><trkpt lat="46.00281664677871" lon="11.692771584731675"><ele>1421.0</ele><time>2026-05-02T08:46:59.999Z</time></trkpt><trkpt lat="46.00291984205235" lon="11.692861318402837"><ele>1416.5</ele><time>2026-05-02T08:47:00.999Z</time></trkpt><trkpt lat="46.00303712557463" lon="11.692937888756608"><ele>1412.0</ele><time>2026-05-02T08:47:01.999Z</time></trkpt><trkpt lat="46.003149504737735" lon="11.693036352481188"><ele>1407.5</ele><time>2026-05-02T08:47:02.999Z</time></trkpt><trkpt lat="46.00326867262692" lon="11.693118159061848"><ele>1403.0</ele><time>2026-05-02T08:47:03.999Z</time></trkpt><trkpt lat="46.003391909555795" lon="11.693192034377354"><ele>1403.0</ele><time>2026-05-02T08:47:04.999Z</time></trkpt><trkpt lat="46.0035103226879" lon="11.693263027000997"><ele>1403.0</ele><time>2026-05-02T08:47:05.999Z</time></trkpt><trkpt lat="46.003619432209874" lon="11.693297986729812"><ele>1403.0</ele><time>2026-05-02T08:47:06.999Z</time></trkpt><trkpt lat="46.003720816331956" lon="11.6933056777524"><ele>1403.0</ele><time>2026-05-02T08:47:07.999Z</time></trkpt><trkpt lat="46.00382988142022" lon="11.693286973275043"><ele>1403.0</ele><time>2026-05-02T08:47:08.999Z</time></trkpt><trkpt lat="46.00394743606034" lon="11.693291849390523"><ele>1403.0</ele><time>2026-05-02T08:47:09.999Z</time></trkpt><trkpt lat="46.00406715350364" lon="11.69331455590777"><ele>1403.0</ele><time>2026-05-02T08:47:10.999Z</time></trkpt><trkpt lat="46.004165800671345" lon="11.693399430628585"><ele>1403.0</ele><time>2026-05-02T08:47:11.999Z</time></trkpt><trkpt lat="46.00422492946528" lon="11.693539790528648"><ele>1402.4</ele><time>2026-05-02T08:47:12.999Z</time></trkpt><trkpt lat="46.004279872433585" lon="11.693692987772003"><ele>1401.8000000000002</ele><time>2026-05-02T08:47:13.999Z</time></trkpt><trkpt lat="46.00434458895818" lon="11.693823530094415"><ele>1401.2</ele><time>2026-05-02T08:47:14.999Z</time></trkpt><trkpt lat="46.004407305973174" lon="11.693933459567805"><ele>1400.6</ele><time>2026-05-02T08:47:15.999Z</time></trkpt><trkpt lat="46.004495132912275" lon="11.693998702603373"><ele>1400.0</ele><time>2026-05-02T08:47:16.999Z</time></trkpt><trkpt lat="46.004599190617704" lon="11.694036273355902"><ele>1400.0</ele><time>2026-05-02T08:47:17.999Z</time></trkpt><trkpt lat="46.00471021197206" lon="11.694051312045202"><ele>1400.0</ele><time>2026-05-02T08:47:18.999Z</time></trkpt><trkpt lat="46.00482286076181" lon="11.694050575682649"><ele>1400.0</ele><time>2026-05-02T08:47:19.999Z</time></trkpt><trkpt lat="46.00492296118722" lon="11.694045951493038"><ele>1400.0</ele><time>2026-05-02T08:47:20.999Z</time></trkpt><trkpt lat="46.00502004383132" lon="11.694059420629141"><ele>1400.0</ele><time>2026-05-02T08:47:21.999Z</time></trkpt><trkpt lat="46.00511380128359" lon="11.694038882574468"><ele>1402.0</ele><time>2026-05-02T08:47:22.999Z</time></trkpt><trkpt lat="46.00521090214442" lon="11.693999615584127"><ele>1404.0</ele><time>2026-05-02T08:47:23.999Z</time></trkpt><trkpt lat="46.0053071843004" lon="11.69395153986665"><ele>1406.0</ele><time>2026-05-02T08:47:24.998Z</time></trkpt><trkpt lat="46.00540485939208" lon="11.69389249666802"><ele>1408.0</ele><time>2026-05-02T08:47:25.998Z</time></trkpt><trkpt lat="46.00550013815543" lon="11.693829790298178"><ele>1410.0</ele><time>2026-05-02T08:47:26.998Z</time></trkpt><trkpt lat="46.005592787696436" lon="11.693745496187649"><ele>1410.0</ele><time>2026-05-02T08:47:27.998Z</time></trkpt><trkpt lat="46.00567339019581" lon="11.693656494747973"><ele>1410.0</ele><time>2026-05-02T08:47:28.998Z</time></trkpt><trkpt lat="46.00573936553746" lon="11.69356680334023"><ele>1410.0</ele><time>2026-05-02T08:47:29.998Z</time></trkpt><trkpt lat="46.005797044471464" lon="11.693469032456504"><ele>1410.0</ele><time>2026-05-02T08:47:30.998Z</time></trkpt><trkpt lat="46.00586009862984" lon="11.693375314113348"><ele>1410.0</ele><time>2026-05-02T08:47:31.998Z</time></trkpt><trkpt lat="46.00592762257891" lon="11.693281045399452"><ele>1410.6</ele><time>2026-05-02T08:47:32.998Z</time></trkpt><trkpt lat="46.00599731144162" lon="11.693185839070123"><ele>1411.2</ele><time>2026-05-02T08:47:33.998Z</time></trkpt><trkpt lat="46.00607090173132" lon="11.693086953066103"><ele>1411.8000000000002</ele><time>2026-05-02T08:47:34.998Z</time></trkpt><trkpt lat="46.00613977316176" lon="11.692986902707172"><ele>1412.4</ele><time>2026-05-02T08:47:35.998Z</time></trkpt><trkpt lat="46.00620204501956" lon="11.692881697500201"><ele>1413.0</ele><time>2026-05-02T08:47:36.998Z</time></trkpt><trkpt lat="46.006254710690534" lon="11.69276357657857"><ele>1415.8000000000002</ele><time>2026-05-02T08:47:37.998Z</time></trkpt><trkpt lat="46.00627629599724" lon="11.692628191634432"><ele>1418.6</ele><time>2026-05-02T08:47:39Z</time></trkpt><trkpt lat="46.006310752534695" lon="11.69249393035087"><ele>1421.4</ele><time>2026-05-02T08:47:40Z</time></trkpt><trkpt lat="46.00635742885997" lon="11.692374428092341"><ele>1424.1999999999998</ele><time>2026-05-02T08:47:41Z</time></trkpt><trkpt lat="46.00639777777385" lon="11.692239226065006"><ele>1427.0</ele><time>2026-05-02T08:47:42Z</time></trkpt><trkpt lat="46.006444566187874" lon="11.692105559997307"><ele>1427.0</ele><time>2026-05-02T08:47:43Z</time></trkpt><trkpt lat="46.00647381531731" lon="11.691952302096018"><ele>1427.0</ele><time>2026-05-02T08:47:44Z</time></trkpt><trkpt lat="46.00650907792364" lon="11.691790644388075"><ele>1427.0</ele><time>2026-05-02T08:47:45Z</time></trkpt><trkpt lat="46.0064962794865" lon="11.691621654048424"><ele>1427.0</ele><time>2026-05-02T08:47:46Z</time></trkpt><trkpt lat="46.0064797543248" lon="11.691447617140048"><ele>1428.75</ele><time>2026-05-02T08:47:47Z</time></trkpt><trkpt lat="46.006468027634995" lon="11.691266968780944"><ele>1430.5</ele><time>2026-05-02T08:47:48Z</time></trkpt><trkpt lat="46.00648419673812" lon="11.691084001614264"><ele>1432.25</ele><time>2026-05-02T08:47:49Z</time></trkpt><trkpt lat="46.006552178297895" lon="11.690926093845746"><ele>1434.0</ele><time>2026-05-02T08:47:50Z</time></trkpt><trkpt lat="46.00660561683185" lon="11.690753694444872"><ele>1433.5</ele><time>2026-05-02T08:47:51Z</time></trkpt><trkpt lat="46.006630104355985" lon="11.69057404042656"><ele>1433.0</ele><time>2026-05-02T08:47:52Z</time></trkpt><trkpt lat="46.006633232574224" lon="11.69038604732726"><ele>1432.5</ele><time>2026-05-02T08:47:53Z</time></trkpt><trkpt lat="46.006635448587595" lon="11.690203006833183"><ele>1432.0</ele><time>2026-05-02T08:47:54Z</time></trkpt><trkpt lat="46.00669656030305" lon="11.690045188596171"><ele>1432.0</ele><time>2026-05-02T08:47:55Z</time></trkpt><trkpt lat="46.00679827146571" lon="11.689941005296337"><ele>1432.0</ele><time>2026-05-02T08:47:56Z</time></trkpt><trkpt lat="46.00685372324684" lon="11.689817286944473"><ele>1432.0</ele><time>2026-05-02T08:47:57Z</time></trkpt><trkpt lat="46.00690037916875" lon="11.689704572871408"><ele>1432.0</ele><time>2026-05-02T08:47:58Z</time></trkpt><trkpt lat="46.0069481557411" lon="11.68958666704204"><ele>1432.0</ele><time>2026-05-02T08:47:59Z</time></trkpt><trkpt lat="46.006966985985294" lon="11.689441519522854"><ele>1433.0</ele><time>2026-05-02T08:48:00Z</time></trkpt><trkpt lat="46.006970393691546" lon="11.689274870408664"><ele>1434.0</ele><time>2026-05-02T08:48:01Z</time></trkpt><trkpt lat="46.00696586830831" lon="11.689109121416811"><ele>1435.0</ele><time>2026-05-02T08:48:02Z</time></trkpt><trkpt lat="46.0069858965202" lon="11.688935090525469"><ele>1436.0</ele><time>2026-05-02T08:48:03Z</time></trkpt><trkpt lat="46.007039416377225" lon="11.688774990822546"><ele>1436.0</ele><time>2026-05-02T08:48:04Z</time></trkpt><trkpt lat="46.00711278367198" lon="11.688641337882226"><ele>1436.0</ele><time>2026-05-02T08:48:05Z</time></trkpt><trkpt lat="46.00717740673754" lon="11.688497903753648"><ele>1436.0</ele><time>2026-05-02T08:48:06Z</time></trkpt><trkpt lat="46.00726485001562" lon="11.68838128470975"><ele>1436.0</ele><time>2026-05-02T08:48:07Z</time></trkpt><trkpt lat="46.007332780186154" lon="11.688226887543246"><ele>1436.0</ele><time>2026-05-02T08:48:08Z</time></trkpt><trkpt lat="46.0073897770565" lon="11.688056656391668"><ele>1436.0</ele><time>2026-05-02T08:48:09Z</time></trkpt><trkpt lat="46.0074324252714" lon="11.687875267033958"><ele>1436.0</ele><time>2026-05-02T08:48:10Z</time></trkpt><trkpt lat="46.0074756893019" lon="11.687689636426523"><ele>1436.0</ele><time>2026-05-02T08:48:11Z</time></trkpt><trkpt lat="46.00751983392964" lon="11.687500227565085"><ele>1434.25</ele><time>2026-05-02T08:48:12Z</time></trkpt><trkpt lat="46.007563449412466" lon="11.687307649076729"><ele>1432.5</ele><time>2026-05-02T08:48:13Z</time></trkpt><trkpt lat="46.007602720939694" lon="11.687118218449596"><ele>1430.75</ele><time>2026-05-02T08:48:14Z</time></trkpt><trkpt lat="46.00761873789675" lon="11.68693214814272"><ele>1429.0</ele><time>2026-05-02T08:48:15Z</time></trkpt><trkpt lat="46.00766308814034" lon="11.686758597982188"><ele>1429.0</ele><time>2026-05-02T08:48:16Z</time></trkpt><trkpt lat="46.007686826028475" lon="11.68658165730262"><ele>1429.0</ele><time>2026-05-02T08:48:17Z</time></trkpt><trkpt lat="46.00767750735857" lon="11.686398032497166"><ele>1429.0</ele><time>2026-05-02T08:48:18Z</time></trkpt><trkpt lat="46.007690938456065" lon="11.6862267917029"><ele>1429.0</ele><time>2026-05-02T08:48:19Z</time></trkpt><trkpt lat="46.00769784715679" lon="11.686070514984758"><ele>1428.6666666666665</ele><time>2026-05-02T08:48:20Z</time></trkpt><trkpt lat="46.0077145948271" lon="11.685929489820655"><ele>1428.3333333333333</ele><time>2026-05-02T08:48:21Z</time></trkpt><trkpt lat="46.00776923054994" lon="11.685815265509554"><ele>1428.0</ele><time>2026-05-02T08:48:22Z</time></trkpt><trkpt lat="46.00779037005178" lon="11.685706575774498"><ele>1427.6666666666667</ele><time>2026-05-02T08:48:23Z</time></trkpt><trkpt lat="46.007839058290536" lon="11.685615630622973"><ele>1427.3333333333335</ele><time>2026-05-02T08:48:24Z</time></trkpt><trkpt lat="46.00789148483519" lon="11.685521084229643"><ele>1427.0</ele><time>2026-05-02T08:48:25Z</time></trkpt><trkpt lat="46.00795553302968" lon="11.685439136900357"><ele>1427.0</ele><time>2026-05-02T08:48:25.999Z</time></trkpt><trkpt lat="46.00801752560855" lon="11.68534038373081"><ele>1427.0</ele><time>2026-05-02T08:48:26.999Z</time></trkpt><trkpt lat="46.0080772592359" lon="11.685216477842452"><ele>1427.0</ele><time>2026-05-02T08:48:27.999Z</time></trkpt><trkpt lat="46.008160320617066" lon="11.685105124710176"><ele>1427.0</ele><time>2026-05-02T08:48:28.999Z</time></trkpt><trkpt lat="46.008248531502836" lon="11.684975997140306"><ele>1427.0</ele><time>2026-05-02T08:48:29.999Z</time></trkpt><trkpt lat="46.00834462947445" lon="11.68484293674684"><ele>1426.25</ele><time>2026-05-02T08:48:30.999Z</time></trkpt><trkpt lat="46.00845241703908" lon="11.684720344372405"><ele>1425.5</ele><time>2026-05-02T08:48:31.999Z</time></trkpt><trkpt lat="46.00853182197878" lon="11.684572178507489"><ele>1424.75</ele><time>2026-05-02T08:48:32.999Z</time></trkpt><trkpt lat="46.00860872931953" lon="11.684420369635927"><ele>1424.0</ele><time>2026-05-02T08:48:33.999Z</time></trkpt><trkpt lat="46.008670586888606" lon="11.684247653720856"><ele>1425.5</ele><time>2026-05-02T08:48:34.999Z</time></trkpt><trkpt lat="46.008745211397" lon="11.684084359036705"><ele>1427.0</ele><time>2026-05-02T08:48:35.999Z</time></trkpt><trkpt lat="46.008819622444236" lon="11.683926187964078"><ele>1428.5</ele><time>2026-05-02T08:48:36.999Z</time></trkpt><trkpt lat="46.0089038596446" lon="11.683777342865568"><ele>1430.0</ele><time>2026-05-02T08:48:37.999Z</time></trkpt><trkpt lat="46.00898765431083" lon="11.68363610906755"><ele>1428.75</ele><time>2026-05-02T08:48:38.999Z</time></trkpt><trkpt lat="46.009077926451056" lon="11.683519570948977"><ele>1427.5</ele><time>2026-05-02T08:48:39.999Z</time></trkpt><trkpt lat="46.00917161497467" lon="11.683425791130809"><ele>1426.25</ele><time>2026-05-02T08:48:40.999Z</time></trkpt><trkpt lat="46.00927201546541" lon="11.683329634876397"><ele>1425.0</ele><time>2026-05-02T08:48:41.999Z</time></trkpt><trkpt lat="46.00936199448796" lon="11.683221105851981"><ele>1424.5</ele><time>2026-05-02T08:48:42.999Z</time></trkpt><trkpt lat="46.009452015155006" lon="11.683104607440566"><ele>1424.0</ele><time>2026-05-02T08:48:43.999Z</time></trkpt><trkpt lat="46.00953845006509" lon="11.68297785564145"><ele>1423.5</ele><time>2026-05-02T08:48:44.999Z</time></trkpt><trkpt lat="46.00962630736046" lon="11.682851680085983"><ele>1423.0</ele><time>2026-05-02T08:48:45.999Z</time></trkpt><trkpt lat="46.00970410536269" lon="11.682711850714256"><ele>1423.0</ele><time>2026-05-02T08:48:46.999Z</time></trkpt><trkpt lat="46.0097841140306" lon="11.682572344548461"><ele>1423.0</ele><time>2026-05-02T08:48:47.999Z</time></trkpt><trkpt lat="46.0098645420075" lon="11.68242284826266"><ele>1423.0</ele><time>2026-05-02T08:48:48.999Z</time></trkpt><trkpt lat="46.00993367828941" lon="11.682254763870299"><ele>1423.0</ele><time>2026-05-02T08:48:49.999Z</time></trkpt><trkpt lat="46.010023093178944" lon="11.682092411896065"><ele>1418.5</ele><time>2026-05-02T08:48:50.999Z</time></trkpt><trkpt lat="46.010095134142176" lon="11.681919078228852"><ele>1414.0</ele><time>2026-05-02T08:48:51.999Z</time></trkpt><trkpt lat="46.010163763063794" lon="11.681739809337378"><ele>1409.5</ele><time>2026-05-02T08:48:52.999Z</time></trkpt><trkpt lat="46.01023240784062" lon="11.681557067758419"><ele>1405.0</ele><time>2026-05-02T08:48:53.999Z</time></trkpt><trkpt lat="46.01029226754653" lon="11.681378256691218"><ele>1405.0</ele><time>2026-05-02T08:48:54.999Z</time></trkpt><trkpt lat="46.01034631742384" lon="11.681196477590678"><ele>1405.0</ele><time>2026-05-02T08:48:55.999Z</time></trkpt><trkpt lat="46.0103987507193" lon="11.68101896095462"><ele>1405.0</ele><time>2026-05-02T08:48:56.999Z</time></trkpt><trkpt lat="46.01045247997439" lon="11.68084282792568"><ele>1405.0</ele><time>2026-05-02T08:48:57.999Z</time></trkpt><trkpt lat="46.01051174186028" lon="11.680682926905646"><ele>1405.25</ele><time>2026-05-02T08:48:58.999Z</time></trkpt><trkpt lat="46.010573944164435" lon="11.680528658659211"><ele>1405.5</ele><time>2026-05-02T08:48:59.999Z</time></trkpt><trkpt lat="46.01064876084735" lon="11.680378553940965"><ele>1405.75</ele><time>2026-05-02T08:49:00.999Z</time></trkpt><trkpt lat="46.01073360424353" lon="11.680231622524424"><ele>1406.0</ele><time>2026-05-02T08:49:01.999Z</time></trkpt><trkpt lat="46.010814149308864" lon="11.680083198338062"><ele>1401.0</ele><time>2026-05-02T08:49:02.999Z</time></trkpt><trkpt lat="46.010895470975456" lon="11.67993425982309"><ele>1396.0</ele><time>2026-05-02T08:49:03.999Z</time></trkpt><trkpt lat="46.01098904448837" lon="11.679791915750698"><ele>1391.0</ele><time>2026-05-02T08:49:04.999Z</time></trkpt><trkpt lat="46.01108408261378" lon="11.679657683345855"><ele>1386.0</ele><time>2026-05-02T08:49:05.999Z</time></trkpt><trkpt lat="46.0111849838868" lon="11.679523160199318"><ele>1384.0</ele><time>2026-05-02T08:49:06.999Z</time></trkpt><trkpt lat="46.01128949251825" lon="11.679385424910741"><ele>1382.0</ele><time>2026-05-02T08:49:07.999Z</time></trkpt><trkpt lat="46.01139253705903" lon="11.679243695344658"><ele>1380.0</ele><time>2026-05-02T08:49:08.999Z</time></trkpt><trkpt lat="46.011501044130604" lon="11.679105932893535"><ele>1378.0</ele><time>2026-05-02T08:49:09.999Z</time></trkpt><trkpt lat="46.01160316421982" lon="11.678976522368556"><ele>1377.25</ele><time>2026-05-02T08:49:10.999Z</time></trkpt><trkpt lat="46.01170421825258" lon="11.67885214203667"><ele>1376.5</ele><time>2026-05-02T08:49:11.999Z</time></trkpt><trkpt lat="46.01180145157781" lon="11.678726486273177"><ele>1375.75</ele><time>2026-05-02T08:49:12.999Z</time></trkpt><trkpt lat="46.01190163422387" lon="11.678598898778764"><ele>1375.0</ele><time>2026-05-02T08:49:13.999Z</time></trkpt><trkpt lat="46.01201315923013" lon="11.67850541632306"><ele>1371.75</ele><time>2026-05-02T08:49:14.999Z</time></trkpt><trkpt lat="46.01212029299251" lon="11.678394954609578"><ele>1368.5</ele><time>2026-05-02T08:49:15.999Z</time></trkpt><trkpt lat="46.01222906158499" lon="11.67828817627146"><ele>1365.25</ele><time>2026-05-02T08:49:16.999Z</time></trkpt><trkpt lat="46.012332359794506" lon="11.678168485554098"><ele>1362.0</ele><time>2026-05-02T08:49:17.999Z</time></trkpt><trkpt lat="46.01244746496528" lon="11.678076582006039"><ele>1363.25</ele><time>2026-05-02T08:49:18.999Z</time></trkpt><trkpt lat="46.01256642453525" lon="11.67800107285002"><ele>1364.5</ele><time>2026-05-02T08:49:19.999Z</time></trkpt><trkpt lat="46.012692962385536" lon="11.67793373636164"><ele>1365.75</ele><time>2026-05-02T08:49:20.999Z</time></trkpt><trkpt lat="46.012820459169355" lon="11.677855530059393"><ele>1367.0</ele><time>2026-05-02T08:49:21.999Z</time></trkpt><trkpt lat="46.012952145321755" lon="11.677777287042497"><ele>1366.6666666666667</ele><time>2026-05-02T08:49:22.999Z</time></trkpt><trkpt lat="46.01308852836003" lon="11.677691328629857"><ele>1366.3333333333333</ele><time>2026-05-02T08:49:23.999Z</time></trkpt><trkpt lat="46.01321809286626" lon="11.677587357859586"><ele>1366.0</ele><time>2026-05-02T08:49:24.999Z</time></trkpt><trkpt lat="46.0133489743576" lon="11.67747357808689"><ele>1366.0</ele><time>2026-05-02T08:49:25.999Z</time></trkpt><trkpt lat="46.01348050942777" lon="11.677365952093952"><ele>1366.0</ele><time>2026-05-02T08:49:26.999Z</time></trkpt><trkpt lat="46.01360914352431" lon="11.677260080641053"><ele>1366.0</ele><time>2026-05-02T08:49:27.999Z</time></trkpt><trkpt lat="46.013733136543934" lon="11.677161007838572"><ele>1366.0</ele><time>2026-05-02T08:49:28.999Z</time></trkpt><trkpt lat="46.013852636971585" lon="11.677058726577796"><ele>1366.0</ele><time>2026-05-02T08:49:29.999Z</time></trkpt><trkpt lat="46.01397379560712" lon="11.676975807428231"><ele>1366.0</ele><time>2026-05-02T08:49:30.999Z</time></trkpt><trkpt lat="46.01407361834792" lon="11.676861321474256"><ele>1366.0</ele><time>2026-05-02T08:49:31.998Z</time></trkpt><trkpt lat="46.01416942174133" lon="11.676777868301023"><ele>1366.0</ele><time>2026-05-02T08:49:32.998Z</time></trkpt><trkpt lat="46.01425743587896" lon="11.676715756122586"><ele>1365.4</ele><time>2026-05-02T08:49:33.998Z</time></trkpt><trkpt lat="46.01432090448432" lon="11.676617224932661"><ele>1364.8</ele><time>2026-05-02T08:49:34.998Z</time></trkpt><trkpt lat="46.01436001718527" lon="11.676465187469868"><ele>1364.2</ele><time>2026-05-02T08:49:35.998Z</time></trkpt><trkpt lat="46.0143887972956" lon="11.676309468328832"><ele>1363.6000000000001</ele><time>2026-05-02T08:49:36.998Z</time></trkpt><trkpt lat="46.014425779407375" lon="11.676147614176049"><ele>1363.0</ele><time>2026-05-02T08:49:37.998Z</time></trkpt><trkpt lat="46.01446437177664" lon="11.675982684440244"><ele>1363.0</ele><time>2026-05-02T08:49:38.998Z</time></trkpt><trkpt lat="46.01450208349389" lon="11.675821518949054"><ele>1363.0</ele><time>2026-05-02T08:49:39.998Z</time></trkpt><trkpt lat="46.01453979966579" lon="11.67566033312883"><ele>1363.0</ele><time>2026-05-02T08:49:40.998Z</time></trkpt><trkpt lat="46.014569438310836" lon="11.675505546201036"><ele>1363.0</ele><time>2026-05-02T08:49:41.998Z</time></trkpt><trkpt lat="46.014597623317094" lon="11.67533961547241"><ele>1360.25</ele><time>2026-05-02T08:49:42.998Z</time></trkpt><trkpt lat="46.01456415838006" lon="11.67514297898857"><ele>1357.5</ele><time>2026-05-02T08:49:43.998Z</time></trkpt><trkpt lat="46.0145284955632" lon="11.674941350944586"><ele>1354.75</ele><time>2026-05-02T08:49:45Z</time></trkpt><trkpt lat="46.01452094675994" lon="11.674726042551839"><ele>1352.0</ele><time>2026-05-02T08:49:46Z</time></trkpt><trkpt lat="46.01451810055649" lon="11.67451189105454"><ele>1351.5</ele><time>2026-05-02T08:49:47Z</time></trkpt><trkpt lat="46.01452446487713" lon="11.674312543968009"><ele>1351.0</ele><time>2026-05-02T08:49:48Z</time></trkpt><trkpt lat="46.014535887691906" lon="11.674099345940403"><ele>1350.5</ele><time>2026-05-02T08:49:49Z</time></trkpt><trkpt lat="46.01453761542812" lon="11.673905342028453"><ele>1350.0</ele><time>2026-05-02T08:49:50Z</time></trkpt><trkpt lat="46.01457806487333" lon="11.673726350387744"><ele>1350.75</ele><time>2026-05-02T08:49:51Z</time></trkpt><trkpt lat="46.01461552253553" lon="11.673554466714325"><ele>1351.5</ele><time>2026-05-02T08:49:52Z</time></trkpt><trkpt lat="46.01464662625651" lon="11.673375701887307"><ele>1352.25</ele><time>2026-05-02T08:49:53Z</time></trkpt><trkpt lat="46.014690620886924" lon="11.673206233539558"><ele>1353.0</ele><time>2026-05-02T08:49:54Z</time></trkpt><trkpt lat="46.014733353167856" lon="11.673041308154168"><ele>1353.0</ele><time>2026-05-02T08:49:55Z</time></trkpt><trkpt lat="46.01477374065671" lon="11.672879236205203"><ele>1353.0</ele><time>2026-05-02T08:49:56Z</time></trkpt><trkpt lat="46.01480986235409" lon="11.672716914133618"><ele>1353.0</ele><time>2026-05-02T08:49:57Z</time></trkpt><trkpt lat="46.014848215197624" lon="11.67255023250766"><ele>1353.0</ele><time>2026-05-02T08:49:58Z</time></trkpt><trkpt lat="46.01487166717268" lon="11.672393273969737"><ele>1352.25</ele><time>2026-05-02T08:49:59Z</time></trkpt><trkpt lat="46.014899942963" lon="11.672247113036478"><ele>1351.5</ele><time>2026-05-02T08:50:00Z</time></trkpt><trkpt lat="46.01494310055224" lon="11.672090783643121"><ele>1350.75</ele><time>2026-05-02T08:50:01Z</time></trkpt><trkpt lat="46.01499601558024" lon="11.671925006041738"><ele>1350.0</ele><time>2026-05-02T08:50:02Z</time></trkpt><trkpt lat="46.01505715912636" lon="11.671753671178552"><ele>1350.0</ele><time>2026-05-02T08:50:03Z</time></trkpt><trkpt lat="46.01512072931221" lon="11.671580878833325"><ele>1350.0</ele><time>2026-05-02T08:50:04Z</time></trkpt><trkpt lat="46.015183943122175" lon="11.6714107430373"><ele>1350.0</ele><time>2026-05-02T08:50:05Z</time></trkpt><trkpt lat="46.015247640654685" lon="11.67124544573791"><ele>1350.0</ele><time>2026-05-02T08:50:06Z</time></trkpt><trkpt lat="46.01531447586367" lon="11.671081843279683"><ele>1350.0</ele><time>2026-05-02T08:50:07Z</time></trkpt><trkpt lat="46.015382901197185" lon="11.670917365129664"><ele>1350.0</ele><time>2026-05-02T08:50:08Z</time></trkpt><trkpt lat="46.01545869991244" lon="11.670758960662287"><ele>1350.0</ele><time>2026-05-02T08:50:09Z</time></trkpt><trkpt lat="46.015540803990525" lon="11.67059763012526"><ele>1350.0</ele><time>2026-05-02T08:50:10Z</time></trkpt><trkpt lat="46.015613906101756" lon="11.670431283866954"><ele>1347.0</ele><time>2026-05-02T08:50:11Z</time></trkpt><trkpt lat="46.01567865033566" lon="11.67024628613628"><ele>1344.0</ele><time>2026-05-02T08:50:12Z</time></trkpt><trkpt lat="46.01575051989021" lon="11.670060908273472"><ele>1341.0</ele><time>2026-05-02T08:50:13Z</time></trkpt><trkpt lat="46.01581505441933" lon="11.669881716844207"><ele>1338.0</ele><time>2026-05-02T08:50:14Z</time></trkpt><trkpt lat="46.015872927919744" lon="11.669701307982304"><ele>1337.75</ele><time>2026-05-02T08:50:15Z</time></trkpt><trkpt lat="46.015941168795514" lon="11.669522536339267"><ele>1337.5</ele><time>2026-05-02T08:50:16Z</time></trkpt><trkpt lat="46.0160254986948" lon="11.669362636239022"><ele>1337.25</ele><time>2026-05-02T08:50:17Z</time></trkpt><trkpt lat="46.01612273229069" lon="11.669213010146072"><ele>1337.0</ele><time>2026-05-02T08:50:18Z</time></trkpt><trkpt lat="46.01622405380629" lon="11.66907665340356"><ele>1337.5</ele><time>2026-05-02T08:50:19Z</time></trkpt><trkpt lat="46.01633456307687" lon="11.668956601889201"><ele>1338.0</ele><time>2026-05-02T08:50:20Z</time></trkpt><trkpt lat="46.01644398984452" lon="11.668839238034712"><ele>1338.5</ele><time>2026-05-02T08:50:21Z</time></trkpt><trkpt lat="46.016550104346294" lon="11.668715809813364"><ele>1339.0</ele><time>2026-05-02T08:50:22Z</time></trkpt><trkpt lat="46.01665821572692" lon="11.668597214327065"><ele>1340.25</ele><time>2026-05-02T08:50:23Z</time></trkpt><trkpt lat="46.01676535404753" lon="11.668477908161847"><ele>1341.5</ele><time>2026-05-02T08:50:24Z</time></trkpt><trkpt lat="46.0168791654805" lon="11.668374641608848"><ele>1342.75</ele><time>2026-05-02T08:50:25Z</time></trkpt><trkpt lat="46.01700127282677" lon="11.66830003740087"><ele>1344.0</ele><time>2026-05-02T08:50:26Z</time></trkpt><trkpt lat="46.01713027911919" lon="11.668246754219792"><ele>1344.0</ele><time>2026-05-02T08:50:27Z</time></trkpt><trkpt lat="46.01725748450569" lon="11.668201743954437"><ele>1344.0</ele><time>2026-05-02T08:50:28Z</time></trkpt><trkpt lat="46.017380354340126" lon="11.668151544342287"><ele>1344.0</ele><time>2026-05-02T08:50:29Z</time></trkpt><trkpt lat="46.017495880615826" lon="11.668111495447375"><ele>1344.0</ele><time>2026-05-02T08:50:30Z</time></trkpt><trkpt lat="46.017613675375124" lon="11.668077035050786"><ele>1339.75</ele><time>2026-05-02T08:50:31Z</time></trkpt><trkpt lat="46.01772846585397" lon="11.668057686563817"><ele>1335.5</ele><time>2026-05-02T08:50:32Z</time></trkpt><trkpt lat="46.017848229468086" lon="11.668061032789474"><ele>1331.25</ele><time>2026-05-02T08:50:33Z</time></trkpt><trkpt lat="46.017967901924266" lon="11.668113845455828"><ele>1327.0</ele><time>2026-05-02T08:50:34Z</time></trkpt><trkpt lat="46.0180717888235" lon="11.668176520722566"><ele>1327.0</ele><time>2026-05-02T08:50:35Z</time></trkpt><trkpt lat="46.01817346106514" lon="11.668195032127656"><ele>1327.0</ele><time>2026-05-02T08:50:36Z</time></trkpt><trkpt lat="46.01828847262308" lon="11.668205531666986"><ele>1327.0</ele><time>2026-05-02T08:50:37Z</time></trkpt><trkpt lat="46.01839933986403" lon="11.6681314091321"><ele>1327.0</ele><time>2026-05-02T08:50:38Z</time></trkpt><trkpt lat="46.018505313328916" lon="11.668047952437032"><ele>1325.3999999999999</ele><time>2026-05-02T08:50:39Z</time></trkpt><trkpt lat="46.01860329019263" lon="11.667991806664228"><ele>1323.8</ele><time>2026-05-02T08:50:39.999Z</time></trkpt><trkpt lat="46.018711324966525" lon="11.667922003010961"><ele>1322.2</ele><time>2026-05-02T08:50:40.999Z</time></trkpt><trkpt lat="46.01882849070444" lon="11.667891098822615"><ele>1320.6</ele><time>2026-05-02T08:50:41.999Z</time></trkpt><trkpt lat="46.01892349680235" lon="11.667903061631018"><ele>1319.0</ele><time>2026-05-02T08:50:42.999Z</time></trkpt><trkpt lat="46.01901974846711" lon="11.6679375825318"><ele>1319.0</ele><time>2026-05-02T08:50:43.999Z</time></trkpt><trkpt lat="46.01911623782473" lon="11.667924748330224"><ele>1319.0</ele><time>2026-05-02T08:50:44.999Z</time></trkpt><trkpt lat="46.01919840186692" lon="11.667897167484462"><ele>1319.0</ele><time>2026-05-02T08:50:45.999Z</time></trkpt><trkpt lat="46.01929128578202" lon="11.667860768817988"><ele>1319.0</ele><time>2026-05-02T08:50:46.999Z</time></trkpt><trkpt lat="46.01939079099572" lon="11.667827318736766"><ele>1319.0</ele><time>2026-05-02T08:50:47.999Z</time></trkpt><trkpt lat="46.01949911261444" lon="11.66780495743227"><ele>1322.75</ele><time>2026-05-02T08:50:48.999Z</time></trkpt><trkpt lat="46.01960775915913" lon="11.667757137513252"><ele>1326.5</ele><time>2026-05-02T08:50:49.999Z</time></trkpt><trkpt lat="46.01975275047988" lon="11.66764193504713"><ele>1330.25</ele><time>2026-05-02T08:50:50.999Z</time></trkpt><trkpt lat="46.0198253944062" lon="11.667562532922"><ele>1334.0</ele><time>2026-05-02T08:50:51.999Z</time></trkpt><trkpt lat="46.02000108449957" lon="11.667350875229372"><ele>1334.0</ele><time>2026-05-02T08:50:52.999Z</time></trkpt><trkpt lat="46.020070358813385" lon="11.667180993270769"><ele>1334.0</ele><time>2026-05-02T08:50:53.999Z</time></trkpt><trkpt lat="46.02012563523615" lon="11.667067015960036"><ele>1334.0</ele><time>2026-05-02T08:50:54.999Z</time></trkpt><trkpt lat="46.02021051649284" lon="11.666983589811954"><ele>1334.0</ele><time>2026-05-02T08:50:55.999Z</time></trkpt><trkpt lat="46.02033484187178" lon="11.666933650485387"><ele>1334.5</ele><time>2026-05-02T08:50:56.999Z</time></trkpt><trkpt lat="46.02046756945827" lon="11.666898704239655"><ele>1335.0</ele><time>2026-05-02T08:50:57.999Z</time></trkpt><trkpt lat="46.02060449657676" lon="11.666839399190849"><ele>1335.5</ele><time>2026-05-02T08:50:58.999Z</time></trkpt><trkpt lat="46.020737201387085" lon="11.66680027253137"><ele>1336.0</ele><time>2026-05-02T08:50:59.999Z</time></trkpt><trkpt lat="46.02087115336905" lon="11.666723593021896"><ele>1336.0</ele><time>2026-05-02T08:51:00.999Z</time></trkpt><trkpt lat="46.020985598780236" lon="11.666627174130328"><ele>1336.0</ele><time>2026-05-02T08:51:01.999Z</time></trkpt><trkpt lat="46.021108764787265" lon="11.666601808120317"><ele>1336.0</ele><time>2026-05-02T08:51:02.999Z</time></trkpt><trkpt lat="46.021236669135924" lon="11.666605487733447"><ele>1336.0</ele><time>2026-05-02T08:51:03.999Z</time></trkpt><trkpt lat="46.0213681776417" lon="11.66663200098268"><ele>1336.0</ele><time>2026-05-02T08:51:04.999Z</time></trkpt><trkpt lat="46.02150456140541" lon="11.666643277825537"><ele>1336.0</ele><time>2026-05-02T08:51:05.999Z</time></trkpt><trkpt lat="46.02164587525152" lon="11.666650022379091"><ele>1336.0</ele><time>2026-05-02T08:51:06.999Z</time></trkpt><trkpt lat="46.02178680793829" lon="11.66665872209334"><ele>1336.0</ele><time>2026-05-02T08:51:07.999Z</time></trkpt><trkpt lat="46.021932250522376" lon="11.66665986816029"><ele>1332.25</ele><time>2026-05-02T08:51:08.999Z</time></trkpt><trkpt lat="46.02207591658711" lon="11.666665359247817"><ele>1328.5</ele><time>2026-05-02T08:51:09.999Z</time></trkpt><trkpt lat="46.02222387330522" lon="11.666649857647055"><ele>1324.75</ele><time>2026-05-02T08:51:10.999Z</time></trkpt><trkpt lat="46.022371632926344" lon="11.666641608696677"><ele>1321.0</ele><time>2026-05-02T08:51:11.999Z</time></trkpt><trkpt lat="46.02251789198007" lon="11.666633438443034"><ele>1320.5</ele><time>2026-05-02T08:51:12.999Z</time></trkpt><trkpt lat="46.02265890648262" lon="11.66661340433074"><ele>1320.0</ele><time>2026-05-02T08:51:13.999Z</time></trkpt><trkpt lat="46.022793502228126" lon="11.666589601293218"><ele>1319.5</ele><time>2026-05-02T08:51:14.999Z</time></trkpt><trkpt lat="46.02292406743718" lon="11.666553919841505"><ele>1319.0</ele><time>2026-05-02T08:51:15.999Z</time></trkpt><trkpt lat="46.02305195318197" lon="11.66649846795379"><ele>1319.0</ele><time>2026-05-02T08:51:16.999Z</time></trkpt><trkpt lat="46.0231739647965" lon="11.66642296647308"><ele>1319.0</ele><time>2026-05-02T08:51:17.999Z</time></trkpt><trkpt lat="46.02328739350395" lon="11.666331540418778"><ele>1319.0</ele><time>2026-05-02T08:51:18.999Z</time></trkpt><trkpt lat="46.02337855190112" lon="11.666202473621544"><ele>1319.0</ele><time>2026-05-02T08:51:19.999Z</time></trkpt><trkpt lat="46.02347187689025" lon="11.666059004575446"><ele>1319.25</ele><time>2026-05-02T08:51:20.999Z</time></trkpt><trkpt lat="46.023563903485034" lon="11.665902370288117"><ele>1319.5</ele><time>2026-05-02T08:51:21.999Z</time></trkpt><trkpt lat="46.023624705556884" lon="11.665707486134668"><ele>1319.75</ele><time>2026-05-02T08:51:22.999Z</time></trkpt><trkpt lat="46.02367084609924" lon="11.665508482763748"><ele>1320.0</ele><time>2026-05-02T08:51:23.999Z</time></trkpt><trkpt lat="46.02371296410252" lon="11.665311787104875"><ele>1323.75</ele><time>2026-05-02T08:51:24.999Z</time></trkpt><trkpt lat="46.023757527392256" lon="11.665119304051634"><ele>1327.5</ele><time>2026-05-02T08:51:25.999Z</time></trkpt><trkpt lat="46.0238030280341" lon="11.664928178100006"><ele>1331.25</ele><time>2026-05-02T08:51:26.999Z</time></trkpt><trkpt lat="46.02384656425028" lon="11.664741976430124"><ele>1335.0</ele><time>2026-05-02T08:51:27.999Z</time></trkpt><trkpt lat="46.02388067142034" lon="11.664558365271594"><ele>1335.5</ele><time>2026-05-02T08:51:28.999Z</time></trkpt><trkpt lat="46.023909634252924" lon="11.664376432139681"><ele>1336.0</ele><time>2026-05-02T08:51:29.999Z</time></trkpt><trkpt lat="46.0239351877822" lon="11.664198557418343"><ele>1336.5</ele><time>2026-05-02T08:51:30.999Z</time></trkpt><trkpt lat="46.023960462915404" lon="11.664020800225803"><ele>1337.0</ele><time>2026-05-02T08:51:31.999Z</time></trkpt><trkpt lat="46.02398502190881" lon="11.663837067926929"><ele>1337.0</ele><time>2026-05-02T08:51:32.999Z</time></trkpt><trkpt lat="46.02400731653729" lon="11.66365445142688"><ele>1337.0</ele><time>2026-05-02T08:51:33.999Z</time></trkpt><trkpt lat="46.02403091084221" lon="11.663471312620297"><ele>1337.0</ele><time>2026-05-02T08:51:34.999Z</time></trkpt><trkpt lat="46.02410081731758" lon="11.663312775768143"><ele>1337.0</ele><time>2026-05-02T08:51:35.999Z</time></trkpt><trkpt lat="46.02418390107701" lon="11.663170934954557"><ele>1332.0</ele><time>2026-05-02T08:51:36.999Z</time></trkpt><trkpt lat="46.02427054564248" lon="11.663028215307238"><ele>1327.0</ele><time>2026-05-02T08:51:37.999Z</time></trkpt><trkpt lat="46.024342543137074" lon="11.662864062261267"><ele>1322.0</ele><time>2026-05-02T08:51:38.999Z</time></trkpt><trkpt lat="46.02443322020816" lon="11.662713743372379"><ele>1317.0</ele><time>2026-05-02T08:51:39.999Z</time></trkpt><trkpt lat="46.02449824834225" lon="11.662542180063154"><ele>1317.0</ele><time>2026-05-02T08:51:40.999Z</time></trkpt><trkpt lat="46.024558302295894" lon="11.662365120320692"><ele>1317.0</ele><time>2026-05-02T08:51:41.999Z</time></trkpt><trkpt lat="46.024608680574374" lon="11.6621810630753"><ele>1317.0</ele><time>2026-05-02T08:51:42.999Z</time></trkpt><trkpt lat="46.02465242779215" lon="11.662002060187337"><ele>1317.0</ele><time>2026-05-02T08:51:43.999Z</time></trkpt><trkpt lat="46.0247117727975" lon="11.661837081149011"><ele>1316.25</ele><time>2026-05-02T08:51:44.998Z</time></trkpt><trkpt lat="46.02478038525914" lon="11.66169346475957"><ele>1315.5</ele><time>2026-05-02T08:51:45.998Z</time></trkpt><trkpt lat="46.02487726013919" lon="11.661563028752461"><ele>1314.75</ele><time>2026-05-02T08:51:46.998Z</time></trkpt><trkpt lat="46.024981547583614" lon="11.661442248004509"><ele>1314.0</ele><time>2026-05-02T08:51:47.998Z</time></trkpt><trkpt lat="46.02508284449247" lon="11.66133283671845"><ele>1308.5</ele><time>2026-05-02T08:51:48.998Z</time></trkpt><trkpt lat="46.02516946042204" lon="11.66121208895765"><ele>1303.0</ele><time>2026-05-02T08:51:50Z</time></trkpt><trkpt lat="46.025239458059986" lon="11.661076551480589"><ele>1297.5</ele><time>2026-05-02T08:51:51Z</time></trkpt><trkpt lat="46.02531733447049" lon="11.660948212792409"><ele>1292.0</ele><time>2026-05-02T08:51:52Z</time></trkpt><trkpt lat="46.02536606705204" lon="11.660792795206271"><ele>1292.0</ele><time>2026-05-02T08:51:53Z</time></trkpt><trkpt lat="46.02539901401743" lon="11.660655306848783"><ele>1292.0</ele><time>2026-05-02T08:51:54Z</time></trkpt><trkpt lat="46.02543127383775" lon="11.660540912083398"><ele>1292.0</ele><time>2026-05-02T08:51:55Z</time></trkpt><trkpt lat="46.02548090495592" lon="11.660467372656312"><ele>1292.0</ele><time>2026-05-02T08:51:56Z</time></trkpt><trkpt lat="46.025545230713" lon="11.660456223649058"><ele>1292.0</ele><time>2026-05-02T08:51:57Z</time></trkpt><trkpt lat="46.025601357367364" lon="11.66050314799855"><ele>1292.0</ele><time>2026-05-02T08:51:58Z</time></trkpt><trkpt lat="46.02562597026566" lon="11.660591185122833"><ele>1292.0</ele><time>2026-05-02T08:51:59Z</time></trkpt><trkpt lat="46.02558962161219" lon="11.660715479754074"><ele>1292.0</ele><time>2026-05-02T08:52:00Z</time></trkpt><trkpt lat="46.02556658603816" lon="11.660832501706679"><ele>1292.0</ele><time>2026-05-02T08:52:01Z</time></trkpt><trkpt lat="46.025543642967484" lon="11.660966738456148"><ele>1292.0</ele><time>2026-05-02T08:52:02Z</time></trkpt><trkpt lat="46.025534094550125" lon="11.661062681928186"><ele>1292.0</ele><time>2026-05-02T08:52:03Z</time></trkpt><trkpt lat="46.02557726230532" lon="11.661152218865668"><ele>1292.0</ele><time>2026-05-02T08:52:04Z</time></trkpt><trkpt lat="46.025676247876596" lon="11.661155139122648"><ele>1292.0</ele><time>2026-05-02T08:52:05Z</time></trkpt><trkpt lat="46.02574928225918" lon="11.66101275586695"><ele>1292.0</ele><time>2026-05-02T08:52:06Z</time></trkpt><trkpt lat="46.02582134055073" lon="11.660897695634269"><ele>1292.0</ele><time>2026-05-02T08:52:07Z</time></trkpt><trkpt lat="46.02588707206001" lon="11.660807798787955"><ele>1292.0</ele><time>2026-05-02T08:52:08Z</time></trkpt><trkpt lat="46.02598483147573" lon="11.66068686714371"><ele>1288.0</ele><time>2026-05-02T08:52:09Z</time></trkpt><trkpt lat="46.02608862677966" lon="11.660571853040812"><ele>1284.0</ele><time>2026-05-02T08:52:10Z</time></trkpt><trkpt lat="46.02619524711517" lon="11.660453670298601"><ele>1280.0</ele><time>2026-05-02T08:52:11Z</time></trkpt><trkpt lat="46.0263007789096" lon="11.660326532985147"><ele>1276.0</ele><time>2026-05-02T08:52:12Z</time></trkpt><trkpt lat="46.026408884959146" lon="11.660227250816451"><ele>1275.25</ele><time>2026-05-02T08:52:13Z</time></trkpt><trkpt lat="46.02651873866386" lon="11.660143619156376"><ele>1274.5</ele><time>2026-05-02T08:52:14Z</time></trkpt><trkpt lat="46.02663127737919" lon="11.660071283247888"><ele>1273.75</ele><time>2026-05-02T08:52:15Z</time></trkpt><trkpt lat="46.026754148623105" lon="11.660011120484253"><ele>1273.0</ele><time>2026-05-02T08:52:16Z</time></trkpt><trkpt lat="46.02687951705647" lon="11.659967259013786"><ele>1270.5</ele><time>2026-05-02T08:52:17Z</time></trkpt><trkpt lat="46.02700704777344" lon="11.659952710899953"><ele>1268.0</ele><time>2026-05-02T08:52:18Z</time></trkpt><trkpt lat="46.027137536181925" lon="11.65995694011512"><ele>1265.5</ele><time>2026-05-02T08:52:19Z</time></trkpt><trkpt lat="46.027263641009476" lon="11.65995883844895"><ele>1263.0</ele><time>2026-05-02T08:52:20Z</time></trkpt><trkpt lat="46.02738287270528" lon="11.65995776764586"><ele>1262.5</ele><time>2026-05-02T08:52:21Z</time></trkpt><trkpt lat="46.02749106675021" lon="11.659948852793317"><ele>1262.0</ele><time>2026-05-02T08:52:22Z</time></trkpt><trkpt lat="46.02759535273367" lon="11.659928866368862"><ele>1261.5</ele><time>2026-05-02T08:52:23Z</time></trkpt><trkpt lat="46.027704144512725" lon="11.659908979760575"><ele>1261.0</ele><time>2026-05-02T08:52:24Z</time></trkpt><trkpt lat="46.02781866703252" lon="11.659824631275155"><ele>1261.0</ele><time>2026-05-02T08:52:25Z</time></trkpt><trkpt lat="46.02793026761458" lon="11.65972320418804"><ele>1261.0</ele><time>2026-05-02T08:52:26Z</time></trkpt><trkpt lat="46.02802868531017" lon="11.659631258965891"><ele>1261.0</ele><time>2026-05-02T08:52:27Z</time></trkpt><trkpt lat="46.028163560315235" lon="11.659489256037277"><ele>1261.0</ele><time>2026-05-02T08:52:28Z</time></trkpt><trkpt lat="46.028281356387474" lon="11.659340986800235"><ele>1256.75</ele><time>2026-05-02T08:52:29Z</time></trkpt><trkpt lat="46.02838914447855" lon="11.659194449624776"><ele>1252.5</ele><time>2026-05-02T08:52:30Z</time></trkpt><trkpt lat="46.02850587919922" lon="11.65909729570202"><ele>1248.25</ele><time>2026-05-02T08:52:31Z</time></trkpt><trkpt lat="46.02861878639562" lon="11.6590209313558"><ele>1244.0</ele><time>2026-05-02T08:52:32Z</time></trkpt><trkpt lat="46.02873299498863" lon="11.658956304140112"><ele>1244.0</ele><time>2026-05-02T08:52:33Z</time></trkpt><trkpt lat="46.02884402656624" lon="11.65890283278364"><ele>1244.0</ele><time>2026-05-02T08:52:34Z</time></trkpt><trkpt lat="46.028947029359344" lon="11.658864499573957"><ele>1244.0</ele><time>2026-05-02T08:52:35Z</time></trkpt><trkpt lat="46.02905248726484" lon="11.658825015597525"><ele>1244.0</ele><time>2026-05-02T08:52:36Z</time></trkpt><trkpt lat="46.029158037962155" lon="11.658785092075476"><ele>1244.0</ele><time>2026-05-02T08:52:37Z</time></trkpt><trkpt lat="46.02926190130967" lon="11.658740910656695"><ele>1244.5</ele><time>2026-05-02T08:52:38Z</time></trkpt><trkpt lat="46.02936772906132" lon="11.658678352386035"><ele>1245.0</ele><time>2026-05-02T08:52:38.999Z</time></trkpt><trkpt lat="46.02947677286528" lon="11.6586126789151"><ele>1245.5</ele><time>2026-05-02T08:52:39.999Z</time></trkpt><trkpt lat="46.02958306545192" lon="11.658542898570998"><ele>1246.0</ele><time>2026-05-02T08:52:40.999Z</time></trkpt><trkpt lat="46.029684010901306" lon="11.658464107236977"><ele>1246.0</ele><time>2026-05-02T08:52:41.999Z</time></trkpt><trkpt lat="46.02977851157598" lon="11.658378403996316"><ele>1246.0</ele><time>2026-05-02T08:52:42.999Z</time></trkpt><trkpt lat="46.02987633229299" lon="11.658286325369184"><ele>1246.0</ele><time>2026-05-02T08:52:43.999Z</time></trkpt><trkpt lat="46.029986921454366" lon="11.65819547624995"><ele>1246.0</ele><time>2026-05-02T08:52:44.999Z</time></trkpt><trkpt lat="46.030094837827214" lon="11.658108618862817"><ele>1246.0</ele><time>2026-05-02T08:52:45.999Z</time></trkpt><trkpt lat="46.03019455704752" lon="11.658016995348634"><ele>1246.0</ele><time>2026-05-02T08:52:46.999Z</time></trkpt><trkpt lat="46.0302957361579" lon="11.65792283272762"><ele>1246.0</ele><time>2026-05-02T08:52:47.999Z</time></trkpt><trkpt lat="46.03041103165061" lon="11.657834006480337"><ele>1246.0</ele><time>2026-05-02T08:52:48.999Z</time></trkpt><trkpt lat="46.030530175182456" lon="11.65774584444575"><ele>1248.5</ele><time>2026-05-02T08:52:49.999Z</time></trkpt><trkpt lat="46.03062353662146" lon="11.657636790355122"><ele>1251.0</ele><time>2026-05-02T08:52:50.999Z</time></trkpt><trkpt lat="46.03070356156364" lon="11.657439114714597"><ele>1253.5</ele><time>2026-05-02T08:52:52.999Z</time></trkpt><trkpt lat="46.03075118984349" lon="11.657309529268277"><ele>1256.0</ele><time>2026-05-02T08:52:53.999Z</time></trkpt><trkpt lat="46.03078157087889" lon="11.657164986905126"><ele>1256.0</ele><time>2026-05-02T08:52:54.999Z</time></trkpt><trkpt lat="46.03079664063631" lon="11.656999295407104"><ele>1256.0</ele><time>2026-05-02T08:52:55.999Z</time></trkpt><trkpt lat="46.03080664390984" lon="11.656818299607085"><ele>1256.0</ele><time>2026-05-02T08:52:56.999Z</time></trkpt><trkpt lat="46.03081619064744" lon="11.65663884331113"><ele>1256.0</ele><time>2026-05-02T08:52:57.999Z</time></trkpt><trkpt lat="46.03081531486267" lon="11.656462058277128"><ele>1253.25</ele><time>2026-05-02T08:52:58.999Z</time></trkpt><trkpt lat="46.030791749349305" lon="11.65628738101455"><ele>1250.5</ele><time>2026-05-02T08:52:59.999Z</time></trkpt><trkpt lat="46.0307493924418" lon="11.656114186293802"><ele>1247.75</ele><time>2026-05-02T08:53:00.999Z</time></trkpt><trkpt lat="46.03069275384101" lon="11.6559415248978"><ele>1245.0</ele><time>2026-05-02T08:53:01.999Z</time></trkpt><trkpt lat="46.030644227611084" lon="11.65575388917737"><ele>1239.75</ele><time>2026-05-02T08:53:02.999Z</time></trkpt><trkpt lat="46.030584421862805" lon="11.655573929832167"><ele>1234.5</ele><time>2026-05-02T08:53:03.999Z</time></trkpt><trkpt lat="46.03052513592566" lon="11.655390047624438"><ele>1229.25</ele><time>2026-05-02T08:53:04.999Z</time></trkpt><trkpt lat="46.03047325947139" lon="11.655215138682472"><ele>1224.0</ele><time>2026-05-02T08:53:05.999Z</time></trkpt><trkpt lat="46.030455308934066" lon="11.655031494124382"><ele>1222.25</ele><time>2026-05-02T08:53:06.999Z</time></trkpt><trkpt lat="46.03043517894525" lon="11.654841034838718"><ele>1220.5</ele><time>2026-05-02T08:53:07.999Z</time></trkpt><trkpt lat="46.0304272521895" lon="11.654638524560989"><ele>1218.75</ele><time>2026-05-02T08:53:08.999Z</time></trkpt><trkpt lat="46.030424435818325" lon="11.65443879098118"><ele>1217.0</ele><time>2026-05-02T08:53:09.999Z</time></trkpt><trkpt lat="46.03042443581511" lon="11.654236316595657"><ele>1217.0</ele><time>2026-05-02T08:53:10.999Z</time></trkpt><trkpt lat="46.03042443581255" lon="11.654035232252454"><ele>1217.0</ele><time>2026-05-02T08:53:11.999Z</time></trkpt><trkpt lat="46.03042443581058" lon="11.653837114673584"><ele>1217.0</ele><time>2026-05-02T08:53:12.999Z</time></trkpt><trkpt lat="46.0304244358083" lon="11.653637920987189"><ele>1217.0</ele><time>2026-05-02T08:53:13.999Z</time></trkpt><trkpt lat="46.030417636546545" lon="11.65343799635445"><ele>1218.25</ele><time>2026-05-02T08:53:14.999Z</time></trkpt><trkpt lat="46.0304242615971" lon="11.653238886507033"><ele>1219.5</ele><time>2026-05-02T08:53:15.999Z</time></trkpt><trkpt lat="46.03043196631145" lon="11.653040983741338"><ele>1220.75</ele><time>2026-05-02T08:53:16.999Z</time></trkpt><trkpt lat="46.03046567570789" lon="11.652849911478603"><ele>1222.0</ele><time>2026-05-02T08:53:17.999Z</time></trkpt><trkpt lat="46.03048153971449" lon="11.652650542711209"><ele>1226.25</ele><time>2026-05-02T08:53:18.999Z</time></trkpt><trkpt lat="46.0305254317999" lon="11.652461081375398"><ele>1230.5</ele><time>2026-05-02T08:53:19.999Z</time></trkpt><trkpt lat="46.030594251767624" lon="11.652282657708929"><ele>1234.75</ele><time>2026-05-02T08:53:20.999Z</time></trkpt><trkpt lat="46.03066737592447" lon="11.652109596136867"><ele>1239.0</ele><time>2026-05-02T08:53:21.999Z</time></trkpt><trkpt lat="46.030749620437575" lon="11.651944919175788"><ele>1241.75</ele><time>2026-05-02T08:53:22.999Z</time></trkpt><trkpt lat="46.03083799405095" lon="11.651780046167472"><ele>1244.5</ele><time>2026-05-02T08:53:23.999Z</time></trkpt><trkpt lat="46.03091807519935" lon="11.651601987139236"><ele>1247.25</ele><time>2026-05-02T08:53:24.999Z</time></trkpt><trkpt lat="46.03100747422626" lon="11.651432538080766"><ele>1250.0</ele><time>2026-05-02T08:53:25.999Z</time></trkpt><trkpt lat="46.031095470573824" lon="11.651256654757706"><ele>1253.6666666666667</ele><time>2026-05-02T08:53:26.999Z</time></trkpt><trkpt lat="46.03119849868939" lon="11.651092060921133"><ele>1257.3333333333333</ele><time>2026-05-02T08:53:27.999Z</time></trkpt><trkpt lat="46.031290256682695" lon="11.650913439489791"><ele>1261.0</ele><time>2026-05-02T08:53:28.999Z</time></trkpt><trkpt lat="46.031382046952054" lon="11.650738028699706"><ele>1261.0</ele><time>2026-05-02T08:53:29.999Z</time></trkpt><trkpt lat="46.03146271321574" lon="11.650550602356546"><ele>1261.0</ele><time>2026-05-02T08:53:30.999Z</time></trkpt><trkpt lat="46.031561540760286" lon="11.650382312059826"><ele>1261.0</ele><time>2026-05-02T08:53:31.999Z</time></trkpt><trkpt lat="46.03165984191277" lon="11.6502177368875"><ele>1259.25</ele><time>2026-05-02T08:53:32.999Z</time></trkpt><trkpt lat="46.0317611213391" lon="11.650050642790566"><ele>1257.5</ele><time>2026-05-02T08:53:33.999Z</time></trkpt><trkpt lat="46.03186016973179" lon="11.649887693582812"><ele>1255.75</ele><time>2026-05-02T08:53:34.999Z</time></trkpt><trkpt lat="46.03195558741183" lon="11.64973858426703"><ele>1254.0</ele><time>2026-05-02T08:53:35.999Z</time></trkpt><trkpt lat="46.03204914769695" lon="11.649594543432764"><ele>1251.25</ele><time>2026-05-02T08:53:36.999Z</time></trkpt><trkpt lat="46.03214853471419" lon="11.64945538481435"><ele>1248.5</ele><time>2026-05-02T08:53:37.999Z</time></trkpt><trkpt lat="46.03225580500385" lon="11.64931597714123"><ele>1245.75</ele><time>2026-05-02T08:53:38.998Z</time></trkpt><trkpt lat="46.032372608482376" lon="11.6491727452265"><ele>1243.0</ele><time>2026-05-02T08:53:39.998Z</time></trkpt><trkpt lat="46.032489251929405" lon="11.64903240673889"><ele>1243.0</ele><time>2026-05-02T08:53:40.998Z</time></trkpt><trkpt lat="46.03261055096054" lon="11.648904908719157"><ele>1243.0</ele><time>2026-05-02T08:53:41.998Z</time></trkpt><trkpt lat="46.03272687543395" lon="11.648789453071075"><ele>1243.0</ele><time>2026-05-02T08:53:42.998Z</time></trkpt><trkpt lat="46.03285288712678" lon="11.648686219864542"><ele>1243.0</ele><time>2026-05-02T08:53:43.998Z</time></trkpt><trkpt lat="46.03297669684284" lon="11.648590749555371"><ele>1242.75</ele><time>2026-05-02T08:53:44.998Z</time></trkpt><trkpt lat="46.03309897150384" lon="11.648496140726754"><ele>1242.5</ele><time>2026-05-02T08:53:45.998Z</time></trkpt><trkpt lat="46.03320985401294" lon="11.648402228915876"><ele>1242.25</ele><time>2026-05-02T08:53:46.998Z</time></trkpt><trkpt lat="46.03332211877204" lon="11.648304797430793"><ele>1242.0</ele><time>2026-05-02T08:53:47.998Z</time></trkpt><trkpt lat="46.033439454097795" lon="11.64824313315213"><ele>1242.0</ele><time>2026-05-02T08:53:48.998Z</time></trkpt><trkpt lat="46.03354828617666" lon="11.64817513131386"><ele>1242.0</ele><time>2026-05-02T08:53:49.998Z</time></trkpt><trkpt lat="46.03365600332938" lon="11.648093009768385"><ele>1242.0</ele><time>2026-05-02T08:53:50.998Z</time></trkpt><trkpt lat="46.03377182435967" lon="11.648009609216375"><ele>1242.0</ele><time>2026-05-02T08:53:51.998Z</time></trkpt><trkpt lat="46.03389220023357" lon="11.647906211054016"><ele>1240.5</ele><time>2026-05-02T08:53:52.998Z</time></trkpt><trkpt lat="46.03401062543666" lon="11.64778098288566"><ele>1239.0</ele><time>2026-05-02T08:53:53.998Z</time></trkpt><trkpt lat="46.03412861674229" lon="11.647662594815241"><ele>1237.5</ele><time>2026-05-02T08:53:54.998Z</time></trkpt><trkpt lat="46.03424951019583" lon="11.647549603652864"><ele>1236.0</ele><time>2026-05-02T08:53:56Z</time></trkpt><trkpt lat="46.03435778371482" lon="11.647438311839268"><ele>1236.0</ele><time>2026-05-02T08:53:57Z</time></trkpt><trkpt lat="46.03446510609108" lon="11.647338330051756"><ele>1236.0</ele><time>2026-05-02T08:53:58Z</time></trkpt><trkpt lat="46.034572468177885" lon="11.647239622628508"><ele>1236.0</ele><time>2026-05-02T08:53:59Z</time></trkpt><trkpt lat="46.0346740694194" lon="11.647145402674756"><ele>1236.0</ele><time>2026-05-02T08:54:00Z</time></trkpt><trkpt lat="46.03477750851087" lon="11.647073786501059"><ele>1236.0</ele><time>2026-05-02T08:54:01Z</time></trkpt><trkpt lat="46.034880705924344" lon="11.64700004786096"><ele>1236.0</ele><time>2026-05-02T08:54:02Z</time></trkpt><trkpt lat="46.03498003936739" lon="11.646910537976298"><ele>1236.0</ele><time>2026-05-02T08:54:03Z</time></trkpt><trkpt lat="46.03507890381961" lon="11.646818229243868"><ele>1236.0</ele><time>2026-05-02T08:54:04Z</time></trkpt><trkpt lat="46.03517466070206" lon="11.646731706813698"><ele>1234.2</ele><time>2026-05-02T08:54:05Z</time></trkpt><trkpt lat="46.03526516885846" lon="11.646644970142836"><ele>1232.3999999999999</ele><time>2026-05-02T08:54:06Z</time></trkpt><trkpt lat="46.035353855212136" lon="11.646559400594498"><ele>1230.6</ele><time>2026-05-02T08:54:07Z</time></trkpt><trkpt lat="46.0354437680336" lon="11.64648088468298"><ele>1228.8</ele><time>2026-05-02T08:54:08Z</time></trkpt><trkpt lat="46.03553388518228" lon="11.646400099978393"><ele>1227.0</ele><time>2026-05-02T08:54:09Z</time></trkpt><trkpt lat="46.03561740870582" lon="11.646323438615475"><ele>1227.0</ele><time>2026-05-02T08:54:10Z</time></trkpt><trkpt lat="46.0357061658845" lon="11.646256033473337"><ele>1227.0</ele><time>2026-05-02T08:54:11Z</time></trkpt><trkpt lat="46.03580156751916" lon="11.646198618683629"><ele>1227.0</ele><time>2026-05-02T08:54:12Z</time></trkpt><trkpt lat="46.035894745931955" lon="11.646144098143498"><ele>1227.0</ele><time>2026-05-02T08:54:13Z</time></trkpt><trkpt lat="46.03599222733786" lon="11.646097626744224"><ele>1227.0</ele><time>2026-05-02T08:54:14Z</time></trkpt><trkpt lat="46.0360919708631" lon="11.646059214466407"><ele>1224.4</ele><time>2026-05-02T08:54:15Z</time></trkpt><trkpt lat="46.036191144663505" lon="11.646015600427758"><ele>1221.8000000000002</ele><time>2026-05-02T08:54:16Z</time></trkpt><trkpt lat="46.0362807845622" lon="11.645965266832787"><ele>1219.2</ele><time>2026-05-02T08:54:17Z</time></trkpt><trkpt lat="46.03637352740182" lon="11.645929441648951"><ele>1216.6000000000001</ele><time>2026-05-02T08:54:18Z</time></trkpt><trkpt lat="46.03646529903096" lon="11.645928433467468"><ele>1214.0</ele><time>2026-05-02T08:54:19Z</time></trkpt><trkpt lat="46.03655924415873" lon="11.645944186563668"><ele>1215.2</ele><time>2026-05-02T08:54:20Z</time></trkpt><trkpt lat="46.03664877454336" lon="11.645964540293194"><ele>1216.4</ele><time>2026-05-02T08:54:21Z</time></trkpt><trkpt lat="46.036736351852824" lon="11.645988855956684"><ele>1217.6</ele><time>2026-05-02T08:54:22Z</time></trkpt><trkpt lat="46.03682921762392" lon="11.646017187470331"><ele>1218.8</ele><time>2026-05-02T08:54:23Z</time></trkpt><trkpt lat="46.03692173066054" lon="11.646046485122477"><ele>1220.0</ele><time>2026-05-02T08:54:24Z</time></trkpt><trkpt lat="46.037019608216205" lon="11.64607192557803"><ele>1220.0</ele><time>2026-05-02T08:54:25Z</time></trkpt><trkpt lat="46.03712889912018" lon="11.646099694345908"><ele>1220.0</ele><time>2026-05-02T08:54:26Z</time></trkpt><trkpt lat="46.0372435302592" lon="11.646122547031302"><ele>1220.0</ele><time>2026-05-02T08:54:27Z</time></trkpt><trkpt lat="46.03736174544074" lon="11.646146999066406"><ele>1220.0</ele><time>2026-05-02T08:54:28Z</time></trkpt><trkpt lat="46.037480985886724" lon="11.646175799695627"><ele>1217.75</ele><time>2026-05-02T08:54:29Z</time></trkpt><trkpt lat="46.03760358858613" lon="11.646214990092634"><ele>1215.5</ele><time>2026-05-02T08:54:30Z</time></trkpt><trkpt lat="46.03773056213145" lon="11.646268427422696"><ele>1213.25</ele><time>2026-05-02T08:54:31Z</time></trkpt><trkpt lat="46.037858724015855" lon="11.646318954397076"><ele>1211.0</ele><time>2026-05-02T08:54:32Z</time></trkpt><trkpt lat="46.0379898749328" lon="11.646371507196328"><ele>1211.0</ele><time>2026-05-02T08:54:33Z</time></trkpt><trkpt lat="46.03811610953737" lon="11.646418699184881"><ele>1211.0</ele><time>2026-05-02T08:54:34Z</time></trkpt><trkpt lat="46.03823666036926" lon="11.646460004258305"><ele>1211.0</ele><time>2026-05-02T08:54:35Z</time></trkpt><trkpt lat="46.03834995193702" lon="11.646505579490807"><ele>1211.0</ele><time>2026-05-02T08:54:36Z</time></trkpt><trkpt lat="46.038459800790655" lon="11.64655303804355"><ele>1212.0</ele><time>2026-05-02T08:54:37Z</time></trkpt><trkpt lat="46.03857085351405" lon="11.646606376508329"><ele>1213.0</ele><time>2026-05-02T08:54:38Z</time></trkpt><trkpt lat="46.03868484474998" lon="11.646653485717328"><ele>1214.0</ele><time>2026-05-02T08:54:39Z</time></trkpt><trkpt lat="46.038803339773786" lon="11.646691568079634"><ele>1215.0</ele><time>2026-05-02T08:54:40Z</time></trkpt><trkpt lat="46.038926385420396" lon="11.6467335711726"><ele>1215.0</ele><time>2026-05-02T08:54:41Z</time></trkpt><trkpt lat="46.03905313637143" lon="11.64677055705767"><ele>1215.0</ele><time>2026-05-02T08:54:41.999Z</time></trkpt><trkpt lat="46.03918142039298" lon="11.646809225220426"><ele>1215.0</ele><time>2026-05-02T08:54:42.999Z</time></trkpt><trkpt lat="46.03930419928183" lon="11.646839563534508"><ele>1215.0</ele><time>2026-05-02T08:54:43.999Z</time></trkpt><trkpt lat="46.03942705862056" lon="11.646861611347326"><ele>1217.25</ele><time>2026-05-02T08:54:44.999Z</time></trkpt><trkpt lat="46.039553130969495" lon="11.646878832894354"><ele>1219.5</ele><time>2026-05-02T08:54:45.999Z</time></trkpt><trkpt lat="46.03967665941061" lon="11.64690378970845"><ele>1221.75</ele><time>2026-05-02T08:54:46.999Z</time></trkpt><trkpt lat="46.03980708624929" lon="11.646937945195885"><ele>1224.0</ele><time>2026-05-02T08:54:47.999Z</time></trkpt><trkpt lat="46.03994025030995" lon="11.646976667627507"><ele>1216.5</ele><time>2026-05-02T08:54:48.999Z</time></trkpt><trkpt lat="46.04007324008155" lon="11.647025102304765"><ele>1209.0</ele><time>2026-05-02T08:54:49.999Z</time></trkpt><trkpt lat="46.04020412493051" lon="11.647067498318272"><ele>1201.5</ele><time>2026-05-02T08:54:50.999Z</time></trkpt><trkpt lat="46.04033286679528" lon="11.647117425717594"><ele>1194.0</ele><time>2026-05-02T08:54:51.999Z</time></trkpt><trkpt lat="46.040469153930246" lon="11.647152395295546"><ele>1194.0</ele><time>2026-05-02T08:54:52.999Z</time></trkpt><trkpt lat="46.04060395658012" lon="11.647176303969296"><ele>1194.0</ele><time>2026-05-02T08:54:53.999Z</time></trkpt><trkpt lat="46.040732769222856" lon="11.647211417605902"><ele>1194.0</ele><time>2026-05-02T08:54:54.999Z</time></trkpt><trkpt lat="46.04085189395187" lon="11.647251092236736"><ele>1194.0</ele><time>2026-05-02T08:54:55.999Z</time></trkpt><trkpt lat="46.04096623540147" lon="11.647283886380157"><ele>1194.75</ele><time>2026-05-02T08:54:56.999Z</time></trkpt><trkpt lat="46.04108314259669" lon="11.647293895527227"><ele>1195.5</ele><time>2026-05-02T08:54:57.999Z</time></trkpt><trkpt lat="46.04119833381788" lon="11.647281017335148"><ele>1196.25</ele><time>2026-05-02T08:54:58.999Z</time></trkpt><trkpt lat="46.04130808634998" lon="11.647271750373582"><ele>1197.0</ele><time>2026-05-02T08:54:59.999Z</time></trkpt><trkpt lat="46.041420031249075" lon="11.647229939998587"><ele>1197.0</ele><time>2026-05-02T08:55:00.999Z</time></trkpt><trkpt lat="46.04154936949968" lon="11.647243099703001"><ele>1197.0</ele><time>2026-05-02T08:55:01.999Z</time></trkpt><trkpt lat="46.0416496085457" lon="11.64735286542292"><ele>1197.0</ele><time>2026-05-02T08:55:02.999Z</time></trkpt><trkpt lat="46.04175701736369" lon="11.647435950386477"><ele>1197.0</ele><time>2026-05-02T08:55:03.999Z</time></trkpt><trkpt lat="46.041853072595515" lon="11.647527975678111"><ele>1197.25</ele><time>2026-05-02T08:55:04.999Z</time></trkpt><trkpt lat="46.04196039862846" lon="11.647580667793292"><ele>1197.5</ele><time>2026-05-02T08:55:05.999Z</time></trkpt><trkpt lat="46.042081517324256" lon="11.647597845685652"><ele>1197.75</ele><time>2026-05-02T08:55:06.999Z</time></trkpt><trkpt lat="46.04220779535272" lon="11.647579999428022"><ele>1198.0</ele><time>2026-05-02T08:55:07.999Z</time></trkpt><trkpt lat="46.04233327513644" lon="11.647547777710916"><ele>1198.0</ele><time>2026-05-02T08:55:08.999Z</time></trkpt><trkpt lat="46.042457725034716" lon="11.647535935046633"><ele>1198.0</ele><time>2026-05-02T08:55:09.999Z</time></trkpt><trkpt lat="46.04257652177497" lon="11.647570472041064"><ele>1198.0</ele><time>2026-05-02T08:55:10.999Z</time></trkpt><trkpt lat="46.04267739601325" lon="11.647657489505653"><ele>1198.0</ele><time>2026-05-02T08:55:11.999Z</time></trkpt><trkpt lat="46.04275395234334" lon="11.647780085715775"><ele>1195.0</ele><time>2026-05-02T08:55:12.999Z</time></trkpt><trkpt lat="46.04282270259662" lon="11.647882514931487"><ele>1192.0</ele><time>2026-05-02T08:55:13.999Z</time></trkpt><trkpt lat="46.04291911461006" lon="11.64794451848419"><ele>1189.0</ele><time>2026-05-02T08:55:14.999Z</time></trkpt><trkpt lat="46.04303094710527" lon="11.647974022032287"><ele>1186.0</ele><time>2026-05-02T08:55:15.999Z</time></trkpt><trkpt lat="46.04314262746854" lon="11.647982685313977"><ele>1183.0</ele><time>2026-05-02T08:55:16.999Z</time></trkpt><trkpt lat="46.043253609192426" lon="11.647988330671376"><ele>1184.25</ele><time>2026-05-02T08:55:17.999Z</time></trkpt><trkpt lat="46.04337167022492" lon="11.647993734525652"><ele>1185.5</ele><time>2026-05-02T08:55:18.999Z</time></trkpt><trkpt lat="46.04348240112789" lon="11.647989847597318"><ele>1186.75</ele><time>2026-05-02T08:55:19.999Z</time></trkpt><trkpt lat="46.04360145867987" lon="11.647976946045349"><ele>1188.0</ele><time>2026-05-02T08:55:20.999Z</time></trkpt><trkpt lat="46.043717658084525" lon="11.647950892064827"><ele>1188.0</ele><time>2026-05-02T08:55:21.999Z</time></trkpt><trkpt lat="46.043837256473374" lon="11.647920227481276"><ele>1188.0</ele><time>2026-05-02T08:55:22.999Z</time></trkpt><trkpt lat="46.04395977875198" lon="11.647901320673897"><ele>1188.0</ele><time>2026-05-02T08:55:23.999Z</time></trkpt><trkpt lat="46.04407974667752" lon="11.647890167012259"><ele>1188.0</ele><time>2026-05-02T08:55:24.999Z</time></trkpt><trkpt lat="46.0442056689593" lon="11.647885146544132"><ele>1187.0</ele><time>2026-05-02T08:55:25.999Z</time></trkpt><trkpt lat="46.044334311347605" lon="11.647874693391739"><ele>1186.0</ele><time>2026-05-02T08:55:26.999Z</time></trkpt><trkpt lat="46.0444560364664" lon="11.64786712314149"><ele>1185.0</ele><time>2026-05-02T08:55:27.999Z</time></trkpt><trkpt lat="46.044573802064804" lon="11.647871027885339"><ele>1184.0</ele><time>2026-05-02T08:55:28.999Z</time></trkpt><trkpt lat="46.044692109637566" lon="11.647879428404165"><ele>1184.0</ele><time>2026-05-02T08:55:29.999Z</time></trkpt><trkpt lat="46.04480802806421" lon="11.647879579967482"><ele>1184.0</ele><time>2026-05-02T08:55:30.999Z</time></trkpt><trkpt lat="46.0449306590875" lon="11.647903414570768"><ele>1184.0</ele><time>2026-05-02T08:55:31.999Z</time></trkpt><trkpt lat="46.04505092649914" lon="11.647950696730893"><ele>1184.0</ele><time>2026-05-02T08:55:32.999Z</time></trkpt><trkpt lat="46.045158917644436" lon="11.648027061444362"><ele>1183.5</ele><time>2026-05-02T08:55:33.999Z</time></trkpt><trkpt lat="46.04525888597339" lon="11.64809958685702"><ele>1183.0</ele><time>2026-05-02T08:55:34.999Z</time></trkpt><trkpt lat="46.04536909103952" lon="11.648185445009826"><ele>1182.5</ele><time>2026-05-02T08:55:35.999Z</time></trkpt><trkpt lat="46.04549090004723" lon="11.64824548031014"><ele>1182.0</ele><time>2026-05-02T08:55:36.999Z</time></trkpt><trkpt lat="46.045607690645" lon="11.648325566818679"><ele>1182.0</ele><time>2026-05-02T08:55:37.999Z</time></trkpt><trkpt lat="46.04572077066607" lon="11.648402015391008"><ele>1182.0</ele><time>2026-05-02T08:55:38.999Z</time></trkpt><trkpt lat="46.04581497850906" lon="11.64850895207268"><ele>1182.0</ele><time>2026-05-02T08:55:39.998Z</time></trkpt><trkpt lat="46.04589579182054" lon="11.648631069468168"><ele>1182.0</ele><time>2026-05-02T08:55:40.998Z</time></trkpt><trkpt lat="46.04597002548906" lon="11.648757487075128"><ele>1179.0</ele><time>2026-05-02T08:55:41.998Z</time></trkpt><trkpt lat="46.046052233701324" lon="11.64888570470127"><ele>1176.0</ele><time>2026-05-02T08:55:42.998Z</time></trkpt><trkpt lat="46.046126678324285" lon="11.649029941859022"><ele>1173.0</ele><time>2026-05-02T08:55:43.998Z</time></trkpt><trkpt lat="46.046196434523104" lon="11.649162061410149"><ele>1170.0</ele><time>2026-05-02T08:55:44.998Z</time></trkpt><trkpt lat="46.04626678719137" lon="11.649286337760326"><ele>1170.0</ele><time>2026-05-02T08:55:45.998Z</time></trkpt><trkpt lat="46.04633702710389" lon="11.649413097680938"><ele>1170.0</ele><time>2026-05-02T08:55:46.998Z</time></trkpt><trkpt lat="46.04641218464752" lon="11.649524688773678"><ele>1170.0</ele><time>2026-05-02T08:55:47.998Z</time></trkpt><trkpt lat="46.04649378669369" lon="11.649617314753387"><ele>1170.0</ele><time>2026-05-02T08:55:48.998Z</time></trkpt><trkpt lat="46.046599968992744" lon="11.649638082887462"><ele>1170.0</ele><time>2026-05-02T08:55:49.998Z</time></trkpt><trkpt lat="46.046703206341526" lon="11.649613177888261"><ele>1169.2</ele><time>2026-05-02T08:55:50.998Z</time></trkpt><trkpt lat="46.046804572157434" lon="11.649560767971062"><ele>1168.4</ele><time>2026-05-02T08:55:51.998Z</time></trkpt><trkpt lat="46.04689927019853" lon="11.649444597366955"><ele>1167.6</ele><time>2026-05-02T08:55:52.998Z</time></trkpt><trkpt lat="46.04698418669822" lon="11.64936243264015"><ele>1166.8</ele><time>2026-05-02T08:55:53.998Z</time></trkpt><trkpt lat="46.047083939306546" lon="11.649347877059247"><ele>1166.0</ele><time>2026-05-02T08:55:54.998Z</time></trkpt><trkpt lat="46.04717050427745" lon="11.649418449618592"><ele>1166.0</ele><time>2026-05-02T08:55:55.998Z</time></trkpt><trkpt lat="46.047255854471004" lon="11.64952607492971"><ele>1166.0</ele><time>2026-05-02T08:55:56.998Z</time></trkpt><trkpt lat="46.04733154816246" lon="11.649637935642176"><ele>1166.0</ele><time>2026-05-02T08:55:57.998Z</time></trkpt><trkpt lat="46.047348984883335" lon="11.649821877042191"><ele>1166.0</ele><time>2026-05-02T08:55:58.998Z</time></trkpt><trkpt lat="46.047427617515694" lon="11.649938830096424"><ele>1166.0</ele><time>2026-05-02T08:55:59.998Z</time></trkpt><trkpt lat="46.04753464651968" lon="11.650030105643356"><ele>1166.0</ele><time>2026-05-02T08:56:00.998Z</time></trkpt><trkpt lat="46.047642035892174" lon="11.650121566335246"><ele>1166.0</ele><time>2026-05-02T08:56:02Z</time></trkpt><trkpt lat="46.04771474846245" lon="11.65026669469736"><ele>1166.0</ele><time>2026-05-02T08:56:03Z</time></trkpt><trkpt lat="46.04770760259881" lon="11.650480807412755"><ele>1166.0</ele><time>2026-05-02T08:56:04Z</time></trkpt><trkpt lat="46.04777177493934" lon="11.650645665251377"><ele>1166.0</ele><time>2026-05-02T08:56:05Z</time></trkpt><trkpt lat="46.04785893178824" lon="11.650765269321576"><ele>1166.0</ele><time>2026-05-02T08:56:06Z</time></trkpt><trkpt lat="46.04792942312852" lon="11.650884896972372"><ele>1166.0</ele><time>2026-05-02T08:56:07Z</time></trkpt><trkpt lat="46.04798319672968" lon="11.651009130498768"><ele>1166.0</ele><time>2026-05-02T08:56:08Z</time></trkpt><trkpt lat="46.04803801504727" lon="11.651122271845523"><ele>1166.0</ele><time>2026-05-02T08:56:09Z</time></trkpt><trkpt lat="46.04806915525201" lon="11.651244116728693"><ele>1166.0</ele><time>2026-05-02T08:56:10Z</time></trkpt><trkpt lat="46.04808807359644" lon="11.651365948849778"><ele>1166.0</ele><time>2026-05-02T08:56:11Z</time></trkpt><trkpt lat="46.04809284291051" lon="11.651496294008561"><ele>1166.0</ele><time>2026-05-02T08:56:12Z</time></trkpt><trkpt lat="46.04809711352082" lon="11.651637808130852"><ele>1164.6</ele><time>2026-05-02T08:56:13Z</time></trkpt><trkpt lat="46.04807775762568" lon="11.651771661634104"><ele>1163.1999999999998</ele><time>2026-05-02T08:56:14Z</time></trkpt><trkpt lat="46.04806437488728" lon="11.65192074688144"><ele>1161.8000000000002</ele><time>2026-05-02T08:56:15Z</time></trkpt><trkpt lat="46.048040052240026" lon="11.652079093312016"><ele>1160.4</ele><time>2026-05-02T08:56:16Z</time></trkpt><trkpt lat="46.048004810544704" lon="11.652241287748266"><ele>1159.0</ele><time>2026-05-02T08:56:17Z</time></trkpt><trkpt lat="46.04796500134729" lon="11.652414097427753"><ele>1159.0</ele><time>2026-05-02T08:56:18Z</time></trkpt><trkpt lat="46.04793638298861" lon="11.652591875041045"><ele>1159.0</ele><time>2026-05-02T08:56:19Z</time></trkpt><trkpt lat="46.04787937084601" lon="11.652745659507714"><ele>1159.0</ele><time>2026-05-02T08:56:20Z</time></trkpt><trkpt lat="46.04786174638521" lon="11.652905424693767"><ele>1159.0</ele><time>2026-05-02T08:56:21Z</time></trkpt><trkpt lat="46.04784239228367" lon="11.653065883407049"><ele>1159.0</ele><time>2026-05-02T08:56:22Z</time></trkpt><trkpt lat="46.047832777340105" lon="11.653232501178216"><ele>1159.0</ele><time>2026-05-02T08:56:23Z</time></trkpt><trkpt lat="46.04784053999764" lon="11.653402972432511"><ele>1159.0</ele><time>2026-05-02T08:56:24Z</time></trkpt><trkpt lat="46.047859817953885" lon="11.65356691548114"><ele>1159.0</ele><time>2026-05-02T08:56:25Z</time></trkpt><trkpt lat="46.04790241305109" lon="11.653721471461056"><ele>1158.6000000000001</ele><time>2026-05-02T08:56:26Z</time></trkpt><trkpt lat="46.04794720053005" lon="11.653876422445876"><ele>1158.2</ele><time>2026-05-02T08:56:27Z</time></trkpt><trkpt lat="46.04800583212579" lon="11.654019214416662"><ele>1157.8000000000002</ele><time>2026-05-02T08:56:28Z</time></trkpt><trkpt lat="46.048074891644454" lon="11.654130506439849"><ele>1157.4</ele><time>2026-05-02T08:56:29Z</time></trkpt><trkpt lat="46.04817182487335" lon="11.654210383714407"><ele>1157.0</ele><time>2026-05-02T08:56:30Z</time></trkpt><trkpt lat="46.04829097010366" lon="11.654242981788494"><ele>1160.25</ele><time>2026-05-02T08:56:31Z</time></trkpt><trkpt lat="46.048413548015034" lon="11.65425169412061"><ele>1163.5</ele><time>2026-05-02T08:56:32Z</time></trkpt><trkpt lat="46.0485390141921" lon="11.654244753177881"><ele>1166.75</ele><time>2026-05-02T08:56:33Z</time></trkpt><trkpt lat="46.04865835217339" lon="11.65427125891437"><ele>1170.0</ele><time>2026-05-02T08:56:34Z</time></trkpt><trkpt lat="46.04877864847446" lon="11.65429505178017"><ele>1170.0</ele><time>2026-05-02T08:56:35Z</time></trkpt><trkpt lat="46.048849428779356" lon="11.654450676771765"><ele>1170.0</ele><time>2026-05-02T08:56:36Z</time></trkpt><trkpt lat="46.04893449442542" lon="11.654580951625068"><ele>1170.0</ele><time>2026-05-02T08:56:37Z</time></trkpt><trkpt lat="46.049023064616414" lon="11.654691798891763"><ele>1170.0</ele><time>2026-05-02T08:56:38Z</time></trkpt><trkpt lat="46.04910410402676" lon="11.654796342625076"><ele>1168.75</ele><time>2026-05-02T08:56:39Z</time></trkpt><trkpt lat="46.04919295805222" lon="11.654858216319042"><ele>1167.5</ele><time>2026-05-02T08:56:40Z</time></trkpt><trkpt lat="46.04930284477659" lon="11.654869201221198"><ele>1166.25</ele><time>2026-05-02T08:56:41Z</time></trkpt><trkpt lat="46.04942610006866" lon="11.654832537201083"><ele>1165.0</ele><time>2026-05-02T08:56:42Z</time></trkpt><trkpt lat="46.04954551898633" lon="11.654778747735127"><ele>1165.0</ele><time>2026-05-02T08:56:43Z</time></trkpt><trkpt lat="46.04965031478663" lon="11.654727717422752"><ele>1165.0</ele><time>2026-05-02T08:56:44Z</time></trkpt><trkpt lat="46.04975825174301" lon="11.654672889969522"><ele>1165.0</ele><time>2026-05-02T08:56:45Z</time></trkpt><trkpt lat="46.04986476481723" lon="11.654607784495205"><ele>1165.0</ele><time>2026-05-02T08:56:46Z</time></trkpt><trkpt lat="46.04997604995158" lon="11.654539071741004"><ele>1164.25</ele><time>2026-05-02T08:56:47Z</time></trkpt><trkpt lat="46.05008732428304" lon="11.654474994648357"><ele>1163.5</ele><time>2026-05-02T08:56:48Z</time></trkpt><trkpt lat="46.050205615082675" lon="11.654438959368589"><ele>1162.75</ele><time>2026-05-02T08:56:48.999Z</time></trkpt><trkpt lat="46.05032718396231" lon="11.654488506122858"><ele>1162.0</ele><time>2026-05-02T08:56:49.999Z</time></trkpt><trkpt lat="46.0504509729062" lon="11.65453760917922"><ele>1162.0</ele><time>2026-05-02T08:56:50.999Z</time></trkpt><trkpt lat="46.050572301297656" lon="11.654559821986576"><ele>1162.0</ele><time>2026-05-02T08:56:51.999Z</time></trkpt><trkpt lat="46.05069253146548" lon="11.654602991608675"><ele>1162.0</ele><time>2026-05-02T08:56:52.999Z</time></trkpt><trkpt lat="46.050813744754755" lon="11.654641621178811"><ele>1162.0</ele><time>2026-05-02T08:56:53.999Z</time></trkpt><trkpt lat="46.05093411645406" lon="11.654682673641195"><ele>1161.75</ele><time>2026-05-02T08:56:54.999Z</time></trkpt><trkpt lat="46.0510565316203" lon="11.654725346723486"><ele>1161.5</ele><time>2026-05-02T08:56:55.999Z</time></trkpt><trkpt lat="46.05116529108115" lon="11.654766308313869"><ele>1161.25</ele><time>2026-05-02T08:56:56.999Z</time></trkpt><trkpt lat="46.051271078419845" lon="11.654805891245195"><ele>1161.0</ele><time>2026-05-02T08:56:57.999Z</time></trkpt><trkpt lat="46.05137958498395" lon="11.654844678090287"><ele>1161.0</ele><time>2026-05-02T08:56:58.999Z</time></trkpt><trkpt lat="46.05149373782865" lon="11.654884703850472"><ele>1161.0</ele><time>2026-05-02T08:56:59.999Z</time></trkpt><trkpt lat="46.051601773097374" lon="11.654933718147744"><ele>1161.0</ele><time>2026-05-02T08:57:00.999Z</time></trkpt><trkpt lat="46.05170329136228" lon="11.654983966537937"><ele>1161.0</ele><time>2026-05-02T08:57:01.999Z</time></trkpt><trkpt lat="46.05180536775477" lon="11.655031647943307"><ele>1161.0</ele><time>2026-05-02T08:57:02.999Z</time></trkpt><trkpt lat="46.05191970578263" lon="11.655057933505315"><ele>1161.75</ele><time>2026-05-02T08:57:03.999Z</time></trkpt><trkpt lat="46.0520365936501" lon="11.655064467409606"><ele>1162.5</ele><time>2026-05-02T08:57:04.999Z</time></trkpt><trkpt lat="46.05216629916691" lon="11.65506498965876"><ele>1163.25</ele><time>2026-05-02T08:57:05.999Z</time></trkpt><trkpt lat="46.052294181313925" lon="11.655045910904882"><ele>1164.0</ele><time>2026-05-02T08:57:06.999Z</time></trkpt><trkpt lat="46.052414578624735" lon="11.654985039256909"><ele>1164.8</ele><time>2026-05-02T08:57:07.999Z</time></trkpt><trkpt lat="46.05252779447246" lon="11.654916380909444"><ele>1165.6000000000001</ele><time>2026-05-02T08:57:08.999Z</time></trkpt><trkpt lat="46.0526282691533" lon="11.654863598416295"><ele>1166.4</ele><time>2026-05-02T08:57:09.999Z</time></trkpt><trkpt lat="46.052729820959186" lon="11.654819977480324"><ele>1167.2</ele><time>2026-05-02T08:57:10.999Z</time></trkpt><trkpt lat="46.05282903785509" lon="11.654780408924468"><ele>1168.0</ele><time>2026-05-02T08:57:11.999Z</time></trkpt><trkpt lat="46.05292269814769" lon="11.654730932214905"><ele>1168.0</ele><time>2026-05-02T08:57:12.999Z</time></trkpt><trkpt lat="46.05300792509158" lon="11.654655277085647"><ele>1168.0</ele><time>2026-05-02T08:57:13.999Z</time></trkpt><trkpt lat="46.05307785292543" lon="11.65453718667797"><ele>1168.0</ele><time>2026-05-02T08:57:14.999Z</time></trkpt><trkpt lat="46.05313488054802" lon="11.654395411890304"><ele>1168.0</ele><time>2026-05-02T08:57:15.999Z</time></trkpt><trkpt lat="46.053189172396074" lon="11.65423309238864"><ele>1168.0</ele><time>2026-05-02T08:57:16.999Z</time></trkpt><trkpt lat="46.05326502759092" lon="11.654076704167323"><ele>1167.25</ele><time>2026-05-02T08:57:17.999Z</time></trkpt><trkpt lat="46.05337401438593" lon="11.653954646559324"><ele>1166.5</ele><time>2026-05-02T08:57:18.999Z</time></trkpt><trkpt lat="46.0534696262094" lon="11.653808195656364"><ele>1165.75</ele><time>2026-05-02T08:57:19.999Z</time></trkpt><trkpt lat="46.05357318291283" lon="11.653674934269098"><ele>1165.0</ele><time>2026-05-02T08:57:20.999Z</time></trkpt><trkpt lat="46.053669066848435" lon="11.653506388076236"><ele>1157.3333333333333</ele><time>2026-05-02T08:57:21.999Z</time></trkpt><trkpt lat="46.053755693714706" lon="11.65330586370793"><ele>1149.6666666666667</ele><time>2026-05-02T08:57:22.999Z</time></trkpt><trkpt lat="46.05385248233867" lon="11.653091673221951"><ele>1142.0</ele><time>2026-05-02T08:57:23.999Z</time></trkpt><trkpt lat="46.053951039904874" lon="11.652882989518133"><ele>1146.3333333333335</ele><time>2026-05-02T08:57:24.999Z</time></trkpt><trkpt lat="46.05406934954804" lon="11.652699225347579"><ele>1150.6666666666667</ele><time>2026-05-02T08:57:25.999Z</time></trkpt><trkpt lat="46.05417254187089" lon="11.652503822097637"><ele>1155.0</ele><time>2026-05-02T08:57:26.999Z</time></trkpt><trkpt lat="46.05429077800219" lon="11.652324990178919"><ele>1155.0</ele><time>2026-05-02T08:57:27.999Z</time></trkpt><trkpt lat="46.054401037840776" lon="11.652134492108273"><ele>1155.0</ele><time>2026-05-02T08:57:28.999Z</time></trkpt><trkpt lat="46.05449176406703" lon="11.651914510884545"><ele>1155.0</ele><time>2026-05-02T08:57:29.999Z</time></trkpt><trkpt lat="46.054565675797924" lon="11.651688702458552"><ele>1144.3333333333333</ele><time>2026-05-02T08:57:30.999Z</time></trkpt><trkpt lat="46.05466577872934" lon="11.651474167424835"><ele>1133.6666666666665</ele><time>2026-05-02T08:57:31.999Z</time></trkpt><trkpt lat="46.05476735603215" lon="11.651266109142945"><ele>1123.0</ele><time>2026-05-02T08:57:32.999Z</time></trkpt><trkpt lat="46.05488438542277" lon="11.65106388587993"><ele>1130.3333333333333</ele><time>2026-05-02T08:57:33.999Z</time></trkpt><trkpt lat="46.05498923758183" lon="11.650852722104062"><ele>1137.6666666666667</ele><time>2026-05-02T08:57:34.999Z</time></trkpt><trkpt lat="46.055112550757435" lon="11.650662907267757"><ele>1145.0</ele><time>2026-05-02T08:57:35.999Z</time></trkpt><trkpt lat="46.05522207505686" lon="11.650473113956226"><ele>1137.0</ele><time>2026-05-02T08:57:36.999Z</time></trkpt><trkpt lat="46.055315951882214" lon="11.650267968294516"><ele>1129.0</ele><time>2026-05-02T08:57:37.999Z</time></trkpt><trkpt lat="46.05540014237284" lon="11.650052092984891"><ele>1121.0</ele><time>2026-05-02T08:57:38.999Z</time></trkpt><trkpt lat="46.05547415508339" lon="11.649834624537043"><ele>1121.0</ele><time>2026-05-02T08:57:39.999Z</time></trkpt><trkpt lat="46.0555489124035" lon="11.649616586099432"><ele>1121.0</ele><time>2026-05-02T08:57:40.999Z</time></trkpt><trkpt lat="46.05562680726204" lon="11.64939484103948"><ele>1121.0</ele><time>2026-05-02T08:57:41.999Z</time></trkpt><trkpt lat="46.055717772464284" lon="11.649169455193466"><ele>1117.6666666666667</ele><time>2026-05-02T08:57:42.999Z</time></trkpt><trkpt lat="46.05582247437789" lon="11.648961323103102"><ele>1114.3333333333333</ele><time>2026-05-02T08:57:43.999Z</time></trkpt><trkpt lat="46.055930399363405" lon="11.64874699365352"><ele>1111.0</ele><time>2026-05-02T08:57:44.998Z</time></trkpt><trkpt lat="46.05602298789728" lon="11.648531740415258"><ele>1111.0</ele><time>2026-05-02T08:57:45.998Z</time></trkpt><trkpt lat="46.05612343381354" lon="11.64831336205634"><ele>1111.0</ele><time>2026-05-02T08:57:46.998Z</time></trkpt><trkpt lat="46.056220785627744" lon="11.648074331435792"><ele>1111.0</ele><time>2026-05-02T08:57:47.998Z</time></trkpt><trkpt lat="46.056316979941535" lon="11.64784820385106"><ele>1100.3333333333333</ele><time>2026-05-02T08:57:48.998Z</time></trkpt><trkpt lat="46.05640991691183" lon="11.64761402509185"><ele>1089.6666666666667</ele><time>2026-05-02T08:57:49.998Z</time></trkpt><trkpt lat="46.05650964371238" lon="11.647390297260944"><ele>1079.0</ele><time>2026-05-02T08:57:50.998Z</time></trkpt><trkpt lat="46.05660415870299" lon="11.647165201004357"><ele>1090.0</ele><time>2026-05-02T08:57:51.998Z</time></trkpt><trkpt lat="46.05669093055694" lon="11.646943947187692"><ele>1101.0</ele><time>2026-05-02T08:57:52.998Z</time></trkpt><trkpt lat="46.05677443268664" lon="11.646735420355817"><ele>1112.0</ele><time>2026-05-02T08:57:53.998Z</time></trkpt><trkpt lat="46.05684709597349" lon="11.646532728983818"><ele>1112.0</ele><time>2026-05-02T08:57:54.998Z</time></trkpt><trkpt lat="46.05692807411571" lon="11.646341479970316"><ele>1112.0</ele><time>2026-05-02T08:57:55.998Z</time></trkpt><trkpt lat="46.05700084083855" lon="11.646136227840788"><ele>1112.0</ele><time>2026-05-02T08:57:56.998Z</time></trkpt><trkpt lat="46.057064384690314" lon="11.645937657524254"><ele>1101.6666666666667</ele><time>2026-05-02T08:57:57.998Z</time></trkpt><trkpt lat="46.05712637625302" lon="11.645725080924109"><ele>1091.3333333333333</ele><time>2026-05-02T08:57:58.998Z</time></trkpt><trkpt lat="46.057191746778784" lon="11.64552251741316"><ele>1081.0</ele><time>2026-05-02T08:57:59.998Z</time></trkpt><trkpt lat="46.057285763988546" lon="11.645347225651681"><ele>1072.3333333333333</ele><time>2026-05-02T08:58:00.998Z</time></trkpt><trkpt lat="46.05738320247046" lon="11.645182738823143"><ele>1063.6666666666667</ele><time>2026-05-02T08:58:01.998Z</time></trkpt><trkpt lat="46.05746976192324" lon="11.645001076197557"><ele>1055.0</ele><time>2026-05-02T08:58:02.998Z</time></trkpt><trkpt lat="46.057558070022694" lon="11.644825653829237"><ele>1061.75</ele><time>2026-05-02T08:58:03.998Z</time></trkpt><trkpt lat="46.05762095226839" lon="11.644644678126125"><ele>1068.5</ele><time>2026-05-02T08:58:04.998Z</time></trkpt><trkpt lat="46.057670835262186" lon="11.644467024080589"><ele>1075.25</ele><time>2026-05-02T08:58:05.998Z</time></trkpt><trkpt lat="46.05773299318273" lon="11.6442871043448"><ele>1082.0</ele><time>2026-05-02T08:58:06.998Z</time></trkpt><trkpt lat="46.05779604039586" lon="11.644122468368948"><ele>1082.0</ele><time>2026-05-02T08:58:08Z</time></trkpt><trkpt lat="46.05785861135739" lon="11.643959914344837"><ele>1082.0</ele><time>2026-05-02T08:58:09Z</time></trkpt><trkpt lat="46.05792067003362" lon="11.643800462972974"><ele>1082.0</ele><time>2026-05-02T08:58:10Z</time></trkpt><trkpt lat="46.057979743541004" lon="11.643631668784202"><ele>1082.0</ele><time>2026-05-02T08:58:11Z</time></trkpt><trkpt lat="46.05803328423372" lon="11.643468068716949"><ele>1078.4</ele><time>2026-05-02T08:58:12Z</time></trkpt><trkpt lat="46.058086675810294" lon="11.643312100837077"><ele>1074.8000000000002</ele><time>2026-05-02T08:58:13Z</time></trkpt><trkpt lat="46.05814303856834" lon="11.64317190771742"><ele>1071.2</ele><time>2026-05-02T08:58:14Z</time></trkpt><trkpt lat="46.05817093078188" lon="11.643046546975512"><ele>1067.6000000000001</ele><time>2026-05-02T08:58:15Z</time></trkpt><trkpt lat="46.058201622238904" lon="11.64292003141195"><ele>1064.0</ele><time>2026-05-02T08:58:17Z</time></trkpt><trkpt lat="46.05823357689091" lon="11.642779529537181"><ele>1060.0</ele><time>2026-05-02T08:58:20Z</time></trkpt><trkpt lat="46.05826486542253" lon="11.642618369374972"><ele>1056.0</ele><time>2026-05-02T08:58:22Z</time></trkpt><trkpt lat="46.05828431443998" lon="11.642529934284996"><ele>1052.0</ele><time>2026-05-02T08:58:23Z</time></trkpt><trkpt lat="46.05830941417924" lon="11.642421485733864"><ele>1048.0</ele><time>2026-05-02T08:58:24Z</time></trkpt><trkpt lat="46.05834283733799" lon="11.64228463601495"><ele>1044.0</ele><time>2026-05-02T08:58:25Z</time></trkpt><trkpt lat="46.058374412756514" lon="11.64213744777244"><ele>1051.6000000000001</ele><time>2026-05-02T08:58:26Z</time></trkpt><trkpt lat="46.058406544959226" lon="11.641990009941367"><ele>1059.2</ele><time>2026-05-02T08:58:27Z</time></trkpt><trkpt lat="46.05843442658477" lon="11.64183663208887"><ele>1066.8000000000002</ele><time>2026-05-02T08:58:28Z</time></trkpt><trkpt lat="46.05843027305283" lon="11.64167735952311"><ele>1074.4</ele><time>2026-05-02T08:58:29Z</time></trkpt><trkpt lat="46.058422984111715" lon="11.641515002735927"><ele>1082.0</ele><time>2026-05-02T08:58:30Z</time></trkpt><trkpt lat="46.058429005742234" lon="11.641373010574037"><ele>1082.0</ele><time>2026-05-02T08:58:31Z</time></trkpt><trkpt lat="46.058418346062105" lon="11.64122692736306"><ele>1082.0</ele><time>2026-05-02T08:58:32Z</time></trkpt><trkpt lat="46.05845153056149" lon="11.641096859948545"><ele>1082.0</ele><time>2026-05-02T08:58:33Z</time></trkpt><trkpt lat="46.05852589855093" lon="11.640997398503018"><ele>1082.0</ele><time>2026-05-02T08:58:34Z</time></trkpt><trkpt lat="46.05862745365644" lon="11.640947448653025"><ele>1082.0</ele><time>2026-05-02T08:58:35Z</time></trkpt><trkpt lat="46.058739575109485" lon="11.640951709843973"><ele>1082.0</ele><time>2026-05-02T08:58:36Z</time></trkpt><trkpt lat="46.05885475768809" lon="11.641010709350564"><ele>1082.0</ele><time>2026-05-02T08:58:37Z</time></trkpt><trkpt lat="46.058970886905605" lon="11.64109038100047"><ele>1082.0</ele><time>2026-05-02T08:58:38Z</time></trkpt><trkpt lat="46.059094828860886" lon="11.641161407720627"><ele>1082.0</ele><time>2026-05-02T08:58:39Z</time></trkpt><trkpt lat="46.05921651467574" lon="11.641256036591392"><ele>1087.5</ele><time>2026-05-02T08:58:40Z</time></trkpt><trkpt lat="46.05933464313962" lon="11.641344682340518"><ele>1093.0</ele><time>2026-05-02T08:58:41Z</time></trkpt><trkpt lat="46.0594594924351" lon="11.641395764166596"><ele>1098.5</ele><time>2026-05-02T08:58:42Z</time></trkpt><trkpt lat="46.059592256484486" lon="11.641445122841347"><ele>1104.0</ele><time>2026-05-02T08:58:43Z</time></trkpt><trkpt lat="46.0597365998599" lon="11.64148445605692"><ele>1104.0</ele><time>2026-05-02T08:58:44Z</time></trkpt><trkpt lat="46.05987884976553" lon="11.641498020261395"><ele>1104.0</ele><time>2026-05-02T08:58:45Z</time></trkpt><trkpt lat="46.06002649691607" lon="11.641510783187478"><ele>1104.0</ele><time>2026-05-02T08:58:46Z</time></trkpt><trkpt lat="46.060193888838235" lon="11.641560458521605"><ele>1101.0</ele><time>2026-05-02T08:58:47Z</time></trkpt><trkpt lat="46.060311547230725" lon="11.641623032230699"><ele>1098.0</ele><time>2026-05-02T08:58:48Z</time></trkpt><trkpt lat="46.06046304928698" lon="11.641616117332507"><ele>1095.0</ele><time>2026-05-02T08:58:49Z</time></trkpt><trkpt lat="46.060612142704656" lon="11.641561947043288"><ele>1092.0</ele><time>2026-05-02T08:58:50Z</time></trkpt><trkpt lat="46.060742101619624" lon="11.641529634484142"><ele>1089.0</ele><time>2026-05-02T08:58:51Z</time></trkpt><trkpt lat="46.06086416188011" lon="11.641553415766923"><ele>1086.0</ele><time>2026-05-02T08:58:52Z</time></trkpt><trkpt lat="46.06096056182907" lon="11.641617976738049"><ele>1083.0</ele><time>2026-05-02T08:58:52.999Z</time></trkpt><trkpt lat="46.061066677644725" lon="11.641706391800545"><ele>1080.0</ele><time>2026-05-02T08:58:53.999Z</time></trkpt><trkpt lat="46.061179482350596" lon="11.641783000908699"><ele>1080.0</ele><time>2026-05-02T08:58:54.999Z</time></trkpt><trkpt lat="46.06127882527412" lon="11.641852906609184"><ele>1080.0</ele><time>2026-05-02T08:58:55.999Z</time></trkpt><trkpt lat="46.06139773449706" lon="11.641831354873158"><ele>1080.0</ele><time>2026-05-02T08:58:56.999Z</time></trkpt><trkpt lat="46.06151795837139" lon="11.6417888017564"><ele>1080.0</ele><time>2026-05-02T08:58:57.999Z</time></trkpt><trkpt lat="46.06159951086363" lon="11.641745944631946"><ele>1080.0</ele><time>2026-05-02T08:58:58.999Z</time></trkpt><trkpt lat="46.06171183073394" lon="11.641617193096444"><ele>1077.75</ele><time>2026-05-02T08:58:59.999Z</time></trkpt><trkpt lat="46.06181769339537" lon="11.641483182487324"><ele>1075.5</ele><time>2026-05-02T08:59:00.999Z</time></trkpt><trkpt lat="46.06194742764404" lon="11.64138283799143"><ele>1073.25</ele><time>2026-05-02T08:59:01.999Z</time></trkpt><trkpt lat="46.06208861071987" lon="11.641309631388351"><ele>1071.0</ele><time>2026-05-02T08:59:02.999Z</time></trkpt><trkpt lat="46.06223608973273" lon="11.641252075269874"><ele>1071.0</ele><time>2026-05-02T08:59:03.999Z</time></trkpt><trkpt lat="46.06236971678358" lon="11.641187862755492"><ele>1071.0</ele><time>2026-05-02T08:59:04.999Z</time></trkpt><trkpt lat="46.062505672032295" lon="11.641115329801712"><ele>1071.0</ele><time>2026-05-02T08:59:05.999Z</time></trkpt><trkpt lat="46.0626422490733" lon="11.64105678833871"><ele>1071.0</ele><time>2026-05-02T08:59:06.999Z</time></trkpt><trkpt lat="46.0627776457386" lon="11.641001188415972"><ele>1064.75</ele><time>2026-05-02T08:59:07.999Z</time></trkpt><trkpt lat="46.06290091293805" lon="11.640949541702074"><ele>1058.5</ele><time>2026-05-02T08:59:08.999Z</time></trkpt><trkpt lat="46.06302115223456" lon="11.64088940017001"><ele>1052.25</ele><time>2026-05-02T08:59:09.999Z</time></trkpt><trkpt lat="46.0631378493403" lon="11.640830030979336"><ele>1046.0</ele><time>2026-05-02T08:59:10.999Z</time></trkpt><trkpt lat="46.063251604554395" lon="11.640778828970193"><ele>1042.75</ele><time>2026-05-02T08:59:11.999Z</time></trkpt><trkpt lat="46.06336132744457" lon="11.640722573717502"><ele>1039.5</ele><time>2026-05-02T08:59:12.999Z</time></trkpt><trkpt lat="46.06345401544715" lon="11.640613677680705"><ele>1036.25</ele><time>2026-05-02T08:59:13.999Z</time></trkpt><trkpt lat="46.06352125319896" lon="11.64044454844847"><ele>1033.0</ele><time>2026-05-02T08:59:14.999Z</time></trkpt><trkpt lat="46.063583045956634" lon="11.640262919802888"><ele>1033.0</ele><time>2026-05-02T08:59:15.999Z</time></trkpt><trkpt lat="46.06365166487417" lon="11.64007520094926"><ele>1033.0</ele><time>2026-05-02T08:59:16.999Z</time></trkpt><trkpt lat="46.0637205531792" lon="11.639895552248031"><ele>1033.0</ele><time>2026-05-02T08:59:17.999Z</time></trkpt><trkpt lat="46.063791562734146" lon="11.639713763027654"><ele>1033.0</ele><time>2026-05-02T08:59:18.999Z</time></trkpt><trkpt lat="46.06386134846256" lon="11.639523730125065"><ele>1024.6666666666665</ele><time>2026-05-02T08:59:19.999Z</time></trkpt><trkpt lat="46.06393172704897" lon="11.63934679128792"><ele>1016.3333333333333</ele><time>2026-05-02T08:59:20.999Z</time></trkpt><trkpt lat="46.06398238520318" lon="11.63915617199381"><ele>1008.0</ele><time>2026-05-02T08:59:21.999Z</time></trkpt><trkpt lat="46.06400419177882" lon="11.638918199724907"><ele>1008.0</ele><time>2026-05-02T08:59:22.999Z</time></trkpt><trkpt lat="46.06402118799947" lon="11.638705174081128"><ele>1008.0</ele><time>2026-05-02T08:59:23.999Z</time></trkpt><trkpt lat="46.06403566578847" lon="11.63852106015951"><ele>1008.0</ele><time>2026-05-02T08:59:24.999Z</time></trkpt><trkpt lat="46.06406193706768" lon="11.638410350178017"><ele>1008.0</ele><time>2026-05-02T08:59:25.999Z</time></trkpt><trkpt lat="46.06411103751159" lon="11.638263278483253"><ele>1009.75</ele><time>2026-05-02T08:59:26.999Z</time></trkpt><trkpt lat="46.06424188540814" lon="11.638041095396252"><ele>1011.5</ele><time>2026-05-02T08:59:27.999Z</time></trkpt><trkpt lat="46.064335628645104" lon="11.637930573485047"><ele>1013.25</ele><time>2026-05-02T08:59:28.999Z</time></trkpt><trkpt lat="46.06439409406665" lon="11.637854859864925"><ele>1015.0</ele><time>2026-05-02T08:59:29.999Z</time></trkpt><trkpt lat="46.06444171953782" lon="11.637787200550259"><ele>1015.0</ele><time>2026-05-02T08:59:30.999Z</time></trkpt><trkpt lat="46.06444835790106" lon="11.63768428290221"><ele>1015.0</ele><time>2026-05-02T08:59:31.999Z</time></trkpt><trkpt lat="46.06439099248542" lon="11.637612367098443"><ele>1015.0</ele><time>2026-05-02T08:59:32.999Z</time></trkpt><trkpt lat="46.06431803606919" lon="11.637565315608589"><ele>1015.0</ele><time>2026-05-02T08:59:33.999Z</time></trkpt><trkpt lat="46.064204364694184" lon="11.63761650519435"><ele>1015.0</ele><time>2026-05-02T08:59:34.999Z</time></trkpt><trkpt lat="46.06412483799882" lon="11.637766244020714"><ele>1008.75</ele><time>2026-05-02T08:59:35.999Z</time></trkpt><trkpt lat="46.06404028515515" lon="11.637912612787103"><ele>1002.5</ele><time>2026-05-02T08:59:36.999Z</time></trkpt><trkpt lat="46.06395617314372" lon="11.638034831389879"><ele>996.25</ele><time>2026-05-02T08:59:37.999Z</time></trkpt><trkpt lat="46.0638882811286" lon="11.638160852505585"><ele>990.0</ele><time>2026-05-02T08:59:38.999Z</time></trkpt><trkpt lat="46.06383168890385" lon="11.638313726869765"><ele>990.0</ele><time>2026-05-02T08:59:39.999Z</time></trkpt><trkpt lat="46.06378098239455" lon="11.638501085544242"><ele>990.0</ele><time>2026-05-02T08:59:40.999Z</time></trkpt><trkpt lat="46.06376585859545" lon="11.638703382204667"><ele>990.0</ele><time>2026-05-02T08:59:41.999Z</time></trkpt><trkpt lat="46.06374679771395" lon="11.638877026708226"><ele>990.0</ele><time>2026-05-02T08:59:42.999Z</time></trkpt><trkpt lat="46.06371284992033" lon="11.639030164583392"><ele>994.5</ele><time>2026-05-02T08:59:43.999Z</time></trkpt><trkpt lat="46.06364477240569" lon="11.639166469712661"><ele>999.0</ele><time>2026-05-02T08:59:44.999Z</time></trkpt><trkpt lat="46.06355915752819" lon="11.63928124014646"><ele>1003.5</ele><time>2026-05-02T08:59:45.999Z</time></trkpt><trkpt lat="46.063460943298004" lon="11.639398963355225"><ele>1008.0</ele><time>2026-05-02T08:59:46.998Z</time></trkpt><trkpt lat="46.06336352325189" lon="11.639511418940925"><ele>1008.75</ele><time>2026-05-02T08:59:47.998Z</time></trkpt><trkpt lat="46.06327670776686" lon="11.639641925485966"><ele>1009.5</ele><time>2026-05-02T08:59:48.998Z</time></trkpt><trkpt lat="46.063169075904305" lon="11.6397367914478"><ele>1010.25</ele><time>2026-05-02T08:59:49.998Z</time></trkpt><trkpt lat="46.063065989408166" lon="11.639844153748712"><ele>1011.0</ele><time>2026-05-02T08:59:50.998Z</time></trkpt><trkpt lat="46.06296440769668" lon="11.639931119921146"><ele>1011.0</ele><time>2026-05-02T08:59:51.998Z</time></trkpt><trkpt lat="46.06284755665156" lon="11.639984763149501"><ele>1011.0</ele><time>2026-05-02T08:59:52.998Z</time></trkpt><trkpt lat="46.062721899819486" lon="11.640018429310892"><ele>1011.0</ele><time>2026-05-02T08:59:53.998Z</time></trkpt><trkpt lat="46.062587752214185" lon="11.640038929497571"><ele>1011.0</ele><time>2026-05-02T08:59:54.998Z</time></trkpt><trkpt lat="46.06245015645721" lon="11.640048669235236"><ele>1008.75</ele><time>2026-05-02T08:59:55.998Z</time></trkpt><trkpt lat="46.06231441963366" lon="11.640057732722239"><ele>1006.5</ele><time>2026-05-02T08:59:56.998Z</time></trkpt><trkpt lat="46.06217091490394" lon="11.640067503550949"><ele>1004.25</ele><time>2026-05-02T08:59:57.998Z</time></trkpt><trkpt lat="46.06202732328062" lon="11.64010829771624"><ele>1002.0</ele><time>2026-05-02T08:59:58.998Z</time></trkpt><trkpt lat="46.061882617894746" lon="11.6401227938175"><ele>1002.0</ele><time>2026-05-02T08:59:59.998Z</time></trkpt><trkpt lat="46.061748331566505" lon="11.640156329256737"><ele>1002.0</ele><time>2026-05-02T09:00:00.998Z</time></trkpt><trkpt lat="46.061619588949185" lon="11.640199766033636"><ele>1002.0</ele><time>2026-05-02T09:00:01.998Z</time></trkpt><trkpt lat="46.061495149776114" lon="11.640242124252783"><ele>1002.0</ele><time>2026-05-02T09:00:02.998Z</time></trkpt><trkpt lat="46.061375293756214" lon="11.640265470886042"><ele>1002.5</ele><time>2026-05-02T09:00:03.998Z</time></trkpt><trkpt lat="46.06125788960962" lon="11.640217764274874"><ele>1003.0</ele><time>2026-05-02T09:00:04.998Z</time></trkpt><trkpt lat="46.06113580509514" lon="11.640173831093353"><ele>1003.5</ele><time>2026-05-02T09:00:05.998Z</time></trkpt><trkpt lat="46.0610293157306" lon="11.64003825779733"><ele>1004.0</ele><time>2026-05-02T09:00:06.998Z</time></trkpt><trkpt lat="46.06090850887983" lon="11.639954697681366"><ele>1004.0</ele><time>2026-05-02T09:00:07.998Z</time></trkpt><trkpt lat="46.06079538083442" lon="11.639903843431354"><ele>1004.0</ele><time>2026-05-02T09:00:08.998Z</time></trkpt><trkpt lat="46.060663096568696" lon="11.639885974689172"><ele>1004.0</ele><time>2026-05-02T09:00:09.998Z</time></trkpt><trkpt lat="46.06054065051924" lon="11.639873161755407"><ele>1004.0</ele><time>2026-05-02T09:00:10.998Z</time></trkpt><trkpt lat="46.060420332368984" lon="11.63986117922415"><ele>1004.6</ele><time>2026-05-02T09:00:11.998Z</time></trkpt><trkpt lat="46.06030764738743" lon="11.639836988178441"><ele>1005.2</ele><time>2026-05-02T09:00:12.998Z</time></trkpt><trkpt lat="46.06019136982761" lon="11.639791644617603"><ele>1005.8000000000001</ele><time>2026-05-02T09:00:14Z</time></trkpt><trkpt lat="46.06008322556547" lon="11.639767211003532"><ele>1006.4000000000001</ele><time>2026-05-02T09:00:15Z</time></trkpt><trkpt lat="46.05998911044194" lon="11.639712966086007"><ele>1007.0</ele><time>2026-05-02T09:00:16Z</time></trkpt><trkpt lat="46.05991257150479" lon="11.639664740127468"><ele>1007.0000000000001</ele><time>2026-05-02T09:00:17Z</time></trkpt><trkpt lat="46.05984689379836" lon="11.639637395243572"><ele>1007.0</ele><time>2026-05-02T09:00:19Z</time></trkpt><trkpt lat="46.05979336792342" lon="11.639573431089369"><ele>1007.0</ele><time>2026-05-02T09:00:38Z</time></trkpt><trkpt lat="46.05974170824742" lon="11.639514680806583"><ele>1007.0</ele><time>2026-05-02T09:00:41Z</time></trkpt><trkpt lat="46.0598237165016" lon="11.639536458043407"><ele>1007.0000000000001</ele><time>2026-05-02T09:00:46Z</time></trkpt><trkpt lat="46.059909049028995" lon="11.639640240591953"><ele>1007.0</ele><time>2026-05-02T09:01:00.999Z</time></trkpt><trkpt lat="46.060002132694265" lon="11.639664616392285"><ele>1007.0</ele><time>2026-05-02T09:01:02.999Z</time></trkpt><trkpt lat="46.06010645761656" lon="11.639671965028468"><ele>1007.0</ele><time>2026-05-02T09:01:04.999Z</time></trkpt><trkpt lat="46.06022515075376" lon="11.639681542046317"><ele>1007.0</ele><time>2026-05-02T09:01:06.999Z</time></trkpt><trkpt lat="46.06029937510272" lon="11.639680411605442"><ele>1007.0</ele><time>2026-05-02T09:01:07.999Z</time></trkpt><trkpt lat="46.06042049669738" lon="11.639666128668708"><ele>1007.0</ele><time>2026-05-02T09:01:09.999Z</time></trkpt><trkpt lat="46.06049298011836" lon="11.639654774155414"><ele>1007.0000000000001</ele><time>2026-05-02T09:01:10.999Z</time></trkpt><trkpt lat="46.06057134861354" lon="11.639632954146135"><ele>1007.0</ele><time>2026-05-02T09:01:11.999Z</time></trkpt><trkpt lat="46.06064334270742" lon="11.639605861173203"><ele>1007.0</ele><time>2026-05-02T09:01:12.999Z</time></trkpt><trkpt lat="46.060713243397295" lon="11.639557751635873"><ele>1007.0</ele><time>2026-05-02T09:01:13.999Z</time></trkpt><trkpt lat="46.060775961172055" lon="11.639486943677387"><ele>1007.0000000000001</ele><time>2026-05-02T09:01:14.999Z</time></trkpt><trkpt lat="46.06086437716318" lon="11.639383206795879"><ele>1007.0</ele><time>2026-05-02T09:01:16.999Z</time></trkpt><trkpt lat="46.06094648080296" lon="11.639339247754666"><ele>1000.3333333333334</ele><time>2026-05-02T09:01:18.999Z</time></trkpt><trkpt lat="46.06106383829444" lon="11.639399252156728"><ele>993.6666666666667</ele><time>2026-05-02T09:01:20.999Z</time></trkpt><trkpt lat="46.06114731092054" lon="11.639427981064378"><ele>987.0</ele><time>2026-05-02T09:01:21.999Z</time></trkpt><trkpt lat="46.061216095712474" lon="11.639444886845201"><ele>980.3333333333333</ele><time>2026-05-02T09:01:22.999Z</time></trkpt><trkpt lat="46.061281976260794" lon="11.639452665289983"><ele>973.6666666666666</ele><time>2026-05-02T09:01:23.999Z</time></trkpt><trkpt lat="46.061370481733455" lon="11.639417722307563"><ele>967.0</ele><time>2026-05-02T09:01:24.999Z</time></trkpt><trkpt lat="46.06144370722004" lon="11.63934073050305"><ele>966.9999999999999</ele><time>2026-05-02T09:01:25.999Z</time></trkpt><trkpt lat="46.061503999878944" lon="11.639267358958323"><ele>967.0</ele><time>2026-05-02T09:01:26.999Z</time></trkpt><trkpt lat="46.0615623263639" lon="11.639183573924692"><ele>967.0</ele><time>2026-05-02T09:01:27.999Z</time></trkpt><trkpt lat="46.061617378616084" lon="11.639074434014818"><ele>967.0</ele><time>2026-05-02T09:01:28.999Z</time></trkpt><trkpt lat="46.061656877442516" lon="11.638963606891895"><ele>966.9999999999999</ele><time>2026-05-02T09:01:29.999Z</time></trkpt><trkpt lat="46.06169816916714" lon="11.638862154382107"><ele>967.0</ele><time>2026-05-02T09:01:30.999Z</time></trkpt><trkpt lat="46.061752629656766" lon="11.638781545395714"><ele>968.1666666666666</ele><time>2026-05-02T09:01:31.999Z</time></trkpt><trkpt lat="46.0617987442109" lon="11.638693773690187"><ele>969.3333333333333</ele><time>2026-05-02T09:01:32.999Z</time></trkpt><trkpt lat="46.06183323111848" lon="11.638608360847687"><ele>970.5</ele><time>2026-05-02T09:01:33.999Z</time></trkpt><trkpt lat="46.061888930957984" lon="11.638506085925952"><ele>971.6666666666667</ele><time>2026-05-02T09:01:35.999Z</time></trkpt><trkpt lat="46.061939749852435" lon="11.63843825420899"><ele>972.8333333333334</ele><time>2026-05-02T09:01:52.998Z</time></trkpt><trkpt lat="46.0619998715045" lon="11.638320689253714"><ele>974.0</ele><time>2026-05-02T09:03:23.999Z</time></trkpt><trkpt lat="46.0620416535176" lon="11.638243184868607"><ele>967.6</ele><time>2026-05-02T09:03:24.999Z</time></trkpt><trkpt lat="46.062167377635646" lon="11.638288117287955"><ele>961.2</ele><time>2026-05-02T09:03:25.999Z</time></trkpt><trkpt lat="46.06226498657401" lon="11.63827608822932"><ele>954.8000000000001</ele><time>2026-05-02T09:03:27.999Z</time></trkpt><trkpt lat="46.0623668672965" lon="11.63820590604826"><ele>948.4000000000001</ele><time>2026-05-02T09:03:29.999Z</time></trkpt><trkpt lat="46.062410894813496" lon="11.638077291392374"><ele>942.0</ele><time>2026-05-02T09:03:31.999Z</time></trkpt><trkpt lat="46.06244665495969" lon="11.637926496018217"><ele>939.2</ele><time>2026-05-02T09:03:33.999Z</time></trkpt><trkpt lat="46.062474320289404" lon="11.637758975670796"><ele>936.4000000000001</ele><time>2026-05-02T09:03:35.999Z</time></trkpt><trkpt lat="46.062488483469195" lon="11.637590222908093"><ele>933.5999999999999</ele><time>2026-05-02T09:03:37.999Z</time></trkpt><trkpt lat="46.062510620502586" lon="11.63743482731106"><ele>930.8</ele><time>2026-05-02T09:03:39.999Z</time></trkpt><trkpt lat="46.06253136135151" lon="11.63734605684213"><ele>928.0</ele><time>2026-05-02T09:03:40.999Z</time></trkpt><trkpt lat="46.062561936475575" lon="11.637259192764846"><ele>927.9999999999999</ele><time>2026-05-02T09:03:41.999Z</time></trkpt><trkpt lat="46.06259111536725" lon="11.637174271242658"><ele>928.0</ele><time>2026-05-02T09:03:42.999Z</time></trkpt><trkpt lat="46.062650214365824" lon="11.637037580052418"><ele>928.0</ele><time>2026-05-02T09:03:44.999Z</time></trkpt><trkpt lat="46.06264627376882" lon="11.636945216847916"><ele>928.0</ele><time>2026-05-02T09:03:45.999Z</time></trkpt><trkpt lat="46.06266212865218" lon="11.636805542040374"><ele>927.9999999999999</ele><time>2026-05-02T09:03:47.999Z</time></trkpt><trkpt lat="46.06270334761834" lon="11.636711310860926"><ele>928.0</ele><time>2026-05-02T09:03:49.999Z</time></trkpt><trkpt lat="46.06275292989773" lon="11.636627081561828"><ele>924.8333333333333</ele><time>2026-05-02T09:03:51.999Z</time></trkpt><trkpt lat="46.06282581017291" lon="11.636552215438083"><ele>921.6666666666666</ele><time>2026-05-02T09:03:52.999Z</time></trkpt><trkpt lat="46.06289976435938" lon="11.636439746578292"><ele>918.5</ele><time>2026-05-02T09:03:53.999Z</time></trkpt><trkpt lat="46.062936560068636" lon="11.636359912305487"><ele>915.3333333333333</ele><time>2026-05-02T09:03:55.998Z</time></trkpt><trkpt lat="46.062998298703036" lon="11.636256652246528"><ele>912.1666666666666</ele><time>2026-05-02T09:03:57.998Z</time></trkpt><trkpt lat="46.063062103090765" lon="11.636183447137526"><ele>909.0</ele><time>2026-05-02T09:03:59.998Z</time></trkpt><trkpt lat="46.0631156896166" lon="11.636068668683212"><ele>910.0</ele><time>2026-05-02T09:04:01.998Z</time></trkpt><trkpt lat="46.06317954577543" lon="11.635971543249772"><ele>911.0000000000001</ele><time>2026-05-02T09:04:03.998Z</time></trkpt><trkpt lat="46.063236841470534" lon="11.635876813402998"><ele>912.0000000000001</ele><time>2026-05-02T09:04:05.998Z</time></trkpt><trkpt lat="46.063301635052284" lon="11.635781881907105"><ele>913.0</ele><time>2026-05-02T09:04:07.998Z</time></trkpt><trkpt lat="46.06336678997736" lon="11.63565390567942"><ele>914.0</ele><time>2026-05-02T09:04:09.998Z</time></trkpt><trkpt lat="46.06343085443202" lon="11.635537935495309"><ele>914.0</ele><time>2026-05-02T09:04:11.998Z</time></trkpt><trkpt lat="46.06350140348503" lon="11.635407202165801"><ele>914.0</ele><time>2026-05-02T09:04:13.998Z</time></trkpt><trkpt lat="46.063594128132976" lon="11.635294956331187"><ele>914.0</ele><time>2026-05-02T09:04:15.998Z</time></trkpt><trkpt lat="46.06366768851484" lon="11.635163964897343"><ele>914.0</ele><time>2026-05-02T09:04:17.998Z</time></trkpt><trkpt lat="46.063761934543706" lon="11.63505351827372"><ele>908.6666666666667</ele><time>2026-05-02T09:04:19.998Z</time></trkpt><trkpt lat="46.06381318176791" lon="11.634988912398242"><ele>903.3333333333334</ele><time>2026-05-02T09:04:20.998Z</time></trkpt><trkpt lat="46.0638572433273" lon="11.63491825013561"><ele>898.0</ele><time>2026-05-02T09:04:21.998Z</time></trkpt><trkpt lat="46.063907886351224" lon="11.634814426256506"><ele>892.6666666666667</ele><time>2026-05-02T09:04:23.998Z</time></trkpt><trkpt lat="46.0639459466879" lon="11.634719024223497"><ele>887.3333333333334</ele><time>2026-05-02T09:04:26Z</time></trkpt><trkpt lat="46.06398802211711" lon="11.634603539278285"><ele>882.0</ele><time>2026-05-02T09:04:28Z</time></trkpt><trkpt lat="46.064027302093" lon="11.634477215808658"><ele>880.8333333333334</ele><time>2026-05-02T09:04:30Z</time></trkpt><trkpt lat="46.064068726118464" lon="11.634376132403931"><ele>879.6666666666667</ele><time>2026-05-02T09:04:32Z</time></trkpt><trkpt lat="46.06413638895416" lon="11.634262841797048"><ele>878.5</ele><time>2026-05-02T09:04:34Z</time></trkpt><trkpt lat="46.06419134850448" lon="11.63417429778882"><ele>877.3333333333334</ele><time>2026-05-02T09:04:36Z</time></trkpt><trkpt lat="46.06425008911385" lon="11.63412831728646"><ele>876.1666666666667</ele><time>2026-05-02T09:04:39Z</time></trkpt><trkpt lat="46.06429076302969" lon="11.634055032539175"><ele>875.0</ele><time>2026-05-02T09:04:43Z</time></trkpt><trkpt lat="46.06432499135701" lon="11.633964312493195"><ele>875.0000000000001</ele><time>2026-05-02T09:04:47Z</time></trkpt><trkpt lat="46.06438445340239" lon="11.633923014989227"><ele>875.0</ele><time>2026-05-02T09:04:50Z</time></trkpt><trkpt lat="46.06441147064139" lon="11.633832959385218"><ele>875.0</ele><time>2026-05-02T09:04:51Z</time></trkpt><trkpt lat="46.06447919556221" lon="11.633920876221804"><ele>875.0</ele><time>2026-05-02T09:04:52Z</time></trkpt><trkpt lat="46.0645825311246" lon="11.633955621124974"><ele>875.0000000000001</ele><time>2026-05-02T09:04:54Z</time></trkpt><trkpt lat="46.064673209138554" lon="11.634014244825623"><ele>875.0</ele><time>2026-05-02T09:04:56Z</time></trkpt><trkpt lat="46.06475429975075" lon="11.634051268236224"><ele>875.0</ele><time>2026-05-02T09:04:58Z</time></trkpt><trkpt lat="46.064843562221434" lon="11.634108599034905"><ele>875.0</ele><time>2026-05-02T09:05:01Z</time></trkpt><trkpt lat="46.06496063666991" lon="11.634120062878972"><ele>875.0</ele><time>2026-05-02T09:05:03Z</time></trkpt><trkpt lat="46.06506523952626" lon="11.634168139958122"><ele>875.0</ele><time>2026-05-02T09:05:04.999Z</time></trkpt><trkpt lat="46.0651772158422" lon="11.634191842169958"><ele>875.0</ele><time>2026-05-02T09:05:06.999Z</time></trkpt><trkpt lat="46.06528425979449" lon="11.634205426211897"><ele>875.5000000000001</ele><time>2026-05-02T09:05:08.999Z</time></trkpt><trkpt lat="46.065363417748955" lon="11.634265722660313"><ele>876.0</ele><time>2026-05-02T09:05:10.999Z</time></trkpt><trkpt lat="46.06539751839928" lon="11.634346203580803"><ele>876.5</ele><time>2026-05-02T09:05:12.999Z</time></trkpt><trkpt lat="46.0654457727102" lon="11.634451516546603"><ele>877.0</ele><time>2026-05-02T09:05:14.999Z</time></trkpt><trkpt lat="46.06545723076471" lon="11.63454484049819"><ele>877.5000000000001</ele><time>2026-05-02T09:05:15.999Z</time></trkpt><trkpt lat="46.06547507469904" lon="11.634636146041887"><ele>878.0</ele><time>2026-05-02T09:05:16.999Z</time></trkpt><trkpt lat="46.06554721261283" lon="11.634757365911844"><ele>877.5</ele><time>2026-05-02T09:05:18.999Z</time></trkpt><trkpt lat="46.065634732186595" lon="11.634878017520391"><ele>877.0</ele><time>2026-05-02T09:05:20.999Z</time></trkpt><trkpt lat="46.06571459831993" lon="11.634986896056304"><ele>876.5</ele><time>2026-05-02T09:05:22.999Z</time></trkpt><trkpt lat="46.065806456885255" lon="11.635097119194894"><ele>876.0</ele><time>2026-05-02T09:05:24.999Z</time></trkpt><trkpt lat="46.0658831528142" lon="11.635211867998636"><ele>881.1999999999999</ele><time>2026-05-02T09:05:26.999Z</time></trkpt><trkpt lat="46.06597146861476" lon="11.635312105964259"><ele>886.3999999999999</ele><time>2026-05-02T09:05:28.999Z</time></trkpt><trkpt lat="46.06605888922566" lon="11.635445873432046"><ele>891.6</ele><time>2026-05-02T09:05:30.999Z</time></trkpt><trkpt lat="46.06610925299627" lon="11.635513640648513"><ele>896.8</ele><time>2026-05-02T09:05:31.999Z</time></trkpt><trkpt lat="46.06615614995267" lon="11.635595999037934"><ele>902.0</ele><time>2026-05-02T09:05:32.999Z</time></trkpt><trkpt lat="46.0661995143932" lon="11.635689611739418"><ele>902.0</ele><time>2026-05-02T09:05:33.999Z</time></trkpt><trkpt lat="46.0662525638066" lon="11.635797103327171"><ele>902.0</ele><time>2026-05-02T09:05:34.999Z</time></trkpt><trkpt lat="46.06629111313116" lon="11.63591273900668"><ele>902.0</ele><time>2026-05-02T09:05:35.999Z</time></trkpt><trkpt lat="46.06634193776537" lon="11.636041482392514"><ele>902.0</ele><time>2026-05-02T09:05:36.999Z</time></trkpt><trkpt lat="46.06639496166542" lon="11.636183362600848"><ele>902.0</ele><time>2026-05-02T09:05:37.999Z</time></trkpt><trkpt lat="46.066437396937914" lon="11.636320408962671"><ele>906.6</ele><time>2026-05-02T09:05:38.999Z</time></trkpt><trkpt lat="46.06648578829799" lon="11.63644179831114"><ele>911.2</ele><time>2026-05-02T09:05:39.999Z</time></trkpt><trkpt lat="46.06652047327258" lon="11.636566787209716"><ele>915.8</ele><time>2026-05-02T09:05:40.999Z</time></trkpt><trkpt lat="46.066564179953374" lon="11.636680323301313"><ele>920.4</ele><time>2026-05-02T09:05:41.999Z</time></trkpt><trkpt lat="46.06661004661781" lon="11.636790141821434"><ele>925.0</ele><time>2026-05-02T09:05:42.999Z</time></trkpt><trkpt lat="46.066648548307406" lon="11.636897823399257"><ele>918.6666666666666</ele><time>2026-05-02T09:05:43.999Z</time></trkpt><trkpt lat="46.06669482667574" lon="11.636994383445487"><ele>912.3333333333333</ele><time>2026-05-02T09:05:44.999Z</time></trkpt><trkpt lat="46.066736943467895" lon="11.637090981891745"><ele>906.0</ele><time>2026-05-02T09:05:45.999Z</time></trkpt><trkpt lat="46.0667709910785" lon="11.63718430572662"><ele>899.6666666666667</ele><time>2026-05-02T09:05:46.999Z</time></trkpt><trkpt lat="46.06678077716803" lon="11.637285233379814"><ele>893.3333333333334</ele><time>2026-05-02T09:05:47.999Z</time></trkpt><trkpt lat="46.06681875221445" lon="11.637361144954838"><ele>887.0</ele><time>2026-05-02T09:05:48.999Z</time></trkpt><trkpt lat="46.0668376610421" lon="11.637485597072327"><ele>887.0000000000001</ele><time>2026-05-02T09:05:50.999Z</time></trkpt><trkpt lat="46.06689343384604" lon="11.637336221258336"><ele>887.0</ele><time>2026-05-02T09:05:56.999Z</time></trkpt><trkpt lat="46.06684350371749" lon="11.637221852697829"><ele>887.0</ele><time>2026-05-02T09:05:57.998Z</time></trkpt><trkpt lat="46.06681141553031" lon="11.637135025417482"><ele>887.0</ele><time>2026-05-02T09:05:58.998Z</time></trkpt><trkpt lat="46.066783371373525" lon="11.637040409532183"><ele>887.0000000000001</ele><time>2026-05-02T09:05:59.998Z</time></trkpt><trkpt lat="46.066768072391376" lon="11.636927054503618"><ele>887.0</ele><time>2026-05-02T09:06:00.998Z</time></trkpt><trkpt lat="46.06672946878984" lon="11.636816930273485"><ele>889.5000000000001</ele><time>2026-05-02T09:06:01.998Z</time></trkpt><trkpt lat="46.06669594311565" lon="11.636696691387947"><ele>892.0</ele><time>2026-05-02T09:06:02.998Z</time></trkpt><trkpt lat="46.0666629095166" lon="11.636584619838382"><ele>894.5</ele><time>2026-05-02T09:06:03.998Z</time></trkpt><trkpt lat="46.06662737592375" lon="11.636456507898059"><ele>897.0</ele><time>2026-05-02T09:06:04.998Z</time></trkpt><trkpt lat="46.066591602335066" lon="11.636343275118133"><ele>899.5000000000001</ele><time>2026-05-02T09:06:05.998Z</time></trkpt><trkpt lat="46.06656093686668" lon="11.636217895005313"><ele>902.0</ele><time>2026-05-02T09:06:06.998Z</time></trkpt><trkpt lat="46.06653254313603" lon="11.636089268711746"><ele>902.0</ele><time>2026-05-02T09:06:07.998Z</time></trkpt><trkpt lat="46.066500297310334" lon="11.635968049946854"><ele>902.0</ele><time>2026-05-02T09:06:08.998Z</time></trkpt><trkpt lat="46.06646154704361" lon="11.635850560014067"><ele>902.0</ele><time>2026-05-02T09:06:09.998Z</time></trkpt><trkpt lat="46.066429260004" lon="11.63572813210168"><ele>902.0</ele><time>2026-05-02T09:06:10.998Z</time></trkpt><trkpt lat="46.06639941847579" lon="11.635604091667187"><ele>902.0</ele><time>2026-05-02T09:06:11.998Z</time></trkpt><trkpt lat="46.06636749194847" lon="11.635481747232737"><ele>902.0000000000001</ele><time>2026-05-02T09:06:12.998Z</time></trkpt><trkpt lat="46.066337236553366" lon="11.635356969472992"><ele>902.0</ele><time>2026-05-02T09:06:13.998Z</time></trkpt><trkpt lat="46.06630661422022" lon="11.635236883590972"><ele>902.0</ele><time>2026-05-02T09:06:14.998Z</time></trkpt><trkpt lat="46.0662738108976" lon="11.63512713080175"><ele>902.0</ele><time>2026-05-02T09:06:15.998Z</time></trkpt><trkpt lat="46.06625939577985" lon="11.635005626596417"><ele>902.0000000000001</ele><time>2026-05-02T09:06:16.998Z</time></trkpt><trkpt lat="46.06623068491333" lon="11.634890701382359"><ele>902.0</ele><time>2026-05-02T09:06:17.998Z</time></trkpt><trkpt lat="46.06619186692258" lon="11.634784687794365"><ele>897.6666666666667</ele><time>2026-05-02T09:06:18.998Z</time></trkpt><trkpt lat="46.066142266921695" lon="11.634687309028362"><ele>893.3333333333334</ele><time>2026-05-02T09:06:19.998Z</time></trkpt><trkpt lat="46.06609350661851" lon="11.634601403778966"><ele>889.0</ele><time>2026-05-02T09:06:20.998Z</time></trkpt><trkpt lat="46.066050419380396" lon="11.634527306338235"><ele>884.6666666666667</ele><time>2026-05-02T09:06:21.998Z</time></trkpt><trkpt lat="46.06596556067407" lon="11.634387389550334"><ele>880.3333333333334</ele><time>2026-05-02T09:06:23.998Z</time></trkpt><trkpt lat="46.06591993938548" lon="11.634312750897436"><ele>876.0</ele><time>2026-05-02T09:06:24.998Z</time></trkpt><trkpt lat="46.065844208010695" lon="11.634270207140936"><ele>876.3333333333334</ele><time>2026-05-02T09:06:25.998Z</time></trkpt><trkpt lat="46.065793470289876" lon="11.634187526907153"><ele>876.6666666666667</ele><time>2026-05-02T09:06:26.998Z</time></trkpt><trkpt lat="46.06573252190316" lon="11.634107144988354"><ele>877.0</ele><time>2026-05-02T09:06:27.998Z</time></trkpt><trkpt lat="46.06566374462177" lon="11.634032752271848"><ele>877.3333333333334</ele><time>2026-05-02T09:06:28.998Z</time></trkpt><trkpt lat="46.06560153414313" lon="11.633960001398124"><ele>877.6666666666667</ele><time>2026-05-02T09:06:29.998Z</time></trkpt><trkpt lat="46.06553505384486" lon="11.633885871518023"><ele>878.0</ele><time>2026-05-02T09:06:30.998Z</time></trkpt><trkpt lat="46.06546176850262" lon="11.633818956858061"><ele>878.0000000000001</ele><time>2026-05-02T09:06:32Z</time></trkpt><trkpt lat="46.06538476877204" lon="11.633755854230353"><ele>878.0</ele><time>2026-05-02T09:06:33Z</time></trkpt><trkpt lat="46.065319549767025" lon="11.633682878232243"><ele>878.0</ele><time>2026-05-02T09:06:34Z</time></trkpt><trkpt lat="46.06524744036859" lon="11.633614852064381"><ele>878.0</ele><time>2026-05-02T09:06:35Z</time></trkpt><trkpt lat="46.065175042193964" lon="11.63354722264426"><ele>878.0000000000001</ele><time>2026-05-02T09:06:36Z</time></trkpt><trkpt lat="46.065105790429506" lon="11.63349700500402"><ele>878.0</ele><time>2026-05-02T09:06:37Z</time></trkpt><trkpt lat="46.06503715204473" lon="11.63346786797672"><ele>876.4</ele><time>2026-05-02T09:06:38Z</time></trkpt><trkpt lat="46.0649520827927" lon="11.63335976580128"><ele>874.8</ele><time>2026-05-02T09:06:40Z</time></trkpt><trkpt lat="46.06486745884832" lon="11.63325645916688"><ele>873.2</ele><time>2026-05-02T09:06:42Z</time></trkpt><trkpt lat="46.06476838102139" lon="11.633173876525378"><ele>871.6</ele><time>2026-05-02T09:06:44Z</time></trkpt><trkpt lat="46.064750340707484" lon="11.633077122953567"><ele>870.0</ele><time>2026-05-02T09:06:45Z</time></trkpt><trkpt lat="46.06467329391937" lon="11.632998266658952"><ele>869.1666666666666</ele><time>2026-05-02T09:06:47Z</time></trkpt><trkpt lat="46.064636956140646" lon="11.63285585412505"><ele>868.3333333333333</ele><time>2026-05-02T09:06:49Z</time></trkpt><trkpt lat="46.06460362827037" lon="11.632770564485778"><ele>867.5</ele><time>2026-05-02T09:06:50Z</time></trkpt><trkpt lat="46.06456607263219" lon="11.632676514708281"><ele>866.6666666666666</ele><time>2026-05-02T09:06:51Z</time></trkpt><trkpt lat="46.0645321598206" lon="11.632595658753669"><ele>865.8333333333333</ele><time>2026-05-02T09:06:52Z</time></trkpt><trkpt lat="46.06449161381217" lon="11.632449642301449"><ele>865.0</ele><time>2026-05-02T09:06:54Z</time></trkpt><trkpt lat="46.06446596593113" lon="11.632363475991866"><ele>864.5714285714286</ele><time>2026-05-02T09:06:55Z</time></trkpt><trkpt lat="46.06446116383445" lon="11.632266473896024"><ele>864.1428571428571</ele><time>2026-05-02T09:06:56Z</time></trkpt><trkpt lat="46.06446843364928" lon="11.632171524337338"><ele>863.7142857142858</ele><time>2026-05-02T09:06:57Z</time></trkpt><trkpt lat="46.06447710887973" lon="11.632070835767976"><ele>863.2857142857142</ele><time>2026-05-02T09:06:58Z</time></trkpt><trkpt lat="46.0644946869711" lon="11.631971734827554"><ele>862.8571428571428</ele><time>2026-05-02T09:06:59Z</time></trkpt><trkpt lat="46.06451134017989" lon="11.631866936904311"><ele>862.4285714285714</ele><time>2026-05-02T09:07:00Z</time></trkpt><trkpt lat="46.06452433147348" lon="11.631757109152048"><ele>862.0</ele><time>2026-05-02T09:07:01Z</time></trkpt><trkpt lat="46.06454412010744" lon="11.631635335307964"><ele>860.9999999999999</ele><time>2026-05-02T09:07:02Z</time></trkpt><trkpt lat="46.06456224264163" lon="11.631497836204426"><ele>860.0</ele><time>2026-05-02T09:07:03Z</time></trkpt><trkpt lat="46.06458303058043" lon="11.631356458772729"><ele>859.0</ele><time>2026-05-02T09:07:04Z</time></trkpt><trkpt lat="46.064597873847994" lon="11.631228059231804"><ele>858.0</ele><time>2026-05-02T09:07:05Z</time></trkpt><trkpt lat="46.06460575222016" lon="11.631121244315054"><ele>856.9999999999999</ele><time>2026-05-02T09:07:06Z</time></trkpt><trkpt lat="46.06465105701843" lon="11.631031037224526"><ele>856.0</ele><time>2026-05-02T09:07:06.999Z</time></trkpt><trkpt lat="46.064675727619075" lon="11.630855418130286"><ele>855.1666666666666</ele><time>2026-05-02T09:07:07.999Z</time></trkpt><trkpt lat="46.06469329979978" lon="11.630731877828152"><ele>854.3333333333333</ele><time>2026-05-02T09:07:08.999Z</time></trkpt><trkpt lat="46.06470014216618" lon="11.630610001414121"><ele>853.5</ele><time>2026-05-02T09:07:09.999Z</time></trkpt><trkpt lat="46.06472223928795" lon="11.630488875377418"><ele>852.6666666666667</ele><time>2026-05-02T09:07:10.999Z</time></trkpt><trkpt lat="46.06473578598565" lon="11.630354453235281"><ele>851.8333333333334</ele><time>2026-05-02T09:07:11.999Z</time></trkpt><trkpt lat="46.064755463358146" lon="11.630235753772803"><ele>851.0</ele><time>2026-05-02T09:07:12.999Z</time></trkpt><trkpt lat="46.06478099717991" lon="11.630117717186277"><ele>851.3333333333334</ele><time>2026-05-02T09:07:13.999Z</time></trkpt><trkpt lat="46.06480868876854" lon="11.63001015071977"><ele>851.6666666666667</ele><time>2026-05-02T09:07:14.999Z</time></trkpt><trkpt lat="46.06483720705667" lon="11.629903325472961"><ele>852.0</ele><time>2026-05-02T09:07:15.999Z</time></trkpt><trkpt lat="46.064876113116775" lon="11.629794285168728"><ele>852.3333333333333</ele><time>2026-05-02T09:07:16.999Z</time></trkpt><trkpt lat="46.06491756494782" lon="11.629677796678429"><ele>852.6666666666666</ele><time>2026-05-02T09:07:17.999Z</time></trkpt><trkpt lat="46.064956364098265" lon="11.629547724932543"><ele>853.0</ele><time>2026-05-02T09:07:18.999Z</time></trkpt><trkpt lat="46.06499844023602" lon="11.629402794764882"><ele>853.0</ele><time>2026-05-02T09:07:19.999Z</time></trkpt><trkpt lat="46.06503922830667" lon="11.629240190902038"><ele>853.0</ele><time>2026-05-02T09:07:20.999Z</time></trkpt><trkpt lat="46.065071679665124" lon="11.629065584834638"><ele>853.0</ele><time>2026-05-02T09:07:21.999Z</time></trkpt><trkpt lat="46.0650947427752" lon="11.628937200031766"><ele>853.0</ele><time>2026-05-02T09:07:22.999Z</time></trkpt><trkpt lat="46.06512726807101" lon="11.628815268170245"><ele>853.0</ele><time>2026-05-02T09:07:23.999Z</time></trkpt><trkpt lat="46.065200835731375" lon="11.628709667130781"><ele>850.8333333333333</ele><time>2026-05-02T09:07:24.999Z</time></trkpt><trkpt lat="46.06525043288622" lon="11.62862408271724"><ele>848.6666666666666</ele><time>2026-05-02T09:07:25.999Z</time></trkpt><trkpt lat="46.06535489960949" lon="11.628584935227641"><ele>846.5</ele><time>2026-05-02T09:07:26.999Z</time></trkpt><trkpt lat="46.06541961426077" lon="11.628535235655235"><ele>844.3333333333333</ele><time>2026-05-02T09:07:27.999Z</time></trkpt><trkpt lat="46.06545972645257" lon="11.628446196399345"><ele>842.1666666666666</ele><time>2026-05-02T09:07:28.999Z</time></trkpt><trkpt lat="46.06546050825412" lon="11.628339670805026"><ele>840.0</ele><time>2026-05-02T09:07:29.999Z</time></trkpt><trkpt lat="46.06542076378505" lon="11.62824489645766"><ele>840.0</ele><time>2026-05-02T09:07:30.999Z</time></trkpt><trkpt lat="46.06534261288523" lon="11.628184626452587"><ele>840.0</ele><time>2026-05-02T09:07:31.999Z</time></trkpt><trkpt lat="46.06524619861701" lon="11.628177493740633"><ele>840.0</ele><time>2026-05-02T09:07:32.999Z</time></trkpt><trkpt lat="46.065155663004894" lon="11.628252746446035"><ele>840.0</ele><time>2026-05-02T09:07:33.999Z</time></trkpt><trkpt lat="46.065111083512804" lon="11.628390354291351"><ele>840.0</ele><time>2026-05-02T09:07:34.999Z</time></trkpt><trkpt lat="46.065082335256086" lon="11.628559349636197"><ele>839.8</ele><time>2026-05-02T09:07:35.999Z</time></trkpt><trkpt lat="46.06503312597756" lon="11.628708563090187"><ele>839.6</ele><time>2026-05-02T09:07:36.999Z</time></trkpt><trkpt lat="46.064959316813386" lon="11.628810559139039"><ele>839.4000000000001</ele><time>2026-05-02T09:07:37.999Z</time></trkpt><trkpt lat="46.064888760924134" lon="11.628893662917672"><ele>839.2</ele><time>2026-05-02T09:07:38.999Z</time></trkpt><trkpt lat="46.06481614375701" lon="11.628977408042704"><ele>839.0</ele><time>2026-05-02T09:07:39.999Z</time></trkpt><trkpt lat="46.0647310911224" lon="11.629051041380151"><ele>839.0</ele><time>2026-05-02T09:07:40.999Z</time></trkpt><trkpt lat="46.06464904294062" lon="11.629145547573799"><ele>839.0</ele><time>2026-05-02T09:07:41.999Z</time></trkpt><trkpt lat="46.06458454369575" lon="11.629253952570316"><ele>839.0</ele><time>2026-05-02T09:07:42.999Z</time></trkpt><trkpt lat="46.06451700653758" lon="11.629344992508313"><ele>839.0</ele><time>2026-05-02T09:07:43.999Z</time></trkpt><trkpt lat="46.06447211640611" lon="11.62944576278154"><ele>839.0</ele><time>2026-05-02T09:07:44.999Z</time></trkpt><trkpt lat="46.06446185319064" lon="11.629560387951779"><ele>840.1666666666667</ele><time>2026-05-02T09:07:45.999Z</time></trkpt><trkpt lat="46.06444468394458" lon="11.629668404994343"><ele>841.3333333333334</ele><time>2026-05-02T09:07:46.999Z</time></trkpt><trkpt lat="46.06443558507848" lon="11.629758636343434"><ele>842.5</ele><time>2026-05-02T09:07:47.999Z</time></trkpt><trkpt lat="46.064347360550144" lon="11.629823296106057"><ele>843.6666666666667</ele><time>2026-05-02T09:07:49.999Z</time></trkpt><trkpt lat="46.064295557343144" lon="11.629757735956417"><ele>844.8333333333334</ele><time>2026-05-02T09:07:50.999Z</time></trkpt><trkpt lat="46.06427331525402" lon="11.629651344995894"><ele>846.0</ele><time>2026-05-02T09:07:51.999Z</time></trkpt><trkpt lat="46.064307305832855" lon="11.629530153272482"><ele>844.5999999999999</ele><time>2026-05-02T09:07:52.999Z</time></trkpt><trkpt lat="46.06432587614768" lon="11.629410544141574"><ele>843.2</ele><time>2026-05-02T09:07:53.999Z</time></trkpt><trkpt lat="46.064369764157355" lon="11.62929838460923"><ele>841.8</ele><time>2026-05-02T09:07:54.999Z</time></trkpt><trkpt lat="46.06440082450256" lon="11.629177982015488"><ele>840.4000000000001</ele><time>2026-05-02T09:07:55.999Z</time></trkpt><trkpt lat="46.064432960830345" lon="11.62904219315339"><ele>839.0</ele><time>2026-05-02T09:07:56.999Z</time></trkpt><trkpt lat="46.06446382473319" lon="11.628887396034925"><ele>839.0</ele><time>2026-05-02T09:07:57.999Z</time></trkpt><trkpt lat="46.064480780331685" lon="11.628743616667496"><ele>839.0</ele><time>2026-05-02T09:07:58.999Z</time></trkpt><trkpt lat="46.06449705996359" lon="11.628605619917822"><ele>839.0</ele><time>2026-05-02T09:07:59.999Z</time></trkpt><trkpt lat="46.06451711239153" lon="11.62846842767247"><ele>839.0</ele><time>2026-05-02T09:08:00.999Z</time></trkpt><trkpt lat="46.06454514747161" lon="11.628333317589334"><ele>839.0</ele><time>2026-05-02T09:08:01.998Z</time></trkpt><trkpt lat="46.06457524677092" lon="11.628201738866942"><ele>836.6</ele><time>2026-05-02T09:08:02.998Z</time></trkpt><trkpt lat="46.064611952915925" lon="11.628073287496985"><ele>834.2</ele><time>2026-05-02T09:08:03.998Z</time></trkpt><trkpt lat="46.06466361126436" lon="11.627956160031243"><ele>831.8000000000001</ele><time>2026-05-02T09:08:04.998Z</time></trkpt><trkpt lat="46.06472561873418" lon="11.627837155356028"><ele>829.4000000000001</ele><time>2026-05-02T09:08:05.998Z</time></trkpt><trkpt lat="46.06480989307493" lon="11.627711754266715"><ele>827.0</ele><time>2026-05-02T09:08:06.998Z</time></trkpt><trkpt lat="46.06490307432797" lon="11.627580121283383"><ele>826.75</ele><time>2026-05-02T09:08:07.998Z</time></trkpt><trkpt lat="46.06499343350415" lon="11.627457593322402"><ele>826.5</ele><time>2026-05-02T09:08:08.998Z</time></trkpt><trkpt lat="46.065084155499896" lon="11.627336418770597"><ele>826.25</ele><time>2026-05-02T09:08:09.998Z</time></trkpt><trkpt lat="46.06517706561731" lon="11.62721926165835"><ele>826.0</ele><time>2026-05-02T09:08:10.998Z</time></trkpt><trkpt lat="46.06527075474738" lon="11.627100614469898"><ele>826.0</ele><time>2026-05-02T09:08:11.998Z</time></trkpt><trkpt lat="46.06536448090939" lon="11.62697816262185"><ele>826.0</ele><time>2026-05-02T09:08:12.998Z</time></trkpt><trkpt lat="46.065461242211924" lon="11.62686024911969"><ele>826.0</ele><time>2026-05-02T09:08:13.998Z</time></trkpt><trkpt lat="46.065552357679415" lon="11.62672813249772"><ele>826.0</ele><time>2026-05-02T09:08:14.998Z</time></trkpt><trkpt lat="46.065648238490155" lon="11.62660305192581"><ele>824.25</ele><time>2026-05-02T09:08:15.998Z</time></trkpt><trkpt lat="46.06575192644281" lon="11.626482096285857"><ele>822.5</ele><time>2026-05-02T09:08:16.998Z</time></trkpt><trkpt lat="46.06586049999996" lon="11.626373626066687"><ele>820.75</ele><time>2026-05-02T09:08:17.998Z</time></trkpt><trkpt lat="46.065980733215085" lon="11.626273569635451"><ele>819.0</ele><time>2026-05-02T09:08:18.998Z</time></trkpt><trkpt lat="46.06610494565225" lon="11.626181848602258"><ele>814.5</ele><time>2026-05-02T09:08:19.998Z</time></trkpt><trkpt lat="46.06622057514734" lon="11.626084764274326"><ele>810.0</ele><time>2026-05-02T09:08:20.998Z</time></trkpt><trkpt lat="46.06633298942272" lon="11.625990730730932"><ele>805.5</ele><time>2026-05-02T09:08:21.998Z</time></trkpt><trkpt lat="46.066444490413275" lon="11.625901000927156"><ele>801.0</ele><time>2026-05-02T09:08:22.998Z</time></trkpt><trkpt lat="46.06655696385607" lon="11.625830179950043"><ele>802.0</ele><time>2026-05-02T09:08:23.998Z</time></trkpt><trkpt lat="46.066679760641165" lon="11.625803783740166"><ele>803.0</ele><time>2026-05-02T09:08:24.998Z</time></trkpt><trkpt lat="46.066814745036446" lon="11.6258168106497"><ele>804.0</ele><time>2026-05-02T09:08:25.998Z</time></trkpt><trkpt lat="46.06693503496124" lon="11.625900977561198"><ele>805.0</ele><time>2026-05-02T09:08:26.998Z</time></trkpt><trkpt lat="46.06704236873725" lon="11.626023472521036"><ele>812.0</ele><time>2026-05-02T09:08:27.998Z</time></trkpt><trkpt lat="46.06716189721972" lon="11.626167094954456"><ele>819.0</ele><time>2026-05-02T09:08:28.998Z</time></trkpt><trkpt lat="46.067266761087986" lon="11.626338796604117"><ele>826.0</ele><time>2026-05-02T09:08:29.998Z</time></trkpt><trkpt lat="46.067377204210615" lon="11.626489558567433"><ele>826.5</ele><time>2026-05-02T09:08:30.998Z</time></trkpt><trkpt lat="46.06749103118885" lon="11.626624036032458"><ele>827.0</ele><time>2026-05-02T09:08:31.998Z</time></trkpt><trkpt lat="46.06759762781355" lon="11.626777662564262"><ele>827.5</ele><time>2026-05-02T09:08:32.998Z</time></trkpt><trkpt lat="46.06768073952679" lon="11.62693799076442"><ele>828.0</ele><time>2026-05-02T09:08:33.998Z</time></trkpt><trkpt lat="46.06773567343247" lon="11.627081884624813"><ele>828.0</ele><time>2026-05-02T09:08:34.998Z</time></trkpt><trkpt lat="46.06779527863632" lon="11.627197876068868"><ele>828.0</ele><time>2026-05-02T09:08:35.998Z</time></trkpt><trkpt lat="46.06787421142324" lon="11.627282411611986"><ele>828.0</ele><time>2026-05-02T09:08:36.998Z</time></trkpt><trkpt lat="46.067967834997" lon="11.627300051722976"><ele>828.0</ele><time>2026-05-02T09:08:38Z</time></trkpt><trkpt lat="46.06806705303476" lon="11.627251395446327"><ele>828.0</ele><time>2026-05-02T09:08:39Z</time></trkpt><trkpt lat="46.068150581591155" lon="11.627145250746555"><ele>828.0</ele><time>2026-05-02T09:08:40Z</time></trkpt><trkpt lat="46.068200194904854" lon="11.626987916976201"><ele>828.0</ele><time>2026-05-02T09:08:41Z</time></trkpt><trkpt lat="46.068256812393805" lon="11.62679586725726"><ele>828.0</ele><time>2026-05-02T09:08:42Z</time></trkpt><trkpt lat="46.06832441177546" lon="11.62662817945915"><ele>828.0</ele><time>2026-05-02T09:08:43Z</time></trkpt><trkpt lat="46.06838202083685" lon="11.626478543810165"><ele>819.8</ele><time>2026-05-02T09:08:44Z</time></trkpt><trkpt lat="46.06843395252293" lon="11.626346503718368"><ele>811.5999999999999</ele><time>2026-05-02T09:08:45Z</time></trkpt><trkpt lat="46.06848386459905" lon="11.62622234032519"><ele>803.4000000000001</ele><time>2026-05-02T09:08:46Z</time></trkpt><trkpt lat="46.06852637889201" lon="11.626103197385895"><ele>795.2</ele><time>2026-05-02T09:08:47Z</time></trkpt><trkpt lat="46.06856455494706" lon="11.625989116377236"><ele>787.0</ele><time>2026-05-02T09:08:48Z</time></trkpt><trkpt lat="46.0686017365927" lon="11.625881110447098"><ele>786.4999999999999</ele><time>2026-05-02T09:08:49Z</time></trkpt><trkpt lat="46.06864465592975" lon="11.625776442173448"><ele>786.0</ele><time>2026-05-02T09:08:50Z</time></trkpt><trkpt lat="46.06867783212844" lon="11.625687256146232"><ele>785.5</ele><time>2026-05-02T09:08:51Z</time></trkpt><trkpt lat="46.06872493645357" lon="11.625544141668808"><ele>785.0</ele><time>2026-05-02T09:08:53Z</time></trkpt><trkpt lat="46.06874832639531" lon="11.625430394451076"><ele>784.4999999999999</ele><time>2026-05-02T09:08:55Z</time></trkpt><trkpt lat="46.06870469635762" lon="11.625341333078032"><ele>784.0</ele><time>2026-05-02T09:08:58Z</time></trkpt><trkpt lat="46.06870727367993" lon="11.62543585510266"><ele>784.0</ele><time>2026-05-02T09:12:09.999Z</time></trkpt><trkpt lat="46.068683048921024" lon="11.625530383324161"><ele>784.0</ele><time>2026-05-02T09:17:01Z</time></trkpt><trkpt lat="46.068611718567766" lon="11.625531877155572"><ele>784.0</ele><time>2026-05-02T09:17:07Z</time></trkpt><trkpt lat="46.06862438307618" lon="11.625433058950694"><ele>784.0</ele><time>2026-05-02T09:25:06.998Z</time></trkpt></trkseg><trkseg><trkpt lat="46.068695665537426" lon="11.625402284022185"><ele>783.9999999999999</ele><time>2026-05-02T10:15:36.999Z</time></trkpt><trkpt lat="46.06867791377062" lon="11.625518195250754"><ele>784.0</ele><time>2026-05-02T10:15:38.999Z</time></trkpt><trkpt lat="46.06864305831705" lon="11.625616064656965"><ele>784.0</ele><time>2026-05-02T10:15:40.999Z</time></trkpt><trkpt lat="46.06861128510285" lon="11.625784784529662"><ele>784.0</ele><time>2026-05-02T10:15:43.998Z</time></trkpt><trkpt lat="46.06858503249039" lon="11.625881475018847"><ele>783.9999999999999</ele><time>2026-05-02T10:15:44.998Z</time></trkpt><trkpt lat="46.06854997648249" lon="11.625964370839792"><ele>784.0</ele><time>2026-05-02T10:15:45.998Z</time></trkpt><trkpt lat="46.06851392487032" lon="11.626052473775843"><ele>784.6</ele><time>2026-05-02T10:15:46.998Z</time></trkpt><trkpt lat="46.068476856465615" lon="11.626150106926318"><ele>785.2</ele><time>2026-05-02T10:15:47.998Z</time></trkpt><trkpt lat="46.06844070468732" lon="11.626243659629079"><ele>785.8000000000001</ele><time>2026-05-02T10:15:48.998Z</time></trkpt><trkpt lat="46.06839992752032" lon="11.626351655493266"><ele>786.4000000000001</ele><time>2026-05-02T10:15:49.998Z</time></trkpt><trkpt lat="46.06835332069175" lon="11.626484279074678"><ele>787.0</ele><time>2026-05-02T10:15:50.998Z</time></trkpt><trkpt lat="46.068300742293985" lon="11.626625544393207"><ele>790.0</ele><time>2026-05-02T10:15:51.998Z</time></trkpt><trkpt lat="46.068245102528905" lon="11.626773949180112"><ele>793.0</ele><time>2026-05-02T10:15:52.998Z</time></trkpt><trkpt lat="46.06819068308065" lon="11.626918184022408"><ele>796.0</ele><time>2026-05-02T10:15:53.998Z</time></trkpt><trkpt lat="46.06813864475304" lon="11.627050184123211"><ele>799.0</ele><time>2026-05-02T10:15:54.998Z</time></trkpt><trkpt lat="46.06808975214116" lon="11.627151541332152"><ele>802.0</ele><time>2026-05-02T10:15:55.998Z</time></trkpt><trkpt lat="46.06801707948097" lon="11.627225801964292"><ele>802.0</ele><time>2026-05-02T10:15:56.998Z</time></trkpt><trkpt lat="46.067921472303524" lon="11.627253532277244"><ele>802.0</ele><time>2026-05-02T10:15:57.998Z</time></trkpt><trkpt lat="46.06783616384023" lon="11.627192738160595"><ele>802.0</ele><time>2026-05-02T10:15:58.998Z</time></trkpt><trkpt lat="46.06776119780502" lon="11.627062173928854"><ele>802.0</ele><time>2026-05-02T10:15:59.998Z</time></trkpt><trkpt lat="46.06767927536604" lon="11.62688913827586"><ele>802.0</ele><time>2026-05-02T10:16:00.998Z</time></trkpt><trkpt lat="46.06758632478534" lon="11.626708155599514"><ele>802.0</ele><time>2026-05-02T10:16:01.998Z</time></trkpt><trkpt lat="46.06747261872625" lon="11.626542508963382"><ele>802.0</ele><time>2026-05-02T10:16:02.998Z</time></trkpt><trkpt lat="46.06735121948901" lon="11.626391074373155"><ele>802.75</ele><time>2026-05-02T10:16:03.998Z</time></trkpt><trkpt lat="46.067232634954735" lon="11.626240932858412"><ele>803.5</ele><time>2026-05-02T10:16:04.998Z</time></trkpt><trkpt lat="46.06713102204577" lon="11.626105038924088"><ele>804.25</ele><time>2026-05-02T10:16:05.998Z</time></trkpt><trkpt lat="46.06704850612994" lon="11.62599499602278"><ele>805.0</ele><time>2026-05-02T10:16:06.998Z</time></trkpt><trkpt lat="46.06697508900778" lon="11.625901333193575"><ele>805.0</ele><time>2026-05-02T10:16:07.998Z</time></trkpt><trkpt lat="46.06687879789964" lon="11.625819942321241"><ele>805.0</ele><time>2026-05-02T10:16:08.998Z</time></trkpt><trkpt lat="46.06674676177249" lon="11.625768846135253"><ele>805.0</ele><time>2026-05-02T10:16:09.998Z</time></trkpt><trkpt lat="46.06659779655456" lon="11.625770653279089"><ele>805.0</ele><time>2026-05-02T10:16:10.998Z</time></trkpt><trkpt lat="46.066440779389055" lon="11.625841114055952"><ele>803.6666666666666</ele><time>2026-05-02T10:16:11.998Z</time></trkpt><trkpt lat="46.066284871586284" lon="11.625976282640355"><ele>802.3333333333333</ele><time>2026-05-02T10:16:12.998Z</time></trkpt><trkpt lat="46.06612754716283" lon="11.626120142184046"><ele>801.0</ele><time>2026-05-02T10:16:13.998Z</time></trkpt><trkpt lat="46.06596270674521" lon="11.626252402590735"><ele>803.5</ele><time>2026-05-02T10:16:14.998Z</time></trkpt><trkpt lat="46.06582693509905" lon="11.626366605031329"><ele>806.0</ele><time>2026-05-02T10:16:15.998Z</time></trkpt><trkpt lat="46.06571571084233" lon="11.626475670288775"><ele>808.5</ele><time>2026-05-02T10:16:16.998Z</time></trkpt><trkpt lat="46.06562773541546" lon="11.626580022997144"><ele>811.0</ele><time>2026-05-02T10:16:17.998Z</time></trkpt><trkpt lat="46.06555149058347" lon="11.626679141349195"><ele>811.0</ele><time>2026-05-02T10:16:18.998Z</time></trkpt><trkpt lat="46.06547735741466" lon="11.626778033186772"><ele>811.0</ele><time>2026-05-02T10:16:19.998Z</time></trkpt><trkpt lat="46.065397261875106" lon="11.626883431746919"><ele>811.0</ele><time>2026-05-02T10:16:20.998Z</time></trkpt><trkpt lat="46.06531673934463" lon="11.626986986196977"><ele>811.0</ele><time>2026-05-02T10:16:21.998Z</time></trkpt><trkpt lat="46.06522348154444" lon="11.627100412303443"><ele>811.0</ele><time>2026-05-02T10:16:22.998Z</time></trkpt><trkpt lat="46.065123229475894" lon="11.62723121462079"><ele>811.5999999999999</ele><time>2026-05-02T10:16:23.998Z</time></trkpt><trkpt lat="46.06503486909733" lon="11.627350997990899"><ele>812.2</ele><time>2026-05-02T10:16:24.998Z</time></trkpt><trkpt lat="46.06496722216454" lon="11.627444186852037"><ele>812.8</ele><time>2026-05-02T10:16:25.998Z</time></trkpt><trkpt lat="46.06491172404443" lon="11.627518763667299"><ele>813.4000000000001</ele><time>2026-05-02T10:16:26.997Z</time></trkpt><trkpt lat="46.064847951341584" lon="11.627609192047522"><ele>814.0</ele><time>2026-05-02T10:16:27.997Z</time></trkpt><trkpt lat="46.06477190331529" lon="11.627723587704644"><ele>817.25</ele><time>2026-05-02T10:16:29Z</time></trkpt><trkpt lat="46.06469138765478" lon="11.627847138627466"><ele>820.5</ele><time>2026-05-02T10:16:30Z</time></trkpt><trkpt lat="46.06461292325493" lon="11.627977063751205"><ele>823.75</ele><time>2026-05-02T10:16:31Z</time></trkpt><trkpt lat="46.06455351098881" lon="11.628129538133908"><ele>827.0</ele><time>2026-05-02T10:16:32Z</time></trkpt><trkpt lat="46.064509245035545" lon="11.628292164709839"><ele>827.0</ele><time>2026-05-02T10:16:33Z</time></trkpt><trkpt lat="46.06447843225062" lon="11.628462519987842"><ele>827.0</ele><time>2026-05-02T10:16:34Z</time></trkpt><trkpt lat="46.064459274028756" lon="11.628642021737656"><ele>827.0</ele><time>2026-05-02T10:16:35Z</time></trkpt><trkpt lat="46.06443433121407" lon="11.62881493755022"><ele>827.0</ele><time>2026-05-02T10:16:36Z</time></trkpt><trkpt lat="46.0644061297541" lon="11.628981912142326"><ele>829.0000000000001</ele><time>2026-05-02T10:16:37Z</time></trkpt><trkpt lat="46.06438775591089" lon="11.62913821050909"><ele>831.0</ele><time>2026-05-02T10:16:38Z</time></trkpt><trkpt lat="46.0643463361098" lon="11.629263959971919"><ele>833.0</ele><time>2026-05-02T10:16:39Z</time></trkpt><trkpt lat="46.06431575421115" lon="11.629367191383489"><ele>835.0</ele><time>2026-05-02T10:16:40Z</time></trkpt><trkpt lat="46.064296131913736" lon="11.629465996264981"><ele>837.0000000000001</ele><time>2026-05-02T10:16:41Z</time></trkpt><trkpt lat="46.06427709867663" lon="11.629564258891481"><ele>839.0</ele><time>2026-05-02T10:16:42Z</time></trkpt><trkpt lat="46.06426238610205" lon="11.629669351719743"><ele>840.4000000000001</ele><time>2026-05-02T10:16:43Z</time></trkpt><trkpt lat="46.064254347409346" lon="11.629764729884958"><ele>841.8</ele><time>2026-05-02T10:16:44Z</time></trkpt><trkpt lat="46.06431283560217" lon="11.629834689850231"><ele>843.2</ele><time>2026-05-02T10:16:45Z</time></trkpt><trkpt lat="46.06445241932571" lon="11.629823525796064"><ele>844.5999999999999</ele><time>2026-05-02T10:16:47Z</time></trkpt><trkpt lat="46.06451184538611" lon="11.62967939761371"><ele>846.0</ele><time>2026-05-02T10:16:48Z</time></trkpt><trkpt lat="46.06451366413912" lon="11.629494214205415"><ele>844.5999999999999</ele><time>2026-05-02T10:16:49Z</time></trkpt><trkpt lat="46.06454388228862" lon="11.62934316668019"><ele>843.2</ele><time>2026-05-02T10:16:50Z</time></trkpt><trkpt lat="46.06460049246636" lon="11.629262701955124"><ele>841.8</ele><time>2026-05-02T10:16:51Z</time></trkpt><trkpt lat="46.06467186460296" lon="11.62917950334712"><ele>840.4000000000001</ele><time>2026-05-02T10:16:52Z</time></trkpt><trkpt lat="46.064752380523984" lon="11.629062688255209"><ele>839.0</ele><time>2026-05-02T10:16:53Z</time></trkpt><trkpt lat="46.064879207679965" lon="11.62894433423791"><ele>839.25</ele><time>2026-05-02T10:16:54Z</time></trkpt><trkpt lat="46.06499485992369" lon="11.628801189421793"><ele>839.5</ele><time>2026-05-02T10:16:55Z</time></trkpt><trkpt lat="46.065082798414586" lon="11.62866709303178"><ele>839.75</ele><time>2026-05-02T10:16:56Z</time></trkpt><trkpt lat="46.065141922881104" lon="11.628530894322052"><ele>840.0</ele><time>2026-05-02T10:16:57Z</time></trkpt><trkpt lat="46.06518226461451" lon="11.628366291014386"><ele>840.0</ele><time>2026-05-02T10:16:58Z</time></trkpt><trkpt lat="46.06522947093099" lon="11.6282651892183"><ele>840.0</ele><time>2026-05-02T10:16:59Z</time></trkpt><trkpt lat="46.06535814168468" lon="11.628251549790793"><ele>840.0</ele><time>2026-05-02T10:17:00.999Z</time></trkpt><trkpt lat="46.06539796461885" lon="11.62832440949057"><ele>840.0</ele><time>2026-05-02T10:17:01.999Z</time></trkpt><trkpt lat="46.065433678546036" lon="11.628416441719656"><ele>840.0</ele><time>2026-05-02T10:17:02.999Z</time></trkpt><trkpt lat="46.06541560623313" lon="11.628535050849214"><ele>840.0</ele><time>2026-05-02T10:17:03.999Z</time></trkpt><trkpt lat="46.0653502364515" lon="11.628621896936542"><ele>843.25</ele><time>2026-05-02T10:17:04.999Z</time></trkpt><trkpt lat="46.06524483794136" lon="11.628645287618754"><ele>846.5</ele><time>2026-05-02T10:17:05.999Z</time></trkpt><trkpt lat="46.06515299239918" lon="11.628733781563957"><ele>849.75</ele><time>2026-05-02T10:17:06.999Z</time></trkpt><trkpt lat="46.06507079234959" lon="11.62883686354671"><ele>853.0</ele><time>2026-05-02T10:17:07.999Z</time></trkpt><trkpt lat="46.06502909643049" lon="11.629009304868573"><ele>853.0</ele><time>2026-05-02T10:17:08.999Z</time></trkpt><trkpt lat="46.065005111880545" lon="11.629238961533853"><ele>853.0</ele><time>2026-05-02T10:17:09.999Z</time></trkpt><trkpt lat="46.064960808509866" lon="11.62945609084306"><ele>853.0</ele><time>2026-05-02T10:17:10.999Z</time></trkpt><trkpt lat="46.06490306393253" lon="11.629642066356185"><ele>852.5</ele><time>2026-05-02T10:17:11.999Z</time></trkpt><trkpt lat="46.06485005670318" lon="11.62981098771713"><ele>852.0</ele><time>2026-05-02T10:17:12.999Z</time></trkpt><trkpt lat="46.064802875658785" lon="11.6299827789428"><ele>851.5</ele><time>2026-05-02T10:17:13.999Z</time></trkpt><trkpt lat="46.06476455428354" lon="11.63015215172689"><ele>851.0</ele><time>2026-05-02T10:17:14.999Z</time></trkpt><trkpt lat="46.06473230377987" lon="11.630321818767497"><ele>851.0</ele><time>2026-05-02T10:17:15.999Z</time></trkpt><trkpt lat="46.06470407758482" lon="11.630486308281855"><ele>851.0</ele><time>2026-05-02T10:17:16.999Z</time></trkpt><trkpt lat="46.06468290516968" lon="11.630659352506289"><ele>851.0</ele><time>2026-05-02T10:17:17.999Z</time></trkpt><trkpt lat="46.06465972786467" lon="11.630836367018285"><ele>851.0</ele><time>2026-05-02T10:17:18.999Z</time></trkpt><trkpt lat="46.0646228580375" lon="11.630990069478937"><ele>851.0</ele><time>2026-05-02T10:17:19.999Z</time></trkpt><trkpt lat="46.06460842229773" lon="11.631118252238707"><ele>851.0</ele><time>2026-05-02T10:17:20.999Z</time></trkpt><trkpt lat="46.064597579895235" lon="11.631236894838972"><ele>851.0</ele><time>2026-05-02T10:17:21.999Z</time></trkpt><trkpt lat="46.064582789850746" lon="11.631362844399035"><ele>851.0</ele><time>2026-05-02T10:17:22.999Z</time></trkpt><trkpt lat="46.06456480239305" lon="11.631495991590393"><ele>851.0</ele><time>2026-05-02T10:17:23.999Z</time></trkpt><trkpt lat="46.06454655114172" lon="11.631628967832459"><ele>851.8333333333334</ele><time>2026-05-02T10:17:24.999Z</time></trkpt><trkpt lat="46.06453010350798" lon="11.631733158386513"><ele>852.6666666666667</ele><time>2026-05-02T10:17:25.999Z</time></trkpt><trkpt lat="46.06450347599128" lon="11.631893602511125"><ele>853.5</ele><time>2026-05-02T10:17:27.999Z</time></trkpt><trkpt lat="46.06447046637072" lon="11.63202006267966"><ele>854.3333333333333</ele><time>2026-05-02T10:17:29.999Z</time></trkpt><trkpt lat="46.06446426426093" lon="11.632137427330301"><ele>855.1666666666666</ele><time>2026-05-02T10:17:31.999Z</time></trkpt><trkpt lat="46.06445401400267" lon="11.632247244469985"><ele>856.0</ele><time>2026-05-02T10:17:33.999Z</time></trkpt><trkpt lat="46.06444986422271" lon="11.632373011542336"><ele>856.9999999999999</ele><time>2026-05-02T10:17:35.999Z</time></trkpt><trkpt lat="46.06446804004764" lon="11.63249477293806"><ele>858.0</ele><time>2026-05-02T10:17:37.999Z</time></trkpt><trkpt lat="46.0644962664934" lon="11.632593772568347"><ele>859.0</ele><time>2026-05-02T10:17:39.999Z</time></trkpt><trkpt lat="46.064529700639234" lon="11.632682511341573"><ele>860.0</ele><time>2026-05-02T10:17:41.999Z</time></trkpt><trkpt lat="46.06458283813778" lon="11.632815496836553"><ele>860.9999999999999</ele><time>2026-05-02T10:18:00.998Z</time></trkpt><trkpt lat="46.064617860317654" lon="11.63290386666518"><ele>862.0</ele><time>2026-05-02T10:18:01.998Z</time></trkpt><trkpt lat="46.06465108950233" lon="11.632986205626302"><ele>862.4999999999999</ele><time>2026-05-02T10:18:02.998Z</time></trkpt><trkpt lat="46.064729352230174" lon="11.633112348613896"><ele>863.0</ele><time>2026-05-02T10:18:04.998Z</time></trkpt><trkpt lat="46.06478533100722" lon="11.633174542259741"><ele>863.5</ele><time>2026-05-02T10:18:05.998Z</time></trkpt><trkpt lat="46.064846819866624" lon="11.633234575789588"><ele>864.0</ele><time>2026-05-02T10:18:06.998Z</time></trkpt><trkpt lat="46.064902545842756" lon="11.633280145415448"><ele>864.4999999999999</ele><time>2026-05-02T10:18:07.998Z</time></trkpt><trkpt lat="46.06496120111212" lon="11.633324638911844"><ele>865.0</ele><time>2026-05-02T10:18:08.998Z</time></trkpt><trkpt lat="46.06505073983013" lon="11.633316786839695"><ele>866.0</ele><time>2026-05-02T10:18:09.998Z</time></trkpt><trkpt lat="46.065111950896345" lon="11.633395841759926"><ele>867.0</ele><time>2026-05-02T10:18:10.998Z</time></trkpt><trkpt lat="46.065187161647955" lon="11.633476391909936"><ele>868.0</ele><time>2026-05-02T10:18:11.998Z</time></trkpt><trkpt lat="46.06526602981884" lon="11.633536352406951"><ele>869.0</ele><time>2026-05-02T10:18:12.998Z</time></trkpt><trkpt lat="46.06534141767939" lon="11.63358631499841"><ele>870.0</ele><time>2026-05-02T10:18:13.998Z</time></trkpt><trkpt lat="46.06541590026859" lon="11.633724710988654"><ele>871.3333333333334</ele><time>2026-05-02T10:18:15.998Z</time></trkpt><trkpt lat="46.06547593673397" lon="11.633873546719519"><ele>872.6666666666667</ele><time>2026-05-02T10:18:17.998Z</time></trkpt><trkpt lat="46.06553798740022" lon="11.633930270801216"><ele>874.0</ele><time>2026-05-02T10:18:18.998Z</time></trkpt><trkpt lat="46.0656068206056" lon="11.633994957067122"><ele>875.3333333333334</ele><time>2026-05-02T10:18:19.998Z</time></trkpt><trkpt lat="46.0656719771651" lon="11.634036879387459"><ele>876.6666666666667</ele><time>2026-05-02T10:18:20.998Z</time></trkpt><trkpt lat="46.06571949139592" lon="11.63411329397942"><ele>878.0</ele><time>2026-05-02T10:18:21.998Z</time></trkpt><trkpt lat="46.06577569208281" lon="11.634180000201543"><ele>877.5</ele><time>2026-05-02T10:18:22.998Z</time></trkpt><trkpt lat="46.0658441628488" lon="11.634276243373968"><ele>877.0</ele><time>2026-05-02T10:18:23.998Z</time></trkpt><trkpt lat="46.06593161050135" lon="11.634374060419294"><ele>876.5</ele><time>2026-05-02T10:18:24.998Z</time></trkpt><trkpt lat="46.06600480233037" lon="11.634508670472474"><ele>876.0</ele><time>2026-05-02T10:18:25.998Z</time></trkpt><trkpt lat="46.066084744958005" lon="11.634646846158246"><ele>876.0</ele><time>2026-05-02T10:18:26.998Z</time></trkpt><trkpt lat="46.06617242463451" lon="11.634792445232808"><ele>876.0</ele><time>2026-05-02T10:18:27.998Z</time></trkpt><trkpt lat="46.06623876667892" lon="11.634953183777377"><ele>876.0</ele><time>2026-05-02T10:18:28.998Z</time></trkpt><trkpt lat="46.06629488246058" lon="11.635136310084238"><ele>876.0</ele><time>2026-05-02T10:18:29.998Z</time></trkpt><trkpt lat="46.066344834290405" lon="11.635389971784626"><ele>884.6666666666667</ele><time>2026-05-02T10:18:30.998Z</time></trkpt><trkpt lat="46.06640366952014" lon="11.635688191412783"><ele>893.3333333333334</ele><time>2026-05-02T10:18:31.997Z</time></trkpt><trkpt lat="46.06646475200417" lon="11.635964555426296"><ele>902.0</ele><time>2026-05-02T10:18:32.997Z</time></trkpt><trkpt lat="46.06652964047988" lon="11.636218900670416"><ele>897.0</ele><time>2026-05-02T10:18:33.997Z</time></trkpt><trkpt lat="46.066597216844926" lon="11.636471776124345"><ele>892.0</ele><time>2026-05-02T10:18:35Z</time></trkpt><trkpt lat="46.066666630997084" lon="11.636724609117442"><ele>887.0</ele><time>2026-05-02T10:18:36Z</time></trkpt><trkpt lat="46.06674859801709" lon="11.636983606105387"><ele>887.0</ele><time>2026-05-02T10:18:37Z</time></trkpt><trkpt lat="46.066835201940606" lon="11.637252402882936"><ele>887.0</ele><time>2026-05-02T10:18:38Z</time></trkpt><trkpt lat="46.0668822613431" lon="11.637541182824096"><ele>887.0</ele><time>2026-05-02T10:18:39Z</time></trkpt><trkpt lat="46.06695931701564" lon="11.637827643793317"><ele>893.3333333333334</ele><time>2026-05-02T10:18:40Z</time></trkpt><trkpt lat="46.06700797039443" lon="11.638085017973259"><ele>899.6666666666667</ele><time>2026-05-02T10:18:41Z</time></trkpt><trkpt lat="46.067055324105254" lon="11.638312753103442"><ele>906.0</ele><time>2026-05-02T10:18:42Z</time></trkpt><trkpt lat="46.06709602512221" lon="11.638520528865795"><ele>910.5</ele><time>2026-05-02T10:18:43Z</time></trkpt><trkpt lat="46.067138467835626" lon="11.638710768635285"><ele>915.0</ele><time>2026-05-02T10:18:44Z</time></trkpt><trkpt lat="46.06717938448095" lon="11.638893015668517"><ele>919.5</ele><time>2026-05-02T10:18:45Z</time></trkpt><trkpt lat="46.06722147082224" lon="11.639088253263708"><ele>924.0</ele><time>2026-05-02T10:18:46Z</time></trkpt><trkpt lat="46.067263819270835" lon="11.63928555465022"><ele>927.75</ele><time>2026-05-02T10:18:47Z</time></trkpt><trkpt lat="46.06730579427326" lon="11.639473286501092"><ele>931.5</ele><time>2026-05-02T10:18:48Z</time></trkpt><trkpt lat="46.06734467736053" lon="11.639659064350052"><ele>935.25</ele><time>2026-05-02T10:18:49Z</time></trkpt><trkpt lat="46.06736455677115" lon="11.639846999392024"><ele>939.0</ele><time>2026-05-02T10:18:50Z</time></trkpt><trkpt lat="46.067397341492885" lon="11.640024338349813"><ele>939.0</ele><time>2026-05-02T10:18:51Z</time></trkpt><trkpt lat="46.067433174627816" lon="11.640213847560423"><ele>939.0</ele><time>2026-05-02T10:18:52Z</time></trkpt><trkpt lat="46.067471524768536" lon="11.640407977316672"><ele>939.0</ele><time>2026-05-02T10:18:53Z</time></trkpt><trkpt lat="46.067509371982815" lon="11.640606007475517"><ele>939.0</ele><time>2026-05-02T10:18:54Z</time></trkpt><trkpt lat="46.06754210893465" lon="11.640783105200015"><ele>925.25</ele><time>2026-05-02T10:18:55Z</time></trkpt><trkpt lat="46.06754435359314" lon="11.640945786962634"><ele>911.5</ele><time>2026-05-02T10:18:56Z</time></trkpt><trkpt lat="46.06754419258009" lon="11.641100618661822"><ele>897.75</ele><time>2026-05-02T10:18:57Z</time></trkpt><trkpt lat="46.06754151801651" lon="11.641271093042155"><ele>884.0</ele><time>2026-05-02T10:18:58Z</time></trkpt><trkpt lat="46.06755841801507" lon="11.641448887334226"><ele>884.0</ele><time>2026-05-02T10:18:59Z</time></trkpt><trkpt lat="46.06755863898411" lon="11.64163470755418"><ele>884.0</ele><time>2026-05-02T10:19:00Z</time></trkpt><trkpt lat="46.06756359070191" lon="11.641828031008393"><ele>884.0</ele><time>2026-05-02T10:19:00.999Z</time></trkpt><trkpt lat="46.06758156408817" lon="11.642027169500844"><ele>884.0</ele><time>2026-05-02T10:19:01.999Z</time></trkpt><trkpt lat="46.06761931276077" lon="11.642257466179627"><ele>884.5</ele><time>2026-05-02T10:19:02.999Z</time></trkpt><trkpt lat="46.06766080019328" lon="11.642475268128077"><ele>885.0</ele><time>2026-05-02T10:19:03.999Z</time></trkpt><trkpt lat="46.067673748855206" lon="11.642671437537329"><ele>885.5</ele><time>2026-05-02T10:19:04.999Z</time></trkpt><trkpt lat="46.06767329261653" lon="11.642857514465009"><ele>886.0</ele><time>2026-05-02T10:19:05.999Z</time></trkpt><trkpt lat="46.06766712478993" lon="11.643060173738847"><ele>886.6666666666666</ele><time>2026-05-02T10:19:06.999Z</time></trkpt><trkpt lat="46.06767130573357" lon="11.643284498810369"><ele>887.3333333333333</ele><time>2026-05-02T10:19:07.999Z</time></trkpt><trkpt lat="46.06769092049597" lon="11.643513908106423"><ele>888.0</ele><time>2026-05-02T10:19:08.999Z</time></trkpt><trkpt lat="46.067727954255055" lon="11.643755670991101"><ele>889.6666666666667</ele><time>2026-05-02T10:19:09.999Z</time></trkpt><trkpt lat="46.06776767359561" lon="11.64400585980397"><ele>891.3333333333334</ele><time>2026-05-02T10:19:10.999Z</time></trkpt><trkpt lat="46.06781263993919" lon="11.644271745598932"><ele>893.0</ele><time>2026-05-02T10:19:11.999Z</time></trkpt><trkpt lat="46.06785406248009" lon="11.644496147532545"><ele>894.4</ele><time>2026-05-02T10:19:12.999Z</time></trkpt><trkpt lat="46.067878847519246" lon="11.644660319118403"><ele>895.8</ele><time>2026-05-02T10:19:13.999Z</time></trkpt><trkpt lat="46.06790400118509" lon="11.64479457580137"><ele>897.2</ele><time>2026-05-02T10:19:14.999Z</time></trkpt><trkpt lat="46.067934768994704" lon="11.644914778480317"><ele>898.6</ele><time>2026-05-02T10:19:15.999Z</time></trkpt><trkpt lat="46.06797447340896" lon="11.645022092161206"><ele>900.0</ele><time>2026-05-02T10:19:16.999Z</time></trkpt><trkpt lat="46.068015528829555" lon="11.645122209811039"><ele>900.0</ele><time>2026-05-02T10:19:17.999Z</time></trkpt><trkpt lat="46.06804459470543" lon="11.645214895338833"><ele>900.0</ele><time>2026-05-02T10:19:18.999Z</time></trkpt><trkpt lat="46.06807440163435" lon="11.645305052504597"><ele>900.0</ele><time>2026-05-02T10:19:19.999Z</time></trkpt><trkpt lat="46.06810627576708" lon="11.645386289296146"><ele>900.0</ele><time>2026-05-02T10:19:20.999Z</time></trkpt><trkpt lat="46.06815666353543" lon="11.645537570963091"><ele>900.0</ele><time>2026-05-02T10:19:22.999Z</time></trkpt><trkpt lat="46.068198385631135" lon="11.64565818914148"><ele>900.0</ele><time>2026-05-02T10:19:24.999Z</time></trkpt><trkpt lat="46.06823697153067" lon="11.645741836220203"><ele>900.0</ele><time>2026-05-02T10:19:27.999Z</time></trkpt><trkpt lat="46.068212309299206" lon="11.645655583533008"><ele>900.0</ele><time>2026-05-02T10:19:29.999Z</time></trkpt><trkpt lat="46.06823606127074" lon="11.645547387752048"><ele>900.0</ele><time>2026-05-02T10:19:30.999Z</time></trkpt><trkpt lat="46.0681891543376" lon="11.645476091749021"><ele>900.0</ele><time>2026-05-02T10:19:31.999Z</time></trkpt><trkpt lat="46.06813847693349" lon="11.645389894403454"><ele>900.0</ele><time>2026-05-02T10:19:32.999Z</time></trkpt><trkpt lat="46.06808045042693" lon="11.645261251389528"><ele>900.0</ele><time>2026-05-02T10:19:33.999Z</time></trkpt><trkpt lat="46.06803153837374" lon="11.645123017863591"><ele>900.0</ele><time>2026-05-02T10:19:34.999Z</time></trkpt><trkpt lat="46.06799346424767" lon="11.644991341649774"><ele>900.0</ele><time>2026-05-02T10:19:35.999Z</time></trkpt><trkpt lat="46.067949977495594" lon="11.644852137249002"><ele>900.0</ele><time>2026-05-02T10:19:36.999Z</time></trkpt><trkpt lat="46.067904841378684" lon="11.644692593905987"><ele>900.0</ele><time>2026-05-02T10:19:37.999Z</time></trkpt><trkpt lat="46.06788406459944" lon="11.644504753233454"><ele>898.25</ele><time>2026-05-02T10:19:38.999Z</time></trkpt><trkpt lat="46.067841003932806" lon="11.644314373724495"><ele>896.5</ele><time>2026-05-02T10:19:39.999Z</time></trkpt><trkpt lat="46.06781375958538" lon="11.644117250271929"><ele>894.75</ele><time>2026-05-02T10:19:40.999Z</time></trkpt><trkpt lat="46.06778881631085" lon="11.64393711274571"><ele>893.0</ele><time>2026-05-02T10:19:41.999Z</time></trkpt><trkpt lat="46.06776148850251" lon="11.64374989747137"><ele>891.75</ele><time>2026-05-02T10:19:42.999Z</time></trkpt><trkpt lat="46.067737095372614" lon="11.643566849345355"><ele>890.5</ele><time>2026-05-02T10:19:43.999Z</time></trkpt><trkpt lat="46.067705588693464" lon="11.643412096874764"><ele>889.25</ele><time>2026-05-02T10:19:44.999Z</time></trkpt><trkpt lat="46.067683997584616" lon="11.643251480091429"><ele>888.0</ele><time>2026-05-02T10:19:45.999Z</time></trkpt><trkpt lat="46.06768127592121" lon="11.643039941802012"><ele>887.3333333333333</ele><time>2026-05-02T10:19:46.999Z</time></trkpt><trkpt lat="46.067688521057114" lon="11.642780828424177"><ele>886.6666666666666</ele><time>2026-05-02T10:19:47.999Z</time></trkpt><trkpt lat="46.06768141160942" lon="11.642489042444264"><ele>886.0</ele><time>2026-05-02T10:19:48.999Z</time></trkpt><trkpt lat="46.06762773399302" lon="11.642216487137155"><ele>886.0</ele><time>2026-05-02T10:19:49.998Z</time></trkpt><trkpt lat="46.06759487354985" lon="11.641976000524535"><ele>886.0</ele><time>2026-05-02T10:19:50.998Z</time></trkpt><trkpt lat="46.06757043384456" lon="11.641762184535365"><ele>886.0</ele><time>2026-05-02T10:19:51.998Z</time></trkpt><trkpt lat="46.06756062888956" lon="11.64157123787352"><ele>885.5999999999999</ele><time>2026-05-02T10:19:52.998Z</time></trkpt><trkpt lat="46.06757295301858" lon="11.641389424831072"><ele>885.1999999999999</ele><time>2026-05-02T10:19:53.998Z</time></trkpt><trkpt lat="46.06756285674881" lon="11.641230920605596"><ele>884.8000000000001</ele><time>2026-05-02T10:19:54.998Z</time></trkpt><trkpt lat="46.06756755680533" lon="11.641077371749548"><ele>884.4000000000001</ele><time>2026-05-02T10:19:55.998Z</time></trkpt><trkpt lat="46.06757604316948" lon="11.640939434387919"><ele>884.0</ele><time>2026-05-02T10:19:56.998Z</time></trkpt><trkpt lat="46.067567767937426" lon="11.64083847927689"><ele>884.0</ele><time>2026-05-02T10:19:57.998Z</time></trkpt><trkpt lat="46.06759723752609" lon="11.64102712931891"><ele>884.0</ele><time>2026-05-02T10:20:04.998Z</time></trkpt><trkpt lat="46.06762640086964" lon="11.641190582514435"><ele>884.0</ele><time>2026-05-02T10:20:05.998Z</time></trkpt><trkpt lat="46.067618518611766" lon="11.641360247974974"><ele>884.0</ele><time>2026-05-02T10:20:06.998Z</time></trkpt><trkpt lat="46.067628039921864" lon="11.641533398916172"><ele>884.0</ele><time>2026-05-02T10:20:07.998Z</time></trkpt><trkpt lat="46.06765063747969" lon="11.64170617257895"><ele>884.0</ele><time>2026-05-02T10:20:08.998Z</time></trkpt><trkpt lat="46.06768394562724" lon="11.641864181613757"><ele>884.0</ele><time>2026-05-02T10:20:09.998Z</time></trkpt><trkpt lat="46.06772731685248" lon="11.642015747204233"><ele>884.0</ele><time>2026-05-02T10:20:10.998Z</time></trkpt><trkpt lat="46.067770412145904" lon="11.642159064076443"><ele>884.4000000000001</ele><time>2026-05-02T10:20:11.998Z</time></trkpt><trkpt lat="46.06781164137191" lon="11.642293455581775"><ele>884.8000000000001</ele><time>2026-05-02T10:20:12.998Z</time></trkpt><trkpt lat="46.06784845568717" lon="11.642425966627371"><ele>885.1999999999999</ele><time>2026-05-02T10:20:13.998Z</time></trkpt><trkpt lat="46.06787584133821" lon="11.642555081967116"><ele>885.5999999999999</ele><time>2026-05-02T10:20:14.998Z</time></trkpt><trkpt lat="46.06789761938863" lon="11.642674016400782"><ele>886.0</ele><time>2026-05-02T10:20:15.998Z</time></trkpt><trkpt lat="46.06791361725548" lon="11.642784313392871"><ele>886.4</ele><time>2026-05-02T10:20:16.998Z</time></trkpt><trkpt lat="46.06792249260973" lon="11.642911364830919"><ele>886.8</ele><time>2026-05-02T10:20:17.998Z</time></trkpt><trkpt lat="46.06791467258376" lon="11.643041805269254"><ele>887.1999999999999</ele><time>2026-05-02T10:20:18.998Z</time></trkpt><trkpt lat="46.06791380248567" lon="11.643190957596374"><ele>887.5999999999999</ele><time>2026-05-02T10:20:19.998Z</time></trkpt><trkpt lat="46.06792205154402" lon="11.643316205082465"><ele>888.0</ele><time>2026-05-02T10:20:20.998Z</time></trkpt><trkpt lat="46.067938363719975" lon="11.64344679543601"><ele>888.0</ele><time>2026-05-02T10:20:21.998Z</time></trkpt><trkpt lat="46.067966884568484" lon="11.6435624804933"><ele>888.0</ele><time>2026-05-02T10:20:22.998Z</time></trkpt><trkpt lat="46.06801516805977" lon="11.64367672346541"><ele>888.0</ele><time>2026-05-02T10:20:23.998Z</time></trkpt><trkpt lat="46.06808095210514" lon="11.643781034765672"><ele>888.0</ele><time>2026-05-02T10:20:24.998Z</time></trkpt><trkpt lat="46.06814260758711" lon="11.643872780812632"><ele>888.0</ele><time>2026-05-02T10:20:25.998Z</time></trkpt><trkpt lat="46.06819673021592" lon="11.643953709588319"><ele>888.0</ele><time>2026-05-02T10:20:26.998Z</time></trkpt><trkpt lat="46.06824137555469" lon="11.644033186549853"><ele>882.6666666666666</ele><time>2026-05-02T10:20:27.998Z</time></trkpt><trkpt lat="46.06828391171677" lon="11.644128351809684"><ele>877.3333333333333</ele><time>2026-05-02T10:20:28.998Z</time></trkpt><trkpt lat="46.06832454087977" lon="11.644245655511781"><ele>872.0</ele><time>2026-05-02T10:20:29.998Z</time></trkpt><trkpt lat="46.068353809606904" lon="11.644338445390058"><ele>866.6666666666666</ele><time>2026-05-02T10:20:30.998Z</time></trkpt><trkpt lat="46.068401101015986" lon="11.644405497943088"><ele>861.3333333333333</ele><time>2026-05-02T10:20:31.998Z</time></trkpt><trkpt lat="46.06847524136314" lon="11.644426968455397"><ele>856.0</ele><time>2026-05-02T10:20:32.998Z</time></trkpt><trkpt lat="46.06855777101924" lon="11.644447986809178"><ele>856.0</ele><time>2026-05-02T10:20:33.998Z</time></trkpt><trkpt lat="46.0686626987537" lon="11.64445976948027"><ele>855.9999999999999</ele><time>2026-05-02T10:20:34.998Z</time></trkpt><trkpt lat="46.06876466852665" lon="11.64450816263722"><ele>855.9999999999999</ele><time>2026-05-02T10:20:35.998Z</time></trkpt><trkpt lat="46.068870885816345" lon="11.644534701550663"><ele>856.0</ele><time>2026-05-02T10:20:36.997Z</time></trkpt><trkpt lat="46.06898119386705" lon="11.644566840468034"><ele>856.0</ele><time>2026-05-02T10:20:37.997Z</time></trkpt><trkpt lat="46.069093179468275" lon="11.644617704864245"><ele>855.5</ele><time>2026-05-02T10:20:38.997Z</time></trkpt><trkpt lat="46.06920879083654" lon="11.644623146246584"><ele>855.0</ele><time>2026-05-02T10:20:39.997Z</time></trkpt><trkpt lat="46.069324306919285" lon="11.644616394165713"><ele>854.5</ele><time>2026-05-02T10:20:41Z</time></trkpt><trkpt lat="46.069444807197" lon="11.644627203489057"><ele>854.0</ele><time>2026-05-02T10:20:42Z</time></trkpt><trkpt lat="46.069557994775174" lon="11.644673982684774"><ele>854.0</ele><time>2026-05-02T10:20:43Z</time></trkpt><trkpt lat="46.069655196173784" lon="11.644699455977122"><ele>854.0000000000001</ele><time>2026-05-02T10:20:44Z</time></trkpt><trkpt lat="46.069748048400115" lon="11.644737231042193"><ele>854.0000000000001</ele><time>2026-05-02T10:20:45Z</time></trkpt><trkpt lat="46.06984218012002" lon="11.644766608104733"><ele>854.0</ele><time>2026-05-02T10:20:46Z</time></trkpt><trkpt lat="46.069931878190815" lon="11.644834050751061"><ele>854.0</ele><time>2026-05-02T10:20:47Z</time></trkpt><trkpt lat="46.07003239457816" lon="11.644851668629236"><ele>854.8000000000001</ele><time>2026-05-02T10:20:48Z</time></trkpt><trkpt lat="46.07010265431201" lon="11.644893228682832"><ele>855.6000000000001</ele><time>2026-05-02T10:20:49Z</time></trkpt><trkpt lat="46.07017255994267" lon="11.644956770463704"><ele>856.4</ele><time>2026-05-02T10:20:50Z</time></trkpt><trkpt lat="46.0702427605637" lon="11.645057507164585"><ele>857.2</ele><time>2026-05-02T10:20:51Z</time></trkpt><trkpt lat="46.07028741014441" lon="11.645195125784058"><ele>858.0</ele><time>2026-05-02T10:20:52Z</time></trkpt><trkpt lat="46.070342841397526" lon="11.645297216220557"><ele>858.5</ele><time>2026-05-02T10:20:53Z</time></trkpt><trkpt lat="46.07042325179991" lon="11.645359667482747"><ele>859.0</ele><time>2026-05-02T10:20:54Z</time></trkpt><trkpt lat="46.07048625433078" lon="11.645442031249134"><ele>859.5</ele><time>2026-05-02T10:20:55Z</time></trkpt><trkpt lat="46.07055077958123" lon="11.645558635775808"><ele>860.0</ele><time>2026-05-02T10:20:57Z</time></trkpt><trkpt lat="46.07050619902908" lon="11.645673868240602"><ele>860.5</ele><time>2026-05-02T10:20:58Z</time></trkpt><trkpt lat="46.07051186241072" lon="11.645771837409173"><ele>861.0</ele><time>2026-05-02T10:20:59Z</time></trkpt><trkpt lat="46.07054300120253" lon="11.64586781900086"><ele>861.0</ele><time>2026-05-02T10:21:00Z</time></trkpt><trkpt lat="46.07062495500093" lon="11.645955399052255"><ele>860.9999999999999</ele><time>2026-05-02T10:21:02Z</time></trkpt><trkpt lat="46.070693790785974" lon="11.646015958107622"><ele>860.9999999999999</ele><time>2026-05-02T10:21:05Z</time></trkpt><trkpt lat="46.07076477219927" lon="11.646088533159894"><ele>861.0</ele><time>2026-05-02T10:21:06.999Z</time></trkpt><trkpt lat="46.070822353879905" lon="11.646126264496115"><ele>861.0</ele><time>2026-05-02T10:21:09.999Z</time></trkpt><trkpt lat="46.07075022178729" lon="11.646356747257482"><ele>862.1999999999999</ele><time>2026-05-02T10:21:10.999Z</time></trkpt><trkpt lat="46.07070614737883" lon="11.646445065285617"><ele>863.3999999999999</ele><time>2026-05-02T10:21:12.999Z</time></trkpt><trkpt lat="46.07064048028927" lon="11.646543247315742"><ele>864.6</ele><time>2026-05-02T10:21:14.999Z</time></trkpt><trkpt lat="46.07057064467324" lon="11.646677991242488"><ele>865.8</ele><time>2026-05-02T10:21:17.999Z</time></trkpt><trkpt lat="46.070507719256256" lon="11.646788180125586"><ele>867.0</ele><time>2026-05-02T10:21:19.999Z</time></trkpt><trkpt lat="46.07046060000679" lon="11.646911580125806"><ele>869.2</ele><time>2026-05-02T10:21:21.999Z</time></trkpt><trkpt lat="46.07043234430677" lon="11.647059542354977"><ele>871.4000000000001</ele><time>2026-05-02T10:21:23.999Z</time></trkpt><trkpt lat="46.07042675675882" lon="11.647231361965009"><ele>873.5999999999999</ele><time>2026-05-02T10:21:25.999Z</time></trkpt><trkpt lat="46.07042075511954" lon="11.647324929019664"><ele>875.8</ele><time>2026-05-02T10:21:26.999Z</time></trkpt><trkpt lat="46.070389802644485" lon="11.647428171571596"><ele>878.0</ele><time>2026-05-02T10:21:28.999Z</time></trkpt><trkpt lat="46.07036953049108" lon="11.647578611927088"><ele>878.0</ele><time>2026-05-02T10:21:30.999Z</time></trkpt><trkpt lat="46.0703869319431" lon="11.647687703983431"><ele>878.0</ele><time>2026-05-02T10:21:32.999Z</time></trkpt><trkpt lat="46.07035100728863" lon="11.647802576274174"><ele>878.0</ele><time>2026-05-02T10:21:34.999Z</time></trkpt><trkpt lat="46.07035318027824" lon="11.647952176033945"><ele>878.0</ele><time>2026-05-02T10:21:36.999Z</time></trkpt><trkpt lat="46.07037777034354" lon="11.648083283141686"><ele>878.0</ele><time>2026-05-02T10:21:38.999Z</time></trkpt><trkpt lat="46.07038227904216" lon="11.648213049089158"><ele>880.4</ele><time>2026-05-02T10:21:40.999Z</time></trkpt><trkpt lat="46.07038488192474" lon="11.648355289140666"><ele>882.8</ele><time>2026-05-02T10:21:42.999Z</time></trkpt><trkpt lat="46.070354751701494" lon="11.64850133468959"><ele>885.2</ele><time>2026-05-02T10:21:44.999Z</time></trkpt><trkpt lat="46.07035025844817" lon="11.648622358499649"><ele>887.6</ele><time>2026-05-02T10:21:46.999Z</time></trkpt><trkpt lat="46.07035095687475" lon="11.648766090333885"><ele>890.0</ele><time>2026-05-02T10:21:48.999Z</time></trkpt><trkpt lat="46.070357345489484" lon="11.648904189421813"><ele>891.3333333333334</ele><time>2026-05-02T10:21:50.999Z</time></trkpt><trkpt lat="46.07034693242016" lon="11.649012376954847"><ele>892.6666666666667</ele><time>2026-05-02T10:21:52.999Z</time></trkpt><trkpt lat="46.07031899625238" lon="11.649108672915773"><ele>894.0</ele><time>2026-05-02T10:21:53.999Z</time></trkpt><trkpt lat="46.07027578269878" lon="11.6492286190077"><ele>895.3333333333333</ele><time>2026-05-02T10:21:55.999Z</time></trkpt><trkpt lat="46.070277640672174" lon="11.649363723841804"><ele>896.6666666666666</ele><time>2026-05-02T10:21:57.999Z</time></trkpt><trkpt lat="46.07027811593056" lon="11.649498866548766"><ele>898.0</ele><time>2026-05-02T10:21:59.998Z</time></trkpt><trkpt lat="46.07029227738894" lon="11.649615693738385"><ele>900.0</ele><time>2026-05-02T10:22:01.998Z</time></trkpt><trkpt lat="46.07026926526464" lon="11.649757473374448"><ele>902.0</ele><time>2026-05-02T10:22:03.998Z</time></trkpt><trkpt lat="46.07027757107557" lon="11.649908533003515"><ele>904.0</ele><time>2026-05-02T10:22:06.998Z</time></trkpt><trkpt lat="46.07027336391847" lon="11.65000411264165"><ele>906.0</ele><time>2026-05-02T10:22:07.998Z</time></trkpt><trkpt lat="46.07026852681078" lon="11.650170974865741"><ele>908.0</ele><time>2026-05-02T10:22:09.998Z</time></trkpt><trkpt lat="46.07027632197926" lon="11.650267102165055"><ele>910.2</ele><time>2026-05-02T10:22:10.998Z</time></trkpt><trkpt lat="46.0703035129995" lon="11.650411257229692"><ele>912.4</ele><time>2026-05-02T10:22:12.998Z</time></trkpt><trkpt lat="46.07029770835627" lon="11.650569490018114"><ele>914.6000000000001</ele><time>2026-05-02T10:22:14.998Z</time></trkpt><trkpt lat="46.070305622860886" lon="11.650735196004517"><ele>916.8000000000001</ele><time>2026-05-02T10:22:16.998Z</time></trkpt><trkpt lat="46.07032515170972" lon="11.650876700558403"><ele>919.0</ele><time>2026-05-02T10:22:18.998Z</time></trkpt><trkpt lat="46.07032006371125" lon="11.65097808431725"><ele>918.9999999999999</ele><time>2026-05-02T10:22:20.998Z</time></trkpt><trkpt lat="46.07032926290834" lon="11.651123169131985"><ele>919.0</ele><time>2026-05-02T10:22:22.998Z</time></trkpt><trkpt lat="46.07033833314383" lon="11.651233733837415"><ele>919.0</ele><time>2026-05-02T10:22:24.998Z</time></trkpt><trkpt lat="46.070361019341895" lon="11.651348297943189"><ele>919.0</ele><time>2026-05-02T10:22:26.998Z</time></trkpt><trkpt lat="46.070394249370075" lon="11.651446872286977"><ele>918.9999999999999</ele><time>2026-05-02T10:22:38.998Z</time></trkpt><trkpt lat="46.07038620904218" lon="11.651556557645607"><ele>919.0</ele><time>2026-05-02T10:22:43.998Z</time></trkpt><trkpt lat="46.070454207405504" lon="11.651591186728892"><ele>921.0</ele><time>2026-05-02T10:22:48Z</time></trkpt><trkpt lat="46.07052673949579" lon="11.651524444273784"><ele>923.0000000000001</ele><time>2026-05-02T10:22:49Z</time></trkpt><trkpt lat="46.07059744676773" lon="11.65142157363831"><ele>925.0000000000001</ele><time>2026-05-02T10:22:50Z</time></trkpt><trkpt lat="46.07067489285078" lon="11.651342620516978"><ele>927.0</ele><time>2026-05-02T10:22:51Z</time></trkpt><trkpt lat="46.07075050199574" lon="11.651276281795791"><ele>929.0</ele><time>2026-05-02T10:22:52Z</time></trkpt><trkpt lat="46.07083414400663" lon="11.65119517871328"><ele>930.5</ele><time>2026-05-02T10:22:53Z</time></trkpt><trkpt lat="46.07091824088752" lon="11.651108402543501"><ele>932.0</ele><time>2026-05-02T10:22:54Z</time></trkpt><trkpt lat="46.07101506289682" lon="11.651000706055276"><ele>933.5</ele><time>2026-05-02T10:22:55Z</time></trkpt><trkpt lat="46.071118121504576" lon="11.650889375694659"><ele>935.0</ele><time>2026-05-02T10:22:56Z</time></trkpt><trkpt lat="46.07122610620843" lon="11.650766349104439"><ele>935.0</ele><time>2026-05-02T10:22:57Z</time></trkpt><trkpt lat="46.07133810444952" lon="11.650639395557109"><ele>935.0</ele><time>2026-05-02T10:22:58Z</time></trkpt><trkpt lat="46.07145684830891" lon="11.650527750942512"><ele>935.0</ele><time>2026-05-02T10:22:59Z</time></trkpt><trkpt lat="46.07155706284853" lon="11.650391132492931"><ele>935.0</ele><time>2026-05-02T10:23:00Z</time></trkpt><trkpt lat="46.07164002378382" lon="11.650229112045094"><ele>940.0</ele><time>2026-05-02T10:23:01Z</time></trkpt><trkpt lat="46.071698484696334" lon="11.650018040644488"><ele>945.0</ele><time>2026-05-02T10:23:02Z</time></trkpt><trkpt lat="46.07178152270711" lon="11.649825101200106"><ele>950.0</ele><time>2026-05-02T10:23:03Z</time></trkpt><trkpt lat="46.07186960267678" lon="11.649627296459172"><ele>949.0</ele><time>2026-05-02T10:23:04Z</time></trkpt><trkpt lat="46.071982405633875" lon="11.649454267341"><ele>948.0</ele><time>2026-05-02T10:23:05Z</time></trkpt><trkpt lat="46.07210541642247" lon="11.649268507270836"><ele>947.0</ele><time>2026-05-02T10:23:06Z</time></trkpt><trkpt lat="46.072207316386375" lon="11.649046462481694"><ele>947.0</ele><time>2026-05-02T10:23:07Z</time></trkpt><trkpt lat="46.072306782077426" lon="11.648838968106766"><ele>947.0</ele><time>2026-05-02T10:23:08Z</time></trkpt><trkpt lat="46.07239653028171" lon="11.648613336763011"><ele>947.0</ele><time>2026-05-02T10:23:09Z</time></trkpt><trkpt lat="46.07247178186721" lon="11.648337810356082"><ele>950.3333333333334</ele><time>2026-05-02T10:23:10Z</time></trkpt><trkpt lat="46.07251143138572" lon="11.648059367671967"><ele>953.6666666666667</ele><time>2026-05-02T10:23:11Z</time></trkpt><trkpt lat="46.07255418062611" lon="11.647830662596464"><ele>957.0</ele><time>2026-05-02T10:23:12Z</time></trkpt><trkpt lat="46.07257644565244" lon="11.647640014339304"><ele>957.0</ele><time>2026-05-02T10:23:12.999Z</time></trkpt><trkpt lat="46.07257887700054" lon="11.647475977992443"><ele>957.0</ele><time>2026-05-02T10:23:13.999Z</time></trkpt><trkpt lat="46.07260126642723" lon="11.647337582760516"><ele>957.0</ele><time>2026-05-02T10:23:14.999Z</time></trkpt><trkpt lat="46.07262779090219" lon="11.647221272042916"><ele>957.0</ele><time>2026-05-02T10:23:15.999Z</time></trkpt><trkpt lat="46.072671498662025" lon="11.647091780890877"><ele>957.0</ele><time>2026-05-02T10:23:16.999Z</time></trkpt><trkpt lat="46.07274739633342" lon="11.646942582861158"><ele>955.75</ele><time>2026-05-02T10:23:17.999Z</time></trkpt><trkpt lat="46.07286336624504" lon="11.64681413231569"><ele>954.5</ele><time>2026-05-02T10:23:18.999Z</time></trkpt><trkpt lat="46.07296717515189" lon="11.646665479578223"><ele>953.25</ele><time>2026-05-02T10:23:19.999Z</time></trkpt><trkpt lat="46.07306121695826" lon="11.64650642895387"><ele>952.0</ele><time>2026-05-02T10:23:20.999Z</time></trkpt><trkpt lat="46.073173704335524" lon="11.64636452297684"><ele>955.25</ele><time>2026-05-02T10:23:21.999Z</time></trkpt><trkpt lat="46.073279894047765" lon="11.646219802701074"><ele>958.5</ele><time>2026-05-02T10:23:22.999Z</time></trkpt><trkpt lat="46.07337676145159" lon="11.646076362103356"><ele>961.75</ele><time>2026-05-02T10:23:23.999Z</time></trkpt><trkpt lat="46.07348668640053" lon="11.645953175597922"><ele>965.0</ele><time>2026-05-02T10:23:24.999Z</time></trkpt><trkpt lat="46.073590944390745" lon="11.645808901785893"><ele>965.0</ele><time>2026-05-02T10:23:25.999Z</time></trkpt><trkpt lat="46.073697591602766" lon="11.645661321733476"><ele>965.0</ele><time>2026-05-02T10:23:26.999Z</time></trkpt><trkpt lat="46.07380423178459" lon="11.645516002447062"><ele>965.0</ele><time>2026-05-02T10:23:27.999Z</time></trkpt><trkpt lat="46.07389949885764" lon="11.645355474948355"><ele>965.0</ele><time>2026-05-02T10:23:28.999Z</time></trkpt><trkpt lat="46.07401378235058" lon="11.645225587348264"><ele>970.6666666666667</ele><time>2026-05-02T10:23:29.999Z</time></trkpt><trkpt lat="46.07411395652561" lon="11.645071482580503"><ele>976.3333333333333</ele><time>2026-05-02T10:23:30.999Z</time></trkpt><trkpt lat="46.074199642522736" lon="11.644886523267969"><ele>982.0</ele><time>2026-05-02T10:23:31.999Z</time></trkpt><trkpt lat="46.074289922847335" lon="11.644701397147665"><ele>982.0</ele><time>2026-05-02T10:23:32.999Z</time></trkpt><trkpt lat="46.07435858994411" lon="11.644504324423368"><ele>982.0</ele><time>2026-05-02T10:23:33.999Z</time></trkpt><trkpt lat="46.07442968815337" lon="11.644304813382755"><ele>982.0</ele><time>2026-05-02T10:23:34.999Z</time></trkpt><trkpt lat="46.07452159437048" lon="11.644115608158735"><ele>979.3333333333333</ele><time>2026-05-02T10:23:35.999Z</time></trkpt><trkpt lat="46.07459085525235" lon="11.643896082171917"><ele>976.6666666666667</ele><time>2026-05-02T10:23:36.999Z</time></trkpt><trkpt lat="46.07468173073751" lon="11.643672076890757"><ele>974.0</ele><time>2026-05-02T10:23:37.999Z</time></trkpt><trkpt lat="46.07477280964281" lon="11.643431426272352"><ele>971.6666666666667</ele><time>2026-05-02T10:23:38.999Z</time></trkpt><trkpt lat="46.07487579025487" lon="11.643189479437053"><ele>969.3333333333333</ele><time>2026-05-02T10:23:39.999Z</time></trkpt><trkpt lat="46.07494282118376" lon="11.642899616186034"><ele>967.0</ele><time>2026-05-02T10:23:40.999Z</time></trkpt><trkpt lat="46.07501359038799" lon="11.642591490936603"><ele>977.0</ele><time>2026-05-02T10:23:41.999Z</time></trkpt><trkpt lat="46.075089512106" lon="11.64229058102693"><ele>987.0</ele><time>2026-05-02T10:23:42.999Z</time></trkpt><trkpt lat="46.075159417813865" lon="11.642027248766073"><ele>997.0</ele><time>2026-05-02T10:23:43.999Z</time></trkpt><trkpt lat="46.07522527227655" lon="11.641757282257018"><ele>997.0</ele><time>2026-05-02T10:23:44.999Z</time></trkpt><trkpt lat="46.0752914198326" lon="11.641488848655918"><ele>997.0</ele><time>2026-05-02T10:23:45.999Z</time></trkpt><trkpt lat="46.07535754184696" lon="11.641222535042582"><ele>997.0</ele><time>2026-05-02T10:23:46.999Z</time></trkpt><trkpt lat="46.07542286170669" lon="11.64096393611629"><ele>997.0</ele><time>2026-05-02T10:23:47.999Z</time></trkpt><trkpt lat="46.07548697095008" lon="11.64069703720719"><ele>997.0</ele><time>2026-05-02T10:23:48.999Z</time></trkpt><trkpt lat="46.07554736745564" lon="11.640426745341333"><ele>997.0</ele><time>2026-05-02T10:23:49.999Z</time></trkpt><trkpt lat="46.07560436570215" lon="11.640190862118798"><ele>996.25</ele><time>2026-05-02T10:23:50.999Z</time></trkpt><trkpt lat="46.07565796895305" lon="11.639991005978855"><ele>995.5</ele><time>2026-05-02T10:23:51.999Z</time></trkpt><trkpt lat="46.07572425184575" lon="11.639811202303527"><ele>994.75</ele><time>2026-05-02T10:23:52.999Z</time></trkpt><trkpt lat="46.075777629409224" lon="11.639638814319282"><ele>994.0</ele><time>2026-05-02T10:23:53.999Z</time></trkpt><trkpt lat="46.07583514794905" lon="11.63947296996673"><ele>999.25</ele><time>2026-05-02T10:23:54.999Z</time></trkpt><trkpt lat="46.07595331503326" lon="11.639370247512568"><ele>1004.5</ele><time>2026-05-02T10:23:55.999Z</time></trkpt><trkpt lat="46.07608253653203" lon="11.639310441879452"><ele>1009.75</ele><time>2026-05-02T10:23:56.999Z</time></trkpt><trkpt lat="46.076225591383455" lon="11.639290801885204"><ele>1015.0</ele><time>2026-05-02T10:23:57.999Z</time></trkpt><trkpt lat="46.076383508944005" lon="11.639327872470952"><ele>1015.0</ele><time>2026-05-02T10:23:58.999Z</time></trkpt><trkpt lat="46.07656170327727" lon="11.639379810096973"><ele>1015.0</ele><time>2026-05-02T10:23:59.999Z</time></trkpt><trkpt lat="46.076746060074726" lon="11.639411507471271"><ele>1015.0</ele><time>2026-05-02T10:24:00.999Z</time></trkpt><trkpt lat="46.076958007760524" lon="11.639373240615997"><ele>1022.0</ele><time>2026-05-02T10:24:01.999Z</time></trkpt><trkpt lat="46.07717461869205" lon="11.639285523709031"><ele>1029.0</ele><time>2026-05-02T10:24:02.999Z</time></trkpt><trkpt lat="46.07739592039367" lon="11.639185444471455"><ele>1033.6666666666667</ele><time>2026-05-02T10:24:03.999Z</time></trkpt><trkpt lat="46.07758823978096" lon="11.63913235240301"><ele>1038.3333333333335</ele><time>2026-05-02T10:24:04.999Z</time></trkpt><trkpt lat="46.07776687351937" lon="11.639084912865767"><ele>1043.0</ele><time>2026-05-02T10:24:05.999Z</time></trkpt><trkpt lat="46.07795124754646" lon="11.639096250538872"><ele>1043.0</ele><time>2026-05-02T10:24:06.999Z</time></trkpt><trkpt lat="46.0781363844214" lon="11.639085403463765"><ele>1043.0</ele><time>2026-05-02T10:24:07.999Z</time></trkpt><trkpt lat="46.078319940502595" lon="11.63910164214514"><ele>1043.0</ele><time>2026-05-02T10:24:08.999Z</time></trkpt><trkpt lat="46.07849511824888" lon="11.639110280219873"><ele>1043.6666666666667</ele><time>2026-05-02T10:24:09.999Z</time></trkpt><trkpt lat="46.07866614369355" lon="11.639124593895232"><ele>1044.3333333333333</ele><time>2026-05-02T10:24:10.998Z</time></trkpt><trkpt lat="46.0788293462571" lon="11.639131353661552"><ele>1045.0</ele><time>2026-05-02T10:24:11.998Z</time></trkpt><trkpt lat="46.078993480698614" lon="11.639138840137665"><ele>1044.0</ele><time>2026-05-02T10:24:12.998Z</time></trkpt><trkpt lat="46.07913612994275" lon="11.639144532636086"><ele>1043.0</ele><time>2026-05-02T10:24:13.998Z</time></trkpt><trkpt lat="46.07926201883916" lon="11.639148181209967"><ele>1042.0</ele><time>2026-05-02T10:24:14.998Z</time></trkpt><trkpt lat="46.079373767630976" lon="11.639136408076512"><ele>1041.0</ele><time>2026-05-02T10:24:15.998Z</time></trkpt><trkpt lat="46.07947074202167" lon="11.639107821973386"><ele>1041.0</ele><time>2026-05-02T10:24:16.998Z</time></trkpt><trkpt lat="46.079565160527" lon="11.639063930941163"><ele>1041.0</ele><time>2026-05-02T10:24:17.998Z</time></trkpt><trkpt lat="46.079669416671884" lon="11.638989882828612"><ele>1041.0</ele><time>2026-05-02T10:24:18.998Z</time></trkpt><trkpt lat="46.07977478433276" lon="11.638889399341224"><ele>1041.0</ele><time>2026-05-02T10:24:19.998Z</time></trkpt><trkpt lat="46.079900603025045" lon="11.638773636888768"><ele>1044.6666666666667</ele><time>2026-05-02T10:24:20.998Z</time></trkpt><trkpt lat="46.08001596624392" lon="11.638603907455018"><ele>1048.3333333333335</ele><time>2026-05-02T10:24:21.998Z</time></trkpt><trkpt lat="46.08015219011166" lon="11.638448791073062"><ele>1052.0</ele><time>2026-05-02T10:24:22.998Z</time></trkpt><trkpt lat="46.080294175120606" lon="11.638266232729157"><ele>1052.0</ele><time>2026-05-02T10:24:23.998Z</time></trkpt><trkpt lat="46.08044401388625" lon="11.638081542211307"><ele>1052.0</ele><time>2026-05-02T10:24:24.998Z</time></trkpt><trkpt lat="46.08057155277624" lon="11.637926743912518"><ele>1052.0</ele><time>2026-05-02T10:24:25.998Z</time></trkpt><trkpt lat="46.08068261486175" lon="11.637785861088611"><ele>1053.25</ele><time>2026-05-02T10:24:26.998Z</time></trkpt><trkpt lat="46.08078234344187" lon="11.63766255783649"><ele>1054.5</ele><time>2026-05-02T10:24:27.998Z</time></trkpt><trkpt lat="46.08087493027902" lon="11.637538378284265"><ele>1055.75</ele><time>2026-05-02T10:24:28.998Z</time></trkpt><trkpt lat="46.080952311987076" lon="11.637404176326982"><ele>1057.0</ele><time>2026-05-02T10:24:29.998Z</time></trkpt><trkpt lat="46.08102372094477" lon="11.637232127100852"><ele>1057.0</ele><time>2026-05-02T10:24:30.998Z</time></trkpt><trkpt lat="46.081075856524286" lon="11.637031618891317"><ele>1057.0</ele><time>2026-05-02T10:24:31.998Z</time></trkpt><trkpt lat="46.08112814673853" lon="11.63680987359192"><ele>1057.0</ele><time>2026-05-02T10:24:32.998Z</time></trkpt><trkpt lat="46.08114667874656" lon="11.63656349624759"><ele>1058.6666666666665</ele><time>2026-05-02T10:24:33.998Z</time></trkpt><trkpt lat="46.081191865476754" lon="11.63631046574852"><ele>1060.3333333333333</ele><time>2026-05-02T10:24:34.998Z</time></trkpt><trkpt lat="46.081222077194354" lon="11.636061215311825"><ele>1062.0</ele><time>2026-05-02T10:24:35.998Z</time></trkpt><trkpt lat="46.0812519694757" lon="11.635822433592303"><ele>1064.3333333333333</ele><time>2026-05-02T10:24:36.998Z</time></trkpt><trkpt lat="46.08128266760547" lon="11.635587476620067"><ele>1066.6666666666665</ele><time>2026-05-02T10:24:37.998Z</time></trkpt><trkpt lat="46.08133159586893" lon="11.635359484370966"><ele>1069.0</ele><time>2026-05-02T10:24:38.998Z</time></trkpt><trkpt lat="46.081352191029126" lon="11.635131484867346"><ele>1071.0</ele><time>2026-05-02T10:24:39.998Z</time></trkpt><trkpt lat="46.08136995889733" lon="11.63496293892282"><ele>1073.0</ele><time>2026-05-02T10:24:40.998Z</time></trkpt><trkpt lat="46.081413478385215" lon="11.634714470269534"><ele>1075.0</ele><time>2026-05-02T10:24:41.998Z</time></trkpt><trkpt lat="46.0814490401498" lon="11.634553170719792"><ele>1077.0</ele><time>2026-05-02T10:24:42.998Z</time></trkpt><trkpt lat="46.08150688858986" lon="11.63438361834858"><ele>1078.25</ele><time>2026-05-02T10:24:43.998Z</time></trkpt><trkpt lat="46.08161670891691" lon="11.634296981552502"><ele>1079.5</ele><time>2026-05-02T10:24:44.998Z</time></trkpt><trkpt lat="46.08171474880877" lon="11.634231548939304"><ele>1080.75</ele><time>2026-05-02T10:24:45.998Z</time></trkpt><trkpt lat="46.08184165268326" lon="11.6342007629758"><ele>1082.0</ele><time>2026-05-02T10:24:46.998Z</time></trkpt><trkpt lat="46.081985763310016" lon="11.63422961390089"><ele>1082.0</ele><time>2026-05-02T10:24:47.998Z</time></trkpt><trkpt lat="46.08215469954861" lon="11.634287506182384"><ele>1082.0</ele><time>2026-05-02T10:24:48.998Z</time></trkpt><trkpt lat="46.08233049067429" lon="11.634335867016397"><ele>1082.0</ele><time>2026-05-02T10:24:49.998Z</time></trkpt><trkpt lat="46.08250065089231" lon="11.634317849190346"><ele>1084.3333333333335</ele><time>2026-05-02T10:24:50.998Z</time></trkpt><trkpt lat="46.08266439002016" lon="11.63426790923557"><ele>1086.6666666666667</ele><time>2026-05-02T10:24:51.998Z</time></trkpt><trkpt lat="46.082819922703315" lon="11.634148521400133"><ele>1089.0</ele><time>2026-05-02T10:24:53Z</time></trkpt><trkpt lat="46.08297430015215" lon="11.633962384614176"><ele>1089.0</ele><time>2026-05-02T10:24:54Z</time></trkpt><trkpt lat="46.08312335729348" lon="11.633748976314743"><ele>1089.0</ele><time>2026-05-02T10:24:55Z</time></trkpt><trkpt lat="46.083250031553874" lon="11.633555288524636"><ele>1089.0</ele><time>2026-05-02T10:24:56Z</time></trkpt><trkpt lat="46.0833666361569" lon="11.633397442395237"><ele>1092.0</ele><time>2026-05-02T10:24:57Z</time></trkpt><trkpt lat="46.08348480258744" lon="11.63327180508757"><ele>1095.0</ele><time>2026-05-02T10:24:58Z</time></trkpt><trkpt lat="46.083607521273784" lon="11.633156369578566"><ele>1098.0</ele><time>2026-05-02T10:24:59Z</time></trkpt><trkpt lat="46.083746869115515" lon="11.63309181410938"><ele>1101.0</ele><time>2026-05-02T10:25:00Z</time></trkpt><trkpt lat="46.08389620465589" lon="11.633074896660867"><ele>1101.0</ele><time>2026-05-02T10:25:01Z</time></trkpt><trkpt lat="46.08403011042232" lon="11.633133695856035"><ele>1101.0</ele><time>2026-05-02T10:25:02Z</time></trkpt><trkpt lat="46.08417667281201" lon="11.63322173529103"><ele>1101.0</ele><time>2026-05-02T10:25:03Z</time></trkpt><trkpt lat="46.08433668951892" lon="11.633315336422823"><ele>1105.3333333333333</ele><time>2026-05-02T10:25:04Z</time></trkpt><trkpt lat="46.0844952261379" lon="11.633360251368016"><ele>1109.6666666666665</ele><time>2026-05-02T10:25:05Z</time></trkpt><trkpt lat="46.08464169596521" lon="11.633387485461787"><ele>1114.0</ele><time>2026-05-02T10:25:06Z</time></trkpt><trkpt lat="46.08478628867871" lon="11.633368426076439"><ele>1116.6666666666665</ele><time>2026-05-02T10:25:07Z</time></trkpt><trkpt lat="46.08493059724208" lon="11.633299345984677"><ele>1119.3333333333333</ele><time>2026-05-02T10:25:08Z</time></trkpt><trkpt lat="46.08508640801408" lon="11.633186857906127"><ele>1122.0</ele><time>2026-05-02T10:25:09Z</time></trkpt><trkpt lat="46.08524553091928" lon="11.633061370062377"><ele>1122.0</ele><time>2026-05-02T10:25:10Z</time></trkpt><trkpt lat="46.08539482209529" lon="11.632943107572546"><ele>1122.0</ele><time>2026-05-02T10:25:11Z</time></trkpt><trkpt lat="46.085501603378766" lon="11.63282399583377"><ele>1122.0</ele><time>2026-05-02T10:25:12Z</time></trkpt><trkpt lat="46.08560057936669" lon="11.632737838500104"><ele>1122.0</ele><time>2026-05-02T10:25:13Z</time></trkpt><trkpt lat="46.085683206677395" lon="11.63263552344607"><ele>1122.8</ele><time>2026-05-02T10:25:14Z</time></trkpt><trkpt lat="46.08573094166523" lon="11.632511316180782"><ele>1123.6</ele><time>2026-05-02T10:25:15Z</time></trkpt><trkpt lat="46.085756655445735" lon="11.632383868307958"><ele>1124.3999999999999</ele><time>2026-05-02T10:25:16Z</time></trkpt><trkpt lat="46.085767850465686" lon="11.632227329272203"><ele>1125.2</ele><time>2026-05-02T10:25:16.999Z</time></trkpt><trkpt lat="46.085733466696304" lon="11.632050878682906"><ele>1126.0</ele><time>2026-05-02T10:25:17.999Z</time></trkpt><trkpt lat="46.085654544885436" lon="11.631890642318224"><ele>1132.3333333333333</ele><time>2026-05-02T10:25:18.999Z</time></trkpt><trkpt lat="46.08552510985217" lon="11.631768210794958"><ele>1138.6666666666667</ele><time>2026-05-02T10:25:19.999Z</time></trkpt><trkpt lat="46.08534977696162" lon="11.631703367916396"><ele>1145.0</ele><time>2026-05-02T10:25:20.999Z</time></trkpt><trkpt lat="46.08514834254946" lon="11.631690879735393"><ele>1145.0</ele><time>2026-05-02T10:25:21.999Z</time></trkpt><trkpt lat="46.08495699503742" lon="11.631635802211239"><ele>1145.0</ele><time>2026-05-02T10:25:22.999Z</time></trkpt><trkpt lat="46.084788438649596" lon="11.63157721378426"><ele>1145.0</ele><time>2026-05-02T10:25:23.999Z</time></trkpt><trkpt lat="46.08463563085443" lon="11.631486787181634"><ele>1141.3333333333335</ele><time>2026-05-02T10:25:24.999Z</time></trkpt><trkpt lat="46.08448440825145" lon="11.631353903631606"><ele>1137.6666666666667</ele><time>2026-05-02T10:25:25.999Z</time></trkpt><trkpt lat="46.08430277784346" lon="11.631215629962576"><ele>1134.0</ele><time>2026-05-02T10:25:26.999Z</time></trkpt><trkpt lat="46.08412330290063" lon="11.631130641575481"><ele>1146.3333333333333</ele><time>2026-05-02T10:25:27.999Z</time></trkpt><trkpt lat="46.08395978065896" lon="11.631045586231847"><ele>1158.6666666666665</ele><time>2026-05-02T10:25:28.999Z</time></trkpt><trkpt lat="46.08380303102272" lon="11.630957964746731"><ele>1171.0</ele><time>2026-05-02T10:25:29.999Z</time></trkpt><trkpt lat="46.0836242321523" lon="11.630905640632568"><ele>1171.0</ele><time>2026-05-02T10:25:30.999Z</time></trkpt><trkpt lat="46.08342341307024" lon="11.63093044343905"><ele>1171.0</ele><time>2026-05-02T10:25:31.999Z</time></trkpt><trkpt lat="46.08321237090598" lon="11.63098292153866"><ele>1171.0</ele><time>2026-05-02T10:25:32.999Z</time></trkpt><trkpt lat="46.08301102637217" lon="11.631022302259396"><ele>1175.6666666666665</ele><time>2026-05-02T10:25:33.999Z</time></trkpt><trkpt lat="46.08283374917896" lon="11.631050966785017"><ele>1180.3333333333333</ele><time>2026-05-02T10:25:34.999Z</time></trkpt><trkpt lat="46.082669929574315" lon="11.63108476635936"><ele>1185.0</ele><time>2026-05-02T10:25:35.999Z</time></trkpt><trkpt lat="46.082506084028125" lon="11.631169406792093"><ele>1175.3333333333333</ele><time>2026-05-02T10:25:36.999Z</time></trkpt><trkpt lat="46.0823317815854" lon="11.631283533644444"><ele>1165.6666666666665</ele><time>2026-05-02T10:25:37.999Z</time></trkpt><trkpt lat="46.08220555298103" lon="11.631401768516685"><ele>1156.0</ele><time>2026-05-02T10:25:38.999Z</time></trkpt><trkpt lat="46.0820791072255" lon="11.631436122106285"><ele>1156.0</ele><time>2026-05-02T10:25:39.999Z</time></trkpt><trkpt lat="46.08194942568546" lon="11.631430415571078"><ele>1156.0</ele><time>2026-05-02T10:25:40.999Z</time></trkpt><trkpt lat="46.081817926452025" lon="11.631368696210794"><ele>1156.0</ele><time>2026-05-02T10:25:41.999Z</time></trkpt><trkpt lat="46.081693539517744" lon="11.63124132840292"><ele>1156.0</ele><time>2026-05-02T10:25:42.999Z</time></trkpt><trkpt lat="46.081564688122675" lon="11.631096644769682"><ele>1155.5</ele><time>2026-05-02T10:25:43.999Z</time></trkpt><trkpt lat="46.081459758053995" lon="11.630968550351914"><ele>1155.0</ele><time>2026-05-02T10:25:44.999Z</time></trkpt><trkpt lat="46.08138466900314" lon="11.630827666039329"><ele>1154.5</ele><time>2026-05-02T10:25:45.999Z</time></trkpt><trkpt lat="46.081327959275185" lon="11.6306570265153"><ele>1154.0</ele><time>2026-05-02T10:25:46.999Z</time></trkpt><trkpt lat="46.081338207639966" lon="11.63046675496838"><ele>1156.6666666666667</ele><time>2026-05-02T10:25:47.999Z</time></trkpt><trkpt lat="46.08136654196473" lon="11.630257609419965"><ele>1159.3333333333333</ele><time>2026-05-02T10:25:48.999Z</time></trkpt><trkpt lat="46.0813803458793" lon="11.629998647612004"><ele>1162.0</ele><time>2026-05-02T10:25:49.999Z</time></trkpt><trkpt lat="46.08138150477464" lon="11.629706753352497"><ele>1164.0</ele><time>2026-05-02T10:25:50.999Z</time></trkpt><trkpt lat="46.081365038348764" lon="11.629398151100728"><ele>1166.0</ele><time>2026-05-02T10:25:51.999Z</time></trkpt><trkpt lat="46.081349789332" lon="11.629105725725635"><ele>1168.0</ele><time>2026-05-02T10:25:52.999Z</time></trkpt><trkpt lat="46.08131249727874" lon="11.628820902788375"><ele>1171.3333333333333</ele><time>2026-05-02T10:25:53.999Z</time></trkpt><trkpt lat="46.08122522456767" lon="11.628533669426542"><ele>1174.6666666666667</ele><time>2026-05-02T10:25:54.999Z</time></trkpt><trkpt lat="46.08112512182816" lon="11.62827754885631"><ele>1178.0</ele><time>2026-05-02T10:25:55.999Z</time></trkpt><trkpt lat="46.08107164394768" lon="11.628035779413958"><ele>1182.0</ele><time>2026-05-02T10:25:56.999Z</time></trkpt><trkpt lat="46.08100730549917" lon="11.627809397684914"><ele>1186.0</ele><time>2026-05-02T10:25:57.999Z</time></trkpt><trkpt lat="46.08096039575084" lon="11.627596628101191"><ele>1190.0</ele><time>2026-05-02T10:25:58.999Z</time></trkpt><trkpt lat="46.08089053504595" lon="11.627400940199566"><ele>1190.0</ele><time>2026-05-02T10:25:59.999Z</time></trkpt><trkpt lat="46.08078180786032" lon="11.627223596198172"><ele>1190.0</ele><time>2026-05-02T10:26:00.999Z</time></trkpt><trkpt lat="46.08068424234879" lon="11.627079550191738"><ele>1190.0</ele><time>2026-05-02T10:26:01.999Z</time></trkpt><trkpt lat="46.08063509797877" lon="11.626960835110896"><ele>1190.0</ele><time>2026-05-02T10:26:02.999Z</time></trkpt><trkpt lat="46.08059194568076" lon="11.626875889582372"><ele>1190.0</ele><time>2026-05-02T10:26:03.999Z</time></trkpt><trkpt lat="46.08062235922914" lon="11.626763021223645"><ele>1190.0</ele><time>2026-05-02T10:26:04.999Z</time></trkpt><trkpt lat="46.08069628133755" lon="11.626688584477112"><ele>1190.0</ele><time>2026-05-02T10:26:05.999Z</time></trkpt><trkpt lat="46.0807863189772" lon="11.626696932070882"><ele>1190.0</ele><time>2026-05-02T10:26:06.999Z</time></trkpt><trkpt lat="46.08084117040603" lon="11.626861662356303"><ele>1190.0</ele><time>2026-05-02T10:26:07.999Z</time></trkpt><trkpt lat="46.080913898290376" lon="11.627023477672425"><ele>1190.0</ele><time>2026-05-02T10:26:08.999Z</time></trkpt><trkpt lat="46.08100667910957" lon="11.627216334182686"><ele>1190.0</ele><time>2026-05-02T10:26:09.999Z</time></trkpt><trkpt lat="46.08112875403933" lon="11.627449332125895"><ele>1190.0</ele><time>2026-05-02T10:26:10.999Z</time></trkpt><trkpt lat="46.081243474674785" lon="11.627679638426702"><ele>1186.0</ele><time>2026-05-02T10:26:11.999Z</time></trkpt><trkpt lat="46.081333877737436" lon="11.627876668674665"><ele>1182.0</ele><time>2026-05-02T10:26:12.998Z</time></trkpt><trkpt lat="46.081427650519096" lon="11.628093867366381"><ele>1178.0</ele><time>2026-05-02T10:26:13.998Z</time></trkpt><trkpt lat="46.081532226181835" lon="11.628290631285877"><ele>1183.75</ele><time>2026-05-02T10:26:14.998Z</time></trkpt><trkpt lat="46.08164301389749" lon="11.62842980026967"><ele>1189.5</ele><time>2026-05-02T10:26:15.998Z</time></trkpt><trkpt lat="46.08178146634493" lon="11.628517395615322"><ele>1195.25</ele><time>2026-05-02T10:26:16.998Z</time></trkpt><trkpt lat="46.08190263642071" lon="11.628612060134625"><ele>1201.0</ele><time>2026-05-02T10:26:17.998Z</time></trkpt><trkpt lat="46.0819956833556" lon="11.62873070326844"><ele>1201.0</ele><time>2026-05-02T10:26:18.998Z</time></trkpt><trkpt lat="46.082032402681406" lon="11.628917806229552"><ele>1201.0</ele><time>2026-05-02T10:26:19.998Z</time></trkpt><trkpt lat="46.082055547154" lon="11.629143324400703"><ele>1201.0</ele><time>2026-05-02T10:26:20.998Z</time></trkpt><trkpt lat="46.082101280969745" lon="11.629359937271907"><ele>1199.25</ele><time>2026-05-02T10:26:21.998Z</time></trkpt><trkpt lat="46.082143785641684" lon="11.629540543302756"><ele>1197.5</ele><time>2026-05-02T10:26:22.998Z</time></trkpt><trkpt lat="46.08221493813785" lon="11.629668891038952"><ele>1195.75</ele><time>2026-05-02T10:26:23.998Z</time></trkpt><trkpt lat="46.082315844501224" lon="11.629746513893576"><ele>1194.0</ele><time>2026-05-02T10:26:24.998Z</time></trkpt><trkpt lat="46.082443727775384" lon="11.629770305118834"><ele>1199.0</ele><time>2026-05-02T10:26:25.998Z</time></trkpt><trkpt lat="46.08259412948608" lon="11.629753620961235"><ele>1204.0</ele><time>2026-05-02T10:26:26.998Z</time></trkpt><trkpt lat="46.08275431240079" lon="11.629699525079548"><ele>1209.0</ele><time>2026-05-02T10:26:27.998Z</time></trkpt><trkpt lat="46.08288557961361" lon="11.629653749998086"><ele>1209.0</ele><time>2026-05-02T10:26:28.998Z</time></trkpt><trkpt lat="46.08300770494604" lon="11.62959526187517"><ele>1209.0</ele><time>2026-05-02T10:26:29.998Z</time></trkpt><trkpt lat="46.08313754636675" lon="11.629488348937638"><ele>1209.0</ele><time>2026-05-02T10:26:30.998Z</time></trkpt><trkpt lat="46.083268181205085" lon="11.629368012769028"><ele>1209.0</ele><time>2026-05-02T10:26:31.998Z</time></trkpt><trkpt lat="46.083407051115536" lon="11.629290252414668"><ele>1217.3333333333333</ele><time>2026-05-02T10:26:32.998Z</time></trkpt><trkpt lat="46.083564328990995" lon="11.62923125336771"><ele>1225.6666666666665</ele><time>2026-05-02T10:26:33.998Z</time></trkpt><trkpt lat="46.08371575878869" lon="11.629129305785057"><ele>1234.0</ele><time>2026-05-02T10:26:34.998Z</time></trkpt><trkpt lat="46.083875539897754" lon="11.62904790106447"><ele>1234.0</ele><time>2026-05-02T10:26:35.998Z</time></trkpt><trkpt lat="46.08404655838371" lon="11.629012387965641"><ele>1234.0</ele><time>2026-05-02T10:26:36.998Z</time></trkpt><trkpt lat="46.08423298866723" lon="11.629028444530002"><ele>1234.0</ele><time>2026-05-02T10:26:37.998Z</time></trkpt><trkpt lat="46.08444816064275" lon="11.629058521199537"><ele>1232.0</ele><time>2026-05-02T10:26:38.998Z</time></trkpt><trkpt lat="46.08468100103329" lon="11.629074751421333"><ele>1230.0</ele><time>2026-05-02T10:26:39.998Z</time></trkpt><trkpt lat="46.084908062650015" lon="11.629109750785462"><ele>1232.6666666666667</ele><time>2026-05-02T10:26:40.998Z</time></trkpt><trkpt lat="46.08511769717945" lon="11.629117526946704"><ele>1235.3333333333335</ele><time>2026-05-02T10:26:41.998Z</time></trkpt><trkpt lat="46.085327501088315" lon="11.629165876064336"><ele>1238.0</ele><time>2026-05-02T10:26:42.998Z</time></trkpt><trkpt lat="46.0855410002675" lon="11.629172342491845"><ele>1238.0</ele><time>2026-05-02T10:26:43.998Z</time></trkpt><trkpt lat="46.08576137732402" lon="11.629204425811487"><ele>1238.0</ele><time>2026-05-02T10:26:44.998Z</time></trkpt><trkpt lat="46.085977512071864" lon="11.629292470113551"><ele>1238.0</ele><time>2026-05-02T10:26:45.998Z</time></trkpt><trkpt lat="46.08619749081931" lon="11.629373260729801"><ele>1236.0</ele><time>2026-05-02T10:26:46.998Z</time></trkpt><trkpt lat="46.08640560018043" lon="11.62944827393651"><ele>1234.0</ele><time>2026-05-02T10:26:47.998Z</time></trkpt><trkpt lat="46.08658936972684" lon="11.629513532314721"><ele>1232.0</ele><time>2026-05-02T10:26:48.998Z</time></trkpt><trkpt lat="46.08675370476928" lon="11.629571255681315"><ele>1238.6666666666667</ele><time>2026-05-02T10:26:49.998Z</time></trkpt><trkpt lat="46.08691964593707" lon="11.6296104926993"><ele>1245.3333333333333</ele><time>2026-05-02T10:26:50.998Z</time></trkpt><trkpt lat="46.08708325460757" lon="11.629704622408262"><ele>1252.0</ele><time>2026-05-02T10:26:51.998Z</time></trkpt><trkpt lat="46.08723365786441" lon="11.62985477009321"><ele>1252.0</ele><time>2026-05-02T10:26:52.998Z</time></trkpt><trkpt lat="46.08739013196369" lon="11.630026461811278"><ele>1252.0</ele><time>2026-05-02T10:26:53.998Z</time></trkpt><trkpt lat="46.0875551439466" lon="11.630214167411346"><ele>1252.0</ele><time>2026-05-02T10:26:54.998Z</time></trkpt><trkpt lat="46.08773089555549" lon="11.630397489885226"><ele>1252.3333333333333</ele><time>2026-05-02T10:26:55.998Z</time></trkpt><trkpt lat="46.08790503058042" lon="11.630589303805188"><ele>1252.6666666666667</ele><time>2026-05-02T10:26:56.998Z</time></trkpt><trkpt lat="46.08807599276585" lon="11.630790931468402"><ele>1253.0</ele><time>2026-05-02T10:26:57.999Z</time></trkpt><trkpt lat="46.08824622854633" lon="11.63094402851664"><ele>1254.3333333333335</ele><time>2026-05-02T10:26:58.999Z</time></trkpt><trkpt lat="46.08838876252771" lon="11.631075055558345"><ele>1255.6666666666667</ele><time>2026-05-02T10:26:59.999Z</time></trkpt><trkpt lat="46.088515443372195" lon="11.631197222971345"><ele>1257.0</ele><time>2026-05-02T10:27:00.999Z</time></trkpt><trkpt lat="46.08862441380427" lon="11.631340422370661"><ele>1257.0</ele><time>2026-05-02T10:27:01.999Z</time></trkpt><trkpt lat="46.088725307825264" lon="11.631527523567247"><ele>1257.0</ele><time>2026-05-02T10:27:02.999Z</time></trkpt><trkpt lat="46.08882726520778" lon="11.631687008935629"><ele>1257.0</ele><time>2026-05-02T10:27:04Z</time></trkpt><trkpt lat="46.08891901720532" lon="11.63184172529633"><ele>1259.3333333333333</ele><time>2026-05-02T10:27:05Z</time></trkpt><trkpt lat="46.08902853288318" lon="11.63198049293669"><ele>1261.6666666666665</ele><time>2026-05-02T10:27:06Z</time></trkpt><trkpt lat="46.0891674755714" lon="11.632075378249954"><ele>1264.0</ele><time>2026-05-02T10:27:07Z</time></trkpt><trkpt lat="46.089324071573024" lon="11.632165635359456"><ele>1264.0</ele><time>2026-05-02T10:27:08Z</time></trkpt><trkpt lat="46.08945895740671" lon="11.632246765412972"><ele>1264.0</ele><time>2026-05-02T10:27:09Z</time></trkpt><trkpt lat="46.08956058147272" lon="11.632366353169948"><ele>1264.0</ele><time>2026-05-02T10:27:10Z</time></trkpt><trkpt lat="46.089628753080014" lon="11.632574114511595"><ele>1264.0</ele><time>2026-05-02T10:27:11Z</time></trkpt><trkpt lat="46.08974350340407" lon="11.632744974679062"><ele>1265.25</ele><time>2026-05-02T10:27:12Z</time></trkpt><trkpt lat="46.08984032473891" lon="11.63288631136039"><ele>1266.5</ele><time>2026-05-02T10:27:13Z</time></trkpt><trkpt lat="46.089933876244764" lon="11.632986121940526"><ele>1267.75</ele><time>2026-05-02T10:27:14Z</time></trkpt><trkpt lat="46.090066471060446" lon="11.633048432913904"><ele>1269.0</ele><time>2026-05-02T10:27:15Z</time></trkpt><trkpt lat="46.09021693049596" lon="11.633084640282545"><ele>1269.0</ele><time>2026-05-02T10:27:16Z</time></trkpt><trkpt lat="46.090392830313405" lon="11.633106170729725"><ele>1269.0</ele><time>2026-05-02T10:27:17Z</time></trkpt><trkpt lat="46.09057283070594" lon="11.633148684458385"><ele>1269.0</ele><time>2026-05-02T10:27:18Z</time></trkpt><trkpt lat="46.09077286304329" lon="11.633191743038106"><ele>1275.0</ele><time>2026-05-02T10:27:19Z</time></trkpt><trkpt lat="46.090982744070566" lon="11.633243649159473"><ele>1281.0</ele><time>2026-05-02T10:27:20Z</time></trkpt><trkpt lat="46.09120046567481" lon="11.633292956023638"><ele>1287.0</ele><time>2026-05-02T10:27:21Z</time></trkpt><trkpt lat="46.091406610222776" lon="11.633363782508395"><ele>1293.0</ele><time>2026-05-02T10:27:22Z</time></trkpt><trkpt lat="46.09160084594512" lon="11.633410216971837"><ele>1299.0</ele><time>2026-05-02T10:27:23Z</time></trkpt><trkpt lat="46.09176899296626" lon="11.63346614133798"><ele>1305.0</ele><time>2026-05-02T10:27:24Z</time></trkpt><trkpt lat="46.09192022263635" lon="11.633540597406501"><ele>1305.0</ele><time>2026-05-02T10:27:25Z</time></trkpt><trkpt lat="46.09206047637654" lon="11.633635047175652"><ele>1305.0</ele><time>2026-05-02T10:27:26Z</time></trkpt><trkpt lat="46.09220690846732" lon="11.633746373958932"><ele>1305.0</ele><time>2026-05-02T10:27:27Z</time></trkpt><trkpt lat="46.09231961678456" lon="11.633916418883782"><ele>1304.5</ele><time>2026-05-02T10:27:28Z</time></trkpt><trkpt lat="46.092413775865076" lon="11.634062961048985"><ele>1304.0</ele><time>2026-05-02T10:27:29Z</time></trkpt><trkpt lat="46.09248992992711" lon="11.634205427486167"><ele>1303.5</ele><time>2026-05-02T10:27:29.999Z</time></trkpt><trkpt lat="46.09255517447596" lon="11.634356500704222"><ele>1303.0</ele><time>2026-05-02T10:27:30.999Z</time></trkpt><trkpt lat="46.09261627512254" lon="11.634530918581206"><ele>1303.0</ele><time>2026-05-02T10:27:31.999Z</time></trkpt><trkpt lat="46.09269595446688" lon="11.63469398708177"><ele>1303.0</ele><time>2026-05-02T10:27:32.999Z</time></trkpt><trkpt lat="46.09277685543135" lon="11.634888710779384"><ele>1303.0</ele><time>2026-05-02T10:27:33.999Z</time></trkpt><trkpt lat="46.09287929073213" lon="11.635065326561264"><ele>1303.0</ele><time>2026-05-02T10:27:34.999Z</time></trkpt><trkpt lat="46.09297367244963" lon="11.63523434457022"><ele>1303.0</ele><time>2026-05-02T10:27:35.999Z</time></trkpt><trkpt lat="46.09305763250165" lon="11.63538217473545"><ele>1303.0</ele><time>2026-05-02T10:27:36.999Z</time></trkpt><trkpt lat="46.093131802380526" lon="11.63550613613988"><ele>1303.0</ele><time>2026-05-02T10:27:37.999Z</time></trkpt><trkpt lat="46.0931856414415" lon="11.635632132572958"><ele>1299.5</ele><time>2026-05-02T10:27:38.999Z</time></trkpt><trkpt lat="46.09324598717748" lon="11.635741974646393"><ele>1296.0</ele><time>2026-05-02T10:27:39.999Z</time></trkpt><trkpt lat="46.09332154106463" lon="11.635853136614754"><ele>1292.5</ele><time>2026-05-02T10:27:40.999Z</time></trkpt><trkpt lat="46.09339722472616" lon="11.635991571179975"><ele>1289.0</ele><time>2026-05-02T10:27:41.999Z</time></trkpt><trkpt lat="46.09349202348694" lon="11.636127395932315"><ele>1295.3333333333335</ele><time>2026-05-02T10:27:42.999Z</time></trkpt><trkpt lat="46.09359702025933" lon="11.636274413350797"><ele>1301.6666666666667</ele><time>2026-05-02T10:27:43.999Z</time></trkpt><trkpt lat="46.093706551592916" lon="11.636419789049214"><ele>1308.0</ele><time>2026-05-02T10:27:44.999Z</time></trkpt><trkpt lat="46.093821463545886" lon="11.636569405071397"><ele>1308.0</ele><time>2026-05-02T10:27:45.999Z</time></trkpt><trkpt lat="46.093940409768884" lon="11.63671293458234"><ele>1308.0</ele><time>2026-05-02T10:27:46.999Z</time></trkpt><trkpt lat="46.09404814527068" lon="11.636840667015214"><ele>1308.0</ele><time>2026-05-02T10:27:47.999Z</time></trkpt><trkpt lat="46.09414691897827" lon="11.636950354813193"><ele>1308.0</ele><time>2026-05-02T10:27:48.999Z</time></trkpt><trkpt lat="46.094237679560656" lon="11.637038239222171"><ele>1312.8000000000002</ele><time>2026-05-02T10:27:49.999Z</time></trkpt><trkpt lat="46.09431989791977" lon="11.637129463102664"><ele>1317.6</ele><time>2026-05-02T10:27:50.999Z</time></trkpt><trkpt lat="46.09438600688644" lon="11.637219830910894"><ele>1322.4</ele><time>2026-05-02T10:27:51.999Z</time></trkpt><trkpt lat="46.09443763306112" lon="11.637323923040572"><ele>1327.1999999999998</ele><time>2026-05-02T10:27:52.999Z</time></trkpt><trkpt lat="46.094468082720915" lon="11.637447508942655"><ele>1332.0</ele><time>2026-05-02T10:27:53.999Z</time></trkpt><trkpt lat="46.09447323017461" lon="11.637580187055761"><ele>1332.0</ele><time>2026-05-02T10:27:54.999Z</time></trkpt><trkpt lat="46.09445974550301" lon="11.637717022481343"><ele>1332.0</ele><time>2026-05-02T10:27:55.999Z</time></trkpt><trkpt lat="46.09442948490857" lon="11.637849558123696"><ele>1332.0</ele><time>2026-05-02T10:27:56.999Z</time></trkpt><trkpt lat="46.09438553615293" lon="11.637975977552713"><ele>1332.0</ele><time>2026-05-02T10:27:57.999Z</time></trkpt><trkpt lat="46.09432984701158" lon="11.638093318554608"><ele>1332.0</ele><time>2026-05-02T10:27:58.999Z</time></trkpt><trkpt lat="46.09426720118944" lon="11.638232489234454"><ele>1332.5</ele><time>2026-05-02T10:27:59.999Z</time></trkpt><trkpt lat="46.09420390264307" lon="11.63838492108773"><ele>1333.0</ele><time>2026-05-02T10:28:00.999Z</time></trkpt><trkpt lat="46.09413328219878" lon="11.638550797586715"><ele>1333.5</ele><time>2026-05-02T10:28:01.999Z</time></trkpt><trkpt lat="46.09402380301983" lon="11.638683482221069"><ele>1334.0</ele><time>2026-05-02T10:28:02.999Z</time></trkpt><trkpt lat="46.09391991414388" lon="11.63882027685799"><ele>1334.0</ele><time>2026-05-02T10:28:03.999Z</time></trkpt><trkpt lat="46.09382231023" lon="11.638961390908866"><ele>1334.0</ele><time>2026-05-02T10:28:04.999Z</time></trkpt><trkpt lat="46.09373173206571" lon="11.639078102681703"><ele>1334.0</ele><time>2026-05-02T10:28:05.999Z</time></trkpt><trkpt lat="46.0936497322259" lon="11.63920355363577"><ele>1334.0</ele><time>2026-05-02T10:28:06.999Z</time></trkpt><trkpt lat="46.093570261031445" lon="11.639300543341873"><ele>1334.0</ele><time>2026-05-02T10:28:07.999Z</time></trkpt><trkpt lat="46.09349179556671" lon="11.639401094021236"><ele>1334.0</ele><time>2026-05-02T10:28:08.999Z</time></trkpt><trkpt lat="46.09340538111114" lon="11.639490324997132"><ele>1334.0</ele><time>2026-05-02T10:28:09.999Z</time></trkpt><trkpt lat="46.093351306074126" lon="11.639627642388676"><ele>1334.0</ele><time>2026-05-02T10:28:10.999Z</time></trkpt><trkpt lat="46.09329779310522" lon="11.639773468711637"><ele>1334.0</ele><time>2026-05-02T10:28:11.999Z</time></trkpt><trkpt lat="46.09323449671651" lon="11.639926955709546"><ele>1332.0</ele><time>2026-05-02T10:28:12.999Z</time></trkpt><trkpt lat="46.0931758656719" lon="11.640081994580905"><ele>1330.0</ele><time>2026-05-02T10:28:13.999Z</time></trkpt><trkpt lat="46.093107006620194" lon="11.640245639246116"><ele>1328.0</ele><time>2026-05-02T10:28:14.999Z</time></trkpt><trkpt lat="46.093054494085216" lon="11.640422197527771"><ele>1326.0</ele><time>2026-05-02T10:28:15.999Z</time></trkpt><trkpt lat="46.09301619995456" lon="11.640587276227723"><ele>1331.25</ele><time>2026-05-02T10:28:16.999Z</time></trkpt><trkpt lat="46.09297224451636" lon="11.6407601468093"><ele>1336.5</ele><time>2026-05-02T10:28:17.999Z</time></trkpt><trkpt lat="46.09289105626184" lon="11.640905485616118"><ele>1341.75</ele><time>2026-05-02T10:28:18.999Z</time></trkpt><trkpt lat="46.09277251221954" lon="11.641005732608116"><ele>1347.0</ele><time>2026-05-02T10:28:19.999Z</time></trkpt><trkpt lat="46.09264181266847" lon="11.64104152262018"><ele>1350.6666666666667</ele><time>2026-05-02T10:28:20.999Z</time></trkpt><trkpt lat="46.092484612497024" lon="11.641165997443267"><ele>1354.3333333333335</ele><time>2026-05-02T10:28:21.999Z</time></trkpt><trkpt lat="46.0923658316524" lon="11.641237961798723"><ele>1358.0</ele><time>2026-05-02T10:28:22.999Z</time></trkpt><trkpt lat="46.09222993850745" lon="11.641392283055252"><ele>1358.0</ele><time>2026-05-02T10:28:23.999Z</time></trkpt><trkpt lat="46.09211332039232" lon="11.641610760434297"><ele>1358.0</ele><time>2026-05-02T10:28:24.999Z</time></trkpt><trkpt lat="46.09198556447128" lon="11.641832847893191"><ele>1358.0</ele><time>2026-05-02T10:28:25.999Z</time></trkpt><trkpt lat="46.091883118278986" lon="11.6420182075674"><ele>1364.25</ele><time>2026-05-02T10:28:26.999Z</time></trkpt><trkpt lat="46.09176462246583" lon="11.642150085672187"><ele>1370.5</ele><time>2026-05-02T10:28:27.999Z</time></trkpt><trkpt lat="46.09162818720483" lon="11.642207703639091"><ele>1376.75</ele><time>2026-05-02T10:28:28.999Z</time></trkpt><trkpt lat="46.09148094375174" lon="11.642182235224922"><ele>1383.0</ele><time>2026-05-02T10:28:29.999Z</time></trkpt><trkpt lat="46.091300447542324" lon="11.642164854162917"><ele>1383.3333333333333</ele><time>2026-05-02T10:28:30.999Z</time></trkpt><trkpt lat="46.09109957704139" lon="11.642143423816636"><ele>1383.6666666666665</ele><time>2026-05-02T10:28:31.999Z</time></trkpt><trkpt lat="46.09089920466728" lon="11.642141751664427"><ele>1384.0</ele><time>2026-05-02T10:28:32.999Z</time></trkpt><trkpt lat="46.090695321398314" lon="11.642200524198264"><ele>1380.6666666666665</ele><time>2026-05-02T10:28:33.999Z</time></trkpt><trkpt lat="46.090513894375505" lon="11.642242207720196"><ele>1377.3333333333333</ele><time>2026-05-02T10:28:34.998Z</time></trkpt><trkpt lat="46.09035928591989" lon="11.64225235190695"><ele>1374.0</ele><time>2026-05-02T10:28:35.998Z</time></trkpt><trkpt lat="46.09023036535863" lon="11.642302260966213"><ele>1374.0</ele><time>2026-05-02T10:28:36.998Z</time></trkpt><trkpt lat="46.09011106284817" lon="11.642327534839886"><ele>1374.0</ele><time>2026-05-02T10:28:37.998Z</time></trkpt><trkpt lat="46.09000275010876" lon="11.642382189981207"><ele>1374.0</ele><time>2026-05-02T10:28:38.998Z</time></trkpt><trkpt lat="46.089896454169136" lon="11.642481867080992"><ele>1374.0</ele><time>2026-05-02T10:28:39.998Z</time></trkpt><trkpt lat="46.08980158076333" lon="11.642609226527355"><ele>1368.75</ele><time>2026-05-02T10:28:40.998Z</time></trkpt><trkpt lat="46.08973140354239" lon="11.642780376345842"><ele>1363.5</ele><time>2026-05-02T10:28:41.998Z</time></trkpt><trkpt lat="46.08967725802599" lon="11.64297446352186"><ele>1358.25</ele><time>2026-05-02T10:28:42.998Z</time></trkpt><trkpt lat="46.08964260153898" lon="11.643181739959237"><ele>1353.0</ele><time>2026-05-02T10:28:43.998Z</time></trkpt><trkpt lat="46.08961098857184" lon="11.643349399149887"><ele>1353.0</ele><time>2026-05-02T10:28:44.998Z</time></trkpt><trkpt lat="46.089581009758234" lon="11.643470524702504"><ele>1353.0</ele><time>2026-05-02T10:28:45.998Z</time></trkpt><trkpt lat="46.08956220786756" lon="11.643572280514904"><ele>1353.0</ele><time>2026-05-02T10:28:46.998Z</time></trkpt><trkpt lat="46.089582428399076" lon="11.643677195222159"><ele>1353.0</ele><time>2026-05-02T10:28:47.998Z</time></trkpt><trkpt lat="46.089656296602314" lon="11.643743473723054"><ele>1353.0</ele><time>2026-05-02T10:28:48.998Z</time></trkpt><trkpt lat="46.08975318161995" lon="11.64370976482232"><ele>1353.0</ele><time>2026-05-02T10:28:49.998Z</time></trkpt><trkpt lat="46.089813822441734" lon="11.64359413761568"><ele>1353.0</ele><time>2026-05-02T10:28:50.998Z</time></trkpt><trkpt lat="46.08982103949307" lon="11.643432596621695"><ele>1353.0</ele><time>2026-05-02T10:28:51.998Z</time></trkpt><trkpt lat="46.08978903910591" lon="11.643190514493748"><ele>1353.0</ele><time>2026-05-02T10:28:52.998Z</time></trkpt><trkpt lat="46.08982382148781" lon="11.642995786759055"><ele>1353.0</ele><time>2026-05-02T10:28:53.998Z</time></trkpt><trkpt lat="46.08990823964709" lon="11.642825172544581"><ele>1358.25</ele><time>2026-05-02T10:28:54.998Z</time></trkpt><trkpt lat="46.09001007850188" lon="11.642711350593794"><ele>1363.5</ele><time>2026-05-02T10:28:55.998Z</time></trkpt><trkpt lat="46.09014286192791" lon="11.642679053689116"><ele>1368.75</ele><time>2026-05-02T10:28:56.998Z</time></trkpt><trkpt lat="46.09028801048406" lon="11.642666236853215"><ele>1374.0</ele><time>2026-05-02T10:28:57.998Z</time></trkpt><trkpt lat="46.090447161968974" lon="11.642676020919408"><ele>1374.0</ele><time>2026-05-02T10:28:58.998Z</time></trkpt><trkpt lat="46.09062164646322" lon="11.642687425713165"><ele>1374.0</ele><time>2026-05-02T10:28:59.998Z</time></trkpt><trkpt lat="46.09077055938928" lon="11.642690205272297"><ele>1374.0</ele><time>2026-05-02T10:29:00.998Z</time></trkpt><trkpt lat="46.09089381406595" lon="11.64269388313719"><ele>1374.0</ele><time>2026-05-02T10:29:01.998Z</time></trkpt><trkpt lat="46.09101134900963" lon="11.642724110252114"><ele>1376.5</ele><time>2026-05-02T10:29:02.998Z</time></trkpt><trkpt lat="46.09112415303303" lon="11.64278955977316"><ele>1379.0</ele><time>2026-05-02T10:29:04Z</time></trkpt><trkpt lat="46.09125506239615" lon="11.642854776809463"><ele>1381.5</ele><time>2026-05-02T10:29:05Z</time></trkpt><trkpt lat="46.091386118016516" lon="11.642937263105017"><ele>1384.0</ele><time>2026-05-02T10:29:06Z</time></trkpt><trkpt lat="46.091514390387445" lon="11.643032182524667"><ele>1390.5</ele><time>2026-05-02T10:29:07Z</time></trkpt><trkpt lat="46.09164351346634" lon="11.643122322444386"><ele>1397.0</ele><time>2026-05-02T10:29:08Z</time></trkpt><trkpt lat="46.091753979707704" lon="11.643198768164511"><ele>1403.5</ele><time>2026-05-02T10:29:09Z</time></trkpt><trkpt lat="46.0918448659641" lon="11.643269706453818"><ele>1410.0</ele><time>2026-05-02T10:29:10Z</time></trkpt><trkpt lat="46.09193630991464" lon="11.643287953682336"><ele>1410.0</ele><time>2026-05-02T10:29:11Z</time></trkpt><trkpt lat="46.09202528622094" lon="11.643283061631475"><ele>1410.0</ele><time>2026-05-02T10:29:12Z</time></trkpt><trkpt lat="46.092109413982755" lon="11.643176891791132"><ele>1410.0</ele><time>2026-05-02T10:29:13Z</time></trkpt><trkpt lat="46.092182085891345" lon="11.643106450098497"><ele>1410.0</ele><time>2026-05-02T10:29:14Z</time></trkpt><trkpt lat="46.092244373347626" lon="11.643070792625316"><ele>1410.0</ele><time>2026-05-02T10:29:15Z</time></trkpt><trkpt lat="46.09231039566257" lon="11.64319961129402"><ele>1410.0</ele><time>2026-05-02T10:29:17Z</time></trkpt><trkpt lat="46.09227521290467" lon="11.643313425471074"><ele>1410.0</ele><time>2026-05-02T10:29:18Z</time></trkpt><trkpt lat="46.092189061489236" lon="11.64340242836748"><ele>1410.0</ele><time>2026-05-02T10:29:19Z</time></trkpt><trkpt lat="46.092050898147534" lon="11.643385336901265"><ele>1410.0</ele><time>2026-05-02T10:29:20Z</time></trkpt><trkpt lat="46.09190124936696" lon="11.643410293866033"><ele>1410.0</ele><time>2026-05-02T10:29:21Z</time></trkpt><trkpt lat="46.0917389344582" lon="11.64335034104299"><ele>1410.0</ele><time>2026-05-02T10:29:22Z</time></trkpt><trkpt lat="46.09158061608295" lon="11.643284064772633"><ele>1410.0</ele><time>2026-05-02T10:29:23Z</time></trkpt><trkpt lat="46.09142484137873" lon="11.643232063485254"><ele>1410.5</ele><time>2026-05-02T10:29:24Z</time></trkpt><trkpt lat="46.09127872253264" lon="11.643173129184976"><ele>1411.0</ele><time>2026-05-02T10:29:25Z</time></trkpt><trkpt lat="46.09115556864168" lon="11.643138434450014"><ele>1411.5</ele><time>2026-05-02T10:29:26Z</time></trkpt><trkpt lat="46.09105429359172" lon="11.643107991747282"><ele>1412.0</ele><time>2026-05-02T10:29:27Z</time></trkpt><trkpt lat="46.09095282946535" lon="11.643108216599142"><ele>1412.0</ele><time>2026-05-02T10:29:28Z</time></trkpt><trkpt lat="46.09084346753274" lon="11.643118740487179"><ele>1412.0</ele><time>2026-05-02T10:29:29Z</time></trkpt><trkpt lat="46.09072742119117" lon="11.643150710964647"><ele>1412.0</ele><time>2026-05-02T10:29:30Z</time></trkpt><trkpt lat="46.090610747523556" lon="11.643171830243661"><ele>1412.0</ele><time>2026-05-02T10:29:31Z</time></trkpt><trkpt lat="46.09050475719328" lon="11.643181770790685"><ele>1409.6</ele><time>2026-05-02T10:29:32Z</time></trkpt><trkpt lat="46.09041893145584" lon="11.64319705096673"><ele>1407.1999999999998</ele><time>2026-05-02T10:29:33Z</time></trkpt><trkpt lat="46.090346656106796" lon="11.643249369899072"><ele>1404.8</ele><time>2026-05-02T10:29:34Z</time></trkpt><trkpt lat="46.09030374207211" lon="11.643362324706068"><ele>1402.4</ele><time>2026-05-02T10:29:35Z</time></trkpt><trkpt lat="46.09030608903909" lon="11.643509659777234"><ele>1400.0</ele><time>2026-05-02T10:29:36Z</time></trkpt><trkpt lat="46.090344243297366" lon="11.64365190967076"><ele>1400.0</ele><time>2026-05-02T10:29:37Z</time></trkpt><trkpt lat="46.090445439606746" lon="11.643734201025962"><ele>1400.0</ele><time>2026-05-02T10:29:38Z</time></trkpt><trkpt lat="46.09057288591383" lon="11.643726052883618"><ele>1400.0</ele><time>2026-05-02T10:29:39Z</time></trkpt><trkpt lat="46.090678035871704" lon="11.64354853603152"><ele>1400.0</ele><time>2026-05-02T10:29:40Z</time></trkpt><trkpt lat="46.090773132894284" lon="11.643421933849273"><ele>1403.0</ele><time>2026-05-02T10:29:41Z</time></trkpt><trkpt lat="46.090892070705536" lon="11.643409090751595"><ele>1406.0</ele><time>2026-05-02T10:29:42Z</time></trkpt><trkpt lat="46.0910062336031" lon="11.64343794709388"><ele>1409.0</ele><time>2026-05-02T10:29:43Z</time></trkpt><trkpt lat="46.091127857984205" lon="11.643492816382796"><ele>1412.0</ele><time>2026-05-02T10:29:44Z</time></trkpt><trkpt lat="46.09124747330619" lon="11.643559119572286"><ele>1415.5</ele><time>2026-05-02T10:29:44.999Z</time></trkpt><trkpt lat="46.09136213833526" lon="11.643646262940432"><ele>1419.0</ele><time>2026-05-02T10:29:45.999Z</time></trkpt><trkpt lat="46.09149340504403" lon="11.64375396633712"><ele>1422.5</ele><time>2026-05-02T10:29:46.999Z</time></trkpt><trkpt lat="46.09161165365275" lon="11.643827878619486"><ele>1426.0</ele><time>2026-05-02T10:29:47.999Z</time></trkpt><trkpt lat="46.09170566846346" lon="11.643917742662778"><ele>1430.5</ele><time>2026-05-02T10:29:48.999Z</time></trkpt><trkpt lat="46.09179665761575" lon="11.643994752312773"><ele>1435.0</ele><time>2026-05-02T10:29:49.999Z</time></trkpt><trkpt lat="46.09189685164983" lon="11.644064356723682"><ele>1439.5</ele><time>2026-05-02T10:29:50.999Z</time></trkpt><trkpt lat="46.09199521205545" lon="11.644136968908814"><ele>1444.0</ele><time>2026-05-02T10:29:51.999Z</time></trkpt><trkpt lat="46.09211826749648" lon="11.644144330961023"><ele>1444.0</ele><time>2026-05-02T10:29:52.999Z</time></trkpt><trkpt lat="46.092258967950244" lon="11.644139864269583"><ele>1444.0</ele><time>2026-05-02T10:29:53.999Z</time></trkpt><trkpt lat="46.09241724661357" lon="11.644096229447603"><ele>1444.0</ele><time>2026-05-02T10:29:54.999Z</time></trkpt><trkpt lat="46.092560203351965" lon="11.64398810045982"><ele>1446.3333333333333</ele><time>2026-05-02T10:29:55.999Z</time></trkpt><trkpt lat="46.09270379224896" lon="11.643855078666318"><ele>1448.6666666666667</ele><time>2026-05-02T10:29:56.999Z</time></trkpt><trkpt lat="46.092870382606904" lon="11.643752034891468"><ele>1451.0</ele><time>2026-05-02T10:29:57.999Z</time></trkpt><trkpt lat="46.09305080968791" lon="11.643671778661535"><ele>1450.0</ele><time>2026-05-02T10:29:58.999Z</time></trkpt><trkpt lat="46.09324341575546" lon="11.643573107839925"><ele>1449.0</ele><time>2026-05-02T10:29:59.999Z</time></trkpt><trkpt lat="46.093441594041266" lon="11.643476513685787"><ele>1448.0</ele><time>2026-05-02T10:30:00.999Z</time></trkpt><trkpt lat="46.09360310813264" lon="11.64333547388328"><ele>1448.0</ele><time>2026-05-02T10:30:01.999Z</time></trkpt><trkpt lat="46.09374137470602" lon="11.643184367736659"><ele>1448.0</ele><time>2026-05-02T10:30:02.999Z</time></trkpt><trkpt lat="46.09389302168305" lon="11.643066166254023"><ele>1448.0</ele><time>2026-05-02T10:30:03.999Z</time></trkpt><trkpt lat="46.09404685262867" lon="11.642932862472998"><ele>1445.0</ele><time>2026-05-02T10:30:04.999Z</time></trkpt><trkpt lat="46.094217044066745" lon="11.642861397115384"><ele>1442.0</ele><time>2026-05-02T10:30:05.999Z</time></trkpt><trkpt lat="46.094388038426494" lon="11.642785778859894"><ele>1439.0</ele><time>2026-05-02T10:30:06.999Z</time></trkpt><trkpt lat="46.094555660624444" lon="11.642713721380037"><ele>1439.0</ele><time>2026-05-02T10:30:07.999Z</time></trkpt><trkpt lat="46.094724160216124" lon="11.642609842030616"><ele>1439.0</ele><time>2026-05-02T10:30:08.999Z</time></trkpt><trkpt lat="46.09489280823216" lon="11.64250055040876"><ele>1439.0</ele><time>2026-05-02T10:30:09.999Z</time></trkpt><trkpt lat="46.09506521541619" lon="11.642401836345444"><ele>1446.0</ele><time>2026-05-02T10:30:10.999Z</time></trkpt><trkpt lat="46.09523051507499" lon="11.642307107168794"><ele>1453.0</ele><time>2026-05-02T10:30:11.999Z</time></trkpt><trkpt lat="46.09539145685994" lon="11.642208232568008"><ele>1460.0</ele><time>2026-05-02T10:30:12.999Z</time></trkpt><trkpt lat="46.09554785602421" lon="11.642115833129047"><ele>1460.0</ele><time>2026-05-02T10:30:13.999Z</time></trkpt><trkpt lat="46.09569507623914" lon="11.642023283246049"><ele>1460.0</ele><time>2026-05-02T10:30:14.999Z</time></trkpt><trkpt lat="46.09583848742272" lon="11.641927643272693"><ele>1460.0</ele><time>2026-05-02T10:30:15.999Z</time></trkpt><trkpt lat="46.095980702742395" lon="11.641834848212016"><ele>1460.0</ele><time>2026-05-02T10:30:16.999Z</time></trkpt><trkpt lat="46.09611973242903" lon="11.64176693032228"><ele>1460.0</ele><time>2026-05-02T10:30:17.999Z</time></trkpt><trkpt lat="46.09626589721385" lon="11.641722120817505"><ele>1460.0</ele><time>2026-05-02T10:30:18.999Z</time></trkpt><trkpt lat="46.09642396865381" lon="11.641729191303618"><ele>1465.6666666666667</ele><time>2026-05-02T10:30:19.999Z</time></trkpt><trkpt lat="46.09659280071236" lon="11.641738857549832"><ele>1471.3333333333333</ele><time>2026-05-02T10:30:20.999Z</time></trkpt><trkpt lat="46.09675442458945" lon="11.64173242500023"><ele>1477.0</ele><time>2026-05-02T10:30:21.999Z</time></trkpt><trkpt lat="46.096898241238" lon="11.641756106296466"><ele>1477.0</ele><time>2026-05-02T10:30:22.999Z</time></trkpt><trkpt lat="46.09703269340986" lon="11.641756710239234"><ele>1477.0</ele><time>2026-05-02T10:30:23.999Z</time></trkpt><trkpt lat="46.097186217901466" lon="11.641756644425612"><ele>1477.0</ele><time>2026-05-02T10:30:24.999Z</time></trkpt><trkpt lat="46.097347729843825" lon="11.641713499490384"><ele>1480.6666666666665</ele><time>2026-05-02T10:30:25.999Z</time></trkpt><trkpt lat="46.0975059609939" lon="11.641633549266027"><ele>1484.3333333333333</ele><time>2026-05-02T10:30:26.999Z</time></trkpt><trkpt lat="46.09765824579742" lon="11.641505737499978"><ele>1488.0</ele><time>2026-05-02T10:30:27.999Z</time></trkpt><trkpt lat="46.09780457695444" lon="11.641356894106881"><ele>1488.0</ele><time>2026-05-02T10:30:28.999Z</time></trkpt><trkpt lat="46.09795740274775" lon="11.64121593057815"><ele>1488.0</ele><time>2026-05-02T10:30:29.999Z</time></trkpt><trkpt lat="46.09811293895834" lon="11.641077487275869"><ele>1488.0</ele><time>2026-05-02T10:30:30.999Z</time></trkpt><trkpt lat="46.09826433522864" lon="11.64094419232693"><ele>1487.5</ele><time>2026-05-02T10:30:31.999Z</time></trkpt><trkpt lat="46.098403522017826" lon="11.640823342678207"><ele>1487.0</ele><time>2026-05-02T10:30:32.999Z</time></trkpt><trkpt lat="46.09851464175552" lon="11.640713684286318"><ele>1486.5</ele><time>2026-05-02T10:30:33.999Z</time></trkpt><trkpt lat="46.09863422921906" lon="11.640618941420916"><ele>1486.0</ele><time>2026-05-02T10:30:34.999Z</time></trkpt><trkpt lat="46.098756405936136" lon="11.640506903120874"><ele>1486.0</ele><time>2026-05-02T10:30:35.999Z</time></trkpt><trkpt lat="46.0988789926768" lon="11.640383632349408"><ele>1486.0</ele><time>2026-05-02T10:30:36.999Z</time></trkpt><trkpt lat="46.09900390445002" lon="11.640262466556578"><ele>1486.0</ele><time>2026-05-02T10:30:37.999Z</time></trkpt><trkpt lat="46.09913364410421" lon="11.640147195620168"><ele>1490.0</ele><time>2026-05-02T10:30:38.999Z</time></trkpt><trkpt lat="46.099272114227176" lon="11.640031965137936"><ele>1494.0</ele><time>2026-05-02T10:30:39.999Z</time></trkpt><trkpt lat="46.09939942646466" lon="11.639911759876234"><ele>1498.0</ele><time>2026-05-02T10:30:40.999Z</time></trkpt><trkpt lat="46.09952399524031" lon="11.639753741938836"><ele>1498.0</ele><time>2026-05-02T10:30:41.999Z</time></trkpt><trkpt lat="46.099612394289224" lon="11.639543198719958"><ele>1498.0</ele><time>2026-05-02T10:30:42.999Z</time></trkpt><trkpt lat="46.09967914723005" lon="11.639301708324334"><ele>1498.0</ele><time>2026-05-02T10:30:43.999Z</time></trkpt><trkpt lat="46.09972697993291" lon="11.63902871483351"><ele>1494.6666666666665</ele><time>2026-05-02T10:30:44.998Z</time></trkpt><trkpt lat="46.099775851286125" lon="11.638779394054025"><ele>1491.3333333333333</ele><time>2026-05-02T10:30:45.998Z</time></trkpt><trkpt lat="46.09983173314381" lon="11.638552702416932"><ele>1488.0</ele><time>2026-05-02T10:30:46.998Z</time></trkpt><trkpt lat="46.09987701983243" lon="11.638337537028741"><ele>1486.25</ele><time>2026-05-02T10:30:47.998Z</time></trkpt><trkpt lat="46.099909229017875" lon="11.638145125458637"><ele>1484.5</ele><time>2026-05-02T10:30:48.998Z</time></trkpt><trkpt lat="46.099949859069916" lon="11.637987486734012"><ele>1482.75</ele><time>2026-05-02T10:30:49.998Z</time></trkpt><trkpt lat="46.099983670912295" lon="11.637837271419592"><ele>1481.0</ele><time>2026-05-02T10:30:50.998Z</time></trkpt><trkpt lat="46.09999729625415" lon="11.63766023541164"><ele>1487.4</ele><time>2026-05-02T10:30:51.998Z</time></trkpt><trkpt lat="46.09998519114849" lon="11.637464815240776"><ele>1493.8</ele><time>2026-05-02T10:30:52.998Z</time></trkpt><trkpt lat="46.099964674789014" lon="11.637293168923511"><ele>1500.2</ele><time>2026-05-02T10:30:53.998Z</time></trkpt><trkpt lat="46.0999586530278" lon="11.63715975288833"><ele>1506.6000000000001</ele><time>2026-05-02T10:30:54.998Z</time></trkpt><trkpt lat="46.099973384796805" lon="11.637060118333107"><ele>1513.0</ele><time>2026-05-02T10:30:55.998Z</time></trkpt><trkpt lat="46.10002199256256" lon="11.637000783948189"><ele>1513.0</ele><time>2026-05-02T10:30:56.998Z</time></trkpt><trkpt lat="46.100107899054265" lon="11.637036861366791"><ele>1513.0</ele><time>2026-05-02T10:30:57.998Z</time></trkpt><trkpt lat="46.10016871653875" lon="11.637129733143734"><ele>1513.0</ele><time>2026-05-02T10:30:58.998Z</time></trkpt><trkpt lat="46.10014054526635" lon="11.637298277882929"><ele>1513.0</ele><time>2026-05-02T10:30:59.998Z</time></trkpt><trkpt lat="46.10012461469818" lon="11.637472096232736"><ele>1513.0</ele><time>2026-05-02T10:31:00.998Z</time></trkpt><trkpt lat="46.10011354585024" lon="11.637706555837468"><ele>1514.0</ele><time>2026-05-02T10:31:01.998Z</time></trkpt><trkpt lat="46.1001188427604" lon="11.637944184242546"><ele>1515.0</ele><time>2026-05-02T10:31:02.998Z</time></trkpt><trkpt lat="46.100111620334715" lon="11.638149777525069"><ele>1516.0</ele><time>2026-05-02T10:31:03.998Z</time></trkpt><trkpt lat="46.10008374216284" lon="11.638347639246604"><ele>1517.0</ele><time>2026-05-02T10:31:04.998Z</time></trkpt><trkpt lat="46.10007202581087" lon="11.638550401970019"><ele>1518.75</ele><time>2026-05-02T10:31:05.998Z</time></trkpt><trkpt lat="46.10006074847599" lon="11.638760674799162"><ele>1520.5</ele><time>2026-05-02T10:31:06.998Z</time></trkpt><trkpt lat="46.100050798177875" lon="11.638964239876312"><ele>1522.25</ele><time>2026-05-02T10:31:07.998Z</time></trkpt><trkpt lat="46.1000479697421" lon="11.639160947771318"><ele>1524.0</ele><time>2026-05-02T10:31:08.998Z</time></trkpt><trkpt lat="46.100057637734395" lon="11.639341784538791"><ele>1524.6</ele><time>2026-05-02T10:31:10Z</time></trkpt><trkpt lat="46.1000732649004" lon="11.639519786150705"><ele>1525.2</ele><time>2026-05-02T10:31:11Z</time></trkpt><trkpt lat="46.10009058349249" lon="11.639682563450796"><ele>1525.8</ele><time>2026-05-02T10:31:12Z</time></trkpt><trkpt lat="46.10010698132607" lon="11.63983104172915"><ele>1526.3999999999999</ele><time>2026-05-02T10:31:13Z</time></trkpt><trkpt lat="46.10013711942704" lon="11.639959485306047"><ele>1527.0</ele><time>2026-05-02T10:31:14Z</time></trkpt><trkpt lat="46.10014291488959" lon="11.640082199446999"><ele>1527.0</ele><time>2026-05-02T10:31:15Z</time></trkpt><trkpt lat="46.10014426121659" lon="11.640206946146508"><ele>1527.0</ele><time>2026-05-02T10:31:16Z</time></trkpt><trkpt lat="46.100145474544526" lon="11.640315408780477"><ele>1527.0</ele><time>2026-05-02T10:31:17Z</time></trkpt><trkpt lat="46.10012880878102" lon="11.640457834085872"><ele>1527.0</ele><time>2026-05-02T10:31:18Z</time></trkpt><trkpt lat="46.100065553750774" lon="11.640595209184792"><ele>1527.0</ele><time>2026-05-02T10:31:19Z</time></trkpt><trkpt lat="46.09998405381874" lon="11.640752312711948"><ele>1528.5</ele><time>2026-05-02T10:31:20Z</time></trkpt><trkpt lat="46.09989087378392" lon="11.640919557392436"><ele>1530.0</ele><time>2026-05-02T10:31:21Z</time></trkpt><trkpt lat="46.099807440169386" lon="11.64110738229518"><ele>1531.5</ele><time>2026-05-02T10:31:22Z</time></trkpt><trkpt lat="46.09970584710577" lon="11.64125412991197"><ele>1533.0</ele><time>2026-05-02T10:31:23Z</time></trkpt><trkpt lat="46.09962093830836" lon="11.641394860594803"><ele>1533.0</ele><time>2026-05-02T10:31:24Z</time></trkpt><trkpt lat="46.09953607500032" lon="11.64151255861841"><ele>1533.0</ele><time>2026-05-02T10:31:25Z</time></trkpt><trkpt lat="46.09945230512386" lon="11.64160023918528"><ele>1533.0</ele><time>2026-05-02T10:31:26Z</time></trkpt><trkpt lat="46.09936452270681" lon="11.641683505492537"><ele>1533.0</ele><time>2026-05-02T10:31:27Z</time></trkpt><trkpt lat="46.09927375436143" lon="11.641782594722978"><ele>1533.0</ele><time>2026-05-02T10:31:28Z</time></trkpt><trkpt lat="46.09918477631463" lon="11.64181968283377"><ele>1533.0</ele><time>2026-05-02T10:31:29Z</time></trkpt><trkpt lat="46.09911641196944" lon="11.641874966179305"><ele>1533.0</ele><time>2026-05-02T10:31:30Z</time></trkpt><trkpt lat="46.099067810805494" lon="11.641974878076528"><ele>1533.0</ele><time>2026-05-02T10:31:31Z</time></trkpt><trkpt lat="46.09907139217288" lon="11.642097614010304"><ele>1533.0</ele><time>2026-05-02T10:31:32Z</time></trkpt><trkpt lat="46.099190067659286" lon="11.642206976700024"><ele>1533.0</ele><time>2026-05-02T10:31:34Z</time></trkpt><trkpt lat="46.09928703765065" lon="11.642153417624888"><ele>1533.0</ele><time>2026-05-02T10:31:35Z</time></trkpt><trkpt lat="46.099364639704426" lon="11.6420305852138"><ele>1533.0</ele><time>2026-05-02T10:31:36Z</time></trkpt><trkpt lat="46.09944840217641" lon="11.641901254201615"><ele>1533.0</ele><time>2026-05-02T10:31:37Z</time></trkpt><trkpt lat="46.09955591053056" lon="11.64179259696975"><ele>1533.0</ele><time>2026-05-02T10:31:38Z</time></trkpt><trkpt lat="46.099673002474105" lon="11.641688189729583"><ele>1533.0</ele><time>2026-05-02T10:31:39Z</time></trkpt><trkpt lat="46.09980388218955" lon="11.641609684364957"><ele>1533.0</ele><time>2026-05-02T10:31:40Z</time></trkpt><trkpt lat="46.09993448715195" lon="11.641527581960945"><ele>1533.0</ele><time>2026-05-02T10:31:41Z</time></trkpt><trkpt lat="46.10007184614254" lon="11.641441483178532"><ele>1533.0</ele><time>2026-05-02T10:31:42Z</time></trkpt><trkpt lat="46.10020790305505" lon="11.64135131341402"><ele>1538.0</ele><time>2026-05-02T10:31:43Z</time></trkpt><trkpt lat="46.100336952558095" lon="11.641265609008006"><ele>1543.0</ele><time>2026-05-02T10:31:44Z</time></trkpt><trkpt lat="46.100440085352865" lon="11.641201192182129"><ele>1548.0</ele><time>2026-05-02T10:31:45Z</time></trkpt><trkpt lat="46.100548002437954" lon="11.641161260143354"><ele>1553.0</ele><time>2026-05-02T10:31:46Z</time></trkpt><trkpt lat="46.10066062908801" lon="11.641148983844058"><ele>1557.5</ele><time>2026-05-02T10:31:47Z</time></trkpt><trkpt lat="46.10076868347973" lon="11.641169424484868"><ele>1562.0</ele><time>2026-05-02T10:31:48Z</time></trkpt><trkpt lat="46.10087942487238" lon="11.641218616402472"><ele>1566.5</ele><time>2026-05-02T10:31:49Z</time></trkpt><trkpt lat="46.100993121196865" lon="11.641275459647565"><ele>1571.0</ele><time>2026-05-02T10:31:50Z</time></trkpt><trkpt lat="46.10111330735912" lon="11.641337084645528"><ele>1571.0</ele><time>2026-05-02T10:31:51Z</time></trkpt><trkpt lat="46.10123434003772" lon="11.641399673936034"><ele>1571.0</ele><time>2026-05-02T10:31:52Z</time></trkpt><trkpt lat="46.101361360272065" lon="11.641464948443526"><ele>1571.0</ele><time>2026-05-02T10:31:53Z</time></trkpt><trkpt lat="46.10148501213455" lon="11.641525262938858"><ele>1571.0</ele><time>2026-05-02T10:31:54Z</time></trkpt><trkpt lat="46.10161218197195" lon="11.641571078952047"><ele>1570.8</ele><time>2026-05-02T10:31:55Z</time></trkpt><trkpt lat="46.10170859012847" lon="11.641620436519943"><ele>1570.6</ele><time>2026-05-02T10:31:56Z</time></trkpt><trkpt lat="46.10178701601269" lon="11.641674053846703"><ele>1570.4</ele><time>2026-05-02T10:31:57Z</time></trkpt><trkpt lat="46.10186002930253" lon="11.641690206637502"><ele>1570.2</ele><time>2026-05-02T10:31:58Z</time></trkpt><trkpt lat="46.10192589791437" lon="11.641677963792505"><ele>1570.0</ele><time>2026-05-02T10:31:58.999Z</time></trkpt><trkpt lat="46.10204891166453" lon="11.641702119338598"><ele>1570.0</ele><time>2026-05-02T10:32:00.999Z</time></trkpt><trkpt lat="46.10214045207491" lon="11.641804594712783"><ele>1570.0</ele><time>2026-05-02T10:32:02.999Z</time></trkpt><trkpt lat="46.10213474850552" lon="11.641913567502217"><ele>1570.0</ele><time>2026-05-02T10:32:03.999Z</time></trkpt><trkpt lat="46.10206431697317" lon="11.641981905044998"><ele>1570.0</ele><time>2026-05-02T10:32:04.999Z</time></trkpt><trkpt lat="46.10197200424303" lon="11.641989363126344"><ele>1570.0</ele><time>2026-05-02T10:32:05.999Z</time></trkpt><trkpt lat="46.101869811379935" lon="11.641928862643159"><ele>1570.0</ele><time>2026-05-02T10:32:06.999Z</time></trkpt><trkpt lat="46.10173965199617" lon="11.641905649120021"><ele>1570.0</ele><time>2026-05-02T10:32:07.999Z</time></trkpt><trkpt lat="46.10158885229447" lon="11.641899693996253"><ele>1570.0</ele><time>2026-05-02T10:32:08.999Z</time></trkpt><trkpt lat="46.10141237644256" lon="11.641925092634233"><ele>1581.3333333333335</ele><time>2026-05-02T10:32:09.999Z</time></trkpt><trkpt lat="46.101257333742524" lon="11.64198564349968"><ele>1592.6666666666665</ele><time>2026-05-02T10:32:10.999Z</time></trkpt><trkpt lat="46.101108377940655" lon="11.642013959315623"><ele>1604.0</ele><time>2026-05-02T10:32:11.999Z</time></trkpt><trkpt lat="46.100956276131335" lon="11.642047851684145"><ele>1604.0</ele><time>2026-05-02T10:32:12.999Z</time></trkpt><trkpt lat="46.10080793533243" lon="11.642081242095445"><ele>1604.0</ele><time>2026-05-02T10:32:13.999Z</time></trkpt><trkpt lat="46.10067962379708" lon="11.642112119530902"><ele>1604.0</ele><time>2026-05-02T10:32:14.999Z</time></trkpt><trkpt lat="46.10056937924659" lon="11.64213358378331"><ele>1604.0</ele><time>2026-05-02T10:32:15.999Z</time></trkpt><trkpt lat="46.10048310364969" lon="11.642154635327483"><ele>1599.4</ele><time>2026-05-02T10:32:16.999Z</time></trkpt><trkpt lat="46.10042240331352" lon="11.642213280799819"><ele>1594.8000000000002</ele><time>2026-05-02T10:32:17.999Z</time></trkpt><trkpt lat="46.10039778348489" lon="11.642314338982056"><ele>1590.1999999999998</ele><time>2026-05-02T10:32:18.999Z</time></trkpt><trkpt lat="46.100415323834426" lon="11.642436927669822"><ele>1585.6</ele><time>2026-05-02T10:32:19.999Z</time></trkpt><trkpt lat="46.100499599228655" lon="11.64251313093878"><ele>1581.0</ele><time>2026-05-02T10:32:20.999Z</time></trkpt><trkpt lat="46.10062636270339" lon="11.64246749417541"><ele>1581.0</ele><time>2026-05-02T10:32:21.999Z</time></trkpt><trkpt lat="46.10074683075265" lon="11.642403037910537"><ele>1581.0</ele><time>2026-05-02T10:32:22.999Z</time></trkpt><trkpt lat="46.100897377988325" lon="11.642356187991531"><ele>1581.0</ele><time>2026-05-02T10:32:23.999Z</time></trkpt><trkpt lat="46.10106114497802" lon="11.642402245964425"><ele>1581.0</ele><time>2026-05-02T10:32:24.999Z</time></trkpt><trkpt lat="46.10121309796146" lon="11.6424387607647"><ele>1587.6666666666665</ele><time>2026-05-02T10:32:25.999Z</time></trkpt><trkpt lat="46.10136013533222" lon="11.64247488441349"><ele>1594.3333333333333</ele><time>2026-05-02T10:32:26.999Z</time></trkpt><trkpt lat="46.10151159455181" lon="11.642517133275351"><ele>1601.0</ele><time>2026-05-02T10:32:27.999Z</time></trkpt><trkpt lat="46.10167448614974" lon="11.642567458764631"><ele>1601.0</ele><time>2026-05-02T10:32:28.999Z</time></trkpt><trkpt lat="46.10183564108154" lon="11.64262099104142"><ele>1601.0</ele><time>2026-05-02T10:32:29.999Z</time></trkpt><trkpt lat="46.10199132599374" lon="11.642676333062958"><ele>1601.0</ele><time>2026-05-02T10:32:30.999Z</time></trkpt><trkpt lat="46.10213731578621" lon="11.642725067630302"><ele>1601.0</ele><time>2026-05-02T10:32:31.999Z</time></trkpt><trkpt lat="46.10226098081586" lon="11.642789681301602"><ele>1601.0</ele><time>2026-05-02T10:32:32.999Z</time></trkpt><trkpt lat="46.10237690299658" lon="11.642888238160618"><ele>1601.0</ele><time>2026-05-02T10:32:33.999Z</time></trkpt><trkpt lat="46.102476190867584" lon="11.643007312080696"><ele>1601.0</ele><time>2026-05-02T10:32:34.999Z</time></trkpt><trkpt lat="46.10255567896505" lon="11.643151345700682"><ele>1605.5</ele><time>2026-05-02T10:32:35.999Z</time></trkpt><trkpt lat="46.102627349905795" lon="11.643311058923883"><ele>1610.0</ele><time>2026-05-02T10:32:36.999Z</time></trkpt><trkpt lat="46.10270223541526" lon="11.64346165922023"><ele>1614.5</ele><time>2026-05-02T10:32:37.999Z</time></trkpt><trkpt lat="46.10281909218146" lon="11.643559977613172"><ele>1619.0</ele><time>2026-05-02T10:32:38.999Z</time></trkpt><trkpt lat="46.10294737057129" lon="11.643621694292742"><ele>1624.75</ele><time>2026-05-02T10:32:39.999Z</time></trkpt><trkpt lat="46.10308317912339" lon="11.643665435179763"><ele>1630.5</ele><time>2026-05-02T10:32:40.999Z</time></trkpt><trkpt lat="46.103222369695835" lon="11.643710387399494"><ele>1636.25</ele><time>2026-05-02T10:32:41.999Z</time></trkpt><trkpt lat="46.10335633658781" lon="11.643736986458087"><ele>1642.0</ele><time>2026-05-02T10:32:42.999Z</time></trkpt><trkpt lat="46.10349037324053" lon="11.643725811812796"><ele>1642.0</ele><time>2026-05-02T10:32:43.999Z</time></trkpt><trkpt lat="46.10362290159107" lon="11.643717523813203"><ele>1642.0</ele><time>2026-05-02T10:32:44.999Z</time></trkpt><trkpt lat="46.103739994486496" lon="11.643754858163927"><ele>1642.0</ele><time>2026-05-02T10:32:45.999Z</time></trkpt><trkpt lat="46.103850135801" lon="11.643852872963764"><ele>1642.0</ele><time>2026-05-02T10:32:46.999Z</time></trkpt><trkpt lat="46.103975017942794" lon="11.643961761518035"><ele>1642.25</ele><time>2026-05-02T10:32:47.999Z</time></trkpt><trkpt lat="46.10411238012585" lon="11.644027717375707"><ele>1642.5</ele><time>2026-05-02T10:32:48.999Z</time></trkpt><trkpt lat="46.104251812985396" lon="11.644065850113234"><ele>1642.75</ele><time>2026-05-02T10:32:49.999Z</time></trkpt><trkpt lat="46.10441036557021" lon="11.64402119865106"><ele>1643.0</ele><time>2026-05-02T10:32:50.999Z</time></trkpt><trkpt lat="46.10455832042742" lon="11.643907415529723"><ele>1643.0</ele><time>2026-05-02T10:32:51.999Z</time></trkpt><trkpt lat="46.104676291409454" lon="11.64381050763467"><ele>1643.0</ele><time>2026-05-02T10:32:52.999Z</time></trkpt><trkpt lat="46.10479174785713" lon="11.643824299313266"><ele>1643.0</ele><time>2026-05-02T10:32:53.999Z</time></trkpt><trkpt lat="46.10489043224807" lon="11.643869424400945"><ele>1643.0</ele><time>2026-05-02T10:32:54.999Z</time></trkpt><trkpt lat="46.10495729222439" lon="11.644018681464122"><ele>1641.5</ele><time>2026-05-02T10:32:55.999Z</time></trkpt><trkpt lat="46.10504946101229" lon="11.644160023435095"><ele>1640.0</ele><time>2026-05-02T10:32:56.998Z</time></trkpt><trkpt lat="46.10513111633967" lon="11.644310435551597"><ele>1638.5</ele><time>2026-05-02T10:32:57.998Z</time></trkpt><trkpt lat="46.10526059549503" lon="11.644374193617269"><ele>1637.0</ele><time>2026-05-02T10:32:58.998Z</time></trkpt><trkpt lat="46.10540571119987" lon="11.644373543217883"><ele>1637.0</ele><time>2026-05-02T10:32:59.998Z</time></trkpt><trkpt lat="46.10555753925653" lon="11.644353153706207"><ele>1637.0</ele><time>2026-05-02T10:33:00.998Z</time></trkpt><trkpt lat="46.1056971354822" lon="11.6443460196793"><ele>1637.0</ele><time>2026-05-02T10:33:01.998Z</time></trkpt><trkpt lat="46.10581750599463" lon="11.644433061591023"><ele>1637.0</ele><time>2026-05-02T10:33:02.998Z</time></trkpt><trkpt lat="46.105925391282305" lon="11.644465617691077"><ele>1637.9999999999998</ele><time>2026-05-02T10:33:03.998Z</time></trkpt><trkpt lat="46.10602424103308" lon="11.644488563902389"><ele>1639.0</ele><time>2026-05-02T10:33:04.998Z</time></trkpt><trkpt lat="46.10610846577806" lon="11.644480411861693"><ele>1640.0</ele><time>2026-05-02T10:33:05.998Z</time></trkpt><trkpt lat="46.10618169539956" lon="11.644488189591693"><ele>1641.0</ele><time>2026-05-02T10:33:06.998Z</time></trkpt><trkpt lat="46.10624530198639" lon="11.644505713438525"><ele>1641.9999999999998</ele><time>2026-05-02T10:33:07.998Z</time></trkpt><trkpt lat="46.1063459696035" lon="11.644543338370076"><ele>1643.0</ele><time>2026-05-02T10:33:09.998Z</time></trkpt><trkpt lat="46.106410352590466" lon="11.644577387748363"><ele>1642.9999999999998</ele><time>2026-05-02T10:33:12.998Z</time></trkpt><trkpt lat="46.1065233011056" lon="11.644620284924846"><ele>1643.0</ele><time>2026-05-02T10:33:34Z</time></trkpt><trkpt lat="46.10658623751074" lon="11.644649874730854"><ele>1643.0</ele><time>2026-05-02T10:33:35Z</time></trkpt><trkpt lat="46.10666423414139" lon="11.644703288241908"><ele>1643.0</ele><time>2026-05-02T10:33:36Z</time></trkpt><trkpt lat="46.10672869088207" lon="11.644745064731573"><ele>1642.9999999999998</ele><time>2026-05-02T10:33:37Z</time></trkpt><trkpt lat="46.1067977834504" lon="11.644816787691113"><ele>1643.0</ele><time>2026-05-02T10:33:38Z</time></trkpt><trkpt lat="46.106864092087704" lon="11.644875049808808"><ele>1642.8000000000002</ele><time>2026-05-02T10:33:39Z</time></trkpt><trkpt lat="46.1069253908438" lon="11.644950889323113"><ele>1642.6</ele><time>2026-05-02T10:33:40Z</time></trkpt><trkpt lat="46.10698371831117" lon="11.64503187102555"><ele>1642.4</ele><time>2026-05-02T10:33:41Z</time></trkpt><trkpt lat="46.107056724804664" lon="11.64511979033989"><ele>1642.1999999999998</ele><time>2026-05-02T10:33:42Z</time></trkpt><trkpt lat="46.107151844672636" lon="11.645210144459243"><ele>1642.0</ele><time>2026-05-02T10:33:43Z</time></trkpt><trkpt lat="46.107243065993856" lon="11.645284522367614"><ele>1643.1999999999998</ele><time>2026-05-02T10:33:44Z</time></trkpt><trkpt lat="46.10734036856179" lon="11.645338242016296"><ele>1644.4</ele><time>2026-05-02T10:33:45Z</time></trkpt><trkpt lat="46.1074488063231" lon="11.645395307922817"><ele>1645.6</ele><time>2026-05-02T10:33:46Z</time></trkpt><trkpt lat="46.10755408938629" lon="11.645467419279738"><ele>1646.8000000000002</ele><time>2026-05-02T10:33:47Z</time></trkpt><trkpt lat="46.10763622950166" lon="11.645573527919392"><ele>1648.0</ele><time>2026-05-02T10:33:48Z</time></trkpt><trkpt lat="46.107683418013686" lon="11.645749225541769"><ele>1648.0</ele><time>2026-05-02T10:33:49Z</time></trkpt><trkpt lat="46.10775919992285" lon="11.645899695524912"><ele>1648.0</ele><time>2026-05-02T10:33:50Z</time></trkpt><trkpt lat="46.10787585542018" lon="11.645988290999984"><ele>1648.0</ele><time>2026-05-02T10:33:51Z</time></trkpt><trkpt lat="46.10799825796636" lon="11.64604268760762"><ele>1648.0</ele><time>2026-05-02T10:33:52Z</time></trkpt><trkpt lat="46.10812046808175" lon="11.646156035637215"><ele>1648.5</ele><time>2026-05-02T10:33:53Z</time></trkpt><trkpt lat="46.1082239809413" lon="11.64628673176616"><ele>1649.0</ele><time>2026-05-02T10:33:54Z</time></trkpt><trkpt lat="46.10831315199859" lon="11.646438311176416"><ele>1649.5</ele><time>2026-05-02T10:33:55Z</time></trkpt><trkpt lat="46.108399152032604" lon="11.646608335122734"><ele>1650.0</ele><time>2026-05-02T10:33:56Z</time></trkpt><trkpt lat="46.10848044362622" lon="11.646784672529073"><ele>1655.25</ele><time>2026-05-02T10:33:57Z</time></trkpt><trkpt lat="46.10856660125421" lon="11.646962276559583"><ele>1660.5</ele><time>2026-05-02T10:33:58Z</time></trkpt><trkpt lat="46.10868250811618" lon="11.64710083206631"><ele>1665.75</ele><time>2026-05-02T10:33:59Z</time></trkpt><trkpt lat="46.10878641676903" lon="11.647225624564033"><ele>1671.0</ele><time>2026-05-02T10:34:00Z</time></trkpt><trkpt lat="46.108885289834866" lon="11.647331873362992"><ele>1671.0</ele><time>2026-05-02T10:34:00.999Z</time></trkpt><trkpt lat="46.1089682416749" lon="11.647453854894827"><ele>1671.0</ele><time>2026-05-02T10:34:01.999Z</time></trkpt><trkpt lat="46.10905915701622" lon="11.647569227848175"><ele>1671.0</ele><time>2026-05-02T10:34:02.999Z</time></trkpt><trkpt lat="46.10911821936273" lon="11.647691167865986"><ele>1671.0</ele><time>2026-05-02T10:34:03.999Z</time></trkpt><trkpt lat="46.109141290681414" lon="11.647837445613613"><ele>1671.0</ele><time>2026-05-02T10:34:04.999Z</time></trkpt><trkpt lat="46.109129161127825" lon="11.647991116905542"><ele>1674.75</ele><time>2026-05-02T10:34:05.999Z</time></trkpt><trkpt lat="46.109098420755544" lon="11.6481629371499"><ele>1678.5</ele><time>2026-05-02T10:34:06.999Z</time></trkpt><trkpt lat="46.10906950980939" lon="11.64833704292575"><ele>1682.25</ele><time>2026-05-02T10:34:07.999Z</time></trkpt><trkpt lat="46.10905985013557" lon="11.648528855131113"><ele>1686.0</ele><time>2026-05-02T10:34:08.999Z</time></trkpt><trkpt lat="46.10910458691084" lon="11.648725087628854"><ele>1678.0</ele><time>2026-05-02T10:34:09.999Z</time></trkpt><trkpt lat="46.109190584993094" lon="11.648893929172852"><ele>1670.0</ele><time>2026-05-02T10:34:10.999Z</time></trkpt><trkpt lat="46.1093092222665" lon="11.649026298239392"><ele>1662.0</ele><time>2026-05-02T10:34:11.999Z</time></trkpt><trkpt lat="46.10945218069271" lon="11.649093553786175"><ele>1654.0</ele><time>2026-05-02T10:34:12.999Z</time></trkpt><trkpt lat="46.10958616774673" lon="11.649127251400728"><ele>1654.0</ele><time>2026-05-02T10:34:13.999Z</time></trkpt><trkpt lat="46.10969505310834" lon="11.649245220185522"><ele>1654.0</ele><time>2026-05-02T10:34:14.999Z</time></trkpt><trkpt lat="46.10976603384327" lon="11.649430684502281"><ele>1654.0</ele><time>2026-05-02T10:34:15.999Z</time></trkpt><trkpt lat="46.10985026937874" lon="11.64961150478181"><ele>1654.0</ele><time>2026-05-02T10:34:16.999Z</time></trkpt><trkpt lat="46.10993679291776" lon="11.64980073637198"><ele>1654.6666666666667</ele><time>2026-05-02T10:34:17.999Z</time></trkpt><trkpt lat="46.1100241423736" lon="11.64999040775507"><ele>1655.3333333333335</ele><time>2026-05-02T10:34:18.999Z</time></trkpt><trkpt lat="46.1101080100214" lon="11.65017180615215"><ele>1656.0</ele><time>2026-05-02T10:34:19.999Z</time></trkpt><trkpt lat="46.11018773576562" lon="11.65034395632205"><ele>1656.0</ele><time>2026-05-02T10:34:20.999Z</time></trkpt><trkpt lat="46.110260940432774" lon="11.650509275052393"><ele>1656.0</ele><time>2026-05-02T10:34:21.999Z</time></trkpt><trkpt lat="46.11031664022473" lon="11.650670794612765"><ele>1656.0</ele><time>2026-05-02T10:34:22.999Z</time></trkpt><trkpt lat="46.11035450933725" lon="11.6508432415501"><ele>1656.0</ele><time>2026-05-02T10:34:23.999Z</time></trkpt><trkpt lat="46.110380602377134" lon="11.651028186388599"><ele>1658.25</ele><time>2026-05-02T10:34:24.999Z</time></trkpt><trkpt lat="46.11039880080462" lon="11.651223694871604"><ele>1660.5</ele><time>2026-05-02T10:34:25.999Z</time></trkpt><trkpt lat="46.11041207264847" lon="11.651431074933416"><ele>1662.75</ele><time>2026-05-02T10:34:26.999Z</time></trkpt><trkpt lat="46.11044076739561" lon="11.651652726143194"><ele>1665.0</ele><time>2026-05-02T10:34:27.999Z</time></trkpt><trkpt lat="46.11043851670845" lon="11.651887328695887"><ele>1666.5</ele><time>2026-05-02T10:34:28.999Z</time></trkpt><trkpt lat="46.110475041804754" lon="11.652093551044159"><ele>1668.0</ele><time>2026-05-02T10:34:29.999Z</time></trkpt><trkpt lat="46.11049299278741" lon="11.652257254211571"><ele>1669.5</ele><time>2026-05-02T10:34:30.999Z</time></trkpt><trkpt lat="46.11055716974778" lon="11.652386367999025"><ele>1671.0</ele><time>2026-05-02T10:34:31.999Z</time></trkpt><trkpt lat="46.11067633866729" lon="11.652473402429175"><ele>1663.0</ele><time>2026-05-02T10:34:32.999Z</time></trkpt><trkpt lat="46.110821753083364" lon="11.652458744844068"><ele>1655.0</ele><time>2026-05-02T10:34:33.999Z</time></trkpt><trkpt lat="46.11098583181356" lon="11.652418922117414"><ele>1647.0</ele><time>2026-05-02T10:34:34.999Z</time></trkpt><trkpt lat="46.11117740538711" lon="11.65237998544202"><ele>1647.0</ele><time>2026-05-02T10:34:35.999Z</time></trkpt><trkpt lat="46.11136895129101" lon="11.65230790562922"><ele>1647.0</ele><time>2026-05-02T10:34:36.999Z</time></trkpt><trkpt lat="46.111544491851404" lon="11.652270055219443"><ele>1647.0</ele><time>2026-05-02T10:34:37.999Z</time></trkpt><trkpt lat="46.11170217348374" lon="11.652137469323169"><ele>1648.0</ele><time>2026-05-02T10:34:38.999Z</time></trkpt><trkpt lat="46.11183818654333" lon="11.65201938474825"><ele>1649.0</ele><time>2026-05-02T10:34:39.999Z</time></trkpt><trkpt lat="46.1119911534842" lon="11.65194904629639"><ele>1650.0</ele><time>2026-05-02T10:34:40.999Z</time></trkpt><trkpt lat="46.112154198385376" lon="11.651909537343222"><ele>1652.0</ele><time>2026-05-02T10:34:41.999Z</time></trkpt><trkpt lat="46.11231348148907" lon="11.651918326263312"><ele>1654.0</ele><time>2026-05-02T10:34:42.999Z</time></trkpt><trkpt lat="46.112470732110864" lon="11.651977560215034"><ele>1656.0</ele><time>2026-05-02T10:34:43.999Z</time></trkpt><trkpt lat="46.11265008357324" lon="11.652065766822522"><ele>1656.0</ele><time>2026-05-02T10:34:44.999Z</time></trkpt><trkpt lat="46.11285134493897" lon="11.652142738632662"><ele>1656.0</ele><time>2026-05-02T10:34:45.999Z</time></trkpt><trkpt lat="46.11303746297535" lon="11.652228470694753"><ele>1656.0</ele><time>2026-05-02T10:34:46.999Z</time></trkpt><trkpt lat="46.11318703434306" lon="11.652260920997719"><ele>1652.5</ele><time>2026-05-02T10:34:47.999Z</time></trkpt><trkpt lat="46.11329991108405" lon="11.652276755733446"><ele>1649.0</ele><time>2026-05-02T10:34:48.999Z</time></trkpt><trkpt lat="46.11338979736251" lon="11.652287090263046"><ele>1645.5</ele><time>2026-05-02T10:34:49.999Z</time></trkpt><trkpt lat="46.113453307656066" lon="11.65229374223275"><ele>1642.0</ele><time>2026-05-02T10:34:50.999Z</time></trkpt><trkpt lat="46.11381191321608" lon="11.65239906223821"><ele>1642.0</ele><time>2026-05-02T10:34:51.999Z</time></trkpt><trkpt lat="46.113879289182485" lon="11.652507383562984"><ele>1642.0</ele><time>2026-05-02T10:34:52.999Z</time></trkpt><trkpt lat="46.113929823507405" lon="11.65264950527697"><ele>1642.0</ele><time>2026-05-02T10:34:53.999Z</time></trkpt><trkpt lat="46.11394062821464" lon="11.65280540832067"><ele>1642.0</ele><time>2026-05-02T10:34:54.999Z</time></trkpt><trkpt lat="46.11392772091271" lon="11.652992635566969"><ele>1645.5</ele><time>2026-05-02T10:34:55.999Z</time></trkpt><trkpt lat="46.11392112543686" lon="11.653192910086664"><ele>1649.0</ele><time>2026-05-02T10:34:56.998Z</time></trkpt><trkpt lat="46.11391435539391" lon="11.653398484059387"><ele>1652.5</ele><time>2026-05-02T10:34:57.998Z</time></trkpt><trkpt lat="46.11390812189922" lon="11.653630671896563"><ele>1656.0</ele><time>2026-05-02T10:34:58.998Z</time></trkpt><trkpt lat="46.11392103480795" lon="11.653871037652214"><ele>1656.25</ele><time>2026-05-02T10:34:59.998Z</time></trkpt><trkpt lat="46.11397149310585" lon="11.654077571392106"><ele>1656.5</ele><time>2026-05-02T10:35:00.998Z</time></trkpt><trkpt lat="46.11399349970567" lon="11.654277422008938"><ele>1656.75</ele><time>2026-05-02T10:35:01.998Z</time></trkpt><trkpt lat="46.114012420873586" lon="11.654448641726244"><ele>1657.0</ele><time>2026-05-02T10:35:02.998Z</time></trkpt><trkpt lat="46.1140308449624" lon="11.654603074599748"><ele>1657.0000000000002</ele><time>2026-05-02T10:35:03.998Z</time></trkpt><trkpt lat="46.11402178482864" lon="11.654746454395582"><ele>1657.0</ele><time>2026-05-02T10:35:04.998Z</time></trkpt><trkpt lat="46.11405049475358" lon="11.654870453328895"><ele>1657.0</ele><time>2026-05-02T10:35:05.998Z</time></trkpt><trkpt lat="46.11406363050854" lon="11.654993700638201"><ele>1657.0</ele><time>2026-05-02T10:35:06.998Z</time></trkpt><trkpt lat="46.11407932986727" lon="11.655109810347223"><ele>1657.0000000000002</ele><time>2026-05-02T10:35:07.998Z</time></trkpt><trkpt lat="46.11409134972085" lon="11.65523012279551"><ele>1657.0</ele><time>2026-05-02T10:35:08.998Z</time></trkpt><trkpt lat="46.114107969472585" lon="11.655373033706113"><ele>1650.1999999999998</ele><time>2026-05-02T10:35:09.998Z</time></trkpt><trkpt lat="46.114124783807526" lon="11.655518398388988"><ele>1643.4</ele><time>2026-05-02T10:35:10.998Z</time></trkpt><trkpt lat="46.11413959316601" lon="11.65565742536861"><ele>1636.6</ele><time>2026-05-02T10:35:11.998Z</time></trkpt><trkpt lat="46.11415110613687" lon="11.655793662213986"><ele>1629.8000000000002</ele><time>2026-05-02T10:35:12.998Z</time></trkpt><trkpt lat="46.11415943882464" lon="11.6559249947568"><ele>1623.0</ele><time>2026-05-02T10:35:13.998Z</time></trkpt><trkpt lat="46.11416995373847" lon="11.656176774158661"><ele>1623.0</ele><time>2026-05-02T10:35:15.998Z</time></trkpt><trkpt lat="46.11416764144476" lon="11.656297622862983"><ele>1623.0</ele><time>2026-05-02T10:35:16.998Z</time></trkpt><trkpt lat="46.11416620210809" lon="11.65641442858667"><ele>1623.0</ele><time>2026-05-02T10:35:17.998Z</time></trkpt><trkpt lat="46.11415708960443" lon="11.656521257562014"><ele>1623.0</ele><time>2026-05-02T10:35:18.998Z</time></trkpt><trkpt lat="46.1141605568657" lon="11.656619239866439"><ele>1623.0</ele><time>2026-05-02T10:35:19.998Z</time></trkpt><trkpt lat="46.11416440339168" lon="11.65671145871584"><ele>1623.0</ele><time>2026-05-02T10:35:20.998Z</time></trkpt><trkpt lat="46.11417025253116" lon="11.65681205556031"><ele>1623.0</ele><time>2026-05-02T10:35:22Z</time></trkpt><trkpt lat="46.11417532547079" lon="11.656924018439117"><ele>1623.25</ele><time>2026-05-02T10:35:23Z</time></trkpt><trkpt lat="46.114192228100286" lon="11.657070671913047"><ele>1623.5</ele><time>2026-05-02T10:35:24Z</time></trkpt><trkpt lat="46.11420679844549" lon="11.65723768420225"><ele>1623.75</ele><time>2026-05-02T10:35:25Z</time></trkpt><trkpt lat="46.11422713484807" lon="11.657410299076451"><ele>1624.0</ele><time>2026-05-02T10:35:26Z</time></trkpt><trkpt lat="46.11425098439027" lon="11.65759554145459"><ele>1624.0</ele><time>2026-05-02T10:35:27Z</time></trkpt><trkpt lat="46.114269499458196" lon="11.657781814391686"><ele>1624.0</ele><time>2026-05-02T10:35:28Z</time></trkpt><trkpt lat="46.11428782543178" lon="11.65795937384977"><ele>1624.0</ele><time>2026-05-02T10:35:29Z</time></trkpt><trkpt lat="46.11430439958436" lon="11.658114868232149"><ele>1624.0</ele><time>2026-05-02T10:35:30Z</time></trkpt><trkpt lat="46.11432240656299" lon="11.658261204093373"><ele>1623.4</ele><time>2026-05-02T10:35:31Z</time></trkpt><trkpt lat="46.11434613673741" lon="11.658397971616752"><ele>1622.8000000000002</ele><time>2026-05-02T10:35:32Z</time></trkpt><trkpt lat="46.114375191810666" lon="11.65853074188075"><ele>1622.1999999999998</ele><time>2026-05-02T10:35:33Z</time></trkpt><trkpt lat="46.11440919531151" lon="11.658662898133384"><ele>1621.6</ele><time>2026-05-02T10:35:34Z</time></trkpt><trkpt lat="46.11444764574297" lon="11.65879911275104"><ele>1621.0</ele><time>2026-05-02T10:35:35Z</time></trkpt><trkpt lat="46.11448199709793" lon="11.658922056562673"><ele>1621.0</ele><time>2026-05-02T10:35:36Z</time></trkpt><trkpt lat="46.114528936050704" lon="11.659022928760704"><ele>1621.0</ele><time>2026-05-02T10:35:37Z</time></trkpt><trkpt lat="46.11457046469418" lon="11.659113605881252"><ele>1621.0</ele><time>2026-05-02T10:35:38Z</time></trkpt><trkpt lat="46.11461547977037" lon="11.659187997141958"><ele>1621.0</ele><time>2026-05-02T10:35:39Z</time></trkpt><trkpt lat="46.114721290217595" lon="11.659257662087493"><ele>1621.0</ele><time>2026-05-02T10:35:41Z</time></trkpt><trkpt lat="46.1148332425261" lon="11.659314871224"><ele>1618.8</ele><time>2026-05-02T10:35:43Z</time></trkpt><trkpt lat="46.114944971183185" lon="11.65937183816228"><ele>1616.6</ele><time>2026-05-02T10:35:45Z</time></trkpt><trkpt lat="46.11503667004825" lon="11.65941859269484"><ele>1614.4</ele><time>2026-05-02T10:35:47Z</time></trkpt><trkpt lat="46.11511727276723" lon="11.659456033194557"><ele>1612.2</ele><time>2026-05-02T10:35:50Z</time></trkpt><trkpt lat="46.11519963413239" lon="11.659494936741886"><ele>1610.0</ele><time>2026-05-02T10:35:53Z</time></trkpt><trkpt lat="46.11527295330184" lon="11.659531150709665"><ele>1610.0</ele><time>2026-05-02T10:35:56Z</time></trkpt><trkpt lat="46.115252149950464" lon="11.659814121637089"><ele>1610.0</ele><time>2026-05-02T10:36:23.999Z</time></trkpt><trkpt lat="46.11522334700565" lon="11.65991355371285"><ele>1610.0</ele><time>2026-05-02T10:36:24.999Z</time></trkpt><trkpt lat="46.11519933218153" lon="11.660024927901176"><ele>1610.0</ele><time>2026-05-02T10:36:25.999Z</time></trkpt><trkpt lat="46.115170958660286" lon="11.660137207667553"><ele>1610.0</ele><time>2026-05-02T10:36:26.999Z</time></trkpt><trkpt lat="46.11513771680604" lon="11.660242452203466"><ele>1610.2</ele><time>2026-05-02T10:36:27.999Z</time></trkpt><trkpt lat="46.11509577467975" lon="11.660394605880292"><ele>1610.4</ele><time>2026-05-02T10:36:28.999Z</time></trkpt><trkpt lat="46.11503482235408" lon="11.660550953085394"><ele>1610.6</ele><time>2026-05-02T10:36:29.999Z</time></trkpt><trkpt lat="46.11497742969308" lon="11.660690781974402"><ele>1610.8</ele><time>2026-05-02T10:36:30.999Z</time></trkpt><trkpt lat="46.114916629287144" lon="11.660798338278527"><ele>1611.0</ele><time>2026-05-02T10:36:31.999Z</time></trkpt><trkpt lat="46.11486180763044" lon="11.660875281205632"><ele>1611.857142857143</ele><time>2026-05-02T10:36:32.999Z</time></trkpt><trkpt lat="46.11480075879988" lon="11.660954827901783"><ele>1612.7142857142858</ele><time>2026-05-02T10:36:33.999Z</time></trkpt><trkpt lat="46.11475189674337" lon="11.661023485186233"><ele>1613.5714285714284</ele><time>2026-05-02T10:36:34.999Z</time></trkpt><trkpt lat="46.114694433717624" lon="11.661095003282355"><ele>1614.4285714285716</ele><time>2026-05-02T10:36:35.999Z</time></trkpt><trkpt lat="46.114648807527104" lon="11.661169143623825"><ele>1615.2857142857142</ele><time>2026-05-02T10:36:36.999Z</time></trkpt><trkpt lat="46.11460100554792" lon="11.661248225219456"><ele>1616.142857142857</ele><time>2026-05-02T10:36:37.999Z</time></trkpt><trkpt lat="46.114560565934525" lon="11.661332165302648"><ele>1617.0</ele><time>2026-05-02T10:36:38.999Z</time></trkpt><trkpt lat="46.11453692880458" lon="11.66141805102472"><ele>1617.0</ele><time>2026-05-02T10:36:39.999Z</time></trkpt><trkpt lat="46.1144976807297" lon="11.661524379028894"><ele>1617.0</ele><time>2026-05-02T10:36:40.999Z</time></trkpt><trkpt lat="46.114459691322594" lon="11.661632687755517"><ele>1617.0</ele><time>2026-05-02T10:36:41.999Z</time></trkpt><trkpt lat="46.11443335244157" lon="11.661739655407532"><ele>1617.0</ele><time>2026-05-02T10:36:42.999Z</time></trkpt><trkpt lat="46.11441277726857" lon="11.661830773605434"><ele>1617.0</ele><time>2026-05-02T10:36:43.999Z</time></trkpt><trkpt lat="46.11439228147397" lon="11.661923907030374"><ele>1617.0</ele><time>2026-05-02T10:36:44.999Z</time></trkpt><trkpt lat="46.11436045075219" lon="11.662034201172743"><ele>1616.8333333333333</ele><time>2026-05-02T10:36:45.999Z</time></trkpt><trkpt lat="46.114326607856235" lon="11.662155771047178"><ele>1616.6666666666665</ele><time>2026-05-02T10:36:46.999Z</time></trkpt><trkpt lat="46.11430278185116" lon="11.662301660763111"><ele>1616.5</ele><time>2026-05-02T10:36:47.999Z</time></trkpt><trkpt lat="46.11428604908919" lon="11.662434253274846"><ele>1616.3333333333333</ele><time>2026-05-02T10:36:48.999Z</time></trkpt><trkpt lat="46.11427152707717" lon="11.662530320145123"><ele>1616.1666666666665</ele><time>2026-05-02T10:36:49.999Z</time></trkpt><trkpt lat="46.11425656882762" lon="11.66263203112041"><ele>1616.0</ele><time>2026-05-02T10:36:50.999Z</time></trkpt><trkpt lat="46.11424679862373" lon="11.662738904284762"><ele>1614.0</ele><time>2026-05-02T10:36:51.999Z</time></trkpt><trkpt lat="46.11422938365296" lon="11.66285568482202"><ele>1612.0</ele><time>2026-05-02T10:36:52.999Z</time></trkpt><trkpt lat="46.11421393877972" lon="11.662958519286578"><ele>1610.0</ele><time>2026-05-02T10:36:53.999Z</time></trkpt><trkpt lat="46.1141805179667" lon="11.663119072661454"><ele>1608.0</ele><time>2026-05-02T10:36:55.999Z</time></trkpt><trkpt lat="46.11415677370993" lon="11.66320438355084"><ele>1606.0</ele><time>2026-05-02T10:36:56.999Z</time></trkpt><trkpt lat="46.11408095133233" lon="11.663339560240766"><ele>1609.0</ele><time>2026-05-02T10:36:58.999Z</time></trkpt><trkpt lat="46.11398381985197" lon="11.663404740059924"><ele>1612.0</ele><time>2026-05-02T10:37:00.999Z</time></trkpt><trkpt lat="46.11386498237689" lon="11.663404245521656"><ele>1615.0</ele><time>2026-05-02T10:37:02.998Z</time></trkpt><trkpt lat="46.1137837957326" lon="11.663395424083609"><ele>1618.0</ele><time>2026-05-02T10:37:03.998Z</time></trkpt><trkpt lat="46.1136939248089" lon="11.66339085237068"><ele>1621.0</ele><time>2026-05-02T10:37:04.998Z</time></trkpt><trkpt lat="46.11362597646996" lon="11.663388106645673"><ele>1621.0000000000002</ele><time>2026-05-02T10:37:05.998Z</time></trkpt><trkpt lat="46.113547950778155" lon="11.663373517891445"><ele>1621.0</ele><time>2026-05-02T10:37:06.998Z</time></trkpt><trkpt lat="46.11348225153262" lon="11.663362572043162"><ele>1621.0</ele><time>2026-05-02T10:37:07.998Z</time></trkpt><trkpt lat="46.1134164301637" lon="11.66335267602287"><ele>1621.0</ele><time>2026-05-02T10:37:08.998Z</time></trkpt><trkpt lat="46.11329733186844" lon="11.663347336354516"><ele>1621.0000000000002</ele><time>2026-05-02T10:37:10.998Z</time></trkpt><trkpt lat="46.11318566794726" lon="11.663328205814933"><ele>1621.0</ele><time>2026-05-02T10:37:12.998Z</time></trkpt><trkpt lat="46.11311936564277" lon="11.663330258765198"><ele>1620.8333333333335</ele><time>2026-05-02T10:37:13.998Z</time></trkpt><trkpt lat="46.113050689136166" lon="11.663324401331705"><ele>1620.6666666666667</ele><time>2026-05-02T10:37:14.998Z</time></trkpt><trkpt lat="46.112947313669004" lon="11.66332079107755"><ele>1620.5</ele><time>2026-05-02T10:37:16.998Z</time></trkpt><trkpt lat="46.11287061615861" lon="11.663321161718445"><ele>1620.3333333333335</ele><time>2026-05-02T10:37:18.998Z</time></trkpt><trkpt lat="46.11280512399714" lon="11.663336270405027"><ele>1620.1666666666667</ele><time>2026-05-02T10:37:25.998Z</time></trkpt><trkpt lat="46.11286643276641" lon="11.663313247170985"><ele>1620.0</ele><time>2026-05-02T10:37:58Z</time></trkpt><trkpt lat="46.113006716944774" lon="11.663321184373077"><ele>1619.9999999999998</ele><time>2026-05-02T10:38:00Z</time></trkpt><trkpt lat="46.113070039377206" lon="11.663314656130327"><ele>1620.0</ele><time>2026-05-02T10:38:01Z</time></trkpt><trkpt lat="46.113152005139405" lon="11.66332048543366"><ele>1620.0</ele><time>2026-05-02T10:38:02Z</time></trkpt><trkpt lat="46.113230357068815" lon="11.663335809658719"><ele>1620.0</ele><time>2026-05-02T10:38:03Z</time></trkpt><trkpt lat="46.11330214019151" lon="11.663345958448483"><ele>1620.0</ele><time>2026-05-02T10:38:04Z</time></trkpt><trkpt lat="46.11337300698159" lon="11.663350281692656"><ele>1619.9999999999998</ele><time>2026-05-02T10:38:05Z</time></trkpt><trkpt lat="46.11345111310519" lon="11.663355024769128"><ele>1620.0</ele><time>2026-05-02T10:38:06Z</time></trkpt><trkpt lat="46.11353245383267" lon="11.663366563836817"><ele>1620.1666666666667</ele><time>2026-05-02T10:38:07Z</time></trkpt><trkpt lat="46.11361688876067" lon="11.663371418974831"><ele>1620.3333333333335</ele><time>2026-05-02T10:38:08Z</time></trkpt><trkpt lat="46.113708711301065" lon="11.663409624183794"><ele>1620.5</ele><time>2026-05-02T10:38:10Z</time></trkpt><trkpt lat="46.11379997467158" lon="11.663421613680212"><ele>1620.6666666666667</ele><time>2026-05-02T10:38:14Z</time></trkpt><trkpt lat="46.11388982427861" lon="11.663389745804498"><ele>1620.8333333333335</ele><time>2026-05-02T10:38:16.999Z</time></trkpt><trkpt lat="46.113953969728264" lon="11.663321911490002"><ele>1621.0</ele><time>2026-05-02T10:38:18.999Z</time></trkpt><trkpt lat="46.11404607568785" lon="11.66324885582345"><ele>1620.1666666666667</ele><time>2026-05-02T10:38:20.999Z</time></trkpt><trkpt lat="46.11412160663859" lon="11.66316487077321"><ele>1619.3333333333335</ele><time>2026-05-02T10:38:22.999Z</time></trkpt><trkpt lat="46.114162669308634" lon="11.663061441921215"><ele>1618.5</ele><time>2026-05-02T10:38:24.999Z</time></trkpt><trkpt lat="46.114192140562636" lon="11.662956442132618"><ele>1617.6666666666665</ele><time>2026-05-02T10:38:26.999Z</time></trkpt><trkpt lat="46.1142204118404" lon="11.662832911975908"><ele>1616.8333333333333</ele><time>2026-05-02T10:38:29.999Z</time></trkpt><trkpt lat="46.11423388870652" lon="11.662717650619134"><ele>1616.0</ele><time>2026-05-02T10:38:31.999Z</time></trkpt><trkpt lat="46.11425427939916" lon="11.662569125259493"><ele>1615.9999999999998</ele><time>2026-05-02T10:38:33.999Z</time></trkpt><trkpt lat="46.114277215947176" lon="11.662433365487894"><ele>1616.0</ele><time>2026-05-02T10:38:35.999Z</time></trkpt><trkpt lat="46.11429418498602" lon="11.66233030799066"><ele>1616.0</ele><time>2026-05-02T10:38:37.999Z</time></trkpt><trkpt lat="46.114320118989816" lon="11.662192621658908"><ele>1616.0</ele><time>2026-05-02T10:38:39.999Z</time></trkpt><trkpt lat="46.114340738926984" lon="11.662101660117324"><ele>1615.9999999999998</ele><time>2026-05-02T10:38:40.999Z</time></trkpt><trkpt lat="46.1143686273696" lon="11.662003992970142"><ele>1616.0</ele><time>2026-05-02T10:38:41.999Z</time></trkpt><trkpt lat="46.114400459646845" lon="11.661893865060419"><ele>1616.1666666666665</ele><time>2026-05-02T10:38:42.999Z</time></trkpt><trkpt lat="46.11442974168864" lon="11.661758787512854"><ele>1616.3333333333333</ele><time>2026-05-02T10:38:43.999Z</time></trkpt><trkpt lat="46.114461082729704" lon="11.661626803120434"><ele>1616.5</ele><time>2026-05-02T10:38:44.999Z</time></trkpt><trkpt lat="46.11449172732608" lon="11.661528678880734"><ele>1616.6666666666665</ele><time>2026-05-02T10:38:45.999Z</time></trkpt><trkpt lat="46.11452988209665" lon="11.661450794903253"><ele>1616.8333333333333</ele><time>2026-05-02T10:38:46.999Z</time></trkpt><trkpt lat="46.11456685572576" lon="11.661354215159603"><ele>1617.0</ele><time>2026-05-02T10:38:47.999Z</time></trkpt><trkpt lat="46.114637257312545" lon="11.661212367221733"><ele>1617.0</ele><time>2026-05-02T10:38:49.999Z</time></trkpt><trkpt lat="46.114686278100656" lon="11.661142538086812"><ele>1617.0</ele><time>2026-05-02T10:38:50.999Z</time></trkpt><trkpt lat="46.11472783475582" lon="11.661067621957683"><ele>1617.0</ele><time>2026-05-02T10:38:51.999Z</time></trkpt><trkpt lat="46.114781537900036" lon="11.660997902049905"><ele>1617.0</ele><time>2026-05-02T10:38:52.999Z</time></trkpt><trkpt lat="46.114847275746094" lon="11.660943075820775"><ele>1617.0</ele><time>2026-05-02T10:38:53.999Z</time></trkpt><trkpt lat="46.114909562953464" lon="11.66088545680625"><ele>1617.0</ele><time>2026-05-02T10:38:54.999Z</time></trkpt><trkpt lat="46.11496920677352" lon="11.660740048901639"><ele>1615.8</ele><time>2026-05-02T10:38:56.999Z</time></trkpt><trkpt lat="46.11498412112267" lon="11.660625548124154"><ele>1614.6</ele><time>2026-05-02T10:38:57.999Z</time></trkpt><trkpt lat="46.11502740053849" lon="11.660468790926656"><ele>1613.3999999999999</ele><time>2026-05-02T10:38:59.999Z</time></trkpt><trkpt lat="46.11513775008236" lon="11.660316882393522"><ele>1612.1999999999998</ele><time>2026-05-02T10:39:00.999Z</time></trkpt><trkpt lat="46.115167938679086" lon="11.660219473537838"><ele>1611.0</ele><time>2026-05-02T10:39:01.999Z</time></trkpt><trkpt lat="46.11518761323154" lon="11.660121022269758"><ele>1610.8333333333333</ele><time>2026-05-02T10:39:02.999Z</time></trkpt><trkpt lat="46.115199640224645" lon="11.660024410060453"><ele>1610.6666666666665</ele><time>2026-05-02T10:39:03.999Z</time></trkpt><trkpt lat="46.11523338143429" lon="11.659867578441457"><ele>1610.5</ele><time>2026-05-02T10:39:05.999Z</time></trkpt><trkpt lat="46.115280950071615" lon="11.659786222082476"><ele>1610.3333333333333</ele><time>2026-05-02T10:39:07.998Z</time></trkpt><trkpt lat="46.11537301397837" lon="11.659742233176924"><ele>1610.1666666666665</ele><time>2026-05-02T10:39:09.998Z</time></trkpt><trkpt lat="46.11543334455886" lon="11.659707127097398"><ele>1610.0</ele><time>2026-05-02T10:39:10.998Z</time></trkpt><trkpt lat="46.11555149124182" lon="11.659679112225684"><ele>1610.0</ele><time>2026-05-02T10:39:12.998Z</time></trkpt><trkpt lat="46.1156171369827" lon="11.659657994448613"><ele>1610.0</ele><time>2026-05-02T10:39:13.998Z</time></trkpt><trkpt lat="46.11569547065376" lon="11.659692675484465"><ele>1610.0</ele><time>2026-05-02T10:39:14.998Z</time></trkpt><trkpt lat="46.11577499035149" lon="11.659796086780977"><ele>1610.0</ele><time>2026-05-02T10:39:15.998Z</time></trkpt><trkpt lat="46.11583367740957" lon="11.65997652757597"><ele>1610.0</ele><time>2026-05-02T10:39:16.998Z</time></trkpt><trkpt lat="46.11592924249441" lon="11.660161972065216"><ele>1609.5</ele><time>2026-05-02T10:39:17.998Z</time></trkpt><trkpt lat="46.11601382919967" lon="11.66034640568891"><ele>1609.0</ele><time>2026-05-02T10:39:18.998Z</time></trkpt><trkpt lat="46.11607836293732" lon="11.660520097003834"><ele>1608.5</ele><time>2026-05-02T10:39:19.998Z</time></trkpt><trkpt lat="46.11613297196765" lon="11.660689043752724"><ele>1608.0</ele><time>2026-05-02T10:39:20.998Z</time></trkpt><trkpt lat="46.11617948227091" lon="11.66086154197252"><ele>1608.0</ele><time>2026-05-02T10:39:21.998Z</time></trkpt><trkpt lat="46.116225923174134" lon="11.661029851418494"><ele>1608.0</ele><time>2026-05-02T10:39:22.998Z</time></trkpt><trkpt lat="46.11625629735236" lon="11.661169778924917"><ele>1608.0</ele><time>2026-05-02T10:39:23.998Z</time></trkpt><trkpt lat="46.116272984036954" lon="11.661319501804543"><ele>1608.0</ele><time>2026-05-02T10:39:24.998Z</time></trkpt><trkpt lat="46.11629109440489" lon="11.66144924063603"><ele>1608.0</ele><time>2026-05-02T10:39:25.998Z</time></trkpt><trkpt lat="46.11630016893493" lon="11.661604606259573"><ele>1606.8000000000002</ele><time>2026-05-02T10:39:27.998Z</time></trkpt><trkpt lat="46.116314445942706" lon="11.661770435651185"><ele>1605.6</ele><time>2026-05-02T10:39:29.998Z</time></trkpt><trkpt lat="46.11632216006548" lon="11.661913361479357"><ele>1604.4</ele><time>2026-05-02T10:39:31.998Z</time></trkpt><trkpt lat="46.11633550335045" lon="11.662040671318097"><ele>1603.1999999999998</ele><time>2026-05-02T10:39:34Z</time></trkpt><trkpt lat="46.1163504489989" lon="11.66220687898635"><ele>1602.0</ele><time>2026-05-02T10:39:36Z</time></trkpt><trkpt lat="46.116363399640434" lon="11.662382640171021"><ele>1601.0</ele><time>2026-05-02T10:39:38Z</time></trkpt><trkpt lat="46.116372259787205" lon="11.662474684872503"><ele>1600.0</ele><time>2026-05-02T10:39:39Z</time></trkpt><trkpt lat="46.11638338101965" lon="11.662568714077848"><ele>1599.0</ele><time>2026-05-02T10:39:40Z</time></trkpt><trkpt lat="46.116388726306184" lon="11.662668099910377"><ele>1598.0</ele><time>2026-05-02T10:39:41Z</time></trkpt><trkpt lat="46.116396609521644" lon="11.662773263114753"><ele>1597.0</ele><time>2026-05-02T10:39:42Z</time></trkpt><trkpt lat="46.116405904438814" lon="11.662884939014507"><ele>1596.0</ele><time>2026-05-02T10:39:43Z</time></trkpt><trkpt lat="46.11641445339814" lon="11.663002818598718"><ele>1595.0</ele><time>2026-05-02T10:39:44Z</time></trkpt><trkpt lat="46.116422264209625" lon="11.663115508249312"><ele>1593.25</ele><time>2026-05-02T10:39:45Z</time></trkpt><trkpt lat="46.116432991143036" lon="11.663252901252566"><ele>1591.5</ele><time>2026-05-02T10:39:46Z</time></trkpt><trkpt lat="46.11644948818918" lon="11.66340789623573"><ele>1589.75</ele><time>2026-05-02T10:39:47Z</time></trkpt><trkpt lat="46.116458409225295" lon="11.663576536984918"><ele>1588.0</ele><time>2026-05-02T10:39:48Z</time></trkpt><trkpt lat="46.11647057374401" lon="11.66376202489394"><ele>1587.75</ele><time>2026-05-02T10:39:49Z</time></trkpt><trkpt lat="46.11648499633686" lon="11.663949020100512"><ele>1587.5</ele><time>2026-05-02T10:39:50Z</time></trkpt><trkpt lat="46.11650053138333" lon="11.664140556214512"><ele>1587.25</ele><time>2026-05-02T10:39:51Z</time></trkpt><trkpt lat="46.11651808591802" lon="11.664338846784593"><ele>1587.0</ele><time>2026-05-02T10:39:52Z</time></trkpt><trkpt lat="46.11653278582933" lon="11.664513251326266"><ele>1585.25</ele><time>2026-05-02T10:39:53Z</time></trkpt><trkpt lat="46.1165490384832" lon="11.664686129970882"><ele>1583.5</ele><time>2026-05-02T10:39:54Z</time></trkpt><trkpt lat="46.116565883350894" lon="11.664860405991686"><ele>1581.75</ele><time>2026-05-02T10:39:55Z</time></trkpt><trkpt lat="46.11661449948357" lon="11.665034392519024"><ele>1580.0</ele><time>2026-05-02T10:39:56Z</time></trkpt><trkpt lat="46.116687274829694" lon="11.665188852862002"><ele>1581.75</ele><time>2026-05-02T10:39:57Z</time></trkpt><trkpt lat="46.116785032186584" lon="11.665311331178422"><ele>1583.5</ele><time>2026-05-02T10:39:58Z</time></trkpt><trkpt lat="46.11690863008188" lon="11.665399970502513"><ele>1585.25</ele><time>2026-05-02T10:39:59Z</time></trkpt><trkpt lat="46.11704749866728" lon="11.665444197573281"><ele>1587.0</ele><time>2026-05-02T10:40:00Z</time></trkpt><trkpt lat="46.11719815249679" lon="11.665424200035574"><ele>1587.0</ele><time>2026-05-02T10:40:01Z</time></trkpt><trkpt lat="46.11732543987666" lon="11.665402441461016"><ele>1587.0</ele><time>2026-05-02T10:40:02Z</time></trkpt><trkpt lat="46.11741669073096" lon="11.665418410164541"><ele>1587.0</ele><time>2026-05-02T10:40:03Z</time></trkpt><trkpt lat="46.11747771234074" lon="11.665487309557292"><ele>1587.0</ele><time>2026-05-02T10:40:04Z</time></trkpt><trkpt lat="46.11752745594287" lon="11.665587915790875"><ele>1587.0</ele><time>2026-05-02T10:40:05Z</time></trkpt><trkpt lat="46.117522169939285" lon="11.665743913701682"><ele>1587.0</ele><time>2026-05-02T10:40:06Z</time></trkpt><trkpt lat="46.11743210410086" lon="11.6658800674489"><ele>1587.0</ele><time>2026-05-02T10:40:07Z</time></trkpt><trkpt lat="46.117386397966364" lon="11.666064372432583"><ele>1587.0</ele><time>2026-05-02T10:40:08Z</time></trkpt><trkpt lat="46.117350121175036" lon="11.666228958186155"><ele>1587.0</ele><time>2026-05-02T10:40:09Z</time></trkpt><trkpt lat="46.11737813005606" lon="11.66641468556391"><ele>1595.6666666666665</ele><time>2026-05-02T10:40:10Z</time></trkpt><trkpt lat="46.11744525635827" lon="11.666613732579902"><ele>1604.3333333333333</ele><time>2026-05-02T10:40:11Z</time></trkpt><trkpt lat="46.11752247321291" lon="11.666828741243101"><ele>1613.0</ele><time>2026-05-02T10:40:12Z</time></trkpt><trkpt lat="46.11759379327671" lon="11.667045103222932"><ele>1613.3333333333333</ele><time>2026-05-02T10:40:13Z</time></trkpt><trkpt lat="46.11765793338463" lon="11.667262491991497"><ele>1613.6666666666665</ele><time>2026-05-02T10:40:14Z</time></trkpt><trkpt lat="46.11771972141619" lon="11.667465884806573"><ele>1614.0</ele><time>2026-05-02T10:40:15Z</time></trkpt><trkpt lat="46.117777753438254" lon="11.667660354091582"><ele>1611.25</ele><time>2026-05-02T10:40:16Z</time></trkpt><trkpt lat="46.11783446208168" lon="11.667853552712812"><ele>1608.5</ele><time>2026-05-02T10:40:16.999Z</time></trkpt><trkpt lat="46.11787361104105" lon="11.668053626271202"><ele>1605.75</ele><time>2026-05-02T10:40:17.999Z</time></trkpt><trkpt lat="46.11791412950081" lon="11.668247920493508"><ele>1603.0</ele><time>2026-05-02T10:40:18.999Z</time></trkpt><trkpt lat="46.117908074337564" lon="11.668432283521316"><ele>1603.0000000000002</ele><time>2026-05-02T10:40:19.999Z</time></trkpt><trkpt lat="46.117935775494516" lon="11.668580140735283"><ele>1603.0</ele><time>2026-05-02T10:40:20.999Z</time></trkpt><trkpt lat="46.11795552355114" lon="11.668698871843137"><ele>1603.0</ele><time>2026-05-02T10:40:21.999Z</time></trkpt><trkpt lat="46.11799442002124" lon="11.668807987115155"><ele>1603.0</ele><time>2026-05-02T10:40:23.021Z</time></trkpt><trkpt lat="46.118033609133356" lon="11.66890524240998"><ele>1603.0000000000002</ele><time>2026-05-02T10:40:24.016Z</time></trkpt><trkpt lat="46.11808220441433" lon="11.66899188922106"><ele>1603.0</ele><time>2026-05-02T10:40:25.02Z</time></trkpt><trkpt lat="46.118111831147836" lon="11.669085310906931"><ele>1603.25</ele><time>2026-05-02T10:40:26.022Z</time></trkpt><trkpt lat="46.11814405448564" lon="11.669185636879607"><ele>1603.5</ele><time>2026-05-02T10:40:27.018Z</time></trkpt><trkpt lat="46.11827711002097" lon="11.66950596648899"><ele>1603.75</ele><time>2026-05-02T10:40:30.347Z</time></trkpt><trkpt lat="46.11827159317667" lon="11.669617747547118"><ele>1604.0</ele><time>2026-05-02T10:40:31.347Z</time></trkpt><trkpt lat="46.11824321349232" lon="11.66972186190917"><ele>1613.3333333333333</ele><time>2026-05-02T10:40:32.347Z</time></trkpt><trkpt lat="46.1181892282995" lon="11.669802898132678"><ele>1622.6666666666665</ele><time>2026-05-02T10:40:33.347Z</time></trkpt><trkpt lat="46.118083810277525" lon="11.669911734810817"><ele>1632.0</ele><time>2026-05-02T10:40:33.999Z</time></trkpt><trkpt lat="46.117717156500554" lon="11.669859813459254"><ele>1632.0</ele><time>2026-05-02T10:40:35.999Z</time></trkpt><trkpt lat="46.11756242456322" lon="11.669783034444153"><ele>1632.0</ele><time>2026-05-02T10:40:37.999Z</time></trkpt><trkpt lat="46.11743250122748" lon="11.669730323841263"><ele>1632.0</ele><time>2026-05-02T10:40:38.999Z</time></trkpt><trkpt lat="46.11730776543407" lon="11.669658785468112"><ele>1632.0</ele><time>2026-05-02T10:40:39.999Z</time></trkpt><trkpt lat="46.117178931572504" lon="11.669631865992818"><ele>1630.0</ele><time>2026-05-02T10:40:40.999Z</time></trkpt><trkpt lat="46.1170762946648" lon="11.669601423268736"><ele>1628.0</ele><time>2026-05-02T10:40:41.999Z</time></trkpt><trkpt lat="46.11694728232946" lon="11.669626930689292"><ele>1626.0</ele><time>2026-05-02T10:40:42.999Z</time></trkpt><trkpt lat="46.1168340130027" lon="11.66971171096434"><ele>1624.0</ele><time>2026-05-02T10:40:43.999Z</time></trkpt><trkpt lat="46.11673389795472" lon="11.66978173744504"><ele>1624.0</ele><time>2026-05-02T10:40:44.999Z</time></trkpt><trkpt lat="46.11664702254925" lon="11.669900941154259"><ele>1624.0</ele><time>2026-05-02T10:40:45.999Z</time></trkpt><trkpt lat="46.116577998336226" lon="11.670059764136516"><ele>1624.0</ele><time>2026-05-02T10:40:46.999Z</time></trkpt><trkpt lat="46.116518203890095" lon="11.670238881351652"><ele>1624.0</ele><time>2026-05-02T10:40:47.999Z</time></trkpt><trkpt lat="46.116476513750214" lon="11.670467468339675"><ele>1613.6666666666667</ele><time>2026-05-02T10:40:48.999Z</time></trkpt><trkpt lat="46.11644991138468" lon="11.670727393957272"><ele>1603.3333333333335</ele><time>2026-05-02T10:40:49.999Z</time></trkpt><trkpt lat="46.11642842614766" lon="11.670979030560524"><ele>1593.0</ele><time>2026-05-02T10:40:50.999Z</time></trkpt><trkpt lat="46.116401762424786" lon="11.671211259213033"><ele>1593.0</ele><time>2026-05-02T10:40:51.999Z</time></trkpt><trkpt lat="46.11637739928482" lon="11.671443844422939"><ele>1593.0</ele><time>2026-05-02T10:40:52.999Z</time></trkpt><trkpt lat="46.11633768943394" lon="11.671669529394167"><ele>1593.0</ele><time>2026-05-02T10:40:53.999Z</time></trkpt><trkpt lat="46.116312134151315" lon="11.671885743504484"><ele>1595.0</ele><time>2026-05-02T10:40:54.999Z</time></trkpt><trkpt lat="46.11628903264117" lon="11.672086257489994"><ele>1597.0</ele><time>2026-05-02T10:40:55.999Z</time></trkpt><trkpt lat="46.116283454348135" lon="11.672275932933486"><ele>1599.0</ele><time>2026-05-02T10:40:56.999Z</time></trkpt><trkpt lat="46.116267664830985" lon="11.672458472739931"><ele>1601.0</ele><time>2026-05-02T10:40:57.999Z</time></trkpt><trkpt lat="46.116270270421865" lon="11.672624322077757"><ele>1598.25</ele><time>2026-05-02T10:40:58.999Z</time></trkpt><trkpt lat="46.1162959655061" lon="11.672799276958026"><ele>1595.5</ele><time>2026-05-02T10:40:59.999Z</time></trkpt><trkpt lat="46.116353888401996" lon="11.672970190623941"><ele>1592.75</ele><time>2026-05-02T10:41:00.999Z</time></trkpt><trkpt lat="46.11643467121337" lon="11.673122976571058"><ele>1590.0</ele><time>2026-05-02T10:41:01.999Z</time></trkpt><trkpt lat="46.11654776202905" lon="11.673249083476893"><ele>1596.3333333333335</ele><time>2026-05-02T10:41:02.999Z</time></trkpt><trkpt lat="46.116668458860445" lon="11.673367955671981"><ele>1602.6666666666667</ele><time>2026-05-02T10:41:03.999Z</time></trkpt><trkpt lat="46.116794577303246" lon="11.673492443210419"><ele>1609.0</ele><time>2026-05-02T10:41:04.999Z</time></trkpt><trkpt lat="46.1169025524804" lon="11.673664067225513"><ele>1609.0</ele><time>2026-05-02T10:41:05.999Z</time></trkpt><trkpt lat="46.117007284497554" lon="11.67384567333984"><ele>1609.0</ele><time>2026-05-02T10:41:06.999Z</time></trkpt><trkpt lat="46.11709737742402" lon="11.67403910640263"><ele>1609.0</ele><time>2026-05-02T10:41:07.998Z</time></trkpt><trkpt lat="46.117161430394084" lon="11.67424065390413"><ele>1609.0</ele><time>2026-05-02T10:41:08.998Z</time></trkpt><trkpt lat="46.11721284103792" lon="11.674435740691793"><ele>1609.0</ele><time>2026-05-02T10:41:09.998Z</time></trkpt><trkpt lat="46.1172743149135" lon="11.674603958663926"><ele>1609.0</ele><time>2026-05-02T10:41:10.998Z</time></trkpt><trkpt lat="46.117340895317305" lon="11.67475505433144"><ele>1609.0</ele><time>2026-05-02T10:41:11.998Z</time></trkpt><trkpt lat="46.117450251042854" lon="11.674882007576247"><ele>1612.3333333333335</ele><time>2026-05-02T10:41:12.998Z</time></trkpt><trkpt lat="46.11760205046469" lon="11.674989166947308"><ele>1615.6666666666665</ele><time>2026-05-02T10:41:13.998Z</time></trkpt><trkpt lat="46.11775672957976" lon="11.675094250561664"><ele>1619.0</ele><time>2026-05-02T10:41:14.998Z</time></trkpt><trkpt lat="46.11787134232875" lon="11.675209067614"><ele>1613.8000000000002</ele><time>2026-05-02T10:41:15.998Z</time></trkpt><trkpt lat="46.11797009606473" lon="11.67530355726897"><ele>1608.6000000000001</ele><time>2026-05-02T10:41:16.998Z</time></trkpt><trkpt lat="46.11804180484919" lon="11.675411191817304"><ele>1603.4</ele><time>2026-05-02T10:41:17.998Z</time></trkpt><trkpt lat="46.11811023585793" lon="11.675523874709198"><ele>1598.2</ele><time>2026-05-02T10:41:18.998Z</time></trkpt><trkpt lat="46.118138346692376" lon="11.675657892856174"><ele>1593.0</ele><time>2026-05-02T10:41:19.998Z</time></trkpt><trkpt lat="46.11814807096034" lon="11.675810285840482"><ele>1593.0</ele><time>2026-05-02T10:41:20.998Z</time></trkpt><trkpt lat="46.1181002347516" lon="11.675977413074282"><ele>1593.0</ele><time>2026-05-02T10:41:21.998Z</time></trkpt><trkpt lat="46.11804094661779" lon="11.676146247248017"><ele>1593.0</ele><time>2026-05-02T10:41:22.998Z</time></trkpt><trkpt lat="46.11795738354894" lon="11.67630822033759"><ele>1593.0</ele><time>2026-05-02T10:41:23.998Z</time></trkpt><trkpt lat="46.117874698235944" lon="11.676486897638648"><ele>1593.4</ele><time>2026-05-02T10:41:24.998Z</time></trkpt><trkpt lat="46.11779230159088" lon="11.676651533105275"><ele>1593.8000000000002</ele><time>2026-05-02T10:41:25.998Z</time></trkpt><trkpt lat="46.11772344709775" lon="11.67678399753564"><ele>1594.2</ele><time>2026-05-02T10:41:26.998Z</time></trkpt><trkpt lat="46.117671490373525" lon="11.67690684333295"><ele>1594.6</ele><time>2026-05-02T10:41:27.998Z</time></trkpt><trkpt lat="46.11764482801173" lon="11.677034883887039"><ele>1595.0</ele><time>2026-05-02T10:41:28.998Z</time></trkpt><trkpt lat="46.11767241233752" lon="11.677171448962765"><ele>1595.0</ele><time>2026-05-02T10:41:29.998Z</time></trkpt><trkpt lat="46.117755025915606" lon="11.677307493370773"><ele>1595.0</ele><time>2026-05-02T10:41:30.998Z</time></trkpt><trkpt lat="46.11785309580954" lon="11.677422863730932"><ele>1595.0</ele><time>2026-05-02T10:41:31.998Z</time></trkpt><trkpt lat="46.11791671348146" lon="11.67753756950412"><ele>1595.0</ele><time>2026-05-02T10:41:32.998Z</time></trkpt><trkpt lat="46.117980082099564" lon="11.677635402570363"><ele>1595.0</ele><time>2026-05-02T10:41:33.998Z</time></trkpt><trkpt lat="46.11803557974256" lon="11.6777204751227"><ele>1593.1666666666665</ele><time>2026-05-02T10:41:34.998Z</time></trkpt><trkpt lat="46.11808581710913" lon="11.677796055680986"><ele>1591.3333333333333</ele><time>2026-05-02T10:41:35.998Z</time></trkpt><trkpt lat="46.11814388067535" lon="11.677853491679137"><ele>1589.5</ele><time>2026-05-02T10:41:36.998Z</time></trkpt><trkpt lat="46.11818451340132" lon="11.677940807111355"><ele>1587.6666666666665</ele><time>2026-05-02T10:41:37.998Z</time></trkpt><trkpt lat="46.11822729860121" lon="11.678030527225436"><ele>1585.8333333333333</ele><time>2026-05-02T10:41:38.998Z</time></trkpt><trkpt lat="46.11827035547859" lon="11.678133348263174"><ele>1584.0</ele><time>2026-05-02T10:41:40Z</time></trkpt><trkpt lat="46.11830456730006" lon="11.67825152802612"><ele>1589.4</ele><time>2026-05-02T10:41:41Z</time></trkpt><trkpt lat="46.11832928847913" lon="11.67838178902399"><ele>1594.8000000000002</ele><time>2026-05-02T10:41:42Z</time></trkpt><trkpt lat="46.11835050223955" lon="11.678523492323064"><ele>1600.1999999999998</ele><time>2026-05-02T10:41:43Z</time></trkpt><trkpt lat="46.11836919341136" lon="11.678664452651365"><ele>1605.6</ele><time>2026-05-02T10:41:44Z</time></trkpt><trkpt lat="46.11839108051051" lon="11.678799619717793"><ele>1611.0</ele><time>2026-05-02T10:41:45Z</time></trkpt><trkpt lat="46.118414806017384" lon="11.678940128582152"><ele>1611.0</ele><time>2026-05-02T10:41:46Z</time></trkpt><trkpt lat="46.11841465601374" lon="11.67907716708707"><ele>1611.0</ele><time>2026-05-02T10:41:47Z</time></trkpt><trkpt lat="46.11844538848545" lon="11.6792492661585"><ele>1611.0</ele><time>2026-05-02T10:41:48Z</time></trkpt><trkpt lat="46.118458590513036" lon="11.679377634807137"><ele>1611.0</ele><time>2026-05-02T10:41:49Z</time></trkpt><trkpt lat="46.11846991233172" lon="11.679478484041589"><ele>1611.0</ele><time>2026-05-02T10:41:50Z</time></trkpt><trkpt lat="46.118461341775564" lon="11.67959639155286"><ele>1611.1999999999998</ele><time>2026-05-02T10:42:08Z</time></trkpt><trkpt lat="46.1184744859244" lon="11.679701053658809"><ele>1611.3999999999999</ele><time>2026-05-02T10:42:10Z</time></trkpt><trkpt lat="46.118490803838405" lon="11.679830987455569"><ele>1611.6</ele><time>2026-05-02T10:42:12Z</time></trkpt><trkpt lat="46.11851115964732" lon="11.67999758600629"><ele>1611.8</ele><time>2026-05-02T10:42:14Z</time></trkpt><trkpt lat="46.11853096017498" lon="11.68016549466829"><ele>1612.0</ele><time>2026-05-02T10:42:16Z</time></trkpt><trkpt lat="46.118549748698825" lon="11.680331677083233"><ele>1612.0000000000002</ele><time>2026-05-02T10:42:18Z</time></trkpt><trkpt lat="46.118564515667295" lon="11.680461301509915"><ele>1612.0</ele><time>2026-05-02T10:42:19Z</time></trkpt><trkpt lat="46.118568687323226" lon="11.680566692736624"><ele>1612.0</ele><time>2026-05-02T10:42:19.999Z</time></trkpt><trkpt lat="46.11857040602158" lon="11.680665491080314"><ele>1612.0</ele><time>2026-05-02T10:42:20.999Z</time></trkpt><trkpt lat="46.11856756577584" lon="11.680760655984026"><ele>1612.0000000000002</ele><time>2026-05-02T10:42:21.999Z</time></trkpt><trkpt lat="46.118559834619845" lon="11.680862032021398"><ele>1612.0</ele><time>2026-05-02T10:42:22.999Z</time></trkpt><trkpt lat="46.11853899845578" lon="11.680993259224422"><ele>1612.8333333333335</ele><time>2026-05-02T10:42:23.999Z</time></trkpt><trkpt lat="46.118508303899155" lon="11.681126177188819"><ele>1613.6666666666667</ele><time>2026-05-02T10:42:25.999Z</time></trkpt><trkpt lat="46.11847971785916" lon="11.68124372937029"><ele>1614.5</ele><time>2026-05-02T10:42:27.999Z</time></trkpt><trkpt lat="46.118447749738124" lon="11.681375189322655"><ele>1615.3333333333335</ele><time>2026-05-02T10:42:29.999Z</time></trkpt><trkpt lat="46.1184175705274" lon="11.681499162020197"><ele>1616.1666666666667</ele><time>2026-05-02T10:42:31.999Z</time></trkpt><trkpt lat="46.118392868653515" lon="11.681599818577741"><ele>1617.0</ele><time>2026-05-02T10:42:33.999Z</time></trkpt><trkpt lat="46.11836026612725" lon="11.681732499097238"><ele>1617.0</ele><time>2026-05-02T10:42:35.999Z</time></trkpt><trkpt lat="46.11833237223831" lon="11.681845557250448"><ele>1617.0</ele><time>2026-05-02T10:42:37.999Z</time></trkpt><trkpt lat="46.118306398773775" lon="11.681950831498103"><ele>1617.0</ele><time>2026-05-02T10:42:39.999Z</time></trkpt><trkpt lat="46.11828137622424" lon="11.682052251743299"><ele>1617.0</ele><time>2026-05-02T10:42:41.999Z</time></trkpt><trkpt lat="46.1182493098531" lon="11.68218745617936"><ele>1617.0</ele><time>2026-05-02T10:42:43.999Z</time></trkpt><trkpt lat="46.11822520789196" lon="11.682291129918351"><ele>1617.0</ele><time>2026-05-02T10:42:45.999Z</time></trkpt><trkpt lat="46.11819816543575" lon="11.682407452098776"><ele>1613.5</ele><time>2026-05-02T10:42:47.999Z</time></trkpt><trkpt lat="46.11817779645123" lon="11.682495068395417"><ele>1610.0</ele><time>2026-05-02T10:42:48.999Z</time></trkpt><trkpt lat="46.1181411769595" lon="11.682648302858405"><ele>1606.5</ele><time>2026-05-02T10:42:50.999Z</time></trkpt><trkpt lat="46.11812009400455" lon="11.68273574613965"><ele>1603.0</ele><time>2026-05-02T10:42:51.999Z</time></trkpt><trkpt lat="46.118099105492625" lon="11.682827080040592"><ele>1599.5</ele><time>2026-05-02T10:42:53.999Z</time></trkpt><trkpt lat="46.11806271902797" lon="11.682996639338278"><ele>1596.0</ele><time>2026-05-02T10:42:56.999Z</time></trkpt><trkpt lat="46.118045726243686" lon="11.683105198530784"><ele>1596.0</ele><time>2026-05-02T10:42:58.999Z</time></trkpt><trkpt lat="46.11803298634687" lon="11.6832154682009"><ele>1596.0</ele><time>2026-05-02T10:42:59.999Z</time></trkpt><trkpt lat="46.11802938155974" lon="11.683327127367118"><ele>1596.0</ele><time>2026-05-02T10:43:01.999Z</time></trkpt><trkpt lat="46.11804333815698" lon="11.683440222300677"><ele>1596.0</ele><time>2026-05-02T10:43:04.999Z</time></trkpt><trkpt lat="46.1180524677671" lon="11.68353518971636"><ele>1596.0</ele><time>2026-05-02T10:43:06.999Z</time></trkpt><trkpt lat="46.11806955389066" lon="11.683632891302567"><ele>1596.0</ele><time>2026-05-02T10:43:08.999Z</time></trkpt><trkpt lat="46.118097099380066" lon="11.683747928162878"><ele>1595.8</ele><time>2026-05-02T10:43:10.999Z</time></trkpt><trkpt lat="46.11812202237879" lon="11.683836368331143"><ele>1595.6</ele><time>2026-05-02T10:43:11.999Z</time></trkpt><trkpt lat="46.11814899419433" lon="11.68393207934538"><ele>1595.4</ele><time>2026-05-02T10:43:12.998Z</time></trkpt><trkpt lat="46.11819483925786" lon="11.68409289393049"><ele>1595.2</ele><time>2026-05-02T10:43:14.998Z</time></trkpt><trkpt lat="46.118220097376565" lon="11.68417888858806"><ele>1595.0</ele><time>2026-05-02T10:43:15.998Z</time></trkpt><trkpt lat="46.11826992329465" lon="11.68435223955132"><ele>1599.4</ele><time>2026-05-02T10:43:17.998Z</time></trkpt><trkpt lat="46.11831646845767" lon="11.684519949540235"><ele>1603.8</ele><time>2026-05-02T10:43:19.998Z</time></trkpt><trkpt lat="46.1183554474757" lon="11.68466393094728"><ele>1608.1999999999998</ele><time>2026-05-02T10:43:21.998Z</time></trkpt><trkpt lat="46.118397250636605" lon="11.68481834470213"><ele>1612.6</ele><time>2026-05-02T10:43:23.998Z</time></trkpt><trkpt lat="46.118423791907375" lon="11.684932457979837"><ele>1617.0</ele><time>2026-05-02T10:43:24.998Z</time></trkpt><trkpt lat="46.118445624650434" lon="11.685050218362687"><ele>1617.0</ele><time>2026-05-02T10:43:25.998Z</time></trkpt><trkpt lat="46.11846025698184" lon="11.685150818726463"><ele>1617.0</ele><time>2026-05-02T10:43:26.998Z</time></trkpt><trkpt lat="46.11847516455752" lon="11.68526447641444"><ele>1617.0</ele><time>2026-05-02T10:43:27.998Z</time></trkpt><trkpt lat="46.11849420301471" lon="11.685424184646171"><ele>1617.0</ele><time>2026-05-02T10:43:29.998Z</time></trkpt><trkpt lat="46.11850921529401" lon="11.685549710328704"><ele>1617.0</ele><time>2026-05-02T10:43:31.998Z</time></trkpt><trkpt lat="46.118523547212575" lon="11.68566952568244"><ele>1617.0</ele><time>2026-05-02T10:43:33.998Z</time></trkpt><trkpt lat="46.118538315326866" lon="11.68579774956123"><ele>1615.6</ele><time>2026-05-02T10:43:35.998Z</time></trkpt><trkpt lat="46.11855426823732" lon="11.685941802414124"><ele>1614.1999999999998</ele><time>2026-05-02T10:43:37.998Z</time></trkpt><trkpt lat="46.118572732256645" lon="11.686106333805633"><ele>1612.8</ele><time>2026-05-02T10:43:39.998Z</time></trkpt><trkpt lat="46.11859384630151" lon="11.686273249301477"><ele>1611.4</ele><time>2026-05-02T10:43:41.998Z</time></trkpt><trkpt lat="46.11861539091656" lon="11.686410800628567"><ele>1610.0</ele><time>2026-05-02T10:43:43.998Z</time></trkpt><trkpt lat="46.1186417328905" lon="11.686532884283027"><ele>1609.6</ele><time>2026-05-02T10:43:46Z</time></trkpt><trkpt lat="46.11867461190876" lon="11.686664683766104"><ele>1609.2</ele><time>2026-05-02T10:43:48Z</time></trkpt><trkpt lat="46.118697562050045" lon="11.68675145232631"><ele>1608.8000000000002</ele><time>2026-05-02T10:43:50Z</time></trkpt><trkpt lat="46.11872926865505" lon="11.68686678365334"><ele>1608.4</ele><time>2026-05-02T10:44:23.999Z</time></trkpt><trkpt lat="46.11878231574814" lon="11.68701852689891"><ele>1608.0</ele><time>2026-05-02T10:44:25.999Z</time></trkpt><trkpt lat="46.118811520696376" lon="11.687143687621749"><ele>1609.25</ele><time>2026-05-02T10:44:26.999Z</time></trkpt><trkpt lat="46.11882247460508" lon="11.68743095683318"><ele>1610.5</ele><time>2026-05-02T10:44:28.999Z</time></trkpt><trkpt lat="46.118760161037414" lon="11.687625365230954"><ele>1611.75</ele><time>2026-05-02T10:44:29.999Z</time></trkpt><trkpt lat="46.11874280122554" lon="11.687714787776784"><ele>1613.0</ele><time>2026-05-02T10:44:30.999Z</time></trkpt><trkpt lat="46.11871266184188" lon="11.687861582677694"><ele>1619.0</ele><time>2026-05-02T10:44:32.999Z</time></trkpt><trkpt lat="46.11825279947526" lon="11.687805889420728"><ele>1618.8333333333333</ele><time>2026-05-02T10:44:34.999Z</time></trkpt><trkpt lat="46.11818046047585" lon="11.687848896192795"><ele>1618.6666666666665</ele><time>2026-05-02T10:44:35.999Z</time></trkpt><trkpt lat="46.11812216124795" lon="11.6879001904057"><ele>1618.5</ele><time>2026-05-02T10:44:36.999Z</time></trkpt><trkpt lat="46.118025859681616" lon="11.687980158687328"><ele>1618.3333333333335</ele><time>2026-05-02T10:44:38.999Z</time></trkpt><trkpt lat="46.117934492839716" lon="11.687954794792853"><ele>1618.1666666666667</ele><time>2026-05-02T10:44:40.999Z</time></trkpt><trkpt lat="46.11786510001614" lon="11.687866601981302"><ele>1618.0</ele><time>2026-05-02T10:44:42.999Z</time></trkpt><trkpt lat="46.117829645248996" lon="11.687758704595876"><ele>1618.0</ele><time>2026-05-02T10:44:44.999Z</time></trkpt><trkpt lat="46.11780879234031" lon="11.687649999365995"><ele>1618.0</ele><time>2026-05-02T10:44:46.999Z</time></trkpt><trkpt lat="46.11779162317387" lon="11.687510421202083"><ele>1618.0</ele><time>2026-05-02T10:44:48.999Z</time></trkpt><trkpt lat="46.11775888243643" lon="11.68737728522238"><ele>1618.0</ele><time>2026-05-02T10:44:50.999Z</time></trkpt><trkpt lat="46.11770934482501" lon="11.687244678162466"><ele>1618.0</ele><time>2026-05-02T10:44:52.999Z</time></trkpt><trkpt lat="46.11764912283275" lon="11.687130431514035"><ele>1618.0000000000002</ele><time>2026-05-02T10:44:54.999Z</time></trkpt><trkpt lat="46.1176004997331" lon="11.687044442856921"><ele>1618.0</ele><time>2026-05-02T10:44:56.999Z</time></trkpt><trkpt lat="46.11755369736788" lon="11.68696617506847"><ele>1618.0</ele><time>2026-05-02T10:44:58.999Z</time></trkpt><trkpt lat="46.11750476306618" lon="11.686889174288318"><ele>1618.0</ele><time>2026-05-02T10:45:00.999Z</time></trkpt><trkpt lat="46.117446315869564" lon="11.686788745519978"><ele>1618.0000000000002</ele><time>2026-05-02T10:45:02.999Z</time></trkpt><trkpt lat="46.11739979931261" lon="11.686710946710445"><ele>1618.0</ele><time>2026-05-02T10:45:03.999Z</time></trkpt><trkpt lat="46.117349372959914" lon="11.686567846200392"><ele>1617.5</ele><time>2026-05-02T10:45:05.999Z</time></trkpt><trkpt lat="46.11736330644615" lon="11.686383725680592"><ele>1617.0</ele><time>2026-05-02T10:45:07.999Z</time></trkpt><trkpt lat="46.11737660057758" lon="11.686268871537015"><ele>1616.5</ele><time>2026-05-02T10:45:08.999Z</time></trkpt><trkpt lat="46.11738975846404" lon="11.686110657893105"><ele>1616.0</ele><time>2026-05-02T10:45:10.999Z</time></trkpt><trkpt lat="46.117308095399586" lon="11.68595328409171"><ele>1615.9999999999998</ele><time>2026-05-02T10:45:12.999Z</time></trkpt><trkpt lat="46.11726888031666" lon="11.68584460444584"><ele>1616.0</ele><time>2026-05-02T10:45:13.999Z</time></trkpt><trkpt lat="46.11724667372783" lon="11.685738416221396"><ele>1616.0</ele><time>2026-05-02T10:45:14.999Z</time></trkpt><trkpt lat="46.11727255763414" lon="11.685633515089911"><ele>1616.0</ele><time>2026-05-02T10:45:15.999Z</time></trkpt><trkpt lat="46.11727856376787" lon="11.685503516739272"><ele>1615.9999999999998</ele><time>2026-05-02T10:45:16.999Z</time></trkpt><trkpt lat="46.11728516460258" lon="11.685372582173684"><ele>1616.0</ele><time>2026-05-02T10:45:17.998Z</time></trkpt><trkpt lat="46.11728373716535" lon="11.685224072126124"><ele>1616.3333333333333</ele><time>2026-05-02T10:45:18.998Z</time></trkpt><trkpt lat="46.11726648418528" lon="11.685079034168005"><ele>1616.6666666666665</ele><time>2026-05-02T10:45:19.998Z</time></trkpt><trkpt lat="46.117251149384664" lon="11.684971561126744"><ele>1617.0</ele><time>2026-05-02T10:45:20.998Z</time></trkpt><trkpt lat="46.11724205259823" lon="11.684836134488853"><ele>1617.3333333333335</ele><time>2026-05-02T10:45:21.998Z</time></trkpt><trkpt lat="46.11722831501031" lon="11.684716126459296"><ele>1617.6666666666667</ele><time>2026-05-02T10:45:22.998Z</time></trkpt><trkpt lat="46.117215593167764" lon="11.684607097744134"><ele>1618.0</ele><time>2026-05-02T10:45:23.998Z</time></trkpt><trkpt lat="46.11720437372208" lon="11.684483741638562"><ele>1616.8000000000002</ele><time>2026-05-02T10:45:24.998Z</time></trkpt><trkpt lat="46.11716518320752" lon="11.684365344006453"><ele>1615.6</ele><time>2026-05-02T10:45:25.998Z</time></trkpt><trkpt lat="46.117128693201764" lon="11.684231657977149"><ele>1614.4</ele><time>2026-05-02T10:45:26.998Z</time></trkpt><trkpt lat="46.11709411939286" lon="11.684105504935252"><ele>1613.1999999999998</ele><time>2026-05-02T10:45:27.998Z</time></trkpt><trkpt lat="46.11706252157259" lon="11.683980367238545"><ele>1612.0</ele><time>2026-05-02T10:45:28.998Z</time></trkpt><trkpt lat="46.117047623532926" lon="11.683829208456443"><ele>1612.0</ele><time>2026-05-02T10:45:29.998Z</time></trkpt><trkpt lat="46.11702792292142" lon="11.683705413600041"><ele>1612.0</ele><time>2026-05-02T10:45:30.998Z</time></trkpt><trkpt lat="46.11701044994159" lon="11.683571872505409"><ele>1612.0</ele><time>2026-05-02T10:45:31.998Z</time></trkpt><trkpt lat="46.11699871064304" lon="11.683434862379649"><ele>1612.0</ele><time>2026-05-02T10:45:32.998Z</time></trkpt><trkpt lat="46.11699111263921" lon="11.68329224282529"><ele>1612.0</ele><time>2026-05-02T10:45:33.998Z</time></trkpt><trkpt lat="46.1169754124508" lon="11.683177773946829"><ele>1611.6</ele><time>2026-05-02T10:45:34.998Z</time></trkpt><trkpt lat="46.116959710884835" lon="11.68303715770606"><ele>1611.1999999999998</ele><time>2026-05-02T10:45:35.998Z</time></trkpt><trkpt lat="46.11695350679604" lon="11.682895340079968"><ele>1610.8</ele><time>2026-05-02T10:45:36.998Z</time></trkpt><trkpt lat="46.11694935143078" lon="11.682746702347238"><ele>1610.4</ele><time>2026-05-02T10:45:37.998Z</time></trkpt><trkpt lat="46.116932259538615" lon="11.682618028137133"><ele>1610.0</ele><time>2026-05-02T10:45:38.998Z</time></trkpt><trkpt lat="46.116922932879824" lon="11.68247792439043"><ele>1609.8333333333333</ele><time>2026-05-02T10:45:39.998Z</time></trkpt><trkpt lat="46.116936908291954" lon="11.682351843102163"><ele>1609.6666666666665</ele><time>2026-05-02T10:45:40.998Z</time></trkpt><trkpt lat="46.116925865887445" lon="11.682211754120289"><ele>1609.5</ele><time>2026-05-02T10:45:41.998Z</time></trkpt><trkpt lat="46.11694824572998" lon="11.682087187414178"><ele>1609.3333333333335</ele><time>2026-05-02T10:45:42.998Z</time></trkpt><trkpt lat="46.11693787179687" lon="11.681957807209313"><ele>1609.1666666666667</ele><time>2026-05-02T10:45:43.998Z</time></trkpt><trkpt lat="46.11695168903323" lon="11.681840861309514"><ele>1609.0</ele><time>2026-05-02T10:45:44.998Z</time></trkpt><trkpt lat="46.11694898363711" lon="11.681711087017186"><ele>1608.1666666666667</ele><time>2026-05-02T10:45:45.998Z</time></trkpt><trkpt lat="46.11694680322019" lon="11.68159484649171"><ele>1607.3333333333335</ele><time>2026-05-02T10:45:46.998Z</time></trkpt><trkpt lat="46.11694003885964" lon="11.68148231147028"><ele>1606.5</ele><time>2026-05-02T10:45:47.998Z</time></trkpt><trkpt lat="46.11691204946021" lon="11.681359497731645"><ele>1605.6666666666665</ele><time>2026-05-02T10:45:48.998Z</time></trkpt><trkpt lat="46.11688925967104" lon="11.681259144622496"><ele>1604.8333333333333</ele><time>2026-05-02T10:45:49.998Z</time></trkpt><trkpt lat="46.1168445311327" lon="11.681159869309358"><ele>1604.0</ele><time>2026-05-02T10:45:50.998Z</time></trkpt><trkpt lat="46.11679146004168" lon="11.68104919669885"><ele>1601.3333333333333</ele><time>2026-05-02T10:45:52Z</time></trkpt><trkpt lat="46.11673743768871" lon="11.680924508745358"><ele>1598.6666666666665</ele><time>2026-05-02T10:45:53Z</time></trkpt><trkpt lat="46.11668912777206" lon="11.680798900060742"><ele>1596.0</ele><time>2026-05-02T10:45:54Z</time></trkpt><trkpt lat="46.11664736798672" lon="11.680707350710499"><ele>1593.3333333333335</ele><time>2026-05-02T10:45:55Z</time></trkpt><trkpt lat="46.11664707156921" lon="11.680595579890095"><ele>1590.6666666666667</ele><time>2026-05-02T10:45:56Z</time></trkpt><trkpt lat="46.11662867245375" lon="11.680490596983734"><ele>1588.0</ele><time>2026-05-02T10:45:57Z</time></trkpt><trkpt lat="46.11660754876244" lon="11.680389977847293"><ele>1588.0000000000002</ele><time>2026-05-02T10:45:58Z</time></trkpt><trkpt lat="46.11658207746027" lon="11.68026865131866"><ele>1588.0</ele><time>2026-05-02T10:45:59Z</time></trkpt><trkpt lat="46.116559536940436" lon="11.680171963343223"><ele>1588.0</ele><time>2026-05-02T10:46:00Z</time></trkpt><trkpt lat="46.11652564017356" lon="11.680077976433475"><ele>1588.0</ele><time>2026-05-02T10:46:01Z</time></trkpt><trkpt lat="46.11648394903415" lon="11.679993322184444"><ele>1588.0000000000002</ele><time>2026-05-02T10:46:02Z</time></trkpt><trkpt lat="46.11641607537181" lon="11.679909743167633"><ele>1588.0</ele><time>2026-05-02T10:46:03Z</time></trkpt><trkpt lat="46.116349728150745" lon="11.67980610417137"><ele>1589.5000000000002</ele><time>2026-05-02T10:46:04Z</time></trkpt><trkpt lat="46.11627204223149" lon="11.679688552443483"><ele>1591.0</ele><time>2026-05-02T10:46:05Z</time></trkpt><trkpt lat="46.116231556052604" lon="11.679593492761882"><ele>1592.5</ele><time>2026-05-02T10:46:06Z</time></trkpt><trkpt lat="46.116173688890036" lon="11.679535735854865"><ele>1594.0</ele><time>2026-05-02T10:46:07Z</time></trkpt><trkpt lat="46.11610147371746" lon="11.679425338373898"><ele>1595.5000000000002</ele><time>2026-05-02T10:46:09Z</time></trkpt><trkpt lat="46.116038505718485" lon="11.679374558654535"><ele>1597.0</ele><time>2026-05-02T10:46:10Z</time></trkpt><trkpt lat="46.11595988773784" lon="11.679318153666468"><ele>1594.8</ele><time>2026-05-02T10:46:11Z</time></trkpt><trkpt lat="46.115871461255466" lon="11.679243169497187"><ele>1592.6</ele><time>2026-05-02T10:46:12Z</time></trkpt><trkpt lat="46.11578796913557" lon="11.679156829859028"><ele>1590.3999999999999</ele><time>2026-05-02T10:46:13Z</time></trkpt><trkpt lat="46.115715007800155" lon="11.67909820704545"><ele>1588.1999999999998</ele><time>2026-05-02T10:46:14Z</time></trkpt><trkpt lat="46.11564312108263" lon="11.679028693859964"><ele>1586.0</ele><time>2026-05-02T10:46:15Z</time></trkpt><trkpt lat="46.115537311608264" lon="11.67892019777069"><ele>1586.0</ele><time>2026-05-02T10:46:16Z</time></trkpt><trkpt lat="46.11545339081587" lon="11.67880371429856"><ele>1586.0</ele><time>2026-05-02T10:46:17Z</time></trkpt><trkpt lat="46.115381797768514" lon="11.678674964114915"><ele>1586.0</ele><time>2026-05-02T10:46:18Z</time></trkpt><trkpt lat="46.11531764718651" lon="11.678560990861298"><ele>1586.0</ele><time>2026-05-02T10:46:19Z</time></trkpt><trkpt lat="46.11523925985718" lon="11.67845489809674"><ele>1586.0</ele><time>2026-05-02T10:46:20Z</time></trkpt><trkpt lat="46.11516517933445" lon="11.678317012127804"><ele>1583.0</ele><time>2026-05-02T10:46:21Z</time></trkpt><trkpt lat="46.115095479703676" lon="11.67818704654006"><ele>1580.0</ele><time>2026-05-02T10:46:22Z</time></trkpt><trkpt lat="46.115021636181915" lon="11.678064754326382"><ele>1577.0</ele><time>2026-05-02T10:46:23Z</time></trkpt><trkpt lat="46.1149599196246" lon="11.677957602312278"><ele>1574.0</ele><time>2026-05-02T10:46:24Z</time></trkpt><trkpt lat="46.114893932182014" lon="11.677851570845926"><ele>1571.0</ele><time>2026-05-02T10:46:25Z</time></trkpt><trkpt lat="46.114830425587286" lon="11.677750989493642"><ele>1569.8</ele><time>2026-05-02T10:46:26Z</time></trkpt><trkpt lat="46.11477867892411" lon="11.6776844002873"><ele>1568.6</ele><time>2026-05-02T10:46:27Z</time></trkpt><trkpt lat="46.11471066607793" lon="11.67757426216173"><ele>1567.4</ele><time>2026-05-02T10:46:27.999Z</time></trkpt><trkpt lat="46.11463516942831" lon="11.677481181592006"><ele>1566.2</ele><time>2026-05-02T10:46:28.999Z</time></trkpt><trkpt lat="46.11455766836705" lon="11.677368883381499"><ele>1565.0</ele><time>2026-05-02T10:46:29.999Z</time></trkpt><trkpt lat="46.114478964492676" lon="11.677277686426596"><ele>1565.0</ele><time>2026-05-02T10:46:30.999Z</time></trkpt><trkpt lat="46.11441607741133" lon="11.677170886646348"><ele>1565.0</ele><time>2026-05-02T10:46:31.999Z</time></trkpt><trkpt lat="46.11433913444359" lon="11.677105739218"><ele>1565.0</ele><time>2026-05-02T10:46:32.999Z</time></trkpt><trkpt lat="46.11427644968144" lon="11.677002879947825"><ele>1565.0</ele><time>2026-05-02T10:46:33.999Z</time></trkpt><trkpt lat="46.11421389223648" lon="11.67692760732752"><ele>1565.0</ele><time>2026-05-02T10:46:34.999Z</time></trkpt><trkpt lat="46.1141250737057" lon="11.67680925088303"><ele>1557.8</ele><time>2026-05-02T10:46:36.999Z</time></trkpt><trkpt lat="46.11407045361395" lon="11.67673542232277"><ele>1550.6</ele><time>2026-05-02T10:46:37.999Z</time></trkpt><trkpt lat="46.11398763961037" lon="11.676644729385668"><ele>1543.4</ele><time>2026-05-02T10:46:39.999Z</time></trkpt><trkpt lat="46.113894405652275" lon="11.676586801427717"><ele>1536.2</ele><time>2026-05-02T10:46:41.999Z</time></trkpt><trkpt lat="46.11376513305197" lon="11.676560569476548"><ele>1529.0</ele><time>2026-05-02T10:46:43.999Z</time></trkpt><trkpt lat="46.113674624867215" lon="11.676576337585468"><ele>1529.0</ele><time>2026-05-02T10:46:44.999Z</time></trkpt><trkpt lat="46.113599888621316" lon="11.676610335967842"><ele>1529.0</ele><time>2026-05-02T10:46:45.999Z</time></trkpt><trkpt lat="46.113529149278" lon="11.676653298253598"><ele>1529.0</ele><time>2026-05-02T10:46:46.999Z</time></trkpt><trkpt lat="46.11343757266629" lon="11.676791788058715"><ele>1529.0</ele><time>2026-05-02T10:46:48.999Z</time></trkpt><trkpt lat="46.11340044389074" lon="11.676890450094351"><ele>1529.0</ele><time>2026-05-02T10:46:49.999Z</time></trkpt><trkpt lat="46.1133733785414" lon="11.676987794305822"><ele>1529.0</ele><time>2026-05-02T10:46:50.999Z</time></trkpt><trkpt lat="46.11335322227821" lon="11.677105935017345"><ele>1529.8333333333335</ele><time>2026-05-02T10:46:51.999Z</time></trkpt><trkpt lat="46.11333438272676" lon="11.67722288953731"><ele>1530.6666666666667</ele><time>2026-05-02T10:46:52.999Z</time></trkpt><trkpt lat="46.11331775088463" lon="11.677344989788633"><ele>1531.5</ele><time>2026-05-02T10:46:53.999Z</time></trkpt><trkpt lat="46.11330320466092" lon="11.677456898778784"><ele>1532.3333333333333</ele><time>2026-05-02T10:46:54.999Z</time></trkpt><trkpt lat="46.11329449160092" lon="11.677565361258827"><ele>1533.1666666666665</ele><time>2026-05-02T10:46:55.999Z</time></trkpt><trkpt lat="46.113289023403716" lon="11.677706209449454"><ele>1534.0</ele><time>2026-05-02T10:46:56.999Z</time></trkpt><trkpt lat="46.11328862577093" lon="11.677820571294673"><ele>1534.0</ele><time>2026-05-02T10:46:57.999Z</time></trkpt><trkpt lat="46.11329673196611" lon="11.677951268937349"><ele>1534.0</ele><time>2026-05-02T10:46:58.999Z</time></trkpt><trkpt lat="46.11330527887564" lon="11.67807077089981"><ele>1534.0</ele><time>2026-05-02T10:46:59.999Z</time></trkpt><trkpt lat="46.113320107908486" lon="11.678207425199595"><ele>1534.0</ele><time>2026-05-02T10:47:00.999Z</time></trkpt><trkpt lat="46.11335351646816" lon="11.678358213560404"><ele>1534.0</ele><time>2026-05-02T10:47:01.999Z</time></trkpt><trkpt lat="46.113371511507694" lon="11.678508513599638"><ele>1533.2</ele><time>2026-05-02T10:47:02.999Z</time></trkpt><trkpt lat="46.11339134911329" lon="11.678669040988064"><ele>1532.4</ele><time>2026-05-02T10:47:03.999Z</time></trkpt><trkpt lat="46.113413207820805" lon="11.678814393514878"><ele>1531.6</ele><time>2026-05-02T10:47:04.999Z</time></trkpt><trkpt lat="46.11343207247225" lon="11.678947910771043"><ele>1530.8</ele><time>2026-05-02T10:47:05.999Z</time></trkpt><trkpt lat="46.11346704793645" lon="11.679084502784086"><ele>1530.0</ele><time>2026-05-02T10:47:06.999Z</time></trkpt><trkpt lat="46.113479202281994" lon="11.67920393636685"><ele>1530.0</ele><time>2026-05-02T10:47:07.999Z</time></trkpt><trkpt lat="46.11349344180123" lon="11.679312353826804"><ele>1530.0</ele><time>2026-05-02T10:47:08.999Z</time></trkpt><trkpt lat="46.11350387807723" lon="11.679420065227195"><ele>1530.0</ele><time>2026-05-02T10:47:09.999Z</time></trkpt><trkpt lat="46.11349128337084" lon="11.67952899170625"><ele>1530.0</ele><time>2026-05-02T10:47:10.999Z</time></trkpt><trkpt lat="46.11346265664207" lon="11.679622526561529"><ele>1530.0</ele><time>2026-05-02T10:47:11.999Z</time></trkpt><trkpt lat="46.1134164363952" lon="11.679707388246442"><ele>1530.0</ele><time>2026-05-02T10:47:12.999Z</time></trkpt><trkpt lat="46.113401376064445" lon="11.679881952962628"><ele>1531.0</ele><time>2026-05-02T10:47:14.999Z</time></trkpt><trkpt lat="46.11339276474067" lon="11.680020711459779"><ele>1532.0</ele><time>2026-05-02T10:47:16.999Z</time></trkpt><trkpt lat="46.11336845207844" lon="11.680145669670347"><ele>1533.0</ele><time>2026-05-02T10:47:18.999Z</time></trkpt><trkpt lat="46.113266758852774" lon="11.680099011878625"><ele>1534.0</ele><time>2026-05-02T10:47:20.999Z</time></trkpt><trkpt lat="46.11321051541189" lon="11.679938719224188"><ele>1535.0</ele><time>2026-05-02T10:47:22.999Z</time></trkpt><trkpt lat="46.113184424043205" lon="11.67984087769192"><ele>1534.3333333333335</ele><time>2026-05-02T10:47:23.999Z</time></trkpt><trkpt lat="46.11314858381831" lon="11.679733168762306"><ele>1533.6666666666667</ele><time>2026-05-02T10:47:24.999Z</time></trkpt><trkpt lat="46.11311396464827" lon="11.679650427110484"><ele>1533.0</ele><time>2026-05-02T10:47:25.998Z</time></trkpt><trkpt lat="46.11301674212396" lon="11.679517222086217"><ele>1532.3333333333333</ele><time>2026-05-02T10:47:27.998Z</time></trkpt><trkpt lat="46.112966505623284" lon="11.679446165041847"><ele>1531.6666666666665</ele><time>2026-05-02T10:47:28.998Z</time></trkpt><trkpt lat="46.11290820462702" lon="11.679359453052243"><ele>1531.0</ele><time>2026-05-02T10:47:29.998Z</time></trkpt><trkpt lat="46.11284367165107" lon="11.679273964210447"><ele>1531.0</ele><time>2026-05-02T10:47:30.998Z</time></trkpt><trkpt lat="46.1127904805156" lon="11.679205864046484"><ele>1531.0</ele><time>2026-05-02T10:47:31.998Z</time></trkpt><trkpt lat="46.11272897904361" lon="11.679121574629022"><ele>1531.0</ele><time>2026-05-02T10:47:32.998Z</time></trkpt><trkpt lat="46.1126731812583" lon="11.679008255241554"><ele>1531.0</ele><time>2026-05-02T10:47:33.998Z</time></trkpt><trkpt lat="46.11261052406593" lon="11.678911114934898"><ele>1531.0</ele><time>2026-05-02T10:47:34.998Z</time></trkpt><trkpt lat="46.11255841116618" lon="11.678832074072194"><ele>1531.0</ele><time>2026-05-02T10:47:35.998Z</time></trkpt><trkpt lat="46.11249088282789" lon="11.678753395349553"><ele>1531.0</ele><time>2026-05-02T10:47:36.998Z</time></trkpt><trkpt lat="46.11243621099366" lon="11.678660471434572"><ele>1531.0</ele><time>2026-05-02T10:47:37.998Z</time></trkpt><trkpt lat="46.112368119814406" lon="11.678561226239546"><ele>1531.0</ele><time>2026-05-02T10:47:39.998Z</time></trkpt><trkpt lat="46.112305183835375" lon="11.678494075753584"><ele>1531.0</ele><time>2026-05-02T10:47:41.998Z</time></trkpt><trkpt lat="46.11225109607615" lon="11.678379654528685"><ele>1531.0</ele><time>2026-05-02T10:48:12Z</time></trkpt><trkpt lat="46.11219134879452" lon="11.678310585599599"><ele>1531.0</ele><time>2026-05-02T10:48:14Z</time></trkpt><trkpt lat="46.11213634963827" lon="11.678236630826577"><ele>1531.0</ele><time>2026-05-02T10:48:16Z</time></trkpt><trkpt lat="46.11207264154631" lon="11.678162026298297"><ele>1531.0</ele><time>2026-05-02T10:48:18Z</time></trkpt><trkpt lat="46.11201641562837" lon="11.67807949855265"><ele>1531.0</ele><time>2026-05-02T10:48:19Z</time></trkpt><trkpt lat="46.11195090001001" lon="11.677981199737467"><ele>1531.0</ele><time>2026-05-02T10:48:20Z</time></trkpt><trkpt lat="46.111857926538725" lon="11.677870234778311"><ele>1531.0</ele><time>2026-05-02T10:48:21Z</time></trkpt><trkpt lat="46.111792219664096" lon="11.677747799623132"><ele>1527.4</ele><time>2026-05-02T10:48:22Z</time></trkpt><trkpt lat="46.11173547509255" lon="11.677632713556477"><ele>1523.8</ele><time>2026-05-02T10:48:23Z</time></trkpt><trkpt lat="46.11168175931827" lon="11.677527945228045"><ele>1520.2</ele><time>2026-05-02T10:48:24Z</time></trkpt><trkpt lat="46.111619069519776" lon="11.677456314630597"><ele>1516.6000000000001</ele><time>2026-05-02T10:48:25Z</time></trkpt><trkpt lat="46.11154624880131" lon="11.677362319795344"><ele>1513.0</ele><time>2026-05-02T10:48:26Z</time></trkpt><trkpt lat="46.11147523176078" lon="11.677277294842526"><ele>1513.0</ele><time>2026-05-02T10:48:27Z</time></trkpt><trkpt lat="46.11141240135575" lon="11.677174842804277"><ele>1513.0</ele><time>2026-05-02T10:48:28Z</time></trkpt><trkpt lat="46.111340196904486" lon="11.677089963652433"><ele>1513.0</ele><time>2026-05-02T10:48:29Z</time></trkpt><trkpt lat="46.1112624986269" lon="11.677014383169189"><ele>1513.0</ele><time>2026-05-02T10:48:30Z</time></trkpt><trkpt lat="46.111187220583886" lon="11.67695230046186"><ele>1513.0</ele><time>2026-05-02T10:48:31Z</time></trkpt><trkpt lat="46.11110884007113" lon="11.676899661125926"><ele>1507.0</ele><time>2026-05-02T10:48:32Z</time></trkpt><trkpt lat="46.11103068890443" lon="11.67687523399809"><ele>1501.0</ele><time>2026-05-02T10:48:33Z</time></trkpt><trkpt lat="46.11093934770247" lon="11.676828891616653"><ele>1495.0</ele><time>2026-05-02T10:48:34Z</time></trkpt><trkpt lat="46.11081494665476" lon="11.676809518308286"><ele>1489.0</ele><time>2026-05-02T10:48:35Z</time></trkpt><trkpt lat="46.11070002004871" lon="11.676800485094992"><ele>1483.0</ele><time>2026-05-02T10:48:36Z</time></trkpt><trkpt lat="46.11059840245836" lon="11.676803172112797"><ele>1485.8000000000002</ele><time>2026-05-02T10:48:37Z</time></trkpt><trkpt lat="46.11049532551479" lon="11.676818378488015"><ele>1488.6</ele><time>2026-05-02T10:48:38Z</time></trkpt><trkpt lat="46.110397285900284" lon="11.67686148842261"><ele>1491.4</ele><time>2026-05-02T10:48:39Z</time></trkpt><trkpt lat="46.11032299753232" lon="11.676919439078198"><ele>1494.1999999999998</ele><time>2026-05-02T10:48:40Z</time></trkpt><trkpt lat="46.11026236342005" lon="11.676972026283504"><ele>1497.0</ele><time>2026-05-02T10:48:41Z</time></trkpt><trkpt lat="46.11017888952291" lon="11.677048840608967"><ele>1497.0</ele><time>2026-05-02T10:48:41.999Z</time></trkpt><trkpt lat="46.11009590528924" lon="11.677134464319042"><ele>1497.0</ele><time>2026-05-02T10:48:42.999Z</time></trkpt><trkpt lat="46.10996008505993" lon="11.677287814141827"><ele>1497.0</ele><time>2026-05-02T10:48:44.999Z</time></trkpt><trkpt lat="46.10985140806618" lon="11.677384575480438"><ele>1497.0</ele><time>2026-05-02T10:48:45.999Z</time></trkpt><trkpt lat="46.10973880505149" lon="11.677478505517284"><ele>1491.0</ele><time>2026-05-02T10:48:46.999Z</time></trkpt><trkpt lat="46.10961275478569" lon="11.67753980730412"><ele>1485.0</ele><time>2026-05-02T10:48:47.999Z</time></trkpt><trkpt lat="46.10949799880165" lon="11.677635748266445"><ele>1479.0</ele><time>2026-05-02T10:48:48.999Z</time></trkpt><trkpt lat="46.10938364043385" lon="11.677681757770774"><ele>1473.0</ele><time>2026-05-02T10:48:49.999Z</time></trkpt><trkpt lat="46.10928683361659" lon="11.67776562555327"><ele>1476.0</ele><time>2026-05-02T10:48:50.999Z</time></trkpt><trkpt lat="46.109184213943855" lon="11.67782579038339"><ele>1479.0</ele><time>2026-05-02T10:48:51.999Z</time></trkpt><trkpt lat="46.10906802836525" lon="11.677862244851145"><ele>1482.0</ele><time>2026-05-02T10:48:52.999Z</time></trkpt><trkpt lat="46.10894673690494" lon="11.677890222860249"><ele>1485.0</ele><time>2026-05-02T10:48:53.999Z</time></trkpt><trkpt lat="46.10882554704096" lon="11.67795236075666"><ele>1485.0</ele><time>2026-05-02T10:48:54.999Z</time></trkpt><trkpt lat="46.108688715597324" lon="11.677965133846511"><ele>1485.0</ele><time>2026-05-02T10:48:55.999Z</time></trkpt><trkpt lat="46.108571733825144" lon="11.677982832194537"><ele>1485.0</ele><time>2026-05-02T10:48:56.999Z</time></trkpt><trkpt lat="46.10846345313" lon="11.677994724014438"><ele>1485.0</ele><time>2026-05-02T10:48:57.999Z</time></trkpt><trkpt lat="46.10835243487715" lon="11.67802982610467"><ele>1479.0</ele><time>2026-05-02T10:48:58.999Z</time></trkpt><trkpt lat="46.10823097281346" lon="11.678079320942633"><ele>1473.0</ele><time>2026-05-02T10:48:59.999Z</time></trkpt><trkpt lat="46.108101374012264" lon="11.678134922647232"><ele>1467.0</ele><time>2026-05-02T10:49:00.999Z</time></trkpt><trkpt lat="46.1079870823907" lon="11.678186602159986"><ele>1461.0</ele><time>2026-05-02T10:49:01.999Z</time></trkpt><trkpt lat="46.107882186178855" lon="11.67823492468089"><ele>1461.0</ele><time>2026-05-02T10:49:02.999Z</time></trkpt><trkpt lat="46.10778590489919" lon="11.678284423873448"><ele>1461.0</ele><time>2026-05-02T10:49:03.999Z</time></trkpt><trkpt lat="46.1076973807138" lon="11.67832908960292"><ele>1461.0</ele><time>2026-05-02T10:49:04.999Z</time></trkpt><trkpt lat="46.10760644778933" lon="11.678367022115602"><ele>1461.0</ele><time>2026-05-02T10:49:05.999Z</time></trkpt><trkpt lat="46.10750811438029" lon="11.678447270069661"><ele>1461.0</ele><time>2026-05-02T10:49:06.999Z</time></trkpt><trkpt lat="46.1074065113092" lon="11.678554587804172"><ele>1457.5</ele><time>2026-05-02T10:49:07.999Z</time></trkpt><trkpt lat="46.107304681903024" lon="11.67869573652786"><ele>1454.0</ele><time>2026-05-02T10:49:08.999Z</time></trkpt><trkpt lat="46.10720284563963" lon="11.678813948192035"><ele>1450.5</ele><time>2026-05-02T10:49:09.999Z</time></trkpt><trkpt lat="46.10710650545472" lon="11.67894426532364"><ele>1447.0</ele><time>2026-05-02T10:49:10.999Z</time></trkpt><trkpt lat="46.107010828496094" lon="11.679035845860934"><ele>1447.0</ele><time>2026-05-02T10:49:11.999Z</time></trkpt><trkpt lat="46.106916493875666" lon="11.679116392447616"><ele>1447.0</ele><time>2026-05-02T10:49:12.999Z</time></trkpt><trkpt lat="46.10681811149776" lon="11.679188039507686"><ele>1447.0</ele><time>2026-05-02T10:49:13.999Z</time></trkpt><trkpt lat="46.10671681396214" lon="11.67927304884956"><ele>1447.0</ele><time>2026-05-02T10:49:14.999Z</time></trkpt><trkpt lat="46.10665427974909" lon="11.679365450485161"><ele>1447.0</ele><time>2026-05-02T10:49:15.999Z</time></trkpt><trkpt lat="46.10657620559375" lon="11.679441674583867"><ele>1444.8</ele><time>2026-05-02T10:49:16.999Z</time></trkpt><trkpt lat="46.10651572560051" lon="11.679544590068463"><ele>1442.6</ele><time>2026-05-02T10:49:17.999Z</time></trkpt><trkpt lat="46.10643916411912" lon="11.679631459369064"><ele>1440.3999999999999</ele><time>2026-05-02T10:49:18.999Z</time></trkpt><trkpt lat="46.10639935133163" lon="11.679755781964674"><ele>1438.1999999999998</ele><time>2026-05-02T10:49:19.999Z</time></trkpt><trkpt lat="46.106347155302274" lon="11.679850694045983"><ele>1436.0</ele><time>2026-05-02T10:49:20.999Z</time></trkpt><trkpt lat="46.10630607525673" lon="11.67995155030756"><ele>1436.0</ele><time>2026-05-02T10:49:21.999Z</time></trkpt><trkpt lat="46.106269942928776" lon="11.680047685075477"><ele>1436.0</ele><time>2026-05-02T10:49:22.999Z</time></trkpt><trkpt lat="46.10624232751858" lon="11.680132824798864"><ele>1436.0</ele><time>2026-05-02T10:49:23.999Z</time></trkpt><trkpt lat="46.106189313325466" lon="11.680296139021959"><ele>1436.0</ele><time>2026-05-02T10:49:25.999Z</time></trkpt><trkpt lat="46.10613131386431" lon="11.680407683694499"><ele>1436.0</ele><time>2026-05-02T10:49:27.999Z</time></trkpt><trkpt lat="46.106033860814804" lon="11.680448363208008"><ele>1436.0</ele><time>2026-05-02T10:49:30.999Z</time></trkpt><trkpt lat="46.106019586532355" lon="11.680316222168452"><ele>1436.0</ele><time>2026-05-02T10:49:32.999Z</time></trkpt><trkpt lat="46.10611191235554" lon="11.680250240878424"><ele>1436.0</ele><time>2026-05-02T10:49:34.999Z</time></trkpt><trkpt lat="46.106162952640744" lon="11.680161786539953"><ele>1436.0</ele><time>2026-05-02T10:49:36.998Z</time></trkpt><trkpt lat="46.106167831371174" lon="11.680056529224228"><ele>1436.0</ele><time>2026-05-02T10:49:39.998Z</time></trkpt><trkpt lat="46.106170162726286" lon="11.679951773820862"><ele>1436.0</ele><time>2026-05-02T10:49:42.998Z</time></trkpt><trkpt lat="46.10617460766566" lon="11.679851619244173"><ele>1436.0</ele><time>2026-05-02T10:49:44.998Z</time></trkpt><trkpt lat="46.106195481878004" lon="11.679758710098133"><ele>1436.0</ele><time>2026-05-02T10:49:46.998Z</time></trkpt><trkpt lat="46.10619589060835" lon="11.679599578231892"><ele>1436.0</ele><time>2026-05-02T10:49:48.998Z</time></trkpt><trkpt lat="46.1062299980097" lon="11.679490189669274"><ele>1436.0</ele><time>2026-05-02T10:49:49.998Z</time></trkpt><trkpt lat="46.106238881443964" lon="11.6793872357666"><ele>1436.0</ele><time>2026-05-02T10:49:50.998Z</time></trkpt><trkpt lat="46.10626881663041" lon="11.67929752479072"><ele>1436.0</ele><time>2026-05-02T10:49:51.998Z</time></trkpt><trkpt lat="46.10630799444113" lon="11.679202440431672"><ele>1437.6666666666667</ele><time>2026-05-02T10:49:53.998Z</time></trkpt><trkpt lat="46.106343904014004" lon="11.67908811068373"><ele>1439.3333333333335</ele><time>2026-05-02T10:49:55.998Z</time></trkpt><trkpt lat="46.10637478746578" lon="11.679000316686693"><ele>1441.0</ele><time>2026-05-02T10:49:56.998Z</time></trkpt><trkpt lat="46.106415625800985" lon="11.678905068955721"><ele>1442.6666666666667</ele><time>2026-05-02T10:49:58.998Z</time></trkpt><trkpt lat="46.106352675948905" lon="11.678888979868448"><ele>1444.3333333333333</ele><time>2026-05-02T10:50:02.998Z</time></trkpt><trkpt lat="46.10623859950062" lon="11.67898224440245"><ele>1446.0</ele><time>2026-05-02T10:50:05Z</time></trkpt><trkpt lat="46.10618254554736" lon="11.679044581439916"><ele>1446.0</ele><time>2026-05-02T10:50:06Z</time></trkpt><trkpt lat="46.106120801241524" lon="11.679120277865895"><ele>1446.0</ele><time>2026-05-02T10:50:07Z</time></trkpt><trkpt lat="46.10605281794366" lon="11.679205582677099"><ele>1446.0</ele><time>2026-05-02T10:50:08Z</time></trkpt><trkpt lat="46.10598470050026" lon="11.679310163689658"><ele>1446.0</ele><time>2026-05-02T10:50:09Z</time></trkpt><trkpt lat="46.10591474623392" lon="11.67943527507773"><ele>1446.0</ele><time>2026-05-02T10:50:10Z</time></trkpt><trkpt lat="46.10585390197742" lon="11.679563952385324"><ele>1446.8</ele><time>2026-05-02T10:50:11Z</time></trkpt><trkpt lat="46.10579733698652" lon="11.679674956084536"><ele>1447.6</ele><time>2026-05-02T10:50:12Z</time></trkpt><trkpt lat="46.10573466419309" lon="11.679767114363196"><ele>1448.4</ele><time>2026-05-02T10:50:13Z</time></trkpt><trkpt lat="46.10566014292146" lon="11.67986319623331"><ele>1449.2</ele><time>2026-05-02T10:50:14Z</time></trkpt><trkpt lat="46.10555387959645" lon="11.67997818840573"><ele>1450.0</ele><time>2026-05-02T10:50:15Z</time></trkpt><trkpt lat="46.105464932660766" lon="11.680081850067088"><ele>1450.0</ele><time>2026-05-02T10:50:16Z</time></trkpt><trkpt lat="46.10537956389875" lon="11.680176653161048"><ele>1450.0</ele><time>2026-05-02T10:50:17Z</time></trkpt><trkpt lat="46.10529884046976" lon="11.680268878224586"><ele>1450.0</ele><time>2026-05-02T10:50:18Z</time></trkpt><trkpt lat="46.10521148796595" lon="11.68037462890095"><ele>1450.0</ele><time>2026-05-02T10:50:19Z</time></trkpt><trkpt lat="46.1051189969635" lon="11.680466140758844"><ele>1450.0</ele><time>2026-05-02T10:50:20Z</time></trkpt><trkpt lat="46.105034930806475" lon="11.68056391863801"><ele>1448.5</ele><time>2026-05-02T10:50:21Z</time></trkpt><trkpt lat="46.104970197087624" lon="11.68063934594654"><ele>1447.0</ele><time>2026-05-02T10:50:22Z</time></trkpt><trkpt lat="46.10491061967007" lon="11.680705052983846"><ele>1445.5</ele><time>2026-05-02T10:50:23Z</time></trkpt><trkpt lat="46.10485111400916" lon="11.680777551204693"><ele>1444.0</ele><time>2026-05-02T10:50:24Z</time></trkpt><trkpt lat="46.104798814686866" lon="11.680840326828118"><ele>1442.5</ele><time>2026-05-02T10:50:25Z</time></trkpt><trkpt lat="46.10466528036996" lon="11.68086533536455"><ele>1441.0</ele><time>2026-05-02T10:50:27Z</time></trkpt><trkpt lat="46.10457617048216" lon="11.680859695866081"><ele>1441.0</ele><time>2026-05-02T10:50:28Z</time></trkpt><trkpt lat="46.104489103553604" lon="11.680847746131981"><ele>1441.0</ele><time>2026-05-02T10:50:29Z</time></trkpt><trkpt lat="46.10440079899999" lon="11.680849546485629"><ele>1441.0</ele><time>2026-05-02T10:50:30Z</time></trkpt><trkpt lat="46.10432508139363" lon="11.680840368164228"><ele>1441.0</ele><time>2026-05-02T10:50:31Z</time></trkpt><trkpt lat="46.104251214891" lon="11.680864865259737"><ele>1441.0</ele><time>2026-05-02T10:50:32Z</time></trkpt><trkpt lat="46.104181839186204" lon="11.680894466158474"><ele>1441.0</ele><time>2026-05-02T10:50:33Z</time></trkpt><trkpt lat="46.104108426945174" lon="11.680937096773564"><ele>1439.0</ele><time>2026-05-02T10:50:34Z</time></trkpt><trkpt lat="46.104045615089774" lon="11.680996267619282"><ele>1437.0</ele><time>2026-05-02T10:50:35Z</time></trkpt><trkpt lat="46.103977638440284" lon="11.68108535756846"><ele>1435.0</ele><time>2026-05-02T10:50:36Z</time></trkpt><trkpt lat="46.1039143807532" lon="11.681187803550241"><ele>1433.0</ele><time>2026-05-02T10:50:37Z</time></trkpt><trkpt lat="46.103852654706486" lon="11.681288423605329"><ele>1431.0</ele><time>2026-05-02T10:50:38Z</time></trkpt><trkpt lat="46.103794174631126" lon="11.681360120790979"><ele>1429.0</ele><time>2026-05-02T10:50:39Z</time></trkpt><trkpt lat="46.10372950284798" lon="11.681431033164827"><ele>1429.0</ele><time>2026-05-02T10:50:40Z</time></trkpt><trkpt lat="46.103658868610495" lon="11.681492804826826"><ele>1429.0</ele><time>2026-05-02T10:50:41Z</time></trkpt><trkpt lat="46.10357640483217" lon="11.681549246455402"><ele>1429.0</ele><time>2026-05-02T10:50:42Z</time></trkpt><trkpt lat="46.10346560888679" lon="11.681618534232385"><ele>1429.0</ele><time>2026-05-02T10:50:43Z</time></trkpt><trkpt lat="46.103380982808446" lon="11.681677520375002"><ele>1429.0</ele><time>2026-05-02T10:50:44Z</time></trkpt><trkpt lat="46.10330739146407" lon="11.681740329601704"><ele>1430.4</ele><time>2026-05-02T10:50:45Z</time></trkpt><trkpt lat="46.103240130359445" lon="11.681796264719232"><ele>1431.8000000000002</ele><time>2026-05-02T10:50:46Z</time></trkpt><trkpt lat="46.103149552921025" lon="11.681861551163145"><ele>1433.1999999999998</ele><time>2026-05-02T10:50:47Z</time></trkpt><trkpt lat="46.10309833471603" lon="11.681925215885203"><ele>1434.6</ele><time>2026-05-02T10:50:48Z</time></trkpt><trkpt lat="46.1030389034736" lon="11.682023103214744"><ele>1436.0</ele><time>2026-05-02T10:50:49Z</time></trkpt><trkpt lat="46.10297508912877" lon="11.68216667246577"><ele>1432.0</ele><time>2026-05-02T10:50:49.999Z</time></trkpt><trkpt lat="46.1029227843529" lon="11.682288204321432"><ele>1428.0</ele><time>2026-05-02T10:50:50.999Z</time></trkpt><trkpt lat="46.10286772169641" lon="11.682407814303735"><ele>1424.0</ele><time>2026-05-02T10:50:51.999Z</time></trkpt><trkpt lat="46.102818745537476" lon="11.682507370305045"><ele>1420.0</ele><time>2026-05-02T10:50:52.999Z</time></trkpt><trkpt lat="46.10277171759617" lon="11.682581874150364"><ele>1416.0</ele><time>2026-05-02T10:50:53.999Z</time></trkpt><trkpt lat="46.10272227707888" lon="11.682645729186879"><ele>1412.0</ele><time>2026-05-02T10:50:54.999Z</time></trkpt><trkpt lat="46.1026269178444" lon="11.682721904879697"><ele>1412.0</ele><time>2026-05-02T10:50:56.999Z</time></trkpt><trkpt lat="46.10249140179952" lon="11.682678638631295"><ele>1412.0</ele><time>2026-05-02T10:50:58.999Z</time></trkpt><trkpt lat="46.10239728706583" lon="11.682633433257374"><ele>1412.0</ele><time>2026-05-02T10:50:59.999Z</time></trkpt><trkpt lat="46.10231618199866" lon="11.682602226238231"><ele>1412.0</ele><time>2026-05-02T10:51:00.999Z</time></trkpt><trkpt lat="46.10221874350078" lon="11.682604711463751"><ele>1412.0</ele><time>2026-05-02T10:51:01.999Z</time></trkpt><trkpt lat="46.10212948545353" lon="11.682615200531027"><ele>1411.0</ele><time>2026-05-02T10:51:02.999Z</time></trkpt><trkpt lat="46.10205131096987" lon="11.682621966442953"><ele>1410.0</ele><time>2026-05-02T10:51:03.999Z</time></trkpt><trkpt lat="46.10195400434503" lon="11.682653179799109"><ele>1409.0</ele><time>2026-05-02T10:51:04.999Z</time></trkpt><trkpt lat="46.10185230364558" lon="11.682697113271484"><ele>1408.0</ele><time>2026-05-02T10:51:05.999Z</time></trkpt><trkpt lat="46.101763265706296" lon="11.68274344686728"><ele>1407.0</ele><time>2026-05-02T10:51:06.999Z</time></trkpt><trkpt lat="46.10167149979958" lon="11.682780016714894"><ele>1409.0</ele><time>2026-05-02T10:51:07.999Z</time></trkpt><trkpt lat="46.101600147954166" lon="11.682770218725386"><ele>1411.0</ele><time>2026-05-02T10:51:08.999Z</time></trkpt><trkpt lat="46.10153455304457" lon="11.68275695423678"><ele>1413.0</ele><time>2026-05-02T10:51:09.999Z</time></trkpt><trkpt lat="46.101441268072364" lon="11.682724569589395"><ele>1415.0</ele><time>2026-05-02T10:51:11.999Z</time></trkpt><trkpt lat="46.101332777234255" lon="11.682627601391964"><ele>1417.0</ele><time>2026-05-02T10:51:13.999Z</time></trkpt><trkpt lat="46.10119564776766" lon="11.682592077346765"><ele>1417.0</ele><time>2026-05-02T10:51:15.999Z</time></trkpt><trkpt lat="46.10112869438364" lon="11.682609588867903"><ele>1417.0</ele><time>2026-05-02T10:51:16.999Z</time></trkpt><trkpt lat="46.101059407403234" lon="11.682649769760994"><ele>1417.0</ele><time>2026-05-02T10:51:17.999Z</time></trkpt><trkpt lat="46.10098344769997" lon="11.682705250067734"><ele>1417.0</ele><time>2026-05-02T10:51:18.999Z</time></trkpt><trkpt lat="46.10088285426628" lon="11.68278835917232"><ele>1417.0</ele><time>2026-05-02T10:51:19.999Z</time></trkpt><trkpt lat="46.10079084907805" lon="11.682868726704742"><ele>1410.3999999999999</ele><time>2026-05-02T10:51:20.999Z</time></trkpt><trkpt lat="46.10068083163294" lon="11.682952025210403"><ele>1403.8</ele><time>2026-05-02T10:51:22.999Z</time></trkpt><trkpt lat="46.10060678387738" lon="11.682988501139056"><ele>1397.2</ele><time>2026-05-02T10:51:23.999Z</time></trkpt><trkpt lat="46.100526418102795" lon="11.683030119633308"><ele>1390.6</ele><time>2026-05-02T10:51:24.999Z</time></trkpt><trkpt lat="46.100432420347445" lon="11.683097707801862"><ele>1384.0</ele><time>2026-05-02T10:51:25.999Z</time></trkpt><trkpt lat="46.10034536947322" lon="11.683160273775748"><ele>1384.0</ele><time>2026-05-02T10:51:26.999Z</time></trkpt><trkpt lat="46.10024992047072" lon="11.683228329648207"><ele>1384.0</ele><time>2026-05-02T10:51:27.999Z</time></trkpt><trkpt lat="46.10023943550397" lon="11.683129767547003"><ele>1384.0</ele><time>2026-05-02T10:51:28.999Z</time></trkpt><trkpt lat="46.10016501661683" lon="11.683134244841243"><ele>1384.0</ele><time>2026-05-02T10:51:29.999Z</time></trkpt><trkpt lat="46.100085180518946" lon="11.683114921982488"><ele>1384.0</ele><time>2026-05-02T10:51:30.999Z</time></trkpt><trkpt lat="46.100001205566166" lon="11.683082626727579"><ele>1384.0</ele><time>2026-05-02T10:51:31.999Z</time></trkpt><trkpt lat="46.099924777156915" lon="11.68308044183496"><ele>1382.8333333333333</ele><time>2026-05-02T10:51:32.999Z</time></trkpt><trkpt lat="46.09985175703024" lon="11.683099002157794"><ele>1381.6666666666665</ele><time>2026-05-02T10:51:33.999Z</time></trkpt><trkpt lat="46.09978444939386" lon="11.683137515881821"><ele>1380.5</ele><time>2026-05-02T10:51:34.999Z</time></trkpt><trkpt lat="46.09971248769474" lon="11.683181900022332"><ele>1379.3333333333333</ele><time>2026-05-02T10:51:35.999Z</time></trkpt><trkpt lat="46.09962790348135" lon="11.683208210775188"><ele>1378.1666666666667</ele><time>2026-05-02T10:51:36.999Z</time></trkpt><trkpt lat="46.099527717173665" lon="11.683216596621104"><ele>1377.0</ele><time>2026-05-02T10:51:37.999Z</time></trkpt><trkpt lat="46.09944556476112" lon="11.68321983009294"><ele>1377.0</ele><time>2026-05-02T10:51:38.999Z</time></trkpt><trkpt lat="46.09933615342186" lon="11.683213810572392"><ele>1377.0</ele><time>2026-05-02T10:51:40.999Z</time></trkpt><trkpt lat="46.099275230341355" lon="11.68318195513457"><ele>1377.0</ele><time>2026-05-02T10:51:42.998Z</time></trkpt><trkpt lat="46.09923004695272" lon="11.683093456507331"><ele>1377.0</ele><time>2026-05-02T10:51:52.998Z</time></trkpt><trkpt lat="46.099174507472014" lon="11.682950047126573"><ele>1377.0</ele><time>2026-05-02T10:51:54.998Z</time></trkpt><trkpt lat="46.099141748595756" lon="11.682863129740905"><ele>1377.0</ele><time>2026-05-02T10:51:55.998Z</time></trkpt><trkpt lat="46.099097636548066" lon="11.682769727451408"><ele>1376.142857142857</ele><time>2026-05-02T10:51:56.998Z</time></trkpt><trkpt lat="46.09905582616753" lon="11.682682770007583"><ele>1375.2857142857144</ele><time>2026-05-02T10:51:57.998Z</time></trkpt><trkpt lat="46.099012899311795" lon="11.682601995782154"><ele>1374.4285714285716</ele><time>2026-05-02T10:51:58.998Z</time></trkpt><trkpt lat="46.09895610764633" lon="11.682520899802991"><ele>1373.5714285714284</ele><time>2026-05-02T10:51:59.998Z</time></trkpt><trkpt lat="46.09889947756715" lon="11.682463400143341"><ele>1372.7142857142858</ele><time>2026-05-02T10:52:00.998Z</time></trkpt><trkpt lat="46.09884709665524" lon="11.682399697522255"><ele>1371.857142857143</ele><time>2026-05-02T10:52:01.998Z</time></trkpt><trkpt lat="46.098785446160285" lon="11.682343227266708"><ele>1371.0</ele><time>2026-05-02T10:52:02.998Z</time></trkpt><trkpt lat="46.098748074192144" lon="11.682260260824044"><ele>1371.0</ele><time>2026-05-02T10:52:03.998Z</time></trkpt><trkpt lat="46.09870354596025" lon="11.68215739602816"><ele>1371.0</ele><time>2026-05-02T10:52:04.998Z</time></trkpt><trkpt lat="46.09866430364985" lon="11.682060546281852"><ele>1371.0</ele><time>2026-05-02T10:52:05.998Z</time></trkpt><trkpt lat="46.09856798603727" lon="11.681939814121039"><ele>1371.0</ele><time>2026-05-02T10:52:07.998Z</time></trkpt><trkpt lat="46.09850340815423" lon="11.681904966030707"><ele>1371.0</ele><time>2026-05-02T10:52:08.998Z</time></trkpt><trkpt lat="46.098431794600984" lon="11.681887865431872"><ele>1371.0</ele><time>2026-05-02T10:52:10Z</time></trkpt><trkpt lat="46.098366847067624" lon="11.681893741751303"><ele>1373.8</ele><time>2026-05-02T10:52:11Z</time></trkpt><trkpt lat="46.098276225400475" lon="11.681914549178288"><ele>1376.6</ele><time>2026-05-02T10:52:12Z</time></trkpt><trkpt lat="46.098156994831854" lon="11.681946792242373"><ele>1379.4</ele><time>2026-05-02T10:52:13Z</time></trkpt><trkpt lat="46.09805814635547" lon="11.681971502292834"><ele>1382.2</ele><time>2026-05-02T10:52:14Z</time></trkpt><trkpt lat="46.09796310211753" lon="11.681999856235059"><ele>1385.0</ele><time>2026-05-02T10:52:15Z</time></trkpt><trkpt lat="46.09789856087644" lon="11.681993662530177"><ele>1380.1666666666667</ele><time>2026-05-02T10:52:16Z</time></trkpt><trkpt lat="46.09779194231969" lon="11.681943807418518"><ele>1375.3333333333335</ele><time>2026-05-02T10:52:18Z</time></trkpt><trkpt lat="46.09772072362753" lon="11.681976918703562"><ele>1370.5</ele><time>2026-05-02T10:52:20Z</time></trkpt><trkpt lat="46.09773823581974" lon="11.682070166113663"><ele>1365.6666666666667</ele><time>2026-05-02T10:52:22Z</time></trkpt><trkpt lat="46.097824125498555" lon="11.682109854296339"><ele>1360.8333333333333</ele><time>2026-05-02T10:52:24Z</time></trkpt><trkpt lat="46.09789874599718" lon="11.682109407119158"><ele>1356.0</ele><time>2026-05-02T10:52:25Z</time></trkpt><trkpt lat="46.097985603888866" lon="11.682127943140298"><ele>1356.0</ele><time>2026-05-02T10:52:26Z</time></trkpt><trkpt lat="46.09806400682671" lon="11.682173014772575"><ele>1356.0</ele><time>2026-05-02T10:52:27Z</time></trkpt><trkpt lat="46.09814351461986" lon="11.682220400974096"><ele>1356.0</ele><time>2026-05-02T10:52:28Z</time></trkpt><trkpt lat="46.098209003793066" lon="11.682245405116506"><ele>1356.0</ele><time>2026-05-02T10:52:29Z</time></trkpt><trkpt lat="46.098279854384955" lon="11.68225377053401"><ele>1356.0</ele><time>2026-05-02T10:52:30Z</time></trkpt><trkpt lat="46.09834151465078" lon="11.682276300951324"><ele>1356.0</ele><time>2026-05-02T10:52:31Z</time></trkpt><trkpt lat="46.09842935230388" lon="11.682355330242501"><ele>1355.6666666666667</ele><time>2026-05-02T10:52:33Z</time></trkpt><trkpt lat="46.09848038917712" lon="11.682438550129781"><ele>1355.3333333333333</ele><time>2026-05-02T10:52:34Z</time></trkpt><trkpt lat="46.09851734466435" lon="11.682543227168484"><ele>1355.0</ele><time>2026-05-02T10:52:35Z</time></trkpt><trkpt lat="46.098552696379855" lon="11.682677346472527"><ele>1354.6666666666665</ele><time>2026-05-02T10:52:36Z</time></trkpt><trkpt lat="46.09858335259792" lon="11.682804597718798"><ele>1354.3333333333333</ele><time>2026-05-02T10:52:37Z</time></trkpt><trkpt lat="46.098621077724154" lon="11.682901183441459"><ele>1354.0</ele><time>2026-05-02T10:52:38Z</time></trkpt><trkpt lat="46.09865092675931" lon="11.682985738043104"><ele>1354.0</ele><time>2026-05-02T10:52:39Z</time></trkpt><trkpt lat="46.09868630936037" lon="11.683077842059106"><ele>1354.0</ele><time>2026-05-02T10:52:40Z</time></trkpt><trkpt lat="46.09872891202729" lon="11.683174362741724"><ele>1354.0</ele><time>2026-05-02T10:52:41Z</time></trkpt><trkpt lat="46.098750381364525" lon="11.683265863271066"><ele>1354.0</ele><time>2026-05-02T10:52:42Z</time></trkpt><trkpt lat="46.09876033391484" lon="11.683434931389469"><ele>1354.0</ele><time>2026-05-02T10:52:44Z</time></trkpt><trkpt lat="46.09875997492458" lon="11.683598572267146"><ele>1351.3333333333333</ele><time>2026-05-02T10:52:46Z</time></trkpt><trkpt lat="46.09879029707285" lon="11.683702724699542"><ele>1348.6666666666665</ele><time>2026-05-02T10:52:48Z</time></trkpt><trkpt lat="46.09887434329365" lon="11.683753184356863"><ele>1346.0</ele><time>2026-05-02T10:52:50.999Z</time></trkpt><trkpt lat="46.098942392374184" lon="11.683754866374015"><ele>1343.3333333333333</ele><time>2026-05-02T10:52:52.999Z</time></trkpt><trkpt lat="46.09901084261475" lon="11.683810223929568"><ele>1340.6666666666667</ele><time>2026-05-02T10:52:55.999Z</time></trkpt><trkpt lat="46.098976902683106" lon="11.68389213778966"><ele>1338.0</ele><time>2026-05-02T10:52:57.999Z</time></trkpt><trkpt lat="46.09889477060943" lon="11.68388609150451"><ele>1338.0</ele><time>2026-05-02T10:52:59.999Z</time></trkpt><trkpt lat="46.09883036999691" lon="11.683858809510157"><ele>1338.0</ele><time>2026-05-02T10:53:00.999Z</time></trkpt><trkpt lat="46.09875513957041" lon="11.683831027619414"><ele>1338.0</ele><time>2026-05-02T10:53:01.999Z</time></trkpt><trkpt lat="46.09866579849743" lon="11.683774422460026"><ele>1338.0</ele><time>2026-05-02T10:53:03.999Z</time></trkpt><trkpt lat="46.09860125574968" lon="11.6836192434811"><ele>1338.0</ele><time>2026-05-02T10:53:05.999Z</time></trkpt><trkpt lat="46.0985607500964" lon="11.683524329698855"><ele>1338.0</ele><time>2026-05-02T10:53:06.999Z</time></trkpt><trkpt lat="46.098520629175226" lon="11.68344051008458"><ele>1338.3333333333333</ele><time>2026-05-02T10:53:07.999Z</time></trkpt><trkpt lat="46.09846295580646" lon="11.68337302863814"><ele>1338.6666666666667</ele><time>2026-05-02T10:53:08.999Z</time></trkpt><trkpt lat="46.09839176711371" lon="11.683310672284462"><ele>1339.0</ele><time>2026-05-02T10:53:09.999Z</time></trkpt><trkpt lat="46.098331262925534" lon="11.683266741264141"><ele>1339.3333333333335</ele><time>2026-05-02T10:53:10.999Z</time></trkpt><trkpt lat="46.09825368975468" lon="11.683226491231052"><ele>1339.6666666666667</ele><time>2026-05-02T10:53:11.999Z</time></trkpt><trkpt lat="46.09815318803796" lon="11.683194212137119"><ele>1340.0</ele><time>2026-05-02T10:53:12.999Z</time></trkpt><trkpt lat="46.09805630187097" lon="11.683169342247787"><ele>1340.0</ele><time>2026-05-02T10:53:13.999Z</time></trkpt><trkpt lat="46.09795033338433" lon="11.6831513212712"><ele>1340.0</ele><time>2026-05-02T10:53:14.999Z</time></trkpt><trkpt lat="46.09786703276762" lon="11.683143128546298"><ele>1340.0</ele><time>2026-05-02T10:53:15.999Z</time></trkpt><trkpt lat="46.09777987523904" lon="11.68314337048238"><ele>1340.0</ele><time>2026-05-02T10:53:16.999Z</time></trkpt><trkpt lat="46.097697576927814" lon="11.683142874940975"><ele>1340.0</ele><time>2026-05-02T10:53:17.999Z</time></trkpt><trkpt lat="46.09761575266489" lon="11.683163932261888"><ele>1340.0</ele><time>2026-05-02T10:53:18.999Z</time></trkpt><trkpt lat="46.09754980997015" lon="11.683177431733855"><ele>1340.0</ele><time>2026-05-02T10:53:19.999Z</time></trkpt><trkpt lat="46.097480711059504" lon="11.683215606436018"><ele>1340.0</ele><time>2026-05-02T10:53:20.999Z</time></trkpt><trkpt lat="46.097399821269896" lon="11.68326448474983"><ele>1340.0</ele><time>2026-05-02T10:53:21.999Z</time></trkpt><trkpt lat="46.09731716515101" lon="11.68330652849568"><ele>1340.0</ele><time>2026-05-02T10:53:22.999Z</time></trkpt><trkpt lat="46.09723809108235" lon="11.683331817673473"><ele>1340.0</ele><time>2026-05-02T10:53:23.999Z</time></trkpt><trkpt lat="46.09717389678623" lon="11.683352187779528"><ele>1340.0</ele><time>2026-05-02T10:53:24.999Z</time></trkpt><trkpt lat="46.09707415749531" lon="11.683320589104918"><ele>1337.6666666666667</ele><time>2026-05-02T10:53:26.999Z</time></trkpt><trkpt lat="46.09701713342334" lon="11.683184409718296"><ele>1335.3333333333335</ele><time>2026-05-02T10:53:28.999Z</time></trkpt><trkpt lat="46.09698983010007" lon="11.683077038526521"><ele>1333.0</ele><time>2026-05-02T10:53:29.999Z</time></trkpt><trkpt lat="46.096971714184725" lon="11.682937620325477"><ele>1330.6666666666667</ele><time>2026-05-02T10:53:31.999Z</time></trkpt><trkpt lat="46.09690207347424" lon="11.682914513227784"><ele>1328.3333333333333</ele><time>2026-05-02T10:53:34.999Z</time></trkpt><trkpt lat="46.0968946051104" lon="11.683019725403263"><ele>1326.0</ele><time>2026-05-02T10:53:36.999Z</time></trkpt><trkpt lat="46.096918396781525" lon="11.683114418624193"><ele>1326.0</ele><time>2026-05-02T10:53:37.999Z</time></trkpt><trkpt lat="46.09695003762381" lon="11.683233414364123"><ele>1326.0</ele><time>2026-05-02T10:53:38.999Z</time></trkpt><trkpt lat="46.096936596429686" lon="11.683385137204617"><ele>1326.0</ele><time>2026-05-02T10:53:40.998Z</time></trkpt><trkpt lat="46.09690655897466" lon="11.683535546003677"><ele>1326.0</ele><time>2026-05-02T10:53:42.998Z</time></trkpt><trkpt lat="46.09690504712938" lon="11.683650349273067"><ele>1326.0</ele><time>2026-05-02T10:53:44.998Z</time></trkpt><trkpt lat="46.09695138774267" lon="11.683737839842266"><ele>1326.0</ele><time>2026-05-02T10:53:46.998Z</time></trkpt><trkpt lat="46.09702747947625" lon="11.68377248426706"><ele>1326.0</ele><time>2026-05-02T10:53:48.998Z</time></trkpt><trkpt lat="46.09714252772313" lon="11.683775963675787"><ele>1326.0</ele><time>2026-05-02T10:53:50.998Z</time></trkpt><trkpt lat="46.097217434461335" lon="11.68375867264406"><ele>1326.0</ele><time>2026-05-02T10:53:51.998Z</time></trkpt><trkpt lat="46.097285465099986" lon="11.683732666289778"><ele>1326.0</ele><time>2026-05-02T10:53:52.998Z</time></trkpt><trkpt lat="46.09739014212673" lon="11.68369352247952"><ele>1326.0</ele><time>2026-05-02T10:53:54.998Z</time></trkpt><trkpt lat="46.09748980232781" lon="11.683745327147047"><ele>1326.0</ele><time>2026-05-02T10:53:56.998Z</time></trkpt><trkpt lat="46.09753260166408" lon="11.683818059430752"><ele>1326.0</ele><time>2026-05-02T10:53:57.998Z</time></trkpt><trkpt lat="46.09757116424153" lon="11.683913195117617"><ele>1326.0</ele><time>2026-05-02T10:53:58.998Z</time></trkpt><trkpt lat="46.09759744481128" lon="11.684028383375741"><ele>1326.0</ele><time>2026-05-02T10:53:59.998Z</time></trkpt><trkpt lat="46.09761194056731" lon="11.684171903485145"><ele>1326.0</ele><time>2026-05-02T10:54:00.998Z</time></trkpt><trkpt lat="46.097627618322996" lon="11.684270607734481"><ele>1326.0</ele><time>2026-05-02T10:54:01.998Z</time></trkpt><trkpt lat="46.0976711888799" lon="11.684386217815938"><ele>1322.6666666666667</ele><time>2026-05-02T10:54:02.998Z</time></trkpt><trkpt lat="46.0977006374215" lon="11.684484896921411"><ele>1319.3333333333333</ele><time>2026-05-02T10:54:03.998Z</time></trkpt><trkpt lat="46.09773284173732" lon="11.68458227452781"><ele>1316.0</ele><time>2026-05-02T10:54:04.998Z</time></trkpt><trkpt lat="46.09775823980076" lon="11.684675302823978"><ele>1312.6666666666665</ele><time>2026-05-02T10:54:05.998Z</time></trkpt><trkpt lat="46.09778908747088" lon="11.684758137338248"><ele>1309.3333333333333</ele><time>2026-05-02T10:54:06.998Z</time></trkpt><trkpt lat="46.09785143688837" lon="11.684861590482726"><ele>1306.0</ele><time>2026-05-02T10:54:08.998Z</time></trkpt><trkpt lat="46.09796413354013" lon="11.684908879693085"><ele>1306.0</ele><time>2026-05-02T10:54:10.998Z</time></trkpt><trkpt lat="46.09803943705025" lon="11.684924081235602"><ele>1306.0</ele><time>2026-05-02T10:54:11.998Z</time></trkpt><trkpt lat="46.0981258844773" lon="11.684931732088886"><ele>1306.0</ele><time>2026-05-02T10:54:12.998Z</time></trkpt><trkpt lat="46.09823103151712" lon="11.684955929020738"><ele>1306.0</ele><time>2026-05-02T10:54:13.998Z</time></trkpt><trkpt lat="46.09833383134361" lon="11.684970140545097"><ele>1306.0</ele><time>2026-05-02T10:54:14.998Z</time></trkpt><trkpt lat="46.09844083791174" lon="11.684990031720005"><ele>1307.6666666666665</ele><time>2026-05-02T10:54:16Z</time></trkpt><trkpt lat="46.09853715260637" lon="11.684992887867688"><ele>1309.3333333333333</ele><time>2026-05-02T10:54:17Z</time></trkpt><trkpt lat="46.09862297404835" lon="11.685005070596175"><ele>1311.0</ele><time>2026-05-02T10:54:18Z</time></trkpt><trkpt lat="46.09870292839578" lon="11.68499708229196"><ele>1312.6666666666667</ele><time>2026-05-02T10:54:19Z</time></trkpt><trkpt lat="46.09877762205181" lon="11.684991865449577"><ele>1314.3333333333335</ele><time>2026-05-02T10:54:20Z</time></trkpt><trkpt lat="46.098844971300935" lon="11.684988620543841"><ele>1316.0</ele><time>2026-05-02T10:54:21Z</time></trkpt><trkpt lat="46.09894212679111" lon="11.684978946385097"><ele>1316.0</ele><time>2026-05-02T10:54:23Z</time></trkpt><trkpt lat="46.098959986654926" lon="11.685066596481914"><ele>1316.0</ele><time>2026-05-02T10:54:34Z</time></trkpt><trkpt lat="46.09889462358887" lon="11.685107869724682"><ele>1316.0</ele><time>2026-05-02T10:54:41Z</time></trkpt><trkpt lat="46.09881798298349" lon="11.685108105239033"><ele>1316.0</ele><time>2026-05-02T10:54:42Z</time></trkpt><trkpt lat="46.098742681458354" lon="11.685115409377833"><ele>1316.0</ele><time>2026-05-02T10:54:43Z</time></trkpt><trkpt lat="46.098675498518354" lon="11.685128143651232"><ele>1316.0</ele><time>2026-05-02T10:54:44Z</time></trkpt><trkpt lat="46.098553137513036" lon="11.685135391687256"><ele>1316.0</ele><time>2026-05-02T10:54:46Z</time></trkpt><trkpt lat="46.09848435156995" lon="11.685135867081183"><ele>1316.0</ele><time>2026-05-02T10:54:47Z</time></trkpt><trkpt lat="46.09837033710907" lon="11.685167207784033"><ele>1316.0</ele><time>2026-05-02T10:54:48.999Z</time></trkpt><trkpt lat="46.09830217012818" lon="11.68516877154079"><ele>1316.0</ele><time>2026-05-02T10:54:49.999Z</time></trkpt><trkpt lat="46.09822499646657" lon="11.685185325599676"><ele>1316.0</ele><time>2026-05-02T10:54:50.999Z</time></trkpt><trkpt lat="46.09815555443661" lon="11.685186138826836"><ele>1316.0</ele><time>2026-05-02T10:54:51.999Z</time></trkpt><trkpt lat="46.098078329124775" lon="11.685190559037515"><ele>1314.3333333333335</ele><time>2026-05-02T10:54:52.999Z</time></trkpt><trkpt lat="46.09799832419663" lon="11.68519628608193"><ele>1312.6666666666667</ele><time>2026-05-02T10:54:53.999Z</time></trkpt><trkpt lat="46.097922737133096" lon="11.685193738235284"><ele>1311.0</ele><time>2026-05-02T10:54:54.999Z</time></trkpt><trkpt lat="46.097840033760484" lon="11.685188842374897"><ele>1309.3333333333333</ele><time>2026-05-02T10:54:55.999Z</time></trkpt><trkpt lat="46.09776127630042" lon="11.68519455910602"><ele>1307.6666666666665</ele><time>2026-05-02T10:54:56.999Z</time></trkpt><trkpt lat="46.097694701094255" lon="11.685216396613697"><ele>1306.0</ele><time>2026-05-02T10:54:57.999Z</time></trkpt><trkpt lat="46.09762255264646" lon="11.685265756937122"><ele>1304.3333333333333</ele><time>2026-05-02T10:54:58.999Z</time></trkpt><trkpt lat="46.09753864526055" lon="11.685342469661183"><ele>1302.6666666666665</ele><time>2026-05-02T10:54:59.999Z</time></trkpt><trkpt lat="46.097470596997525" lon="11.685403391622282"><ele>1301.0</ele><time>2026-05-02T10:55:00.999Z</time></trkpt><trkpt lat="46.0974071042442" lon="11.685425561951586"><ele>1299.3333333333333</ele><time>2026-05-02T10:55:01.999Z</time></trkpt><trkpt lat="46.09734513298306" lon="11.685448240876656"><ele>1297.6666666666667</ele><time>2026-05-02T10:55:02.999Z</time></trkpt><trkpt lat="46.097262234125324" lon="11.685460585727872"><ele>1296.0</ele><time>2026-05-02T10:55:04.999Z</time></trkpt><trkpt lat="46.0971843690157" lon="11.685456804003254"><ele>1294.1999999999998</ele><time>2026-05-02T10:55:05.999Z</time></trkpt><trkpt lat="46.09706465540426" lon="11.685355885130791"><ele>1292.3999999999999</ele><time>2026-05-02T10:55:07.999Z</time></trkpt><trkpt lat="46.09698774215138" lon="11.685259621172415"><ele>1290.6</ele><time>2026-05-02T10:55:08.999Z</time></trkpt><trkpt lat="46.09693604124142" lon="11.685167150888367"><ele>1288.8</ele><time>2026-05-02T10:55:09.999Z</time></trkpt><trkpt lat="46.096853815327826" lon="11.685059887015237"><ele>1287.0</ele><time>2026-05-02T10:55:11.999Z</time></trkpt><trkpt lat="46.09678324267005" lon="11.685029178817217"><ele>1287.0</ele><time>2026-05-02T10:55:12.999Z</time></trkpt><trkpt lat="46.096687901362756" lon="11.68498321783773"><ele>1287.0</ele><time>2026-05-02T10:55:13.999Z</time></trkpt><trkpt lat="46.096589589867044" lon="11.684935784889335"><ele>1287.0</ele><time>2026-05-02T10:55:14.999Z</time></trkpt><trkpt lat="46.09651429401196" lon="11.68488388822329"><ele>1287.0</ele><time>2026-05-02T10:55:15.999Z</time></trkpt><trkpt lat="46.0964546398531" lon="11.68483790289778"><ele>1287.0</ele><time>2026-05-02T10:55:16.999Z</time></trkpt><trkpt lat="46.09638892618478" lon="11.684824288146498"><ele>1287.0</ele><time>2026-05-02T10:55:17.999Z</time></trkpt><trkpt lat="46.09627241692828" lon="11.684871616340743"><ele>1281.6</ele><time>2026-05-02T10:55:19.999Z</time></trkpt><trkpt lat="46.096163163884775" lon="11.684858563365115"><ele>1276.1999999999998</ele><time>2026-05-02T10:55:21.999Z</time></trkpt><trkpt lat="46.096072151861684" lon="11.684807711364908"><ele>1270.8</ele><time>2026-05-02T10:55:23.999Z</time></trkpt><trkpt lat="46.095996887054085" lon="11.684698574131442"><ele>1265.4</ele><time>2026-05-02T10:55:25.999Z</time></trkpt><trkpt lat="46.095952826191656" lon="11.684599493230865"><ele>1260.0</ele><time>2026-05-02T10:55:26.999Z</time></trkpt><trkpt lat="46.095903279582316" lon="11.68448572055233"><ele>1263.1666666666667</ele><time>2026-05-02T10:55:27.999Z</time></trkpt><trkpt lat="46.09586119070624" lon="11.684409170476117"><ele>1266.3333333333333</ele><time>2026-05-02T10:55:28.999Z</time></trkpt><trkpt lat="46.095818377552604" lon="11.684332011780254"><ele>1269.5</ele><time>2026-05-02T10:55:29.999Z</time></trkpt><trkpt lat="46.09576833010257" lon="11.684202976886162"><ele>1272.6666666666665</ele><time>2026-05-02T10:55:31.999Z</time></trkpt><trkpt lat="46.09573480624755" lon="11.684102537860273"><ele>1275.8333333333333</ele><time>2026-05-02T10:55:33.999Z</time></trkpt><trkpt lat="46.09566331821136" lon="11.684090243941691"><ele>1279.0</ele><time>2026-05-02T10:55:37.999Z</time></trkpt><trkpt lat="46.09566330802643" lon="11.684198224339402"><ele>1275.8333333333333</ele><time>2026-05-02T10:55:39.999Z</time></trkpt><trkpt lat="46.09571945393419" lon="11.684376155241875"><ele>1272.6666666666665</ele><time>2026-05-02T10:55:41.999Z</time></trkpt><trkpt lat="46.09574829318461" lon="11.684470420353176"><ele>1269.5</ele><time>2026-05-02T10:55:42.999Z</time></trkpt><trkpt lat="46.095779245489176" lon="11.684568231343176"><ele>1266.3333333333333</ele><time>2026-05-02T10:55:43.999Z</time></trkpt><trkpt lat="46.0958182020059" lon="11.684656691295805"><ele>1263.1666666666667</ele><time>2026-05-02T10:55:44.999Z</time></trkpt><trkpt lat="46.09585687447369" lon="11.684738625560406"><ele>1260.0</ele><time>2026-05-02T10:55:45.999Z</time></trkpt><trkpt lat="46.09591104894485" lon="11.684878138987076"><ele>1260.0</ele><time>2026-05-02T10:55:47.998Z</time></trkpt><trkpt lat="46.095964062753" lon="11.685020700278276"><ele>1260.0</ele><time>2026-05-02T10:55:50.998Z</time></trkpt><trkpt lat="46.0960110379401" lon="11.68509556581983"><ele>1260.0</ele><time>2026-05-02T10:55:52.998Z</time></trkpt><trkpt lat="46.09600642144046" lon="11.685197861808316"><ele>1260.0</ele><time>2026-05-02T10:55:55.998Z</time></trkpt><trkpt lat="46.09593157634128" lon="11.6851508421769"><ele>1260.0</ele><time>2026-05-02T10:55:58.998Z</time></trkpt><trkpt lat="46.095873250507395" lon="11.684986264804"><ele>1260.0</ele><time>2026-05-02T10:56:00.998Z</time></trkpt><trkpt lat="46.09578753077848" lon="11.684875241383512"><ele>1260.0</ele><time>2026-05-02T10:56:02.998Z</time></trkpt><trkpt lat="46.095710560989474" lon="11.684768066867134"><ele>1260.0</ele><time>2026-05-02T10:56:04.998Z</time></trkpt><trkpt lat="46.095637921883664" lon="11.68467838488884"><ele>1260.0</ele><time>2026-05-02T10:56:06.998Z</time></trkpt><trkpt lat="46.095589610353485" lon="11.684524177002675"><ele>1260.0</ele><time>2026-05-02T10:56:08.998Z</time></trkpt><trkpt lat="46.095516164067156" lon="11.684349747083136"><ele>1255.0</ele><time>2026-05-02T10:56:10.998Z</time></trkpt><trkpt lat="46.09547687912896" lon="11.684268981073243"><ele>1250.0</ele><time>2026-05-02T10:56:11.998Z</time></trkpt><trkpt lat="46.095434967102626" lon="11.684167879694332"><ele>1245.0</ele><time>2026-05-02T10:56:12.998Z</time></trkpt><trkpt lat="46.09539058076958" lon="11.683948496756305"><ele>1240.0</ele><time>2026-05-02T10:56:14.998Z</time></trkpt><trkpt lat="46.09534156715016" lon="11.683817363165884"><ele>1235.0</ele><time>2026-05-02T10:56:15.998Z</time></trkpt><trkpt lat="46.09528713768314" lon="11.683645274475635"><ele>1237.8333333333335</ele><time>2026-05-02T10:56:17.998Z</time></trkpt><trkpt lat="46.09522177854928" lon="11.68349190853266"><ele>1240.6666666666667</ele><time>2026-05-02T10:56:19.998Z</time></trkpt><trkpt lat="46.09516670469398" lon="11.68342190719868"><ele>1243.5</ele><time>2026-05-02T10:56:20.998Z</time></trkpt><trkpt lat="46.09511585575146" lon="11.683351671576558"><ele>1246.3333333333333</ele><time>2026-05-02T10:56:22Z</time></trkpt><trkpt lat="46.095057981819046" lon="11.683289960866304"><ele>1249.1666666666665</ele><time>2026-05-02T10:56:23Z</time></trkpt><trkpt lat="46.09499744599526" lon="11.683242262498156"><ele>1252.0</ele><time>2026-05-02T10:56:24Z</time></trkpt><trkpt lat="46.09493206292768" lon="11.683178323229248"><ele>1244.8</ele><time>2026-05-02T10:56:25Z</time></trkpt><trkpt lat="46.09486899744337" lon="11.683108942581967"><ele>1237.6</ele><time>2026-05-02T10:56:26Z</time></trkpt><trkpt lat="46.09478547030613" lon="11.683052399676585"><ele>1230.3999999999999</ele><time>2026-05-02T10:56:27Z</time></trkpt><trkpt lat="46.09470100003296" lon="11.683018528142322"><ele>1223.2</ele><time>2026-05-02T10:56:28Z</time></trkpt><trkpt lat="46.0945980466141" lon="11.682932263174276"><ele>1216.0</ele><time>2026-05-02T10:56:30Z</time></trkpt><trkpt lat="46.09452174183939" lon="11.682872978282434"><ele>1216.0</ele><time>2026-05-02T10:56:31Z</time></trkpt><trkpt lat="46.09444911715508" lon="11.682837555051064"><ele>1216.0</ele><time>2026-05-02T10:56:32Z</time></trkpt><trkpt lat="46.09438517722852" lon="11.682802668122472"><ele>1216.0</ele><time>2026-05-02T10:56:33Z</time></trkpt><trkpt lat="46.094308945065194" lon="11.682793123927352"><ele>1216.0</ele><time>2026-05-02T10:56:34Z</time></trkpt><trkpt lat="46.094179466731966" lon="11.682759565386153"><ele>1216.0</ele><time>2026-05-02T10:56:36Z</time></trkpt><trkpt lat="46.094086184862064" lon="11.682775071655183"><ele>1216.0</ele><time>2026-05-02T10:56:38Z</time></trkpt><trkpt lat="46.093996882345635" lon="11.682716062199075"><ele>1216.0</ele><time>2026-05-02T10:56:40Z</time></trkpt><trkpt lat="46.09400079467932" lon="11.682808047525679"><ele>1216.0</ele><time>2026-05-02T10:56:46Z</time></trkpt><trkpt lat="46.09412847079784" lon="11.682844404381424"><ele>1216.0</ele><time>2026-05-02T10:56:48Z</time></trkpt><trkpt lat="46.09422148997785" lon="11.68286074596565"><ele>1216.0</ele><time>2026-05-02T10:56:49Z</time></trkpt><trkpt lat="46.09429645845365" lon="11.682883829168704"><ele>1216.0</ele><time>2026-05-02T10:56:50Z</time></trkpt><trkpt lat="46.09436286795007" lon="11.682894486164411"><ele>1216.0</ele><time>2026-05-02T10:56:51Z</time></trkpt><trkpt lat="46.09446589502549" lon="11.682998113479268"><ele>1216.0</ele><time>2026-05-02T10:56:52.999Z</time></trkpt><trkpt lat="46.09451868042627" lon="11.683049298614373"><ele>1216.0</ele><time>2026-05-02T10:56:53.999Z</time></trkpt><trkpt lat="46.09456556447299" lon="11.683129212162331"><ele>1216.0</ele><time>2026-05-02T10:56:54.999Z</time></trkpt><trkpt lat="46.094622379690605" lon="11.68318406010168"><ele>1216.0</ele><time>2026-05-02T10:56:55.999Z</time></trkpt><trkpt lat="46.09465591960488" lon="11.683261556180032"><ele>1216.0</ele><time>2026-05-02T10:56:56.999Z</time></trkpt><trkpt lat="46.09471988949187" lon="11.683391696859594"><ele>1216.0</ele><time>2026-05-02T10:56:58.999Z</time></trkpt><trkpt lat="46.09477353061892" lon="11.683523272619503"><ele>1219.1666666666665</ele><time>2026-05-02T10:57:00.999Z</time></trkpt><trkpt lat="46.09481927508065" lon="11.683637317444054"><ele>1222.3333333333333</ele><time>2026-05-02T10:57:02.999Z</time></trkpt><trkpt lat="46.09487586303999" lon="11.683753551223107"><ele>1225.5</ele><time>2026-05-02T10:57:04.999Z</time></trkpt><trkpt lat="46.09487976727398" lon="11.683848299757816"><ele>1228.6666666666667</ele><time>2026-05-02T10:57:05.999Z</time></trkpt><trkpt lat="46.094882388373556" lon="11.683961424332555"><ele>1231.8333333333335</ele><time>2026-05-02T10:57:06.999Z</time></trkpt><trkpt lat="46.09489269265889" lon="11.684094977456033"><ele>1235.0</ele><time>2026-05-02T10:57:08.999Z</time></trkpt><trkpt lat="46.09495593408626" lon="11.684189779028674"><ele>1235.0</ele><time>2026-05-02T10:57:10.999Z</time></trkpt><trkpt lat="46.09500957129041" lon="11.684272507216944"><ele>1235.0</ele><time>2026-05-02T10:57:11.999Z</time></trkpt><trkpt lat="46.095040293466084" lon="11.684376161495894"><ele>1235.0</ele><time>2026-05-02T10:57:12.999Z</time></trkpt><trkpt lat="46.09507410591711" lon="11.68449613563212"><ele>1235.0</ele><time>2026-05-02T10:57:13.999Z</time></trkpt><trkpt lat="46.09508833328854" lon="11.684617796921659"><ele>1235.0</ele><time>2026-05-02T10:57:14.999Z</time></trkpt><trkpt lat="46.09509863679982" lon="11.684757696476785"><ele>1235.0</ele><time>2026-05-02T10:57:15.999Z</time></trkpt><trkpt lat="46.095116623341525" lon="11.684899730201659"><ele>1232.4285714285713</ele><time>2026-05-02T10:57:16.999Z</time></trkpt><trkpt lat="46.09513447127224" lon="11.685018073998796"><ele>1229.857142857143</ele><time>2026-05-02T10:57:17.999Z</time></trkpt><trkpt lat="46.09516805264442" lon="11.685095334034203"><ele>1227.2857142857142</ele><time>2026-05-02T10:57:18.999Z</time></trkpt><trkpt lat="46.0951857070891" lon="11.685199020564582"><ele>1224.7142857142858</ele><time>2026-05-02T10:57:19.999Z</time></trkpt><trkpt lat="46.09521307526569" lon="11.685296293364656"><ele>1222.142857142857</ele><time>2026-05-02T10:57:20.999Z</time></trkpt><trkpt lat="46.09523558602395" lon="11.685385014500149"><ele>1219.5714285714284</ele><time>2026-05-02T10:57:21.999Z</time></trkpt><trkpt lat="46.095252679460074" lon="11.685475570572994"><ele>1217.0</ele><time>2026-05-02T10:57:22.999Z</time></trkpt><trkpt lat="46.09529477714533" lon="11.685641813297215"><ele>1215.1666666666667</ele><time>2026-05-02T10:57:24.999Z</time></trkpt><trkpt lat="46.09531404470275" lon="11.685776303519305"><ele>1213.3333333333335</ele><time>2026-05-02T10:57:26.999Z</time></trkpt><trkpt lat="46.095347543518265" lon="11.685862906390906"><ele>1211.5</ele><time>2026-05-02T10:57:28.999Z</time></trkpt><trkpt lat="46.0952861098992" lon="11.685902185781"><ele>1209.6666666666667</ele><time>2026-05-02T10:57:31.999Z</time></trkpt><trkpt lat="46.095232606456605" lon="11.68580709279428"><ele>1207.8333333333333</ele><time>2026-05-02T10:57:33.999Z</time></trkpt><trkpt lat="46.09521727301973" lon="11.685688309202742"><ele>1206.0</ele><time>2026-05-02T10:57:34.999Z</time></trkpt><trkpt lat="46.095200886492414" lon="11.685588250952677"><ele>1206.0</ele><time>2026-05-02T10:57:35.999Z</time></trkpt><trkpt lat="46.095176882214346" lon="11.685487398802955"><ele>1206.0</ele><time>2026-05-02T10:57:36.999Z</time></trkpt><trkpt lat="46.09515323763131" lon="11.685389281194933"><ele>1206.0</ele><time>2026-05-02T10:57:37.999Z</time></trkpt><trkpt lat="46.09509057930393" lon="11.685235201674427"><ele>1206.0</ele><time>2026-05-02T10:57:39.999Z</time></trkpt><trkpt lat="46.09501988092275" lon="11.685090744801522"><ele>1206.0</ele><time>2026-05-02T10:57:41.999Z</time></trkpt><trkpt lat="46.09494391224993" lon="11.684953667528857"><ele>1203.8</ele><time>2026-05-02T10:57:43.999Z</time></trkpt><trkpt lat="46.09486765007839" lon="11.68480714002761"><ele>1201.6</ele><time>2026-05-02T10:57:45.999Z</time></trkpt><trkpt lat="46.094830149274436" lon="11.68472566851216"><ele>1199.4</ele><time>2026-05-02T10:57:46.999Z</time></trkpt><trkpt lat="46.094808029804355" lon="11.684616228663637"><ele>1197.2</ele><time>2026-05-02T10:57:47.999Z</time></trkpt><trkpt lat="46.09476570684752" lon="11.684519403321415"><ele>1195.0</ele><time>2026-05-02T10:57:48.999Z</time></trkpt><trkpt lat="46.094683885225784" lon="11.684385759285137"><ele>1195.0</ele><time>2026-05-02T10:57:50.998Z</time></trkpt><trkpt lat="46.094631773183316" lon="11.684331193171335"><ele>1195.0</ele><time>2026-05-02T10:57:51.998Z</time></trkpt><trkpt lat="46.09454743298682" lon="11.684223936646903"><ele>1195.0</ele><time>2026-05-02T10:57:53.998Z</time></trkpt><trkpt lat="46.09444671726886" lon="11.684163836893244"><ele>1195.0</ele><time>2026-05-02T10:57:55.998Z</time></trkpt><trkpt lat="46.094386662701346" lon="11.684135631779547"><ele>1195.0</ele><time>2026-05-02T10:57:56.998Z</time></trkpt><trkpt lat="46.094321561385385" lon="11.684115538823074"><ele>1195.0</ele><time>2026-05-02T10:57:57.998Z</time></trkpt><trkpt lat="46.09426432693909" lon="11.684155667780923"><ele>1195.0</ele><time>2026-05-02T10:57:59.998Z</time></trkpt><trkpt lat="46.094169323812324" lon="11.684044373776187"><ele>1195.0</ele><time>2026-05-02T10:58:01.998Z</time></trkpt><trkpt lat="46.09408600714341" lon="11.683947041994504"><ele>1195.0</ele><time>2026-05-02T10:58:03.998Z</time></trkpt><trkpt lat="46.094047801544185" lon="11.68403425084939"><ele>1195.0</ele><time>2026-05-02T10:58:07.998Z</time></trkpt><trkpt lat="46.09412257080335" lon="11.684121256432528"><ele>1195.0</ele><time>2026-05-02T10:58:09.998Z</time></trkpt><trkpt lat="46.09421899829144" lon="11.684175841004306"><ele>1195.0</ele><time>2026-05-02T10:58:11.998Z</time></trkpt><trkpt lat="46.09431436071482" lon="11.684249288614527"><ele>1195.0</ele><time>2026-05-02T10:58:13.998Z</time></trkpt><trkpt lat="46.09441419662129" lon="11.68432950161938"><ele>1195.0</ele><time>2026-05-02T10:58:15.998Z</time></trkpt><trkpt lat="46.09449953994005" lon="11.684414533601275"><ele>1195.0</ele><time>2026-05-02T10:58:17.998Z</time></trkpt><trkpt lat="46.094557442610366" lon="11.684555933474273"><ele>1195.0</ele><time>2026-05-02T10:58:19.998Z</time></trkpt><trkpt lat="46.09455850866313" lon="11.68467065321689"><ele>1191.2</ele><time>2026-05-02T10:58:20.998Z</time></trkpt><trkpt lat="46.094581826563896" lon="11.684776387626489"><ele>1187.4</ele><time>2026-05-02T10:58:21.998Z</time></trkpt><trkpt lat="46.09461162206852" lon="11.684856808428123"><ele>1183.6</ele><time>2026-05-02T10:58:22.998Z</time></trkpt><trkpt lat="46.09466946721792" lon="11.685015714859288"><ele>1179.8</ele><time>2026-05-02T10:58:24.998Z</time></trkpt><trkpt lat="46.09470196569677" lon="11.685099390637644"><ele>1176.0</ele><time>2026-05-02T10:58:25.998Z</time></trkpt><trkpt lat="46.09473407746925" lon="11.68527662788573"><ele>1175.5</ele><time>2026-05-02T10:58:28Z</time></trkpt><trkpt lat="46.09473527196534" lon="11.685382055590937"><ele>1175.0</ele><time>2026-05-02T10:58:29Z</time></trkpt><trkpt lat="46.094750729090364" lon="11.685500472180173"><ele>1174.5</ele><time>2026-05-02T10:58:30Z</time></trkpt><trkpt lat="46.094763383287685" lon="11.685655050233322"><ele>1174.0</ele><time>2026-05-02T10:58:32Z</time></trkpt><trkpt lat="46.09478626573967" lon="11.685741978435342"><ele>1173.5</ele><time>2026-05-02T10:58:33Z</time></trkpt><trkpt lat="46.094809704257415" lon="11.685881929725996"><ele>1173.0</ele><time>2026-05-02T10:58:35Z</time></trkpt><trkpt lat="46.09477268947969" lon="11.686032816850187"><ele>1173.0</ele><time>2026-05-02T10:58:37Z</time></trkpt><trkpt lat="46.094731964452876" lon="11.686128451841299"><ele>1173.0</ele><time>2026-05-02T10:58:39Z</time></trkpt><trkpt lat="46.094639339622056" lon="11.686158172592853"><ele>1173.0</ele><time>2026-05-02T10:58:42Z</time></trkpt><trkpt lat="46.094581080980305" lon="11.68611278852267"><ele>1173.0</ele><time>2026-05-02T10:58:44Z</time></trkpt><trkpt lat="46.09450251665806" lon="11.686055014328366"><ele>1173.0</ele><time>2026-05-02T10:58:46Z</time></trkpt><trkpt lat="46.094395558185596" lon="11.685973199812008"><ele>1173.0</ele><time>2026-05-02T10:58:48Z</time></trkpt><trkpt lat="46.094329503532336" lon="11.685952208643723"><ele>1173.0</ele><time>2026-05-02T10:58:49Z</time></trkpt><trkpt lat="46.094253283316625" lon="11.685941692880293"><ele>1173.0</ele><time>2026-05-02T10:58:50Z</time></trkpt><trkpt lat="46.094173745979454" lon="11.685924445075843"><ele>1173.0</ele><time>2026-05-02T10:58:51Z</time></trkpt><trkpt lat="46.09410895294383" lon="11.685882663832855"><ele>1173.0</ele><time>2026-05-02T10:58:52Z</time></trkpt><trkpt lat="46.09403192285744" lon="11.685905683426594"><ele>1173.0</ele><time>2026-05-02T10:58:53Z</time></trkpt><trkpt lat="46.09394902255078" lon="11.685912096401921"><ele>1173.0</ele><time>2026-05-02T10:58:54Z</time></trkpt><trkpt lat="46.09387766685731" lon="11.685934561688875"><ele>1170.4</ele><time>2026-05-02T10:58:55Z</time></trkpt><trkpt lat="46.09375384791283" lon="11.685976077688451"><ele>1167.8</ele><time>2026-05-02T10:58:56.999Z</time></trkpt><trkpt lat="46.093628673891295" lon="11.685937040757828"><ele>1165.2</ele><time>2026-05-02T10:58:58.999Z</time></trkpt><trkpt lat="46.09351429984815" lon="11.685895052336342"><ele>1162.6</ele><time>2026-05-02T10:59:00.999Z</time></trkpt><trkpt lat="46.09345234889181" lon="11.685873193360063"><ele>1160.0</ele><time>2026-05-02T10:59:01.999Z</time></trkpt><trkpt lat="46.093327477693315" lon="11.685830785694534"><ele>1160.0</ele><time>2026-05-02T10:59:03.999Z</time></trkpt><trkpt lat="46.09325659507823" lon="11.685828404948849"><ele>1160.0</ele><time>2026-05-02T10:59:04.999Z</time></trkpt><trkpt lat="46.09314143935013" lon="11.685827794208533"><ele>1160.0</ele><time>2026-05-02T10:59:06.999Z</time></trkpt><trkpt lat="46.09306400882476" lon="11.685873457240445"><ele>1160.0</ele><time>2026-05-02T10:59:07.999Z</time></trkpt><trkpt lat="46.09299745888293" lon="11.685919020645256"><ele>1160.0</ele><time>2026-05-02T10:59:08.999Z</time></trkpt><trkpt lat="46.09293256786552" lon="11.685962722137822"><ele>1160.0</ele><time>2026-05-02T10:59:09.999Z</time></trkpt><trkpt lat="46.0928637250937" lon="11.686005188533441"><ele>1158.0</ele><time>2026-05-02T10:59:10.999Z</time></trkpt><trkpt lat="46.092794706214214" lon="11.68604034833336"><ele>1156.0</ele><time>2026-05-02T10:59:11.999Z</time></trkpt><trkpt lat="46.0927149171599" lon="11.686062661405058"><ele>1154.0</ele><time>2026-05-02T10:59:12.999Z</time></trkpt><trkpt lat="46.092647396244956" lon="11.686079929867388"><ele>1152.0</ele><time>2026-05-02T10:59:13.999Z</time></trkpt><trkpt lat="46.09252752651965" lon="11.686126875951766"><ele>1150.0</ele><time>2026-05-02T10:59:15.999Z</time></trkpt><trkpt lat="46.092410860542834" lon="11.686166489543437"><ele>1148.3333333333333</ele><time>2026-05-02T10:59:17.999Z</time></trkpt><trkpt lat="46.09228967305172" lon="11.686206287197814"><ele>1146.6666666666665</ele><time>2026-05-02T10:59:19.999Z</time></trkpt><trkpt lat="46.09221322735828" lon="11.686203758812825"><ele>1145.0</ele><time>2026-05-02T10:59:20.999Z</time></trkpt><trkpt lat="46.09214396585037" lon="11.686211608840619"><ele>1143.3333333333333</ele><time>2026-05-02T10:59:21.999Z</time></trkpt><trkpt lat="46.092066944432844" lon="11.686218616680307"><ele>1141.6666666666667</ele><time>2026-05-02T10:59:22.999Z</time></trkpt><trkpt lat="46.09200027017649" lon="11.686217481350779"><ele>1140.0</ele><time>2026-05-02T10:59:23.999Z</time></trkpt><trkpt lat="46.091852343360536" lon="11.686013626845284"><ele>1140.0</ele><time>2026-05-02T10:59:25.999Z</time></trkpt><trkpt lat="46.091744909808064" lon="11.686019951876554"><ele>1140.0</ele><time>2026-05-02T10:59:27.999Z</time></trkpt><trkpt lat="46.09163142391751" lon="11.686018004007106"><ele>1140.0</ele><time>2026-05-02T10:59:29.999Z</time></trkpt><trkpt lat="46.091520912673985" lon="11.68601994854425"><ele>1140.0</ele><time>2026-05-02T10:59:31.999Z</time></trkpt><trkpt lat="46.091402560033394" lon="11.686075600628609"><ele>1140.0</ele><time>2026-05-02T10:59:33.999Z</time></trkpt><trkpt lat="46.09146651035844" lon="11.686024724268131"><ele>1140.0</ele><time>2026-05-02T10:59:39.999Z</time></trkpt><trkpt lat="46.09151810011285" lon="11.68595283690711"><ele>1140.0</ele><time>2026-05-02T10:59:41.999Z</time></trkpt><trkpt lat="46.09160064761036" lon="11.686049980704109"><ele>1140.0</ele><time>2026-05-02T10:59:42.999Z</time></trkpt><trkpt lat="46.09169325573221" lon="11.686020540024362"><ele>1140.0</ele><time>2026-05-02T10:59:45.999Z</time></trkpt><trkpt lat="46.091757805798295" lon="11.685994071909267"><ele>1140.0</ele><time>2026-05-02T10:59:47.999Z</time></trkpt><trkpt lat="46.09186505626703" lon="11.6859780145812"><ele>1140.0</ele><time>2026-05-02T10:59:49.999Z</time></trkpt><trkpt lat="46.09192886448658" lon="11.685962587806776"><ele>1140.0</ele><time>2026-05-02T10:59:50.999Z</time></trkpt><trkpt lat="46.09204218525181" lon="11.686009395757647"><ele>1140.0</ele><time>2026-05-02T10:59:52.999Z</time></trkpt><trkpt lat="46.09214784614522" lon="11.685963107955804"><ele>1140.0</ele><time>2026-05-02T10:59:54.999Z</time></trkpt><trkpt lat="46.09225871616149" lon="11.685896389639147"><ele>1140.0</ele><time>2026-05-02T10:59:56.999Z</time></trkpt><trkpt lat="46.092329946927435" lon="11.685810181468934"><ele>1140.0</ele><time>2026-05-02T10:59:57.998Z</time></trkpt><trkpt lat="46.092422244217424" lon="11.685735392706983"><ele>1140.0</ele><time>2026-05-02T10:59:59.998Z</time></trkpt><trkpt lat="46.09249352722791" lon="11.685656010593135"><ele>1140.0</ele><time>2026-05-02T11:00:02.998Z</time></trkpt><trkpt lat="46.09242822019871" lon="11.685575966578604"><ele>1140.0</ele><time>2026-05-02T11:00:03.998Z</time></trkpt><trkpt lat="46.092361181840054" lon="11.685531481228972"><ele>1140.0</ele><time>2026-05-02T11:00:06.998Z</time></trkpt><trkpt lat="46.09228452703108" lon="11.685611156392321"><ele>1140.0</ele><time>2026-05-02T11:00:07.998Z</time></trkpt><trkpt lat="46.09222376503776" lon="11.68565686951104"><ele>1140.0</ele><time>2026-05-02T11:00:08.998Z</time></trkpt><trkpt lat="46.09216470427774" lon="11.685701302776346"><ele>1140.0</ele><time>2026-05-02T11:00:09.998Z</time></trkpt><trkpt lat="46.09206424932024" lon="11.685746069701754"><ele>1140.0</ele><time>2026-05-02T11:00:11.998Z</time></trkpt><trkpt lat="46.091956430695056" lon="11.685727384031221"><ele>1140.0</ele><time>2026-05-02T11:00:13.998Z</time></trkpt><trkpt lat="46.09184190512096" lon="11.685685015357574"><ele>1140.0</ele><time>2026-05-02T11:00:15.998Z</time></trkpt><trkpt lat="46.091758844843746" lon="11.685642787736874"><ele>1140.0</ele><time>2026-05-02T11:00:16.998Z</time></trkpt><trkpt lat="46.091670217878296" lon="11.685602278340559"><ele>1140.0</ele><time>2026-05-02T11:00:17.998Z</time></trkpt><trkpt lat="46.09159164977283" lon="11.68557458965245"><ele>1140.0</ele><time>2026-05-02T11:00:18.998Z</time></trkpt><trkpt lat="46.09148479339827" lon="11.685544857649134"><ele>1140.0</ele><time>2026-05-02T11:00:20.998Z</time></trkpt><trkpt lat="46.09138262430909" lon="11.685542211295134"><ele>1138.0</ele><time>2026-05-02T11:00:22.998Z</time></trkpt><trkpt lat="46.09128294654479" lon="11.685536265850885"><ele>1136.0</ele><time>2026-05-02T11:00:24.998Z</time></trkpt><trkpt lat="46.0912399952069" lon="11.68545444108236"><ele>1134.0</ele><time>2026-05-02T11:00:28.998Z</time></trkpt><trkpt lat="46.09134160703348" lon="11.685413630821007"><ele>1132.0</ele><time>2026-05-02T11:00:30.998Z</time></trkpt><trkpt lat="46.091410389012275" lon="11.685436356659688"><ele>1130.0</ele><time>2026-05-02T11:00:31.998Z</time></trkpt><trkpt lat="46.09147438212879" lon="11.685455239920847"><ele>1128.0</ele><time>2026-05-02T11:00:32.998Z</time></trkpt><trkpt lat="46.09153979600164" lon="11.685453961194993"><ele>1130.4</ele><time>2026-05-02T11:00:33.999Z</time></trkpt><trkpt lat="46.09164849348394" lon="11.68542873521034"><ele>1132.8</ele><time>2026-05-02T11:00:35.999Z</time></trkpt><trkpt lat="46.091774171844534" lon="11.685422389101877"><ele>1135.2</ele><time>2026-05-02T11:00:37.999Z</time></trkpt><trkpt lat="46.09183911569069" lon="11.685422389106243"><ele>1137.6</ele><time>2026-05-02T11:00:38.999Z</time></trkpt><trkpt lat="46.09190610424937" lon="11.68542096629154"><ele>1140.0</ele><time>2026-05-02T11:00:39.999Z</time></trkpt><trkpt lat="46.092005306518516" lon="11.685396867476479"><ele>1140.0</ele><time>2026-05-02T11:00:41.999Z</time></trkpt><trkpt lat="46.092092117566665" lon="11.685339333077515"><ele>1140.0</ele><time>2026-05-02T11:00:43.999Z</time></trkpt><trkpt lat="46.092146655861846" lon="11.685208745749442"><ele>1140.0</ele><time>2026-05-02T11:00:45.999Z</time></trkpt><trkpt lat="46.09209488523552" lon="11.685144611323052"><ele>1140.0</ele><time>2026-05-02T11:00:50Z</time></trkpt><trkpt lat="46.09202059938564" lon="11.685223995247544"><ele>1140.0</ele><time>2026-05-02T11:00:52.999Z</time></trkpt><trkpt lat="46.09189210886826" lon="11.68522321477771"><ele>1134.0</ele><time>2026-05-02T11:00:54.999Z</time></trkpt><trkpt lat="46.09182442848021" lon="11.68520740998087"><ele>1128.0</ele><time>2026-05-02T11:00:55.999Z</time></trkpt><trkpt lat="46.09173999717114" lon="11.685181091814929"><ele>1122.0</ele><time>2026-05-02T11:00:56.999Z</time></trkpt><trkpt lat="46.091661830106005" lon="11.68518274703279"><ele>1116.0</ele><time>2026-05-02T11:00:57.999Z</time></trkpt><trkpt lat="46.09158055821084" lon="11.685175857523888"><ele>1110.0</ele><time>2026-05-02T11:00:58.999Z</time></trkpt><trkpt lat="46.09148764355412" lon="11.685147289436658"><ele>1104.0</ele><time>2026-05-02T11:00:59.999Z</time></trkpt><trkpt lat="46.09140764758982" lon="11.68511835807036"><ele>1101.5</ele><time>2026-05-02T11:01:00.999Z</time></trkpt><trkpt lat="46.091340047142815" lon="11.685076842431492"><ele>1099.0</ele><time>2026-05-02T11:01:01.999Z</time></trkpt><trkpt lat="46.09124642693479" lon="11.685018068015484"><ele>1096.5</ele><time>2026-05-02T11:01:02.999Z</time></trkpt><trkpt lat="46.09116705474506" lon="11.684996925682022"><ele>1094.0</ele><time>2026-05-02T11:01:03.999Z</time></trkpt><trkpt lat="46.09109094747018" lon="11.684958257770779"><ele>1091.5</ele><time>2026-05-02T11:01:04.999Z</time></trkpt><trkpt lat="46.09102594545809" lon="11.684927685045833"><ele>1089.0</ele><time>2026-05-02T11:01:05.999Z</time></trkpt><trkpt lat="46.09096426279396" lon="11.684898153869149"><ele>1089.0</ele><time>2026-05-02T11:01:06.999Z</time></trkpt><trkpt lat="46.09089549221538" lon="11.684852733880689"><ele>1089.0</ele><time>2026-05-02T11:01:07.999Z</time></trkpt><trkpt lat="46.09082745633777" lon="11.684833113354467"><ele>1089.0</ele><time>2026-05-02T11:01:08.999Z</time></trkpt><trkpt lat="46.090713825031955" lon="11.684786927389341"><ele>1089.0</ele><time>2026-05-02T11:01:10.999Z</time></trkpt><trkpt lat="46.09061276195005" lon="11.684752270120125"><ele>1089.0</ele><time>2026-05-02T11:01:12.999Z</time></trkpt><trkpt lat="46.09050466845221" lon="11.68480036886403"><ele>1090.0</ele><time>2026-05-02T11:01:14.999Z</time></trkpt><trkpt lat="46.090455345319754" lon="11.684881259384612"><ele>1091.0</ele><time>2026-05-02T11:01:15.999Z</time></trkpt><trkpt lat="46.09043810100853" lon="11.684993401957305"><ele>1092.0</ele><time>2026-05-02T11:01:16.999Z</time></trkpt><trkpt lat="46.0904573892204" lon="11.685170320497711"><ele>1093.0</ele><time>2026-05-02T11:01:18.999Z</time></trkpt><trkpt lat="46.09048378452288" lon="11.685296098068388"><ele>1094.0</ele><time>2026-05-02T11:01:19.999Z</time></trkpt><trkpt lat="46.09051138293245" lon="11.685441573323358"><ele>1094.0</ele><time>2026-05-02T11:01:21.999Z</time></trkpt><trkpt lat="46.09046804854992" lon="11.685536557064696"><ele>1094.0</ele><time>2026-05-02T11:01:23.999Z</time></trkpt><trkpt lat="46.090396615379106" lon="11.68568017873738"><ele>1094.0</ele><time>2026-05-02T11:01:25.999Z</time></trkpt><trkpt lat="46.090362451359454" lon="11.685758231689547"><ele>1094.0</ele><time>2026-05-02T11:01:26.999Z</time></trkpt><trkpt lat="46.09025896690001" lon="11.685871169605857"><ele>1094.0</ele><time>2026-05-02T11:01:28.999Z</time></trkpt><trkpt lat="46.090177869658284" lon="11.685907775453549"><ele>1094.0</ele><time>2026-05-02T11:01:29.999Z</time></trkpt><trkpt lat="46.09009905014655" lon="11.685909250546535"><ele>1094.0</ele><time>2026-05-02T11:01:30.999Z</time></trkpt><trkpt lat="46.09002584832212" lon="11.685922956447758"><ele>1094.0</ele><time>2026-05-02T11:01:31.999Z</time></trkpt><trkpt lat="46.08993510629165" lon="11.685928486404805"><ele>1094.0</ele><time>2026-05-02T11:01:32.999Z</time></trkpt><trkpt lat="46.0898357554034" lon="11.685955660720694"><ele>1094.0</ele><time>2026-05-02T11:01:33.999Z</time></trkpt><trkpt lat="46.0897674226036" lon="11.685979004285219"><ele>1094.0</ele><time>2026-05-02T11:01:34.999Z</time></trkpt><trkpt lat="46.089680850126236" lon="11.686028207681895"><ele>1098.3333333333335</ele><time>2026-05-02T11:01:36.999Z</time></trkpt><trkpt lat="46.08963481326117" lon="11.686092471722956"><ele>1102.6666666666667</ele><time>2026-05-02T11:01:39.999Z</time></trkpt><trkpt lat="46.08957161462972" lon="11.686043068243462"><ele>1107.0</ele><time>2026-05-02T11:01:41.999Z</time></trkpt><trkpt lat="46.08961844833038" lon="11.685922001362842"><ele>1111.3333333333333</ele><time>2026-05-02T11:01:43.999Z</time></trkpt><trkpt lat="46.08969117087978" lon="11.68592571637188"><ele>1115.6666666666665</ele><time>2026-05-02T11:01:44.999Z</time></trkpt><trkpt lat="46.08977215617808" lon="11.685866668691821"><ele>1120.0</ele><time>2026-05-02T11:01:45.999Z</time></trkpt><trkpt lat="46.089848009202306" lon="11.685815753830717"><ele>1120.0</ele><time>2026-05-02T11:01:46.999Z</time></trkpt><trkpt lat="46.089924634550016" lon="11.685778312509303"><ele>1120.0</ele><time>2026-05-02T11:01:47.999Z</time></trkpt><trkpt lat="46.089987562206865" lon="11.6857498904329"><ele>1120.0</ele><time>2026-05-02T11:01:48.999Z</time></trkpt><trkpt lat="46.09008779716125" lon="11.685711977477695"><ele>1120.0</ele><time>2026-05-02T11:01:50.999Z</time></trkpt><trkpt lat="46.090193785865345" lon="11.685682011173233"><ele>1120.0</ele><time>2026-05-02T11:01:52.999Z</time></trkpt><trkpt lat="46.090270425016506" lon="11.685625748130658"><ele>1120.0</ele><time>2026-05-02T11:01:55.999Z</time></trkpt><trkpt lat="46.0902981123935" lon="11.685540021484819"><ele>1120.0</ele><time>2026-05-02T11:01:57.999Z</time></trkpt><trkpt lat="46.09021928847825" lon="11.685450486566669"><ele>1120.0</ele><time>2026-05-02T11:01:59.999Z</time></trkpt><trkpt lat="46.090142279562855" lon="11.685495307132085"><ele>1120.0</ele><time>2026-05-02T11:02:01.999Z</time></trkpt><trkpt lat="46.09004102173911" lon="11.685523648399553"><ele>1120.0</ele><time>2026-05-02T11:02:03.999Z</time></trkpt><trkpt lat="46.089935042601624" lon="11.68555718869422"><ele>1120.0</ele><time>2026-05-02T11:02:05.998Z</time></trkpt><trkpt lat="46.08985449155505" lon="11.685558445018874"><ele>1120.0</ele><time>2026-05-02T11:02:06.998Z</time></trkpt><trkpt lat="46.08979073190358" lon="11.685572213904743"><ele>1120.0</ele><time>2026-05-02T11:02:07.998Z</time></trkpt><trkpt lat="46.08970560207843" lon="11.685605731386772"><ele>1120.0</ele><time>2026-05-02T11:02:08.998Z</time></trkpt><trkpt lat="46.08964013436792" lon="11.685632445206718"><ele>1120.0</ele><time>2026-05-02T11:02:09.998Z</time></trkpt><trkpt lat="46.08941438212093" lon="11.685754038517167"><ele>1120.0</ele><time>2026-05-02T11:02:11.998Z</time></trkpt><trkpt lat="46.08933763263132" lon="11.68570296402717"><ele>1120.0</ele><time>2026-05-02T11:02:12.998Z</time></trkpt><trkpt lat="46.08958421881914" lon="11.685646324187283"><ele>1120.0</ele><time>2026-05-02T11:02:13.998Z</time></trkpt><trkpt lat="46.08951819524732" lon="11.685709010789425"><ele>1120.0</ele><time>2026-05-02T11:02:34.998Z</time></trkpt><trkpt lat="46.08937830316316" lon="11.685834365642451"><ele>1120.0</ele><time>2026-05-02T11:02:35.998Z</time></trkpt><trkpt lat="46.089437596824645" lon="11.685788809989317"><ele>1120.0</ele><time>2026-05-02T11:02:47Z</time></trkpt><trkpt lat="46.08949464218022" lon="11.685724863413572"><ele>1120.0</ele><time>2026-05-02T11:03:20.999Z</time></trkpt><trkpt lat="46.08942708222893" lon="11.6857453299731"><ele>1120.0</ele><time>2026-05-02T11:07:35.999Z</time></trkpt><trkpt lat="46.08941798632656" lon="11.685624853532573"><ele>1120.0</ele><time>2026-05-02T11:07:39.999Z</time></trkpt><trkpt lat="46.08953764120071" lon="11.685509228894727"><ele>1120.0</ele><time>2026-05-02T11:07:41.999Z</time></trkpt><trkpt lat="46.08963479737354" lon="11.68541806866755"><ele>1120.0</ele><time>2026-05-02T11:07:42.999Z</time></trkpt><trkpt lat="46.089737354897075" lon="11.685419228785907"><ele>1120.0</ele><time>2026-05-02T11:07:43.999Z</time></trkpt><trkpt lat="46.08981503327184" lon="11.685369998819747"><ele>1120.0</ele><time>2026-05-02T11:07:44.999Z</time></trkpt><trkpt lat="46.08988730110786" lon="11.68533083586463"><ele>1120.0</ele><time>2026-05-02T11:07:45.999Z</time></trkpt><trkpt lat="46.089982419797174" lon="11.685291043902401"><ele>1120.0</ele><time>2026-05-02T11:07:46.999Z</time></trkpt><trkpt lat="46.09007895052998" lon="11.685253841463732"><ele>1104.0</ele><time>2026-05-02T11:07:47.999Z</time></trkpt><trkpt lat="46.09014202769323" lon="11.685228821186447"><ele>1088.0</ele><time>2026-05-02T11:07:48.999Z</time></trkpt><trkpt lat="46.09022907865134" lon="11.685174822522287"><ele>1072.0</ele><time>2026-05-02T11:07:50.999Z</time></trkpt><trkpt lat="46.090002843129604" lon="11.685076938245976"><ele>1056.0</ele><time>2026-05-02T11:08:05.999Z</time></trkpt><trkpt lat="46.089897903241" lon="11.68509862497055"><ele>1050.0</ele><time>2026-05-02T11:08:06.999Z</time></trkpt><trkpt lat="46.08979257428372" lon="11.6851003095741"><ele>1044.0</ele><time>2026-05-02T11:08:07.999Z</time></trkpt><trkpt lat="46.08969803737953" lon="11.685132695466468"><ele>1038.0</ele><time>2026-05-02T11:08:08.999Z</time></trkpt><trkpt lat="46.08958097497014" lon="11.685133238493568"><ele>1032.0</ele><time>2026-05-02T11:08:09.999Z</time></trkpt><trkpt lat="46.089453837176904" lon="11.685188033394624"><ele>1032.0</ele><time>2026-05-02T11:08:10.999Z</time></trkpt><trkpt lat="46.08932444416161" lon="11.68527549629482"><ele>1032.0</ele><time>2026-05-02T11:08:11.999Z</time></trkpt><trkpt lat="46.089418191906574" lon="11.685212970317815"><ele>1032.0</ele><time>2026-05-02T11:08:12.999Z</time></trkpt><trkpt lat="46.08934972778857" lon="11.685283032707362"><ele>1032.0</ele><time>2026-05-02T11:08:13.999Z</time></trkpt><trkpt lat="46.08928618596521" lon="11.685320344195711"><ele>1032.0</ele><time>2026-05-02T11:08:14.999Z</time></trkpt><trkpt lat="46.089213481348565" lon="11.68536347176491"><ele>1042.8333333333333</ele><time>2026-05-02T11:08:15.999Z</time></trkpt><trkpt lat="46.08914459551598" lon="11.685416334784609"><ele>1053.6666666666667</ele><time>2026-05-02T11:08:16.999Z</time></trkpt><trkpt lat="46.089069591318335" lon="11.685474668552871"><ele>1064.5</ele><time>2026-05-02T11:08:17.999Z</time></trkpt><trkpt lat="46.08901195346437" lon="11.685512307580202"><ele>1075.3333333333335</ele><time>2026-05-02T11:08:18.999Z</time></trkpt><trkpt lat="46.08893104116671" lon="11.685546754476395"><ele>1086.1666666666667</ele><time>2026-05-02T11:08:20.999Z</time></trkpt><trkpt lat="46.08886025861235" lon="11.685504458608447"><ele>1097.0</ele><time>2026-05-02T11:08:23.999Z</time></trkpt><trkpt lat="46.088928462879494" lon="11.685447690366196"><ele>1097.0</ele><time>2026-05-02T11:08:26.999Z</time></trkpt><trkpt lat="46.08901694168059" lon="11.685340506417093"><ele>1097.0</ele><time>2026-05-02T11:08:28.999Z</time></trkpt><trkpt lat="46.089097039192815" lon="11.685264504893519"><ele>1097.0</ele><time>2026-05-02T11:08:29.999Z</time></trkpt><trkpt lat="46.08919180461139" lon="11.685162547637669"><ele>1097.0</ele><time>2026-05-02T11:08:30.999Z</time></trkpt><trkpt lat="46.08929110976632" lon="11.685081501794533"><ele>1097.0</ele><time>2026-05-02T11:08:31.999Z</time></trkpt><trkpt lat="46.089359095335" lon="11.68498244534197"><ele>1086.1666666666667</ele><time>2026-05-02T11:08:32.999Z</time></trkpt><trkpt lat="46.089438276075114" lon="11.684900789670776"><ele>1075.3333333333335</ele><time>2026-05-02T11:08:33.999Z</time></trkpt><trkpt lat="46.089513076534274" lon="11.68482169360193"><ele>1064.5</ele><time>2026-05-02T11:08:34.999Z</time></trkpt><trkpt lat="46.089597054386005" lon="11.684757434630505"><ele>1053.6666666666667</ele><time>2026-05-02T11:08:35.999Z</time></trkpt><trkpt lat="46.08965337362113" lon="11.684705338275979"><ele>1042.8333333333333</ele><time>2026-05-02T11:08:36.999Z</time></trkpt><trkpt lat="46.089731312348455" lon="11.684645513559412"><ele>1032.0</ele><time>2026-05-02T11:08:37.999Z</time></trkpt><trkpt lat="46.08981247292163" lon="11.684599406256774"><ele>1032.0</ele><time>2026-05-02T11:08:38.999Z</time></trkpt><trkpt lat="46.08992209291826" lon="11.68453861308948"><ele>1032.0</ele><time>2026-05-02T11:08:39.999Z</time></trkpt><trkpt lat="46.0900220853625" lon="11.684487077277486"><ele>1032.0</ele><time>2026-05-02T11:08:40.999Z</time></trkpt><trkpt lat="46.090121760323015" lon="11.684442073300612"><ele>1032.0</ele><time>2026-05-02T11:08:41.999Z</time></trkpt><trkpt lat="46.090203103605724" lon="11.684416972182143"><ele>1032.0</ele><time>2026-05-02T11:08:42.999Z</time></trkpt><trkpt lat="46.09028940322373" lon="11.684391282140078"><ele>1030.8333333333333</ele><time>2026-05-02T11:08:43.999Z</time></trkpt><trkpt lat="46.0903770631269" lon="11.684357701131962"><ele>1029.6666666666667</ele><time>2026-05-02T11:08:44.998Z</time></trkpt><trkpt lat="46.090437503166676" lon="11.684303087527162"><ele>1028.5</ele><time>2026-05-02T11:08:45.998Z</time></trkpt><trkpt lat="46.09050087979225" lon="11.684267916414036"><ele>1027.3333333333335</ele><time>2026-05-02T11:08:46.998Z</time></trkpt><trkpt lat="46.09055312027996" lon="11.684208682913907"><ele>1026.1666666666667</ele><time>2026-05-02T11:08:47.998Z</time></trkpt><trkpt lat="46.09063097203373" lon="11.684059457907388"><ele>1025.0</ele><time>2026-05-02T11:08:49.998Z</time></trkpt><trkpt lat="46.09068151989217" lon="11.683957978994904"><ele>1025.0</ele><time>2026-05-02T11:08:51.998Z</time></trkpt><trkpt lat="46.09066329050518" lon="11.68384212301623"><ele>1025.0</ele><time>2026-05-02T11:08:54.998Z</time></trkpt><trkpt lat="46.090583599492525" lon="11.68381760626481"><ele>1025.0</ele><time>2026-05-02T11:08:56.998Z</time></trkpt><trkpt lat="46.090544904081604" lon="11.683931726440163"><ele>1025.0</ele><time>2026-05-02T11:08:58Z</time></trkpt><trkpt lat="46.09048045716138" lon="11.684012537771254"><ele>1025.0</ele><time>2026-05-02T11:08:59Z</time></trkpt><trkpt lat="46.09040832961828" lon="11.684075095179622"><ele>1025.0</ele><time>2026-05-02T11:09:01Z</time></trkpt><trkpt lat="46.09031910427918" lon="11.684088439827374"><ele>1025.0</ele><time>2026-05-02T11:09:03Z</time></trkpt><trkpt lat="46.09023657223531" lon="11.684081574163415"><ele>1025.0</ele><time>2026-05-02T11:09:04Z</time></trkpt><trkpt lat="46.09013022124053" lon="11.68407372689719"><ele>1025.0</ele><time>2026-05-02T11:09:05Z</time></trkpt><trkpt lat="46.090008694479835" lon="11.68408328219535"><ele>1025.0</ele><time>2026-05-02T11:09:06Z</time></trkpt><trkpt lat="46.08992624952157" lon="11.684080848659697"><ele>1025.0</ele><time>2026-05-02T11:09:07Z</time></trkpt><trkpt lat="46.08983838854776" lon="11.684084011192704"><ele>1021.9999999999999</ele><time>2026-05-02T11:09:08Z</time></trkpt><trkpt lat="46.0897650625835" lon="11.684082340519677"><ele>1019.0</ele><time>2026-05-02T11:09:09Z</time></trkpt><trkpt lat="46.08968968154295" lon="11.684088025878037"><ele>1015.9999999999999</ele><time>2026-05-02T11:09:10Z</time></trkpt><trkpt lat="46.089620592909036" lon="11.684112936555184"><ele>1012.9999999999999</ele><time>2026-05-02T11:09:11Z</time></trkpt><trkpt lat="46.08955350377353" lon="11.68414441797425"><ele>1010.0</ele><time>2026-05-02T11:09:12Z</time></trkpt><trkpt lat="46.08948837882033" lon="11.684168354139912"><ele>1006.9999999999999</ele><time>2026-05-02T11:09:13Z</time></trkpt><trkpt lat="46.089416331850614" lon="11.684212720597825"><ele>1003.9999999999999</ele><time>2026-05-02T11:09:14Z</time></trkpt><trkpt lat="46.08933573731921" lon="11.684230194360914"><ele>1004.0</ele><time>2026-05-02T11:09:15Z</time></trkpt><trkpt lat="46.089249068195066" lon="11.684292575681033"><ele>1004.0000000000001</ele><time>2026-05-02T11:09:16Z</time></trkpt><trkpt lat="46.089146079326326" lon="11.684336016825908"><ele>1004.0000000000001</ele><time>2026-05-02T11:09:17Z</time></trkpt><trkpt lat="46.089043640826695" lon="11.684379900196447"><ele>1004.0</ele><time>2026-05-02T11:09:18Z</time></trkpt><trkpt lat="46.08895041869683" lon="11.684437866992061"><ele>1004.0</ele><time>2026-05-02T11:09:19Z</time></trkpt><trkpt lat="46.08884383861921" lon="11.68453582269502"><ele>1007.5000000000001</ele><time>2026-05-02T11:09:21Z</time></trkpt><trkpt lat="46.088782957578445" lon="11.68462258624504"><ele>1011.0</ele><time>2026-05-02T11:09:22Z</time></trkpt><trkpt lat="46.088731857617034" lon="11.68468997641258"><ele>1014.5</ele><time>2026-05-02T11:09:23Z</time></trkpt><trkpt lat="46.088679994314646" lon="11.684757103630014"><ele>1018.0</ele><time>2026-05-02T11:09:24Z</time></trkpt><trkpt lat="46.08861110514792" lon="11.684837288846323"><ele>1021.5000000000001</ele><time>2026-05-02T11:09:26Z</time></trkpt><trkpt lat="46.08853512180481" lon="11.68483864392625"><ele>1025.0</ele><time>2026-05-02T11:09:28Z</time></trkpt><trkpt lat="46.08854518471995" lon="11.6846804029372"><ele>1025.0</ele><time>2026-05-02T11:09:30Z</time></trkpt><trkpt lat="46.08861802532637" lon="11.684698026240294"><ele>1025.0</ele><time>2026-05-02T11:09:31Z</time></trkpt><trkpt lat="46.08873310929672" lon="11.68457331831923"><ele>1025.0</ele><time>2026-05-02T11:09:33Z</time></trkpt><trkpt lat="46.088786662515325" lon="11.684473821997686"><ele>1025.0</ele><time>2026-05-02T11:09:34Z</time></trkpt><trkpt lat="46.08884408349615" lon="11.684373650492997"><ele>1025.0</ele><time>2026-05-02T11:09:35Z</time></trkpt><trkpt lat="46.088933199349675" lon="11.684279241822354"><ele>1021.5000000000001</ele><time>2026-05-02T11:09:36Z</time></trkpt><trkpt lat="46.08899746751364" lon="11.684167710632513"><ele>1018.0</ele><time>2026-05-02T11:09:37Z</time></trkpt><trkpt lat="46.08907361911562" lon="11.68408838454252"><ele>1014.5</ele><time>2026-05-02T11:09:38Z</time></trkpt><trkpt lat="46.08915228583829" lon="11.683995152183197"><ele>1011.0</ele><time>2026-05-02T11:09:39Z</time></trkpt><trkpt lat="46.089213000047174" lon="11.683931376717435"><ele>1007.5000000000001</ele><time>2026-05-02T11:09:40Z</time></trkpt><trkpt lat="46.08926660046576" lon="11.683876331540697"><ele>1004.0</ele><time>2026-05-02T11:09:40.999Z</time></trkpt><trkpt lat="46.08931694449767" lon="11.683821408295046"><ele>1004.0</ele><time>2026-05-02T11:09:41.999Z</time></trkpt><trkpt lat="46.08938216414011" lon="11.683706780559893"><ele>1004.0</ele><time>2026-05-02T11:09:43.999Z</time></trkpt><trkpt lat="46.089318736280866" lon="11.683598367912959"><ele>1004.0</ele><time>2026-05-02T11:09:46.999Z</time></trkpt><trkpt lat="46.089178097700646" lon="11.683671030104474"><ele>1004.0</ele><time>2026-05-02T11:09:48.999Z</time></trkpt><trkpt lat="46.089110430764606" lon="11.683777706926975"><ele>1002.4000000000001</ele><time>2026-05-02T11:09:49.999Z</time></trkpt><trkpt lat="46.08903426683751" lon="11.68388322011305"><ele>1000.8000000000001</ele><time>2026-05-02T11:09:50.999Z</time></trkpt><trkpt lat="46.08894572709863" lon="11.683918484543739"><ele>999.1999999999999</ele><time>2026-05-02T11:09:51.999Z</time></trkpt><trkpt lat="46.08886578420197" lon="11.68396362584958"><ele>997.5999999999999</ele><time>2026-05-02T11:09:52.999Z</time></trkpt><trkpt lat="46.08879704197379" lon="11.684002687060897"><ele>996.0</ele><time>2026-05-02T11:09:53.999Z</time></trkpt><trkpt lat="46.08870805933701" lon="11.684050584242033"><ele>996.0</ele><time>2026-05-02T11:09:54.999Z</time></trkpt><trkpt lat="46.08863186281119" lon="11.68411216646201"><ele>995.9999999999999</ele><time>2026-05-02T11:09:55.999Z</time></trkpt><trkpt lat="46.08852830359948" lon="11.68416371634623"><ele>995.9999999999999</ele><time>2026-05-02T11:09:57.999Z</time></trkpt><trkpt lat="46.08844759122751" lon="11.68424681181917"><ele>996.0</ele><time>2026-05-02T11:09:58.999Z</time></trkpt><trkpt lat="46.088378179776576" lon="11.684264249393381"><ele>996.0</ele><time>2026-05-02T11:09:59.999Z</time></trkpt><trkpt lat="46.088286172887905" lon="11.684266436647468"><ele>997.8333333333334</ele><time>2026-05-02T11:10:00.999Z</time></trkpt><trkpt lat="46.08820344941341" lon="11.684194132117259"><ele>999.6666666666667</ele><time>2026-05-02T11:10:01.999Z</time></trkpt><trkpt lat="46.08811252182158" lon="11.684141758783237"><ele>1001.5</ele><time>2026-05-02T11:10:02.999Z</time></trkpt><trkpt lat="46.088031694695694" lon="11.684092332963672"><ele>1003.3333333333334</ele><time>2026-05-02T11:10:03.999Z</time></trkpt><trkpt lat="46.08795900884722" lon="11.684026701917388"><ele>1005.1666666666667</ele><time>2026-05-02T11:10:04.999Z</time></trkpt><trkpt lat="46.08790835527338" lon="11.683961061106126"><ele>1007.0</ele><time>2026-05-02T11:10:05.999Z</time></trkpt><trkpt lat="46.087805254114485" lon="11.683851199253663"><ele>1007.0000000000001</ele><time>2026-05-02T11:10:07.999Z</time></trkpt><trkpt lat="46.08774504032303" lon="11.68373381893308"><ele>1007.0</ele><time>2026-05-02T11:10:09.999Z</time></trkpt><trkpt lat="46.087674868948184" lon="11.683638341446116"><ele>1007.0</ele><time>2026-05-02T11:10:11.999Z</time></trkpt><trkpt lat="46.087593590354096" lon="11.68355001278396"><ele>1007.0</ele><time>2026-05-02T11:10:13.999Z</time></trkpt><trkpt lat="46.08752316354313" lon="11.683515123238237"><ele>1007.0000000000001</ele><time>2026-05-02T11:10:15.999Z</time></trkpt><trkpt lat="46.08745651939774" lon="11.683479647395348"><ele>1007.0</ele><time>2026-05-02T11:10:17.999Z</time></trkpt><trkpt lat="46.087386970607966" lon="11.683466236962085"><ele>1003.5000000000001</ele><time>2026-05-02T11:32:33Z</time></trkpt><trkpt lat="46.08731436205575" lon="11.683437665519275"><ele>1000.0</ele><time>2026-05-02T11:32:35Z</time></trkpt><trkpt lat="46.08724189247166" lon="11.683415804217221"><ele>996.5</ele><time>2026-05-02T11:32:36Z</time></trkpt><trkpt lat="46.0871515248314" lon="11.683389945333294"><ele>993.0</ele><time>2026-05-02T11:32:37.999Z</time></trkpt><trkpt lat="46.08706945069452" lon="11.683354235328139"><ele>989.5000000000001</ele><time>2026-05-02T11:32:39.999Z</time></trkpt><trkpt lat="46.08699679712394" lon="11.683290891960109"><ele>986.0</ele><time>2026-05-02T11:32:41.999Z</time></trkpt><trkpt lat="46.08693952463399" lon="11.68322738849999"><ele>986.0000000000001</ele><time>2026-05-02T11:32:42.999Z</time></trkpt><trkpt lat="46.08689657317765" lon="11.683148417186478"><ele>986.0</ele><time>2026-05-02T11:32:43.999Z</time></trkpt><trkpt lat="46.0869174427555" lon="11.683019156988145"><ele>986.0</ele><time>2026-05-02T11:32:44.999Z</time></trkpt><trkpt lat="46.08688011876539" lon="11.68291919932143"><ele>986.0</ele><time>2026-05-02T11:32:45.999Z</time></trkpt><trkpt lat="46.08683960890328" lon="11.68282771082429"><ele>986.0000000000001</ele><time>2026-05-02T11:32:46.999Z</time></trkpt><trkpt lat="46.086768812036276" lon="11.682702182004405"><ele>986.0</ele><time>2026-05-02T11:32:48.999Z</time></trkpt><trkpt lat="46.08668080695338" lon="11.68265225238119"><ele>979.1666666666667</ele><time>2026-05-02T11:32:49.999Z</time></trkpt><trkpt lat="46.086617685661544" lon="11.682646512575918"><ele>972.3333333333334</ele><time>2026-05-02T11:32:50.999Z</time></trkpt><trkpt lat="46.08653068460486" lon="11.682664695582357"><ele>965.5</ele><time>2026-05-02T11:32:51.999Z</time></trkpt><trkpt lat="46.08646535683546" lon="11.68268852004664"><ele>958.6666666666667</ele><time>2026-05-02T11:32:52.999Z</time></trkpt><trkpt lat="46.08638479533636" lon="11.68275005908526"><ele>951.8333333333334</ele><time>2026-05-02T11:32:54.999Z</time></trkpt><trkpt lat="46.08637076716641" lon="11.682885610978083"><ele>945.0</ele><time>2026-05-02T11:32:56.999Z</time></trkpt><trkpt lat="46.08638408946927" lon="11.68298229366854"><ele>945.0</ele><time>2026-05-02T11:32:57.999Z</time></trkpt><trkpt lat="46.08638962975963" lon="11.683080148014053"><ele>945.0</ele><time>2026-05-02T11:32:58.999Z</time></trkpt><trkpt lat="46.08636920864367" lon="11.683224490230268"><ele>945.0</ele><time>2026-05-02T11:33:00.999Z</time></trkpt><trkpt lat="46.086316395819225" lon="11.683302394539957"><ele>945.0</ele><time>2026-05-02T11:33:02.999Z</time></trkpt><trkpt lat="46.08625551569345" lon="11.683361272585014"><ele>945.0</ele><time>2026-05-02T11:33:04.999Z</time></trkpt><trkpt lat="46.08619200340678" lon="11.683430437789243"><ele>945.0</ele><time>2026-05-02T11:33:05.999Z</time></trkpt><trkpt lat="46.086125097588784" lon="11.683452028739222"><ele>945.0</ele><time>2026-05-02T11:33:06.999Z</time></trkpt><trkpt lat="46.08603833154309" lon="11.683526323501718"><ele>945.0</ele><time>2026-05-02T11:33:08.999Z</time></trkpt><trkpt lat="46.08592204221609" lon="11.683631790803066"><ele>945.0</ele><time>2026-05-02T11:33:10.999Z</time></trkpt><trkpt lat="46.08587430315746" lon="11.68369216819475"><ele>945.0</ele><time>2026-05-02T11:33:11.999Z</time></trkpt><trkpt lat="46.08582321685122" lon="11.683777266340227"><ele>945.0</ele><time>2026-05-02T11:33:12.999Z</time></trkpt><trkpt lat="46.0857544150687" lon="11.683852738783226"><ele>942.5</ele><time>2026-05-02T11:33:13.999Z</time></trkpt><trkpt lat="46.085698485135765" lon="11.683919593939935"><ele>940.0</ele><time>2026-05-02T11:33:14.999Z</time></trkpt><trkpt lat="46.08563080190404" lon="11.683999863991797"><ele>937.5</ele><time>2026-05-02T11:33:15.999Z</time></trkpt><trkpt lat="46.08554663316365" lon="11.68408801445755"><ele>935.0</ele><time>2026-05-02T11:33:16.999Z</time></trkpt><trkpt lat="46.08547189308121" lon="11.68415151555316"><ele>932.5</ele><time>2026-05-02T11:33:17.999Z</time></trkpt><trkpt lat="46.085387905716054" lon="11.68420968477595"><ele>930.0</ele><time>2026-05-02T11:33:18.999Z</time></trkpt><trkpt lat="46.08532072900217" lon="11.684260764799976"><ele>930.0</ele><time>2026-05-02T11:33:19.999Z</time></trkpt><trkpt lat="46.08526753312905" lon="11.684309354251116"><ele>930.0</ele><time>2026-05-02T11:33:20.998Z</time></trkpt><trkpt lat="46.08518585518607" lon="11.684375361349979"><ele>930.0</ele><time>2026-05-02T11:33:23.998Z</time></trkpt><trkpt lat="46.08528488143314" lon="11.684592087063434"><ele>930.0</ele><time>2026-05-02T11:33:25.998Z</time></trkpt><trkpt lat="46.08534880507152" lon="11.68471784213952"><ele>930.0</ele><time>2026-05-02T11:33:26.998Z</time></trkpt><trkpt lat="46.085425715379955" lon="11.684857350515903"><ele>950.0</ele><time>2026-05-02T11:33:27.998Z</time></trkpt><trkpt lat="46.08551340202297" lon="11.685017653334652"><ele>970.0</ele><time>2026-05-02T11:33:28.998Z</time></trkpt><trkpt lat="46.08494944661282" lon="11.684837136805037"><ele>970.8333333333333</ele><time>2026-05-02T11:33:29.998Z</time></trkpt><trkpt lat="46.084903720869455" lon="11.684929948305255"><ele>971.6666666666666</ele><time>2026-05-02T11:33:30.998Z</time></trkpt><trkpt lat="46.08486031424816" lon="11.685017789644538"><ele>972.5</ele><time>2026-05-02T11:33:31.998Z</time></trkpt><trkpt lat="46.084824462240974" lon="11.685128599138052"><ele>973.3333333333333</ele><time>2026-05-02T11:33:32.998Z</time></trkpt><trkpt lat="46.084790928812" lon="11.685240418988936"><ele>974.1666666666666</ele><time>2026-05-02T11:33:33.998Z</time></trkpt><trkpt lat="46.0847506322214" lon="11.685335660509546"><ele>975.0</ele><time>2026-05-02T11:33:34.998Z</time></trkpt><trkpt lat="46.08471682855384" lon="11.685423547149005"><ele>975.0</ele><time>2026-05-02T11:33:35.998Z</time></trkpt><trkpt lat="46.08466429362361" lon="11.685565100206144"><ele>975.0</ele><time>2026-05-02T11:33:37.998Z</time></trkpt><trkpt lat="46.08460319626952" lon="11.685657208073472"><ele>975.0</ele><time>2026-05-02T11:33:39.998Z</time></trkpt><trkpt lat="46.084507705376105" lon="11.68567152048595"><ele>975.0</ele><time>2026-05-02T11:33:41.998Z</time></trkpt><trkpt lat="46.08441512678801" lon="11.68557245493509"><ele>975.0</ele><time>2026-05-02T11:33:43.998Z</time></trkpt><trkpt lat="46.084416222904984" lon="11.68547760220261"><ele>975.0</ele><time>2026-05-02T11:33:44.998Z</time></trkpt><trkpt lat="46.084383612108276" lon="11.685389390391311"><ele>975.0</ele><time>2026-05-02T11:33:45.998Z</time></trkpt><trkpt lat="46.08434522027056" lon="11.685306222872079"><ele>975.0</ele><time>2026-05-02T11:33:46.998Z</time></trkpt><trkpt lat="46.08429778522937" lon="11.685241238996413"><ele>975.0</ele><time>2026-05-02T11:33:47.998Z</time></trkpt><trkpt lat="46.08420140714284" lon="11.685182060499384"><ele>975.0</ele><time>2026-05-02T11:33:49.998Z</time></trkpt><trkpt lat="46.08409454709685" lon="11.685194135342813"><ele>975.0</ele><time>2026-05-02T11:33:51.998Z</time></trkpt><trkpt lat="46.0840329807963" lon="11.685251985559818"><ele>971.0</ele><time>2026-05-02T11:33:52.998Z</time></trkpt><trkpt lat="46.083961989677675" lon="11.685323441702693"><ele>967.0</ele><time>2026-05-02T11:33:53.998Z</time></trkpt><trkpt lat="46.08388912577944" lon="11.68538880365"><ele>963.0</ele><time>2026-05-02T11:33:54.998Z</time></trkpt><trkpt lat="46.083831443885046" lon="11.68544294126591"><ele>959.0</ele><time>2026-05-02T11:33:55.998Z</time></trkpt><trkpt lat="46.08376150983924" lon="11.685522861299766"><ele>955.0</ele><time>2026-05-02T11:33:56.998Z</time></trkpt><trkpt lat="46.083685041859624" lon="11.685607372430805"><ele>951.0</ele><time>2026-05-02T11:33:57.998Z</time></trkpt><trkpt lat="46.08362852443688" lon="11.685665654059548"><ele>951.0</ele><time>2026-05-02T11:33:58.998Z</time></trkpt><trkpt lat="46.083573457884874" lon="11.685724643935432"><ele>950.9999999999999</ele><time>2026-05-02T11:33:59.998Z</time></trkpt><trkpt lat="46.08346826802236" lon="11.685811298501584"><ele>950.9999999999999</ele><time>2026-05-02T11:34:01.998Z</time></trkpt><trkpt lat="46.08337944186904" lon="11.685842066063914"><ele>951.0</ele><time>2026-05-02T11:34:02.998Z</time></trkpt><trkpt lat="46.08328350277352" lon="11.685886835414957"><ele>951.0</ele><time>2026-05-02T11:34:03.998Z</time></trkpt><trkpt lat="46.083189205098876" lon="11.685945199621594"><ele>942.8</ele><time>2026-05-02T11:34:04.997Z</time></trkpt><trkpt lat="46.08310437274311" lon="11.685949763771756"><ele>934.5999999999999</ele><time>2026-05-02T11:34:05.997Z</time></trkpt><trkpt lat="46.08298419231697" lon="11.686001943528186"><ele>926.4</ele><time>2026-05-02T11:34:07.997Z</time></trkpt><trkpt lat="46.08291296520325" lon="11.68599984639842"><ele>918.2</ele><time>2026-05-02T11:34:09Z</time></trkpt><trkpt lat="46.08285439739286" lon="11.686035729381631"><ele>910.0</ele><time>2026-05-02T11:34:10Z</time></trkpt><trkpt lat="46.082742729762835" lon="11.686060770309119"><ele>911.2</ele><time>2026-05-02T11:34:12Z</time></trkpt><trkpt lat="46.08260620999336" lon="11.686103078302382"><ele>912.4</ele><time>2026-05-02T11:34:14Z</time></trkpt><trkpt lat="46.0825436980441" lon="11.686130072925637"><ele>913.5999999999999</ele><time>2026-05-02T11:34:15Z</time></trkpt><trkpt lat="46.0824562159405" lon="11.686192564843331"><ele>914.8</ele><time>2026-05-02T11:34:17Z</time></trkpt><trkpt lat="46.08238373513841" lon="11.686319377223565"><ele>916.0</ele><time>2026-05-02T11:34:19Z</time></trkpt><trkpt lat="46.0823634282932" lon="11.686406541712774"><ele>915.9999999999999</ele><time>2026-05-02T11:34:20Z</time></trkpt><trkpt lat="46.082349490818586" lon="11.686534607512934"><ele>916.0</ele><time>2026-05-02T11:34:21Z</time></trkpt><trkpt lat="46.08234271051426" lon="11.686704452065522"><ele>916.0</ele><time>2026-05-02T11:34:23Z</time></trkpt><trkpt lat="46.08233781222531" lon="11.686827153809226"><ele>916.0</ele><time>2026-05-02T11:34:25Z</time></trkpt><trkpt lat="46.08231093592372" lon="11.68693024946238"><ele>915.9999999999999</ele><time>2026-05-02T11:34:31Z</time></trkpt><trkpt lat="46.0822385643836" lon="11.686907792862142"><ele>916.0</ele><time>2026-05-02T11:34:32Z</time></trkpt><trkpt lat="46.08214236777101" lon="11.686921370611925"><ele>915.9999999999999</ele><time>2026-05-02T11:34:33Z</time></trkpt><trkpt lat="46.08205365529295" lon="11.686931000945398"><ele>916.0</ele><time>2026-05-02T11:34:34Z</time></trkpt><trkpt lat="46.08195875824237" lon="11.686962330255678"><ele>916.0</ele><time>2026-05-02T11:34:35Z</time></trkpt><trkpt lat="46.08189264866627" lon="11.686954998407439"><ele>916.0</ele><time>2026-05-02T11:34:36Z</time></trkpt><trkpt lat="46.08182448765159" lon="11.686935277671239"><ele>915.9999999999999</ele><time>2026-05-02T11:34:37Z</time></trkpt><trkpt lat="46.08172865550759" lon="11.686828161452146"><ele>916.0</ele><time>2026-05-02T11:34:38.999Z</time></trkpt><trkpt lat="46.081664710227976" lon="11.686808615039228"><ele>913.3333333333333</ele><time>2026-05-02T11:34:39.999Z</time></trkpt><trkpt lat="46.081552596698934" lon="11.686789546741554"><ele>910.6666666666666</ele><time>2026-05-02T11:34:41.999Z</time></trkpt><trkpt lat="46.081499670822446" lon="11.686848783726502"><ele>908.0</ele><time>2026-05-02T11:34:42.999Z</time></trkpt><trkpt lat="46.0814400536426" lon="11.686948070159376"><ele>905.3333333333333</ele><time>2026-05-02T11:34:43.999Z</time></trkpt><trkpt lat="46.08145607714507" lon="11.687099606495071"><ele>902.6666666666666</ele><time>2026-05-02T11:34:44.999Z</time></trkpt><trkpt lat="46.081407590769366" lon="11.687159969200671"><ele>900.0</ele><time>2026-05-02T11:34:45.999Z</time></trkpt><trkpt lat="46.0813269933771" lon="11.68720646750005"><ele>908.6666666666666</ele><time>2026-05-02T11:34:46.999Z</time></trkpt><trkpt lat="46.08126068474392" lon="11.687241526655917"><ele>917.3333333333333</ele><time>2026-05-02T11:34:47.999Z</time></trkpt><trkpt lat="46.081158333560595" lon="11.687285349101309"><ele>926.0</ele><time>2026-05-02T11:34:49.999Z</time></trkpt><trkpt lat="46.081085642955735" lon="11.687291627619144"><ele>934.6666666666666</ele><time>2026-05-02T11:34:50.999Z</time></trkpt><trkpt lat="46.081015104139304" lon="11.687291003760786"><ele>943.3333333333333</ele><time>2026-05-02T11:34:51.999Z</time></trkpt><trkpt lat="46.08095032811343" lon="11.687306919217367"><ele>952.0</ele><time>2026-05-02T11:34:52.999Z</time></trkpt><trkpt lat="46.08084523130697" lon="11.68721881530829"><ele>952.0</ele><time>2026-05-02T11:34:54.999Z</time></trkpt><trkpt lat="46.08079993820218" lon="11.687139379565883"><ele>952.0</ele><time>2026-05-02T11:34:55.999Z</time></trkpt><trkpt lat="46.08075934148871" lon="11.687040806998702"><ele>952.0</ele><time>2026-05-02T11:34:56.999Z</time></trkpt><trkpt lat="46.08066957164828" lon="11.686944479446606"><ele>952.0</ele><time>2026-05-02T11:34:58.999Z</time></trkpt><trkpt lat="46.08058877257707" lon="11.686881330500878"><ele>952.0</ele><time>2026-05-02T11:35:00.999Z</time></trkpt><trkpt lat="46.08046698344559" lon="11.686910778009363"><ele>953.9999999999999</ele><time>2026-05-02T11:35:02.999Z</time></trkpt><trkpt lat="46.080408457060344" lon="11.68696058212252"><ele>956.0</ele><time>2026-05-02T11:35:03.999Z</time></trkpt><trkpt lat="46.0803467441982" lon="11.68697929408403"><ele>958.0</ele><time>2026-05-02T11:35:04.999Z</time></trkpt><trkpt lat="46.08024624284091" lon="11.687002989020415"><ele>960.0</ele><time>2026-05-02T11:35:06.999Z</time></trkpt><trkpt lat="46.08017354129487" lon="11.687048711161179"><ele>961.9999999999999</ele><time>2026-05-02T11:35:08.999Z</time></trkpt><trkpt lat="46.080059507823414" lon="11.687093068477514"><ele>964.0</ele><time>2026-05-02T11:35:10.999Z</time></trkpt><trkpt lat="46.079972651339645" lon="11.687162910315264"><ele>962.8000000000001</ele><time>2026-05-02T11:35:12.999Z</time></trkpt><trkpt lat="46.07988268835078" lon="11.687170839117531"><ele>961.6000000000001</ele><time>2026-05-02T11:35:14.999Z</time></trkpt><trkpt lat="46.07982377227639" lon="11.687119085427097"><ele>960.4</ele><time>2026-05-02T11:35:16.999Z</time></trkpt><trkpt lat="46.079721707733725" lon="11.687014060290469"><ele>959.2</ele><time>2026-05-02T11:35:18.999Z</time></trkpt><trkpt lat="46.07965412527197" lon="11.686945149143904"><ele>958.0</ele><time>2026-05-02T11:35:19.999Z</time></trkpt><trkpt lat="46.07959482324884" lon="11.686862568258157"><ele>949.25</ele><time>2026-05-02T11:35:20.999Z</time></trkpt><trkpt lat="46.07948567763007" lon="11.686787834386298"><ele>940.5</ele><time>2026-05-02T11:35:22.999Z</time></trkpt><trkpt lat="46.07938249545719" lon="11.686686785509389"><ele>931.75</ele><time>2026-05-02T11:35:24.999Z</time></trkpt><trkpt lat="46.079280125538915" lon="11.686597946345612"><ele>923.0</ele><time>2026-05-02T11:35:26.998Z</time></trkpt><trkpt lat="46.07920647762931" lon="11.686511616786257"><ele>923.0</ele><time>2026-05-02T11:35:28.998Z</time></trkpt><trkpt lat="46.07916016892356" lon="11.686398186303792"><ele>923.0</ele><time>2026-05-02T11:35:30.998Z</time></trkpt><trkpt lat="46.079104000991244" lon="11.686298318088157"><ele>923.0</ele><time>2026-05-02T11:35:32.998Z</time></trkpt><trkpt lat="46.07900987956465" lon="11.686268320383856"><ele>923.0</ele><time>2026-05-02T11:35:34.998Z</time></trkpt><trkpt lat="46.078911639626824" lon="11.686248198212258"><ele>923.0</ele><time>2026-05-02T11:35:36.998Z</time></trkpt><trkpt lat="46.078813090040164" lon="11.686180880666319"><ele>918.4</ele><time>2026-05-02T11:35:38.998Z</time></trkpt><trkpt lat="46.078734366659354" lon="11.68616135870784"><ele>913.8</ele><time>2026-05-02T11:35:40.998Z</time></trkpt><trkpt lat="46.07866374257871" lon="11.686165911767763"><ele>909.2</ele><time>2026-05-02T11:35:42.998Z</time></trkpt><trkpt lat="46.078561395796704" lon="11.686181867491328"><ele>904.6</ele><time>2026-05-02T11:35:49.998Z</time></trkpt><trkpt lat="46.078511593933676" lon="11.686289989579633"><ele>900.0</ele><time>2026-05-02T11:35:51.998Z</time></trkpt><trkpt lat="46.07843421649016" lon="11.686418447207913"><ele>900.0</ele><time>2026-05-02T11:35:53.998Z</time></trkpt><trkpt lat="46.07838803584842" lon="11.686491789458978"><ele>900.0</ele><time>2026-05-02T11:35:54.998Z</time></trkpt><trkpt lat="46.078336463740676" lon="11.686576648456352"><ele>900.0</ele><time>2026-05-02T11:35:55.998Z</time></trkpt><trkpt lat="46.07828161514545" lon="11.686658606742544"><ele>900.0</ele><time>2026-05-02T11:35:56.998Z</time></trkpt><trkpt lat="46.07822056386686" lon="11.68674279937156"><ele>900.0</ele><time>2026-05-02T11:35:57.998Z</time></trkpt><trkpt lat="46.07816351593117" lon="11.6868106983036"><ele>900.0</ele><time>2026-05-02T11:35:58.998Z</time></trkpt><trkpt lat="46.078107204530475" lon="11.686875002721623"><ele>897.25</ele><time>2026-05-02T11:35:59.998Z</time></trkpt><trkpt lat="46.0780134977325" lon="11.686988327123462"><ele>894.5</ele><time>2026-05-02T11:36:01.998Z</time></trkpt><trkpt lat="46.07793493193309" lon="11.68710160532234"><ele>891.75</ele><time>2026-05-02T11:36:03.998Z</time></trkpt><trkpt lat="46.07787350070042" lon="11.687220279703052"><ele>889.0</ele><time>2026-05-02T11:36:05.998Z</time></trkpt><trkpt lat="46.077850660920376" lon="11.687401490339232"><ele>889.0</ele><time>2026-05-02T11:36:07.998Z</time></trkpt><trkpt lat="46.077824555285915" lon="11.687559950054236"><ele>889.0000000000001</ele><time>2026-05-02T11:36:09.998Z</time></trkpt><trkpt lat="46.077770901134855" lon="11.687675238267094"><ele>889.0000000000001</ele><time>2026-05-02T11:36:11.997Z</time></trkpt><trkpt lat="46.07768289898516" lon="11.68771525808269"><ele>889.0</ele><time>2026-05-02T11:36:13.997Z</time></trkpt><trkpt lat="46.07757772577817" lon="11.6876511471808"><ele>889.0</ele><time>2026-05-02T11:36:15.999Z</time></trkpt><trkpt lat="46.07752674998383" lon="11.687583402274404"><ele>888.9999999999999</ele><time>2026-05-02T11:36:16.999Z</time></trkpt><trkpt lat="46.07748063839462" lon="11.687508093727478"><ele>889.0</ele><time>2026-05-02T11:36:17.999Z</time></trkpt><trkpt lat="46.07743497532428" lon="11.687432090006338"><ele>889.0</ele><time>2026-05-02T11:36:18.999Z</time></trkpt><trkpt lat="46.07739074571431" lon="11.687359909518863"><ele>889.0</ele><time>2026-05-02T11:36:19.999Z</time></trkpt><trkpt lat="46.07731289359623" lon="11.687279628984705"><ele>888.9999999999999</ele><time>2026-05-02T11:36:21.999Z</time></trkpt><trkpt lat="46.077200594209366" lon="11.687299310307644"><ele>889.0</ele><time>2026-05-02T11:36:23.999Z</time></trkpt><trkpt lat="46.07713404977308" lon="11.68735844478299"><ele>889.8000000000001</ele><time>2026-05-02T11:36:24.999Z</time></trkpt><trkpt lat="46.07703586978051" lon="11.68742682174881"><ele>890.6000000000001</ele><time>2026-05-02T11:36:25.999Z</time></trkpt><trkpt lat="46.07692326381586" lon="11.687483100259602"><ele>891.4</ele><time>2026-05-02T11:36:26.999Z</time></trkpt><trkpt lat="46.07682872240787" lon="11.687524234196013"><ele>892.2</ele><time>2026-05-02T11:36:27.999Z</time></trkpt><trkpt lat="46.07674449138735" lon="11.68757669537924"><ele>893.0</ele><time>2026-05-02T11:36:28.999Z</time></trkpt><trkpt lat="46.076673850606525" lon="11.687607620932788"><ele>899.5999999999999</ele><time>2026-05-02T11:36:29.999Z</time></trkpt><trkpt lat="46.07655383443973" lon="11.687640940370631"><ele>906.1999999999999</ele><time>2026-05-02T11:36:31.999Z</time></trkpt><trkpt lat="46.07648655237075" lon="11.687637632700467"><ele>912.8</ele><time>2026-05-02T11:36:32.999Z</time></trkpt><trkpt lat="46.076392333645316" lon="11.687573882217778"><ele>919.4</ele><time>2026-05-02T11:36:34.999Z</time></trkpt><trkpt lat="46.07634436941296" lon="11.687490148719041"><ele>926.0</ele><time>2026-05-02T11:36:35.999Z</time></trkpt><trkpt lat="46.076288792966196" lon="11.68735746194485"><ele>926.0</ele><time>2026-05-02T11:36:36.999Z</time></trkpt><trkpt lat="46.076233065267594" lon="11.687216552813036"><ele>926.0</ele><time>2026-05-02T11:36:37.999Z</time></trkpt><trkpt lat="46.07616656648954" lon="11.687063255669914"><ele>926.0</ele><time>2026-05-02T11:36:38.999Z</time></trkpt><trkpt lat="46.076111403383926" lon="11.686886079213716"><ele>926.0</ele><time>2026-05-02T11:36:39.999Z</time></trkpt><trkpt lat="46.076079342671676" lon="11.686735863355624"><ele>915.75</ele><time>2026-05-02T11:36:40.999Z</time></trkpt><trkpt lat="46.07603068395099" lon="11.686583888379385"><ele>905.5</ele><time>2026-05-02T11:36:41.999Z</time></trkpt><trkpt lat="46.075983641930996" lon="11.686435897961138"><ele>895.25</ele><time>2026-05-02T11:36:42.999Z</time></trkpt><trkpt lat="46.07589070776682" lon="11.686262567838849"><ele>885.0</ele><time>2026-05-02T11:36:43.999Z</time></trkpt><trkpt lat="46.07611401956018" lon="11.68655172533891"><ele>885.0</ele><time>2026-05-02T11:36:44.999Z</time></trkpt><trkpt lat="46.076022617285226" lon="11.686483226904942"><ele>885.0</ele><time>2026-05-02T11:36:46.999Z</time></trkpt><trkpt lat="46.07589068298665" lon="11.686509773529412"><ele>885.0</ele><time>2026-05-02T11:36:48.999Z</time></trkpt><trkpt lat="46.07580884153176" lon="11.686537506288827"><ele>885.0</ele><time>2026-05-02T11:36:49.999Z</time></trkpt><trkpt lat="46.07570248080617" lon="11.686580325220035"><ele>885.0</ele><time>2026-05-02T11:36:50.999Z</time></trkpt><trkpt lat="46.07561442875914" lon="11.686623521310546"><ele>883.8333333333334</ele><time>2026-05-02T11:36:51.999Z</time></trkpt><trkpt lat="46.0755183628181" lon="11.686652621586655"><ele>882.6666666666667</ele><time>2026-05-02T11:36:52.999Z</time></trkpt><trkpt lat="46.075420957423496" lon="11.68666625424476"><ele>881.5</ele><time>2026-05-02T11:36:53.999Z</time></trkpt><trkpt lat="46.07533417825706" lon="11.686680937997927"><ele>880.3333333333334</ele><time>2026-05-02T11:36:54.999Z</time></trkpt><trkpt lat="46.07525806278519" lon="11.686713801310475"><ele>879.1666666666667</ele><time>2026-05-02T11:36:55.999Z</time></trkpt><trkpt lat="46.07519469644892" lon="11.686755702959916"><ele>878.0</ele><time>2026-05-02T11:36:56.999Z</time></trkpt><trkpt lat="46.07507230063149" lon="11.68676579613347"><ele>878.0000000000001</ele><time>2026-05-02T11:36:58.999Z</time></trkpt><trkpt lat="46.07499643109188" lon="11.686728491452428"><ele>878.0</ele><time>2026-05-02T11:36:59.999Z</time></trkpt><trkpt lat="46.07492814643629" lon="11.686668280286911"><ele>878.0</ele><time>2026-05-02T11:37:00.999Z</time></trkpt><trkpt lat="46.07485354855629" lon="11.686621858938041"><ele>878.0</ele><time>2026-05-02T11:37:01.999Z</time></trkpt><trkpt lat="46.074780799419905" lon="11.686606711343277"><ele>878.0000000000001</ele><time>2026-05-02T11:37:02.999Z</time></trkpt><trkpt lat="46.07469572520459" lon="11.686604891050145"><ele>878.0</ele><time>2026-05-02T11:37:03.999Z</time></trkpt><trkpt lat="46.074613316005006" lon="11.686628319553147"><ele>876.5</ele><time>2026-05-02T11:37:04.999Z</time></trkpt><trkpt lat="46.07450757249789" lon="11.686655279674595"><ele>875.0</ele><time>2026-05-02T11:37:05.999Z</time></trkpt><trkpt lat="46.074376359444635" lon="11.686703834105986"><ele>873.5</ele><time>2026-05-02T11:37:06.999Z</time></trkpt><trkpt lat="46.07427402785576" lon="11.686714563258052"><ele>872.0</ele><time>2026-05-02T11:37:07.999Z</time></trkpt><trkpt lat="46.07416242261991" lon="11.686713344746604"><ele>867.3333333333334</ele><time>2026-05-02T11:37:08.999Z</time></trkpt><trkpt lat="46.07407537841298" lon="11.686686911091847"><ele>862.6666666666667</ele><time>2026-05-02T11:37:09.999Z</time></trkpt><trkpt lat="46.07398867128842" lon="11.686666508249873"><ele>858.0</ele><time>2026-05-02T11:37:10.999Z</time></trkpt><trkpt lat="46.073915461486635" lon="11.686669771899401"><ele>853.3333333333333</ele><time>2026-05-02T11:37:11.999Z</time></trkpt><trkpt lat="46.07384955112654" lon="11.686682707719164"><ele>848.6666666666666</ele><time>2026-05-02T11:37:12.999Z</time></trkpt><trkpt lat="46.07377882638112" lon="11.686709611144549"><ele>844.0</ele><time>2026-05-02T11:37:14.999Z</time></trkpt><trkpt lat="46.07367344920019" lon="11.686802406318352"><ele>843.9999999999999</ele><time>2026-05-02T11:37:16.999Z</time></trkpt><trkpt lat="46.07363167633061" lon="11.686878095877802"><ele>844.0</ele><time>2026-05-02T11:37:17.999Z</time></trkpt><trkpt lat="46.073603609767105" lon="11.687068676911773"><ele>844.0</ele><time>2026-05-02T11:37:19.999Z</time></trkpt><trkpt lat="46.07360150899175" lon="11.687180251463154"><ele>844.0</ele><time>2026-05-02T11:37:20.999Z</time></trkpt><trkpt lat="46.07361362385035" lon="11.687292082293377"><ele>843.9999999999999</ele><time>2026-05-02T11:37:21.999Z</time></trkpt><trkpt lat="46.07362600416754" lon="11.687420144773412"><ele>844.0</ele><time>2026-05-02T11:37:22.999Z</time></trkpt><trkpt lat="46.073611232707506" lon="11.68754079133372"><ele>848.6</ele><time>2026-05-02T11:37:23.999Z</time></trkpt><trkpt lat="46.07357995504769" lon="11.68765333290909"><ele>853.2</ele><time>2026-05-02T11:37:24.999Z</time></trkpt><trkpt lat="46.07353879948459" lon="11.687782316080815"><ele>857.8000000000001</ele><time>2026-05-02T11:37:25.998Z</time></trkpt><trkpt lat="46.07347960113047" lon="11.687949959140004"><ele>862.4000000000001</ele><time>2026-05-02T11:37:26.998Z</time></trkpt><trkpt lat="46.07342039728557" lon="11.688100982767756"><ele>867.0</ele><time>2026-05-02T11:37:27.998Z</time></trkpt><trkpt lat="46.07337089181926" lon="11.688221439110526"><ele>869.8333333333334</ele><time>2026-05-02T11:37:28.998Z</time></trkpt><trkpt lat="46.07333364057305" lon="11.688312749697793"><ele>872.6666666666667</ele><time>2026-05-02T11:37:29.998Z</time></trkpt><trkpt lat="46.073251708643134" lon="11.68839763248181"><ele>875.5</ele><time>2026-05-02T11:37:31.998Z</time></trkpt><trkpt lat="46.07318888708734" lon="11.68841580590605"><ele>878.3333333333334</ele><time>2026-05-02T11:37:32.998Z</time></trkpt><trkpt lat="46.07312493646113" lon="11.688406746558794"><ele>881.1666666666667</ele><time>2026-05-02T11:37:33.998Z</time></trkpt><trkpt lat="46.07306293300014" lon="11.688368135384964"><ele>884.0</ele><time>2026-05-02T11:37:34.998Z</time></trkpt><trkpt lat="46.07298263742238" lon="11.688304604299427"><ele>889.5</ele><time>2026-05-02T11:37:35.998Z</time></trkpt><trkpt lat="46.07289753817813" lon="11.688201273965346"><ele>895.0</ele><time>2026-05-02T11:37:36.998Z</time></trkpt><trkpt lat="46.07278026355142" lon="11.688078881777725"><ele>900.5</ele><time>2026-05-02T11:37:37.998Z</time></trkpt><trkpt lat="46.072671646067576" lon="11.68794870355813"><ele>906.0</ele><time>2026-05-02T11:37:38.998Z</time></trkpt><trkpt lat="46.0725921687712" lon="11.687866198067976"><ele>906.0</ele><time>2026-05-02T11:37:39.998Z</time></trkpt><trkpt lat="46.07251338666081" lon="11.68777932295377"><ele>905.9999999999999</ele><time>2026-05-02T11:37:40.998Z</time></trkpt><trkpt lat="46.0724351645243" lon="11.687676020633578"><ele>905.9999999999999</ele><time>2026-05-02T11:37:41.998Z</time></trkpt><trkpt lat="46.07237597288624" lon="11.687596850599933"><ele>906.0</ele><time>2026-05-02T11:37:42.998Z</time></trkpt><trkpt lat="46.072328371157134" lon="11.687525863705126"><ele>906.0</ele><time>2026-05-02T11:37:43.998Z</time></trkpt><trkpt lat="46.07224573571708" lon="11.68741403350361"><ele>898.0</ele><time>2026-05-02T11:37:45.998Z</time></trkpt><trkpt lat="46.07214152903838" lon="11.687381788275944"><ele>889.9999999999999</ele><time>2026-05-02T11:37:47.998Z</time></trkpt><trkpt lat="46.072034997371716" lon="11.687426363767345"><ele>881.9999999999999</ele><time>2026-05-02T11:37:49.998Z</time></trkpt><trkpt lat="46.07195029290175" lon="11.687469853190345"><ele>874.0</ele><time>2026-05-02T11:37:50.998Z</time></trkpt><trkpt lat="46.071856153805335" lon="11.687540783294416"><ele>866.0</ele><time>2026-05-02T11:37:51.998Z</time></trkpt><trkpt lat="46.071763636073456" lon="11.687610036569575"><ele>866.0</ele><time>2026-05-02T11:37:52.998Z</time></trkpt><trkpt lat="46.07168460572712" lon="11.68765640753335"><ele>865.9999999999999</ele><time>2026-05-02T11:37:53.998Z</time></trkpt><trkpt lat="46.0715828287856" lon="11.687711841963676"><ele>865.9999999999999</ele><time>2026-05-02T11:37:54.998Z</time></trkpt><trkpt lat="46.07146344721649" lon="11.68775844671593"><ele>866.0</ele><time>2026-05-02T11:37:55.998Z</time></trkpt><trkpt lat="46.071337755880194" lon="11.687775167783213"><ele>866.0</ele><time>2026-05-02T11:37:56.998Z</time></trkpt><trkpt lat="46.07124096979323" lon="11.687787501551426"><ele>866.3333333333334</ele><time>2026-05-02T11:37:57.998Z</time></trkpt><trkpt lat="46.07115993453014" lon="11.687799242954487"><ele>866.6666666666667</ele><time>2026-05-02T11:37:58.998Z</time></trkpt><trkpt lat="46.07108538062314" lon="11.687827118134946"><ele>867.0</ele><time>2026-05-02T11:37:59.998Z</time></trkpt><trkpt lat="46.071025080847654" lon="11.687889389375773"><ele>867.3333333333333</ele><time>2026-05-02T11:38:00.998Z</time></trkpt><trkpt lat="46.07096598430325" lon="11.687987263953604"><ele>867.6666666666666</ele><time>2026-05-02T11:38:01.998Z</time></trkpt><trkpt lat="46.07089474116916" lon="11.688069570197035"><ele>868.0</ele><time>2026-05-02T11:38:02.998Z</time></trkpt><trkpt lat="46.07083644193656" lon="11.688186003261654"><ele>868.5999999999999</ele><time>2026-05-02T11:38:03.998Z</time></trkpt><trkpt lat="46.07076160799599" lon="11.68831210737695"><ele>869.1999999999999</ele><time>2026-05-02T11:38:04.998Z</time></trkpt><trkpt lat="46.070680523234124" lon="11.688442654777557"><ele>869.8</ele><time>2026-05-02T11:38:05.998Z</time></trkpt><trkpt lat="46.070607854018036" lon="11.688557481758771"><ele>870.4</ele><time>2026-05-02T11:38:06.998Z</time></trkpt><trkpt lat="46.07054316808446" lon="11.688661587906624"><ele>871.0</ele><time>2026-05-02T11:38:07.998Z</time></trkpt><trkpt lat="46.07049258191104" lon="11.688778851407372"><ele>870.9999999999999</ele><time>2026-05-02T11:38:08.998Z</time></trkpt><trkpt lat="46.070456026288916" lon="11.688903282037751"><ele>871.0</ele><time>2026-05-02T11:38:09.998Z</time></trkpt><trkpt lat="46.07043258456451" lon="11.688998194626464"><ele>871.0</ele><time>2026-05-02T11:38:10.998Z</time></trkpt><trkpt lat="46.0704032376579" lon="11.689154091261177"><ele>871.0</ele><time>2026-05-02T11:38:12.998Z</time></trkpt><trkpt lat="46.070318802897404" lon="11.689210967406689"><ele>870.9999999999999</ele><time>2026-05-02T11:38:14.997Z</time></trkpt><trkpt lat="46.0702428540897" lon="11.689211812241824"><ele>871.0</ele><time>2026-05-02T11:38:15.997Z</time></trkpt><trkpt lat="46.07017716520333" lon="11.689163241494304"><ele>870.9999999999999</ele><time>2026-05-02T11:38:16.997Z</time></trkpt><trkpt lat="46.07012440185619" lon="11.68911374334863"><ele>871.0</ele><time>2026-05-02T11:38:17.997Z</time></trkpt><trkpt lat="46.070044404637045" lon="11.689083503471547"><ele>871.0</ele><time>2026-05-02T11:38:18.997Z</time></trkpt><trkpt lat="46.06996257620499" lon="11.689095649343828"><ele>871.0</ele><time>2026-05-02T11:38:19.997Z</time></trkpt><trkpt lat="46.06988615912269" lon="11.689140324877105"><ele>870.9999999999999</ele><time>2026-05-02T11:38:20.999Z</time></trkpt><trkpt lat="46.069802884519945" lon="11.68912376585912"><ele>871.0</ele><time>2026-05-02T11:38:21.999Z</time></trkpt><trkpt lat="46.06971427806645" lon="11.689079600912612"><ele>869.6666666666666</ele><time>2026-05-02T11:38:22.999Z</time></trkpt><trkpt lat="46.06963784304236" lon="11.689039417024109"><ele>868.3333333333333</ele><time>2026-05-02T11:38:23.999Z</time></trkpt><trkpt lat="46.069577295515806" lon="11.689006071958232"><ele>867.0</ele><time>2026-05-02T11:38:24.999Z</time></trkpt><trkpt lat="46.069474937457564" lon="11.689021875218945"><ele>865.6666666666667</ele><time>2026-05-02T11:38:26.999Z</time></trkpt><trkpt lat="46.06941551309046" lon="11.68906089331786"><ele>864.3333333333334</ele><time>2026-05-02T11:38:27.999Z</time></trkpt><trkpt lat="46.06934668325654" lon="11.689123860627346"><ele>863.0</ele><time>2026-05-02T11:38:28.999Z</time></trkpt><trkpt lat="46.06929602767512" lon="11.689180875125334"><ele>863.0</ele><time>2026-05-02T11:38:29.999Z</time></trkpt><trkpt lat="46.06919202469325" lon="11.689281552942933"><ele>863.0</ele><time>2026-05-02T11:38:31.999Z</time></trkpt><trkpt lat="46.06912636922834" lon="11.689302767706035"><ele>863.0</ele><time>2026-05-02T11:38:32.999Z</time></trkpt><trkpt lat="46.06904620413568" lon="11.689287654451993"><ele>863.0</ele><time>2026-05-02T11:38:33.999Z</time></trkpt><trkpt lat="46.06896651860528" lon="11.689245194164098"><ele>863.0</ele><time>2026-05-02T11:38:34.999Z</time></trkpt><trkpt lat="46.0688774313347" lon="11.689196805350079"><ele>864.4</ele><time>2026-05-02T11:38:35.999Z</time></trkpt><trkpt lat="46.06877662113558" lon="11.689160798736177"><ele>865.8</ele><time>2026-05-02T11:38:36.999Z</time></trkpt><trkpt lat="46.068667589235794" lon="11.689126482554355"><ele>867.2</ele><time>2026-05-02T11:38:37.999Z</time></trkpt><trkpt lat="46.06856676584586" lon="11.689114390055552"><ele>868.6</ele><time>2026-05-02T11:38:38.999Z</time></trkpt><trkpt lat="46.06848340109589" lon="11.689106564227854"><ele>870.0</ele><time>2026-05-02T11:38:39.999Z</time></trkpt><trkpt lat="46.068378133729844" lon="11.689092600518963"><ele>870.0</ele><time>2026-05-02T11:38:40.999Z</time></trkpt><trkpt lat="46.06828225561916" lon="11.689085081333635"><ele>870.0</ele><time>2026-05-02T11:38:41.999Z</time></trkpt><trkpt lat="46.068174470711895" lon="11.689089837697153"><ele>870.0</ele><time>2026-05-02T11:38:42.999Z</time></trkpt><trkpt lat="46.06804400860095" lon="11.689088622067793"><ele>870.0</ele><time>2026-05-02T11:38:43.999Z</time></trkpt><trkpt lat="46.06794697385894" lon="11.689109912194064"><ele>870.0</ele><time>2026-05-02T11:38:44.999Z</time></trkpt><trkpt lat="46.067853909123144" lon="11.689115538085113"><ele>869.1666666666666</ele><time>2026-05-02T11:38:45.999Z</time></trkpt><trkpt lat="46.06775652661603" lon="11.689104902674503"><ele>868.3333333333333</ele><time>2026-05-02T11:38:46.999Z</time></trkpt><trkpt lat="46.067686055408494" lon="11.689098974021388"><ele>867.5</ele><time>2026-05-02T11:38:47.999Z</time></trkpt><trkpt lat="46.06758695341827" lon="11.689084175343499"><ele>866.6666666666666</ele><time>2026-05-02T11:38:48.999Z</time></trkpt><trkpt lat="46.06751062385787" lon="11.689062686869182"><ele>865.8333333333333</ele><time>2026-05-02T11:38:49.999Z</time></trkpt><trkpt lat="46.06744802661399" lon="11.68904923255329"><ele>865.0</ele><time>2026-05-02T11:38:50.999Z</time></trkpt><trkpt lat="46.067334853025024" lon="11.689123315323625"><ele>867.4</ele><time>2026-05-02T11:38:52.999Z</time></trkpt><trkpt lat="46.06728103824767" lon="11.689190786321715"><ele>869.8</ele><time>2026-05-02T11:38:53.999Z</time></trkpt><trkpt lat="46.06722775509759" lon="11.68930071915353"><ele>872.2</ele><time>2026-05-02T11:38:54.999Z</time></trkpt><trkpt lat="46.06718492325963" lon="11.689396725965153"><ele>874.6</ele><time>2026-05-02T11:38:55.999Z</time></trkpt><trkpt lat="46.067113059426426" lon="11.689516912012857"><ele>877.0</ele><time>2026-05-02T11:38:57.999Z</time></trkpt><trkpt lat="46.06700993562896" lon="11.689499548577786"><ele>877.0</ele><time>2026-05-02T11:38:59.999Z</time></trkpt><trkpt lat="46.0669482774749" lon="11.689438148346387"><ele>877.0</ele><time>2026-05-02T11:39:00.999Z</time></trkpt><trkpt lat="46.0668939362521" lon="11.689326646927508"><ele>877.0</ele><time>2026-05-02T11:39:01.999Z</time></trkpt><trkpt lat="46.06685646325792" lon="11.689187488828516"><ele>877.0</ele><time>2026-05-02T11:39:02.999Z</time></trkpt><trkpt lat="46.06682370272894" lon="11.689043673631264"><ele>877.0</ele><time>2026-05-02T11:39:03.999Z</time></trkpt><trkpt lat="46.066763458408275" lon="11.68890852835122"><ele>877.0</ele><time>2026-05-02T11:39:04.999Z</time></trkpt><trkpt lat="46.06668759570546" lon="11.688755209207448"><ele>877.0</ele><time>2026-05-02T11:39:05.999Z</time></trkpt><trkpt lat="46.06661287374953" lon="11.688640101179015"><ele>877.0</ele><time>2026-05-02T11:39:06.999Z</time></trkpt><trkpt lat="46.06655406106558" lon="11.688547008329845"><ele>877.0</ele><time>2026-05-02T11:39:07.999Z</time></trkpt><trkpt lat="46.06650293311362" lon="11.688481747939905"><ele>877.0</ele><time>2026-05-02T11:39:08.999Z</time></trkpt><trkpt lat="46.06643332322538" lon="11.688357560943045"><ele>870.4999999999999</ele><time>2026-05-02T11:39:10.999Z</time></trkpt><trkpt lat="46.06637066330032" lon="11.688322241921405"><ele>864.0</ele><time>2026-05-02T11:39:11.999Z</time></trkpt><trkpt lat="46.06624853472821" lon="11.688366841649394"><ele>857.5</ele><time>2026-05-02T11:39:13.999Z</time></trkpt><trkpt lat="46.06616794500112" lon="11.688427267487308"><ele>851.0</ele><time>2026-05-02T11:39:14.999Z</time></trkpt><trkpt lat="46.06609325793308" lon="11.688481231554515"><ele>844.4999999999999</ele><time>2026-05-02T11:39:15.999Z</time></trkpt><trkpt lat="46.06602130579235" lon="11.688514898292754"><ele>838.0</ele><time>2026-05-02T11:39:16.999Z</time></trkpt><trkpt lat="46.065943555168765" lon="11.688530696764722"><ele>837.9999999999999</ele><time>2026-05-02T11:39:17.999Z</time></trkpt><trkpt lat="46.065859290609126" lon="11.688520885662957"><ele>838.0</ele><time>2026-05-02T11:39:18.999Z</time></trkpt><trkpt lat="46.06578387204687" lon="11.68850971854673"><ele>838.0</ele><time>2026-05-02T11:39:19.999Z</time></trkpt><trkpt lat="46.065661733879814" lon="11.68849882536799"><ele>838.0</ele><time>2026-05-02T11:39:21.999Z</time></trkpt><trkpt lat="46.0655727677496" lon="11.688545816984641"><ele>837.9999999999999</ele><time>2026-05-02T11:39:23.999Z</time></trkpt><trkpt lat="46.06553220635599" lon="11.688621128702298"><ele>838.0</ele><time>2026-05-02T11:39:24.999Z</time></trkpt><trkpt lat="46.06553062818443" lon="11.688802603529963"><ele>837.8333333333333</ele><time>2026-05-02T11:39:26.999Z</time></trkpt><trkpt lat="46.06555390417367" lon="11.688898463035773"><ele>837.6666666666666</ele><time>2026-05-02T11:39:27.999Z</time></trkpt><trkpt lat="46.06553332640205" lon="11.68903216724983"><ele>837.5</ele><time>2026-05-02T11:39:28.999Z</time></trkpt><trkpt lat="46.0655160018499" lon="11.689143497361536"><ele>837.3333333333333</ele><time>2026-05-02T11:39:29.999Z</time></trkpt><trkpt lat="46.06545128564018" lon="11.689199871938083"><ele>837.1666666666666</ele><time>2026-05-02T11:39:30.999Z</time></trkpt><trkpt lat="46.06537657061954" lon="11.689262686810372"><ele>837.0</ele><time>2026-05-02T11:39:31.999Z</time></trkpt><trkpt lat="46.06530819256878" lon="11.68933332415232"><ele>837.0</ele><time>2026-05-02T11:39:32.999Z</time></trkpt><trkpt lat="46.06525606230296" lon="11.6893854628218"><ele>837.0</ele><time>2026-05-02T11:39:33.999Z</time></trkpt><trkpt lat="46.06520841722422" lon="11.68953636047498"><ele>837.0</ele><time>2026-05-02T11:39:34.999Z</time></trkpt><trkpt lat="46.06514731451027" lon="11.68956737454331"><ele>837.0</ele><time>2026-05-02T11:39:35.999Z</time></trkpt><trkpt lat="46.06508780611352" lon="11.689614296122054"><ele>837.0</ele><time>2026-05-02T11:39:36.999Z</time></trkpt><trkpt lat="46.06503245195868" lon="11.689757657398836"><ele>837.0</ele><time>2026-05-02T11:39:38.999Z</time></trkpt><trkpt lat="46.06502836365553" lon="11.689877516317996"><ele>839.6666666666666</ele><time>2026-05-02T11:39:39.999Z</time></trkpt><trkpt lat="46.06503002164092" lon="11.69003217791671"><ele>842.3333333333333</ele><time>2026-05-02T11:39:40.998Z</time></trkpt><trkpt lat="46.06502666028225" lon="11.690184888778438"><ele>845.0</ele><time>2026-05-02T11:39:41.998Z</time></trkpt><trkpt lat="46.06501443424038" lon="11.69030287304514"><ele>847.6666666666666</ele><time>2026-05-02T11:39:42.998Z</time></trkpt><trkpt lat="46.06499323234196" lon="11.690408912604614"><ele>850.3333333333333</ele><time>2026-05-02T11:39:43.998Z</time></trkpt><trkpt lat="46.06496115070452" lon="11.69050781204836"><ele>853.0</ele><time>2026-05-02T11:39:44.998Z</time></trkpt><trkpt lat="46.06490631922813" lon="11.690592259630902"><ele>846.5999999999999</ele><time>2026-05-02T11:39:45.998Z</time></trkpt><trkpt lat="46.064827690849526" lon="11.690679623831791"><ele>840.1999999999999</ele><time>2026-05-02T11:39:46.998Z</time></trkpt><trkpt lat="46.064732166161924" lon="11.690757603080092"><ele>833.8</ele><time>2026-05-02T11:39:47.998Z</time></trkpt><trkpt lat="46.06464661336957" lon="11.690823719395677"><ele>827.4</ele><time>2026-05-02T11:39:48.998Z</time></trkpt><trkpt lat="46.064575876025415" lon="11.690916505417524"><ele>821.0</ele><time>2026-05-02T11:39:49.998Z</time></trkpt><trkpt lat="46.064502797682465" lon="11.691034448168796"><ele>821.0</ele><time>2026-05-02T11:39:50.998Z</time></trkpt><trkpt lat="46.064440116338055" lon="11.691143853102478"><ele>821.0</ele><time>2026-05-02T11:39:51.998Z</time></trkpt><trkpt lat="46.064366679598976" lon="11.691252612142721"><ele>821.0</ele><time>2026-05-02T11:39:52.998Z</time></trkpt><trkpt lat="46.064304794345965" lon="11.691340795904487"><ele>821.0</ele><time>2026-05-02T11:39:53.998Z</time></trkpt><trkpt lat="46.06423726951342" lon="11.691453629436007"><ele>821.0</ele><time>2026-05-02T11:39:55.998Z</time></trkpt><trkpt lat="46.064185081462746" lon="11.691591127467971"><ele>821.0000000000001</ele><time>2026-05-02T11:39:57.998Z</time></trkpt><trkpt lat="46.064142378765354" lon="11.69166429711016"><ele>821.0</ele><time>2026-05-02T11:39:58.998Z</time></trkpt><trkpt lat="46.06408395811055" lon="11.691720245400168"><ele>821.0</ele><time>2026-05-02T11:39:59.998Z</time></trkpt><trkpt lat="46.06400379942334" lon="11.691779267885524"><ele>821.0</ele><time>2026-05-02T11:40:00.998Z</time></trkpt><trkpt lat="46.06391788530498" lon="11.691828673024075"><ele>821.0000000000001</ele><time>2026-05-02T11:40:01.998Z</time></trkpt><trkpt lat="46.06385503700295" lon="11.691846104270462"><ele>821.0</ele><time>2026-05-02T11:40:02.998Z</time></trkpt><trkpt lat="46.06374937951337" lon="11.691883024091211"><ele>821.0</ele><time>2026-05-02T11:40:04.998Z</time></trkpt><trkpt lat="46.063713584625" lon="11.692001580178488"><ele>821.0</ele><time>2026-05-02T11:40:06.998Z</time></trkpt><trkpt lat="46.06374643050914" lon="11.692133381870518"><ele>821.0</ele><time>2026-05-02T11:40:08.998Z</time></trkpt><trkpt lat="46.06378662205458" lon="11.69222972240978"><ele>821.0</ele><time>2026-05-02T11:40:09.998Z</time></trkpt><trkpt lat="46.06382508596705" lon="11.692351589611462"><ele>821.0</ele><time>2026-05-02T11:40:10.998Z</time></trkpt><trkpt lat="46.063870978660816" lon="11.692482543784273"><ele>821.0</ele><time>2026-05-02T11:40:11.998Z</time></trkpt><trkpt lat="46.06391745560564" lon="11.692614069110547"><ele>821.0</ele><time>2026-05-02T11:40:12.998Z</time></trkpt><trkpt lat="46.0639624902128" lon="11.692736776540293"><ele>821.0</ele><time>2026-05-02T11:40:13.998Z</time></trkpt><trkpt lat="46.06400863644739" lon="11.692851633137314"><ele>821.0</ele><time>2026-05-02T11:40:14.998Z</time></trkpt><trkpt lat="46.0640388810859" lon="11.692950856176509"><ele>821.0</ele><time>2026-05-02T11:40:15.998Z</time></trkpt><trkpt lat="46.064090063475" lon="11.69307136549869"><ele>821.0</ele><time>2026-05-02T11:40:16.998Z</time></trkpt><trkpt lat="46.064158032892195" lon="11.693191336891"><ele>821.0</ele><time>2026-05-02T11:40:17.998Z</time></trkpt><trkpt lat="46.0642102109253" lon="11.693263220813671"><ele>821.0</ele><time>2026-05-02T11:40:18.998Z</time></trkpt><trkpt lat="46.0642519510006" lon="11.693363608179244"><ele>821.0</ele><time>2026-05-02T11:40:19.998Z</time></trkpt><trkpt lat="46.064285240623946" lon="11.6935375944552"><ele>821.0</ele><time>2026-05-02T11:40:21.998Z</time></trkpt><trkpt lat="46.064277963834336" lon="11.693659532130306"><ele>821.0</ele><time>2026-05-02T11:40:22.998Z</time></trkpt><trkpt lat="46.06424808092924" lon="11.69378619163779"><ele>821.0</ele><time>2026-05-02T11:40:23.998Z</time></trkpt><trkpt lat="46.06423066424534" lon="11.693929437904057"><ele>821.0</ele><time>2026-05-02T11:40:24.998Z</time></trkpt><trkpt lat="46.06420940669578" lon="11.694062628802406"><ele>821.0</ele><time>2026-05-02T11:40:25.998Z</time></trkpt><trkpt lat="46.06419474627609" lon="11.694187200250202"><ele>821.0</ele><time>2026-05-02T11:40:27Z</time></trkpt><trkpt lat="46.064183951199254" lon="11.694314048743834"><ele>827.3333333333334</ele><time>2026-05-02T11:40:28Z</time></trkpt><trkpt lat="46.064184154360326" lon="11.694423233471694"><ele>833.6666666666667</ele><time>2026-05-02T11:40:29Z</time></trkpt><trkpt lat="46.06418478674888" lon="11.69453746963125"><ele>840.0</ele><time>2026-05-02T11:40:30Z</time></trkpt><trkpt lat="46.06418315862486" lon="11.69465215880699"><ele>846.3333333333333</ele><time>2026-05-02T11:40:31Z</time></trkpt><trkpt lat="46.06418774258872" lon="11.694759319666963"><ele>852.6666666666666</ele><time>2026-05-02T11:40:32Z</time></trkpt><trkpt lat="46.06419836156782" lon="11.69486164615644"><ele>859.0</ele><time>2026-05-02T11:40:33Z</time></trkpt><trkpt lat="46.06421915714439" lon="11.69496022136317"><ele>858.9999999999999</ele><time>2026-05-02T11:40:34Z</time></trkpt><trkpt lat="46.064252691100656" lon="11.695056218373294"><ele>859.0</ele><time>2026-05-02T11:40:35Z</time></trkpt><trkpt lat="46.064305063365914" lon="11.69515700885443"><ele>859.0</ele><time>2026-05-02T11:40:36Z</time></trkpt><trkpt lat="46.0643762166378" lon="11.695241614570199"><ele>859.0</ele><time>2026-05-02T11:40:37Z</time></trkpt><trkpt lat="46.06445487062245" lon="11.695318945820302"><ele>858.9999999999999</ele><time>2026-05-02T11:40:38Z</time></trkpt><trkpt lat="46.06453367693082" lon="11.695386489683907"><ele>859.0</ele><time>2026-05-02T11:40:39Z</time></trkpt><trkpt lat="46.06459637216337" lon="11.69544693664821"><ele>855.8000000000001</ele><time>2026-05-02T11:40:40Z</time></trkpt><trkpt lat="46.06468068174532" lon="11.695560581144985"><ele>852.6000000000001</ele><time>2026-05-02T11:40:42Z</time></trkpt><trkpt lat="46.06473225400994" lon="11.695656856139184"><ele>849.4</ele><time>2026-05-02T11:40:43Z</time></trkpt><trkpt lat="46.064774966747315" lon="11.695792203447615"><ele>846.2</ele><time>2026-05-02T11:40:44Z</time></trkpt><trkpt lat="46.06479871945329" lon="11.695949706493309"><ele>843.0</ele><time>2026-05-02T11:40:45Z</time></trkpt><trkpt lat="46.06478869848422" lon="11.69610303459615"><ele>841.5999999999999</ele><time>2026-05-02T11:40:46Z</time></trkpt><trkpt lat="46.06475405643051" lon="11.696267092003811"><ele>840.1999999999999</ele><time>2026-05-02T11:40:47Z</time></trkpt><trkpt lat="46.06471545605565" lon="11.696418335349806"><ele>838.8</ele><time>2026-05-02T11:40:48Z</time></trkpt><trkpt lat="46.06468053752755" lon="11.696552130744612"><ele>837.4</ele><time>2026-05-02T11:40:49Z</time></trkpt><trkpt lat="46.064649067684265" lon="11.696646751321753"><ele>836.0</ele><time>2026-05-02T11:40:49.999Z</time></trkpt><trkpt lat="46.064608115877554" lon="11.696807993194865"><ele>836.0</ele><time>2026-05-02T11:40:51.999Z</time></trkpt><trkpt lat="46.06461431928017" lon="11.696904796499458"><ele>836.0</ele><time>2026-05-02T11:40:52.999Z</time></trkpt><trkpt lat="46.064646037432006" lon="11.69701627637198"><ele>836.0</ele><time>2026-05-02T11:40:53.999Z</time></trkpt><trkpt lat="46.06471868329095" lon="11.697145420635552"><ele>836.0</ele><time>2026-05-02T11:40:54.999Z</time></trkpt><trkpt lat="46.064806815234334" lon="11.697287164368166"><ele>836.0</ele><time>2026-05-02T11:40:55.999Z</time></trkpt><trkpt lat="46.064899323122845" lon="11.697434043480252"><ele>841.5</ele><time>2026-05-02T11:40:56.999Z</time></trkpt><trkpt lat="46.064976935972254" lon="11.697576464012617"><ele>847.0</ele><time>2026-05-02T11:40:57.999Z</time></trkpt><trkpt lat="46.065060295218686" lon="11.697736487240046"><ele>852.5</ele><time>2026-05-02T11:40:58.999Z</time></trkpt><trkpt lat="46.0651337344774" lon="11.6978919132391"><ele>858.0</ele><time>2026-05-02T11:40:59.999Z</time></trkpt><trkpt lat="46.06518075372593" lon="11.69801885638448"><ele>858.0</ele><time>2026-05-02T11:41:00.999Z</time></trkpt><trkpt lat="46.06520018860033" lon="11.698130316696048"><ele>858.0</ele><time>2026-05-02T11:41:01.999Z</time></trkpt><trkpt lat="46.06518941831917" lon="11.698268095893237"><ele>858.0</ele><time>2026-05-02T11:41:02.999Z</time></trkpt><trkpt lat="46.06514297961446" lon="11.69842532413561"><ele>858.0</ele><time>2026-05-02T11:41:03.999Z</time></trkpt><trkpt lat="46.06506894004321" lon="11.698545806419869"><ele>858.0</ele><time>2026-05-02T11:41:04.999Z</time></trkpt><trkpt lat="46.06497972686539" lon="11.698651416815363"><ele>851.2</ele><time>2026-05-02T11:41:05.999Z</time></trkpt><trkpt lat="46.0649059324443" lon="11.69874488126354"><ele>844.4</ele><time>2026-05-02T11:41:06.999Z</time></trkpt><trkpt lat="46.06485690527562" lon="11.698866606034283"><ele>837.6</ele><time>2026-05-02T11:41:07.999Z</time></trkpt><trkpt lat="46.06481548285561" lon="11.699034455507972"><ele>830.8000000000001</ele><time>2026-05-02T11:41:08.999Z</time></trkpt><trkpt lat="46.064776463068284" lon="11.699193900147197"><ele>824.0</ele><time>2026-05-02T11:41:09.999Z</time></trkpt><trkpt lat="46.06471665509751" lon="11.69931750015761"><ele>831.25</ele><time>2026-05-02T11:41:10.999Z</time></trkpt><trkpt lat="46.06463031791023" lon="11.699435933679478"><ele>838.5</ele><time>2026-05-02T11:41:11.999Z</time></trkpt><trkpt lat="46.064538595293" lon="11.699540082622535"><ele>845.75</ele><time>2026-05-02T11:41:12.999Z</time></trkpt><trkpt lat="46.06442760091326" lon="11.699612419954411"><ele>853.0</ele><time>2026-05-02T11:41:13.999Z</time></trkpt><trkpt lat="46.0643382755445" lon="11.699675948811683"><ele>853.0</ele><time>2026-05-02T11:41:14.999Z</time></trkpt><trkpt lat="46.06426465814627" lon="11.69974787761206"><ele>853.0</ele><time>2026-05-02T11:41:15.999Z</time></trkpt><trkpt lat="46.06420815042478" lon="11.699845991471332"><ele>853.0</ele><time>2026-05-02T11:41:16.999Z</time></trkpt><trkpt lat="46.06416360001159" lon="11.699951772689468"><ele>853.0</ele><time>2026-05-02T11:41:17.999Z</time></trkpt><trkpt lat="46.06413047958549" lon="11.700080320734775"><ele>853.0</ele><time>2026-05-02T11:41:18.999Z</time></trkpt><trkpt lat="46.06410655322434" lon="11.700213376030844"><ele>846.8</ele><time>2026-05-02T11:41:19.999Z</time></trkpt><trkpt lat="46.064092033470196" lon="11.70034345292945"><ele>840.5999999999999</ele><time>2026-05-02T11:41:20.999Z</time></trkpt><trkpt lat="46.0640776785168" lon="11.700474760996384"><ele>834.4000000000001</ele><time>2026-05-02T11:41:21.999Z</time></trkpt><trkpt lat="46.06404839314754" lon="11.70061220966946"><ele>828.2</ele><time>2026-05-02T11:41:22.999Z</time></trkpt><trkpt lat="46.064008034616506" lon="11.70074967576143"><ele>822.0</ele><time>2026-05-02T11:41:23.999Z</time></trkpt><trkpt lat="46.06396426450954" lon="11.700885489311046"><ele>822.0</ele><time>2026-05-02T11:41:24.999Z</time></trkpt><trkpt lat="46.06391613506685" lon="11.7009869225141"><ele>822.0</ele><time>2026-05-02T11:41:25.999Z</time></trkpt><trkpt lat="46.06388916073058" lon="11.701069850245146"><ele>822.0</ele><time>2026-05-02T11:41:26.999Z</time></trkpt><trkpt lat="46.063884733217655" lon="11.701161284205273"><ele>822.0</ele><time>2026-05-02T11:41:27.999Z</time></trkpt><trkpt lat="46.063914761208785" lon="11.701282503684892"><ele>822.0</ele><time>2026-05-02T11:41:28.999Z</time></trkpt><trkpt lat="46.06396179080621" lon="11.701430453535998"><ele>822.0</ele><time>2026-05-02T11:41:29.999Z</time></trkpt><trkpt lat="46.064017326198524" lon="11.701580593694596"><ele>822.75</ele><time>2026-05-02T11:41:30.999Z</time></trkpt><trkpt lat="46.06404919356248" lon="11.701737374354908"><ele>823.5</ele><time>2026-05-02T11:41:31.999Z</time></trkpt><trkpt lat="46.06408090678027" lon="11.701938475766068"><ele>824.25</ele><time>2026-05-02T11:41:32.999Z</time></trkpt><trkpt lat="46.06410480746841" lon="11.702167327722705"><ele>825.0</ele><time>2026-05-02T11:41:33.999Z</time></trkpt><trkpt lat="46.06412859491381" lon="11.702372269309466"><ele>837.25</ele><time>2026-05-02T11:41:34.999Z</time></trkpt><trkpt lat="46.06414767211547" lon="11.702544579539452"><ele>849.5</ele><time>2026-05-02T11:41:35.999Z</time></trkpt><trkpt lat="46.06416211329384" lon="11.70270486743486"><ele>861.75</ele><time>2026-05-02T11:41:36.999Z</time></trkpt><trkpt lat="46.06415559329742" lon="11.702877930547935"><ele>874.0</ele><time>2026-05-02T11:41:37.999Z</time></trkpt><trkpt lat="46.06412499627135" lon="11.703061170863297"><ele>870.0</ele><time>2026-05-02T11:41:38.999Z</time></trkpt><trkpt lat="46.064069610329206" lon="11.703237780766537"><ele>866.0</ele><time>2026-05-02T11:41:39.999Z</time></trkpt><trkpt lat="46.06400544756639" lon="11.703380395955456"><ele>862.0</ele><time>2026-05-02T11:41:40.999Z</time></trkpt><trkpt lat="46.06396035853739" lon="11.703503820842107"><ele>858.0</ele><time>2026-05-02T11:41:41.999Z</time></trkpt><trkpt lat="46.06394403572875" lon="11.703659479714743"><ele>858.0</ele><time>2026-05-02T11:41:42.999Z</time></trkpt><trkpt lat="46.06395155344524" lon="11.703847206846286"><ele>858.0</ele><time>2026-05-02T11:41:43.999Z</time></trkpt><trkpt lat="46.063961664150625" lon="11.704021449381539"><ele>858.0</ele><time>2026-05-02T11:41:44.999Z</time></trkpt><trkpt lat="46.063976649995226" lon="11.704176246248082"><ele>858.0</ele><time>2026-05-02T11:41:45.999Z</time></trkpt><trkpt lat="46.0639863882213" lon="11.704330820348755"><ele>861.2</ele><time>2026-05-02T11:41:46.999Z</time></trkpt><trkpt lat="46.063996872396" lon="11.70447529452324"><ele>864.4</ele><time>2026-05-02T11:41:47.999Z</time></trkpt><trkpt lat="46.0640058972474" lon="11.704603257696244"><ele>867.6000000000001</ele><time>2026-05-02T11:41:48.999Z</time></trkpt><trkpt lat="46.064013647837285" lon="11.704731337392221"><ele>870.8000000000001</ele><time>2026-05-02T11:41:49.999Z</time></trkpt><trkpt lat="46.06402115302172" lon="11.704862651015327"><ele>874.0</ele><time>2026-05-02T11:41:50.998Z</time></trkpt><trkpt lat="46.064025663436375" lon="11.704993221303253"><ele>874.0</ele><time>2026-05-02T11:41:51.998Z</time></trkpt><trkpt lat="46.06400959616181" lon="11.705136788285246"><ele>874.0000000000001</ele><time>2026-05-02T11:41:52.998Z</time></trkpt><trkpt lat="46.06396410820612" lon="11.705265117394912"><ele>874.0000000000001</ele><time>2026-05-02T11:41:53.998Z</time></trkpt><trkpt lat="46.063913696173735" lon="11.70538585540858"><ele>874.0</ele><time>2026-05-02T11:41:54.998Z</time></trkpt><trkpt lat="46.06385815678059" lon="11.705510932305739"><ele>874.0</ele><time>2026-05-02T11:41:55.998Z</time></trkpt><trkpt lat="46.06379164658015" lon="11.705627405023842"><ele>875.5</ele><time>2026-05-02T11:41:56.998Z</time></trkpt><trkpt lat="46.06369461172206" lon="11.70574472068794"><ele>877.0</ele><time>2026-05-02T11:41:57.998Z</time></trkpt><trkpt lat="46.06358289483959" lon="11.705846358756826"><ele>878.5</ele><time>2026-05-02T11:41:58.998Z</time></trkpt><trkpt lat="46.06346046944299" lon="11.705951223854218"><ele>880.0</ele><time>2026-05-02T11:41:59.998Z</time></trkpt><trkpt lat="46.063358753346435" lon="11.706038675818146"><ele>878.8</ele><time>2026-05-02T11:42:00.998Z</time></trkpt><trkpt lat="46.063270223015365" lon="11.70610992061288"><ele>877.6</ele><time>2026-05-02T11:42:01.998Z</time></trkpt><trkpt lat="46.063179329240626" lon="11.706198038760675"><ele>876.4000000000001</ele><time>2026-05-02T11:42:02.998Z</time></trkpt><trkpt lat="46.06309116548704" lon="11.706263631541912"><ele>875.2</ele><time>2026-05-02T11:42:03.998Z</time></trkpt><trkpt lat="46.06299876638577" lon="11.706313070411268"><ele>874.0</ele><time>2026-05-02T11:42:04.998Z</time></trkpt><trkpt lat="46.06289766867789" lon="11.706339297276882"><ele>873.9999999999999</ele><time>2026-05-02T11:42:05.998Z</time></trkpt><trkpt lat="46.06279132779411" lon="11.706322559389058"><ele>874.0</ele><time>2026-05-02T11:42:06.998Z</time></trkpt><trkpt lat="46.06270519108032" lon="11.706288340272735"><ele>874.0</ele><time>2026-05-02T11:42:07.998Z</time></trkpt><trkpt lat="46.06263752807393" lon="11.706300348746684"><ele>874.0</ele><time>2026-05-02T11:42:08.998Z</time></trkpt><trkpt lat="46.06257348289242" lon="11.706321189842162"><ele>873.9999999999999</ele><time>2026-05-02T11:42:09.998Z</time></trkpt><trkpt lat="46.06252156110991" lon="11.706377319759913"><ele>874.0</ele><time>2026-05-02T11:42:10.998Z</time></trkpt><trkpt lat="46.06248220390993" lon="11.70647534665585"><ele>874.0</ele><time>2026-05-02T11:42:11.998Z</time></trkpt><trkpt lat="46.0624680264162" lon="11.70660750328689"><ele>874.0000000000001</ele><time>2026-05-02T11:42:12.998Z</time></trkpt><trkpt lat="46.06247567969216" lon="11.706760841394876"><ele>874.0000000000001</ele><time>2026-05-02T11:42:13.998Z</time></trkpt><trkpt lat="46.06247203832519" lon="11.706936126640596"><ele>874.0</ele><time>2026-05-02T11:42:14.998Z</time></trkpt><trkpt lat="46.06246824281604" lon="11.707103762769554"><ele>874.0</ele><time>2026-05-02T11:42:15.998Z</time></trkpt><trkpt lat="46.0624619568537" lon="11.707267622409088"><ele>876.25</ele><time>2026-05-02T11:42:16.998Z</time></trkpt><trkpt lat="46.06245400761272" lon="11.707425553612662"><ele>878.5</ele><time>2026-05-02T11:42:17.998Z</time></trkpt><trkpt lat="46.062451335800546" lon="11.707599715737187"><ele>880.75</ele><time>2026-05-02T11:42:18.998Z</time></trkpt><trkpt lat="46.06243280810997" lon="11.70776839699327"><ele>883.0</ele><time>2026-05-02T11:42:19.998Z</time></trkpt><trkpt lat="46.062395332147496" lon="11.707940650360113"><ele>878.25</ele><time>2026-05-02T11:42:20.998Z</time></trkpt><trkpt lat="46.06235770028955" lon="11.708113550429628"><ele>873.5</ele><time>2026-05-02T11:42:21.998Z</time></trkpt><trkpt lat="46.062313122989735" lon="11.708284842125112"><ele>868.75</ele><time>2026-05-02T11:42:22.998Z</time></trkpt><trkpt lat="46.0622605562321" lon="11.708461660368753"><ele>864.0</ele><time>2026-05-02T11:42:23.998Z</time></trkpt><trkpt lat="46.06220833879915" lon="11.708640064594023"><ele>864.0</ele><time>2026-05-02T11:42:24.998Z</time></trkpt><trkpt lat="46.0621467161325" lon="11.70882233304998"><ele>864.0</ele><time>2026-05-02T11:42:25.998Z</time></trkpt><trkpt lat="46.06207975419607" lon="11.709003005741266"><ele>864.0</ele><time>2026-05-02T11:42:26.998Z</time></trkpt><trkpt lat="46.062017590669136" lon="11.709187823552561"><ele>864.0</ele><time>2026-05-02T11:42:27.998Z</time></trkpt><trkpt lat="46.061946308075626" lon="11.709365254572294"><ele>868.5</ele><time>2026-05-02T11:42:28.998Z</time></trkpt><trkpt lat="46.06186324713533" lon="11.709539588879709"><ele>873.0</ele><time>2026-05-02T11:42:29.998Z</time></trkpt><trkpt lat="46.061785180281454" lon="11.709704668586577"><ele>877.5</ele><time>2026-05-02T11:42:30.998Z</time></trkpt><trkpt lat="46.06171248346543" lon="11.709848923032503"><ele>882.0</ele><time>2026-05-02T11:42:31.998Z</time></trkpt><trkpt lat="46.061641105489464" lon="11.70997598433981"><ele>884.6</ele><time>2026-05-02T11:42:32.999Z</time></trkpt><trkpt lat="46.06158959411317" lon="11.710103161992444"><ele>887.2</ele><time>2026-05-02T11:42:33.999Z</time></trkpt><trkpt lat="46.06154824363305" lon="11.710233533679565"><ele>889.8</ele><time>2026-05-02T11:42:34.999Z</time></trkpt><trkpt lat="46.061517493504475" lon="11.710355182424813"><ele>892.4</ele><time>2026-05-02T11:42:35.999Z</time></trkpt><trkpt lat="46.06149403559355" lon="11.710471095881964"><ele>895.0</ele><time>2026-05-02T11:42:36.999Z</time></trkpt><trkpt lat="46.06146028339348" lon="11.71056659547475"><ele>896.8333333333333</ele><time>2026-05-02T11:42:37.999Z</time></trkpt><trkpt lat="46.06140589712621" lon="11.71062793779335"><ele>898.6666666666666</ele><time>2026-05-02T11:42:38.999Z</time></trkpt><trkpt lat="46.061334171526454" lon="11.710643729992153"><ele>900.5</ele><time>2026-05-02T11:42:40Z</time></trkpt><trkpt lat="46.06125258679777" lon="11.710619707810064"><ele>902.3333333333333</ele><time>2026-05-02T11:42:40.999Z</time></trkpt><trkpt lat="46.0611864263656" lon="11.710565844868606"><ele>904.1666666666666</ele><time>2026-05-02T11:42:42Z</time></trkpt><trkpt lat="46.06113478174064" lon="11.710463997185439"><ele>906.0</ele><time>2026-05-02T11:42:43Z</time></trkpt><trkpt lat="46.06109851709822" lon="11.71031377545745"><ele>902.3333333333333</ele><time>2026-05-02T11:42:44Z</time></trkpt><trkpt lat="46.06106692538793" lon="11.710121181684736"><ele>898.6666666666666</ele><time>2026-05-02T11:42:45Z</time></trkpt><trkpt lat="46.06102508371765" lon="11.709909451988372"><ele>895.0</ele><time>2026-05-02T11:42:46Z</time></trkpt><trkpt lat="46.06097339800322" lon="11.70967960489678"><ele>895.0</ele><time>2026-05-02T11:42:47Z</time></trkpt><trkpt lat="46.06091618695435" lon="11.70945857977423"><ele>895.0</ele><time>2026-05-02T11:42:48Z</time></trkpt><trkpt lat="46.06087676105753" lon="11.709303914814232"><ele>895.0</ele><time>2026-05-02T11:42:49Z</time></trkpt><trkpt lat="46.060838169481784" lon="11.709085418736635"><ele>895.0</ele><time>2026-05-02T11:42:50Z</time></trkpt><trkpt lat="46.060812329561365" lon="11.708875150689906"><ele>892.0</ele><time>2026-05-02T11:42:51Z</time></trkpt><trkpt lat="46.06079812712014" lon="11.708668195410784"><ele>889.0</ele><time>2026-05-02T11:42:52Z</time></trkpt><trkpt lat="46.06075884127738" lon="11.708475790550345"><ele>886.0</ele><time>2026-05-02T11:42:53Z</time></trkpt><trkpt lat="46.06071920961179" lon="11.708309310805054"><ele>883.0</ele><time>2026-05-02T11:42:54Z</time></trkpt><trkpt lat="46.0607003856008" lon="11.708154534483453"><ele>880.2</ele><time>2026-05-02T11:42:55Z</time></trkpt><trkpt lat="46.06066061549391" lon="11.708031713963628"><ele>877.4</ele><time>2026-05-02T11:42:56Z</time></trkpt><trkpt lat="46.060639224742786" lon="11.707919330082493"><ele>874.6000000000001</ele><time>2026-05-02T11:42:57Z</time></trkpt><trkpt lat="46.0606207717033" lon="11.70782345976671"><ele>871.8000000000001</ele><time>2026-05-02T11:42:58Z</time></trkpt><trkpt lat="46.06050743192401" lon="11.707746419635708"><ele>869.0</ele><time>2026-05-02T11:42:59.999Z</time></trkpt><trkpt lat="46.060412384673846" lon="11.707790078181047"><ele>869.0</ele><time>2026-05-02T11:43:00.999Z</time></trkpt><trkpt lat="46.06028650017819" lon="11.707870941304492"><ele>869.0</ele><time>2026-05-02T11:43:01.999Z</time></trkpt><trkpt lat="46.060154152063916" lon="11.707939677542237"><ele>869.0</ele><time>2026-05-02T11:43:02.999Z</time></trkpt><trkpt lat="46.06003608510474" lon="11.707975133567802"><ele>869.0</ele><time>2026-05-02T11:43:03.999Z</time></trkpt><trkpt lat="46.059930155450445" lon="11.708007102861728"><ele>858.6</ele><time>2026-05-02T11:43:04.999Z</time></trkpt><trkpt lat="46.05983928191791" lon="11.708028336145839"><ele>848.2</ele><time>2026-05-02T11:43:05.999Z</time></trkpt><trkpt lat="46.05976444722903" lon="11.708067327755566"><ele>837.8000000000001</ele><time>2026-05-02T11:43:06.999Z</time></trkpt><trkpt lat="46.059700853465124" lon="11.708166375691697"><ele>827.4000000000001</ele><time>2026-05-02T11:43:07.999Z</time></trkpt><trkpt lat="46.059633586193634" lon="11.708315611665668"><ele>817.0</ele><time>2026-05-02T11:43:08.999Z</time></trkpt><trkpt lat="46.05955069856918" lon="11.708466227079075"><ele>821.5</ele><time>2026-05-02T11:43:09.999Z</time></trkpt><trkpt lat="46.059488765820426" lon="11.708610932400003"><ele>826.0</ele><time>2026-05-02T11:43:10.999Z</time></trkpt><trkpt lat="46.059455333433704" lon="11.708804640578737"><ele>830.5</ele><time>2026-05-02T11:43:11.999Z</time></trkpt><trkpt lat="46.05941900401753" lon="11.709021886780898"><ele>835.0</ele><time>2026-05-02T11:43:12.999Z</time></trkpt><trkpt lat="46.059372911619214" lon="11.709239129077943"><ele>838.0</ele><time>2026-05-02T11:43:13.999Z</time></trkpt><trkpt lat="46.059329644571434" lon="11.709426743151115"><ele>841.0</ele><time>2026-05-02T11:43:14.999Z</time></trkpt><trkpt lat="46.05927469611616" lon="11.709605626359386"><ele>844.0</ele><time>2026-05-02T11:43:15.999Z</time></trkpt><trkpt lat="46.05919622522387" lon="11.709787300106079"><ele>847.0</ele><time>2026-05-02T11:43:16.999Z</time></trkpt><trkpt lat="46.05910368234565" lon="11.709971106018944"><ele>845.0</ele><time>2026-05-02T11:43:17.999Z</time></trkpt><trkpt lat="46.0590294654864" lon="11.71014364611312"><ele>843.0</ele><time>2026-05-02T11:43:18.999Z</time></trkpt><trkpt lat="46.05896594217812" lon="11.710306154009025"><ele>841.0</ele><time>2026-05-02T11:43:19.999Z</time></trkpt><trkpt lat="46.05891963157416" lon="11.710465373111962"><ele>839.0</ele><time>2026-05-02T11:43:20.999Z</time></trkpt><trkpt lat="46.05889351898828" lon="11.710614952087639"><ele>839.0</ele><time>2026-05-02T11:43:21.999Z</time></trkpt><trkpt lat="46.058817456056246" lon="11.710747559560383"><ele>839.0</ele><time>2026-05-02T11:43:22.999Z</time></trkpt><trkpt lat="46.05872215750433" lon="11.710895532706473"><ele>839.0</ele><time>2026-05-02T11:43:23.999Z</time></trkpt><trkpt lat="46.05865476944197" lon="11.711041728346142"><ele>839.0</ele><time>2026-05-02T11:43:24.999Z</time></trkpt><trkpt lat="46.058610067770076" lon="11.7111488660942"><ele>847.0000000000001</ele><time>2026-05-02T11:43:25.999Z</time></trkpt><trkpt lat="46.05856330573056" lon="11.711233442262062"><ele>855.0</ele><time>2026-05-02T11:43:26.999Z</time></trkpt><trkpt lat="46.058500452071634" lon="11.71128569563268"><ele>863.0</ele><time>2026-05-02T11:43:27.999Z</time></trkpt><trkpt lat="46.05842755106242" lon="11.711301364826394"><ele>871.0</ele><time>2026-05-02T11:43:28.999Z</time></trkpt><trkpt lat="46.05832769679219" lon="11.711267227404907"><ele>879.0000000000001</ele><time>2026-05-02T11:43:29.999Z</time></trkpt><trkpt lat="46.05822854018577" lon="11.711202932164582"><ele>887.0</ele><time>2026-05-02T11:43:30.999Z</time></trkpt><trkpt lat="46.05815898466421" lon="11.711084901938431"><ele>879.4000000000001</ele><time>2026-05-02T11:43:31.999Z</time></trkpt><trkpt lat="46.058089542534745" lon="11.710924783859356"><ele>871.8000000000001</ele><time>2026-05-02T11:43:32.999Z</time></trkpt><trkpt lat="46.05806054042921" lon="11.71078460349744"><ele>864.2</ele><time>2026-05-02T11:43:33.999Z</time></trkpt><trkpt lat="46.05800145687469" lon="11.710684235090635"><ele>856.6</ele><time>2026-05-02T11:43:34.999Z</time></trkpt><trkpt lat="46.057900569465616" lon="11.710590811965789"><ele>849.0</ele><time>2026-05-02T11:43:35.999Z</time></trkpt><trkpt lat="46.05776615629943" lon="11.710522361951837"><ele>849.0</ele><time>2026-05-02T11:43:36.999Z</time></trkpt><trkpt lat="46.05766059035963" lon="11.710444630313514"><ele>849.0</ele><time>2026-05-02T11:43:37.999Z</time></trkpt><trkpt lat="46.057567517077814" lon="11.71039488104196"><ele>849.0</ele><time>2026-05-02T11:43:38.999Z</time></trkpt><trkpt lat="46.057475566421516" lon="11.710349026270894"><ele>849.0</ele><time>2026-05-02T11:43:39.999Z</time></trkpt><trkpt lat="46.05738322072794" lon="11.710311041470035"><ele>849.0</ele><time>2026-05-02T11:43:40.999Z</time></trkpt><trkpt lat="46.057314506062845" lon="11.710288813901936"><ele>845.6</ele><time>2026-05-02T11:43:41.999Z</time></trkpt><trkpt lat="46.05721753400373" lon="11.710240484060257"><ele>842.2</ele><time>2026-05-02T11:43:43.999Z</time></trkpt><trkpt lat="46.057155862739876" lon="11.710269235444366"><ele>838.8000000000001</ele><time>2026-05-02T11:43:44.999Z</time></trkpt><trkpt lat="46.057093851503446" lon="11.710370288286454"><ele>835.4000000000001</ele><time>2026-05-02T11:43:45.999Z</time></trkpt><trkpt lat="46.05702234356599" lon="11.710509829387583"><ele>832.0</ele><time>2026-05-02T11:43:46.999Z</time></trkpt><trkpt lat="46.056938254807584" lon="11.710649292756466"><ele>832.0</ele><time>2026-05-02T11:43:47.999Z</time></trkpt><trkpt lat="46.05685284294597" lon="11.7107774486055"><ele>832.0</ele><time>2026-05-02T11:43:48.999Z</time></trkpt><trkpt lat="46.05676441740584" lon="11.710879896333314"><ele>832.0</ele><time>2026-05-02T11:43:49.999Z</time></trkpt><trkpt lat="46.05666934851554" lon="11.710945485163457"><ele>832.0</ele><time>2026-05-02T11:43:50.999Z</time></trkpt><trkpt lat="46.05659037465568" lon="11.710995721716753"><ele>832.0</ele><time>2026-05-02T11:43:51.999Z</time></trkpt><trkpt lat="46.056514706139026" lon="11.711025454682986"><ele>833.6</ele><time>2026-05-02T11:43:52.999Z</time></trkpt><trkpt lat="46.056436577764565" lon="11.711004181148237"><ele>835.2</ele><time>2026-05-02T11:43:53.999Z</time></trkpt><trkpt lat="46.05634394816265" lon="11.710933941492481"><ele>836.8</ele><time>2026-05-02T11:43:54.999Z</time></trkpt><trkpt lat="46.0562461856266" lon="11.710842426840385"><ele>838.4</ele><time>2026-05-02T11:43:55.999Z</time></trkpt><trkpt lat="46.056133017195876" lon="11.710704841994193"><ele>840.0</ele><time>2026-05-02T11:43:56.999Z</time></trkpt><trkpt lat="46.0560166638891" lon="11.710566086777527"><ele>840.0</ele><time>2026-05-02T11:43:57.999Z</time></trkpt><trkpt lat="46.055917530871604" lon="11.710432944905012"><ele>840.0</ele><time>2026-05-02T11:43:58.999Z</time></trkpt><trkpt lat="46.05583322620239" lon="11.710333917872184"><ele>840.0</ele><time>2026-05-02T11:43:59.999Z</time></trkpt><trkpt lat="46.05575037347369" lon="11.71025159432156"><ele>840.0</ele><time>2026-05-02T11:44:00.999Z</time></trkpt><trkpt lat="46.055672094647775" lon="11.710187997219649"><ele>840.0</ele><time>2026-05-02T11:44:01.999Z</time></trkpt><trkpt lat="46.055581985591125" lon="11.710123989785298"><ele>828.6</ele><time>2026-05-02T11:44:02.999Z</time></trkpt><trkpt lat="46.055454481587056" lon="11.710089830604096"><ele>817.2</ele><time>2026-05-02T11:44:03.999Z</time></trkpt><trkpt lat="46.05533971227474" lon="11.710068263307546"><ele>805.8</ele><time>2026-05-02T11:44:04.999Z</time></trkpt><trkpt lat="46.055252544004325" lon="11.710030247977501"><ele>794.4</ele><time>2026-05-02T11:44:05.999Z</time></trkpt><trkpt lat="46.05519216311177" lon="11.709980360767497"><ele>783.0</ele><time>2026-05-02T11:44:06.998Z</time></trkpt><trkpt lat="46.05508244530782" lon="11.709980434014671"><ele>783.0</ele><time>2026-05-02T11:44:08.998Z</time></trkpt><trkpt lat="46.055021244940434" lon="11.710064470199958"><ele>783.0</ele><time>2026-05-02T11:44:09.998Z</time></trkpt><trkpt lat="46.05497935276904" lon="11.710187237217323"><ele>783.0</ele><time>2026-05-02T11:44:10.998Z</time></trkpt><trkpt lat="46.05494338261689" lon="11.710310050267742"><ele>783.0</ele><time>2026-05-02T11:44:11.998Z</time></trkpt><trkpt lat="46.05488879376762" lon="11.71043520048995"><ele>783.0</ele><time>2026-05-02T11:44:12.998Z</time></trkpt><trkpt lat="46.05481172318928" lon="11.71055471410366"><ele>785.2</ele><time>2026-05-02T11:44:13.998Z</time></trkpt><trkpt lat="46.0547398345255" lon="11.710672331366991"><ele>787.4</ele><time>2026-05-02T11:44:14.998Z</time></trkpt><trkpt lat="46.05468063744006" lon="11.71080975737074"><ele>789.6</ele><time>2026-05-02T11:44:15.998Z</time></trkpt><trkpt lat="46.05463985164761" lon="11.71094067092882"><ele>791.8000000000001</ele><time>2026-05-02T11:44:16.998Z</time></trkpt><trkpt lat="46.05460746383859" lon="11.711058153864041"><ele>794.0</ele><time>2026-05-02T11:44:17.998Z</time></trkpt><trkpt lat="46.05457794028812" lon="11.711169353424626"><ele>796.3333333333334</ele><time>2026-05-02T11:44:18.998Z</time></trkpt><trkpt lat="46.054526146747556" lon="11.711236256966489"><ele>798.6666666666667</ele><time>2026-05-02T11:44:19.998Z</time></trkpt><trkpt lat="46.05446034391724" lon="11.711268535836153"><ele>801.0</ele><time>2026-05-02T11:44:20.998Z</time></trkpt><trkpt lat="46.05437101024138" lon="11.71124571663806"><ele>803.3333333333333</ele><time>2026-05-02T11:44:21.998Z</time></trkpt><trkpt lat="46.05427232124776" lon="11.711213022948677"><ele>805.6666666666666</ele><time>2026-05-02T11:44:22.998Z</time></trkpt><trkpt lat="46.054181083407634" lon="11.711192798132856"><ele>808.0</ele><time>2026-05-02T11:44:23.998Z</time></trkpt><trkpt lat="46.05409779070893" lon="11.7111703991132"><ele>807.9999999999999</ele><time>2026-05-02T11:44:24.998Z</time></trkpt><trkpt lat="46.05404106435922" lon="11.711065153393374"><ele>808.0</ele><time>2026-05-02T11:44:25.998Z</time></trkpt><trkpt lat="46.05397953293478" lon="11.710978595283288"><ele>808.0</ele><time>2026-05-02T11:44:26.998Z</time></trkpt><trkpt lat="46.053905779314356" lon="11.710962053234041"><ele>808.0</ele><time>2026-05-02T11:44:27.998Z</time></trkpt><trkpt lat="46.05382351504949" lon="11.71100051674763"><ele>807.9999999999999</ele><time>2026-05-02T11:44:28.998Z</time></trkpt><trkpt lat="46.05374921961118" lon="11.711107121559303"><ele>808.0</ele><time>2026-05-02T11:44:29.998Z</time></trkpt><trkpt lat="46.053677681549736" lon="11.711270256624145"><ele>807.9999999999999</ele><time>2026-05-02T11:44:30.998Z</time></trkpt><trkpt lat="46.05361298505953" lon="11.711421359236063"><ele>808.0</ele><time>2026-05-02T11:44:31.998Z</time></trkpt><trkpt lat="46.053571289964786" lon="11.711563491392328"><ele>808.0</ele><time>2026-05-02T11:44:32.998Z</time></trkpt><trkpt lat="46.053543629216946" lon="11.711678183292966"><ele>808.0</ele><time>2026-05-02T11:44:33.998Z</time></trkpt><trkpt lat="46.05350717484385" lon="11.71175881379424"><ele>807.9999999999999</ele><time>2026-05-02T11:44:34.998Z</time></trkpt><trkpt lat="46.053443599245966" lon="11.711777313425003"><ele>808.0</ele><time>2026-05-02T11:44:35.998Z</time></trkpt><trkpt lat="46.05335522866005" lon="11.711755612241953"><ele>802.2</ele><time>2026-05-02T11:44:36.998Z</time></trkpt><trkpt lat="46.05324611833135" lon="11.711698913311567"><ele>796.4</ele><time>2026-05-02T11:44:37.998Z</time></trkpt><trkpt lat="46.053130674065976" lon="11.711691424525595"><ele>790.6</ele><time>2026-05-02T11:44:39Z</time></trkpt><trkpt lat="46.05302555196274" lon="11.711759057166498"><ele>784.8000000000001</ele><time>2026-05-02T11:44:40Z</time></trkpt><trkpt lat="46.05292701175791" lon="11.711758893465676"><ele>779.0</ele><time>2026-05-02T11:44:41Z</time></trkpt><trkpt lat="46.05284252845517" lon="11.711718352379377"><ele>779.0</ele><time>2026-05-02T11:44:42Z</time></trkpt><trkpt lat="46.05277686721801" lon="11.711707733856686"><ele>779.0</ele><time>2026-05-02T11:44:43Z</time></trkpt><trkpt lat="46.05269751607549" lon="11.711727111615476"><ele>779.0</ele><time>2026-05-02T11:44:44Z</time></trkpt><trkpt lat="46.05261762683955" lon="11.711839751265716"><ele>779.0</ele><time>2026-05-02T11:44:45Z</time></trkpt><trkpt lat="46.05253709508174" lon="11.711990464686506"><ele>779.0</ele><time>2026-05-02T11:44:46Z</time></trkpt><trkpt lat="46.05248441965884" lon="11.712101646609737"><ele>785.8000000000001</ele><time>2026-05-02T11:44:47Z</time></trkpt><trkpt lat="46.05240688478223" lon="11.712126498058701"><ele>792.6</ele><time>2026-05-02T11:44:48Z</time></trkpt><trkpt lat="46.05231357974105" lon="11.712112910011388"><ele>799.4</ele><time>2026-05-02T11:44:49Z</time></trkpt><trkpt lat="46.05222553897453" lon="11.71203344750156"><ele>806.2</ele><time>2026-05-02T11:44:50Z</time></trkpt><trkpt lat="46.052159129723115" lon="11.711901141218094"><ele>813.0</ele><time>2026-05-02T11:44:51Z</time></trkpt><trkpt lat="46.052092833390326" lon="11.711725294200924"><ele>813.0</ele><time>2026-05-02T11:44:52Z</time></trkpt><trkpt lat="46.05199313493233" lon="11.711544071474563"><ele>813.0</ele><time>2026-05-02T11:44:53Z</time></trkpt><trkpt lat="46.05188485367174" lon="11.711386920396546"><ele>813.0</ele><time>2026-05-02T11:44:54Z</time></trkpt><trkpt lat="46.051782799571676" lon="11.711231878498104"><ele>819.25</ele><time>2026-05-02T11:44:55Z</time></trkpt><trkpt lat="46.05169926937228" lon="11.711066756661673"><ele>825.5</ele><time>2026-05-02T11:44:56Z</time></trkpt><trkpt lat="46.051625774294" lon="11.710886214333277"><ele>831.75</ele><time>2026-05-02T11:44:57Z</time></trkpt><trkpt lat="46.051557322980074" lon="11.710709218426832"><ele>838.0</ele><time>2026-05-02T11:44:58Z</time></trkpt><trkpt lat="46.051481447494034" lon="11.710564835028096"><ele>838.0</ele><time>2026-05-02T11:44:59Z</time></trkpt><trkpt lat="46.05142374510052" lon="11.710443926082524"><ele>838.0</ele><time>2026-05-02T11:45:00Z</time></trkpt><trkpt lat="46.051371030214376" lon="11.710346705277294"><ele>838.0</ele><time>2026-05-02T11:45:01Z</time></trkpt><trkpt lat="46.05131561460091" lon="11.710250171212659"><ele>838.0</ele><time>2026-05-02T11:45:02Z</time></trkpt><trkpt lat="46.051210206780695" lon="11.710155312557411"><ele>838.0</ele><time>2026-05-02T11:45:03Z</time></trkpt><trkpt lat="46.05110258586333" lon="11.710025939815205"><ele>828.4</ele><time>2026-05-02T11:45:04Z</time></trkpt><trkpt lat="46.05101855365008" lon="11.709880418414889"><ele>818.8</ele><time>2026-05-02T11:45:05Z</time></trkpt><trkpt lat="46.05094671521926" lon="11.70973700648786"><ele>809.2</ele><time>2026-05-02T11:45:06Z</time></trkpt><trkpt lat="46.05088264542094" lon="11.709622718209468"><ele>799.6</ele><time>2026-05-02T11:45:07Z</time></trkpt><trkpt lat="46.050818853720166" lon="11.709554831575083"><ele>790.0</ele><time>2026-05-02T11:45:08Z</time></trkpt><trkpt lat="46.050755858907436" lon="11.709490019775998"><ele>790.0</ele><time>2026-05-02T11:45:09Z</time></trkpt><trkpt lat="46.05067955580678" lon="11.709442699228365"><ele>790.0</ele><time>2026-05-02T11:45:10Z</time></trkpt><trkpt lat="46.050573412293005" lon="11.70943001728218"><ele>790.0</ele><time>2026-05-02T11:45:11Z</time></trkpt><trkpt lat="46.05044198108813" lon="11.709466561325286"><ele>790.0</ele><time>2026-05-02T11:45:12Z</time></trkpt><trkpt lat="46.050291283063466" lon="11.70950840506883"><ele>790.0</ele><time>2026-05-02T11:45:13Z</time></trkpt><trkpt lat="46.050155225044215" lon="11.709535551640174"><ele>790.0</ele><time>2026-05-02T11:45:14Z</time></trkpt><trkpt lat="46.050029405993754" lon="11.709557029379752"><ele>790.0</ele><time>2026-05-02T11:45:15Z</time></trkpt><trkpt lat="46.04990575010298" lon="11.709556021494414"><ele>790.0</ele><time>2026-05-02T11:45:16Z</time></trkpt><trkpt lat="46.04978599917493" lon="11.709543735823788"><ele>784.75</ele><time>2026-05-02T11:45:17Z</time></trkpt><trkpt lat="46.04967082750055" lon="11.709511948598907"><ele>779.5</ele><time>2026-05-02T11:45:18Z</time></trkpt><trkpt lat="46.04955279265308" lon="11.709473302295757"><ele>774.25</ele><time>2026-05-02T11:45:18.999Z</time></trkpt><trkpt lat="46.04944401806994" lon="11.70943276812248"><ele>769.0</ele><time>2026-05-02T11:45:19.999Z</time></trkpt><trkpt lat="46.04933178648884" lon="11.709378674879222"><ele>760.4000000000001</ele><time>2026-05-02T11:45:20.999Z</time></trkpt><trkpt lat="46.049241432375474" lon="11.709340233195134"><ele>751.8</ele><time>2026-05-02T11:45:21.999Z</time></trkpt><trkpt lat="46.04911016777116" lon="11.709342917289375"><ele>743.2</ele><time>2026-05-02T11:45:23.999Z</time></trkpt><trkpt lat="46.04902966231898" lon="11.709379750007818"><ele>734.5999999999999</ele><time>2026-05-02T11:45:24.999Z</time></trkpt><trkpt lat="46.04894058783353" lon="11.709488092142196"><ele>726.0</ele><time>2026-05-02T11:45:25.999Z</time></trkpt><trkpt lat="46.04886891370245" lon="11.709605030553961"><ele>725.25</ele><time>2026-05-02T11:45:26.999Z</time></trkpt><trkpt lat="46.04881888325399" lon="11.709764896227245"><ele>724.5</ele><time>2026-05-02T11:45:27.999Z</time></trkpt><trkpt lat="46.04875262297177" lon="11.709902110886949"><ele>723.75</ele><time>2026-05-02T11:45:28.999Z</time></trkpt><trkpt lat="46.04867357756479" lon="11.710015260743338"><ele>723.0</ele><time>2026-05-02T11:45:29.999Z</time></trkpt><trkpt lat="46.04857707929073" lon="11.710134468150043"><ele>720.25</ele><time>2026-05-02T11:45:30.999Z</time></trkpt><trkpt lat="46.048469911840876" lon="11.710242010862311"><ele>717.5</ele><time>2026-05-02T11:45:31.999Z</time></trkpt><trkpt lat="46.048330165540534" lon="11.710337425237581"><ele>714.75</ele><time>2026-05-02T11:45:32.999Z</time></trkpt><trkpt lat="46.04819178226648" lon="11.71044539221585"><ele>712.0</ele><time>2026-05-02T11:45:33.999Z</time></trkpt><trkpt lat="46.048067238193596" lon="11.710549035127823"><ele>712.0</ele><time>2026-05-02T11:45:34.999Z</time></trkpt><trkpt lat="46.04795990949516" lon="11.710603368221964"><ele>712.0</ele><time>2026-05-02T11:45:35.999Z</time></trkpt><trkpt lat="46.04786298278183" lon="11.710646048117608"><ele>712.0</ele><time>2026-05-02T11:45:36.999Z</time></trkpt><trkpt lat="46.04776885647104" lon="11.710686823414454"><ele>712.0</ele><time>2026-05-02T11:45:37.999Z</time></trkpt><trkpt lat="46.047691280887385" lon="11.710753512445253"><ele>712.0</ele><time>2026-05-02T11:45:38.999Z</time></trkpt><trkpt lat="46.047619253638274" lon="11.71085324706209"><ele>712.0</ele><time>2026-05-02T11:45:39.999Z</time></trkpt><trkpt lat="46.04755299622652" lon="11.711008859092303"><ele>712.0</ele><time>2026-05-02T11:45:40.999Z</time></trkpt><trkpt lat="46.04748947440238" lon="11.711174805504585"><ele>712.0</ele><time>2026-05-02T11:45:41.999Z</time></trkpt><trkpt lat="46.04745219306418" lon="11.711390414073838"><ele>712.0</ele><time>2026-05-02T11:45:42.999Z</time></trkpt><trkpt lat="46.047425846060385" lon="11.71162536867659"><ele>703.5</ele><time>2026-05-02T11:45:43.999Z</time></trkpt><trkpt lat="46.04741254607457" lon="11.711825439221274"><ele>695.0</ele><time>2026-05-02T11:45:44.999Z</time></trkpt><trkpt lat="46.04740170733788" lon="11.71198198890222"><ele>686.5</ele><time>2026-05-02T11:45:45.999Z</time></trkpt><trkpt lat="46.04738432927843" lon="11.712102136015863"><ele>678.0</ele><time>2026-05-02T11:45:46.999Z</time></trkpt><trkpt lat="46.047284240349924" lon="11.712360736887426"><ele>678.0</ele><time>2026-05-02T11:45:47.999Z</time></trkpt><trkpt lat="46.047216203942725" lon="11.712643772534411"><ele>678.0</ele><time>2026-05-02T11:45:48.999Z</time></trkpt><trkpt lat="46.0471682204783" lon="11.712886574059185"><ele>678.0</ele><time>2026-05-02T11:45:49.999Z</time></trkpt><trkpt lat="46.04712957216843" lon="11.713106329158881"><ele>680.0</ele><time>2026-05-02T11:45:50.999Z</time></trkpt><trkpt lat="46.04708691446301" lon="11.713292734006389"><ele>682.0</ele><time>2026-05-02T11:45:51.999Z</time></trkpt><trkpt lat="46.0470365625915" lon="11.71345795140187"><ele>684.0</ele><time>2026-05-02T11:45:52.999Z</time></trkpt><trkpt lat="46.04698050982847" lon="11.713608812246074"><ele>686.0</ele><time>2026-05-02T11:45:53.999Z</time></trkpt><trkpt lat="46.046909061387325" lon="11.713713542219354"><ele>687.5999999999999</ele><time>2026-05-02T11:45:54.999Z</time></trkpt><trkpt lat="46.04682013531441" lon="11.713794012888592"><ele>689.2</ele><time>2026-05-02T11:45:55.999Z</time></trkpt><trkpt lat="46.046754809256626" lon="11.71387722348459"><ele>690.8</ele><time>2026-05-02T11:45:56.999Z</time></trkpt><trkpt lat="46.046710307703854" lon="11.713974595825425"><ele>692.4000000000001</ele><time>2026-05-02T11:45:57.999Z</time></trkpt><trkpt lat="46.04672687927148" lon="11.714131707671022"><ele>694.0</ele><time>2026-05-02T11:45:58.999Z</time></trkpt><trkpt lat="46.04678659162603" lon="11.714299833928843"><ele>697.0</ele><time>2026-05-02T11:45:59.999Z</time></trkpt><trkpt lat="46.04683715469621" lon="11.714458821145492"><ele>700.0</ele><time>2026-05-02T11:46:00.999Z</time></trkpt><trkpt lat="46.04686623829049" lon="11.714575237114857"><ele>703.0</ele><time>2026-05-02T11:46:01.999Z</time></trkpt><trkpt lat="46.04685707647532" lon="11.714683047676916"><ele>706.0</ele><time>2026-05-02T11:46:02.999Z</time></trkpt><trkpt lat="46.046804215592864" lon="11.714790796090744"><ele>709.0</ele><time>2026-05-02T11:46:03.999Z</time></trkpt><trkpt lat="46.04672148103704" lon="11.714870812495166"><ele>704.6</ele><time>2026-05-02T11:46:04.999Z</time></trkpt><trkpt lat="46.04662587153173" lon="11.714945891476658"><ele>700.2</ele><time>2026-05-02T11:46:05.999Z</time></trkpt><trkpt lat="46.04653727488064" lon="11.714989681972492"><ele>695.8000000000001</ele><time>2026-05-02T11:46:06.999Z</time></trkpt><trkpt lat="46.0464500661719" lon="11.715050812603886"><ele>691.4000000000001</ele><time>2026-05-02T11:46:07.999Z</time></trkpt><trkpt lat="46.04635902461092" lon="11.715192067984056"><ele>687.0</ele><time>2026-05-02T11:46:08.999Z</time></trkpt><trkpt lat="46.04624635042741" lon="11.715351936678333"><ele>687.0</ele><time>2026-05-02T11:46:09.999Z</time></trkpt><trkpt lat="46.04613233684359" lon="11.715482449677571"><ele>687.0</ele><time>2026-05-02T11:46:10.999Z</time></trkpt><trkpt lat="46.046033966000195" lon="11.7155864909305"><ele>687.0</ele><time>2026-05-02T11:46:11.999Z</time></trkpt><trkpt lat="46.045947061406565" lon="11.71566911167336"><ele>687.0</ele><time>2026-05-02T11:46:12.999Z</time></trkpt><trkpt lat="46.04587622155629" lon="11.715742320971005"><ele>687.0</ele><time>2026-05-02T11:46:13.999Z</time></trkpt><trkpt lat="46.04582735413032" lon="11.715802499079059"><ele>687.0</ele><time>2026-05-02T11:46:14.999Z</time></trkpt><trkpt lat="46.045773617785166" lon="11.715972965794457"><ele>687.0</ele><time>2026-05-02T11:46:16.999Z</time></trkpt><trkpt lat="46.045788502136915" lon="11.716111673175272"><ele>687.0</ele><time>2026-05-02T11:46:17.999Z</time></trkpt><trkpt lat="46.04576855626721" lon="11.716222577430905"><ele>687.0</ele><time>2026-05-02T11:46:18.999Z</time></trkpt><trkpt lat="46.04571073020683" lon="11.716277592243477"><ele>687.0</ele><time>2026-05-02T11:46:19.999Z</time></trkpt><trkpt lat="46.0456450111123" lon="11.716359965231009"><ele>677.5</ele><time>2026-05-02T11:46:20.999Z</time></trkpt><trkpt lat="46.045574994071586" lon="11.716472432202282"><ele>668.0</ele><time>2026-05-02T11:46:21.999Z</time></trkpt><trkpt lat="46.04552537645061" lon="11.716581698905387"><ele>658.5</ele><time>2026-05-02T11:46:22.999Z</time></trkpt><trkpt lat="46.04551032912861" lon="11.716782096847593"><ele>649.0</ele><time>2026-05-02T11:46:23.999Z</time></trkpt><trkpt lat="46.045502572512895" lon="11.71699492698638"><ele>649.0</ele><time>2026-05-02T11:46:24.999Z</time></trkpt><trkpt lat="46.045490984226035" lon="11.71717959804476"><ele>649.0</ele><time>2026-05-02T11:46:25.999Z</time></trkpt><trkpt lat="46.0454478788816" lon="11.717328991207129"><ele>649.0</ele><time>2026-05-02T11:46:26.998Z</time></trkpt><trkpt lat="46.045379350230505" lon="11.71747559002371"><ele>649.0</ele><time>2026-05-02T11:46:27.998Z</time></trkpt><trkpt lat="46.04529425424853" lon="11.71758530322535"><ele>649.0</ele><time>2026-05-02T11:46:28.998Z</time></trkpt><trkpt lat="46.04521950846984" lon="11.717698695532066"><ele>649.0</ele><time>2026-05-02T11:46:29.998Z</time></trkpt><trkpt lat="46.045180743435566" lon="11.717888989842459"><ele>649.0</ele><time>2026-05-02T11:46:30.998Z</time></trkpt><trkpt lat="46.04516790580535" lon="11.718105858196822"><ele>649.0</ele><time>2026-05-02T11:46:31.998Z</time></trkpt><trkpt lat="46.04514880337544" lon="11.71831574558073"><ele>653.25</ele><time>2026-05-02T11:46:32.998Z</time></trkpt><trkpt lat="46.045106304483724" lon="11.718488099253662"><ele>657.5</ele><time>2026-05-02T11:46:33.998Z</time></trkpt><trkpt lat="46.04501612725424" lon="11.71866341560592"><ele>661.75</ele><time>2026-05-02T11:46:34.998Z</time></trkpt><trkpt lat="46.044893689908385" lon="11.718818533535934"><ele>666.0</ele><time>2026-05-02T11:46:35.998Z</time></trkpt><trkpt lat="46.04473348522803" lon="11.718947746315505"><ele>661.75</ele><time>2026-05-02T11:46:37.998Z</time></trkpt><trkpt lat="46.04464797924128" lon="11.719043446013233"><ele>657.5</ele><time>2026-05-02T11:46:38.998Z</time></trkpt><trkpt lat="46.04459068226701" lon="11.719180554111743"><ele>653.25</ele><time>2026-05-02T11:46:39.998Z</time></trkpt><trkpt lat="46.04453383034134" lon="11.719362463375449"><ele>649.0</ele><time>2026-05-02T11:46:40.998Z</time></trkpt><trkpt lat="46.044449031565655" lon="11.719558372969878"><ele>649.0</ele><time>2026-05-02T11:46:41.998Z</time></trkpt><trkpt lat="46.04435015930236" lon="11.719674610209482"><ele>649.0</ele><time>2026-05-02T11:46:42.998Z</time></trkpt><trkpt lat="46.044273138734575" lon="11.719801463169702"><ele>649.0</ele><time>2026-05-02T11:46:43.998Z</time></trkpt><trkpt lat="46.044225002550135" lon="11.720015412456053"><ele>649.0</ele><time>2026-05-02T11:46:45Z</time></trkpt><trkpt lat="46.04414014803132" lon="11.720251467935425"><ele>634.3333333333334</ele><time>2026-05-02T11:46:46Z</time></trkpt><trkpt lat="46.04406591288691" lon="11.720477847892537"><ele>619.6666666666666</ele><time>2026-05-02T11:46:47Z</time></trkpt><trkpt lat="46.04399735027531" lon="11.720683584078596"><ele>605.0</ele><time>2026-05-02T11:46:48Z</time></trkpt><trkpt lat="46.043933325221694" lon="11.720876785646421"><ele>611.0</ele><time>2026-05-02T11:46:49Z</time></trkpt><trkpt lat="46.04387338551194" lon="11.721067201898775"><ele>617.0</ele><time>2026-05-02T11:46:50Z</time></trkpt><trkpt lat="46.04381649376652" lon="11.721242434934503"><ele>623.0</ele><time>2026-05-02T11:46:51Z</time></trkpt><trkpt lat="46.04379731223583" lon="11.721436719587164"><ele>629.0</ele><time>2026-05-02T11:46:52Z</time></trkpt><trkpt lat="46.043715761936106" lon="11.721572574059564"><ele>629.0</ele><time>2026-05-02T11:46:53Z</time></trkpt><trkpt lat="46.04361793400837" lon="11.721690216890545"><ele>629.0</ele><time>2026-05-02T11:46:54Z</time></trkpt><trkpt lat="46.043509315114406" lon="11.721775060726477"><ele>629.0</ele><time>2026-05-02T11:46:55Z</time></trkpt><trkpt lat="46.04338689371334" lon="11.721790785498147"><ele>629.0</ele><time>2026-05-02T11:46:56Z</time></trkpt><trkpt lat="46.043326842886295" lon="11.721854839405196"><ele>629.0</ele><time>2026-05-02T11:46:57Z</time></trkpt><trkpt lat="46.043281100603124" lon="11.72193178385086"><ele>631.5</ele><time>2026-05-02T11:46:58Z</time></trkpt><trkpt lat="46.04328313314195" lon="11.72207021872338"><ele>634.0</ele><time>2026-05-02T11:46:59Z</time></trkpt><trkpt lat="46.04330439063971" lon="11.722286246560959"><ele>636.5</ele><time>2026-05-02T11:47:00Z</time></trkpt><trkpt lat="46.04331003230526" lon="11.72252560583168"><ele>639.0</ele><time>2026-05-02T11:47:01Z</time></trkpt><trkpt lat="46.043283196093974" lon="11.722753770193174"><ele>622.75</ele><time>2026-05-02T11:47:02Z</time></trkpt><trkpt lat="46.0432538774574" lon="11.722971272870316"><ele>606.5</ele><time>2026-05-02T11:47:03Z</time></trkpt><trkpt lat="46.043223507259796" lon="11.723173939210936"><ele>590.25</ele><time>2026-05-02T11:47:04Z</time></trkpt><trkpt lat="46.04319380284823" lon="11.723342127470067"><ele>574.0</ele><time>2026-05-02T11:47:05Z</time></trkpt><trkpt lat="46.043177348149406" lon="11.723476186374151"><ele>574.8333333333334</ele><time>2026-05-02T11:47:06Z</time></trkpt><trkpt lat="46.04316426666885" lon="11.723599230731793"><ele>575.6666666666667</ele><time>2026-05-02T11:47:07Z</time></trkpt><trkpt lat="46.0431566656991" lon="11.72372276251718"><ele>576.5</ele><time>2026-05-02T11:47:08Z</time></trkpt><trkpt lat="46.04315910520537" lon="11.723836490522638"><ele>577.3333333333334</ele><time>2026-05-02T11:47:09Z</time></trkpt><trkpt lat="46.04318444704623" lon="11.723943452196378"><ele>578.1666666666666</ele><time>2026-05-02T11:47:10Z</time></trkpt><trkpt lat="46.043253820998025" lon="11.724047566736383"><ele>579.0</ele><time>2026-05-02T11:47:11Z</time></trkpt><trkpt lat="46.04337476345494" lon="11.724088742266535"><ele>589.25</ele><time>2026-05-02T11:47:12Z</time></trkpt><trkpt lat="46.04349998282744" lon="11.72411294627062"><ele>599.5</ele><time>2026-05-02T11:47:13Z</time></trkpt><trkpt lat="46.043629656166516" lon="11.724093015362786"><ele>609.75</ele><time>2026-05-02T11:47:14Z</time></trkpt><trkpt lat="46.04375273196894" lon="11.724059230916852"><ele>620.0</ele><time>2026-05-02T11:47:15Z</time></trkpt><trkpt lat="46.04385788224439" lon="11.724046040581362"><ele>620.0</ele><time>2026-05-02T11:47:16Z</time></trkpt><trkpt lat="46.04395688661285" lon="11.724037133805362"><ele>620.0</ele><time>2026-05-02T11:47:17Z</time></trkpt><trkpt lat="46.044057633375225" lon="11.724024408437987"><ele>620.0</ele><time>2026-05-02T11:47:18Z</time></trkpt><trkpt lat="46.0441592767143" lon="11.724007403128756"><ele>620.0</ele><time>2026-05-02T11:47:19Z</time></trkpt><trkpt lat="46.04426287156671" lon="11.723973789803113"><ele>620.0</ele><time>2026-05-02T11:47:20Z</time></trkpt><trkpt lat="46.044367565525725" lon="11.723925674882945"><ele>618.8</ele><time>2026-05-02T11:47:21Z</time></trkpt><trkpt lat="46.04446822597672" lon="11.723881871627931"><ele>617.6</ele><time>2026-05-02T11:47:22Z</time></trkpt><trkpt lat="46.04456448677952" lon="11.723843761083474"><ele>616.4</ele><time>2026-05-02T11:47:23Z</time></trkpt><trkpt lat="46.04465979853586" lon="11.723820269637413"><ele>615.2</ele><time>2026-05-02T11:47:24Z</time></trkpt><trkpt lat="46.04474674396001" lon="11.723813317248515"><ele>614.0</ele><time>2026-05-02T11:47:25Z</time></trkpt><trkpt lat="46.0448367278912" lon="11.723876472275016"><ele>614.0</ele><time>2026-05-02T11:47:26Z</time></trkpt><trkpt lat="46.0449460871643" lon="11.723924394832743"><ele>614.0</ele><time>2026-05-02T11:47:27Z</time></trkpt><trkpt lat="46.0450551719122" lon="11.72394796645101"><ele>614.0</ele><time>2026-05-02T11:47:28Z</time></trkpt><trkpt lat="46.045159632768865" lon="11.723987282478777"><ele>614.0</ele><time>2026-05-02T11:47:28.999Z</time></trkpt><trkpt lat="46.045260915990355" lon="11.723997773963337"><ele>614.0</ele><time>2026-05-02T11:47:29.999Z</time></trkpt><trkpt lat="46.04535493520978" lon="11.724020515232237"><ele>613.5</ele><time>2026-05-02T11:47:30.999Z</time></trkpt><trkpt lat="46.04544614199212" lon="11.724037609325672"><ele>613.0</ele><time>2026-05-02T11:47:31.999Z</time></trkpt><trkpt lat="46.045535349903226" lon="11.72402001744615"><ele>612.5</ele><time>2026-05-02T11:47:32.999Z</time></trkpt><trkpt lat="46.04561515312173" lon="11.723994882479854"><ele>612.0</ele><time>2026-05-02T11:47:33.999Z</time></trkpt><trkpt lat="46.04567874659237" lon="11.724016849492605"><ele>611.5</ele><time>2026-05-02T11:47:34.999Z</time></trkpt><trkpt lat="46.04573067891018" lon="11.724078615035317"><ele>611.0</ele><time>2026-05-02T11:47:36.999Z</time></trkpt><trkpt lat="46.04564078673608" lon="11.724129775195605"><ele>611.0</ele><time>2026-05-02T11:47:38.999Z</time></trkpt><trkpt lat="46.04557784177146" lon="11.724093124138765"><ele>611.0</ele><time>2026-05-02T11:47:39.999Z</time></trkpt><trkpt lat="46.0454679672715" lon="11.724079548117965"><ele>611.0</ele><time>2026-05-02T11:47:40.999Z</time></trkpt><trkpt lat="46.04535450082585" lon="11.724090788637222"><ele>611.0</ele><time>2026-05-02T11:47:41.999Z</time></trkpt><trkpt lat="46.04524546230597" lon="11.724114040246704"><ele>611.0</ele><time>2026-05-02T11:47:42.999Z</time></trkpt><trkpt lat="46.04514103995206" lon="11.724152187537161"><ele>611.0</ele><time>2026-05-02T11:47:43.999Z</time></trkpt><trkpt lat="46.04502378382042" lon="11.72421757035057"><ele>611.0</ele><time>2026-05-02T11:47:44.999Z</time></trkpt><trkpt lat="46.04490179253244" lon="11.724319266471966"><ele>611.0</ele><time>2026-05-02T11:47:45.999Z</time></trkpt><trkpt lat="46.04480429609331" lon="11.724387939184625"><ele>611.0</ele><time>2026-05-02T11:47:46.999Z</time></trkpt><trkpt lat="46.04471711865635" lon="11.724423516680663"><ele>605.8</ele><time>2026-05-02T11:47:47.999Z</time></trkpt><trkpt lat="46.04464291285902" lon="11.724444253890965"><ele>600.6</ele><time>2026-05-02T11:47:48.999Z</time></trkpt><trkpt lat="46.04455310400407" lon="11.724429179310556"><ele>595.4</ele><time>2026-05-02T11:47:49.999Z</time></trkpt><trkpt lat="46.044431609749836" lon="11.724401413206182"><ele>590.2</ele><time>2026-05-02T11:47:50.999Z</time></trkpt><trkpt lat="46.04431410794243" lon="11.724428361618626"><ele>585.0</ele><time>2026-05-02T11:47:51.999Z</time></trkpt><trkpt lat="46.044183753496725" lon="11.72450092959709"><ele>587.25</ele><time>2026-05-02T11:47:52.999Z</time></trkpt><trkpt lat="46.04404204429798" lon="11.724594132839208"><ele>589.5</ele><time>2026-05-02T11:47:53.999Z</time></trkpt><trkpt lat="46.04392431298155" lon="11.724670197645963"><ele>591.75</ele><time>2026-05-02T11:47:54.999Z</time></trkpt><trkpt lat="46.04381714802943" lon="11.724729942644968"><ele>594.0</ele><time>2026-05-02T11:47:55.999Z</time></trkpt><trkpt lat="46.043720454215155" lon="11.724798580336484"><ele>594.0</ele><time>2026-05-02T11:47:56.999Z</time></trkpt><trkpt lat="46.043615969337004" lon="11.724804599036393"><ele>594.0</ele><time>2026-05-02T11:47:57.999Z</time></trkpt><trkpt lat="46.04352272879521" lon="11.724824337676555"><ele>594.0</ele><time>2026-05-02T11:47:58.999Z</time></trkpt><trkpt lat="46.04344941190976" lon="11.724865698286488"><ele>594.0</ele><time>2026-05-02T11:47:59.999Z</time></trkpt><trkpt lat="46.043372007125335" lon="11.724888911541107"><ele>594.0</ele><time>2026-05-02T11:48:00.999Z</time></trkpt><trkpt lat="46.04326233702554" lon="11.724903262493013"><ele>590.5</ele><time>2026-05-02T11:48:01.999Z</time></trkpt><trkpt lat="46.04313467931864" lon="11.724950077645742"><ele>587.0</ele><time>2026-05-02T11:48:02.999Z</time></trkpt><trkpt lat="46.04302004513084" lon="11.725033007159043"><ele>583.5</ele><time>2026-05-02T11:48:03.999Z</time></trkpt><trkpt lat="46.042909499560466" lon="11.72510850505784"><ele>580.0</ele><time>2026-05-02T11:48:04.999Z</time></trkpt><trkpt lat="46.04280871217231" lon="11.72517375637508"><ele>578.0</ele><time>2026-05-02T11:48:05.999Z</time></trkpt><trkpt lat="46.04270988927236" lon="11.725238239723605"><ele>576.0</ele><time>2026-05-02T11:48:06.999Z</time></trkpt><trkpt lat="46.04261745948409" lon="11.725295623827968"><ele>574.0</ele><time>2026-05-02T11:48:07.999Z</time></trkpt><trkpt lat="46.0425251372928" lon="11.725349225404994"><ele>572.0</ele><time>2026-05-02T11:48:08.999Z</time></trkpt><trkpt lat="46.04244977457654" lon="11.725396400501408"><ele>570.0</ele><time>2026-05-02T11:48:09.999Z</time></trkpt><trkpt lat="46.042390559642534" lon="11.725432775953328"><ele>570.0</ele><time>2026-05-02T11:48:10.999Z</time></trkpt><trkpt lat="46.042343587652894" lon="11.725493863787399"><ele>570.0</ele><time>2026-05-02T11:48:12.999Z</time></trkpt><trkpt lat="46.042421251142656" lon="11.725642042557228"><ele>570.0</ele><time>2026-05-02T11:48:14.999Z</time></trkpt><trkpt lat="46.04252668562608" lon="11.725519957468178"><ele>570.0</ele><time>2026-05-02T11:48:15.999Z</time></trkpt><trkpt lat="46.04263674131593" lon="11.725491400468574"><ele>570.0</ele><time>2026-05-02T11:48:16.999Z</time></trkpt><trkpt lat="46.04276342060779" lon="11.725444736030475"><ele>570.0</ele><time>2026-05-02T11:48:17.999Z</time></trkpt><trkpt lat="46.04289593482196" lon="11.725382746866488"><ele>570.0</ele><time>2026-05-02T11:48:18.999Z</time></trkpt><trkpt lat="46.04302185506257" lon="11.725332210770139"><ele>570.0</ele><time>2026-05-02T11:48:19.999Z</time></trkpt><trkpt lat="46.04313572622807" lon="11.725286691043426"><ele>570.0</ele><time>2026-05-02T11:48:20.999Z</time></trkpt><trkpt lat="46.04325594378985" lon="11.725266660486596"><ele>567.75</ele><time>2026-05-02T11:48:21.999Z</time></trkpt><trkpt lat="46.04338791271723" lon="11.725256146303035"><ele>565.5</ele><time>2026-05-02T11:48:22.999Z</time></trkpt><trkpt lat="46.04351561338382" lon="11.725284492409312"><ele>563.25</ele><time>2026-05-02T11:48:23.999Z</time></trkpt><trkpt lat="46.04363112604139" lon="11.725303581192"><ele>561.0</ele><time>2026-05-02T11:48:24.999Z</time></trkpt><trkpt lat="46.04374053224473" lon="11.72531981297125"><ele>561.0</ele><time>2026-05-02T11:48:25.999Z</time></trkpt><trkpt lat="46.04384196257196" lon="11.725356891550588"><ele>561.0</ele><time>2026-05-02T11:48:26.999Z</time></trkpt><trkpt lat="46.04394813551155" lon="11.725367377213262"><ele>561.0</ele><time>2026-05-02T11:48:27.999Z</time></trkpt><trkpt lat="46.044046012992744" lon="11.725358750743744"><ele>561.0</ele><time>2026-05-02T11:48:28.999Z</time></trkpt><trkpt lat="46.04414816620269" lon="11.725324518125213"><ele>561.0</ele><time>2026-05-02T11:48:29.999Z</time></trkpt><trkpt lat="46.044257338342675" lon="11.725244687154918"><ele>567.0</ele><time>2026-05-02T11:48:30.999Z</time></trkpt><trkpt lat="46.04437628847021" lon="11.7251751105686"><ele>573.0</ele><time>2026-05-02T11:48:31.999Z</time></trkpt><trkpt lat="46.0445006778984" lon="11.725201966982642"><ele>579.0</ele><time>2026-05-02T11:48:32.999Z</time></trkpt><trkpt lat="46.04461883721083" lon="11.725211142876063"><ele>585.0</ele><time>2026-05-02T11:48:33.999Z</time></trkpt><trkpt lat="46.04473229046928" lon="11.725219525165771"><ele>585.0</ele><time>2026-05-02T11:48:34.998Z</time></trkpt><trkpt lat="46.04484113266669" lon="11.725235083159049"><ele>585.0</ele><time>2026-05-02T11:48:35.998Z</time></trkpt><trkpt lat="46.04494431035608" lon="11.725228492033969"><ele>585.0</ele><time>2026-05-02T11:48:36.998Z</time></trkpt><trkpt lat="46.04502525659822" lon="11.72526573052038"><ele>585.0</ele><time>2026-05-02T11:48:37.998Z</time></trkpt><trkpt lat="46.045111468449896" lon="11.725278469212848"><ele>585.0</ele><time>2026-05-02T11:48:38.998Z</time></trkpt><trkpt lat="46.04518863447694" lon="11.725244516046171"><ele>583.0</ele><time>2026-05-02T11:48:39.998Z</time></trkpt><trkpt lat="46.04529885624194" lon="11.72523741629825"><ele>581.0</ele><time>2026-05-02T11:48:40.998Z</time></trkpt><trkpt lat="46.04541275268024" lon="11.725223306858094"><ele>579.0</ele><time>2026-05-02T11:48:41.998Z</time></trkpt><trkpt lat="46.04554033484815" lon="11.725217530596728"><ele>577.0</ele><time>2026-05-02T11:48:42.998Z</time></trkpt><trkpt lat="46.045667947000254" lon="11.7252155111653"><ele>577.0</ele><time>2026-05-02T11:48:43.998Z</time></trkpt><trkpt lat="46.045783115673665" lon="11.72521111727495"><ele>577.0</ele><time>2026-05-02T11:48:44.998Z</time></trkpt><trkpt lat="46.04588389368051" lon="11.725196457971084"><ele>577.0</ele><time>2026-05-02T11:48:45.998Z</time></trkpt><trkpt lat="46.04597332410609" lon="11.725225869542895"><ele>577.0</ele><time>2026-05-02T11:48:46.998Z</time></trkpt><trkpt lat="46.04604685731649" lon="11.725242739491899"><ele>577.0</ele><time>2026-05-02T11:48:47.998Z</time></trkpt><trkpt lat="46.04612110570659" lon="11.725301163240333"><ele>576.6</ele><time>2026-05-02T11:48:48.998Z</time></trkpt><trkpt lat="46.046156892760614" lon="11.725414237515464"><ele>576.2</ele><time>2026-05-02T11:48:49.998Z</time></trkpt><trkpt lat="46.04613645666379" lon="11.725560564250154"><ele>575.8</ele><time>2026-05-02T11:48:51Z</time></trkpt><trkpt lat="46.046130429129065" lon="11.725688286607522"><ele>575.4</ele><time>2026-05-02T11:48:52Z</time></trkpt><trkpt lat="46.04606108698205" lon="11.725799518837999"><ele>575.0</ele><time>2026-05-02T11:48:53Z</time></trkpt><trkpt lat="46.045945805531346" lon="11.725834152403822"><ele>575.0</ele><time>2026-05-02T11:48:54Z</time></trkpt><trkpt lat="46.04581847023042" lon="11.725948179981147"><ele>575.0</ele><time>2026-05-02T11:48:55Z</time></trkpt><trkpt lat="46.045705438139436" lon="11.726060671925586"><ele>575.0</ele><time>2026-05-02T11:48:56Z</time></trkpt><trkpt lat="46.04562139873838" lon="11.726167218927632"><ele>575.0</ele><time>2026-05-02T11:48:57Z</time></trkpt><trkpt lat="46.045555076795" lon="11.726294613998048"><ele>573.0</ele><time>2026-05-02T11:48:58Z</time></trkpt><trkpt lat="46.04546708336057" lon="11.726423558140553"><ele>571.0</ele><time>2026-05-02T11:48:59Z</time></trkpt><trkpt lat="46.04536057793498" lon="11.726509728254875"><ele>569.0</ele><time>2026-05-02T11:49:00Z</time></trkpt><trkpt lat="46.04526796852427" lon="11.726606935970052"><ele>567.0</ele><time>2026-05-02T11:49:01Z</time></trkpt><trkpt lat="46.04517423918335" lon="11.726706444333459"><ele>567.0</ele><time>2026-05-02T11:49:02Z</time></trkpt><trkpt lat="46.04509365989944" lon="11.726809611165214"><ele>567.0</ele><time>2026-05-02T11:49:03Z</time></trkpt><trkpt lat="46.04501198356469" lon="11.726892328266509"><ele>567.0</ele><time>2026-05-02T11:49:04Z</time></trkpt><trkpt lat="46.04494417037679" lon="11.727041567100265"><ele>567.0</ele><time>2026-05-02T11:49:05Z</time></trkpt><trkpt lat="46.04487588143815" lon="11.727170816912155"><ele>567.0</ele><time>2026-05-02T11:49:06Z</time></trkpt><trkpt lat="46.044840371624545" lon="11.727299821127744"><ele>567.2</ele><time>2026-05-02T11:49:07Z</time></trkpt><trkpt lat="46.04483468286309" lon="11.727436615790483"><ele>567.4000000000001</ele><time>2026-05-02T11:49:08Z</time></trkpt><trkpt lat="46.04483048661702" lon="11.727553828632784"><ele>567.5999999999999</ele><time>2026-05-02T11:49:09Z</time></trkpt><trkpt lat="46.044785706722635" lon="11.727687748640529"><ele>567.8</ele><time>2026-05-02T11:49:11Z</time></trkpt><trkpt lat="46.04466407944308" lon="11.727693041360626"><ele>568.0</ele><time>2026-05-02T11:49:12Z</time></trkpt><trkpt lat="46.044534620416016" lon="11.727687377321383"><ele>568.0</ele><time>2026-05-02T11:49:13Z</time></trkpt><trkpt lat="46.044405497588286" lon="11.72769432480402"><ele>568.0</ele><time>2026-05-02T11:49:14Z</time></trkpt><trkpt lat="46.04426395325001" lon="11.727796113611799"><ele>568.0</ele><time>2026-05-02T11:49:15Z</time></trkpt><trkpt lat="46.044164779041395" lon="11.727893630825145"><ele>568.0</ele><time>2026-05-02T11:49:16Z</time></trkpt><trkpt lat="46.04406547013202" lon="11.727951549927026"><ele>566.75</ele><time>2026-05-02T11:49:17Z</time></trkpt><trkpt lat="46.0439803485793" lon="11.728002715650684"><ele>565.5</ele><time>2026-05-02T11:49:18Z</time></trkpt><trkpt lat="46.043883475312605" lon="11.728044442373102"><ele>564.25</ele><time>2026-05-02T11:49:19Z</time></trkpt><trkpt lat="46.0437780509721" lon="11.72817747716454"><ele>563.0</ele><time>2026-05-02T11:49:20Z</time></trkpt><trkpt lat="46.04369944674095" lon="11.728334608665259"><ele>563.0</ele><time>2026-05-02T11:49:21Z</time></trkpt><trkpt lat="46.04363315272368" lon="11.728474293797222"><ele>563.0</ele><time>2026-05-02T11:49:22Z</time></trkpt><trkpt lat="46.043585362716584" lon="11.728632604142545"><ele>563.0</ele><time>2026-05-02T11:49:23Z</time></trkpt><trkpt lat="46.04355445593161" lon="11.728766727716994"><ele>563.0</ele><time>2026-05-02T11:49:24Z</time></trkpt><trkpt lat="46.04350486309822" lon="11.728890864922498"><ele>563.0</ele><time>2026-05-02T11:49:25Z</time></trkpt><trkpt lat="46.04336857531016" lon="11.728975874174488"><ele>567.25</ele><time>2026-05-02T11:49:26Z</time></trkpt><trkpt lat="46.04321354276236" lon="11.7290032138608"><ele>571.5</ele><time>2026-05-02T11:49:27Z</time></trkpt><trkpt lat="46.043106875309505" lon="11.729086717592423"><ele>575.75</ele><time>2026-05-02T11:49:28Z</time></trkpt><trkpt lat="46.04300160840357" lon="11.72914767541022"><ele>580.0</ele><time>2026-05-02T11:49:28.999Z</time></trkpt><trkpt lat="46.042885688036364" lon="11.729193440982984"><ele>580.0</ele><time>2026-05-02T11:49:29.999Z</time></trkpt><trkpt lat="46.04277177306576" lon="11.729232292809137"><ele>580.0</ele><time>2026-05-02T11:49:30.999Z</time></trkpt><trkpt lat="46.04265838717587" lon="11.729308846792952"><ele>580.0</ele><time>2026-05-02T11:49:31.999Z</time></trkpt><trkpt lat="46.04253610547961" lon="11.729399239522941"><ele>580.0</ele><time>2026-05-02T11:49:32.999Z</time></trkpt><trkpt lat="46.04241279606937" lon="11.729495206171153"><ele>583.0</ele><time>2026-05-02T11:49:33.999Z</time></trkpt><trkpt lat="46.04227104165485" lon="11.729645283825601"><ele>586.0</ele><time>2026-05-02T11:49:34.999Z</time></trkpt><trkpt lat="46.042138283170125" lon="11.729769049718783"><ele>589.0</ele><time>2026-05-02T11:49:35.999Z</time></trkpt><trkpt lat="46.0420254863848" lon="11.72983721685336"><ele>589.0</ele><time>2026-05-02T11:49:36.999Z</time></trkpt><trkpt lat="46.04193452026659" lon="11.72990312579606"><ele>589.0</ele><time>2026-05-02T11:49:37.999Z</time></trkpt><trkpt lat="46.041850104650116" lon="11.729913255472876"><ele>589.0</ele><time>2026-05-02T11:49:38.999Z</time></trkpt><trkpt lat="46.04177265562807" lon="11.72995731696503"><ele>589.0</ele><time>2026-05-02T11:49:39.999Z</time></trkpt><trkpt lat="46.041694415980054" lon="11.730077339685572"><ele>589.0</ele><time>2026-05-02T11:49:40.999Z</time></trkpt><trkpt lat="46.041661675450406" lon="11.73022002803639"><ele>589.2</ele><time>2026-05-02T11:49:41.999Z</time></trkpt><trkpt lat="46.04164313226048" lon="11.730334284483348"><ele>589.4</ele><time>2026-05-02T11:49:42.999Z</time></trkpt><trkpt lat="46.04166754303076" lon="11.730464357588575"><ele>589.6</ele><time>2026-05-02T11:49:43.999Z</time></trkpt><trkpt lat="46.04176351293586" lon="11.730546536603676"><ele>589.8</ele><time>2026-05-02T11:49:44.999Z</time></trkpt><trkpt lat="46.041867980653684" lon="11.730661111073445"><ele>590.0</ele><time>2026-05-02T11:49:45.999Z</time></trkpt><trkpt lat="46.04199738443432" lon="11.730761202213476"><ele>590.0</ele><time>2026-05-02T11:49:46.999Z</time></trkpt><trkpt lat="46.04212812662208" lon="11.730855448189432"><ele>590.0</ele><time>2026-05-02T11:49:47.999Z</time></trkpt><trkpt lat="46.0422446361397" lon="11.730932156311168"><ele>590.0</ele><time>2026-05-02T11:49:48.999Z</time></trkpt><trkpt lat="46.04232754832246" lon="11.731032564927498"><ele>590.0</ele><time>2026-05-02T11:49:49.999Z</time></trkpt><trkpt lat="46.04238034132211" lon="11.731131683665735"><ele>587.75</ele><time>2026-05-02T11:49:50.999Z</time></trkpt><trkpt lat="46.042412322775576" lon="11.731237099346945"><ele>585.5</ele><time>2026-05-02T11:49:51.999Z</time></trkpt><trkpt lat="46.04236927720847" lon="11.731400013786397"><ele>583.25</ele><time>2026-05-02T11:49:53.999Z</time></trkpt><trkpt lat="46.04224588544601" lon="11.73141453557519"><ele>581.0</ele><time>2026-05-02T11:49:54.999Z</time></trkpt><trkpt lat="46.04213702906939" lon="11.731525400708309"><ele>581.0</ele><time>2026-05-02T11:49:55.999Z</time></trkpt><trkpt lat="46.04203924350759" lon="11.731663279751064"><ele>581.0</ele><time>2026-05-02T11:49:56.999Z</time></trkpt><trkpt lat="46.04196340334738" lon="11.731794511506445"><ele>581.0</ele><time>2026-05-02T11:49:57.999Z</time></trkpt><trkpt lat="46.04189219002056" lon="11.731920703394334"><ele>581.0</ele><time>2026-05-02T11:49:58.999Z</time></trkpt><trkpt lat="46.04182075227408" lon="11.73205862125316"><ele>585.6666666666666</ele><time>2026-05-02T11:49:59.999Z</time></trkpt><trkpt lat="46.04174174425534" lon="11.732234841045175"><ele>590.3333333333334</ele><time>2026-05-02T11:50:00.999Z</time></trkpt><trkpt lat="46.04167451155596" lon="11.732443187452066"><ele>595.0</ele><time>2026-05-02T11:50:01.999Z</time></trkpt><trkpt lat="46.04162838124095" lon="11.73264420042381"><ele>588.6</ele><time>2026-05-02T11:50:02.999Z</time></trkpt><trkpt lat="46.0415910206274" lon="11.73280962366176"><ele>582.2</ele><time>2026-05-02T11:50:03.999Z</time></trkpt><trkpt lat="46.041554848084886" lon="11.732952326764122"><ele>575.8</ele><time>2026-05-02T11:50:04.999Z</time></trkpt><trkpt lat="46.04153236198117" lon="11.733069625658809"><ele>569.4</ele><time>2026-05-02T11:50:05.999Z</time></trkpt><trkpt lat="46.04143803988916" lon="11.733124513360933"><ele>563.0</ele><time>2026-05-02T11:50:06.999Z</time></trkpt><trkpt lat="46.04136599492202" lon="11.733194179427532"><ele>563.0</ele><time>2026-05-02T11:50:07.999Z</time></trkpt><trkpt lat="46.04131250750171" lon="11.73328572111461"><ele>563.0</ele><time>2026-05-02T11:50:08.999Z</time></trkpt><trkpt lat="46.04128367500438" lon="11.733469678635778"><ele>563.0</ele><time>2026-05-02T11:50:09.999Z</time></trkpt><trkpt lat="46.04129051399935" lon="11.733690606746054"><ele>563.0</ele><time>2026-05-02T11:50:10.999Z</time></trkpt><trkpt lat="46.041304517678775" lon="11.733878581586538"><ele>563.0</ele><time>2026-05-02T11:50:11.999Z</time></trkpt><trkpt lat="46.04131855504042" lon="11.734063580875482"><ele>563.0</ele><time>2026-05-02T11:50:12.999Z</time></trkpt><trkpt lat="46.04134012011581" lon="11.734256702151669"><ele>563.0</ele><time>2026-05-02T11:50:13.999Z</time></trkpt><trkpt lat="46.04137820728532" lon="11.734430189443161"><ele>563.0</ele><time>2026-05-02T11:50:14.999Z</time></trkpt><trkpt lat="46.04140577189384" lon="11.734572342295017"><ele>566.25</ele><time>2026-05-02T11:50:15.999Z</time></trkpt><trkpt lat="46.04140204921756" lon="11.73471529861537"><ele>569.5</ele><time>2026-05-02T11:50:16.999Z</time></trkpt><trkpt lat="46.04134976893186" lon="11.734852759257967"><ele>572.75</ele><time>2026-05-02T11:50:17.999Z</time></trkpt><trkpt lat="46.04123164897977" lon="11.734961031100232"><ele>576.0</ele><time>2026-05-02T11:50:18.999Z</time></trkpt><trkpt lat="46.04112770850196" lon="11.73503272524748"><ele>576.0</ele><time>2026-05-02T11:50:19.999Z</time></trkpt><trkpt lat="46.041056801629004" lon="11.73510937332088"><ele>576.0</ele><time>2026-05-02T11:50:20.999Z</time></trkpt><trkpt lat="46.0409921244317" lon="11.735208918708135"><ele>576.0</ele><time>2026-05-02T11:50:21.999Z</time></trkpt><trkpt lat="46.04094768213603" lon="11.73536212528326"><ele>576.0</ele><time>2026-05-02T11:50:22.999Z</time></trkpt><trkpt lat="46.04091945472972" lon="11.73557091298289"><ele>576.0</ele><time>2026-05-02T11:50:23.999Z</time></trkpt><trkpt lat="46.040884873127574" lon="11.735801499935194"><ele>580.3333333333334</ele><time>2026-05-02T11:50:24.999Z</time></trkpt><trkpt lat="46.04083863410289" lon="11.736044922724458"><ele>584.6666666666667</ele><time>2026-05-02T11:50:25.999Z</time></trkpt><trkpt lat="46.04080975762542" lon="11.736285257405454"><ele>589.0</ele><time>2026-05-02T11:50:26.999Z</time></trkpt><trkpt lat="46.04078157690775" lon="11.736503324257471"><ele>579.75</ele><time>2026-05-02T11:50:27.999Z</time></trkpt><trkpt lat="46.04074761576244" lon="11.736701202605113"><ele>570.5</ele><time>2026-05-02T11:50:28.999Z</time></trkpt><trkpt lat="46.040709486272036" lon="11.736890866904682"><ele>561.25</ele><time>2026-05-02T11:50:29.999Z</time></trkpt><trkpt lat="46.04067583746867" lon="11.737072223715211"><ele>552.0</ele><time>2026-05-02T11:50:30.999Z</time></trkpt><trkpt lat="46.040651408814654" lon="11.73725389220617"><ele>552.0</ele><time>2026-05-02T11:50:31.999Z</time></trkpt><trkpt lat="46.04063107885545" lon="11.737453102953774"><ele>552.0</ele><time>2026-05-02T11:50:32.999Z</time></trkpt><trkpt lat="46.040619278567874" lon="11.737681687904717"><ele>552.0</ele><time>2026-05-02T11:50:33.999Z</time></trkpt><trkpt lat="46.04061642955777" lon="11.737892288272866"><ele>552.0</ele><time>2026-05-02T11:50:34.999Z</time></trkpt><trkpt lat="46.04061459273862" lon="11.738085963474884"><ele>553.25</ele><time>2026-05-02T11:50:35.999Z</time></trkpt><trkpt lat="46.040609894176974" lon="11.738265436651592"><ele>554.5</ele><time>2026-05-02T11:50:36.999Z</time></trkpt><trkpt lat="46.040602769842096" lon="11.73843339197303"><ele>555.75</ele><time>2026-05-02T11:50:37.998Z</time></trkpt><trkpt lat="46.04059513687878" lon="11.738594672884535"><ele>557.0</ele><time>2026-05-02T11:50:38.998Z</time></trkpt><trkpt lat="46.04058783627816" lon="11.738743238964128"><ele>557.5</ele><time>2026-05-02T11:50:39.998Z</time></trkpt><trkpt lat="46.040581061573185" lon="11.738884462365874"><ele>558.0</ele><time>2026-05-02T11:50:40.998Z</time></trkpt><trkpt lat="46.04057805085694" lon="11.739014578681036"><ele>558.5</ele><time>2026-05-02T11:50:41.998Z</time></trkpt><trkpt lat="46.0405752827279" lon="11.73913421083549"><ele>559.0</ele><time>2026-05-02T11:50:42.998Z</time></trkpt><trkpt lat="46.04056726927947" lon="11.739240987146818"><ele>559.5</ele><time>2026-05-02T11:50:43.998Z</time></trkpt><trkpt lat="46.040552598589464" lon="11.739339469072286"><ele>560.0</ele><time>2026-05-02T11:50:44.998Z</time></trkpt><trkpt lat="46.040532465101464" lon="11.739432326172574"><ele>562.0</ele><time>2026-05-02T11:50:45.998Z</time></trkpt><trkpt lat="46.040505815539014" lon="11.739534220889146"><ele>564.0</ele><time>2026-05-02T11:50:46.998Z</time></trkpt><trkpt lat="46.04047397692841" lon="11.739647822468612"><ele>566.0</ele><time>2026-05-02T11:50:47.998Z</time></trkpt><trkpt lat="46.04045140750089" lon="11.739773148791047"><ele>568.0</ele><time>2026-05-02T11:50:48.998Z</time></trkpt><trkpt lat="46.04039768293423" lon="11.739875992545542"><ele>570.0</ele><time>2026-05-02T11:50:49.998Z</time></trkpt><trkpt lat="46.040360017456145" lon="11.739987712991855"><ele>572.0</ele><time>2026-05-02T11:50:50.998Z</time></trkpt><trkpt lat="46.040340037518824" lon="11.740103958351725"><ele>571.9999999999999</ele><time>2026-05-02T11:50:51.998Z</time></trkpt><trkpt lat="46.04030980963031" lon="11.74020952819673"><ele>572.0</ele><time>2026-05-02T11:50:52.998Z</time></trkpt><trkpt lat="46.04026872445237" lon="11.740301857060924"><ele>572.0</ele><time>2026-05-02T11:50:53.998Z</time></trkpt><trkpt lat="46.04024128523078" lon="11.74039998932625"><ele>572.0</ele><time>2026-05-02T11:50:54.998Z</time></trkpt><trkpt lat="46.04021912755524" lon="11.740494522055936"><ele>572.0</ele><time>2026-05-02T11:50:55.998Z</time></trkpt><trkpt lat="46.040200135728284" lon="11.740592672842633"><ele>571.9999999999999</ele><time>2026-05-02T11:50:57Z</time></trkpt><trkpt lat="46.040180456007676" lon="11.740700405183812"><ele>572.0</ele><time>2026-05-02T11:50:58Z</time></trkpt><trkpt lat="46.040182900342046" lon="11.740853422280873"><ele>573.0</ele><time>2026-05-02T11:50:59Z</time></trkpt><trkpt lat="46.04018753728711" lon="11.741031762685637"><ele>574.0</ele><time>2026-05-02T11:51:00Z</time></trkpt><trkpt lat="46.04022073422387" lon="11.74119976689408"><ele>575.0</ele><time>2026-05-02T11:51:01Z</time></trkpt><trkpt lat="46.040259224589285" lon="11.741364588894774"><ele>576.0</ele><time>2026-05-02T11:51:02Z</time></trkpt><trkpt lat="46.040316542060566" lon="11.741511137687024"><ele>576.0</ele><time>2026-05-02T11:51:03Z</time></trkpt><trkpt lat="46.040373075503055" lon="11.741618364983223"><ele>576.0</ele><time>2026-05-02T11:51:04Z</time></trkpt><trkpt lat="46.04045796299598" lon="11.74170850313948"><ele>576.0</ele><time>2026-05-02T11:51:05Z</time></trkpt><trkpt lat="46.04056064066926" lon="11.741801578616364"><ele>576.0</ele><time>2026-05-02T11:51:06Z</time></trkpt><trkpt lat="46.04064614510672" lon="11.741873826164413"><ele>576.0</ele><time>2026-05-02T11:51:07Z</time></trkpt><trkpt lat="46.040720653163156" lon="11.741904965390958"><ele>575.25</ele><time>2026-05-02T11:51:08Z</time></trkpt><trkpt lat="46.04080902049797" lon="11.74188062580829"><ele>574.5</ele><time>2026-05-02T11:51:09Z</time></trkpt><trkpt lat="46.04092747218672" lon="11.741831974452731"><ele>573.75</ele><time>2026-05-02T11:51:10Z</time></trkpt><trkpt lat="46.041063600028224" lon="11.741787920688047"><ele>573.0</ele><time>2026-05-02T11:51:11Z</time></trkpt><trkpt lat="46.041193896090455" lon="11.741749452680843"><ele>573.0</ele><time>2026-05-02T11:51:12Z</time></trkpt><trkpt lat="46.04131703097504" lon="11.741730703729527"><ele>573.0</ele><time>2026-05-02T11:51:13Z</time></trkpt><trkpt lat="46.041442098102635" lon="11.741737805005304"><ele>573.0</ele><time>2026-05-02T11:51:14Z</time></trkpt><trkpt lat="46.04158360144472" lon="11.741803737741613"><ele>573.0</ele><time>2026-05-02T11:51:15Z</time></trkpt><trkpt lat="46.041726183585006" lon="11.741886416288683"><ele>568.25</ele><time>2026-05-02T11:51:16Z</time></trkpt><trkpt lat="46.04179012821375" lon="11.741924454666368"><ele>563.5</ele><time>2026-05-02T11:51:17Z</time></trkpt><trkpt lat="46.041922232921564" lon="11.741986961225223"><ele>558.75</ele><time>2026-05-02T11:51:18Z</time></trkpt><trkpt lat="46.0420472729519" lon="11.742066501673309"><ele>554.0</ele><time>2026-05-02T11:51:19Z</time></trkpt><trkpt lat="46.042157834331334" lon="11.742162587562326"><ele>554.0</ele><time>2026-05-02T11:51:20Z</time></trkpt><trkpt lat="46.04227670995393" lon="11.74220042524633"><ele>554.0</ele><time>2026-05-02T11:51:21Z</time></trkpt><trkpt lat="46.04238654603316" lon="11.74225996575105"><ele>554.0</ele><time>2026-05-02T11:51:22Z</time></trkpt><trkpt lat="46.04249750820822" lon="11.742323918665965"><ele>554.0</ele><time>2026-05-02T11:51:23Z</time></trkpt><trkpt lat="46.04260952184441" lon="11.74236408916022"><ele>555.4</ele><time>2026-05-02T11:51:24Z</time></trkpt><trkpt lat="46.04271810242208" lon="11.742398145025724"><ele>556.8</ele><time>2026-05-02T11:51:25Z</time></trkpt><trkpt lat="46.042816936680325" lon="11.742438092330714"><ele>558.2</ele><time>2026-05-02T11:51:26Z</time></trkpt><trkpt lat="46.04291097068335" lon="11.742479113496772"><ele>559.6</ele><time>2026-05-02T11:51:27Z</time></trkpt><trkpt lat="46.043012949697705" lon="11.742512504282374"><ele>561.0</ele><time>2026-05-02T11:51:28Z</time></trkpt><trkpt lat="46.04311466909538" lon="11.742526953684232"><ele>561.0</ele><time>2026-05-02T11:51:29Z</time></trkpt><trkpt lat="46.04317798127475" lon="11.742505398921326"><ele>561.0</ele><time>2026-05-02T11:51:30Z</time></trkpt><trkpt lat="46.04327138739528" lon="11.74246108790246"><ele>561.0</ele><time>2026-05-02T11:51:31Z</time></trkpt><trkpt lat="46.04333414740598" lon="11.742499138602241"><ele>561.0</ele><time>2026-05-02T11:51:33Z</time></trkpt><trkpt lat="46.04327382890049" lon="11.74256705892565"><ele>561.0</ele><time>2026-05-02T11:51:35Z</time></trkpt><trkpt lat="46.04319849535747" lon="11.742575980993355"><ele>561.0</ele><time>2026-05-02T11:51:37Z</time></trkpt><trkpt lat="46.04307606395728" lon="11.742605871892522"><ele>561.0</ele><time>2026-05-02T11:51:38.999Z</time></trkpt><trkpt lat="46.04299772168111" lon="11.742591251962809"><ele>561.0</ele><time>2026-05-02T11:51:39.999Z</time></trkpt><trkpt lat="46.04292006606957" lon="11.742568730865301"><ele>561.0</ele><time>2026-05-02T11:51:40.999Z</time></trkpt><trkpt lat="46.04284254113418" lon="11.742547458695133"><ele>561.0</ele><time>2026-05-02T11:51:41.999Z</time></trkpt><trkpt lat="46.04276390481059" lon="11.742529116954545"><ele>561.0</ele><time>2026-05-02T11:51:42.999Z</time></trkpt><trkpt lat="46.04268985546568" lon="11.742514789579069"><ele>561.0</ele><time>2026-05-02T11:51:43.999Z</time></trkpt><trkpt lat="46.04261028095839" lon="11.742501132801998"><ele>561.0</ele><time>2026-05-02T11:51:44.999Z</time></trkpt><trkpt lat="46.04252936106798" lon="11.742485428426631"><ele>561.0</ele><time>2026-05-02T11:51:45.999Z</time></trkpt><trkpt lat="46.04245021495458" lon="11.742463447244726"><ele>561.0</ele><time>2026-05-02T11:51:46.999Z</time></trkpt><trkpt lat="46.04236837095822" lon="11.742446943699637"><ele>561.0</ele><time>2026-05-02T11:51:47.999Z</time></trkpt><trkpt lat="46.04229180097072" lon="11.742435857917837"><ele>561.0</ele><time>2026-05-02T11:51:48.999Z</time></trkpt><trkpt lat="46.04221215038305" lon="11.742419500777073"><ele>561.0</ele><time>2026-05-02T11:51:49.999Z</time></trkpt><trkpt lat="46.04214083881991" lon="11.742408515836162"><ele>559.8333333333334</ele><time>2026-05-02T11:51:50.999Z</time></trkpt><trkpt lat="46.04207546220102" lon="11.742405774220881"><ele>558.6666666666666</ele><time>2026-05-02T11:51:51.999Z</time></trkpt><trkpt lat="46.04195578035285" lon="11.742425347304183"><ele>557.5</ele><time>2026-05-02T11:51:53.999Z</time></trkpt><trkpt lat="46.041882605352214" lon="11.742454472956801"><ele>556.3333333333333</ele><time>2026-05-02T11:51:54.999Z</time></trkpt><trkpt lat="46.041804798423314" lon="11.742492952529016"><ele>555.1666666666666</ele><time>2026-05-02T11:51:55.999Z</time></trkpt><trkpt lat="46.04175549434378" lon="11.74257228494641"><ele>554.0</ele><time>2026-05-02T11:51:56.999Z</time></trkpt><trkpt lat="46.04165442340819" lon="11.742653645237132"><ele>552.6666666666666</ele><time>2026-05-02T11:51:58.999Z</time></trkpt><trkpt lat="46.04160155069372" lon="11.74271878306223"><ele>551.3333333333333</ele><time>2026-05-02T11:52:00.999Z</time></trkpt><trkpt lat="46.0415400622408" lon="11.742794711406896"><ele>550.0</ele><time>2026-05-02T11:53:15Z</time></trkpt><trkpt lat="46.04144369383393" lon="11.742919638276842"><ele>548.6666666666666</ele><time>2026-05-02T11:53:17Z</time></trkpt><trkpt lat="46.041391740685896" lon="11.743003764446039"><ele>547.3333333333334</ele><time>2026-05-02T11:53:18Z</time></trkpt><trkpt lat="46.04132883499969" lon="11.743079540089802"><ele>546.0</ele><time>2026-05-02T11:53:19Z</time></trkpt><trkpt lat="46.04124348943811" lon="11.743141388710646"><ele>546.0</ele><time>2026-05-02T11:53:20Z</time></trkpt><trkpt lat="46.04115118612052" lon="11.743215394303052"><ele>546.0</ele><time>2026-05-02T11:53:21Z</time></trkpt><trkpt lat="46.041055183368094" lon="11.743281719188005"><ele>546.0</ele><time>2026-05-02T11:53:22Z</time></trkpt><trkpt lat="46.04096634757367" lon="11.743340705273953"><ele>546.0</ele><time>2026-05-02T11:53:23Z</time></trkpt><trkpt lat="46.04088416148907" lon="11.743400837589189"><ele>546.0</ele><time>2026-05-02T11:53:24Z</time></trkpt><trkpt lat="46.04081475189822" lon="11.743471948698327"><ele>544.8333333333334</ele><time>2026-05-02T11:53:25Z</time></trkpt><trkpt lat="46.04074942564207" lon="11.743502399639876"><ele>543.6666666666666</ele><time>2026-05-02T11:53:26Z</time></trkpt><trkpt lat="46.0406358479098" lon="11.743445739544295"><ele>542.5</ele><time>2026-05-02T11:53:28Z</time></trkpt><trkpt lat="46.04058976662503" lon="11.743369707812064"><ele>541.3333333333333</ele><time>2026-05-02T11:53:29Z</time></trkpt><trkpt lat="46.04053099528467" lon="11.743281482044292"><ele>540.1666666666666</ele><time>2026-05-02T11:53:30Z</time></trkpt><trkpt lat="46.040453774299166" lon="11.743198362825975"><ele>539.0</ele><time>2026-05-02T11:53:31Z</time></trkpt><trkpt lat="46.04036968503268" lon="11.743117495349573"><ele>539.0</ele><time>2026-05-02T11:53:32Z</time></trkpt><trkpt lat="46.040278656396886" lon="11.743061521272358"><ele>539.0</ele><time>2026-05-02T11:53:33Z</time></trkpt><trkpt lat="46.04017577122179" lon="11.74303548234459"><ele>539.0</ele><time>2026-05-02T11:53:34Z</time></trkpt><trkpt lat="46.040065916104034" lon="11.743019487787501"><ele>539.0</ele><time>2026-05-02T11:53:35Z</time></trkpt><trkpt lat="46.03994889760691" lon="11.743009842478735"><ele>539.0</ele><time>2026-05-02T11:53:36Z</time></trkpt><trkpt lat="46.03983672435859" lon="11.74300377972646"><ele>540.5</ele><time>2026-05-02T11:53:37Z</time></trkpt><trkpt lat="46.03972786748489" lon="11.74300371774338"><ele>542.0</ele><time>2026-05-02T11:53:38Z</time></trkpt><trkpt lat="46.03959840927187" lon="11.743044506376672"><ele>543.5</ele><time>2026-05-02T11:53:39Z</time></trkpt><trkpt lat="46.03945256363525" lon="11.743150800122724"><ele>545.0</ele><time>2026-05-02T11:53:40Z</time></trkpt><trkpt lat="46.03931202125069" lon="11.743234454733685"><ele>545.0</ele><time>2026-05-02T11:53:41Z</time></trkpt><trkpt lat="46.03920487802585" lon="11.743330919828876"><ele>545.0</ele><time>2026-05-02T11:53:42Z</time></trkpt><trkpt lat="46.039111253438186" lon="11.743432861567008"><ele>545.0</ele><time>2026-05-02T11:53:43Z</time></trkpt><trkpt lat="46.03900777584063" lon="11.743488017217043"><ele>545.0</ele><time>2026-05-02T11:53:44Z</time></trkpt><trkpt lat="46.03890582313637" lon="11.743524685069485"><ele>544.75</ele><time>2026-05-02T11:53:45Z</time></trkpt><trkpt lat="46.03879203413792" lon="11.743521508194638"><ele>544.5</ele><time>2026-05-02T11:53:46Z</time></trkpt><trkpt lat="46.03867372914699" lon="11.743558790214033"><ele>544.25</ele><time>2026-05-02T11:53:47Z</time></trkpt><trkpt lat="46.03854627521025" lon="11.74356070044722"><ele>544.0</ele><time>2026-05-02T11:53:48Z</time></trkpt><trkpt lat="46.03841978838482" lon="11.743585599661447"><ele>540.0</ele><time>2026-05-02T11:53:49Z</time></trkpt><trkpt lat="46.03830348087005" lon="11.743614999545612"><ele>536.0</ele><time>2026-05-02T11:53:50Z</time></trkpt><trkpt lat="46.03819516414024" lon="11.743629276198076"><ele>532.0</ele><time>2026-05-02T11:53:50.999Z</time></trkpt><trkpt lat="46.03808484969847" lon="11.743647166075975"><ele>528.0</ele><time>2026-05-02T11:53:51.999Z</time></trkpt><trkpt lat="46.037972792820185" lon="11.74365700952558"><ele>528.0</ele><time>2026-05-02T11:53:52.999Z</time></trkpt><trkpt lat="46.03786758283939" lon="11.743656651646212"><ele>528.0</ele><time>2026-05-02T11:53:53.999Z</time></trkpt><trkpt lat="46.037771515455944" lon="11.743641698502401"><ele>528.0</ele><time>2026-05-02T11:53:54.999Z</time></trkpt><trkpt lat="46.037665553625224" lon="11.743614030722592"><ele>528.0</ele><time>2026-05-02T11:53:55.999Z</time></trkpt><trkpt lat="46.03755869883337" lon="11.74356733691763"><ele>528.0</ele><time>2026-05-02T11:53:56.999Z</time></trkpt><trkpt lat="46.03745948523485" lon="11.743517634296277"><ele>527.4</ele><time>2026-05-02T11:53:57.999Z</time></trkpt><trkpt lat="46.037361448839526" lon="11.743461237804015"><ele>526.8</ele><time>2026-05-02T11:53:58.999Z</time></trkpt><trkpt lat="46.03725392349037" lon="11.743405166105557"><ele>526.2</ele><time>2026-05-02T11:53:59.999Z</time></trkpt><trkpt lat="46.03714643008465" lon="11.743352089024254"><ele>525.6</ele><time>2026-05-02T11:54:00.999Z</time></trkpt><trkpt lat="46.03704115463914" lon="11.743304650551234"><ele>525.0</ele><time>2026-05-02T11:54:01.999Z</time></trkpt><trkpt lat="46.03695558193109" lon="11.743259429381547"><ele>525.0</ele><time>2026-05-02T11:54:02.999Z</time></trkpt><trkpt lat="46.0368986326929" lon="11.743201629720494"><ele>525.0</ele><time>2026-05-02T11:54:03.999Z</time></trkpt><trkpt lat="46.03681966544773" lon="11.74310396284284"><ele>525.0</ele><time>2026-05-02T11:54:05.999Z</time></trkpt><trkpt lat="46.036840614351334" lon="11.742986582241732"><ele>525.0</ele><time>2026-05-02T11:54:06.999Z</time></trkpt><trkpt lat="46.03690120551247" lon="11.74287129110055"><ele>525.0</ele><time>2026-05-02T11:54:07.999Z</time></trkpt><trkpt lat="46.03696357087779" lon="11.742738365495276"><ele>524.8</ele><time>2026-05-02T11:54:08.999Z</time></trkpt><trkpt lat="46.03700153485722" lon="11.742592596584446"><ele>524.6</ele><time>2026-05-02T11:54:09.999Z</time></trkpt><trkpt lat="46.03701416227424" lon="11.742430899423722"><ele>524.4</ele><time>2026-05-02T11:54:10.999Z</time></trkpt><trkpt lat="46.03701127943923" lon="11.742292600362918"><ele>524.2</ele><time>2026-05-02T11:54:11.999Z</time></trkpt><trkpt lat="46.037001699104955" lon="11.742163714275465"><ele>524.0</ele><time>2026-05-02T11:54:12.999Z</time></trkpt><trkpt lat="46.03699138958428" lon="11.742039290488876"><ele>524.0</ele><time>2026-05-02T11:54:13.999Z</time></trkpt><trkpt lat="46.03698713240403" lon="11.741927015180982"><ele>524.0</ele><time>2026-05-02T11:54:14.999Z</time></trkpt><trkpt lat="46.03697964872678" lon="11.741820600697887"><ele>524.0</ele><time>2026-05-02T11:54:15.999Z</time></trkpt><trkpt lat="46.03697684580035" lon="11.74171213979141"><ele>524.0</ele><time>2026-05-02T11:54:16.999Z</time></trkpt><trkpt lat="46.03696115328565" lon="11.741615743089916"><ele>524.0</ele><time>2026-05-02T11:54:17.999Z</time></trkpt><trkpt lat="46.03687282514659" lon="11.741537425665289"><ele>524.0</ele><time>2026-05-02T11:54:19.999Z</time></trkpt><trkpt lat="46.036824238726" lon="11.7416032956963"><ele>524.0</ele><time>2026-05-02T11:54:20.999Z</time></trkpt><trkpt lat="46.036796382211485" lon="11.741728331258749"><ele>524.0</ele><time>2026-05-02T11:54:21.999Z</time></trkpt><trkpt lat="46.03681542581454" lon="11.741887349426431"><ele>524.0</ele><time>2026-05-02T11:54:22.999Z</time></trkpt><trkpt lat="46.03681445834124" lon="11.74207440716225"><ele>524.0</ele><time>2026-05-02T11:54:23.999Z</time></trkpt><trkpt lat="46.036787319274445" lon="11.742223455703739"><ele>524.0</ele><time>2026-05-02T11:54:24.999Z</time></trkpt><trkpt lat="46.03674297961694" lon="11.74235522217936"><ele>524.0</ele><time>2026-05-02T11:54:25.999Z</time></trkpt><trkpt lat="46.03669162230503" lon="11.74249697286749"><ele>524.0</ele><time>2026-05-02T11:54:26.999Z</time></trkpt><trkpt lat="46.03660143933831" lon="11.742580216189857"><ele>524.0</ele><time>2026-05-02T11:54:27.999Z</time></trkpt><trkpt lat="46.03648045381774" lon="11.742626511700395"><ele>524.0</ele><time>2026-05-02T11:54:28.999Z</time></trkpt><trkpt lat="46.036360103525645" lon="11.742652918387163"><ele>521.4</ele><time>2026-05-02T11:54:29.999Z</time></trkpt><trkpt lat="46.036255908821865" lon="11.742685855661371"><ele>518.8</ele><time>2026-05-02T11:54:30.999Z</time></trkpt><trkpt lat="46.03616424972296" lon="11.74272275962565"><ele>516.2</ele><time>2026-05-02T11:54:31.999Z</time></trkpt><trkpt lat="46.036079554154135" lon="11.742757710088473"><ele>513.6</ele><time>2026-05-02T11:54:32.999Z</time></trkpt><trkpt lat="46.03599908012902" lon="11.742791564090371"><ele>511.0</ele><time>2026-05-02T11:54:33.999Z</time></trkpt><trkpt lat="46.03591678767631" lon="11.742824214664871"><ele>511.00000000000006</ele><time>2026-05-02T11:54:34.999Z</time></trkpt><trkpt lat="46.03585271128861" lon="11.74287334559987"><ele>511.0</ele><time>2026-05-02T11:54:35.999Z</time></trkpt><trkpt lat="46.03580943842388" lon="11.74295282829078"><ele>511.0</ele><time>2026-05-02T11:54:36.999Z</time></trkpt><trkpt lat="46.03579311323162" lon="11.743041920529244"><ele>511.0</ele><time>2026-05-02T11:54:37.999Z</time></trkpt><trkpt lat="46.03580011048486" lon="11.743141020003048"><ele>511.00000000000006</ele><time>2026-05-02T11:54:38.999Z</time></trkpt><trkpt lat="46.035833957806545" lon="11.743248886983793"><ele>511.0</ele><time>2026-05-02T11:54:39.999Z</time></trkpt><trkpt lat="46.035889668426535" lon="11.743378607034437"><ele>511.0</ele><time>2026-05-02T11:54:40.999Z</time></trkpt><trkpt lat="46.035990815622434" lon="11.743531568234344"><ele>511.0</ele><time>2026-05-02T11:54:42.999Z</time></trkpt><trkpt lat="46.036039421908505" lon="11.743618747350393"><ele>511.0</ele><time>2026-05-02T11:54:43.999Z</time></trkpt><trkpt lat="46.03607031008901" lon="11.743707160466826"><ele>511.0</ele><time>2026-05-02T11:54:44.999Z</time></trkpt><trkpt lat="46.036112132736875" lon="11.743834905402377"><ele>511.0</ele><time>2026-05-02T11:54:46.999Z</time></trkpt><trkpt lat="46.03601908898918" lon="11.743885697842051"><ele>510.33333333333337</ele><time>2026-05-02T11:54:48.999Z</time></trkpt><trkpt lat="46.035937436882655" lon="11.743844744486813"><ele>509.6666666666667</ele><time>2026-05-02T11:54:49.999Z</time></trkpt><trkpt lat="46.03583738451498" lon="11.743822881205334"><ele>509.0</ele><time>2026-05-02T11:54:50.999Z</time></trkpt><trkpt lat="46.0357470173047" lon="11.743803871760832"><ele>508.33333333333337</ele><time>2026-05-02T11:54:51.999Z</time></trkpt><trkpt lat="46.03566318327939" lon="11.74380939272123"><ele>507.6666666666667</ele><time>2026-05-02T11:54:52.999Z</time></trkpt><trkpt lat="46.03559053851616" lon="11.743780342414126"><ele>507.0</ele><time>2026-05-02T11:54:53.999Z</time></trkpt><trkpt lat="46.03549503049679" lon="11.743756484456815"><ele>505.40000000000003</ele><time>2026-05-02T11:54:55.999Z</time></trkpt><trkpt lat="46.0354206177249" lon="11.743728228846821"><ele>503.80000000000007</ele><time>2026-05-02T11:54:57.999Z</time></trkpt><trkpt lat="46.03541495151533" lon="11.743930468137096"><ele>502.2</ele><time>2026-05-02T11:55:01.999Z</time></trkpt><trkpt lat="46.03544640869164" lon="11.744057803586719"><ele>500.6</ele><time>2026-05-02T11:55:02.998Z</time></trkpt><trkpt lat="46.03547209506658" lon="11.744168104561838"><ele>499.0</ele><time>2026-05-02T11:55:03.998Z</time></trkpt><trkpt lat="46.03550881809229" lon="11.744299143767789"><ele>499.0</ele><time>2026-05-02T11:55:04.998Z</time></trkpt><trkpt lat="46.035586850218856" lon="11.74442970432991"><ele>499.0</ele><time>2026-05-02T11:55:05.998Z</time></trkpt><trkpt lat="46.035692591100016" lon="11.74453767741672"><ele>499.0</ele><time>2026-05-02T11:55:06.998Z</time></trkpt><trkpt lat="46.03579287430328" lon="11.74463621720454"><ele>499.0</ele><time>2026-05-02T11:55:07.998Z</time></trkpt><trkpt lat="46.03585411264663" lon="11.74477211062453"><ele>499.0</ele><time>2026-05-02T11:55:09Z</time></trkpt><trkpt lat="46.03589666700319" lon="11.74490676205509"><ele>499.0</ele><time>2026-05-02T11:55:10Z</time></trkpt><trkpt lat="46.03593097674037" lon="11.745045754937532"><ele>499.0</ele><time>2026-05-02T11:55:11Z</time></trkpt><trkpt lat="46.03594431083228" lon="11.74516929434913"><ele>499.0</ele><time>2026-05-02T11:55:12Z</time></trkpt><trkpt lat="46.03596826700939" lon="11.745287343292116"><ele>499.0</ele><time>2026-05-02T11:55:13Z</time></trkpt><trkpt lat="46.03596778300902" lon="11.745408129923053"><ele>496.83333333333337</ele><time>2026-05-02T11:55:14Z</time></trkpt><trkpt lat="46.035974951945235" lon="11.745520313588925"><ele>494.6666666666667</ele><time>2026-05-02T11:55:15Z</time></trkpt><trkpt lat="46.03600806531693" lon="11.745623531447572"><ele>492.5</ele><time>2026-05-02T11:55:16Z</time></trkpt><trkpt lat="46.03607124845876" lon="11.745721367042972"><ele>490.33333333333337</ele><time>2026-05-02T11:55:17Z</time></trkpt><trkpt lat="46.03616263228107" lon="11.745763178252693"><ele>488.1666666666667</ele><time>2026-05-02T11:55:18Z</time></trkpt><trkpt lat="46.03624295369768" lon="11.745730409896764"><ele>486.0</ele><time>2026-05-02T11:55:19Z</time></trkpt><trkpt lat="46.03631833052898" lon="11.74562035350323"><ele>486.0</ele><time>2026-05-02T11:55:20Z</time></trkpt><trkpt lat="46.036411565396826" lon="11.745536944376468"><ele>486.0</ele><time>2026-05-02T11:55:21Z</time></trkpt><trkpt lat="46.03649331218488" lon="11.745488002591774"><ele>486.0</ele><time>2026-05-02T11:55:22Z</time></trkpt><trkpt lat="46.0365606643563" lon="11.745541355695135"><ele>486.0</ele><time>2026-05-02T11:55:23Z</time></trkpt><trkpt lat="46.036636065685016" lon="11.74560286048349"><ele>486.0</ele><time>2026-05-02T11:55:24Z</time></trkpt><trkpt lat="46.03671500291758" lon="11.745664801696774"><ele>489.4</ele><time>2026-05-02T11:55:25Z</time></trkpt><trkpt lat="46.03678163055135" lon="11.745720268893702"><ele>492.8</ele><time>2026-05-02T11:55:26Z</time></trkpt><trkpt lat="46.03684155515737" lon="11.745870217790129"><ele>496.19999999999993</ele><time>2026-05-02T11:55:28Z</time></trkpt><trkpt lat="46.03681872061258" lon="11.745959040258365"><ele>499.59999999999997</ele><time>2026-05-02T11:55:29Z</time></trkpt><trkpt lat="46.036727742210424" lon="11.746063144450998"><ele>503.0</ele><time>2026-05-02T11:55:31Z</time></trkpt><trkpt lat="46.03665660545307" lon="11.74606217405603"><ele>498.16666666666663</ele><time>2026-05-02T11:55:34Z</time></trkpt><trkpt lat="46.036594259639" lon="11.746109248462243"><ele>493.3333333333333</ele><time>2026-05-02T11:55:39Z</time></trkpt><trkpt lat="46.03652395799357" lon="11.746177365494297"><ele>488.5</ele><time>2026-05-02T11:55:43Z</time></trkpt><trkpt lat="46.036476728989946" lon="11.746244939523724"><ele>483.66666666666663</ele><time>2026-05-02T11:55:45Z</time></trkpt><trkpt lat="46.03641871175053" lon="11.746316449059966"><ele>478.8333333333333</ele><time>2026-05-02T11:55:47Z</time></trkpt><trkpt lat="46.03634011762973" lon="11.746457255286002"><ele>474.0</ele><time>2026-05-02T11:55:49Z</time></trkpt><trkpt lat="46.036290973489386" lon="11.746559299174312"><ele>474.0</ele><time>2026-05-02T11:55:50Z</time></trkpt><trkpt lat="46.03625295627927" lon="11.746658889416556"><ele>474.0</ele><time>2026-05-02T11:55:51Z</time></trkpt><trkpt lat="46.03622008331794" lon="11.74677480190304"><ele>474.0</ele><time>2026-05-02T11:55:51.999Z</time></trkpt><trkpt lat="46.03626026242586" lon="11.746940694971169"><ele>474.0</ele><time>2026-05-02T11:55:52.999Z</time></trkpt><trkpt lat="46.036295140695195" lon="11.747105530936018"><ele>474.0</ele><time>2026-05-02T11:55:53.999Z</time></trkpt><trkpt lat="46.036337122402315" lon="11.747248472376954"><ele>475.6</ele><time>2026-05-02T11:55:54.999Z</time></trkpt><trkpt lat="46.036362352037024" lon="11.747362120574254"><ele>477.2</ele><time>2026-05-02T11:55:55.999Z</time></trkpt><trkpt lat="46.036334667166194" lon="11.747454887473182"><ele>478.80000000000007</ele><time>2026-05-02T11:55:56.999Z</time></trkpt><trkpt lat="46.03626558689011" lon="11.747551995969994"><ele>480.40000000000003</ele><time>2026-05-02T11:55:57.999Z</time></trkpt><trkpt lat="46.03615546351452" lon="11.747560301495232"><ele>482.0</ele><time>2026-05-02T11:55:58.999Z</time></trkpt><trkpt lat="46.03604712649149" lon="11.747607181563104"><ele>476.75</ele><time>2026-05-02T11:55:59.999Z</time></trkpt><trkpt lat="46.035948352627095" lon="11.74771886753836"><ele>471.5</ele><time>2026-05-02T11:56:00.999Z</time></trkpt><trkpt lat="46.03583996945351" lon="11.747843426556404"><ele>466.25</ele><time>2026-05-02T11:56:01.999Z</time></trkpt><trkpt lat="46.0357404874002" lon="11.747982163390189"><ele>461.0</ele><time>2026-05-02T11:56:02.999Z</time></trkpt><trkpt lat="46.03565229547199" lon="11.748108395977289"><ele>461.0</ele><time>2026-05-02T11:56:03.999Z</time></trkpt><trkpt lat="46.03557308643772" lon="11.748232375315519"><ele>461.0</ele><time>2026-05-02T11:56:04.999Z</time></trkpt><trkpt lat="46.03549517833793" lon="11.748382139575721"><ele>461.0</ele><time>2026-05-02T11:56:05.999Z</time></trkpt><trkpt lat="46.03543228518376" lon="11.748547915083408"><ele>461.0</ele><time>2026-05-02T11:56:06.999Z</time></trkpt><trkpt lat="46.03538732719346" lon="11.748748995595609"><ele>462.4</ele><time>2026-05-02T11:56:07.999Z</time></trkpt><trkpt lat="46.03536955392881" lon="11.74893127409558"><ele>463.8</ele><time>2026-05-02T11:56:08.999Z</time></trkpt><trkpt lat="46.03535705668217" lon="11.749090671827993"><ele>465.19999999999993</ele><time>2026-05-02T11:56:09.999Z</time></trkpt><trkpt lat="46.035354157727525" lon="11.749234092476202"><ele>466.59999999999997</ele><time>2026-05-02T11:56:10.999Z</time></trkpt><trkpt lat="46.03535371504762" lon="11.749382050777351"><ele>468.0</ele><time>2026-05-02T11:56:11.999Z</time></trkpt><trkpt lat="46.03536510288527" lon="11.749541280872249"><ele>468.2</ele><time>2026-05-02T11:56:12.999Z</time></trkpt><trkpt lat="46.03534544006388" lon="11.74969518950869"><ele>468.4</ele><time>2026-05-02T11:56:13.999Z</time></trkpt><trkpt lat="46.03532880118139" lon="11.749817940168242"><ele>468.59999999999997</ele><time>2026-05-02T11:56:14.999Z</time></trkpt><trkpt lat="46.0353251218239" lon="11.749964825245057"><ele>468.79999999999995</ele><time>2026-05-02T11:56:15.999Z</time></trkpt><trkpt lat="46.035329699285214" lon="11.750170066800175"><ele>469.0</ele><time>2026-05-02T11:56:16.999Z</time></trkpt><trkpt lat="46.035407618567106" lon="11.750402097812305"><ele>464.6666666666667</ele><time>2026-05-02T11:56:17.999Z</time></trkpt><trkpt lat="46.03550073222476" lon="11.750643852299389"><ele>460.33333333333337</ele><time>2026-05-02T11:56:18.999Z</time></trkpt><trkpt lat="46.03558859374936" lon="11.750862094152566"><ele>456.0</ele><time>2026-05-02T11:56:19.999Z</time></trkpt><trkpt lat="46.03563872398605" lon="11.751090401301251"><ele>454.33333333333337</ele><time>2026-05-02T11:56:20.999Z</time></trkpt><trkpt lat="46.03571587449506" lon="11.751290545210695"><ele>452.6666666666667</ele><time>2026-05-02T11:56:21.999Z</time></trkpt><trkpt lat="46.0358044184052" lon="11.751477721208305"><ele>451.0</ele><time>2026-05-02T11:56:22.999Z</time></trkpt><trkpt lat="46.03587890609748" lon="11.751682421739364"><ele>458.33333333333337</ele><time>2026-05-02T11:56:23.999Z</time></trkpt><trkpt lat="46.03593181822378" lon="11.751898907872405"><ele>465.66666666666663</ele><time>2026-05-02T11:56:24.999Z</time></trkpt><trkpt lat="46.035978566136464" lon="11.752118913343063"><ele>473.0</ele><time>2026-05-02T11:56:25.999Z</time></trkpt><trkpt lat="46.035990694962464" lon="11.752333662679108"><ele>473.0</ele><time>2026-05-02T11:56:26.999Z</time></trkpt><trkpt lat="46.036029692595946" lon="11.752534637868258"><ele>473.0</ele><time>2026-05-02T11:56:27.999Z</time></trkpt><trkpt lat="46.03607909941371" lon="11.752720158665133"><ele>473.0</ele><time>2026-05-02T11:56:28.999Z</time></trkpt><trkpt lat="46.03609604157934" lon="11.752900245590745"><ele>473.0</ele><time>2026-05-02T11:56:29.999Z</time></trkpt><trkpt lat="46.0361047679656" lon="11.753080598134778"><ele>471.75</ele><time>2026-05-02T11:56:30.999Z</time></trkpt><trkpt lat="46.03608755679508" lon="11.75327252856808"><ele>470.5</ele><time>2026-05-02T11:56:31.999Z</time></trkpt><trkpt lat="46.036037041112124" lon="11.753463210885055"><ele>469.25</ele><time>2026-05-02T11:56:32.999Z</time></trkpt><trkpt lat="46.03596267511104" lon="11.753637028518165"><ele>468.0</ele><time>2026-05-02T11:56:33.999Z</time></trkpt><trkpt lat="46.03589125887276" lon="11.753810188836407"><ele>468.0</ele><time>2026-05-02T11:56:34.999Z</time></trkpt><trkpt lat="46.03583493080116" lon="11.754001987613412"><ele>468.0</ele><time>2026-05-02T11:56:35.999Z</time></trkpt><trkpt lat="46.03581393874392" lon="11.754184755217407"><ele>468.0</ele><time>2026-05-02T11:56:36.999Z</time></trkpt><trkpt lat="46.035785346269755" lon="11.754323457259128"><ele>468.0</ele><time>2026-05-02T11:56:37.999Z</time></trkpt><trkpt lat="46.03573848112134" lon="11.75446615207443"><ele>465.66666666666663</ele><time>2026-05-02T11:56:38.999Z</time></trkpt><trkpt lat="46.03559348873613" lon="11.75452505248011"><ele>463.3333333333333</ele><time>2026-05-02T11:56:39.999Z</time></trkpt><trkpt lat="46.0354263211589" lon="11.754651511145546"><ele>461.0</ele><time>2026-05-02T11:56:40.999Z</time></trkpt><trkpt lat="46.03524136153562" lon="11.754768532701007"><ele>461.0</ele><time>2026-05-02T11:56:41.999Z</time></trkpt><trkpt lat="46.03508213622571" lon="11.754882281422212"><ele>461.0</ele><time>2026-05-02T11:56:42.999Z</time></trkpt><trkpt lat="46.03493878074656" lon="11.754981714063021"><ele>461.0</ele><time>2026-05-02T11:56:43.999Z</time></trkpt><trkpt lat="46.03480636838039" lon="11.755077310152675"><ele>460.25</ele><time>2026-05-02T11:56:44.999Z</time></trkpt><trkpt lat="46.03468240195338" lon="11.755159523691317"><ele>459.5</ele><time>2026-05-02T11:56:45.999Z</time></trkpt><trkpt lat="46.03456508692522" lon="11.755240708229973"><ele>458.75</ele><time>2026-05-02T11:56:46.999Z</time></trkpt><trkpt lat="46.0344590236958" lon="11.75531288706542"><ele>458.0</ele><time>2026-05-02T11:56:47.999Z</time></trkpt><trkpt lat="46.03435816544277" lon="11.755390103252608"><ele>458.0</ele><time>2026-05-02T11:56:48.999Z</time></trkpt><trkpt lat="46.03425409628752" lon="11.75546782162738"><ele>457.99999999999994</ele><time>2026-05-02T11:56:49.999Z</time></trkpt><trkpt lat="46.03416719711267" lon="11.755524405048337"><ele>457.99999999999994</ele><time>2026-05-02T11:56:50.999Z</time></trkpt><trkpt lat="46.03408485071753" lon="11.755555885193314"><ele>458.0</ele><time>2026-05-02T11:56:51.999Z</time></trkpt><trkpt lat="46.034006439137485" lon="11.755572575078318"><ele>458.0</ele><time>2026-05-02T11:56:52.999Z</time></trkpt><trkpt lat="46.03392914531138" lon="11.755585791970011"><ele>459.66666666666663</ele><time>2026-05-02T11:56:53.999Z</time></trkpt><trkpt lat="46.03385608419117" lon="11.755590911222997"><ele>461.3333333333333</ele><time>2026-05-02T11:56:54.999Z</time></trkpt><trkpt lat="46.033788126499765" lon="11.755594140927222"><ele>463.0</ele><time>2026-05-02T11:56:55.999Z</time></trkpt><trkpt lat="46.03371991775094" lon="11.755590886910946"><ele>464.66666666666663</ele><time>2026-05-02T11:56:56.999Z</time></trkpt><trkpt lat="46.033658117214756" lon="11.755569707433777"><ele>466.3333333333333</ele><time>2026-05-02T11:56:57.999Z</time></trkpt><trkpt lat="46.03354556792612" lon="11.755506896831687"><ele>468.0</ele><time>2026-05-02T11:56:59.999Z</time></trkpt><trkpt lat="46.03346546895553" lon="11.75544384480533"><ele>468.0</ele><time>2026-05-02T11:57:01.999Z</time></trkpt><trkpt lat="46.03339849391078" lon="11.755409977622028"><ele>468.0</ele><time>2026-05-02T11:57:05.998Z</time></trkpt><trkpt lat="46.0334580770338" lon="11.755451395803197"><ele>468.0</ele><time>2026-05-02T11:57:09.998Z</time></trkpt><trkpt lat="46.033509473808834" lon="11.755840407858006"><ele>468.0</ele><time>2026-05-02T11:57:10.998Z</time></trkpt><trkpt lat="46.033539312690365" lon="11.755585143891405"><ele>468.0</ele><time>2026-05-02T11:57:12.998Z</time></trkpt><trkpt lat="46.03361620128837" lon="11.755605004537475"><ele>468.0</ele><time>2026-05-02T11:57:14.999Z</time></trkpt><trkpt lat="46.0336958976955" lon="11.755616615942387"><ele>468.0</ele><time>2026-05-02T11:57:16Z</time></trkpt><trkpt lat="46.03378851109864" lon="11.75562920230327"><ele>468.0</ele><time>2026-05-02T11:57:17Z</time></trkpt><trkpt lat="46.033870346087824" lon="11.755638943720959"><ele>468.0</ele><time>2026-05-02T11:57:18Z</time></trkpt><trkpt lat="46.03393882004385" lon="11.755629632987063"><ele>468.0</ele><time>2026-05-02T11:57:19Z</time></trkpt><trkpt lat="46.03400267740085" lon="11.755605846144446"><ele>468.0</ele><time>2026-05-02T11:57:20Z</time></trkpt><trkpt lat="46.03409256389408" lon="11.755584627702383"><ele>468.0</ele><time>2026-05-02T11:57:22Z</time></trkpt><trkpt lat="46.03411718510103" lon="11.755687299829077"><ele>468.0</ele><time>2026-05-02T11:57:25Z</time></trkpt><trkpt lat="46.034078255454105" lon="11.755785641948846"><ele>468.0</ele><time>2026-05-02T11:57:27Z</time></trkpt><trkpt lat="46.03396857537585" lon="11.755793921674"><ele>468.0</ele><time>2026-05-02T11:57:28Z</time></trkpt><trkpt lat="46.03389065747983" lon="11.755817784315823"><ele>468.0</ele><time>2026-05-02T11:57:29Z</time></trkpt><trkpt lat="46.03375716963819" lon="11.755846534908011"><ele>468.0</ele><time>2026-05-02T11:57:31Z</time></trkpt><trkpt lat="46.033672024733654" lon="11.755863209040852"><ele>468.0</ele><time>2026-05-02T11:57:32Z</time></trkpt><trkpt lat="46.033583693063335" lon="11.755852061452227"><ele>468.0</ele><time>2026-05-02T11:57:33Z</time></trkpt><trkpt lat="46.03350230582821" lon="11.755894689688857"><ele>468.0</ele><time>2026-05-02T11:57:34Z</time></trkpt><trkpt lat="46.033415296209355" lon="11.755918827240873"><ele>468.0</ele><time>2026-05-02T11:57:35Z</time></trkpt><trkpt lat="46.0333476014709" lon="11.755917253417632"><ele>468.0</ele><time>2026-05-02T11:57:36Z</time></trkpt><trkpt lat="46.03327796677278" lon="11.75593869548759"><ele>468.1666666666667</ele><time>2026-05-02T11:57:37Z</time></trkpt><trkpt lat="46.033215295877824" lon="11.755972725281957"><ele>468.33333333333337</ele><time>2026-05-02T11:57:38Z</time></trkpt><trkpt lat="46.03315125536848" lon="11.756033000384571"><ele>468.5</ele><time>2026-05-02T11:57:39Z</time></trkpt><trkpt lat="46.03307594605587" lon="11.756035989576528"><ele>468.6666666666667</ele><time>2026-05-02T11:57:40Z</time></trkpt><trkpt lat="46.032990779554645" lon="11.75608927596934"><ele>468.83333333333337</ele><time>2026-05-02T11:57:41Z</time></trkpt><trkpt lat="46.03293891543215" lon="11.756141848087605"><ele>469.0</ele><time>2026-05-02T11:57:42Z</time></trkpt><trkpt lat="46.03284400380566" lon="11.756273484421346"><ele>468.0</ele><time>2026-05-02T11:57:44Z</time></trkpt><trkpt lat="46.0327760758345" lon="11.75640049031805"><ele>467.0</ele><time>2026-05-02T11:57:46Z</time></trkpt><trkpt lat="46.032728603978796" lon="11.756574104102413"><ele>466.0</ele><time>2026-05-02T11:57:48Z</time></trkpt><trkpt lat="46.03271630032692" lon="11.75669751539021"><ele>465.0</ele><time>2026-05-02T11:57:49Z</time></trkpt><trkpt lat="46.032699417432276" lon="11.756827200522023"><ele>464.0</ele><time>2026-05-02T11:57:50Z</time></trkpt><trkpt lat="46.03268136909805" lon="11.756938090152383"><ele>462.99999999999994</ele><time>2026-05-02T11:57:51Z</time></trkpt><trkpt lat="46.03264075865907" lon="11.757018051563369"><ele>462.0</ele><time>2026-05-02T11:57:52Z</time></trkpt><trkpt lat="46.03258775324775" lon="11.757102945726356"><ele>461.0</ele><time>2026-05-02T11:57:52.999Z</time></trkpt><trkpt lat="46.03255493005981" lon="11.757191341026955"><ele>460.0</ele><time>2026-05-02T11:57:53.999Z</time></trkpt><trkpt lat="46.032497765022214" lon="11.757237335888753"><ele>458.99999999999994</ele><time>2026-05-02T11:57:54.999Z</time></trkpt><trkpt lat="46.03243441477146" lon="11.757346159575343"><ele>458.0</ele><time>2026-05-02T11:57:56.999Z</time></trkpt><trkpt lat="46.032439638484604" lon="11.757480089873878"><ele>457.99999999999994</ele><time>2026-05-02T11:57:58.999Z</time></trkpt><trkpt lat="46.03248219105433" lon="11.757580395321355"><ele>458.0</ele><time>2026-05-02T11:58:00.999Z</time></trkpt><trkpt lat="46.03252535966287" lon="11.757681888617281"><ele>458.0</ele><time>2026-05-02T11:58:03.999Z</time></trkpt><trkpt lat="46.0324876308968" lon="11.757594022517408"><ele>458.0</ele><time>2026-05-02T11:59:07.999Z</time></trkpt><trkpt lat="46.03244610890032" lon="11.757466536380385"><ele>457.99999999999994</ele><time>2026-05-02T11:59:09.999Z</time></trkpt><trkpt lat="46.032425530890606" lon="11.757372940373124"><ele>458.0</ele><time>2026-05-02T11:59:11.999Z</time></trkpt><trkpt lat="46.03249142851193" lon="11.757245007107448"><ele>458.0</ele><time>2026-05-02T11:59:12.999Z</time></trkpt><trkpt lat="46.03256618013425" lon="11.757144502647227"><ele>457.99999999999994</ele><time>2026-05-02T11:59:13.999Z</time></trkpt><trkpt lat="46.032607427689875" lon="11.757070598108458"><ele>457.99999999999994</ele><time>2026-05-02T11:59:14.999Z</time></trkpt><trkpt lat="46.032683202722886" lon="11.756919840671193"><ele>458.0</ele><time>2026-05-02T11:59:16.998Z</time></trkpt><trkpt lat="46.03271321467408" lon="11.756717416427243"><ele>458.0</ele><time>2026-05-02T11:59:18.998Z</time></trkpt><trkpt lat="46.03272623739015" lon="11.756602687979402"><ele>460.0</ele><time>2026-05-02T11:59:19.998Z</time></trkpt><trkpt lat="46.03276051563684" lon="11.756435841385787"><ele>462.0</ele><time>2026-05-02T11:59:22Z</time></trkpt><trkpt lat="46.03282705040002" lon="11.756303124315707"><ele>464.0</ele><time>2026-05-02T11:59:24Z</time></trkpt><trkpt lat="46.033043963308984" lon="11.756242430137096"><ele>464.0</ele><time>2026-05-02T11:59:27Z</time></trkpt><trkpt lat="46.03307680636649" lon="11.756114287467183"><ele>464.0</ele><time>2026-05-02T11:59:28Z</time></trkpt><trkpt lat="46.03316271603642" lon="11.756015716487747"><ele>464.0</ele><time>2026-05-02T11:59:30Z</time></trkpt><trkpt lat="46.03327072655789" lon="11.755952422709537"><ele>464.0</ele><time>2026-05-02T11:59:32Z</time></trkpt><trkpt lat="46.03333916039723" lon="11.755925698640045"><ele>464.0</ele><time>2026-05-02T11:59:33Z</time></trkpt><trkpt lat="46.03341404949206" lon="11.755904770894581"><ele>464.66666666666663</ele><time>2026-05-02T11:59:34Z</time></trkpt><trkpt lat="46.033493994526566" lon="11.755877632102427"><ele>465.3333333333333</ele><time>2026-05-02T11:59:35Z</time></trkpt><trkpt lat="46.033582859089684" lon="11.755853847917717"><ele>466.0</ele><time>2026-05-02T11:59:36Z</time></trkpt><trkpt lat="46.03367622369498" lon="11.755853025544939"><ele>466.66666666666663</ele><time>2026-05-02T11:59:37Z</time></trkpt><trkpt lat="46.03377160962336" lon="11.755842987783447"><ele>467.3333333333333</ele><time>2026-05-02T11:59:38Z</time></trkpt><trkpt lat="46.03385454995122" lon="11.755827206489586"><ele>468.0</ele><time>2026-05-02T11:59:39Z</time></trkpt><trkpt lat="46.03393133618173" lon="11.755806019490691"><ele>468.0</ele><time>2026-05-02T11:59:40Z</time></trkpt><trkpt lat="46.03400247312361" lon="11.755774233059302"><ele>468.0</ele><time>2026-05-02T11:59:41Z</time></trkpt><trkpt lat="46.03410137690837" lon="11.75571682632149"><ele>468.0</ele><time>2026-05-02T11:59:43Z</time></trkpt><trkpt lat="46.03414007270746" lon="11.755627304861866"><ele>468.0</ele><time>2026-05-02T11:59:45Z</time></trkpt><trkpt lat="46.03405858215803" lon="11.755551466515966"><ele>468.0</ele><time>2026-05-02T11:59:48Z</time></trkpt><trkpt lat="46.03396454713691" lon="11.7555744684472"><ele>468.0</ele><time>2026-05-02T11:59:49Z</time></trkpt><trkpt lat="46.03384891401056" lon="11.755599669558976"><ele>468.0</ele><time>2026-05-02T11:59:50Z</time></trkpt><trkpt lat="46.033701665190804" lon="11.755597802378658"><ele>468.0</ele><time>2026-05-02T11:59:51Z</time></trkpt><trkpt lat="46.03357747305657" lon="11.755551269756937"><ele>468.0</ele><time>2026-05-02T11:59:52Z</time></trkpt><trkpt lat="46.033428667683324" lon="11.75544957721774"><ele>468.0</ele><time>2026-05-02T11:59:53Z</time></trkpt><trkpt lat="46.03330263198358" lon="11.75532914872008"><ele>470.0</ele><time>2026-05-02T11:59:54Z</time></trkpt><trkpt lat="46.03319739513206" lon="11.755186712344209"><ele>472.0</ele><time>2026-05-02T11:59:55Z</time></trkpt><trkpt lat="46.033124466443596" lon="11.7550086174943"><ele>474.0</ele><time>2026-05-02T11:59:56Z</time></trkpt><trkpt lat="46.033035583884796" lon="11.754854127354763"><ele>476.0</ele><time>2026-05-02T11:59:57Z</time></trkpt><trkpt lat="46.03293810141304" lon="11.754722142030126"><ele>476.0</ele><time>2026-05-02T11:59:58Z</time></trkpt><trkpt lat="46.0328671906503" lon="11.754580040835474"><ele>476.0</ele><time>2026-05-02T11:59:59Z</time></trkpt><trkpt lat="46.03279714267007" lon="11.75443090683187"><ele>476.0</ele><time>2026-05-02T12:00:00Z</time></trkpt><trkpt lat="46.032728433585774" lon="11.754262417001728"><ele>476.0</ele><time>2026-05-02T12:00:01Z</time></trkpt><trkpt lat="46.03269257518515" lon="11.754053488766463"><ele>475.75</ele><time>2026-05-02T12:00:02Z</time></trkpt><trkpt lat="46.032652402443254" lon="11.753818713701337"><ele>475.5</ele><time>2026-05-02T12:00:02.999Z</time></trkpt><trkpt lat="46.03264480983801" lon="11.753609032361478"><ele>475.25</ele><time>2026-05-02T12:00:03.999Z</time></trkpt><trkpt lat="46.03261979987575" lon="11.75344830500638"><ele>475.0</ele><time>2026-05-02T12:00:04.999Z</time></trkpt><trkpt lat="46.03256771015708" lon="11.753328886320249"><ele>470.25</ele><time>2026-05-02T12:00:05.999Z</time></trkpt><trkpt lat="46.03249177434113" lon="11.753223342797336"><ele>465.5</ele><time>2026-05-02T12:00:06.999Z</time></trkpt><trkpt lat="46.03236181290122" lon="11.753168473835053"><ele>460.75</ele><time>2026-05-02T12:00:07.999Z</time></trkpt><trkpt lat="46.03222967150367" lon="11.753194008591912"><ele>456.0</ele><time>2026-05-02T12:00:08.999Z</time></trkpt><trkpt lat="46.0320948383867" lon="11.753302956464921"><ele>455.33333333333337</ele><time>2026-05-02T12:00:09.999Z</time></trkpt><trkpt lat="46.031947935612514" lon="11.753461166939507"><ele>454.6666666666667</ele><time>2026-05-02T12:00:10.999Z</time></trkpt><trkpt lat="46.03182145473665" lon="11.753628038574533"><ele>454.0</ele><time>2026-05-02T12:00:11.999Z</time></trkpt><trkpt lat="46.031704074645624" lon="11.753754179614269"><ele>443.75</ele><time>2026-05-02T12:00:12.999Z</time></trkpt><trkpt lat="46.03159056171812" lon="11.75387734433937"><ele>433.5</ele><time>2026-05-02T12:00:13.999Z</time></trkpt><trkpt lat="46.0314988479408" lon="11.754009606280269"><ele>423.25</ele><time>2026-05-02T12:00:14.999Z</time></trkpt><trkpt lat="46.031416751426995" lon="11.754147041700282"><ele>413.0</ele><time>2026-05-02T12:00:15.999Z</time></trkpt><trkpt lat="46.03138746913864" lon="11.754333019808357"><ele>415.0</ele><time>2026-05-02T12:00:16.999Z</time></trkpt><trkpt lat="46.03137892643451" lon="11.754548886274241"><ele>417.0</ele><time>2026-05-02T12:00:17.999Z</time></trkpt><trkpt lat="46.031417245550045" lon="11.75478780490281"><ele>419.0</ele><time>2026-05-02T12:00:18.999Z</time></trkpt><trkpt lat="46.03150449692212" lon="11.755027188143524"><ele>424.0</ele><time>2026-05-02T12:00:19.999Z</time></trkpt><trkpt lat="46.03160289431408" lon="11.755277374528278"><ele>429.0</ele><time>2026-05-02T12:00:20.999Z</time></trkpt><trkpt lat="46.031696645570165" lon="11.755479301897"><ele>434.0</ele><time>2026-05-02T12:00:21.999Z</time></trkpt><trkpt lat="46.031747327467805" lon="11.755679117899957"><ele>436.0</ele><time>2026-05-02T12:00:22.999Z</time></trkpt><trkpt lat="46.03178476634929" lon="11.755862398784734"><ele>438.0</ele><time>2026-05-02T12:00:23.999Z</time></trkpt><trkpt lat="46.03178572315705" lon="11.756046610743617"><ele>440.0</ele><time>2026-05-02T12:00:24.999Z</time></trkpt><trkpt lat="46.031757837080384" lon="11.756234068529835"><ele>442.0</ele><time>2026-05-02T12:00:25.999Z</time></trkpt><trkpt lat="46.03169206088986" lon="11.756416527374137"><ele>446.33333333333337</ele><time>2026-05-02T12:00:26.999Z</time></trkpt><trkpt lat="46.031635760130875" lon="11.756633807410605"><ele>450.66666666666663</ele><time>2026-05-02T12:00:27.999Z</time></trkpt><trkpt lat="46.03159517816057" lon="11.75684873809554"><ele>455.0</ele><time>2026-05-02T12:00:28.999Z</time></trkpt><trkpt lat="46.03158135588531" lon="11.757099730669461"><ele>449.66666666666663</ele><time>2026-05-02T12:00:29.999Z</time></trkpt><trkpt lat="46.03161868071921" lon="11.75733975286134"><ele>444.33333333333337</ele><time>2026-05-02T12:00:30.999Z</time></trkpt><trkpt lat="46.03163996435513" lon="11.757571325507604"><ele>439.0</ele><time>2026-05-02T12:00:31.999Z</time></trkpt><trkpt lat="46.03166455223508" lon="11.757814928795527"><ele>439.0</ele><time>2026-05-02T12:00:32.999Z</time></trkpt><trkpt lat="46.03168275808884" lon="11.758051391396132"><ele>439.0</ele><time>2026-05-02T12:00:33.999Z</time></trkpt><trkpt lat="46.03170703402755" lon="11.758275653649038"><ele>439.0</ele><time>2026-05-02T12:00:34.999Z</time></trkpt><trkpt lat="46.03173142384055" lon="11.758492878352396"><ele>441.0</ele><time>2026-05-02T12:00:35.999Z</time></trkpt><trkpt lat="46.03175650766962" lon="11.75871615392268"><ele>443.0</ele><time>2026-05-02T12:00:36.999Z</time></trkpt><trkpt lat="46.0317831256539" lon="11.75894950003266"><ele>445.0</ele><time>2026-05-02T12:00:37.999Z</time></trkpt><trkpt lat="46.031808950665976" lon="11.759175894526683"><ele>447.0</ele><time>2026-05-02T12:00:38.999Z</time></trkpt><trkpt lat="46.03183289918416" lon="11.759385838898286"><ele>449.0</ele><time>2026-05-02T12:00:39.999Z</time></trkpt><trkpt lat="46.03185582265989" lon="11.759586796945552"><ele>451.0</ele><time>2026-05-02T12:00:40.999Z</time></trkpt><trkpt lat="46.031873440767995" lon="11.759776809382341"><ele>453.0</ele><time>2026-05-02T12:00:41.999Z</time></trkpt><trkpt lat="46.031879445513916" lon="11.759959967611623"><ele>453.0</ele><time>2026-05-02T12:00:42.999Z</time></trkpt><trkpt lat="46.03186889079439" lon="11.760130443931713"><ele>453.0</ele><time>2026-05-02T12:00:43.999Z</time></trkpt><trkpt lat="46.03180146981794" lon="11.76027499640768"><ele>453.0</ele><time>2026-05-02T12:00:44.999Z</time></trkpt><trkpt lat="46.031715450947985" lon="11.7604409448341"><ele>453.0</ele><time>2026-05-02T12:00:45.999Z</time></trkpt><trkpt lat="46.031622248325576" lon="11.76063809651928"><ele>457.75</ele><time>2026-05-02T12:00:46.999Z</time></trkpt><trkpt lat="46.03152848679347" lon="11.760808063966552"><ele>462.5</ele><time>2026-05-02T12:00:47.999Z</time></trkpt><trkpt lat="46.03145736742817" lon="11.760977694455091"><ele>467.25</ele><time>2026-05-02T12:00:48.999Z</time></trkpt><trkpt lat="46.031371122468904" lon="11.761101206605442"><ele>472.0</ele><time>2026-05-02T12:00:49.999Z</time></trkpt><trkpt lat="46.03128028917734" lon="11.761223847825129"><ele>457.0</ele><time>2026-05-02T12:00:50.999Z</time></trkpt><trkpt lat="46.03114914380546" lon="11.761342930815726"><ele>442.0</ele><time>2026-05-02T12:00:51.999Z</time></trkpt><trkpt lat="46.031014418179126" lon="11.761489123610389"><ele>427.0</ele><time>2026-05-02T12:00:52.999Z</time></trkpt><trkpt lat="46.030879028520104" lon="11.761618264203515"><ele>430.25</ele><time>2026-05-02T12:00:53.999Z</time></trkpt><trkpt lat="46.03074244745056" lon="11.761710659913332"><ele>433.5</ele><time>2026-05-02T12:00:54.999Z</time></trkpt><trkpt lat="46.03061709801512" lon="11.76180960199786"><ele>436.75</ele><time>2026-05-02T12:00:55.999Z</time></trkpt><trkpt lat="46.0304926514942" lon="11.761898757094578"><ele>440.0</ele><time>2026-05-02T12:00:56.999Z</time></trkpt><trkpt lat="46.03034461345611" lon="11.761932197416781"><ele>440.0</ele><time>2026-05-02T12:00:57.999Z</time></trkpt><trkpt lat="46.03020932767297" lon="11.761909637139413"><ele>440.0</ele><time>2026-05-02T12:00:58.999Z</time></trkpt><trkpt lat="46.030100951506796" lon="11.76189416010968"><ele>440.0</ele><time>2026-05-02T12:00:59.999Z</time></trkpt><trkpt lat="46.03001139660412" lon="11.761865844739132"><ele>440.0</ele><time>2026-05-02T12:01:00.999Z</time></trkpt><trkpt lat="46.02994727742699" lon="11.761858956156598"><ele>440.0</ele><time>2026-05-02T12:01:01.999Z</time></trkpt><trkpt lat="46.02990007847953" lon="11.761927325428159"><ele>430.25</ele><time>2026-05-02T12:01:02.999Z</time></trkpt><trkpt lat="46.02991512702678" lon="11.76205278733552"><ele>420.5</ele><time>2026-05-02T12:01:03.999Z</time></trkpt><trkpt lat="46.02994779765425" lon="11.7621565636118"><ele>410.75</ele><time>2026-05-02T12:01:04.999Z</time></trkpt><trkpt lat="46.03009095797336" lon="11.762152628235784"><ele>401.0</ele><time>2026-05-02T12:01:05.999Z</time></trkpt><trkpt lat="46.030243583707055" lon="11.762128520444993"><ele>399.3333333333333</ele><time>2026-05-02T12:01:06.999Z</time></trkpt><trkpt lat="46.03040893844208" lon="11.762104694582929"><ele>397.66666666666663</ele><time>2026-05-02T12:01:07.999Z</time></trkpt><trkpt lat="46.03057072412535" lon="11.76207733201787"><ele>396.0</ele><time>2026-05-02T12:01:08.999Z</time></trkpt><trkpt lat="46.03071383643855" lon="11.76203195391657"><ele>393.25</ele><time>2026-05-02T12:01:09.999Z</time></trkpt><trkpt lat="46.03084794359772" lon="11.761975660735471"><ele>390.5</ele><time>2026-05-02T12:01:10.999Z</time></trkpt><trkpt lat="46.03097769715964" lon="11.761917720871983"><ele>387.75</ele><time>2026-05-02T12:01:11.999Z</time></trkpt><trkpt lat="46.03110687828849" lon="11.761862255753423"><ele>385.0</ele><time>2026-05-02T12:01:12.999Z</time></trkpt><trkpt lat="46.03123058297174" lon="11.761799020517216"><ele>387.0</ele><time>2026-05-02T12:01:13.999Z</time></trkpt><trkpt lat="46.03133644542382" lon="11.761726284901181"><ele>389.0</ele><time>2026-05-02T12:01:14.999Z</time></trkpt><trkpt lat="46.03142937503576" lon="11.761666402711946"><ele>391.0</ele><time>2026-05-02T12:01:15.999Z</time></trkpt><trkpt lat="46.031510695182625" lon="11.761612014689286"><ele>393.0</ele><time>2026-05-02T12:01:16.999Z</time></trkpt><trkpt lat="46.03159054842332" lon="11.761561892442012"><ele>395.0</ele><time>2026-05-02T12:01:17.999Z</time></trkpt><trkpt lat="46.03167125948182" lon="11.761514675996386"><ele>394.99999999999994</ele><time>2026-05-02T12:01:18.999Z</time></trkpt><trkpt lat="46.031741610819395" lon="11.76151123792266"><ele>395.0</ele><time>2026-05-02T12:01:19.999Z</time></trkpt><trkpt lat="46.03182890776631" lon="11.761537715847394"><ele>395.0</ele><time>2026-05-02T12:01:21.999Z</time></trkpt><trkpt lat="46.03187374548029" lon="11.761604323252435"><ele>395.0</ele><time>2026-05-02T12:01:23.999Z</time></trkpt><trkpt lat="46.03190180639828" lon="11.761742923805263"><ele>394.99999999999994</ele><time>2026-05-02T12:01:25.999Z</time></trkpt><trkpt lat="46.03192657939092" lon="11.761850026374649"><ele>395.0</ele><time>2026-05-02T12:01:27Z</time></trkpt><trkpt lat="46.03197856728017" lon="11.761926832818908"><ele>395.0</ele><time>2026-05-02T12:01:28Z</time></trkpt><trkpt lat="46.03205575094103" lon="11.761975345245714"><ele>395.0</ele><time>2026-05-02T12:01:29Z</time></trkpt><trkpt lat="46.03214377690187" lon="11.761956615140855"><ele>395.0</ele><time>2026-05-02T12:01:30Z</time></trkpt><trkpt lat="46.03221798489511" lon="11.761891067753371"><ele>395.0</ele><time>2026-05-02T12:01:31Z</time></trkpt><trkpt lat="46.03229511811897" lon="11.761806780854052"><ele>395.0</ele><time>2026-05-02T12:01:32Z</time></trkpt><trkpt lat="46.03240528613366" lon="11.761742770354989"><ele>394.75</ele><time>2026-05-02T12:01:33Z</time></trkpt><trkpt lat="46.03254167993206" lon="11.761695160425518"><ele>394.5</ele><time>2026-05-02T12:01:34Z</time></trkpt><trkpt lat="46.03268895257096" lon="11.761659792248437"><ele>394.25</ele><time>2026-05-02T12:01:35Z</time></trkpt><trkpt lat="46.03281978864822" lon="11.76162999391775"><ele>394.0</ele><time>2026-05-02T12:01:36Z</time></trkpt><trkpt lat="46.032957065881575" lon="11.761600628900636"><ele>394.0</ele><time>2026-05-02T12:01:37Z</time></trkpt><trkpt lat="46.033096405144576" lon="11.761562262961885"><ele>394.0</ele><time>2026-05-02T12:01:38Z</time></trkpt><trkpt lat="46.03323589050087" lon="11.761508988864179"><ele>394.0</ele><time>2026-05-02T12:01:39Z</time></trkpt><trkpt lat="46.03337492971312" lon="11.761443411306981"><ele>394.0</ele><time>2026-05-02T12:01:40Z</time></trkpt><trkpt lat="46.03352114535089" lon="11.761367908016878"><ele>393.6666666666667</ele><time>2026-05-02T12:01:41Z</time></trkpt><trkpt lat="46.033676057209675" lon="11.761287659579102"><ele>393.33333333333337</ele><time>2026-05-02T12:01:42Z</time></trkpt><trkpt lat="46.03383292968212" lon="11.761204846050115"><ele>393.0</ele><time>2026-05-02T12:01:43Z</time></trkpt><trkpt lat="46.03398833085777" lon="11.761122420784911"><ele>393.0</ele><time>2026-05-02T12:01:44Z</time></trkpt><trkpt lat="46.03413234215045" lon="11.76105866255185"><ele>393.0</ele><time>2026-05-02T12:01:45Z</time></trkpt><trkpt lat="46.034264631410345" lon="11.761006374164202"><ele>393.0</ele><time>2026-05-02T12:01:46Z</time></trkpt><trkpt lat="46.03439090125253" lon="11.760963455690087"><ele>393.0</ele><time>2026-05-02T12:01:47Z</time></trkpt><trkpt lat="46.03450246926836" lon="11.760967555584141"><ele>393.5</ele><time>2026-05-02T12:01:48Z</time></trkpt><trkpt lat="46.034617228515884" lon="11.76098265858232"><ele>394.0</ele><time>2026-05-02T12:01:49Z</time></trkpt><trkpt lat="46.03474344096579" lon="11.761005627423293"><ele>394.5</ele><time>2026-05-02T12:01:50Z</time></trkpt><trkpt lat="46.03485737331148" lon="11.761033562146812"><ele>395.0</ele><time>2026-05-02T12:01:51Z</time></trkpt><trkpt lat="46.0349738034643" lon="11.761068506151018"><ele>396.25</ele><time>2026-05-02T12:01:52Z</time></trkpt><trkpt lat="46.0350919820646" lon="11.761102902506332"><ele>397.5</ele><time>2026-05-02T12:01:53.022Z</time></trkpt><trkpt lat="46.03521084508441" lon="11.76113718783929"><ele>398.75</ele><time>2026-05-02T12:01:54.022Z</time></trkpt><trkpt lat="46.035341381722546" lon="11.761157785016206"><ele>400.0</ele><time>2026-05-02T12:01:55.021Z</time></trkpt><trkpt lat="46.03545426289695" lon="11.761257093254871"><ele>395.0</ele><time>2026-05-02T12:01:56.022Z</time></trkpt><trkpt lat="46.03602703665014" lon="11.761377984668837"><ele>395.0</ele><time>2026-05-02T12:01:58Z</time></trkpt><trkpt lat="46.03618997569114" lon="11.761426015122867"><ele>395.0</ele><time>2026-05-02T12:01:59Z</time></trkpt><trkpt lat="46.036336659027256" lon="11.761474462660562"><ele>395.0</ele><time>2026-05-02T12:02:00Z</time></trkpt><trkpt lat="46.036464140518945" lon="11.761532152810869"><ele>395.0</ele><time>2026-05-02T12:02:01Z</time></trkpt><trkpt lat="46.03658876957012" lon="11.761611719972711"><ele>395.0</ele><time>2026-05-02T12:02:02Z</time></trkpt><trkpt lat="46.03671653867027" lon="11.761715907900257"><ele>395.0</ele><time>2026-05-02T12:02:03Z</time></trkpt><trkpt lat="46.0368449970791" lon="11.761847997414849"><ele>395.0</ele><time>2026-05-02T12:02:04Z</time></trkpt><trkpt lat="46.03694086718024" lon="11.761978464051305"><ele>393.0</ele><time>2026-05-02T12:02:05Z</time></trkpt><trkpt lat="46.0370410579116" lon="11.762134418138775"><ele>391.0</ele><time>2026-05-02T12:02:06Z</time></trkpt><trkpt lat="46.03714673131635" lon="11.762302004397709"><ele>389.0</ele><time>2026-05-02T12:02:07Z</time></trkpt><trkpt lat="46.037264546025085" lon="11.762463961418721"><ele>389.0</ele><time>2026-05-02T12:02:07.999Z</time></trkpt><trkpt lat="46.03742080839241" lon="11.762598938028797"><ele>389.0</ele><time>2026-05-02T12:02:08.999Z</time></trkpt><trkpt lat="46.037572205320046" lon="11.762680099210272"><ele>389.0</ele><time>2026-05-02T12:02:09.999Z</time></trkpt><trkpt lat="46.03769794748019" lon="11.762793463041689"><ele>388.3333333333333</ele><time>2026-05-02T12:02:10.999Z</time></trkpt><trkpt lat="46.037805274832465" lon="11.762946134178447"><ele>387.66666666666663</ele><time>2026-05-02T12:02:11.999Z</time></trkpt><trkpt lat="46.03790440320307" lon="11.763122017668508"><ele>387.0</ele><time>2026-05-02T12:02:12.999Z</time></trkpt><trkpt lat="46.03799996403602" lon="11.763295524111145"><ele>387.0</ele><time>2026-05-02T12:02:13.999Z</time></trkpt><trkpt lat="46.03808855604448" lon="11.763451720153485"><ele>387.0</ele><time>2026-05-02T12:02:14.999Z</time></trkpt><trkpt lat="46.0381814011768" lon="11.76359269095905"><ele>387.0</ele><time>2026-05-02T12:02:15.999Z</time></trkpt><trkpt lat="46.03828427582853" lon="11.763734784738139"><ele>387.0</ele><time>2026-05-02T12:02:16.999Z</time></trkpt><trkpt lat="46.038380406298046" lon="11.763847511434914"><ele>388.5</ele><time>2026-05-02T12:02:17.999Z</time></trkpt><trkpt lat="46.0384870834353" lon="11.763911931393693"><ele>390.0</ele><time>2026-05-02T12:02:18.999Z</time></trkpt><trkpt lat="46.038594389489745" lon="11.763933890983738"><ele>391.5</ele><time>2026-05-02T12:02:19.999Z</time></trkpt><trkpt lat="46.038719070055286" lon="11.763938761126994"><ele>393.0</ele><time>2026-05-02T12:02:20.999Z</time></trkpt><trkpt lat="46.038854711453" lon="11.763921929147509"><ele>393.0</ele><time>2026-05-02T12:02:21.999Z</time></trkpt><trkpt lat="46.039006370411606" lon="11.763873919750381"><ele>393.0</ele><time>2026-05-02T12:02:22.999Z</time></trkpt><trkpt lat="46.0391470976526" lon="11.763849471321828"><ele>393.0</ele><time>2026-05-02T12:02:23.999Z</time></trkpt><trkpt lat="46.03929044009954" lon="11.76382442162194"><ele>393.0</ele><time>2026-05-02T12:02:25.022Z</time></trkpt><trkpt lat="46.039430196778156" lon="11.763799689872705"><ele>403.5</ele><time>2026-05-02T12:02:26.014Z</time></trkpt><trkpt lat="46.03961956292875" lon="11.763701954814925"><ele>414.0</ele><time>2026-05-02T12:02:26.999Z</time></trkpt><trkpt lat="46.03986706649446" lon="11.763615132291891"><ele>432.0</ele><time>2026-05-02T12:02:27.999Z</time></trkpt><trkpt lat="46.04002273748415" lon="11.763519222399472"><ele>450.0</ele><time>2026-05-02T12:02:28.999Z</time></trkpt><trkpt lat="46.04019889130891" lon="11.763497278642777"><ele>468.0</ele><time>2026-05-02T12:02:29.999Z</time></trkpt><trkpt lat="46.04035389456942" lon="11.76349124784288"><ele>468.0</ele><time>2026-05-02T12:02:30.999Z</time></trkpt><trkpt lat="46.04053703097956" lon="11.76348843940722"><ele>468.0</ele><time>2026-05-02T12:02:31.999Z</time></trkpt><trkpt lat="46.04072280761264" lon="11.763478170725323"><ele>468.0</ele><time>2026-05-02T12:02:32.999Z</time></trkpt><trkpt lat="46.04089447126723" lon="11.763444546443125"><ele>470.0</ele><time>2026-05-02T12:02:33.999Z</time></trkpt><trkpt lat="46.04104142256109" lon="11.763373692337703"><ele>472.0</ele><time>2026-05-02T12:02:34.999Z</time></trkpt><trkpt lat="46.04119168821756" lon="11.763340284480972"><ele>474.0</ele><time>2026-05-02T12:02:35.999Z</time></trkpt><trkpt lat="46.041346703473394" lon="11.763306262142786"><ele>474.0</ele><time>2026-05-02T12:02:37.02Z</time></trkpt><trkpt lat="46.04149832094869" lon="11.76327134092194"><ele>474.0</ele><time>2026-05-02T12:02:38.014Z</time></trkpt><trkpt lat="46.04164222796433" lon="11.763199425294705"><ele>474.0</ele><time>2026-05-02T12:02:39.015Z</time></trkpt><trkpt lat="46.041875317445786" lon="11.763046554878533"><ele>475.5</ele><time>2026-05-02T12:02:40.014Z</time></trkpt><trkpt lat="46.042037772668984" lon="11.762987146370735"><ele>477.0</ele><time>2026-05-02T12:02:41.023Z</time></trkpt><trkpt lat="46.04252492096394" lon="11.76267418422243"><ele>474.33333333333337</ele><time>2026-05-02T12:02:44.261Z</time></trkpt><trkpt lat="46.042682552533385" lon="11.762600474550126"><ele>471.6666666666667</ele><time>2026-05-02T12:02:45.263Z</time></trkpt><trkpt lat="46.04283367529622" lon="11.7625012437793"><ele>469.0</ele><time>2026-05-02T12:02:46.26Z</time></trkpt><trkpt lat="46.04299552419231" lon="11.762448404218972"><ele>469.0</ele><time>2026-05-02T12:02:47.258Z</time></trkpt><trkpt lat="46.043153984241044" lon="11.762375224107913"><ele>469.0</ele><time>2026-05-02T12:02:48.263Z</time></trkpt><trkpt lat="46.04331129320756" lon="11.762299672954091"><ele>469.0</ele><time>2026-05-02T12:02:49.263Z</time></trkpt><trkpt lat="46.04346731681122" lon="11.762219309465777"><ele>442.5</ele><time>2026-05-02T12:02:50.259Z</time></trkpt><trkpt lat="46.04361458820008" lon="11.762107677852415"><ele>416.0</ele><time>2026-05-02T12:02:51.258Z</time></trkpt><trkpt lat="46.04392228652355" lon="11.761927753697858"><ele>415.66666666666663</ele><time>2026-05-02T12:02:52.999Z</time></trkpt><trkpt lat="46.04406321961456" lon="11.761832032309423"><ele>415.33333333333337</ele><time>2026-05-02T12:02:53.999Z</time></trkpt><trkpt lat="46.04423278121371" lon="11.761747770351743"><ele>415.0</ele><time>2026-05-02T12:02:54.999Z</time></trkpt><trkpt lat="46.044354546891086" lon="11.761691854610376"><ele>415.0</ele><time>2026-05-02T12:02:55.999Z</time></trkpt><trkpt lat="46.04449444242789" lon="11.761626862318336"><ele>415.0</ele><time>2026-05-02T12:02:56.999Z</time></trkpt><trkpt lat="46.044641280673915" lon="11.761585881876226"><ele>415.0</ele><time>2026-05-02T12:02:57.999Z</time></trkpt><trkpt lat="46.04476757339009" lon="11.76162538802003"><ele>415.0</ele><time>2026-05-02T12:02:58.999Z</time></trkpt><trkpt lat="46.04491948621038" lon="11.761559783505268"><ele>412.0</ele><time>2026-05-02T12:02:59.999Z</time></trkpt><trkpt lat="46.04506916990341" lon="11.761502661251459"><ele>409.0</ele><time>2026-05-02T12:03:00.999Z</time></trkpt><trkpt lat="46.04520869005958" lon="11.761463004563552"><ele>406.0</ele><time>2026-05-02T12:03:01.999Z</time></trkpt><trkpt lat="46.04536180888712" lon="11.761454957996914"><ele>406.0</ele><time>2026-05-02T12:03:02.999Z</time></trkpt><trkpt lat="46.045521755513725" lon="11.761466210238686"><ele>406.0</ele><time>2026-05-02T12:03:03.999Z</time></trkpt><trkpt lat="46.045693890668076" lon="11.761488743372448"><ele>406.0</ele><time>2026-05-02T12:03:04.999Z</time></trkpt><trkpt lat="46.04587193725877" lon="11.761504681491969"><ele>403.33333333333337</ele><time>2026-05-02T12:03:05.999Z</time></trkpt><trkpt lat="46.04605790113281" lon="11.761519907774307"><ele>400.66666666666663</ele><time>2026-05-02T12:03:06.999Z</time></trkpt><trkpt lat="46.04624456248101" lon="11.761531758570547"><ele>398.0</ele><time>2026-05-02T12:03:07.999Z</time></trkpt><trkpt lat="46.0464242748438" lon="11.761542945402521"><ele>398.0</ele><time>2026-05-02T12:03:08.999Z</time></trkpt><trkpt lat="46.046583789658605" lon="11.761551530689072"><ele>398.0</ele><time>2026-05-02T12:03:09.999Z</time></trkpt><trkpt lat="46.046729067692475" lon="11.761564354995917"><ele>398.0</ele><time>2026-05-02T12:03:10.999Z</time></trkpt><trkpt lat="46.04685714651874" lon="11.761579701878656"><ele>398.0</ele><time>2026-05-02T12:03:11.999Z</time></trkpt><trkpt lat="46.04698385549733" lon="11.761601608452349"><ele>394.3333333333333</ele><time>2026-05-02T12:03:12.999Z</time></trkpt><trkpt lat="46.047125600678534" lon="11.761671897575681"><ele>390.66666666666663</ele><time>2026-05-02T12:03:13.999Z</time></trkpt><trkpt lat="46.04730530095732" lon="11.761777090066696"><ele>387.0</ele><time>2026-05-02T12:03:14.999Z</time></trkpt><trkpt lat="46.04744036078685" lon="11.761879145943503"><ele>387.75</ele><time>2026-05-02T12:03:15.999Z</time></trkpt><trkpt lat="46.047535844432396" lon="11.761968338617228"><ele>388.5</ele><time>2026-05-02T12:03:16.999Z</time></trkpt><trkpt lat="46.04764530813791" lon="11.762052256246413"><ele>389.25</ele><time>2026-05-02T12:03:17.999Z</time></trkpt><trkpt lat="46.04775004207964" lon="11.762144851365823"><ele>390.0</ele><time>2026-05-02T12:03:18.999Z</time></trkpt><trkpt lat="46.04786634769536" lon="11.762250290321072"><ele>390.0</ele><time>2026-05-02T12:03:19.999Z</time></trkpt><trkpt lat="46.047979776485064" lon="11.76236035762868"><ele>390.0</ele><time>2026-05-02T12:03:20.999Z</time></trkpt><trkpt lat="46.04809512597355" lon="11.762464003142256"><ele>390.0</ele><time>2026-05-02T12:03:21.999Z</time></trkpt><trkpt lat="46.048209557913225" lon="11.76256032949099"><ele>390.0</ele><time>2026-05-02T12:03:22.999Z</time></trkpt><trkpt lat="46.048323405802" lon="11.76263750629254"><ele>395.33333333333337</ele><time>2026-05-02T12:03:23.999Z</time></trkpt><trkpt lat="46.048455790186864" lon="11.762690584180383"><ele>400.6666666666667</ele><time>2026-05-02T12:03:24.999Z</time></trkpt><trkpt lat="46.048610900485016" lon="11.762693163715845"><ele>406.0</ele><time>2026-05-02T12:03:25.999Z</time></trkpt><trkpt lat="46.04878918140848" lon="11.762658053462525"><ele>406.0</ele><time>2026-05-02T12:03:26.999Z</time></trkpt><trkpt lat="46.048978133564525" lon="11.762611994596227"><ele>406.0</ele><time>2026-05-02T12:03:27.999Z</time></trkpt><trkpt lat="46.049179767752165" lon="11.762589893345757"><ele>406.0</ele><time>2026-05-02T12:03:28.999Z</time></trkpt><trkpt lat="46.04938111854424" lon="11.762574430734745"><ele>412.33333333333337</ele><time>2026-05-02T12:03:29.999Z</time></trkpt><trkpt lat="46.04956579156525" lon="11.76255614057356"><ele>418.66666666666663</ele><time>2026-05-02T12:03:30.999Z</time></trkpt><trkpt lat="46.049730061709944" lon="11.762546596655191"><ele>425.0</ele><time>2026-05-02T12:03:31.999Z</time></trkpt><trkpt lat="46.049890854823715" lon="11.762563389470145"><ele>427.3333333333333</ele><time>2026-05-02T12:03:33Z</time></trkpt><trkpt lat="46.050048890667746" lon="11.762599376523898"><ele>429.66666666666663</ele><time>2026-05-02T12:03:34Z</time></trkpt><trkpt lat="46.050211929938236" lon="11.762691771268113"><ele>432.0</ele><time>2026-05-02T12:03:35Z</time></trkpt><trkpt lat="46.05038114953142" lon="11.762843356821842"><ele>427.33333333333337</ele><time>2026-05-02T12:03:36Z</time></trkpt><trkpt lat="46.050561848697555" lon="11.7629827714395"><ele>422.6666666666667</ele><time>2026-05-02T12:03:37Z</time></trkpt><trkpt lat="46.05073432816243" lon="11.763112596400337"><ele>418.0</ele><time>2026-05-02T12:03:38Z</time></trkpt><trkpt lat="46.050898947926115" lon="11.763205147965893"><ele>418.0</ele><time>2026-05-02T12:03:39Z</time></trkpt><trkpt lat="46.05104986064422" lon="11.763263701578756"><ele>418.0</ele><time>2026-05-02T12:03:40Z</time></trkpt><trkpt lat="46.051178478599184" lon="11.763354780563677"><ele>418.0</ele><time>2026-05-02T12:03:41Z</time></trkpt><trkpt lat="46.05128235585427" lon="11.763470573272025"><ele>418.0</ele><time>2026-05-02T12:03:42Z</time></trkpt><trkpt lat="46.05134790034685" lon="11.76362117444072"><ele>415.75</ele><time>2026-05-02T12:03:43Z</time></trkpt><trkpt lat="46.051436214373055" lon="11.763740440043973"><ele>413.5</ele><time>2026-05-02T12:03:44Z</time></trkpt><trkpt lat="46.05152636099245" lon="11.76386331031487"><ele>411.25</ele><time>2026-05-02T12:03:45Z</time></trkpt><trkpt lat="46.051646357846586" lon="11.763940189054026"><ele>409.0</ele><time>2026-05-02T12:03:46Z</time></trkpt><trkpt lat="46.051765474295294" lon="11.763951659035481"><ele>409.0</ele><time>2026-05-02T12:03:47Z</time></trkpt><trkpt lat="46.0518687031714" lon="11.763894296195787"><ele>409.0</ele><time>2026-05-02T12:03:48Z</time></trkpt><trkpt lat="46.05196899861363" lon="11.763765668237038"><ele>409.0</ele><time>2026-05-02T12:03:49Z</time></trkpt><trkpt lat="46.052074030620226" lon="11.763612334985543"><ele>409.0</ele><time>2026-05-02T12:03:50Z</time></trkpt><trkpt lat="46.05218719793166" lon="11.763513747881005"><ele>414.75</ele><time>2026-05-02T12:03:51Z</time></trkpt><trkpt lat="46.05232068049897" lon="11.763507878271106"><ele>420.5</ele><time>2026-05-02T12:03:52Z</time></trkpt><trkpt lat="46.0524697692279" lon="11.763490936313497"><ele>426.25</ele><time>2026-05-02T12:03:53Z</time></trkpt><trkpt lat="46.05262929999718" lon="11.763469050310167"><ele>432.0</ele><time>2026-05-02T12:03:54Z</time></trkpt><trkpt lat="46.05278481286716" lon="11.763474289563264"><ele>432.75</ele><time>2026-05-02T12:03:55Z</time></trkpt><trkpt lat="46.052922390604785" lon="11.763487264300943"><ele>433.5</ele><time>2026-05-02T12:03:56Z</time></trkpt><trkpt lat="46.05303662739629" lon="11.763493336487597"><ele>434.25</ele><time>2026-05-02T12:03:57Z</time></trkpt><trkpt lat="46.053141896521915" lon="11.76349969063524"><ele>435.0</ele><time>2026-05-02T12:03:58Z</time></trkpt><trkpt lat="46.05323609746452" lon="11.76347942493819"><ele>429.0</ele><time>2026-05-02T12:03:59Z</time></trkpt><trkpt lat="46.05335215646177" lon="11.763401048816263"><ele>423.0</ele><time>2026-05-02T12:04:00Z</time></trkpt><trkpt lat="46.05347240049933" lon="11.763267126623898"><ele>417.0</ele><time>2026-05-02T12:04:01Z</time></trkpt><trkpt lat="46.05361852967225" lon="11.763166472286988"><ele>411.0</ele><time>2026-05-02T12:04:02Z</time></trkpt><trkpt lat="46.05374468684275" lon="11.763057677406383"><ele>411.0</ele><time>2026-05-02T12:04:03Z</time></trkpt><trkpt lat="46.05389468139497" lon="11.763011231923604"><ele>411.0</ele><time>2026-05-02T12:04:04Z</time></trkpt><trkpt lat="46.05404602832324" lon="11.76298442947887"><ele>411.0</ele><time>2026-05-02T12:04:05Z</time></trkpt><trkpt lat="46.05418827702466" lon="11.762892575517357"><ele>408.5</ele><time>2026-05-02T12:04:06Z</time></trkpt><trkpt lat="46.05430135512237" lon="11.7627381103789"><ele>406.0</ele><time>2026-05-02T12:04:07Z</time></trkpt><trkpt lat="46.05442665829977" lon="11.762633501163348"><ele>403.5</ele><time>2026-05-02T12:04:08Z</time></trkpt><trkpt lat="46.05455267651594" lon="11.762544361607318"><ele>401.0</ele><time>2026-05-02T12:04:09Z</time></trkpt><trkpt lat="46.054696244151344" lon="11.762544496782546"><ele>401.0</ele><time>2026-05-02T12:04:10Z</time></trkpt><trkpt lat="46.05486265450635" lon="11.762582360258662"><ele>401.0</ele><time>2026-05-02T12:04:11Z</time></trkpt><trkpt lat="46.0549989488409" lon="11.762805371355292"><ele>401.0</ele><time>2026-05-02T12:04:12Z</time></trkpt><trkpt lat="46.05515870062837" lon="11.762911157382918"><ele>401.0</ele><time>2026-05-02T12:04:13Z</time></trkpt><trkpt lat="46.05530327950141" lon="11.762984911790133"><ele>401.0</ele><time>2026-05-02T12:04:14Z</time></trkpt><trkpt lat="46.05543893871682" lon="11.763025416026922"><ele>401.0</ele><time>2026-05-02T12:04:15Z</time></trkpt><trkpt lat="46.05556645891422" lon="11.763071266711439"><ele>401.0</ele><time>2026-05-02T12:04:16Z</time></trkpt><trkpt lat="46.05568042994341" lon="11.763122388095185"><ele>403.0</ele><time>2026-05-02T12:04:17Z</time></trkpt><trkpt lat="46.055792391986174" lon="11.763167908419765"><ele>405.0</ele><time>2026-05-02T12:04:18Z</time></trkpt><trkpt lat="46.05591858030762" lon="11.763168756225195"><ele>407.0</ele><time>2026-05-02T12:04:19Z</time></trkpt><trkpt lat="46.05605344632995" lon="11.763131364844742"><ele>409.0</ele><time>2026-05-02T12:04:20Z</time></trkpt><trkpt lat="46.05619928295362" lon="11.763010940143745"><ele>409.0</ele><time>2026-05-02T12:04:21Z</time></trkpt><trkpt lat="46.05634368150134" lon="11.762904094473576"><ele>409.0</ele><time>2026-05-02T12:04:21.999Z</time></trkpt><trkpt lat="46.05648467458884" lon="11.762807692976589"><ele>409.0</ele><time>2026-05-02T12:04:22.999Z</time></trkpt><trkpt lat="46.05662053820137" lon="11.762741026317997"><ele>407.5</ele><time>2026-05-02T12:04:23.999Z</time></trkpt><trkpt lat="46.05675294184658" lon="11.762716254212167"><ele>406.0</ele><time>2026-05-02T12:04:24.999Z</time></trkpt><trkpt lat="46.05689756914093" lon="11.76271145288807"><ele>404.5</ele><time>2026-05-02T12:04:25.999Z</time></trkpt><trkpt lat="46.057050346037336" lon="11.762740056586152"><ele>403.0</ele><time>2026-05-02T12:04:26.999Z</time></trkpt><trkpt lat="46.0572056930364" lon="11.762795667179116"><ele>403.0</ele><time>2026-05-02T12:04:27.999Z</time></trkpt><trkpt lat="46.05737003383531" lon="11.762844364310691"><ele>403.0</ele><time>2026-05-02T12:04:28.999Z</time></trkpt><trkpt lat="46.057529919384535" lon="11.762922383065188"><ele>403.0</ele><time>2026-05-02T12:04:29.999Z</time></trkpt><trkpt lat="46.05768433910131" lon="11.762990360567773"><ele>404.75</ele><time>2026-05-02T12:04:30.999Z</time></trkpt><trkpt lat="46.057825938295316" lon="11.763070098291783"><ele>406.5</ele><time>2026-05-02T12:04:31.999Z</time></trkpt><trkpt lat="46.05795475867631" lon="11.763175223252848"><ele>408.25</ele><time>2026-05-02T12:04:32.999Z</time></trkpt><trkpt lat="46.058070828806876" lon="11.763302190201356"><ele>410.0</ele><time>2026-05-02T12:04:33.999Z</time></trkpt><trkpt lat="46.058185940447046" lon="11.763446695489385"><ele>408.3333333333333</ele><time>2026-05-02T12:04:34.999Z</time></trkpt><trkpt lat="46.058315899941924" lon="11.763572261427298"><ele>406.66666666666663</ele><time>2026-05-02T12:04:35.999Z</time></trkpt><trkpt lat="46.058466767182686" lon="11.763661032597163"><ele>405.0</ele><time>2026-05-02T12:04:36.999Z</time></trkpt><trkpt lat="46.05860612879206" lon="11.763711156732283"><ele>405.0</ele><time>2026-05-02T12:04:37.999Z</time></trkpt><trkpt lat="46.05873748043107" lon="11.763727926497385"><ele>405.0</ele><time>2026-05-02T12:04:38.999Z</time></trkpt><trkpt lat="46.05885943188487" lon="11.763750321458787"><ele>405.0</ele><time>2026-05-02T12:04:39.999Z</time></trkpt><trkpt lat="46.058975273287" lon="11.76371955548221"><ele>405.0</ele><time>2026-05-02T12:04:40.999Z</time></trkpt><trkpt lat="46.05909769822742" lon="11.763621875939746"><ele>413.33333333333337</ele><time>2026-05-02T12:04:41.999Z</time></trkpt><trkpt lat="46.05920974325353" lon="11.763454377414913"><ele>421.6666666666667</ele><time>2026-05-02T12:04:42.999Z</time></trkpt><trkpt lat="46.05929574578932" lon="11.76325659994153"><ele>430.0</ele><time>2026-05-02T12:04:43.999Z</time></trkpt><trkpt lat="46.05938310682079" lon="11.763118151502976"><ele>430.0</ele><time>2026-05-02T12:04:44.999Z</time></trkpt><trkpt lat="46.05945993506867" lon="11.762971608794372"><ele>430.0</ele><time>2026-05-02T12:04:45.999Z</time></trkpt><trkpt lat="46.05956272522296" lon="11.762905277226967"><ele>430.0</ele><time>2026-05-02T12:04:46.999Z</time></trkpt><trkpt lat="46.05965674124296" lon="11.76284317912547"><ele>430.0</ele><time>2026-05-02T12:04:47.999Z</time></trkpt><trkpt lat="46.0597521994787" lon="11.762773965201546"><ele>432.75</ele><time>2026-05-02T12:04:48.999Z</time></trkpt><trkpt lat="46.05987598645847" lon="11.762695468144022"><ele>435.5</ele><time>2026-05-02T12:04:49.999Z</time></trkpt><trkpt lat="46.06000368809128" lon="11.762617837937473"><ele>438.25</ele><time>2026-05-02T12:04:50.999Z</time></trkpt><trkpt lat="46.06012983064216" lon="11.762563018922739"><ele>441.0</ele><time>2026-05-02T12:04:51.999Z</time></trkpt><trkpt lat="46.06024417239993" lon="11.762547886807358"><ele>441.0</ele><time>2026-05-02T12:04:52.999Z</time></trkpt><trkpt lat="46.06033820241929" lon="11.76250589427291"><ele>441.0</ele><time>2026-05-02T12:04:53.999Z</time></trkpt><trkpt lat="46.06042036696326" lon="11.762539057475108"><ele>441.0</ele><time>2026-05-02T12:04:54.999Z</time></trkpt><trkpt lat="46.06046800706774" lon="11.76261579098373"><ele>441.0</ele><time>2026-05-02T12:04:55.999Z</time></trkpt><trkpt lat="46.060502382939205" lon="11.7627545146518"><ele>441.0</ele><time>2026-05-02T12:04:56.999Z</time></trkpt><trkpt lat="46.060542062232386" lon="11.762910646429624"><ele>440.6</ele><time>2026-05-02T12:04:57.999Z</time></trkpt><trkpt lat="46.06058741852548" lon="11.763058586602384"><ele>440.20000000000005</ele><time>2026-05-02T12:04:58.999Z</time></trkpt><trkpt lat="46.060625416712675" lon="11.763211087657048"><ele>439.79999999999995</ele><time>2026-05-02T12:04:59.999Z</time></trkpt><trkpt lat="46.060669063853005" lon="11.763351432028006"><ele>439.4</ele><time>2026-05-02T12:05:00.999Z</time></trkpt><trkpt lat="46.06072512140435" lon="11.763459596620033"><ele>439.0</ele><time>2026-05-02T12:05:01.999Z</time></trkpt><trkpt lat="46.06079909618531" lon="11.763542495030592"><ele>439.0</ele><time>2026-05-02T12:05:02.999Z</time></trkpt><trkpt lat="46.060904176070935" lon="11.763555720871931"><ele>439.0</ele><time>2026-05-02T12:05:03.999Z</time></trkpt><trkpt lat="46.0610246930499" lon="11.76348409164551"><ele>439.0</ele><time>2026-05-02T12:05:04.999Z</time></trkpt><trkpt lat="46.061139072975124" lon="11.763416880224334"><ele>439.0</ele><time>2026-05-02T12:05:05.999Z</time></trkpt><trkpt lat="46.06126852306894" lon="11.763365744834728"><ele>440.5</ele><time>2026-05-02T12:05:06.999Z</time></trkpt><trkpt lat="46.06141969109269" lon="11.763389168047327"><ele>442.0</ele><time>2026-05-02T12:05:07.999Z</time></trkpt><trkpt lat="46.06155746565311" lon="11.763456663401234"><ele>443.5</ele><time>2026-05-02T12:05:08.999Z</time></trkpt><trkpt lat="46.06168583829343" lon="11.763565097309131"><ele>445.0</ele><time>2026-05-02T12:05:09.999Z</time></trkpt><trkpt lat="46.061792713734" lon="11.763697273577549"><ele>445.0</ele><time>2026-05-02T12:05:10.999Z</time></trkpt><trkpt lat="46.06190556716679" lon="11.763805040734658"><ele>445.0</ele><time>2026-05-02T12:05:11.999Z</time></trkpt><trkpt lat="46.06203197476081" lon="11.76388807281538"><ele>445.0</ele><time>2026-05-02T12:05:12.999Z</time></trkpt><trkpt lat="46.062179830958996" lon="11.763953771705562"><ele>445.0</ele><time>2026-05-02T12:05:13.999Z</time></trkpt><trkpt lat="46.06233832102745" lon="11.763970214945974"><ele>441.6666666666667</ele><time>2026-05-02T12:05:14.999Z</time></trkpt><trkpt lat="46.062525630665256" lon="11.763964921719614"><ele>438.33333333333337</ele><time>2026-05-02T12:05:15.999Z</time></trkpt><trkpt lat="46.06272637563306" lon="11.763965501870958"><ele>435.0</ele><time>2026-05-02T12:05:16.999Z</time></trkpt><trkpt lat="46.062906941398204" lon="11.763996881121027"><ele>435.0</ele><time>2026-05-02T12:05:17.999Z</time></trkpt><trkpt lat="46.06307553649679" lon="11.764031577336613"><ele>435.0</ele><time>2026-05-02T12:05:18.999Z</time></trkpt><trkpt lat="46.063240649393116" lon="11.764066162724129"><ele>435.0</ele><time>2026-05-02T12:05:19.999Z</time></trkpt><trkpt lat="46.0633964922345" lon="11.764097786634494"><ele>436.66666666666663</ele><time>2026-05-02T12:05:20.999Z</time></trkpt><trkpt lat="46.063554460009854" lon="11.76412307346671"><ele>438.3333333333333</ele><time>2026-05-02T12:05:21.999Z</time></trkpt><trkpt lat="46.06371962802174" lon="11.764154867909864"><ele>440.0</ele><time>2026-05-02T12:05:22.999Z</time></trkpt><trkpt lat="46.06389413220979" lon="11.764204039932798"><ele>440.0</ele><time>2026-05-02T12:05:23.999Z</time></trkpt><trkpt lat="46.06407270260949" lon="11.764265102453967"><ele>440.0</ele><time>2026-05-02T12:05:24.999Z</time></trkpt><trkpt lat="46.06424915400849" lon="11.764342341486566"><ele>440.0</ele><time>2026-05-02T12:05:25.999Z</time></trkpt><trkpt lat="46.06442684827802" lon="11.764429685216143"><ele>451.3333333333333</ele><time>2026-05-02T12:05:26.999Z</time></trkpt><trkpt lat="46.06462749666475" lon="11.764551081019947"><ele>462.66666666666663</ele><time>2026-05-02T12:05:27.999Z</time></trkpt><trkpt lat="46.06484002972558" lon="11.76468341391989"><ele>474.0</ele><time>2026-05-02T12:05:29.021Z</time></trkpt><trkpt lat="46.065060097690704" lon="11.764814420303942"><ele>491.5</ele><time>2026-05-02T12:05:30.023Z</time></trkpt><trkpt lat="46.06528761540413" lon="11.764865484592837"><ele>509.0</ele><time>2026-05-02T12:05:31.015Z</time></trkpt><trkpt lat="46.06551105042682" lon="11.764911415980507"><ele>509.0</ele><time>2026-05-02T12:05:32.015Z</time></trkpt><trkpt lat="46.0657314555991" lon="11.764939108666196"><ele>509.0</ele><time>2026-05-02T12:05:33.02Z</time></trkpt><trkpt lat="46.06667794836672" lon="11.764735684775077"><ele>505.5</ele><time>2026-05-02T12:05:37.258Z</time></trkpt><trkpt lat="46.06689866578594" lon="11.76463277601089"><ele>502.0</ele><time>2026-05-02T12:05:38.261Z</time></trkpt><trkpt lat="46.06711861039231" lon="11.7645348890698"><ele>502.0</ele><time>2026-05-02T12:05:39.261Z</time></trkpt><trkpt lat="46.06733303874285" lon="11.76441427528339"><ele>502.0</ele><time>2026-05-02T12:05:40.261Z</time></trkpt><trkpt lat="46.06754169961825" lon="11.764277187577298"><ele>485.5</ele><time>2026-05-02T12:05:41.258Z</time></trkpt><trkpt lat="46.0677530006046" lon="11.764138816182815"><ele>469.0</ele><time>2026-05-02T12:05:42.261Z</time></trkpt><trkpt lat="46.06793993693004" lon="11.76394524682096"><ele>469.0</ele><time>2026-05-02T12:05:43.258Z</time></trkpt><trkpt lat="46.06813334337279" lon="11.763764406199702"><ele>469.0</ele><time>2026-05-02T12:05:44.26Z</time></trkpt><trkpt lat="46.06833691748234" lon="11.763606817218022"><ele>469.0</ele><time>2026-05-02T12:05:45.261Z</time></trkpt><trkpt lat="46.06853161729062" lon="11.76343035419816"><ele>469.0</ele><time>2026-05-02T12:05:46.261Z</time></trkpt><trkpt lat="46.06921857692866" lon="11.76281950437628"><ele>457.6666666666667</ele><time>2026-05-02T12:05:54.999Z</time></trkpt><trkpt lat="46.06937088881373" lon="11.762667388887454"><ele>446.33333333333337</ele><time>2026-05-02T12:05:55.999Z</time></trkpt><trkpt lat="46.069514461851156" lon="11.762509370763564"><ele>435.0</ele><time>2026-05-02T12:05:56.999Z</time></trkpt><trkpt lat="46.069660353774005" lon="11.762364604030756"><ele>435.0</ele><time>2026-05-02T12:05:57.999Z</time></trkpt><trkpt lat="46.06981785905687" lon="11.762256453668034"><ele>435.0</ele><time>2026-05-02T12:05:58.999Z</time></trkpt><trkpt lat="46.06999898310944" lon="11.762204870460272"><ele>435.0</ele><time>2026-05-02T12:05:59.999Z</time></trkpt><trkpt lat="46.07018858652709" lon="11.762136940609114"><ele>443.33333333333337</ele><time>2026-05-02T12:06:01Z</time></trkpt><trkpt lat="46.07036041144971" lon="11.762041820821787"><ele>451.6666666666667</ele><time>2026-05-02T12:06:02Z</time></trkpt><trkpt lat="46.070516465133615" lon="11.761960405599698"><ele>460.0</ele><time>2026-05-02T12:06:03Z</time></trkpt><trkpt lat="46.07065252048879" lon="11.761887120519656"><ele>464.0</ele><time>2026-05-02T12:06:04Z</time></trkpt><trkpt lat="46.07078290971168" lon="11.761828074972874"><ele>468.0</ele><time>2026-05-02T12:06:05Z</time></trkpt><trkpt lat="46.07094897067498" lon="11.761822460925075"><ele>472.0</ele><time>2026-05-02T12:06:06Z</time></trkpt><trkpt lat="46.07110502981635" lon="11.761915679979996"><ele>472.0</ele><time>2026-05-02T12:06:07Z</time></trkpt><trkpt lat="46.07127287673441" lon="11.762045649472155"><ele>472.0</ele><time>2026-05-02T12:06:08Z</time></trkpt><trkpt lat="46.071452231780285" lon="11.76213238405024"><ele>472.0</ele><time>2026-05-02T12:06:09Z</time></trkpt><trkpt lat="46.071645546445254" lon="11.762164146544496"><ele>468.6666666666667</ele><time>2026-05-02T12:06:10Z</time></trkpt><trkpt lat="46.07184246746465" lon="11.76223383313943"><ele>465.33333333333337</ele><time>2026-05-02T12:06:11Z</time></trkpt><trkpt lat="46.07203440565358" lon="11.76234582291053"><ele>462.0</ele><time>2026-05-02T12:06:12Z</time></trkpt><trkpt lat="46.072217350435864" lon="11.762465903200162"><ele>462.0</ele><time>2026-05-02T12:06:13Z</time></trkpt><trkpt lat="46.07238656350346" lon="11.76258013383033"><ele>462.0</ele><time>2026-05-02T12:06:14Z</time></trkpt><trkpt lat="46.07253767969574" lon="11.762720128973895"><ele>462.0</ele><time>2026-05-02T12:06:15Z</time></trkpt><trkpt lat="46.07268816355915" lon="11.762835017036839"><ele>470.0</ele><time>2026-05-02T12:06:16Z</time></trkpt><trkpt lat="46.07283275144808" lon="11.762946726379203"><ele>478.0</ele><time>2026-05-02T12:06:17Z</time></trkpt><trkpt lat="46.07296075014603" lon="11.763060136210138"><ele>486.0</ele><time>2026-05-02T12:06:18Z</time></trkpt><trkpt lat="46.07306021144494" lon="11.763191755037838"><ele>494.0</ele><time>2026-05-02T12:06:19Z</time></trkpt><trkpt lat="46.073152786586455" lon="11.763299028667468"><ele>494.0</ele><time>2026-05-02T12:06:20Z</time></trkpt><trkpt lat="46.07324376053967" lon="11.763430584008818"><ele>494.0</ele><time>2026-05-02T12:06:21Z</time></trkpt><trkpt lat="46.0733887886605" lon="11.763493996348375"><ele>494.0</ele><time>2026-05-02T12:06:22Z</time></trkpt><trkpt lat="46.07355954236244" lon="11.76346852502139"><ele>485.66666666666663</ele><time>2026-05-02T12:06:23Z</time></trkpt><trkpt lat="46.073717505184156" lon="11.763455802436873"><ele>477.33333333333337</ele><time>2026-05-02T12:06:24Z</time></trkpt><trkpt lat="46.07388541794578" lon="11.76345334483861"><ele>469.0</ele><time>2026-05-02T12:06:25Z</time></trkpt><trkpt lat="46.07404029647402" lon="11.763440610847502"><ele>464.75</ele><time>2026-05-02T12:06:26Z</time></trkpt><trkpt lat="46.074170844208595" lon="11.763414721423757"><ele>460.5</ele><time>2026-05-02T12:06:27Z</time></trkpt><trkpt lat="46.07429526601987" lon="11.763396819618256"><ele>456.25</ele><time>2026-05-02T12:06:28Z</time></trkpt><trkpt lat="46.074422565306776" lon="11.763419996362984"><ele>452.0</ele><time>2026-05-02T12:06:29Z</time></trkpt><trkpt lat="46.074549224760474" lon="11.763510111045854"><ele>465.75</ele><time>2026-05-02T12:06:30Z</time></trkpt><trkpt lat="46.07466260368797" lon="11.763623844726489"><ele>479.5</ele><time>2026-05-02T12:06:31Z</time></trkpt><trkpt lat="46.0747608262112" lon="11.763786591665193"><ele>493.25</ele><time>2026-05-02T12:06:32Z</time></trkpt><trkpt lat="46.074849388134815" lon="11.7639692830277"><ele>507.0</ele><time>2026-05-02T12:06:33Z</time></trkpt><trkpt lat="46.07493381273974" lon="11.76413886361834"><ele>509.75</ele><time>2026-05-02T12:06:34Z</time></trkpt><trkpt lat="46.0750196932274" lon="11.764292277911206"><ele>512.5</ele><time>2026-05-02T12:06:35Z</time></trkpt><trkpt lat="46.07512332187592" lon="11.764430593677748"><ele>515.25</ele><time>2026-05-02T12:06:36Z</time></trkpt><trkpt lat="46.07524439257025" lon="11.764532411689778"><ele>518.0</ele><time>2026-05-02T12:06:37Z</time></trkpt><trkpt lat="46.07536011402151" lon="11.764633327169316"><ele>518.0</ele><time>2026-05-02T12:06:38Z</time></trkpt><trkpt lat="46.07549795763617" lon="11.764741902827957"><ele>518.0</ele><time>2026-05-02T12:06:39Z</time></trkpt><trkpt lat="46.07564625494965" lon="11.764835428597557"><ele>518.0</ele><time>2026-05-02T12:06:40Z</time></trkpt><trkpt lat="46.0757968577139" lon="11.764948348749138"><ele>514.3333333333333</ele><time>2026-05-02T12:06:41Z</time></trkpt><trkpt lat="46.07596281889798" lon="11.765066003399689"><ele>510.66666666666663</ele><time>2026-05-02T12:06:42Z</time></trkpt><trkpt lat="46.07617544953431" lon="11.765212266521818"><ele>507.0</ele><time>2026-05-02T12:06:43Z</time></trkpt><trkpt lat="46.07639848098215" lon="11.765362186385325"><ele>507.0</ele><time>2026-05-02T12:06:44Z</time></trkpt><trkpt lat="46.076599492822275" lon="11.765497379938802"><ele>507.0</ele><time>2026-05-02T12:06:45Z</time></trkpt><trkpt lat="46.07684905059171" lon="11.765648499680177"><ele>493.0</ele><time>2026-05-02T12:06:46Z</time></trkpt><trkpt lat="46.077053984627945" lon="11.765776386141898"><ele>479.0</ele><time>2026-05-02T12:06:47Z</time></trkpt><trkpt lat="46.07727004418782" lon="11.765871249511033"><ele>465.0</ele><time>2026-05-02T12:06:48Z</time></trkpt><trkpt lat="46.07748945247665" lon="11.765971635944554"><ele>481.0</ele><time>2026-05-02T12:06:49Z</time></trkpt><trkpt lat="46.077687532599874" lon="11.766086599525082"><ele>497.0</ele><time>2026-05-02T12:06:50Z</time></trkpt><trkpt lat="46.07787574175483" lon="11.766204869605648"><ele>513.0</ele><time>2026-05-02T12:06:51Z</time></trkpt><trkpt lat="46.07805606055874" lon="11.766296323770353"><ele>513.0</ele><time>2026-05-02T12:06:52Z</time></trkpt><trkpt lat="46.07822767061386" lon="11.766396566633524"><ele>513.0</ele><time>2026-05-02T12:06:53Z</time></trkpt><trkpt lat="46.07840528221691" lon="11.766443765841109"><ele>513.0</ele><time>2026-05-02T12:06:54.02Z</time></trkpt><trkpt lat="46.0785791139112" lon="11.766462935710994"><ele>516.6666666666666</ele><time>2026-05-02T12:06:55.014Z</time></trkpt><trkpt lat="46.0787606551297" lon="11.766455027168387"><ele>520.3333333333333</ele><time>2026-05-02T12:06:56.021Z</time></trkpt><trkpt lat="46.078941934492555" lon="11.766422383122853"><ele>524.0</ele><time>2026-05-02T12:06:57.013Z</time></trkpt><trkpt lat="46.079657963221194" lon="11.766137236387356"><ele>540.6666666666666</ele><time>2026-05-02T12:07:01.259Z</time></trkpt><trkpt lat="46.079826645805" lon="11.766073338198723"><ele>557.3333333333334</ele><time>2026-05-02T12:07:02.26Z</time></trkpt><trkpt lat="46.07999450659871" lon="11.766010838699051"><ele>574.0</ele><time>2026-05-02T12:07:03.256Z</time></trkpt><trkpt lat="46.080167575094904" lon="11.765971404508855"><ele>574.0</ele><time>2026-05-02T12:07:04.257Z</time></trkpt><trkpt lat="46.080332005852" lon="11.765885777007679"><ele>574.0</ele><time>2026-05-02T12:07:05.256Z</time></trkpt><trkpt lat="46.0805047065132" lon="11.765845023532105"><ele>574.0</ele><time>2026-05-02T12:07:06.256Z</time></trkpt><trkpt lat="46.080669671955725" lon="11.765757461956323"><ele>585.0</ele><time>2026-05-02T12:07:07.26Z</time></trkpt><trkpt lat="46.08084236417604" lon="11.76571643834929"><ele>596.0</ele><time>2026-05-02T12:07:08.26Z</time></trkpt><trkpt lat="46.08101005384311" lon="11.765652844869347"><ele>607.0</ele><time>2026-05-02T12:07:09.256Z</time></trkpt><trkpt lat="46.081179319872255" lon="11.765588677250033"><ele>607.0</ele><time>2026-05-02T12:07:10.26Z</time></trkpt><trkpt lat="46.081347070893194" lon="11.765525083968539"><ele>607.0</ele><time>2026-05-02T12:07:11.256Z</time></trkpt><trkpt lat="46.08151627474257" lon="11.765460939935611"><ele>607.0</ele><time>2026-05-02T12:07:12.26Z</time></trkpt><trkpt lat="46.08168041559713" lon="11.765373204932297"><ele>614.3333333333334</ele><time>2026-05-02T12:07:13.261Z</time></trkpt><trkpt lat="46.08185298665266" lon="11.76533133272692"><ele>621.6666666666666</ele><time>2026-05-02T12:07:14.26Z</time></trkpt><trkpt lat="46.082020544615844" lon="11.765266633209986"><ele>629.0</ele><time>2026-05-02T12:07:15.256Z</time></trkpt><trkpt lat="46.082189514098246" lon="11.765201388653486"><ele>613.0</ele><time>2026-05-02T12:07:16.26Z</time></trkpt><trkpt lat="46.0823529241355" lon="11.765114290273601"><ele>597.0</ele><time>2026-05-02T12:07:17.256Z</time></trkpt><trkpt lat="46.08252570236954" lon="11.765073739157213"><ele>581.0</ele><time>2026-05-02T12:07:18.256Z</time></trkpt><trkpt lat="46.082694820029424" lon="11.765009843536689"><ele>576.3333333333333</ele><time>2026-05-02T12:07:19.26Z</time></trkpt><trkpt lat="46.08285915816501" lon="11.76492302624546"><ele>571.6666666666666</ele><time>2026-05-02T12:07:20.26Z</time></trkpt><trkpt lat="46.083026859587726" lon="11.764859665728855"><ele>567.0</ele><time>2026-05-02T12:07:21.255Z</time></trkpt><trkpt lat="46.0832001671686" lon="11.764819820774006"><ele>493.0</ele><time>2026-05-02T12:07:22.258Z</time></trkpt><trkpt lat="46.083833636149585" lon="11.764334480149522"><ele>495.5</ele><time>2026-05-02T12:07:22.999Z</time></trkpt><trkpt lat="46.08422214501787" lon="11.764438846243536"><ele>498.0</ele><time>2026-05-02T12:07:23.999Z</time></trkpt><trkpt lat="46.08436947827045" lon="11.764327626084802"><ele>497.5</ele><time>2026-05-02T12:07:24.999Z</time></trkpt><trkpt lat="46.08449594726834" lon="11.764267908150838"><ele>497.0</ele><time>2026-05-02T12:07:25.999Z</time></trkpt><trkpt lat="46.084619205912645" lon="11.764249168385284"><ele>496.5</ele><time>2026-05-02T12:07:26.999Z</time></trkpt><trkpt lat="46.08477423753086" lon="11.764284671114211"><ele>496.0</ele><time>2026-05-02T12:07:27.999Z</time></trkpt><trkpt lat="46.08495163213631" lon="11.764297717067189"><ele>488.5</ele><time>2026-05-02T12:07:28.999Z</time></trkpt><trkpt lat="46.08510596288941" lon="11.764382506089493"><ele>481.0</ele><time>2026-05-02T12:07:29.999Z</time></trkpt><trkpt lat="46.08444184228128" lon="11.763149141090054"><ele>481.0</ele><time>2026-05-02T12:07:30.999Z</time></trkpt><trkpt lat="46.084681893163925" lon="11.763161080831232"><ele>481.0</ele><time>2026-05-02T12:07:31.999Z</time></trkpt><trkpt lat="46.08493774338322" lon="11.763184631974502"><ele>478.6666666666667</ele><time>2026-05-02T12:07:32.999Z</time></trkpt><trkpt lat="46.08515444647237" lon="11.763171128374964"><ele>476.33333333333337</ele><time>2026-05-02T12:07:33.999Z</time></trkpt><trkpt lat="46.085361455131405" lon="11.763143282832646"><ele>474.0</ele><time>2026-05-02T12:07:34.999Z</time></trkpt><trkpt lat="46.08555865954732" lon="11.7630969471628"><ele>473.66666666666663</ele><time>2026-05-02T12:07:35.999Z</time></trkpt><trkpt lat="46.08577176937586" lon="11.763059077534825"><ele>473.3333333333333</ele><time>2026-05-02T12:07:37.022Z</time></trkpt><trkpt lat="46.08597940109343" lon="11.763013364251101"><ele>473.0</ele><time>2026-05-02T12:07:38.021Z</time></trkpt><trkpt lat="46.086177657358874" lon="11.762960947459826"><ele>473.0</ele><time>2026-05-02T12:07:39.023Z</time></trkpt><trkpt lat="46.08637504630148" lon="11.762918484417158"><ele>473.0</ele><time>2026-05-02T12:07:40.013Z</time></trkpt><trkpt lat="46.09301597349913" lon="11.761853490035758"><ele>487.0</ele><time>2026-05-02T12:08:12.999Z</time></trkpt><trkpt lat="46.093188936357514" lon="11.761818170625595"><ele>501.0</ele><time>2026-05-02T12:08:13.999Z</time></trkpt><trkpt lat="46.09328894656" lon="11.761586123852743"><ele>515.0</ele><time>2026-05-02T12:08:14.999Z</time></trkpt><trkpt lat="46.09337981284923" lon="11.761530482305112"><ele>520.6666666666666</ele><time>2026-05-02T12:08:15.999Z</time></trkpt><trkpt lat="46.09356036949865" lon="11.761570257936253"><ele>526.3333333333334</ele><time>2026-05-02T12:08:16.999Z</time></trkpt><trkpt lat="46.093744391324925" lon="11.761622531112488"><ele>532.0</ele><time>2026-05-02T12:08:17.999Z</time></trkpt><trkpt lat="46.09391638397798" lon="11.761691050526752"><ele>532.0</ele><time>2026-05-02T12:08:19Z</time></trkpt><trkpt lat="46.09408376149612" lon="11.761780684278303"><ele>532.0</ele><time>2026-05-02T12:08:20.022Z</time></trkpt><trkpt lat="46.09424371099865" lon="11.761887298865396"><ele>532.0</ele><time>2026-05-02T12:08:21.023Z</time></trkpt><trkpt lat="46.09439574777491" lon="11.762007225446938"><ele>572.0</ele><time>2026-05-02T12:08:22.018Z</time></trkpt><trkpt lat="46.094539167878466" lon="11.76214583341104"><ele>612.0</ele><time>2026-05-02T12:08:23.02Z</time></trkpt><trkpt lat="46.094679339895926" lon="11.762300791458427"><ele>652.0</ele><time>2026-05-02T12:08:24.019Z</time></trkpt><trkpt lat="46.09482256803559" lon="11.762457493716346"><ele>633.0</ele><time>2026-05-02T12:08:25.02Z</time></trkpt><trkpt lat="46.10291831199648" lon="11.772106150176164"><ele>633.0</ele><time>2026-05-02T12:09:15Z</time></trkpt><trkpt lat="46.10306979527548" lon="11.77220108679181"><ele>633.0</ele><time>2026-05-02T12:09:16Z</time></trkpt><trkpt lat="46.10317718906376" lon="11.772391835898924"><ele>633.0</ele><time>2026-05-02T12:09:17Z</time></trkpt><trkpt lat="46.103344947195616" lon="11.772484744563695"><ele>618.3333333333334</ele><time>2026-05-02T12:09:18Z</time></trkpt><trkpt lat="46.10352271342509" lon="11.772550760996305"><ele>603.6666666666667</ele><time>2026-05-02T12:09:19Z</time></trkpt><trkpt lat="46.10369839667054" lon="11.772600358561242"><ele>589.0</ele><time>2026-05-02T12:09:20Z</time></trkpt><trkpt lat="46.1038792575402" lon="11.772618622341177"><ele>589.0</ele><time>2026-05-02T12:09:21Z</time></trkpt><trkpt lat="46.10403583688116" lon="11.772610931227929"><ele>589.0</ele><time>2026-05-02T12:09:22Z</time></trkpt><trkpt lat="46.10415489399609" lon="11.77260654065379"><ele>589.0</ele><time>2026-05-02T12:09:23Z</time></trkpt><trkpt lat="46.10426615053912" lon="11.772600223771335"><ele>589.0</ele><time>2026-05-02T12:09:24Z</time></trkpt><trkpt lat="46.10435531811648" lon="11.772598588409384"><ele>591.5</ele><time>2026-05-02T12:09:25Z</time></trkpt><trkpt lat="46.104463549891804" lon="11.772610169503745"><ele>594.0</ele><time>2026-05-02T12:09:27Z</time></trkpt><trkpt lat="46.10452007773551" lon="11.772552622828506"><ele>596.5</ele><time>2026-05-02T12:09:29Z</time></trkpt><trkpt lat="46.10443463985744" lon="11.772615512469729"><ele>599.0</ele><time>2026-05-02T12:10:19.999Z</time></trkpt><trkpt lat="46.10436788903675" lon="11.772618425274272"><ele>601.5</ele><time>2026-05-02T12:10:20.999Z</time></trkpt><trkpt lat="46.104273758101435" lon="11.772604618724554"><ele>604.0</ele><time>2026-05-02T12:10:21.999Z</time></trkpt><trkpt lat="46.10419377527183" lon="11.772626566969848"><ele>604.0</ele><time>2026-05-02T12:10:22.999Z</time></trkpt><trkpt lat="46.10413091410889" lon="11.772662318241771"><ele>604.0</ele><time>2026-05-02T12:10:23.999Z</time></trkpt><trkpt lat="46.10407433780836" lon="11.772743964863633"><ele>604.0</ele><time>2026-05-02T12:10:26.001Z</time></trkpt><trkpt lat="46.104024005964966" lon="11.772814301232799"><ele>604.0</ele><time>2026-05-02T12:10:57Z</time></trkpt><trkpt lat="46.103940585464" lon="11.7729218193444"><ele>604.0</ele><time>2026-05-02T12:10:59Z</time></trkpt><trkpt lat="46.10387418983132" lon="11.77296993046945"><ele>604.0</ele><time>2026-05-02T12:11:00Z</time></trkpt><trkpt lat="46.103746157635236" lon="11.773014529129183"><ele>614.0</ele><time>2026-05-02T12:11:02Z</time></trkpt><trkpt lat="46.10361862429415" lon="11.772977169508534"><ele>624.0</ele><time>2026-05-02T12:11:04Z</time></trkpt><trkpt lat="46.10355000974633" lon="11.772940268925936"><ele>634.0</ele><time>2026-05-02T12:11:05Z</time></trkpt><trkpt lat="46.10347858408558" lon="11.772902923277552"><ele>644.0</ele><time>2026-05-02T12:11:06Z</time></trkpt><trkpt lat="46.10340634807657" lon="11.772824666109765"><ele>654.0</ele><time>2026-05-02T12:11:07Z</time></trkpt><trkpt lat="46.10332677051757" lon="11.77277760697418"><ele>654.0</ele><time>2026-05-02T12:11:08Z</time></trkpt><trkpt lat="46.103251478208065" lon="11.772717701912278"><ele>654.0</ele><time>2026-05-02T12:11:09Z</time></trkpt><trkpt lat="46.103175412376295" lon="11.772650708404965"><ele>654.0</ele><time>2026-05-02T12:11:10Z</time></trkpt><trkpt lat="46.10311582656966" lon="11.77259573687867"><ele>654.0</ele><time>2026-05-02T12:11:11Z</time></trkpt><trkpt lat="46.10304926221616" lon="11.77253024156517"><ele>654.0</ele><time>2026-05-02T12:11:12Z</time></trkpt><trkpt lat="46.10298368358954" lon="11.77245762024134"><ele>654.0</ele><time>2026-05-02T12:11:13Z</time></trkpt><trkpt lat="46.102909293808914" lon="11.772383284617412"><ele>650.5</ele><time>2026-05-02T12:11:14Z</time></trkpt><trkpt lat="46.1028399029679" lon="11.772325321375359"><ele>647.0</ele><time>2026-05-02T12:11:15Z</time></trkpt><trkpt lat="46.10277141146068" lon="11.772273898331377"><ele>643.5</ele><time>2026-05-02T12:11:16Z</time></trkpt><trkpt lat="46.102703603292696" lon="11.772158147796823"><ele>640.0</ele><time>2026-05-02T12:11:18Z</time></trkpt><trkpt lat="46.10265344326528" lon="11.772066505752838"><ele>636.5</ele><time>2026-05-02T12:11:19Z</time></trkpt><trkpt lat="46.10259381140867" lon="11.771950158478367"><ele>633.0</ele><time>2026-05-02T12:11:20Z</time></trkpt><trkpt lat="46.1025446652542" lon="11.77182515457595"><ele>633.6</ele><time>2026-05-02T12:11:21Z</time></trkpt><trkpt lat="46.102500929152306" lon="11.771686641226376"><ele>634.1999999999999</ele><time>2026-05-02T12:11:22Z</time></trkpt><trkpt lat="46.10244440020304" lon="11.771538254258141"><ele>634.8</ele><time>2026-05-02T12:11:23Z</time></trkpt><trkpt lat="46.10237935583711" lon="11.771425357696675"><ele>635.4</ele><time>2026-05-02T12:11:24Z</time></trkpt><trkpt lat="46.102330672798736" lon="11.771316093422381"><ele>636.0</ele><time>2026-05-02T12:11:25Z</time></trkpt><trkpt lat="46.10229258865102" lon="11.771203490921804"><ele>636.0</ele><time>2026-05-02T12:11:26Z</time></trkpt><trkpt lat="46.102253919712" lon="11.77107748964991"><ele>636.0</ele><time>2026-05-02T12:11:27Z</time></trkpt><trkpt lat="46.10218630295132" lon="11.771002454112208"><ele>636.0</ele><time>2026-05-02T12:11:34Z</time></trkpt><trkpt lat="46.1021110277663" lon="11.7710055358037"><ele>636.0</ele><time>2026-05-02T12:11:36Z</time></trkpt><trkpt lat="46.102010263197265" lon="11.770968669762523"><ele>636.0</ele><time>2026-05-02T12:11:37.999Z</time></trkpt><trkpt lat="46.10191502469218" lon="11.770990976943146"><ele>631.4</ele><time>2026-05-02T12:11:39.999Z</time></trkpt><trkpt lat="46.101814993662714" lon="11.770917491043354"><ele>626.8</ele><time>2026-05-02T12:11:42.999Z</time></trkpt><trkpt lat="46.10178154548283" lon="11.77075504375785"><ele>622.1999999999999</ele><time>2026-05-02T12:11:44.999Z</time></trkpt><trkpt lat="46.101743085253915" lon="11.7706530564979"><ele>617.6</ele><time>2026-05-02T12:11:45.999Z</time></trkpt><trkpt lat="46.101673012184854" lon="11.770501047299877"><ele>613.0</ele><time>2026-05-02T12:11:47.999Z</time></trkpt><trkpt lat="46.101615012436504" lon="11.770430703606959"><ele>620.8333333333334</ele><time>2026-05-02T12:11:48.999Z</time></trkpt><trkpt lat="46.101539178003875" lon="11.770367880678384"><ele>628.6666666666667</ele><time>2026-05-02T12:11:49.999Z</time></trkpt><trkpt lat="46.10146204455069" lon="11.770300556699503"><ele>636.5</ele><time>2026-05-02T12:11:50.999Z</time></trkpt><trkpt lat="46.10140016743876" lon="11.770238261634363"><ele>644.3333333333334</ele><time>2026-05-02T12:11:51.999Z</time></trkpt><trkpt lat="46.10133335830798" lon="11.770179832852044"><ele>652.1666666666666</ele><time>2026-05-02T12:11:52.999Z</time></trkpt><trkpt lat="46.101274959653544" lon="11.770116288456082"><ele>660.0</ele><time>2026-05-02T12:11:54.999Z</time></trkpt><trkpt lat="46.10122345287509" lon="11.770051409061182"><ele>660.0</ele><time>2026-05-02T12:11:56.999Z</time></trkpt><trkpt lat="46.10118682270114" lon="11.769928838162048"><ele>660.0</ele><time>2026-05-02T12:11:58.999Z</time></trkpt><trkpt lat="46.10114851847696" lon="11.769825666886438"><ele>660.0</ele><time>2026-05-02T12:11:59.999Z</time></trkpt><trkpt lat="46.10109976907841" lon="11.769698308595062"><ele>660.0</ele><time>2026-05-02T12:12:00.999Z</time></trkpt><trkpt lat="46.10105721760945" lon="11.769554708551874"><ele>660.0</ele><time>2026-05-02T12:12:02.999Z</time></trkpt><trkpt lat="46.10098781113586" lon="11.769504513159418"><ele>660.0</ele><time>2026-05-02T12:12:05.999Z</time></trkpt><trkpt lat="46.10094367794927" lon="11.769621893795549"><ele>660.0</ele><time>2026-05-02T12:12:08.999Z</time></trkpt><trkpt lat="46.100956659461545" lon="11.769803890138638"><ele>660.0</ele><time>2026-05-02T12:12:10.999Z</time></trkpt><trkpt lat="46.10096336436831" lon="11.76992460405404"><ele>660.0</ele><time>2026-05-02T12:12:11.999Z</time></trkpt><trkpt lat="46.10096015471891" lon="11.770024335480185"><ele>660.0</ele><time>2026-05-02T12:12:12.999Z</time></trkpt><trkpt lat="46.10094962846979" lon="11.77012546488164"><ele>660.0</ele><time>2026-05-02T12:12:14.999Z</time></trkpt><trkpt lat="46.10094311992414" lon="11.770218459560576"><ele>661.6</ele><time>2026-05-02T12:12:15.999Z</time></trkpt><trkpt lat="46.10102342503277" lon="11.77032962295038"><ele>663.2</ele><time>2026-05-02T12:12:17.999Z</time></trkpt><trkpt lat="46.101107292764205" lon="11.77044297104051"><ele>664.8</ele><time>2026-05-02T12:12:19.999Z</time></trkpt><trkpt lat="46.101172504175715" lon="11.770477523898878"><ele>666.4</ele><time>2026-05-02T12:12:20.999Z</time></trkpt><trkpt lat="46.10124724978076" lon="11.770495090549417"><ele>668.0</ele><time>2026-05-02T12:12:21.999Z</time></trkpt><trkpt lat="46.10137874670487" lon="11.770499898818453"><ele>668.0</ele><time>2026-05-02T12:12:23.999Z</time></trkpt><trkpt lat="46.10144570865426" lon="11.770566815583797"><ele>668.0</ele><time>2026-05-02T12:12:25.999Z</time></trkpt><trkpt lat="46.10149846496633" lon="11.77068653274445"><ele>668.0</ele><time>2026-05-02T12:12:27.999Z</time></trkpt><trkpt lat="46.10152567188878" lon="11.770773004747202"><ele>668.0</ele><time>2026-05-02T12:12:28.999Z</time></trkpt><trkpt lat="46.10152113345432" lon="11.770876361843378"><ele>668.0</ele><time>2026-05-02T12:12:29.999Z</time></trkpt><trkpt lat="46.101518141528516" lon="11.770994444601802"><ele>668.0</ele><time>2026-05-02T12:12:31Z</time></trkpt><trkpt lat="46.10150655933576" lon="11.771099383480871"><ele>668.0</ele><time>2026-05-02T12:12:32Z</time></trkpt><trkpt lat="46.10151767623985" lon="11.771230143307838"><ele>668.0</ele><time>2026-05-02T12:12:33Z</time></trkpt><trkpt lat="46.101348479813986" lon="11.77097912728429"><ele>668.0</ele><time>2026-05-02T12:12:34Z</time></trkpt><trkpt lat="46.10124749924952" lon="11.771035215814203"><ele>668.0</ele><time>2026-05-02T12:12:36Z</time></trkpt><trkpt lat="46.101149134194635" lon="11.77113801205021"><ele>668.0</ele><time>2026-05-02T12:12:38Z</time></trkpt><trkpt lat="46.10109833377746" lon="11.771206020834873"><ele>668.0</ele><time>2026-05-02T12:12:39Z</time></trkpt><trkpt lat="46.1010555362903" lon="11.77128184597703"><ele>668.0</ele><time>2026-05-02T12:12:40Z</time></trkpt><trkpt lat="46.101030388496596" lon="11.771366446011973"><ele>668.0</ele><time>2026-05-02T12:12:41Z</time></trkpt><trkpt lat="46.10100431954171" lon="11.771461604189495"><ele>668.0</ele><time>2026-05-02T12:12:42Z</time></trkpt><trkpt lat="46.100982715393535" lon="11.771561767528238"><ele>668.0</ele><time>2026-05-02T12:12:43Z</time></trkpt><trkpt lat="46.10095975535731" lon="11.77165796856668"><ele>668.0</ele><time>2026-05-02T12:12:44Z</time></trkpt><trkpt lat="46.100933885351026" lon="11.771741319367612"><ele>670.5999999999999</ele><time>2026-05-02T12:12:45Z</time></trkpt><trkpt lat="46.10092213924636" lon="11.77188135750415"><ele>673.1999999999999</ele><time>2026-05-02T12:12:47Z</time></trkpt><trkpt lat="46.10095535055637" lon="11.771984665836621"><ele>675.8</ele><time>2026-05-02T12:12:49Z</time></trkpt><trkpt lat="46.101050487192275" lon="11.77204328579721"><ele>678.4</ele><time>2026-05-02T12:12:51Z</time></trkpt><trkpt lat="46.10115622679034" lon="11.77197835042663"><ele>681.0</ele><time>2026-05-02T12:12:53Z</time></trkpt><trkpt lat="46.101247939717894" lon="11.771898132534263"><ele>681.0</ele><time>2026-05-02T12:12:55Z</time></trkpt><trkpt lat="46.10131338706825" lon="11.77185542980091"><ele>681.0</ele><time>2026-05-02T12:12:56Z</time></trkpt><trkpt lat="46.10139877752019" lon="11.771890596728733"><ele>681.0</ele><time>2026-05-02T12:12:58Z</time></trkpt><trkpt lat="46.10150366773844" lon="11.771947956677186"><ele>681.0</ele><time>2026-05-02T12:13:00Z</time></trkpt><trkpt lat="46.10157235761399" lon="11.771964376901622"><ele>681.0</ele><time>2026-05-02T12:13:01Z</time></trkpt><trkpt lat="46.101677856120524" lon="11.771964055618966"><ele>681.0</ele><time>2026-05-02T12:13:03Z</time></trkpt><trkpt lat="46.10177634567891" lon="11.771929179112806"><ele>680.5999999999999</ele><time>2026-05-02T12:13:05Z</time></trkpt><trkpt lat="46.10188574032395" lon="11.771963238045684"><ele>680.2</ele><time>2026-05-02T12:13:07Z</time></trkpt><trkpt lat="46.10192786114848" lon="11.772122538860193"><ele>679.8</ele><time>2026-05-02T12:13:09Z</time></trkpt><trkpt lat="46.101937661707666" lon="11.772223666524637"><ele>679.4000000000001</ele><time>2026-05-02T12:13:10Z</time></trkpt><trkpt lat="46.10194147403912" lon="11.772314884224974"><ele>679.0</ele><time>2026-05-02T12:13:11Z</time></trkpt><trkpt lat="46.101984686403185" lon="11.772486667134602"><ele>679.0</ele><time>2026-05-02T12:13:13Z</time></trkpt><trkpt lat="46.10201664152502" lon="11.772586264250537"><ele>679.0</ele><time>2026-05-02T12:13:14Z</time></trkpt><trkpt lat="46.10203419863951" lon="11.772680255412782"><ele>679.0</ele><time>2026-05-02T12:13:15Z</time></trkpt><trkpt lat="46.10203958574656" lon="11.772780415357897"><ele>679.0</ele><time>2026-05-02T12:13:16Z</time></trkpt><trkpt lat="46.1020344158123" lon="11.772887432089918"><ele>679.0</ele><time>2026-05-02T12:13:17Z</time></trkpt><trkpt lat="46.10202694190134" lon="11.773086186342457"><ele>679.0</ele><time>2026-05-02T12:13:19Z</time></trkpt><trkpt lat="46.10202575938194" lon="11.773186659943311"><ele>684.0</ele><time>2026-05-02T12:13:20Z</time></trkpt><trkpt lat="46.102044022847046" lon="11.77335428376414"><ele>689.0</ele><time>2026-05-02T12:13:22Z</time></trkpt><trkpt lat="46.1020743835083" lon="11.773434096835002"><ele>694.0</ele><time>2026-05-02T12:13:23Z</time></trkpt><trkpt lat="46.102154754951485" lon="11.773562973020153"><ele>699.0</ele><time>2026-05-02T12:13:25Z</time></trkpt><trkpt lat="46.102224904022535" lon="11.773712362405982"><ele>704.0</ele><time>2026-05-02T12:13:27Z</time></trkpt><trkpt lat="46.10225952959466" lon="11.773883062014836"><ele>702.1666666666666</ele><time>2026-05-02T12:13:29Z</time></trkpt><trkpt lat="46.102293811092046" lon="11.773962629038003"><ele>700.3333333333333</ele><time>2026-05-02T12:13:30Z</time></trkpt><trkpt lat="46.10238503005422" lon="11.774081793732929"><ele>698.5</ele><time>2026-05-02T12:13:32Z</time></trkpt><trkpt lat="46.10243799932817" lon="11.77413508287344"><ele>696.6666666666666</ele><time>2026-05-02T12:13:33Z</time></trkpt><trkpt lat="46.10248881936489" lon="11.774206240533848"><ele>694.8333333333334</ele><time>2026-05-02T12:13:34Z</time></trkpt><trkpt lat="46.10252551079911" lon="11.774290716694589"><ele>693.0</ele><time>2026-05-02T12:13:35Z</time></trkpt><trkpt lat="46.102557260787044" lon="11.774455288540624"><ele>693.0</ele><time>2026-05-02T12:13:36.999Z</time></trkpt><trkpt lat="46.10258110612188" lon="11.774570466414893"><ele>693.0</ele><time>2026-05-02T12:13:37.999Z</time></trkpt><trkpt lat="46.10258083024056" lon="11.774679961258643"><ele>693.0</ele><time>2026-05-02T12:13:38.999Z</time></trkpt><trkpt lat="46.10258366294284" lon="11.774785887801514"><ele>693.0</ele><time>2026-05-02T12:13:39.999Z</time></trkpt><trkpt lat="46.10260706716191" lon="11.774895731147737"><ele>693.0</ele><time>2026-05-02T12:13:40.999Z</time></trkpt><trkpt lat="46.102628129444035" lon="11.774999958634949"><ele>693.0</ele><time>2026-05-02T12:13:41.999Z</time></trkpt><trkpt lat="46.102655553197636" lon="11.775111693424737"><ele>695.8333333333334</ele><time>2026-05-02T12:13:42.999Z</time></trkpt><trkpt lat="46.10268419509667" lon="11.775207828507897"><ele>698.6666666666666</ele><time>2026-05-02T12:13:43.999Z</time></trkpt><trkpt lat="46.10271632617862" lon="11.775297311693393"><ele>701.5</ele><time>2026-05-02T12:13:44.999Z</time></trkpt><trkpt lat="46.10274912799747" lon="11.775400128178399"><ele>704.3333333333333</ele><time>2026-05-02T12:13:45.999Z</time></trkpt><trkpt lat="46.102786002044176" lon="11.775501706988695"><ele>707.1666666666666</ele><time>2026-05-02T12:13:46.999Z</time></trkpt><trkpt lat="46.10281734053277" lon="11.775607919722821"><ele>710.0</ele><time>2026-05-02T12:13:47.999Z</time></trkpt><trkpt lat="46.102848051620406" lon="11.77569899152806"><ele>710.0</ele><time>2026-05-02T12:13:48.999Z</time></trkpt><trkpt lat="46.102886919186844" lon="11.775785779495664"><ele>710.0</ele><time>2026-05-02T12:13:49.999Z</time></trkpt><trkpt lat="46.1029288587337" lon="11.775949743198819"><ele>710.0</ele><time>2026-05-02T12:13:51.999Z</time></trkpt><trkpt lat="46.1029134556639" lon="11.776119969919066"><ele>710.0</ele><time>2026-05-02T12:13:53.999Z</time></trkpt><trkpt lat="46.102919789531626" lon="11.776211179502138"><ele>710.0</ele><time>2026-05-02T12:13:54.999Z</time></trkpt><trkpt lat="46.102883998065586" lon="11.776318893186733"><ele>711.0</ele><time>2026-05-02T12:13:55.999Z</time></trkpt><trkpt lat="46.10287239390788" lon="11.776440797421092"><ele>712.0</ele><time>2026-05-02T12:13:56.999Z</time></trkpt><trkpt lat="46.10286823863821" lon="11.776558824416211"><ele>713.0</ele><time>2026-05-02T12:13:57.999Z</time></trkpt><trkpt lat="46.10285266750035" lon="11.776660312870414"><ele>714.0</ele><time>2026-05-02T12:13:58.999Z</time></trkpt><trkpt lat="46.10284852976736" lon="11.776774491523499"><ele>715.0</ele><time>2026-05-02T12:13:59.999Z</time></trkpt><trkpt lat="46.10283573601795" lon="11.776881444608817"><ele>716.0</ele><time>2026-05-02T12:14:00.999Z</time></trkpt><trkpt lat="46.10277645985889" lon="11.777053840513087"><ele>717.0</ele><time>2026-05-02T12:14:02.999Z</time></trkpt><trkpt lat="46.102740143149845" lon="11.777152114722671"><ele>718.0</ele><time>2026-05-02T12:14:03.999Z</time></trkpt><trkpt lat="46.10270380813361" lon="11.777254806950756"><ele>719.0</ele><time>2026-05-02T12:14:04.999Z</time></trkpt><trkpt lat="46.10267306557179" lon="11.77736158548792"><ele>720.0</ele><time>2026-05-02T12:14:05.999Z</time></trkpt><trkpt lat="46.102650588561374" lon="11.777472468832004"><ele>721.0</ele><time>2026-05-02T12:14:06.999Z</time></trkpt><trkpt lat="46.10264608634478" lon="11.777576517023398"><ele>722.0</ele><time>2026-05-02T12:14:07.999Z</time></trkpt><trkpt lat="46.10264010342659" lon="11.777678882172093"><ele>722.2</ele><time>2026-05-02T12:14:08.999Z</time></trkpt><trkpt lat="46.10263874989011" lon="11.77778855354935"><ele>722.4000000000001</ele><time>2026-05-02T12:14:09.999Z</time></trkpt><trkpt lat="46.10263441402536" lon="11.777887375302303"><ele>722.5999999999999</ele><time>2026-05-02T12:14:10.999Z</time></trkpt><trkpt lat="46.10261858131411" lon="11.778063746356818"><ele>722.8</ele><time>2026-05-02T12:14:12.999Z</time></trkpt><trkpt lat="46.1026082977112" lon="11.778155853884012"><ele>723.0</ele><time>2026-05-02T12:14:13.999Z</time></trkpt><trkpt lat="46.10262874484336" lon="11.77835889873591"><ele>723.0</ele><time>2026-05-02T12:14:15.999Z</time></trkpt><trkpt lat="46.102668878934274" lon="11.778517958030974"><ele>723.0</ele><time>2026-05-02T12:14:17.999Z</time></trkpt><trkpt lat="46.10266665097319" lon="11.778610733744214"><ele>723.0</ele><time>2026-05-02T12:14:18.999Z</time></trkpt><trkpt lat="46.10267069480964" lon="11.7787166054806"><ele>723.0</ele><time>2026-05-02T12:14:19.999Z</time></trkpt><trkpt lat="46.10266139749644" lon="11.77881181346456"><ele>723.0</ele><time>2026-05-02T12:14:20.999Z</time></trkpt><trkpt lat="46.10264130447231" lon="11.778933407240867"><ele>723.0</ele><time>2026-05-02T12:14:21.999Z</time></trkpt><trkpt lat="46.10263934032611" lon="11.779069535095703"><ele>723.8</ele><time>2026-05-02T12:14:22.999Z</time></trkpt><trkpt lat="46.10265330244913" lon="11.77920023675727"><ele>724.5999999999999</ele><time>2026-05-02T12:14:23.999Z</time></trkpt><trkpt lat="46.10264431456545" lon="11.77936508391599"><ele>725.4000000000001</ele><time>2026-05-02T12:14:25.999Z</time></trkpt><trkpt lat="46.10263242508335" lon="11.779480578474322"><ele>726.2</ele><time>2026-05-02T12:14:26.999Z</time></trkpt><trkpt lat="46.102623898542944" lon="11.779586139848899"><ele>727.0</ele><time>2026-05-02T12:14:27.999Z</time></trkpt><trkpt lat="46.10261551853307" lon="11.7797587930472"><ele>727.6666666666667</ele><time>2026-05-02T12:14:29.999Z</time></trkpt><trkpt lat="46.10260432193189" lon="11.779857186324298"><ele>728.3333333333334</ele><time>2026-05-02T12:14:30.999Z</time></trkpt><trkpt lat="46.102615968643626" lon="11.780034958795845"><ele>729.0</ele><time>2026-05-02T12:14:32.999Z</time></trkpt><trkpt lat="46.10262381430901" lon="11.780129528444993"><ele>729.6666666666666</ele><time>2026-05-02T12:14:33.999Z</time></trkpt><trkpt lat="46.10261070536637" lon="11.780231333726778"><ele>730.3333333333333</ele><time>2026-05-02T12:14:35.999Z</time></trkpt><trkpt lat="46.10264866111204" lon="11.780305058967787"><ele>731.0</ele><time>2026-05-02T12:14:38Z</time></trkpt><trkpt lat="46.102631908217866" lon="11.780415853932421"><ele>731.0</ele><time>2026-05-02T12:14:41Z</time></trkpt><trkpt lat="46.102559913968165" lon="11.780392803628667"><ele>731.0</ele><time>2026-05-02T12:14:43Z</time></trkpt><trkpt lat="46.10252127980976" lon="11.780260533719057"><ele>731.0</ele><time>2026-05-02T12:14:45Z</time></trkpt><trkpt lat="46.102502680830305" lon="11.78007353953108"><ele>731.0</ele><time>2026-05-02T12:14:47Z</time></trkpt><trkpt lat="46.1024952059659" lon="11.779975645034048"><ele>731.0</ele><time>2026-05-02T12:14:48Z</time></trkpt><trkpt lat="46.10248668768013" lon="11.77978520526271"><ele>731.0</ele><time>2026-05-02T12:14:50Z</time></trkpt><trkpt lat="46.10244896096783" lon="11.779674913211485"><ele>731.0</ele><time>2026-05-02T12:14:51Z</time></trkpt><trkpt lat="46.102428715992545" lon="11.779568101048946"><ele>731.0</ele><time>2026-05-02T12:14:52Z</time></trkpt><trkpt lat="46.1024002906552" lon="11.779475664531459"><ele>731.0</ele><time>2026-05-02T12:14:53Z</time></trkpt><trkpt lat="46.10239009401872" lon="11.779362407401473"><ele>731.0</ele><time>2026-05-02T12:14:54Z</time></trkpt><trkpt lat="46.10238580171076" lon="11.779251054391684"><ele>731.0</ele><time>2026-05-02T12:14:55Z</time></trkpt><trkpt lat="46.102373621853594" lon="11.77914916387147"><ele>739.1428571428571</ele><time>2026-05-02T12:14:56Z</time></trkpt><trkpt lat="46.10236791876529" lon="11.779046895870271"><ele>747.2857142857142</ele><time>2026-05-02T12:14:57Z</time></trkpt><trkpt lat="46.10234614854086" lon="11.7789615195923"><ele>755.4285714285714</ele><time>2026-05-02T12:14:58Z</time></trkpt><trkpt lat="46.102332185537755" lon="11.778859851492488"><ele>763.5714285714286</ele><time>2026-05-02T12:14:59Z</time></trkpt><trkpt lat="46.10230335284259" lon="11.778748529393749"><ele>771.7142857142858</ele><time>2026-05-02T12:15:00Z</time></trkpt><trkpt lat="46.10227115266669" lon="11.778645504598238"><ele>779.8571428571429</ele><time>2026-05-02T12:15:01Z</time></trkpt><trkpt lat="46.102244987980036" lon="11.778535841433873"><ele>788.0</ele><time>2026-05-02T12:15:02Z</time></trkpt><trkpt lat="46.10222419345463" lon="11.778361820482674"><ele>788.0</ele><time>2026-05-02T12:15:04Z</time></trkpt><trkpt lat="46.10221619524607" lon="11.778238465882126"><ele>788.0</ele><time>2026-05-02T12:15:05Z</time></trkpt><trkpt lat="46.10221158746199" lon="11.778122438816094"><ele>788.0</ele><time>2026-05-02T12:15:06Z</time></trkpt><trkpt lat="46.10222615956794" lon="11.778025691280924"><ele>788.0</ele><time>2026-05-02T12:15:07Z</time></trkpt><trkpt lat="46.102173279230286" lon="11.77783962084821"><ele>788.0</ele><time>2026-05-02T12:15:09Z</time></trkpt><trkpt lat="46.10209803636906" lon="11.777658152919404"><ele>787.6666666666667</ele><time>2026-05-02T12:15:11Z</time></trkpt><trkpt lat="46.10206475396015" lon="11.777545900972887"><ele>787.3333333333334</ele><time>2026-05-02T12:15:12Z</time></trkpt><trkpt lat="46.10203426089384" lon="11.7773733061998"><ele>787.0</ele><time>2026-05-02T12:15:14Z</time></trkpt><trkpt lat="46.10203042021051" lon="11.77727187643073"><ele>786.6666666666667</ele><time>2026-05-02T12:15:15Z</time></trkpt><trkpt lat="46.102031349145456" lon="11.77717811496864"><ele>786.3333333333334</ele><time>2026-05-02T12:15:16Z</time></trkpt><trkpt lat="46.102032874624534" lon="11.77707803424439"><ele>786.0</ele><time>2026-05-02T12:15:17Z</time></trkpt><trkpt lat="46.10205012099179" lon="11.776982672968872"><ele>786.0000000000001</ele><time>2026-05-02T12:15:18Z</time></trkpt><trkpt lat="46.10204809864966" lon="11.776885624177044"><ele>786.0</ele><time>2026-05-02T12:15:19Z</time></trkpt><trkpt lat="46.10201338511068" lon="11.77679750955918"><ele>786.0</ele><time>2026-05-02T12:15:20Z</time></trkpt><trkpt lat="46.10198235805727" lon="11.776706556517485"><ele>786.0</ele><time>2026-05-02T12:15:21Z</time></trkpt><trkpt lat="46.10195640425074" lon="11.776609630183394"><ele>786.0</ele><time>2026-05-02T12:15:22Z</time></trkpt><trkpt lat="46.10191030900451" lon="11.776522476497734"><ele>786.0000000000001</ele><time>2026-05-02T12:15:23Z</time></trkpt><trkpt lat="46.10187777390182" lon="11.776424474164667"><ele>786.0</ele><time>2026-05-02T12:15:24Z</time></trkpt><trkpt lat="46.10183171457612" lon="11.776317647091602"><ele>784.3333333333334</ele><time>2026-05-02T12:15:25Z</time></trkpt><trkpt lat="46.1017878622027" lon="11.776213355294512"><ele>782.6666666666667</ele><time>2026-05-02T12:15:26Z</time></trkpt><trkpt lat="46.10174850114821" lon="11.776111746214202"><ele>781.0</ele><time>2026-05-02T12:15:27Z</time></trkpt><trkpt lat="46.10170390939323" lon="11.776019025824063"><ele>779.3333333333334</ele><time>2026-05-02T12:15:28Z</time></trkpt><trkpt lat="46.10166288530585" lon="11.775924338009666"><ele>777.6666666666667</ele><time>2026-05-02T12:15:29Z</time></trkpt><trkpt lat="46.10162516728564" lon="11.77583471291367"><ele>776.0</ele><time>2026-05-02T12:15:30Z</time></trkpt><trkpt lat="46.10159152484397" lon="11.775750287598937"><ele>781.5999999999999</ele><time>2026-05-02T12:15:31Z</time></trkpt><trkpt lat="46.10152050708347" lon="11.775606258548333"><ele>787.2</ele><time>2026-05-02T12:15:32.999Z</time></trkpt><trkpt lat="46.10144043380848" lon="11.775468520631899"><ele>792.8</ele><time>2026-05-02T12:15:34.999Z</time></trkpt><trkpt lat="46.10137341957582" lon="11.775428723944556"><ele>798.4000000000001</ele><time>2026-05-02T12:15:35.999Z</time></trkpt><trkpt lat="46.10131408016057" lon="11.775389009114885"><ele>804.0</ele><time>2026-05-02T12:15:36.999Z</time></trkpt><trkpt lat="46.10118481230298" lon="11.775356850118953"><ele>804.0</ele><time>2026-05-02T12:15:38.999Z</time></trkpt><trkpt lat="46.10113372282986" lon="11.775284821508608"><ele>804.0</ele><time>2026-05-02T12:15:40.999Z</time></trkpt><trkpt lat="46.10111387227646" lon="11.775188916983572"><ele>804.0</ele><time>2026-05-02T12:15:41.999Z</time></trkpt><trkpt lat="46.10111912763846" lon="11.775096233175086"><ele>804.0</ele><time>2026-05-02T12:15:42.999Z</time></trkpt><trkpt lat="46.101093934238754" lon="11.775004251938135"><ele>804.0</ele><time>2026-05-02T12:15:43.999Z</time></trkpt><trkpt lat="46.101031698542535" lon="11.77504845463463"><ele>804.0</ele><time>2026-05-02T12:15:46.999Z</time></trkpt><trkpt lat="46.101026105491535" lon="11.775181527301868"><ele>804.0</ele><time>2026-05-02T12:15:48.999Z</time></trkpt><trkpt lat="46.1010502475296" lon="11.775274645953838"><ele>804.0</ele><time>2026-05-02T12:15:49.999Z</time></trkpt><trkpt lat="46.10109647087486" lon="11.77536375080558"><ele>804.0</ele><time>2026-05-02T12:15:50.999Z</time></trkpt><trkpt lat="46.101128631497204" lon="11.775475916189698"><ele>804.0</ele><time>2026-05-02T12:15:52.999Z</time></trkpt><trkpt lat="46.10124272199143" lon="11.775526320839614"><ele>804.0</ele><time>2026-05-02T12:15:54.999Z</time></trkpt><trkpt lat="46.10130127530373" lon="11.775567861884609"><ele>804.0</ele><time>2026-05-02T12:15:55.999Z</time></trkpt><trkpt lat="46.10135559987376" lon="11.775637095610032"><ele>804.0</ele><time>2026-05-02T12:15:56.999Z</time></trkpt><trkpt lat="46.101410186424964" lon="11.775793210118561"><ele>804.0</ele><time>2026-05-02T12:15:58.999Z</time></trkpt><trkpt lat="46.101434174178955" lon="11.775890020532387"><ele>804.0</ele><time>2026-05-02T12:15:59.999Z</time></trkpt><trkpt lat="46.1014640793703" lon="11.776006677304977"><ele>804.0</ele><time>2026-05-02T12:16:00.999Z</time></trkpt><trkpt lat="46.10148316062011" lon="11.776099761871793"><ele>804.0</ele><time>2026-05-02T12:16:01.999Z</time></trkpt><trkpt lat="46.101504878786486" lon="11.776209975920743"><ele>804.0</ele><time>2026-05-02T12:16:02.999Z</time></trkpt><trkpt lat="46.10152889460185" lon="11.776320294111077"><ele>804.0</ele><time>2026-05-02T12:16:03.999Z</time></trkpt><trkpt lat="46.10155408178537" lon="11.776438300083509"><ele>801.0</ele><time>2026-05-02T12:16:04.999Z</time></trkpt><trkpt lat="46.10160136090741" lon="11.776611725089833"><ele>798.0</ele><time>2026-05-02T12:16:06.999Z</time></trkpt><trkpt lat="46.101584526208114" lon="11.776701623119637"><ele>795.0</ele><time>2026-05-02T12:16:07.999Z</time></trkpt><trkpt lat="46.1015877243441" lon="11.776801681853591"><ele>792.0</ele><time>2026-05-02T12:16:08.999Z</time></trkpt><trkpt lat="46.101605669581524" lon="11.776906341183093"><ele>789.0</ele><time>2026-05-02T12:16:09.999Z</time></trkpt><trkpt lat="46.10163857156041" lon="11.777013578848463"><ele>786.0</ele><time>2026-05-02T12:16:10.999Z</time></trkpt><trkpt lat="46.101666174848106" lon="11.777102889085729"><ele>786.0</ele><time>2026-05-02T12:16:11.999Z</time></trkpt><trkpt lat="46.101640209508375" lon="11.7772764843599"><ele>786.0</ele><time>2026-05-02T12:16:13.999Z</time></trkpt><trkpt lat="46.10160846602717" lon="11.777376054282609"><ele>786.0</ele><time>2026-05-02T12:16:14.999Z</time></trkpt><trkpt lat="46.101587002367545" lon="11.777486787578164"><ele>786.0</ele><time>2026-05-02T12:16:15.999Z</time></trkpt><trkpt lat="46.10156479723047" lon="11.777687180250902"><ele>786.0</ele><time>2026-05-02T12:16:17.999Z</time></trkpt><trkpt lat="46.10157905447157" lon="11.777795273597931"><ele>786.4</ele><time>2026-05-02T12:16:18.999Z</time></trkpt><trkpt lat="46.101592442649505" lon="11.77789504541653"><ele>786.8</ele><time>2026-05-02T12:16:19.999Z</time></trkpt><trkpt lat="46.10163961144191" lon="11.77799422984934"><ele>787.1999999999999</ele><time>2026-05-02T12:16:20.999Z</time></trkpt><trkpt lat="46.101702601931706" lon="11.778144466667174"><ele>787.5999999999999</ele><time>2026-05-02T12:16:22.999Z</time></trkpt><trkpt lat="46.101665039637204" lon="11.778327254773307"><ele>788.0</ele><time>2026-05-02T12:16:24.999Z</time></trkpt><trkpt lat="46.101619366219786" lon="11.778419389884833"><ele>789.8333333333334</ele><time>2026-05-02T12:16:25.999Z</time></trkpt><trkpt lat="46.10157995760517" lon="11.778492930908495"><ele>791.6666666666667</ele><time>2026-05-02T12:16:26.999Z</time></trkpt><trkpt lat="46.101553998861036" lon="11.778600123136629"><ele>793.5</ele><time>2026-05-02T12:16:27.999Z</time></trkpt><trkpt lat="46.10154326838289" lon="11.778760074142507"><ele>795.3333333333333</ele><time>2026-05-02T12:16:29.999Z</time></trkpt><trkpt lat="46.10156757043523" lon="11.778855170936929"><ele>797.1666666666666</ele><time>2026-05-02T12:16:30.999Z</time></trkpt><trkpt lat="46.10159606202716" lon="11.77893675974885"><ele>799.0</ele><time>2026-05-02T12:16:31.999Z</time></trkpt><trkpt lat="46.1015694424969" lon="11.77904547656851"><ele>811.0</ele><time>2026-05-02T12:16:33.999Z</time></trkpt><trkpt lat="46.10148410698368" lon="11.779154283680457"><ele>823.0</ele><time>2026-05-02T12:16:35.999Z</time></trkpt><trkpt lat="46.10145797982296" lon="11.779256033135935"><ele>835.0000000000001</ele><time>2026-05-02T12:16:37.999Z</time></trkpt><trkpt lat="46.10147003737196" lon="11.779361415433096"><ele>847.0</ele><time>2026-05-02T12:16:39.999Z</time></trkpt><trkpt lat="46.101389595649685" lon="11.779341585624982"><ele>859.0</ele><time>2026-05-02T12:16:43Z</time></trkpt><trkpt lat="46.10139383296262" lon="11.77918192880546"><ele>858.9999999999999</ele><time>2026-05-02T12:16:46Z</time></trkpt><trkpt lat="46.101446892286425" lon="11.779090045147992"><ele>859.0</ele><time>2026-05-02T12:16:47Z</time></trkpt><trkpt lat="46.101504834079705" lon="11.778958914939984"><ele>859.0</ele><time>2026-05-02T12:16:49Z</time></trkpt><trkpt lat="46.10148348837167" lon="11.778812476395558"><ele>859.0</ele><time>2026-05-02T12:16:51Z</time></trkpt><trkpt lat="46.10145134618441" lon="11.77873241972406"><ele>858.9999999999999</ele><time>2026-05-02T12:16:52Z</time></trkpt><trkpt lat="46.10139239154908" lon="11.778642541157009"><ele>859.0</ele><time>2026-05-02T12:16:54Z</time></trkpt><trkpt lat="46.101403413896875" lon="11.778485539276762"><ele>859.0</ele><time>2026-05-02T12:16:56Z</time></trkpt><trkpt lat="46.10142812277154" lon="11.778368830206665"><ele>859.0000000000001</ele><time>2026-05-02T12:16:57Z</time></trkpt><trkpt lat="46.10145389182366" lon="11.778196634492963"><ele>859.0000000000001</ele><time>2026-05-02T12:16:59Z</time></trkpt><trkpt lat="46.10146891552653" lon="11.778079845848463"><ele>859.0</ele><time>2026-05-02T12:17:01Z</time></trkpt><trkpt lat="46.10142153838092" lon="11.777954280801806"><ele>859.0</ele><time>2026-05-02T12:17:03Z</time></trkpt><trkpt lat="46.10135219441803" lon="11.777804590168541"><ele>858.9999999999999</ele><time>2026-05-02T12:17:05Z</time></trkpt><trkpt lat="46.1013341194816" lon="11.777705940600956"><ele>859.0</ele><time>2026-05-02T12:17:06Z</time></trkpt><trkpt lat="46.10132254068264" lon="11.777604197188806"><ele>859.0</ele><time>2026-05-02T12:17:07Z</time></trkpt><trkpt lat="46.10129289935643" lon="11.777522175662194"><ele>859.0</ele><time>2026-05-02T12:17:08Z</time></trkpt><trkpt lat="46.10127255177339" lon="11.777435149418265"><ele>859.0</ele><time>2026-05-02T12:17:09Z</time></trkpt><trkpt lat="46.10124750461115" lon="11.777338298528925"><ele>858.9999999999999</ele><time>2026-05-02T12:17:10Z</time></trkpt><trkpt lat="46.10123134888679" lon="11.777219302873055"><ele>859.0</ele><time>2026-05-02T12:17:11Z</time></trkpt><trkpt lat="46.10121573149322" lon="11.77711577157635"><ele>857.3333333333333</ele><time>2026-05-02T12:17:12Z</time></trkpt><trkpt lat="46.101189792038625" lon="11.777022211546006"><ele>855.6666666666666</ele><time>2026-05-02T12:17:13Z</time></trkpt><trkpt lat="46.101103760317855" lon="11.776924094118947"><ele>854.0</ele><time>2026-05-02T12:17:15Z</time></trkpt><trkpt lat="46.101059967060834" lon="11.776855515351821"><ele>852.3333333333333</ele><time>2026-05-02T12:17:16Z</time></trkpt><trkpt lat="46.100936146252245" lon="11.776797399820362"><ele>850.6666666666666</ele><time>2026-05-02T12:17:18Z</time></trkpt><trkpt lat="46.10086225245349" lon="11.776780726694636"><ele>849.0</ele><time>2026-05-02T12:17:19Z</time></trkpt><trkpt lat="46.10078531474553" lon="11.776760433314202"><ele>848.6666666666666</ele><time>2026-05-02T12:17:20Z</time></trkpt><trkpt lat="46.10070780881263" lon="11.776747064559563"><ele>848.3333333333333</ele><time>2026-05-02T12:17:21Z</time></trkpt><trkpt lat="46.10061251566452" lon="11.776637706501493"><ele>848.0</ele><time>2026-05-02T12:17:23Z</time></trkpt><trkpt lat="46.10055225461367" lon="11.776602674251198"><ele>847.6666666666666</ele><time>2026-05-02T12:17:24Z</time></trkpt><trkpt lat="46.100494325814374" lon="11.77656639246286"><ele>847.3333333333333</ele><time>2026-05-02T12:17:25Z</time></trkpt><trkpt lat="46.10040614492521" lon="11.776485165274865"><ele>847.0</ele><time>2026-05-02T12:17:27Z</time></trkpt><trkpt lat="46.10031164452552" lon="11.776511292431385"><ele>846.9999999999999</ele><time>2026-05-02T12:17:30Z</time></trkpt><trkpt lat="46.10028608102949" lon="11.776664129995808"><ele>847.0</ele><time>2026-05-02T12:17:32Z</time></trkpt><trkpt lat="46.10035070455409" lon="11.776782974092422"><ele>847.0</ele><time>2026-05-02T12:17:34Z</time></trkpt><trkpt lat="46.100384869558305" lon="11.776859316869661"><ele>847.0</ele><time>2026-05-02T12:17:35Z</time></trkpt><trkpt lat="46.100419442208924" lon="11.776942979925709"><ele>846.9999999999999</ele><time>2026-05-02T12:17:36Z</time></trkpt><trkpt lat="46.100458913419516" lon="11.777032014875841"><ele>847.0</ele><time>2026-05-02T12:17:37Z</time></trkpt><trkpt lat="46.100502093254185" lon="11.77710995967062"><ele>847.4000000000001</ele><time>2026-05-02T12:17:38Z</time></trkpt><trkpt lat="46.10055595312869" lon="11.777191041853717"><ele>847.8000000000001</ele><time>2026-05-02T12:17:39Z</time></trkpt><trkpt lat="46.1006103094871" lon="11.777269452507785"><ele>848.2</ele><time>2026-05-02T12:17:39.999Z</time></trkpt><trkpt lat="46.10067244117028" lon="11.777359155144902"><ele>848.6</ele><time>2026-05-02T12:17:40.999Z</time></trkpt><trkpt lat="46.10078250105037" lon="11.777483973120484"><ele>849.0</ele><time>2026-05-02T12:17:42.999Z</time></trkpt><trkpt lat="46.10083477880398" lon="11.777569732010122"><ele>849.0</ele><time>2026-05-02T12:17:43.999Z</time></trkpt><trkpt lat="46.10086282585666" lon="11.777664176176522"><ele>849.0</ele><time>2026-05-02T12:17:44.999Z</time></trkpt><trkpt lat="46.10091402378996" lon="11.77775084429978"><ele>849.0</ele><time>2026-05-02T12:17:45.999Z</time></trkpt><trkpt lat="46.10098707419151" lon="11.77785595420407"><ele>849.0</ele><time>2026-05-02T12:17:47.999Z</time></trkpt><trkpt lat="46.10103343693618" lon="11.77802515464829"><ele>849.0</ele><time>2026-05-02T12:17:49.999Z</time></trkpt><trkpt lat="46.10096427200811" lon="11.77817384629631"><ele>851.0</ele><time>2026-05-02T12:17:51.999Z</time></trkpt><trkpt lat="46.100925206867664" lon="11.778350733473546"><ele>853.0</ele><time>2026-05-02T12:17:53.999Z</time></trkpt><trkpt lat="46.10085237136513" lon="11.778507702553181"><ele>855.0000000000001</ele><time>2026-05-02T12:17:55.999Z</time></trkpt><trkpt lat="46.10083478703483" lon="11.778633105891563"><ele>857.0</ele><time>2026-05-02T12:17:56.999Z</time></trkpt><trkpt lat="46.10083168486208" lon="11.77874530654821"><ele>859.0</ele><time>2026-05-02T12:17:57.999Z</time></trkpt><trkpt lat="46.10083702978399" lon="11.778858522566232"><ele>858.9999999999999</ele><time>2026-05-02T12:17:58.999Z</time></trkpt><trkpt lat="46.10084641281176" lon="11.77900528950086"><ele>859.0</ele><time>2026-05-02T12:17:59.999Z</time></trkpt><trkpt lat="46.100849376816534" lon="11.779127307109038"><ele>859.0</ele><time>2026-05-02T12:18:01.999Z</time></trkpt><trkpt lat="46.10084448034902" lon="11.77923188980472"><ele>859.0</ele><time>2026-05-02T12:18:02.999Z</time></trkpt><trkpt lat="46.100827360111914" lon="11.779331307764195"><ele>858.9999999999999</ele><time>2026-05-02T12:18:03.999Z</time></trkpt><trkpt lat="46.10081709735034" lon="11.779435229011243"><ele>859.0</ele><time>2026-05-02T12:18:04.999Z</time></trkpt><trkpt lat="46.10079606861206" lon="11.779543059642787"><ele>861.4999999999999</ele><time>2026-05-02T12:18:05.999Z</time></trkpt><trkpt lat="46.10077267266829" lon="11.779636063826253"><ele>864.0</ele><time>2026-05-02T12:18:07.999Z</time></trkpt><trkpt lat="46.100714367426164" lon="11.779790971522312"><ele>866.5</ele><time>2026-05-02T12:18:11.999Z</time></trkpt><trkpt lat="46.100705933392454" lon="11.779683092450409"><ele>869.0</ele><time>2026-05-02T12:18:12.999Z</time></trkpt><trkpt lat="46.10077360930065" lon="11.779726543474743"><ele>871.4999999999999</ele><time>2026-05-02T12:18:15.999Z</time></trkpt><trkpt lat="46.100732635205844" lon="11.779632673796968"><ele>874.0</ele><time>2026-05-02T12:18:17.999Z</time></trkpt><trkpt lat="46.10072206579798" lon="11.779537326993605"><ele>871.4999999999999</ele><time>2026-05-02T12:18:18.999Z</time></trkpt><trkpt lat="46.10072774400657" lon="11.77943946937752"><ele>869.0</ele><time>2026-05-02T12:18:19.999Z</time></trkpt><trkpt lat="46.10073704443319" lon="11.779340774576928"><ele>866.5</ele><time>2026-05-02T12:18:20.999Z</time></trkpt><trkpt lat="46.10074626022317" lon="11.779232674631265"><ele>864.0</ele><time>2026-05-02T12:18:21.999Z</time></trkpt><trkpt lat="46.100754440113576" lon="11.779139709009788"><ele>861.4999999999999</ele><time>2026-05-02T12:18:22.999Z</time></trkpt><trkpt lat="46.100760143350186" lon="11.77903552829373"><ele>859.0</ele><time>2026-05-02T12:18:23.999Z</time></trkpt><trkpt lat="46.10074460251219" lon="11.77884981106383"><ele>864.6666666666666</ele><time>2026-05-02T12:18:25.999Z</time></trkpt><trkpt lat="46.10071061825829" lon="11.778760569368906"><ele>870.3333333333333</ele><time>2026-05-02T12:18:26.999Z</time></trkpt><trkpt lat="46.100658086529386" lon="11.778697119594066"><ele>876.0</ele><time>2026-05-02T12:18:27.999Z</time></trkpt><trkpt lat="46.10062386709096" lon="11.778605178601424"><ele>881.6666666666667</ele><time>2026-05-02T12:18:28.999Z</time></trkpt><trkpt lat="46.10060713283909" lon="11.778448788415485"><ele>887.3333333333334</ele><time>2026-05-02T12:18:30.999Z</time></trkpt><trkpt lat="46.10059811809637" lon="11.778306717036063"><ele>893.0</ele><time>2026-05-02T12:18:32.999Z</time></trkpt><trkpt lat="46.100536745157775" lon="11.778168123417668"><ele>893.0000000000001</ele><time>2026-05-02T12:18:34.999Z</time></trkpt><trkpt lat="46.10047677977939" lon="11.778100787800486"><ele>893.0</ele><time>2026-05-02T12:18:35.999Z</time></trkpt><trkpt lat="46.100401883347" lon="11.778029605691236"><ele>893.0</ele><time>2026-05-02T12:18:36.999Z</time></trkpt><trkpt lat="46.10033717344208" lon="11.777975617378017"><ele>893.0</ele><time>2026-05-02T12:18:37.999Z</time></trkpt><trkpt lat="46.100277447154355" lon="11.777926006977827"><ele>893.0000000000001</ele><time>2026-05-02T12:18:38.999Z</time></trkpt><trkpt lat="46.10019828619951" lon="11.777869776344389"><ele>893.0</ele><time>2026-05-02T12:18:39.999Z</time></trkpt><trkpt lat="46.10006354510298" lon="11.777816264166344"><ele>893.0</ele><time>2026-05-02T12:18:41.999Z</time></trkpt><trkpt lat="46.099983441966295" lon="11.777735673641821"><ele>893.0</ele><time>2026-05-02T12:18:42.999Z</time></trkpt><trkpt lat="46.09992021939695" lon="11.777682009558237"><ele>893.0</ele><time>2026-05-02T12:18:43.999Z</time></trkpt><trkpt lat="46.09986636554548" lon="11.777606612371885"><ele>893.0</ele><time>2026-05-02T12:18:45.999Z</time></trkpt><trkpt lat="46.09980975391442" lon="11.77741710255232"><ele>893.0</ele><time>2026-05-02T12:18:47.998Z</time></trkpt><trkpt lat="46.09975247953282" lon="11.777281378846803"><ele>892.3333333333334</ele><time>2026-05-02T12:18:50Z</time></trkpt><trkpt lat="46.099684836875724" lon="11.777202706238164"><ele>891.6666666666667</ele><time>2026-05-02T12:18:52Z</time></trkpt><trkpt lat="46.099589394126305" lon="11.777230234637125"><ele>891.0</ele><time>2026-05-02T12:18:53Z</time></trkpt><trkpt lat="46.099522378168686" lon="11.777267986609878"><ele>890.3333333333333</ele><time>2026-05-02T12:18:54Z</time></trkpt><trkpt lat="46.09948230818134" lon="11.777340908130043"><ele>889.6666666666666</ele><time>2026-05-02T12:18:55Z</time></trkpt><trkpt lat="46.09948769153498" lon="11.777451316566497"><ele>889.0</ele><time>2026-05-02T12:18:57Z</time></trkpt><trkpt lat="46.09950300303119" lon="11.777608856558649"><ele>894.3333333333333</ele><time>2026-05-02T12:18:59Z</time></trkpt><trkpt lat="46.09953621076414" lon="11.77769608002026"><ele>899.6666666666666</ele><time>2026-05-02T12:19:00Z</time></trkpt><trkpt lat="46.09956678505909" lon="11.77779648446168"><ele>905.0</ele><time>2026-05-02T12:19:01Z</time></trkpt><trkpt lat="46.09960965081186" lon="11.777935090955532"><ele>910.3333333333333</ele><time>2026-05-02T12:19:02Z</time></trkpt><trkpt lat="46.099647327923236" lon="11.778022597063655"><ele>915.6666666666666</ele><time>2026-05-02T12:19:03Z</time></trkpt><trkpt lat="46.09968804334658" lon="11.778116761054465"><ele>921.0</ele><time>2026-05-02T12:19:04Z</time></trkpt><trkpt lat="46.099734055966174" lon="11.778223176047922"><ele>921.0</ele><time>2026-05-02T12:19:05Z</time></trkpt><trkpt lat="46.099785223842" lon="11.778341207751392"><ele>920.9999999999999</ele><time>2026-05-02T12:19:06Z</time></trkpt><trkpt lat="46.099833292101536" lon="11.778451515749428"><ele>920.9999999999999</ele><time>2026-05-02T12:19:07Z</time></trkpt><trkpt lat="46.09988702899713" lon="11.778574832232122"><ele>921.0</ele><time>2026-05-02T12:19:08Z</time></trkpt><trkpt lat="46.09995865752229" lon="11.778691243815782"><ele>921.0</ele><time>2026-05-02T12:19:09Z</time></trkpt><trkpt lat="46.09999135520562" lon="11.778777935234361"><ele>922.5999999999999</ele><time>2026-05-02T12:19:10Z</time></trkpt><trkpt lat="46.10002113314233" lon="11.778879080454834"><ele>924.1999999999999</ele><time>2026-05-02T12:19:11Z</time></trkpt><trkpt lat="46.10007856629012" lon="11.779013302817981"><ele>925.8000000000001</ele><time>2026-05-02T12:19:12Z</time></trkpt><trkpt lat="46.100119285529495" lon="11.779174496375617"><ele>927.4000000000001</ele><time>2026-05-02T12:19:13Z</time></trkpt><trkpt lat="46.100137537026505" lon="11.779320457803212"><ele>929.0</ele><time>2026-05-02T12:19:15Z</time></trkpt><trkpt lat="46.1001636219945" lon="11.779438188835194"><ele>929.0</ele><time>2026-05-02T12:19:16Z</time></trkpt><trkpt lat="46.10019935571152" lon="11.779650174203994"><ele>929.0000000000001</ele><time>2026-05-02T12:19:17Z</time></trkpt><trkpt lat="46.10022423819801" lon="11.77979687089809"><ele>929.0000000000001</ele><time>2026-05-02T12:19:18Z</time></trkpt><trkpt lat="46.10024341679327" lon="11.779905973904764"><ele>929.0</ele><time>2026-05-02T12:19:19Z</time></trkpt><trkpt lat="46.100254150457815" lon="11.780021938371853"><ele>929.0</ele><time>2026-05-02T12:19:20Z</time></trkpt><trkpt lat="46.10030212327529" lon="11.780113347299254"><ele>930.5000000000001</ele><time>2026-05-02T12:19:21Z</time></trkpt><trkpt lat="46.100335509234306" lon="11.78020207717527"><ele>932.0</ele><time>2026-05-02T12:19:22Z</time></trkpt><trkpt lat="46.10036976672108" lon="11.780287189073068"><ele>933.5</ele><time>2026-05-02T12:19:23Z</time></trkpt><trkpt lat="46.100420510947856" lon="11.780406395457073"><ele>935.0</ele><time>2026-05-02T12:19:25Z</time></trkpt><trkpt lat="46.100464605309085" lon="11.780494840415129"><ele>936.5000000000001</ele><time>2026-05-02T12:19:27Z</time></trkpt><trkpt lat="46.10040810524513" lon="11.780540644850413"><ele>938.0</ele><time>2026-05-02T12:19:30Z</time></trkpt><trkpt lat="46.10034179458067" lon="11.780455953220518"><ele>938.0000000000001</ele><time>2026-05-02T12:19:33Z</time></trkpt><trkpt lat="46.10028183838003" lon="11.780291984067333"><ele>938.0</ele><time>2026-05-02T12:19:35Z</time></trkpt><trkpt lat="46.100232012915555" lon="11.780205817356109"><ele>938.0</ele><time>2026-05-02T12:19:36Z</time></trkpt><trkpt lat="46.100178720916226" lon="11.78014279897217"><ele>938.0</ele><time>2026-05-02T12:19:37Z</time></trkpt><trkpt lat="46.10013120779027" lon="11.780056041150495"><ele>938.0000000000001</ele><time>2026-05-02T12:19:38Z</time></trkpt><trkpt lat="46.10006425977127" lon="11.779990251557768"><ele>938.0</ele><time>2026-05-02T12:19:39Z</time></trkpt><trkpt lat="46.09999887585326" lon="11.779919427477841"><ele>936.5000000000001</ele><time>2026-05-02T12:19:39.999Z</time></trkpt><trkpt lat="46.099936703772364" lon="11.779869832568355"><ele>935.0</ele><time>2026-05-02T12:19:40.999Z</time></trkpt><trkpt lat="46.099873449488314" lon="11.779821307019082"><ele>933.5</ele><time>2026-05-02T12:19:41.999Z</time></trkpt><trkpt lat="46.09980503076459" lon="11.779763368350038"><ele>932.0</ele><time>2026-05-02T12:19:42.999Z</time></trkpt><trkpt lat="46.09973932371011" lon="11.779653738677148"><ele>930.5000000000001</ele><time>2026-05-02T12:19:43.999Z</time></trkpt><trkpt lat="46.09968615970275" lon="11.779534856393612"><ele>929.0</ele><time>2026-05-02T12:19:44.999Z</time></trkpt><trkpt lat="46.09962924730856" lon="11.779441488996635"><ele>932.2</ele><time>2026-05-02T12:19:45.999Z</time></trkpt><trkpt lat="46.09958294908451" lon="11.77937945366109"><ele>935.4000000000001</ele><time>2026-05-02T12:19:46.999Z</time></trkpt><trkpt lat="46.09950115966458" lon="11.779293843076918"><ele>938.6</ele><time>2026-05-02T12:19:47.999Z</time></trkpt><trkpt lat="46.099424325627695" lon="11.77921918632103"><ele>941.8</ele><time>2026-05-02T12:19:48.999Z</time></trkpt><trkpt lat="46.09934464526842" lon="11.77913942620936"><ele>945.0</ele><time>2026-05-02T12:19:49.999Z</time></trkpt><trkpt lat="46.09924411077066" lon="11.779013728844468"><ele>945.0</ele><time>2026-05-02T12:19:51.999Z</time></trkpt><trkpt lat="46.099195501797205" lon="11.778919447522286"><ele>945.0</ele><time>2026-05-02T12:19:52.999Z</time></trkpt><trkpt lat="46.09915610084402" lon="11.778816753951137"><ele>945.0</ele><time>2026-05-02T12:19:53.999Z</time></trkpt><trkpt lat="46.09910031548098" lon="11.778664936798984"><ele>945.0</ele><time>2026-05-02T12:19:55.999Z</time></trkpt><trkpt lat="46.0990539592577" lon="11.778567435315098"><ele>945.0</ele><time>2026-05-02T12:19:57.999Z</time></trkpt><trkpt lat="46.09896539359971" lon="11.778583260902495"><ele>945.0</ele><time>2026-05-02T12:19:59.999Z</time></trkpt><trkpt lat="46.09894502924784" lon="11.77871627947355"><ele>945.0</ele><time>2026-05-02T12:20:01.999Z</time></trkpt><trkpt lat="46.09899901825647" lon="11.778871774237638"><ele>945.0</ele><time>2026-05-02T12:20:03.999Z</time></trkpt><trkpt lat="46.09903779351214" lon="11.77895855947923"><ele>945.0</ele><time>2026-05-02T12:20:04.999Z</time></trkpt><trkpt lat="46.09907620696463" lon="11.779050190128137"><ele>945.0</ele><time>2026-05-02T12:20:05.999Z</time></trkpt><trkpt lat="46.09911345556616" lon="11.779155456801348"><ele>945.0</ele><time>2026-05-02T12:20:06.999Z</time></trkpt><trkpt lat="46.0991627844518" lon="11.779250889387669"><ele>945.0</ele><time>2026-05-02T12:20:07.999Z</time></trkpt><trkpt lat="46.09920599508421" lon="11.779338722480736"><ele>945.0</ele><time>2026-05-02T12:20:08.999Z</time></trkpt><trkpt lat="46.0992486803105" lon="11.779445109755555"><ele>945.0</ele><time>2026-05-02T12:20:09.999Z</time></trkpt><trkpt lat="46.09929563735441" lon="11.779524010858621"><ele>945.0</ele><time>2026-05-02T12:20:10.999Z</time></trkpt><trkpt lat="46.09933305097133" lon="11.779616537299201"><ele>945.0</ele><time>2026-05-02T12:20:11.999Z</time></trkpt><trkpt lat="46.09937265955312" lon="11.77970345577367"><ele>945.0</ele><time>2026-05-02T12:20:12.999Z</time></trkpt><trkpt lat="46.09941064518337" lon="11.779804124373044"><ele>949.0</ele><time>2026-05-02T12:20:13.999Z</time></trkpt><trkpt lat="46.09944915062076" lon="11.779898947896077"><ele>953.0</ele><time>2026-05-02T12:20:14.999Z</time></trkpt><trkpt lat="46.099502449714606" lon="11.780005964909458"><ele>957.0</ele><time>2026-05-02T12:20:15.999Z</time></trkpt><trkpt lat="46.099529411034894" lon="11.780118621390923"><ele>961.0</ele><time>2026-05-02T12:20:16.999Z</time></trkpt><trkpt lat="46.09955383355748" lon="11.780213969360785"><ele>965.0</ele><time>2026-05-02T12:20:17.999Z</time></trkpt><trkpt lat="46.09956196001848" lon="11.780319757740404"><ele>969.0</ele><time>2026-05-02T12:20:18.999Z</time></trkpt><trkpt lat="46.09958140862686" lon="11.780437248243416"><ele>971.5</ele><time>2026-05-02T12:20:19.999Z</time></trkpt><trkpt lat="46.09962164082994" lon="11.780528694535294"><ele>974.0</ele><time>2026-05-02T12:20:20.999Z</time></trkpt><trkpt lat="46.099688550209216" lon="11.780615511035494"><ele>976.5</ele><time>2026-05-02T12:20:21.999Z</time></trkpt><trkpt lat="46.09974557622831" lon="11.780682784732162"><ele>979.0</ele><time>2026-05-02T12:20:22.999Z</time></trkpt><trkpt lat="46.099830877464385" lon="11.780755439116538"><ele>981.5</ele><time>2026-05-02T12:20:24.999Z</time></trkpt><trkpt lat="46.099810350118624" lon="11.780866374619198"><ele>984.0</ele><time>2026-05-02T12:20:27.999Z</time></trkpt><trkpt lat="46.09973726684287" lon="11.780858417009249"><ele>984.0</ele><time>2026-05-02T12:20:29.999Z</time></trkpt><trkpt lat="46.0996859725602" lon="11.780764362313946"><ele>984.0</ele><time>2026-05-02T12:20:30.999Z</time></trkpt><trkpt lat="46.099622609146465" lon="11.780704429396563"><ele>984.0</ele><time>2026-05-02T12:20:31.999Z</time></trkpt><trkpt lat="46.09955340547436" lon="11.780623425651843"><ele>984.0</ele><time>2026-05-02T12:20:32.999Z</time></trkpt><trkpt lat="46.09950384261505" lon="11.780540614499484"><ele>984.0</ele><time>2026-05-02T12:20:33.999Z</time></trkpt><trkpt lat="46.09944994279078" lon="11.78044460320584"><ele>984.0</ele><time>2026-05-02T12:20:34.999Z</time></trkpt><trkpt lat="46.09940953748664" lon="11.780313745259733"><ele>984.0</ele><time>2026-05-02T12:20:35.999Z</time></trkpt><trkpt lat="46.09935976151446" lon="11.780204727172483"><ele>984.0000000000001</ele><time>2026-05-02T12:20:36.999Z</time></trkpt><trkpt lat="46.099295683829546" lon="11.780108647493094"><ele>984.0000000000001</ele><time>2026-05-02T12:20:37.999Z</time></trkpt><trkpt lat="46.09922765707804" lon="11.780006482019415"><ele>984.0</ele><time>2026-05-02T12:20:38.999Z</time></trkpt><trkpt lat="46.099145173333326" lon="11.779913991319997"><ele>984.0</ele><time>2026-05-02T12:20:39.999Z</time></trkpt><trkpt lat="46.09904319984531" lon="11.779829145678455"><ele>989.2</ele><time>2026-05-02T12:20:40.999Z</time></trkpt><trkpt lat="46.098963663965804" lon="11.779705569321644"><ele>994.4000000000001</ele><time>2026-05-02T12:20:41.999Z</time></trkpt><trkpt lat="46.0988812000593" lon="11.779621139144801"><ele>999.6</ele><time>2026-05-02T12:20:42.999Z</time></trkpt><trkpt lat="46.09881367791505" lon="11.779535349014088"><ele>1004.8</ele><time>2026-05-02T12:20:43.999Z</time></trkpt><trkpt lat="46.098741913648084" lon="11.779451736476185"><ele>1010.0</ele><time>2026-05-02T12:20:44.999Z</time></trkpt><trkpt lat="46.09869306203101" lon="11.779359290419467"><ele>1005.0000000000001</ele><time>2026-05-02T12:20:45.998Z</time></trkpt><trkpt lat="46.098648662681946" lon="11.779258176730373"><ele>1000.0</ele><time>2026-05-02T12:20:46.998Z</time></trkpt><trkpt lat="46.09859687459105" lon="11.779143342738307"><ele>995.0</ele><time>2026-05-02T12:20:47.998Z</time></trkpt><trkpt lat="46.098560037758666" lon="11.779052051164877"><ele>990.0</ele><time>2026-05-02T12:20:48.998Z</time></trkpt><trkpt lat="46.09852294018428" lon="11.7789719996706"><ele>985.0000000000001</ele><time>2026-05-02T12:20:49.998Z</time></trkpt><trkpt lat="46.09845779171543" lon="11.7788247264995"><ele>980.0</ele><time>2026-05-02T12:20:51.998Z</time></trkpt><trkpt lat="46.09839662325551" lon="11.778753792976516"><ele>980.0000000000001</ele><time>2026-05-02T12:20:52.998Z</time></trkpt><trkpt lat="46.09831158252333" lon="11.778708363364158"><ele>980.0</ele><time>2026-05-02T12:20:53.998Z</time></trkpt><trkpt lat="46.09823998968943" lon="11.778656740494014"><ele>980.0</ele><time>2026-05-02T12:20:55Z</time></trkpt><trkpt lat="46.09818860208383" lon="11.778602085164911"><ele>980.0</ele><time>2026-05-02T12:20:57Z</time></trkpt><trkpt lat="46.09815036535288" lon="11.778702269692506"><ele>980.0000000000001</ele><time>2026-05-02T12:20:58Z</time></trkpt><trkpt lat="46.09821159889498" lon="11.77885668493489"><ele>980.0</ele><time>2026-05-02T12:20:59Z</time></trkpt><trkpt lat="46.098284972401736" lon="11.778776463855971"><ele>980.0</ele><time>2026-05-02T12:21:02Z</time></trkpt><trkpt lat="46.09834478317232" lon="11.778919662653005"><ele>980.0</ele><time>2026-05-02T12:21:04Z</time></trkpt><trkpt lat="46.098394710633904" lon="11.77908771374418"><ele>980.0</ele><time>2026-05-02T12:21:06Z</time></trkpt><trkpt lat="46.09842842504419" lon="11.779178515014"><ele>980.0</ele><time>2026-05-02T12:21:07Z</time></trkpt><trkpt lat="46.09846527289278" lon="11.779277755390318"><ele>980.0</ele><time>2026-05-02T12:21:08Z</time></trkpt><trkpt lat="46.098502613258425" lon="11.779447684188874"><ele>985.0000000000001</ele><time>2026-05-02T12:21:10Z</time></trkpt><trkpt lat="46.09854574375805" lon="11.779543177208454"><ele>990.0</ele><time>2026-05-02T12:21:11Z</time></trkpt><trkpt lat="46.09858251586151" lon="11.77963779934401"><ele>995.0</ele><time>2026-05-02T12:21:12Z</time></trkpt><trkpt lat="46.09862702197602" lon="11.779752322666956"><ele>1000.0</ele><time>2026-05-02T12:21:13Z</time></trkpt><trkpt lat="46.098666238065974" lon="11.779853233699413"><ele>1005.0000000000001</ele><time>2026-05-02T12:21:14Z</time></trkpt><trkpt lat="46.098712099920256" lon="11.779968086470657"><ele>1010.0</ele><time>2026-05-02T12:21:15Z</time></trkpt><trkpt lat="46.09875567147246" lon="11.780073613719154"><ele>1010.0000000000001</ele><time>2026-05-02T12:21:16Z</time></trkpt><trkpt lat="46.09880899472448" lon="11.780181773619011"><ele>1010.0</ele><time>2026-05-02T12:21:17Z</time></trkpt><trkpt lat="46.09883959361073" lon="11.78028045529578"><ele>1010.0</ele><time>2026-05-02T12:21:18Z</time></trkpt><trkpt lat="46.09887627353635" lon="11.780381041895605"><ele>1010.0</ele><time>2026-05-02T12:21:19Z</time></trkpt><trkpt lat="46.098915957400024" lon="11.780482328395735"><ele>1010.0000000000001</ele><time>2026-05-02T12:21:20Z</time></trkpt><trkpt lat="46.09894937642054" lon="11.780585140209434"><ele>1010.0</ele><time>2026-05-02T12:21:21Z</time></trkpt><trkpt lat="46.09899820235264" lon="11.780670456463653"><ele>1008.2</ele><time>2026-05-02T12:21:22Z</time></trkpt><trkpt lat="46.09900015331631" lon="11.780850955077145"><ele>1006.4</ele><time>2026-05-02T12:21:24Z</time></trkpt><trkpt lat="46.09902234080184" lon="11.780974396250391"><ele>1004.5999999999999</ele><time>2026-05-02T12:21:25Z</time></trkpt><trkpt lat="46.09903676832254" lon="11.781086603938377"><ele>1002.8</ele><time>2026-05-02T12:21:26Z</time></trkpt><trkpt lat="46.09908560085972" lon="11.781192697693502"><ele>1001.0</ele><time>2026-05-02T12:21:27Z</time></trkpt><trkpt lat="46.09911309512626" lon="11.781294674271008"><ele>1001.0</ele><time>2026-05-02T12:21:28Z</time></trkpt><trkpt lat="46.09912947217369" lon="11.781457805483598"><ele>1000.9999999999999</ele><time>2026-05-02T12:21:30Z</time></trkpt><trkpt lat="46.09912901559898" lon="11.781562881514237"><ele>1000.9999999999999</ele><time>2026-05-02T12:21:31Z</time></trkpt><trkpt lat="46.099076161860346" lon="11.781698009605034"><ele>1001.0</ele><time>2026-05-02T12:21:33Z</time></trkpt><trkpt lat="46.09901882236615" lon="11.781769025905382"><ele>1001.0</ele><time>2026-05-02T12:21:34Z</time></trkpt><trkpt lat="46.09898399025846" lon="11.781889981132117"><ele>1005.1666666666667</ele><time>2026-05-02T12:21:36Z</time></trkpt><trkpt lat="46.09899969902323" lon="11.781994334509545"><ele>1009.3333333333334</ele><time>2026-05-02T12:21:37Z</time></trkpt><trkpt lat="46.09901993084616" lon="11.782094351055989"><ele>1013.5</ele><time>2026-05-02T12:21:38Z</time></trkpt><trkpt lat="46.09903322698869" lon="11.782233965075608"><ele>1017.6666666666667</ele><time>2026-05-02T12:21:39Z</time></trkpt><trkpt lat="46.0990654307478" lon="11.782364498245526"><ele>1021.8333333333334</ele><time>2026-05-02T12:21:40Z</time></trkpt><trkpt lat="46.09908982837564" lon="11.782455978791713"><ele>1026.0</ele><time>2026-05-02T12:21:42Z</time></trkpt><trkpt lat="46.09916384364727" lon="11.78257111836792"><ele>1026.0</ele><time>2026-05-02T12:21:44Z</time></trkpt><trkpt lat="46.099234263134136" lon="11.782620198223983"><ele>1026.0</ele><time>2026-05-02T12:21:44.999Z</time></trkpt><trkpt lat="46.09931120387375" lon="11.782633343545733"><ele>1026.0</ele><time>2026-05-02T12:21:45.999Z</time></trkpt><trkpt lat="46.09938378527674" lon="11.782664154731828"><ele>1026.0</ele><time>2026-05-02T12:21:46.999Z</time></trkpt><trkpt lat="46.09945193536855" lon="11.782698852873176"><ele>1026.0</ele><time>2026-05-02T12:21:47.999Z</time></trkpt><trkpt lat="46.09955926417468" lon="11.782799635323606"><ele>1026.0</ele><time>2026-05-02T12:21:49.999Z</time></trkpt><trkpt lat="46.09960763687705" lon="11.782863447041997"><ele>1023.4</ele><time>2026-05-02T12:21:50.999Z</time></trkpt><trkpt lat="46.09967895810759" lon="11.782994085512573"><ele>1020.8</ele><time>2026-05-02T12:21:52.999Z</time></trkpt><trkpt lat="46.09973004261799" lon="11.78306397987599"><ele>1018.1999999999999</ele><time>2026-05-02T12:21:53.999Z</time></trkpt><trkpt lat="46.099836275731874" lon="11.78313843781764"><ele>1015.5999999999999</ele><time>2026-05-02T12:21:55.999Z</time></trkpt><trkpt lat="46.099899895906596" lon="11.78315899034567"><ele>1013.0</ele><time>2026-05-02T12:21:56.999Z</time></trkpt><trkpt lat="46.10001693058128" lon="11.783186761592354"><ele>1013.0</ele><time>2026-05-02T12:21:58.999Z</time></trkpt><trkpt lat="46.100107676931806" lon="11.783233777943838"><ele>1013.0</ele><time>2026-05-02T12:22:00.999Z</time></trkpt><trkpt lat="46.10011940939087" lon="11.783427852651988"><ele>1013.0</ele><time>2026-05-02T12:22:02.999Z</time></trkpt><trkpt lat="46.10007688271262" lon="11.783612146846746"><ele>1013.0</ele><time>2026-05-02T12:22:04.999Z</time></trkpt><trkpt lat="46.10002923260375" lon="11.783706512395174"><ele>1013.0</ele><time>2026-05-02T12:22:05.999Z</time></trkpt><trkpt lat="46.099997656594184" lon="11.783807362448737"><ele>1013.0</ele><time>2026-05-02T12:22:06.999Z</time></trkpt><trkpt lat="46.09996727333412" lon="11.783905252140391"><ele>1013.0</ele><time>2026-05-02T12:22:07.999Z</time></trkpt><trkpt lat="46.099926748849875" lon="11.78401804675823"><ele>1013.0</ele><time>2026-05-02T12:22:08.999Z</time></trkpt><trkpt lat="46.09990313098158" lon="11.784119607975251"><ele>1013.0</ele><time>2026-05-02T12:22:09.999Z</time></trkpt><trkpt lat="46.099886037745286" lon="11.784235987051133"><ele>1013.0</ele><time>2026-05-02T12:22:10.999Z</time></trkpt><trkpt lat="46.09986159086756" lon="11.784424689633374"><ele>1026.0</ele><time>2026-05-02T12:22:12.999Z</time></trkpt><trkpt lat="46.09984391986792" lon="11.784580306049405"><ele>1039.0</ele><time>2026-05-02T12:22:14.999Z</time></trkpt><trkpt lat="46.09985823344608" lon="11.784738604379315"><ele>1052.0</ele><time>2026-05-02T12:22:16.999Z</time></trkpt><trkpt lat="46.09979477693367" lon="11.784861174507597"><ele>1065.0</ele><time>2026-05-02T12:22:19.999Z</time></trkpt><trkpt lat="46.09973139551367" lon="11.784929681100687"><ele>1078.0</ele><time>2026-05-02T12:22:20.999Z</time></trkpt><trkpt lat="46.09966438241764" lon="11.78500789261141"><ele>1078.0</ele><time>2026-05-02T12:22:21.999Z</time></trkpt><trkpt lat="46.099611657176496" lon="11.785161953491075"><ele>1078.0</ele><time>2026-05-02T12:22:23.999Z</time></trkpt><trkpt lat="46.099587959777644" lon="11.785248529903802"><ele>1078.0</ele><time>2026-05-02T12:22:24.999Z</time></trkpt><trkpt lat="46.099546086320196" lon="11.785332191049047"><ele>1078.0</ele><time>2026-05-02T12:22:25.999Z</time></trkpt><trkpt lat="46.099504285214664" lon="11.785451635208277"><ele>1078.0</ele><time>2026-05-02T12:22:26.999Z</time></trkpt><trkpt lat="46.099453203274635" lon="11.785521179194982"><ele>1078.0</ele><time>2026-05-02T12:22:27.999Z</time></trkpt><trkpt lat="46.0993746515094" lon="11.78562674707481"><ele>1073.4</ele><time>2026-05-02T12:22:29.999Z</time></trkpt><trkpt lat="46.09932395842579" lon="11.785692779305062"><ele>1068.8</ele><time>2026-05-02T12:22:30.999Z</time></trkpt><trkpt lat="46.099263344230614" lon="11.785837881630279"><ele>1064.2</ele><time>2026-05-02T12:22:32.999Z</time></trkpt><trkpt lat="46.09923418801107" lon="11.786005443916967"><ele>1059.6</ele><time>2026-05-02T12:22:34.999Z</time></trkpt><trkpt lat="46.09921914557328" lon="11.786164992724206"><ele>1055.0</ele><time>2026-05-02T12:22:36.999Z</time></trkpt><trkpt lat="46.09918884997651" lon="11.786256138717917"><ele>1052.3333333333335</ele><time>2026-05-02T12:22:37.999Z</time></trkpt><trkpt lat="46.099160837941675" lon="11.786343695913208"><ele>1049.6666666666667</ele><time>2026-05-02T12:22:38.999Z</time></trkpt><trkpt lat="46.09911374997924" lon="11.786503285378224"><ele>1047.0</ele><time>2026-05-02T12:22:40.999Z</time></trkpt><trkpt lat="46.09908157413254" lon="11.786582292100892"><ele>1044.3333333333333</ele><time>2026-05-02T12:22:41.999Z</time></trkpt><trkpt lat="46.09904573886358" lon="11.78666906927828"><ele>1041.6666666666665</ele><time>2026-05-02T12:22:42.999Z</time></trkpt><trkpt lat="46.09899822690848" lon="11.786784122222672"><ele>1039.0</ele><time>2026-05-02T12:22:43.999Z</time></trkpt><trkpt lat="46.098956497704236" lon="11.78688517190263"><ele>1048.2857142857142</ele><time>2026-05-02T12:22:44.999Z</time></trkpt><trkpt lat="46.098932573003054" lon="11.786982357567997"><ele>1057.5714285714284</ele><time>2026-05-02T12:22:45.999Z</time></trkpt><trkpt lat="46.09890052161287" lon="11.787061936094263"><ele>1066.857142857143</ele><time>2026-05-02T12:22:46.999Z</time></trkpt><trkpt lat="46.098875410257676" lon="11.787152770553323"><ele>1076.142857142857</ele><time>2026-05-02T12:22:47.999Z</time></trkpt><trkpt lat="46.09884281812575" lon="11.78725577162554"><ele>1085.4285714285716</ele><time>2026-05-02T12:22:48.999Z</time></trkpt><trkpt lat="46.09881630989227" lon="11.787368889046022"><ele>1094.7142857142858</ele><time>2026-05-02T12:22:49.999Z</time></trkpt><trkpt lat="46.09879977023473" lon="11.787468074969631"><ele>1104.0</ele><time>2026-05-02T12:22:50.999Z</time></trkpt><trkpt lat="46.09879289984667" lon="11.787641240255303"><ele>1102.8</ele><time>2026-05-02T12:22:52.998Z</time></trkpt><trkpt lat="46.09878209630396" lon="11.787735721751265"><ele>1101.6000000000001</ele><time>2026-05-02T12:22:53.998Z</time></trkpt><trkpt lat="46.09884516790885" lon="11.787870706629931"><ele>1100.4</ele><time>2026-05-02T12:22:55.998Z</time></trkpt><trkpt lat="46.098938823937644" lon="11.787938982293076"><ele>1099.2</ele><time>2026-05-02T12:22:57.998Z</time></trkpt><trkpt lat="46.09894062842977" lon="11.788100650301766"><ele>1098.0</ele><time>2026-05-02T12:22:59.998Z</time></trkpt><trkpt lat="46.098915585802615" lon="11.788186907285656"><ele>1098.0</ele><time>2026-05-02T12:23:01Z</time></trkpt><trkpt lat="46.098922118207845" lon="11.78830155081439"><ele>1098.0</ele><time>2026-05-02T12:23:03Z</time></trkpt><trkpt lat="46.09898622110806" lon="11.788374907977067"><ele>1098.0</ele><time>2026-05-02T12:23:05Z</time></trkpt><trkpt lat="46.09909952199991" lon="11.788365422938021"><ele>1098.0</ele><time>2026-05-02T12:23:07Z</time></trkpt><trkpt lat="46.0991786387355" lon="11.78827316052799"><ele>1098.0</ele><time>2026-05-02T12:23:09Z</time></trkpt><trkpt lat="46.0992422905725" lon="11.7883326757338"><ele>1099.2</ele><time>2026-05-02T12:23:11Z</time></trkpt><trkpt lat="46.099280544253595" lon="11.788441638471507"><ele>1100.4</ele><time>2026-05-02T12:23:13Z</time></trkpt><trkpt lat="46.09927746947974" lon="11.788590405316313"><ele>1101.6000000000001</ele><time>2026-05-02T12:23:15Z</time></trkpt><trkpt lat="46.09918651949003" lon="11.788664978854728"><ele>1102.8</ele><time>2026-05-02T12:23:17Z</time></trkpt><trkpt lat="46.099096230061065" lon="11.788718776316838"><ele>1104.0</ele><time>2026-05-02T12:23:19Z</time></trkpt><trkpt lat="46.099003505257144" lon="11.788808322084451"><ele>1104.0</ele><time>2026-05-02T12:23:21Z</time></trkpt><trkpt lat="46.09895451711203" lon="11.788868853610749"><ele>1104.0</ele><time>2026-05-02T12:23:22Z</time></trkpt><trkpt lat="46.09890241217267" lon="11.788959041421013"><ele>1104.0</ele><time>2026-05-02T12:23:24Z</time></trkpt><trkpt lat="46.09888798414923" lon="11.789085415387648"><ele>1104.0</ele><time>2026-05-02T12:23:26Z</time></trkpt><trkpt lat="46.09887242544661" lon="11.789250523340717"><ele>1104.0</ele><time>2026-05-02T12:23:28Z</time></trkpt><trkpt lat="46.09886143890361" lon="11.789400831281595"><ele>1112.2</ele><time>2026-05-02T12:23:30Z</time></trkpt><trkpt lat="46.098905408612275" lon="11.789556898549408"><ele>1120.4</ele><time>2026-05-02T12:23:32Z</time></trkpt><trkpt lat="46.09895627649742" lon="11.78966390593164"><ele>1128.6</ele><time>2026-05-02T12:23:34Z</time></trkpt><trkpt lat="46.09899467898405" lon="11.78978025231502"><ele>1136.8</ele><time>2026-05-02T12:23:36Z</time></trkpt><trkpt lat="46.09899647036685" lon="11.789918820899393"><ele>1145.0</ele><time>2026-05-02T12:23:38Z</time></trkpt><trkpt lat="46.098989920615274" lon="11.790079170768104"><ele>1146.8333333333335</ele><time>2026-05-02T12:23:40Z</time></trkpt><trkpt lat="46.09899019933116" lon="11.79017865987066"><ele>1148.6666666666667</ele><time>2026-05-02T12:23:41Z</time></trkpt><trkpt lat="46.09896840073134" lon="11.790348638482296"><ele>1150.5</ele><time>2026-05-02T12:23:43Z</time></trkpt><trkpt lat="46.09895336253229" lon="11.790451834645598"><ele>1152.3333333333333</ele><time>2026-05-02T12:23:45Z</time></trkpt><trkpt lat="46.09896025001525" lon="11.79057855610638"><ele>1154.1666666666665</ele><time>2026-05-02T12:23:47Z</time></trkpt><trkpt lat="46.09897672735067" lon="11.790675293913774"><ele>1156.0</ele><time>2026-05-02T12:23:51Z</time></trkpt><trkpt lat="46.09908197683274" lon="11.790727163149283"><ele>1151.0</ele><time>2026-05-02T12:23:52.999Z</time></trkpt><trkpt lat="46.09916286074841" lon="11.790714086301085"><ele>1146.0</ele><time>2026-05-02T12:23:54.999Z</time></trkpt><trkpt lat="46.09928103197646" lon="11.79071246724586"><ele>1141.0</ele><time>2026-05-02T12:23:56.999Z</time></trkpt><trkpt lat="46.099348828051355" lon="11.790681290261542"><ele>1136.0</ele><time>2026-05-02T12:23:57.999Z</time></trkpt><trkpt lat="46.099449015333335" lon="11.790567433385064"><ele>1131.0</ele><time>2026-05-02T12:23:59.999Z</time></trkpt><trkpt lat="46.099500174370505" lon="11.790497856830703"><ele>1131.0</ele><time>2026-05-02T12:24:00.999Z</time></trkpt><trkpt lat="46.09956508665184" lon="11.79042311786698"><ele>1131.0</ele><time>2026-05-02T12:24:01.999Z</time></trkpt><trkpt lat="46.09963111986147" lon="11.790373279030927"><ele>1131.0</ele><time>2026-05-02T12:24:02.999Z</time></trkpt><trkpt lat="46.09969250012796" lon="11.790326410814176"><ele>1131.0</ele><time>2026-05-02T12:24:03.999Z</time></trkpt><trkpt lat="46.09977849389038" lon="11.79021199807076"><ele>1131.0</ele><time>2026-05-02T12:24:05.999Z</time></trkpt><trkpt lat="46.09982076773244" lon="11.790041630742339"><ele>1123.6</ele><time>2026-05-02T12:24:07.999Z</time></trkpt><trkpt lat="46.09986235623528" lon="11.789910207647482"><ele>1116.1999999999998</ele><time>2026-05-02T12:24:09.999Z</time></trkpt><trkpt lat="46.09995114351493" lon="11.789845781023939"><ele>1108.8000000000002</ele><time>2026-05-02T12:24:11.999Z</time></trkpt><trkpt lat="46.10003970256467" lon="11.789904678279433"><ele>1101.4</ele><time>2026-05-02T12:24:13.999Z</time></trkpt><trkpt lat="46.1001258949612" lon="11.789921326574568"><ele>1094.0</ele><time>2026-05-02T12:24:15.999Z</time></trkpt><trkpt lat="46.100194178542274" lon="11.789872683909769"><ele>1094.0</ele><time>2026-05-02T12:24:16.999Z</time></trkpt><trkpt lat="46.10029893139008" lon="11.789761207081357"><ele>1094.0</ele><time>2026-05-02T12:24:18.999Z</time></trkpt><trkpt lat="46.1003629415152" lon="11.789687285424145"><ele>1094.0</ele><time>2026-05-02T12:24:19.999Z</time></trkpt><trkpt lat="46.10045952627118" lon="11.789583031773816"><ele>1094.0</ele><time>2026-05-02T12:24:21.999Z</time></trkpt><trkpt lat="46.1005146069298" lon="11.78953309255303"><ele>1094.0</ele><time>2026-05-02T12:24:22.999Z</time></trkpt><trkpt lat="46.10058187873659" lon="11.78949132484943"><ele>1094.0</ele><time>2026-05-02T12:24:23.999Z</time></trkpt><trkpt lat="46.100680462721016" lon="11.7894241356509"><ele>1094.0</ele><time>2026-05-02T12:24:25.999Z</time></trkpt><trkpt lat="46.10074944026502" lon="11.789406994487821"><ele>1094.0</ele><time>2026-05-02T12:24:26.999Z</time></trkpt><trkpt lat="46.10085327233046" lon="11.78940972787989"><ele>1094.0</ele><time>2026-05-02T12:24:28.999Z</time></trkpt><trkpt lat="46.10093613501941" lon="11.789465981250903"><ele>1094.0</ele><time>2026-05-02T12:24:30.999Z</time></trkpt><trkpt lat="46.10097919026554" lon="11.789635487178641"><ele>1098.0</ele><time>2026-05-02T12:24:32.999Z</time></trkpt><trkpt lat="46.10102673348164" lon="11.78977661303416"><ele>1102.0</ele><time>2026-05-02T12:24:34.999Z</time></trkpt><trkpt lat="46.101080143149034" lon="11.78983385867168"><ele>1106.0</ele><time>2026-05-02T12:24:35.999Z</time></trkpt><trkpt lat="46.10114479754397" lon="11.789876328721652"><ele>1110.0</ele><time>2026-05-02T12:24:36.999Z</time></trkpt><trkpt lat="46.10120528327276" lon="11.789995341093796"><ele>1114.0</ele><time>2026-05-02T12:24:38.999Z</time></trkpt><trkpt lat="46.101225641120415" lon="11.790187309834407"><ele>1122.0</ele><time>2026-05-02T12:24:40.999Z</time></trkpt><trkpt lat="46.10127764355789" lon="11.79036048722713"><ele>1130.0</ele><time>2026-05-02T12:24:42.999Z</time></trkpt><trkpt lat="46.10132707125572" lon="11.790424724451928"><ele>1138.0</ele><time>2026-05-02T12:24:43.999Z</time></trkpt><trkpt lat="46.10138729617258" lon="11.790481601081963"><ele>1146.0</ele><time>2026-05-02T12:24:44.999Z</time></trkpt><trkpt lat="46.10147462567117" lon="11.790589664840308"><ele>1154.0</ele><time>2026-05-02T12:24:46.999Z</time></trkpt><trkpt lat="46.10153355642078" lon="11.790638318862756"><ele>1145.8</ele><time>2026-05-02T12:24:47.999Z</time></trkpt><trkpt lat="46.10161156806965" lon="11.790665414706462"><ele>1137.6000000000001</ele><time>2026-05-02T12:24:48.999Z</time></trkpt><trkpt lat="46.10172562427014" lon="11.79069471323201"><ele>1129.4</ele><time>2026-05-02T12:24:50.999Z</time></trkpt><trkpt lat="46.10180572524773" lon="11.790759827259325"><ele>1121.2</ele><time>2026-05-02T12:24:52.998Z</time></trkpt><trkpt lat="46.10181636016441" lon="11.790862228001817"><ele>1113.0</ele><time>2026-05-02T12:24:54.998Z</time></trkpt><trkpt lat="46.10174962044941" lon="11.79099405072676"><ele>1116.1666666666667</ele><time>2026-05-02T12:24:56.998Z</time></trkpt><trkpt lat="46.101694499373224" lon="11.791148981195862"><ele>1119.3333333333333</ele><time>2026-05-02T12:24:58.998Z</time></trkpt><trkpt lat="46.10169340214387" lon="11.791259270213136"><ele>1122.5</ele><time>2026-05-02T12:24:59.998Z</time></trkpt><trkpt lat="46.10168430866024" lon="11.791367563295708"><ele>1125.6666666666665</ele><time>2026-05-02T12:25:00.998Z</time></trkpt><trkpt lat="46.101666729829844" lon="11.791487967003786"><ele>1128.8333333333333</ele><time>2026-05-02T12:25:01.998Z</time></trkpt><trkpt lat="46.101651986791495" lon="11.791598468129187"><ele>1132.0</ele><time>2026-05-02T12:25:02.998Z</time></trkpt><trkpt lat="46.10162501218664" lon="11.791757894065096"><ele>1136.6</ele><time>2026-05-02T12:25:04.998Z</time></trkpt><trkpt lat="46.10165542422092" lon="11.791937447695291"><ele>1141.2</ele><time>2026-05-02T12:25:07Z</time></trkpt><trkpt lat="46.101688724069106" lon="11.792022181281844"><ele>1145.8</ele><time>2026-05-02T12:25:08Z</time></trkpt><trkpt lat="46.10172995368933" lon="11.792106924389916"><ele>1150.4</ele><time>2026-05-02T12:25:09Z</time></trkpt><trkpt lat="46.10175438184859" lon="11.792218716693629"><ele>1155.0</ele><time>2026-05-02T12:25:10Z</time></trkpt><trkpt lat="46.101800249136225" lon="11.792403287062653"><ele>1155.0</ele><time>2026-05-02T12:25:12Z</time></trkpt><trkpt lat="46.10183313645964" lon="11.792510008058924"><ele>1155.0</ele><time>2026-05-02T12:25:13Z</time></trkpt><trkpt lat="46.10184868982593" lon="11.792608545543027"><ele>1155.0</ele><time>2026-05-02T12:25:14Z</time></trkpt><trkpt lat="46.10186048154089" lon="11.79270358502082"><ele>1155.0</ele><time>2026-05-02T12:25:15Z</time></trkpt><trkpt lat="46.101898118791205" lon="11.792801180828159"><ele>1155.0</ele><time>2026-05-02T12:25:16Z</time></trkpt><trkpt lat="46.10195171705375" lon="11.792879749258853"><ele>1155.0</ele><time>2026-05-02T12:25:17Z</time></trkpt><trkpt lat="46.102005251399824" lon="11.792959290970881"><ele>1155.0</ele><time>2026-05-02T12:25:18Z</time></trkpt><trkpt lat="46.10204461859587" lon="11.793050548521059"><ele>1160.5</ele><time>2026-05-02T12:25:19Z</time></trkpt><trkpt lat="46.10207975734707" lon="11.793157555562685"><ele>1166.0</ele><time>2026-05-02T12:25:20Z</time></trkpt><trkpt lat="46.10211377096325" lon="11.793285342444513"><ele>1171.5</ele><time>2026-05-02T12:25:21Z</time></trkpt><trkpt lat="46.10215857304375" lon="11.793366838189604"><ele>1177.0</ele><time>2026-05-02T12:25:22Z</time></trkpt><trkpt lat="46.10221334248299" lon="11.793433638532049"><ele>1182.5</ele><time>2026-05-02T12:25:23Z</time></trkpt><trkpt lat="46.102269127162955" lon="11.793597213711223"><ele>1188.0</ele><time>2026-05-02T12:25:25Z</time></trkpt><trkpt lat="46.10235033967733" lon="11.793678060878337"><ele>1183.2</ele><time>2026-05-02T12:25:27Z</time></trkpt><trkpt lat="46.10242336537251" lon="11.793707616530986"><ele>1178.4</ele><time>2026-05-02T12:25:28Z</time></trkpt><trkpt lat="46.10250660362205" lon="11.793838094162783"><ele>1173.6000000000001</ele><time>2026-05-02T12:25:30Z</time></trkpt><trkpt lat="46.10252267655102" lon="11.794012655167487"><ele>1168.8</ele><time>2026-05-02T12:25:32Z</time></trkpt><trkpt lat="46.102537837173905" lon="11.794113325617301"><ele>1164.0</ele><time>2026-05-02T12:25:33Z</time></trkpt><trkpt lat="46.10255847384602" lon="11.794226319016527"><ele>1166.6000000000001</ele><time>2026-05-02T12:25:34Z</time></trkpt><trkpt lat="46.102615365908214" lon="11.794442375298011"><ele>1169.2</ele><time>2026-05-02T12:25:36Z</time></trkpt><trkpt lat="46.10263718658561" lon="11.794552630715968"><ele>1171.8000000000002</ele><time>2026-05-02T12:25:37Z</time></trkpt><trkpt lat="46.102691902400174" lon="11.794713566215352"><ele>1174.4</ele><time>2026-05-02T12:25:39Z</time></trkpt><trkpt lat="46.10273311803875" lon="11.794786007585422"><ele>1177.0</ele><time>2026-05-02T12:25:40Z</time></trkpt><trkpt lat="46.10279675324157" lon="11.794939674585066"><ele>1177.0</ele><time>2026-05-02T12:25:42Z</time></trkpt><trkpt lat="46.10282194255459" lon="11.795033973790325"><ele>1177.0</ele><time>2026-05-02T12:25:43Z</time></trkpt><trkpt lat="46.102880514489755" lon="11.795124418659842"><ele>1177.0</ele><time>2026-05-02T12:25:44Z</time></trkpt><trkpt lat="46.102930584244284" lon="11.795193090169821"><ele>1177.0</ele><time>2026-05-02T12:25:45Z</time></trkpt><trkpt lat="46.10297487029302" lon="11.79528551189047"><ele>1177.0</ele><time>2026-05-02T12:25:46Z</time></trkpt><trkpt lat="46.10304032875559" lon="11.795399662729773"><ele>1177.0</ele><time>2026-05-02T12:25:47Z</time></trkpt><trkpt lat="46.10310121377881" lon="11.79545164345121"><ele>1178.6666666666665</ele><time>2026-05-02T12:25:49Z</time></trkpt><trkpt lat="46.103142998077075" lon="11.795537739868285"><ele>1180.3333333333333</ele><time>2026-05-02T12:25:50Z</time></trkpt><trkpt lat="46.103223119737436" lon="11.795562678771052"><ele>1182.0</ele><time>2026-05-02T12:25:51Z</time></trkpt><trkpt lat="46.103331514997286" lon="11.795565759369529"><ele>1183.6666666666667</ele><time>2026-05-02T12:25:52Z</time></trkpt><trkpt lat="46.10339844198812" lon="11.795585829704615"><ele>1185.3333333333335</ele><time>2026-05-02T12:25:53.999Z</time></trkpt><trkpt lat="46.10348240672209" lon="11.795602966275908"><ele>1187.0</ele><time>2026-05-02T12:25:59.999Z</time></trkpt><trkpt lat="46.103516701140904" lon="11.795522240182848"><ele>1187.0</ele><time>2026-05-02T12:26:13.999Z</time></trkpt><trkpt lat="46.10353411673284" lon="11.795423359278793"><ele>1187.0</ele><time>2026-05-02T12:26:15.999Z</time></trkpt><trkpt lat="46.10352272345985" lon="11.795309085323128"><ele>1187.0</ele><time>2026-05-02T12:26:18.999Z</time></trkpt><trkpt lat="46.1035073452454" lon="11.795184834249385"><ele>1187.0</ele><time>2026-05-02T12:26:20.999Z</time></trkpt><trkpt lat="46.10346557656776" lon="11.795046388953665"><ele>1187.0</ele><time>2026-05-02T12:26:22.999Z</time></trkpt><trkpt lat="46.10343882136601" lon="11.794895589352736"><ele>1187.0</ele><time>2026-05-02T12:26:24.999Z</time></trkpt><trkpt lat="46.10343367927862" lon="11.794751544525305"><ele>1187.0</ele><time>2026-05-02T12:26:26.999Z</time></trkpt><trkpt lat="46.10344858139299" lon="11.794577253244372"><ele>1187.0</ele><time>2026-05-02T12:26:28.999Z</time></trkpt><trkpt lat="46.10345968969658" lon="11.794475576078309"><ele>1187.0</ele><time>2026-05-02T12:26:29.999Z</time></trkpt><trkpt lat="46.10346564756977" lon="11.794377030121463"><ele>1187.0</ele><time>2026-05-02T12:26:30.999Z</time></trkpt><trkpt lat="46.10348475012813" lon="11.79428787994877"><ele>1187.0</ele><time>2026-05-02T12:26:31.999Z</time></trkpt><trkpt lat="46.10347480006573" lon="11.794173448914444"><ele>1187.0</ele><time>2026-05-02T12:26:32.999Z</time></trkpt><trkpt lat="46.10346898714691" lon="11.794053814284199"><ele>1187.0</ele><time>2026-05-02T12:26:33.999Z</time></trkpt><trkpt lat="46.1034623800788" lon="11.79396347662024"><ele>1187.0</ele><time>2026-05-02T12:26:34.999Z</time></trkpt><trkpt lat="46.10346414165917" lon="11.793810708380734"><ele>1187.0</ele><time>2026-05-02T12:26:36.999Z</time></trkpt><trkpt lat="46.10347827355386" lon="11.793718412947491"><ele>1187.0</ele><time>2026-05-02T12:26:37.999Z</time></trkpt><trkpt lat="46.103512868517676" lon="11.793611202104275"><ele>1187.0</ele><time>2026-05-02T12:26:38.999Z</time></trkpt><trkpt lat="46.10354373744862" lon="11.793507915576651"><ele>1187.0000000000002</ele><time>2026-05-02T12:26:39.999Z</time></trkpt><trkpt lat="46.10357138806121" lon="11.793394981273504"><ele>1187.0</ele><time>2026-05-02T12:26:40.999Z</time></trkpt><trkpt lat="46.103603148349585" lon="11.793295808249905"><ele>1187.0</ele><time>2026-05-02T12:26:41.999Z</time></trkpt><trkpt lat="46.10362586772937" lon="11.793206439332538"><ele>1187.0</ele><time>2026-05-02T12:26:42.999Z</time></trkpt><trkpt lat="46.1036280253907" lon="11.793113945336277"><ele>1187.0</ele><time>2026-05-02T12:26:43.999Z</time></trkpt><trkpt lat="46.10361568847761" lon="11.793005895392822"><ele>1187.0000000000002</ele><time>2026-05-02T12:26:44.999Z</time></trkpt><trkpt lat="46.10361885500962" lon="11.792898436082956"><ele>1187.0</ele><time>2026-05-02T12:26:45.999Z</time></trkpt><trkpt lat="46.103638345002445" lon="11.792803134289633"><ele>1164.1666666666667</ele><time>2026-05-02T12:26:46.999Z</time></trkpt><trkpt lat="46.10366731429442" lon="11.79272005038467"><ele>1141.3333333333335</ele><time>2026-05-02T12:26:47.999Z</time></trkpt><trkpt lat="46.10370091945814" lon="11.792635044816938"><ele>1118.5</ele><time>2026-05-02T12:26:48.999Z</time></trkpt><trkpt lat="46.10374341248352" lon="11.792553046648873"><ele>1095.6666666666667</ele><time>2026-05-02T12:26:49.999Z</time></trkpt><trkpt lat="46.10383207011145" lon="11.792444634729256"><ele>1072.8333333333333</ele><time>2026-05-02T12:26:51.999Z</time></trkpt><trkpt lat="46.10389546744126" lon="11.792379300892684"><ele>1050.0</ele><time>2026-05-02T12:26:52.998Z</time></trkpt><trkpt lat="46.10397452052923" lon="11.79237357953419"><ele>1050.0</ele><time>2026-05-02T12:26:53.998Z</time></trkpt><trkpt lat="46.104036920282795" lon="11.792330693426324"><ele>1050.0</ele><time>2026-05-02T12:26:54.998Z</time></trkpt><trkpt lat="46.10414817722051" lon="11.792252562760968"><ele>1050.0</ele><time>2026-05-02T12:26:56.998Z</time></trkpt><trkpt lat="46.10420820879371" lon="11.792220454415913"><ele>1050.0</ele><time>2026-05-02T12:26:57.998Z</time></trkpt><trkpt lat="46.104330632347576" lon="11.792148481220094"><ele>1050.0</ele><time>2026-05-02T12:26:59.998Z</time></trkpt><trkpt lat="46.104380472484756" lon="11.792088295041534"><ele>1076.8333333333333</ele><time>2026-05-02T12:27:00.998Z</time></trkpt><trkpt lat="46.104428849357596" lon="11.792020737314038"><ele>1103.6666666666667</ele><time>2026-05-02T12:27:01.998Z</time></trkpt><trkpt lat="46.10447634894166" lon="11.791957346673211"><ele>1130.5</ele><time>2026-05-02T12:27:02.998Z</time></trkpt><trkpt lat="46.10452690974063" lon="11.79189949510139"><ele>1157.3333333333335</ele><time>2026-05-02T12:27:03.998Z</time></trkpt><trkpt lat="46.1046021954003" lon="11.791804994043487"><ele>1184.1666666666667</ele><time>2026-05-02T12:27:05.998Z</time></trkpt><trkpt lat="46.104690564011676" lon="11.791767772484523"><ele>1211.0</ele><time>2026-05-02T12:27:07.998Z</time></trkpt><trkpt lat="46.10475975551886" lon="11.791655338731896"><ele>1211.0</ele><time>2026-05-02T12:27:09.998Z</time></trkpt><trkpt lat="46.104808371700294" lon="11.791527323334307"><ele>1211.0</ele><time>2026-05-02T12:27:12Z</time></trkpt><trkpt lat="46.10482147972699" lon="11.79141332106654"><ele>1211.0</ele><time>2026-05-02T12:27:13Z</time></trkpt><trkpt lat="46.10483269486527" lon="11.791235553681258"><ele>1211.0</ele><time>2026-05-02T12:27:15Z</time></trkpt><trkpt lat="46.10485910471987" lon="11.79109919418837"><ele>1211.0</ele><time>2026-05-02T12:27:17Z</time></trkpt><trkpt lat="46.10490700959127" lon="11.790966079932469"><ele>1208.25</ele><time>2026-05-02T12:27:19Z</time></trkpt><trkpt lat="46.10493123048301" lon="11.790823340055146"><ele>1205.5</ele><time>2026-05-02T12:27:21Z</time></trkpt><trkpt lat="46.10496299961435" lon="11.790659726223394"><ele>1202.75</ele><time>2026-05-02T12:27:23Z</time></trkpt><trkpt lat="46.10498618523023" lon="11.790508204714406"><ele>1200.0</ele><time>2026-05-02T12:27:25Z</time></trkpt><trkpt lat="46.10507306982923" lon="11.790356749542415"><ele>1200.0</ele><time>2026-05-02T12:27:27Z</time></trkpt><trkpt lat="46.10509301488307" lon="11.79025939200937"><ele>1200.0</ele><time>2026-05-02T12:27:28Z</time></trkpt><trkpt lat="46.10509864013776" lon="11.790157004123644"><ele>1200.0</ele><time>2026-05-02T12:27:29Z</time></trkpt><trkpt lat="46.105093906675485" lon="11.790062676865446"><ele>1200.0</ele><time>2026-05-02T12:27:30Z</time></trkpt><trkpt lat="46.10510520246127" lon="11.789925611218612"><ele>1200.0</ele><time>2026-05-02T12:27:32Z</time></trkpt><trkpt lat="46.10511756604955" lon="11.789833677215078"><ele>1200.0</ele><time>2026-05-02T12:27:33Z</time></trkpt><trkpt lat="46.10515474060349" lon="11.789654032092889"><ele>1200.0</ele><time>2026-05-02T12:27:35Z</time></trkpt><trkpt lat="46.10518798824507" lon="11.78953922554176"><ele>1200.0</ele><time>2026-05-02T12:27:36Z</time></trkpt><trkpt lat="46.10521926863101" lon="11.789445818542449"><ele>1200.0</ele><time>2026-05-02T12:27:37Z</time></trkpt><trkpt lat="46.10525128800245" lon="11.789342307808361"><ele>1200.0</ele><time>2026-05-02T12:27:38Z</time></trkpt><trkpt lat="46.1052994310782" lon="11.789192593861724"><ele>1200.0</ele><time>2026-05-02T12:27:40Z</time></trkpt><trkpt lat="46.10531470136166" lon="11.789015991567643"><ele>1200.0</ele><time>2026-05-02T12:27:42Z</time></trkpt><trkpt lat="46.10528751268571" lon="11.788918203434148"><ele>1200.0</ele><time>2026-05-02T12:27:43Z</time></trkpt><trkpt lat="46.10524215113578" lon="11.788816030819136"><ele>1200.0</ele><time>2026-05-02T12:27:44Z</time></trkpt><trkpt lat="46.10518809851341" lon="11.788708833872386"><ele>1200.0</ele><time>2026-05-02T12:27:45Z</time></trkpt><trkpt lat="46.10514127601923" lon="11.788618529572608"><ele>1200.0</ele><time>2026-05-02T12:27:46Z</time></trkpt><trkpt lat="46.10507938798032" lon="11.788464176398875"><ele>1200.0</ele><time>2026-05-02T12:27:48Z</time></trkpt><trkpt lat="46.105057365103676" lon="11.788304536073667"><ele>1200.0</ele><time>2026-05-02T12:27:50Z</time></trkpt><trkpt lat="46.10506657019813" lon="11.788138600933841"><ele>1200.0</ele><time>2026-05-02T12:27:52Z</time></trkpt><trkpt lat="46.10508303982464" lon="11.788049289584032"><ele>1200.0</ele><time>2026-05-02T12:27:52.999Z</time></trkpt><trkpt lat="46.105137643772636" lon="11.787957640817961"><ele>1200.0</ele><time>2026-05-02T12:27:53.999Z</time></trkpt><trkpt lat="46.105174937076505" lon="11.787856881289787"><ele>1200.0</ele><time>2026-05-02T12:27:54.999Z</time></trkpt><trkpt lat="46.10519907127689" lon="11.787756936414356"><ele>1200.0</ele><time>2026-05-02T12:27:55.999Z</time></trkpt><trkpt lat="46.105215427728204" lon="11.78765299563592"><ele>1200.0</ele><time>2026-05-02T12:27:56.999Z</time></trkpt><trkpt lat="46.10524284624286" lon="11.787454345451486"><ele>1200.0</ele><time>2026-05-02T12:27:58.999Z</time></trkpt><trkpt lat="46.10525734430844" lon="11.78735954848338"><ele>1200.0</ele><time>2026-05-02T12:27:59.999Z</time></trkpt><trkpt lat="46.10527554725166" lon="11.787264748944231"><ele>1200.0</ele><time>2026-05-02T12:28:00.999Z</time></trkpt><trkpt lat="46.105294261383065" lon="11.787168241393603"><ele>1200.0</ele><time>2026-05-02T12:28:01.999Z</time></trkpt><trkpt lat="46.105338632809435" lon="11.786994082194362"><ele>1200.0</ele><time>2026-05-02T12:28:03.999Z</time></trkpt><trkpt lat="46.1053611257708" lon="11.78690457402035"><ele>1200.0</ele><time>2026-05-02T12:28:04.999Z</time></trkpt><trkpt lat="46.10540063991612" lon="11.786829024554935"><ele>1200.0</ele><time>2026-05-02T12:28:05.999Z</time></trkpt><trkpt lat="46.10544325304778" lon="11.78675444092929"><ele>1200.0</ele><time>2026-05-02T12:28:06.999Z</time></trkpt><trkpt lat="46.105498594498776" lon="11.786679352684489"><ele>1200.0</ele><time>2026-05-02T12:28:07.999Z</time></trkpt><trkpt lat="46.105559368022256" lon="11.786545087732305"><ele>1195.4</ele><time>2026-05-02T12:28:09.999Z</time></trkpt><trkpt lat="46.10559830604692" lon="11.786453847443358"><ele>1190.8</ele><time>2026-05-02T12:28:11.999Z</time></trkpt><trkpt lat="46.105706632711076" lon="11.786492435084531"><ele>1186.2</ele><time>2026-05-02T12:28:15.999Z</time></trkpt><trkpt lat="46.10578322574103" lon="11.786512386966313"><ele>1181.6</ele><time>2026-05-02T12:28:16.999Z</time></trkpt><trkpt lat="46.105927464309566" lon="11.786469410474977"><ele>1177.0</ele><time>2026-05-02T12:28:18.999Z</time></trkpt><trkpt lat="46.106014948759615" lon="11.78646164176337"><ele>1177.0</ele><time>2026-05-02T12:28:20.999Z</time></trkpt><trkpt lat="46.10611448856894" lon="11.786538916746489"><ele>1177.0</ele><time>2026-05-02T12:28:22.999Z</time></trkpt><trkpt lat="46.09986636554548" lon="11.777606612371885"><ele>1119.4</ele><time>2026-05-02T12:18:45.999Z</time></trkpt><trkpt lat="46.09980975391442" lon="11.77741710255232"><ele>1061.8000000000002</ele><time>2026-05-02T12:18:47.998Z</time></trkpt><trkpt lat="46.09975247953282" lon="11.777281378846803"><ele>1004.2</ele><time>2026-05-02T12:18:50Z</time></trkpt><trkpt lat="46.099684836875724" lon="11.777202706238164"><ele>946.6</ele><time>2026-05-02T12:18:52Z</time></trkpt><trkpt lat="46.099589394126305" lon="11.777230234637125"><ele>889.0</ele><time>2026-05-02T12:18:53Z</time></trkpt><trkpt lat="46.099522378168686" lon="11.777267986609878"><ele>888.9999999999999</ele><time>2026-05-02T12:18:54Z</time></trkpt><trkpt lat="46.09948230818134" lon="11.777340908130043"><ele>889.0</ele><time>2026-05-02T12:18:55Z</time></trkpt><trkpt lat="46.09948769153498" lon="11.777451316566497"><ele>889.0</ele><time>2026-05-02T12:18:57Z</time></trkpt><trkpt lat="46.09950300303119" lon="11.777608856558649"><ele>889.0</ele><time>2026-05-02T12:18:59Z</time></trkpt><trkpt lat="46.09953621076414" lon="11.77769608002026"><ele>888.9999999999999</ele><time>2026-05-02T12:19:00Z</time></trkpt><trkpt lat="46.09956678505909" lon="11.77779648446168"><ele>889.0</ele><time>2026-05-02T12:19:01Z</time></trkpt><trkpt lat="46.09960965081186" lon="11.777935090955532"><ele>894.3333333333333</ele><time>2026-05-02T12:19:02Z</time></trkpt><trkpt lat="46.099647327923236" lon="11.778022597063655"><ele>899.6666666666666</ele><time>2026-05-02T12:19:03Z</time></trkpt><trkpt lat="46.09968804334658" lon="11.778116761054465"><ele>905.0</ele><time>2026-05-02T12:19:04Z</time></trkpt><trkpt lat="46.099734055966174" lon="11.778223176047922"><ele>910.3333333333333</ele><time>2026-05-02T12:19:05Z</time></trkpt><trkpt lat="46.099785223842" lon="11.778341207751392"><ele>915.6666666666666</ele><time>2026-05-02T12:19:06Z</time></trkpt><trkpt lat="46.099833292101536" lon="11.778451515749428"><ele>921.0</ele><time>2026-05-02T12:19:07Z</time></trkpt><trkpt lat="46.09988702899713" lon="11.778574832232122"><ele>918.4</ele><time>2026-05-02T12:19:08Z</time></trkpt><trkpt lat="46.09995865752229" lon="11.778691243815782"><ele>915.8</ele><time>2026-05-02T12:19:09Z</time></trkpt><trkpt lat="46.09999135520562" lon="11.778777935234361"><ele>913.1999999999999</ele><time>2026-05-02T12:19:10Z</time></trkpt><trkpt lat="46.10002113314233" lon="11.778879080454834"><ele>910.5999999999999</ele><time>2026-05-02T12:19:11Z</time></trkpt><trkpt lat="46.10007856629012" lon="11.779013302817981"><ele>908.0</ele><time>2026-05-02T12:19:12Z</time></trkpt><trkpt lat="46.100119285529495" lon="11.779174496375617"><ele>908.0</ele><time>2026-05-02T12:19:13Z</time></trkpt><trkpt lat="46.100137537026505" lon="11.779320457803212"><ele>908.0</ele><time>2026-05-02T12:19:15Z</time></trkpt><trkpt lat="46.1001636219945" lon="11.779438188835194"><ele>908.0</ele><time>2026-05-02T12:19:16Z</time></trkpt><trkpt lat="46.10019935571152" lon="11.779650174203994"><ele>908.0</ele><time>2026-05-02T12:19:17Z</time></trkpt><trkpt lat="46.10022423819801" lon="11.77979687089809"><ele>908.0</ele><time>2026-05-02T12:19:18Z</time></trkpt><trkpt lat="46.10024341679327" lon="11.779905973904764"><ele>911.5000000000001</ele><time>2026-05-02T12:19:19Z</time></trkpt><trkpt lat="46.100254150457815" lon="11.780021938371853"><ele>915.0</ele><time>2026-05-02T12:19:20Z</time></trkpt><trkpt lat="46.10030212327529" lon="11.780113347299254"><ele>918.5</ele><time>2026-05-02T12:19:21Z</time></trkpt><trkpt lat="46.100335509234306" lon="11.78020207717527"><ele>922.0</ele><time>2026-05-02T12:19:22Z</time></trkpt><trkpt lat="46.10036976672108" lon="11.780287189073068"><ele>925.5000000000001</ele><time>2026-05-02T12:19:23Z</time></trkpt><trkpt lat="46.100420510947856" lon="11.780406395457073"><ele>929.0</ele><time>2026-05-02T12:19:25Z</time></trkpt><trkpt lat="46.100464605309085" lon="11.780494840415129"><ele>929.0000000000001</ele><time>2026-05-02T12:19:27Z</time></trkpt><trkpt lat="46.10040810524513" lon="11.780540644850413"><ele>929.0</ele><time>2026-05-02T12:19:30Z</time></trkpt><trkpt lat="46.10034179458067" lon="11.780455953220518"><ele>929.0</ele><time>2026-05-02T12:19:33Z</time></trkpt><trkpt lat="46.10028183838003" lon="11.780291984067333"><ele>929.0</ele><time>2026-05-02T12:19:35Z</time></trkpt><trkpt lat="46.100232012915555" lon="11.780205817356109"><ele>929.0000000000001</ele><time>2026-05-02T12:19:36Z</time></trkpt><trkpt lat="46.100178720916226" lon="11.78014279897217"><ele>929.0</ele><time>2026-05-02T12:19:37Z</time></trkpt><trkpt lat="46.10013120779027" lon="11.780056041150495"><ele>929.0000000000001</ele><time>2026-05-02T12:19:38Z</time></trkpt><trkpt lat="46.10006425977127" lon="11.779990251557768"><ele>929.0</ele><time>2026-05-02T12:19:39Z</time></trkpt><trkpt lat="46.09999887585326" lon="11.779919427477841"><ele>929.0</ele><time>2026-05-02T12:19:39.999Z</time></trkpt><trkpt lat="46.099936703772364" lon="11.779869832568355"><ele>929.0</ele><time>2026-05-02T12:19:40.999Z</time></trkpt><trkpt lat="46.099873449488314" lon="11.779821307019082"><ele>929.0000000000001</ele><time>2026-05-02T12:19:41.999Z</time></trkpt><trkpt lat="46.09980503076459" lon="11.779763368350038"><ele>929.0</ele><time>2026-05-02T12:19:42.999Z</time></trkpt><trkpt lat="46.09973932371011" lon="11.779653738677148"><ele>931.6666666666667</ele><time>2026-05-02T12:19:43.999Z</time></trkpt><trkpt lat="46.09968615970275" lon="11.779534856393612"><ele>934.3333333333334</ele><time>2026-05-02T12:19:44.999Z</time></trkpt><trkpt lat="46.09962924730856" lon="11.779441488996635"><ele>937.0</ele><time>2026-05-02T12:19:45.999Z</time></trkpt><trkpt lat="46.09958294908451" lon="11.77937945366109"><ele>939.6666666666667</ele><time>2026-05-02T12:19:46.999Z</time></trkpt><trkpt lat="46.09950115966458" lon="11.779293843076918"><ele>942.3333333333334</ele><time>2026-05-02T12:19:47.999Z</time></trkpt><trkpt lat="46.099424325627695" lon="11.77921918632103"><ele>945.0</ele><time>2026-05-02T12:19:48.999Z</time></trkpt><trkpt lat="46.09934464526842" lon="11.77913942620936"><ele>945.0</ele><time>2026-05-02T12:19:49.999Z</time></trkpt><trkpt lat="46.09924411077066" lon="11.779013728844468"><ele>945.0</ele><time>2026-05-02T12:19:51.999Z</time></trkpt><trkpt lat="46.099195501797205" lon="11.778919447522286"><ele>945.0</ele><time>2026-05-02T12:19:52.999Z</time></trkpt><trkpt lat="46.09915610084402" lon="11.778816753951137"><ele>945.0</ele><time>2026-05-02T12:19:53.999Z</time></trkpt><trkpt lat="46.09910031548098" lon="11.778664936798984"><ele>945.0</ele><time>2026-05-02T12:19:55.999Z</time></trkpt><trkpt lat="46.0990539592577" lon="11.778567435315098"><ele>952.0</ele><time>2026-05-02T12:19:57.999Z</time></trkpt><trkpt lat="46.09896539359971" lon="11.778583260902495"><ele>959.0</ele><time>2026-05-02T12:19:59.999Z</time></trkpt><trkpt lat="46.09894502924784" lon="11.77871627947355"><ele>966.0</ele><time>2026-05-02T12:20:01.999Z</time></trkpt><trkpt lat="46.09899901825647" lon="11.778871774237638"><ele>973.0</ele><time>2026-05-02T12:20:03.999Z</time></trkpt><trkpt lat="46.09903779351214" lon="11.77895855947923"><ele>980.0</ele><time>2026-05-02T12:20:04.999Z</time></trkpt><trkpt lat="46.09907620696463" lon="11.779050190128137"><ele>978.1666666666667</ele><time>2026-05-02T12:20:05.999Z</time></trkpt><trkpt lat="46.09911345556616" lon="11.779155456801348"><ele>976.3333333333334</ele><time>2026-05-02T12:20:06.999Z</time></trkpt><trkpt lat="46.0991627844518" lon="11.779250889387669"><ele>974.5</ele><time>2026-05-02T12:20:07.999Z</time></trkpt><trkpt lat="46.09920599508421" lon="11.779338722480736"><ele>972.6666666666667</ele><time>2026-05-02T12:20:08.999Z</time></trkpt><trkpt lat="46.0992486803105" lon="11.779445109755555"><ele>970.8333333333334</ele><time>2026-05-02T12:20:09.999Z</time></trkpt><trkpt lat="46.09929563735441" lon="11.779524010858621"><ele>969.0</ele><time>2026-05-02T12:20:10.999Z</time></trkpt><trkpt lat="46.09933305097133" lon="11.779616537299201"><ele>969.0</ele><time>2026-05-02T12:20:11.999Z</time></trkpt><trkpt lat="46.09937265955312" lon="11.77970345577367"><ele>969.0</ele><time>2026-05-02T12:20:12.999Z</time></trkpt><trkpt lat="46.09941064518337" lon="11.779804124373044"><ele>969.0</ele><time>2026-05-02T12:20:13.999Z</time></trkpt><trkpt lat="46.09944915062076" lon="11.779898947896077"><ele>969.0</ele><time>2026-05-02T12:20:14.999Z</time></trkpt><trkpt lat="46.099502449714606" lon="11.780005964909458"><ele>969.0</ele><time>2026-05-02T12:20:15.999Z</time></trkpt><trkpt lat="46.099529411034894" lon="11.780118621390923"><ele>969.0</ele><time>2026-05-02T12:20:16.999Z</time></trkpt><trkpt lat="46.09955383355748" lon="11.780213969360785"><ele>971.5</ele><time>2026-05-02T12:20:17.999Z</time></trkpt><trkpt lat="46.09956196001848" lon="11.780319757740404"><ele>974.0</ele><time>2026-05-02T12:20:18.999Z</time></trkpt><trkpt lat="46.09958140862686" lon="11.780437248243416"><ele>976.5</ele><time>2026-05-02T12:20:19.999Z</time></trkpt><trkpt lat="46.09962164082994" lon="11.780528694535294"><ele>979.0</ele><time>2026-05-02T12:20:20.999Z</time></trkpt><trkpt lat="46.099688550209216" lon="11.780615511035494"><ele>981.5</ele><time>2026-05-02T12:20:21.999Z</time></trkpt><trkpt lat="46.09974557622831" lon="11.780682784732162"><ele>984.0</ele><time>2026-05-02T12:20:22.999Z</time></trkpt><trkpt lat="46.099830877464385" lon="11.780755439116538"><ele>984.0</ele><time>2026-05-02T12:20:24.999Z</time></trkpt><trkpt lat="46.099810350118624" lon="11.780866374619198"><ele>984.0</ele><time>2026-05-02T12:20:27.999Z</time></trkpt><trkpt lat="46.09973726684287" lon="11.780858417009249"><ele>984.0</ele><time>2026-05-02T12:20:29.999Z</time></trkpt><trkpt lat="46.0996859725602" lon="11.780764362313946"><ele>984.0</ele><time>2026-05-02T12:20:30.999Z</time></trkpt><trkpt lat="46.099622609146465" lon="11.780704429396563"><ele>984.0</ele><time>2026-05-02T12:20:31.999Z</time></trkpt><trkpt lat="46.09955340547436" lon="11.780623425651843"><ele>984.0</ele><time>2026-05-02T12:20:32.999Z</time></trkpt><trkpt lat="46.09950384261505" lon="11.780540614499484"><ele>984.0</ele><time>2026-05-02T12:20:33.999Z</time></trkpt><trkpt lat="46.09944994279078" lon="11.78044460320584"><ele>984.0000000000001</ele><time>2026-05-02T12:20:34.999Z</time></trkpt><trkpt lat="46.09940953748664" lon="11.780313745259733"><ele>984.0000000000001</ele><time>2026-05-02T12:20:35.999Z</time></trkpt><trkpt lat="46.09935976151446" lon="11.780204727172483"><ele>984.0</ele><time>2026-05-02T12:20:36.999Z</time></trkpt><trkpt lat="46.099295683829546" lon="11.780108647493094"><ele>984.0</ele><time>2026-05-02T12:20:37.999Z</time></trkpt><trkpt lat="46.09922765707804" lon="11.780006482019415"><ele>981.0</ele><time>2026-05-02T12:20:38.999Z</time></trkpt><trkpt lat="46.099145173333326" lon="11.779913991319997"><ele>978.0000000000001</ele><time>2026-05-02T12:20:39.999Z</time></trkpt><trkpt lat="46.09904319984531" lon="11.779829145678455"><ele>975.0000000000001</ele><time>2026-05-02T12:20:40.999Z</time></trkpt><trkpt lat="46.098963663965804" lon="11.779705569321644"><ele>972.0</ele><time>2026-05-02T12:20:41.999Z</time></trkpt><trkpt lat="46.0988812000593" lon="11.779621139144801"><ele>969.0</ele><time>2026-05-02T12:20:42.999Z</time></trkpt><trkpt lat="46.09881367791505" lon="11.779535349014088"><ele>970.8333333333334</ele><time>2026-05-02T12:20:43.999Z</time></trkpt><trkpt lat="46.098741913648084" lon="11.779451736476185"><ele>972.6666666666667</ele><time>2026-05-02T12:20:44.999Z</time></trkpt><trkpt lat="46.09869306203101" lon="11.779359290419467"><ele>974.5</ele><time>2026-05-02T12:20:45.998Z</time></trkpt><trkpt lat="46.098648662681946" lon="11.779258176730373"><ele>976.3333333333334</ele><time>2026-05-02T12:20:46.998Z</time></trkpt><trkpt lat="46.09859687459105" lon="11.779143342738307"><ele>978.1666666666667</ele><time>2026-05-02T12:20:47.998Z</time></trkpt><trkpt lat="46.098560037758666" lon="11.779052051164877"><ele>980.0</ele><time>2026-05-02T12:20:48.998Z</time></trkpt><trkpt lat="46.09852294018428" lon="11.7789719996706"><ele>980.0000000000001</ele><time>2026-05-02T12:20:49.998Z</time></trkpt><trkpt lat="46.09845779171543" lon="11.7788247264995"><ele>980.0</ele><time>2026-05-02T12:20:51.998Z</time></trkpt><trkpt lat="46.09839662325551" lon="11.778753792976516"><ele>980.0</ele><time>2026-05-02T12:20:52.998Z</time></trkpt><trkpt lat="46.09831158252333" lon="11.778708363364158"><ele>980.0</ele><time>2026-05-02T12:20:53.998Z</time></trkpt><trkpt lat="46.09823998968943" lon="11.778656740494014"><ele>980.0000000000001</ele><time>2026-05-02T12:20:55Z</time></trkpt><trkpt lat="46.09818860208383" lon="11.778602085164911"><ele>980.0</ele><time>2026-05-02T12:20:57Z</time></trkpt><trkpt lat="46.09815036535288" lon="11.778702269692506"><ele>980.0</ele><time>2026-05-02T12:20:58Z</time></trkpt><trkpt lat="46.09821159889498" lon="11.77885668493489"><ele>980.0</ele><time>2026-05-02T12:20:59Z</time></trkpt><trkpt lat="46.098284972401736" lon="11.778776463855971"><ele>980.0</ele><time>2026-05-02T12:21:02Z</time></trkpt><trkpt lat="46.09834478317232" lon="11.778919662653005"><ele>980.0</ele><time>2026-05-02T12:21:04Z</time></trkpt><trkpt lat="46.098394710633904" lon="11.77908771374418"><ele>980.0000000000001</ele><time>2026-05-02T12:21:06Z</time></trkpt><trkpt lat="46.09842842504419" lon="11.779178515014"><ele>980.0</ele><time>2026-05-02T12:21:07Z</time></trkpt><trkpt lat="46.09846527289278" lon="11.779277755390318"><ele>980.0</ele><time>2026-05-02T12:21:08Z</time></trkpt><trkpt lat="46.098502613258425" lon="11.779447684188874"><ele>980.0</ele><time>2026-05-02T12:21:10Z</time></trkpt><trkpt lat="46.09854574375805" lon="11.779543177208454"><ele>980.0000000000001</ele><time>2026-05-02T12:21:11Z</time></trkpt><trkpt lat="46.09858251586151" lon="11.77963779934401"><ele>980.0</ele><time>2026-05-02T12:21:12Z</time></trkpt><trkpt lat="46.09862702197602" lon="11.779752322666956"><ele>985.0000000000001</ele><time>2026-05-02T12:21:13Z</time></trkpt><trkpt lat="46.098666238065974" lon="11.779853233699413"><ele>990.0</ele><time>2026-05-02T12:21:14Z</time></trkpt><trkpt lat="46.098712099920256" lon="11.779968086470657"><ele>995.0</ele><time>2026-05-02T12:21:15Z</time></trkpt><trkpt lat="46.09875567147246" lon="11.780073613719154"><ele>1000.0</ele><time>2026-05-02T12:21:16Z</time></trkpt><trkpt lat="46.09880899472448" lon="11.780181773619011"><ele>1005.0000000000001</ele><time>2026-05-02T12:21:17Z</time></trkpt><trkpt lat="46.09883959361073" lon="11.78028045529578"><ele>1010.0</ele><time>2026-05-02T12:21:18Z</time></trkpt><trkpt lat="46.09887627353635" lon="11.780381041895605"><ele>1013.8</ele><time>2026-05-02T12:21:19Z</time></trkpt><trkpt lat="46.098915957400024" lon="11.780482328395735"><ele>1017.6</ele><time>2026-05-02T12:21:20Z</time></trkpt><trkpt lat="46.09894937642054" lon="11.780585140209434"><ele>1021.4000000000001</ele><time>2026-05-02T12:21:21Z</time></trkpt><trkpt lat="46.09899820235264" lon="11.780670456463653"><ele>1025.2</ele><time>2026-05-02T12:21:22Z</time></trkpt><trkpt lat="46.09900015331631" lon="11.780850955077145"><ele>1029.0</ele><time>2026-05-02T12:21:24Z</time></trkpt><trkpt lat="46.09902234080184" lon="11.780974396250391"><ele>1033.1666666666667</ele><time>2026-05-02T12:21:25Z</time></trkpt><trkpt lat="46.09903676832254" lon="11.781086603938377"><ele>1037.3333333333333</ele><time>2026-05-02T12:21:26Z</time></trkpt><trkpt lat="46.09908560085972" lon="11.781192697693502"><ele>1041.5</ele><time>2026-05-02T12:21:27Z</time></trkpt><trkpt lat="46.09911309512626" lon="11.781294674271008"><ele>1045.6666666666665</ele><time>2026-05-02T12:21:28Z</time></trkpt><trkpt lat="46.09912947217369" lon="11.781457805483598"><ele>1049.8333333333333</ele><time>2026-05-02T12:21:30Z</time></trkpt><trkpt lat="46.09912901559898" lon="11.781562881514237"><ele>1054.0</ele><time>2026-05-02T12:21:31Z</time></trkpt><trkpt lat="46.099076161860346" lon="11.781698009605034"><ele>1054.0</ele><time>2026-05-02T12:21:33Z</time></trkpt><trkpt lat="46.09901882236615" lon="11.781769025905382"><ele>1054.0</ele><time>2026-05-02T12:21:34Z</time></trkpt><trkpt lat="46.09898399025846" lon="11.781889981132117"><ele>1054.0</ele><time>2026-05-02T12:21:36Z</time></trkpt><trkpt lat="46.09899969902323" lon="11.781994334509545"><ele>1054.0</ele><time>2026-05-02T12:21:37Z</time></trkpt><trkpt lat="46.09901993084616" lon="11.782094351055989"><ele>1054.0</ele><time>2026-05-02T12:21:38Z</time></trkpt><trkpt lat="46.09903322698869" lon="11.782233965075608"><ele>1054.0</ele><time>2026-05-02T12:21:39Z</time></trkpt><trkpt lat="46.0990654307478" lon="11.782364498245526"><ele>1057.3333333333333</ele><time>2026-05-02T12:21:40Z</time></trkpt><trkpt lat="46.09908982837564" lon="11.782455978791713"><ele>1060.6666666666665</ele><time>2026-05-02T12:21:42Z</time></trkpt><trkpt lat="46.09916384364727" lon="11.78257111836792"><ele>1064.0</ele><time>2026-05-02T12:21:44Z</time></trkpt><trkpt lat="46.099234263134136" lon="11.782620198223983"><ele>1067.3333333333333</ele><time>2026-05-02T12:21:44.999Z</time></trkpt><trkpt lat="46.09931120387375" lon="11.782633343545733"><ele>1070.6666666666667</ele><time>2026-05-02T12:21:45.999Z</time></trkpt><trkpt lat="46.09938378527674" lon="11.782664154731828"><ele>1074.0</ele><time>2026-05-02T12:21:46.999Z</time></trkpt><trkpt lat="46.09945193536855" lon="11.782698852873176"><ele>1074.0</ele><time>2026-05-02T12:21:47.999Z</time></trkpt><trkpt lat="46.09955926417468" lon="11.782799635323606"><ele>1074.0</ele><time>2026-05-02T12:21:49.999Z</time></trkpt><trkpt lat="46.09960763687705" lon="11.782863447041997"><ele>1074.0</ele><time>2026-05-02T12:21:50.999Z</time></trkpt><trkpt lat="46.09967895810759" lon="11.782994085512573"><ele>1074.0</ele><time>2026-05-02T12:21:52.999Z</time></trkpt><trkpt lat="46.09973004261799" lon="11.78306397987599"><ele>1074.0</ele><time>2026-05-02T12:21:53.999Z</time></trkpt><trkpt lat="46.099836275731874" lon="11.78313843781764"><ele>1074.0</ele><time>2026-05-02T12:21:55.999Z</time></trkpt><trkpt lat="46.099899895906596" lon="11.78315899034567"><ele>1074.0</ele><time>2026-05-02T12:21:56.999Z</time></trkpt><trkpt lat="46.10001693058128" lon="11.783186761592354"><ele>1074.0</ele><time>2026-05-02T12:21:58.999Z</time></trkpt><trkpt lat="46.100107676931806" lon="11.783233777943838"><ele>1074.0</ele><time>2026-05-02T12:22:00.999Z</time></trkpt><trkpt lat="46.10011940939087" lon="11.783427852651988"><ele>1074.0</ele><time>2026-05-02T12:22:02.999Z</time></trkpt><trkpt lat="46.10007688271262" lon="11.783612146846746"><ele>1076.8333333333333</ele><time>2026-05-02T12:22:04.999Z</time></trkpt><trkpt lat="46.10002923260375" lon="11.783706512395174"><ele>1079.6666666666667</ele><time>2026-05-02T12:22:05.999Z</time></trkpt><trkpt lat="46.099997656594184" lon="11.783807362448737"><ele>1082.5</ele><time>2026-05-02T12:22:06.999Z</time></trkpt><trkpt lat="46.09996727333412" lon="11.783905252140391"><ele>1085.3333333333335</ele><time>2026-05-02T12:22:07.999Z</time></trkpt><trkpt lat="46.099926748849875" lon="11.78401804675823"><ele>1088.1666666666667</ele><time>2026-05-02T12:22:08.999Z</time></trkpt><trkpt lat="46.09990313098158" lon="11.784119607975251"><ele>1091.0</ele><time>2026-05-02T12:22:09.999Z</time></trkpt><trkpt lat="46.099886037745286" lon="11.784235987051133"><ele>1087.75</ele><time>2026-05-02T12:22:10.999Z</time></trkpt><trkpt lat="46.09986159086756" lon="11.784424689633374"><ele>1084.5</ele><time>2026-05-02T12:22:12.999Z</time></trkpt><trkpt lat="46.09984391986792" lon="11.784580306049405"><ele>1081.25</ele><time>2026-05-02T12:22:14.999Z</time></trkpt><trkpt lat="46.09985823344608" lon="11.784738604379315"><ele>1078.0</ele><time>2026-05-02T12:22:16.999Z</time></trkpt><trkpt lat="46.09979477693367" lon="11.784861174507597"><ele>1078.0</ele><time>2026-05-02T12:22:19.999Z</time></trkpt><trkpt lat="46.09973139551367" lon="11.784929681100687"><ele>1078.0</ele><time>2026-05-02T12:22:20.999Z</time></trkpt><trkpt lat="46.09966438241764" lon="11.78500789261141"><ele>1078.0</ele><time>2026-05-02T12:22:21.999Z</time></trkpt><trkpt lat="46.099611657176496" lon="11.785161953491075"><ele>1078.0</ele><time>2026-05-02T12:22:23.999Z</time></trkpt><trkpt lat="46.099587959777644" lon="11.785248529903802"><ele>1078.0</ele><time>2026-05-02T12:22:24.999Z</time></trkpt><trkpt lat="46.099546086320196" lon="11.785332191049047"><ele>1078.0</ele><time>2026-05-02T12:22:25.999Z</time></trkpt><trkpt lat="46.099504285214664" lon="11.785451635208277"><ele>1073.4</ele><time>2026-05-02T12:22:26.999Z</time></trkpt><trkpt lat="46.099453203274635" lon="11.785521179194982"><ele>1068.8</ele><time>2026-05-02T12:22:27.999Z</time></trkpt><trkpt lat="46.0993746515094" lon="11.78562674707481"><ele>1064.2</ele><time>2026-05-02T12:22:29.999Z</time></trkpt><trkpt lat="46.09932395842579" lon="11.785692779305062"><ele>1059.6</ele><time>2026-05-02T12:22:30.999Z</time></trkpt><trkpt lat="46.099263344230614" lon="11.785837881630279"><ele>1055.0</ele><time>2026-05-02T12:22:32.999Z</time></trkpt><trkpt lat="46.09923418801107" lon="11.786005443916967"><ele>1052.3333333333335</ele><time>2026-05-02T12:22:34.999Z</time></trkpt><trkpt lat="46.09921914557328" lon="11.786164992724206"><ele>1049.6666666666667</ele><time>2026-05-02T12:22:36.999Z</time></trkpt><trkpt lat="46.09918884997651" lon="11.786256138717917"><ele>1047.0</ele><time>2026-05-02T12:22:37.999Z</time></trkpt><trkpt lat="46.099160837941675" lon="11.786343695913208"><ele>1044.3333333333333</ele><time>2026-05-02T12:22:38.999Z</time></trkpt><trkpt lat="46.09911374997924" lon="11.786503285378224"><ele>1041.6666666666665</ele><time>2026-05-02T12:22:40.999Z</time></trkpt><trkpt lat="46.09908157413254" lon="11.786582292100892"><ele>1039.0</ele><time>2026-05-02T12:22:41.999Z</time></trkpt><trkpt lat="46.09904573886358" lon="11.78666906927828"><ele>1049.8333333333333</ele><time>2026-05-02T12:22:42.999Z</time></trkpt><trkpt lat="46.09899822690848" lon="11.786784122222672"><ele>1060.6666666666665</ele><time>2026-05-02T12:22:43.999Z</time></trkpt><trkpt lat="46.098956497704236" lon="11.78688517190263"><ele>1071.5</ele><time>2026-05-02T12:22:44.999Z</time></trkpt><trkpt lat="46.098932573003054" lon="11.786982357567997"><ele>1082.3333333333333</ele><time>2026-05-02T12:22:45.999Z</time></trkpt><trkpt lat="46.09890052161287" lon="11.787061936094263"><ele>1093.1666666666667</ele><time>2026-05-02T12:22:46.999Z</time></trkpt><trkpt lat="46.098875410257676" lon="11.787152770553323"><ele>1104.0</ele><time>2026-05-02T12:22:47.999Z</time></trkpt><trkpt lat="46.09884281812575" lon="11.78725577162554"><ele>1104.0</ele><time>2026-05-02T12:22:48.999Z</time></trkpt><trkpt lat="46.09881630989227" lon="11.787368889046022"><ele>1104.0</ele><time>2026-05-02T12:22:49.999Z</time></trkpt><trkpt lat="46.09879977023473" lon="11.787468074969631"><ele>1104.0</ele><time>2026-05-02T12:22:50.999Z</time></trkpt><trkpt lat="46.09879289984667" lon="11.787641240255303"><ele>1104.0</ele><time>2026-05-02T12:22:52.998Z</time></trkpt><trkpt lat="46.09878209630396" lon="11.787735721751265"><ele>1104.0</ele><time>2026-05-02T12:22:53.998Z</time></trkpt><trkpt lat="46.09884516790885" lon="11.787870706629931"><ele>1103.0</ele><time>2026-05-02T12:22:55.998Z</time></trkpt><trkpt lat="46.098938823937644" lon="11.787938982293076"><ele>1102.0</ele><time>2026-05-02T12:22:57.998Z</time></trkpt><trkpt lat="46.09894062842977" lon="11.788100650301766"><ele>1101.0</ele><time>2026-05-02T12:22:59.998Z</time></trkpt><trkpt lat="46.098915585802615" lon="11.788186907285656"><ele>1100.0</ele><time>2026-05-02T12:23:01Z</time></trkpt><trkpt lat="46.098922118207845" lon="11.78830155081439"><ele>1099.0</ele><time>2026-05-02T12:23:03Z</time></trkpt><trkpt lat="46.09898622110806" lon="11.788374907977067"><ele>1098.0</ele><time>2026-05-02T12:23:05Z</time></trkpt><trkpt lat="46.09909952199991" lon="11.788365422938021"><ele>1089.4</ele><time>2026-05-02T12:23:07Z</time></trkpt><trkpt lat="46.0991786387355" lon="11.78827316052799"><ele>1080.8</ele><time>2026-05-02T12:23:09Z</time></trkpt><trkpt lat="46.0992422905725" lon="11.7883326757338"><ele>1072.2</ele><time>2026-05-02T12:23:11Z</time></trkpt><trkpt lat="46.099280544253595" lon="11.788441638471507"><ele>1063.6</ele><time>2026-05-02T12:23:13Z</time></trkpt><trkpt lat="46.09927746947974" lon="11.788590405316313"><ele>1055.0</ele><time>2026-05-02T12:23:15Z</time></trkpt><trkpt lat="46.09918651949003" lon="11.788664978854728"><ele>1055.0</ele><time>2026-05-02T12:23:17Z</time></trkpt><trkpt lat="46.099096230061065" lon="11.788718776316838"><ele>1055.0</ele><time>2026-05-02T12:23:19Z</time></trkpt><trkpt lat="46.099003505257144" lon="11.788808322084451"><ele>1055.0</ele><time>2026-05-02T12:23:21Z</time></trkpt><trkpt lat="46.09895451711203" lon="11.788868853610749"><ele>1055.0</ele><time>2026-05-02T12:23:22Z</time></trkpt><trkpt lat="46.09890241217267" lon="11.788959041421013"><ele>1055.0</ele><time>2026-05-02T12:23:24Z</time></trkpt><trkpt lat="46.09888798414923" lon="11.789085415387648"><ele>1055.0</ele><time>2026-05-02T12:23:26Z</time></trkpt><trkpt lat="46.09887242544661" lon="11.789250523340717"><ele>1073.0</ele><time>2026-05-02T12:23:28Z</time></trkpt><trkpt lat="46.09886143890361" lon="11.789400831281595"><ele>1091.0</ele><time>2026-05-02T12:23:30Z</time></trkpt><trkpt lat="46.098905408612275" lon="11.789556898549408"><ele>1109.0</ele><time>2026-05-02T12:23:32Z</time></trkpt><trkpt lat="46.09895627649742" lon="11.78966390593164"><ele>1127.0</ele><time>2026-05-02T12:23:34Z</time></trkpt><trkpt lat="46.09899467898405" lon="11.78978025231502"><ele>1145.0</ele><time>2026-05-02T12:23:36Z</time></trkpt><trkpt lat="46.09899647036685" lon="11.789918820899393"><ele>1145.0</ele><time>2026-05-02T12:23:38Z</time></trkpt><trkpt lat="46.098989920615274" lon="11.790079170768104"><ele>1145.0</ele><time>2026-05-02T12:23:40Z</time></trkpt><trkpt lat="46.09899019933116" lon="11.79017865987066"><ele>1145.0</ele><time>2026-05-02T12:23:41Z</time></trkpt><trkpt lat="46.09896840073134" lon="11.790348638482296"><ele>1145.0</ele><time>2026-05-02T12:23:43Z</time></trkpt><trkpt lat="46.09895336253229" lon="11.790451834645598"><ele>1145.0</ele><time>2026-05-02T12:23:45Z</time></trkpt><trkpt lat="46.09896025001525" lon="11.79057855610638"><ele>1147.2</ele><time>2026-05-02T12:23:47Z</time></trkpt><trkpt lat="46.09897672735067" lon="11.790675293913774"><ele>1149.4</ele><time>2026-05-02T12:23:51Z</time></trkpt><trkpt lat="46.09908197683274" lon="11.790727163149283"><ele>1151.6</ele><time>2026-05-02T12:23:52.999Z</time></trkpt><trkpt lat="46.09916286074841" lon="11.790714086301085"><ele>1153.8</ele><time>2026-05-02T12:23:54.999Z</time></trkpt><trkpt lat="46.09928103197646" lon="11.79071246724586"><ele>1156.0</ele><time>2026-05-02T12:23:56.999Z</time></trkpt><trkpt lat="46.099348828051355" lon="11.790681290261542"><ele>1151.8333333333333</ele><time>2026-05-02T12:23:57.999Z</time></trkpt><trkpt lat="46.099449015333335" lon="11.790567433385064"><ele>1147.6666666666665</ele><time>2026-05-02T12:23:59.999Z</time></trkpt><trkpt lat="46.099500174370505" lon="11.790497856830703"><ele>1143.5</ele><time>2026-05-02T12:24:00.999Z</time></trkpt><trkpt lat="46.09956508665184" lon="11.79042311786698"><ele>1139.3333333333333</ele><time>2026-05-02T12:24:01.999Z</time></trkpt><trkpt lat="46.09963111986147" lon="11.790373279030927"><ele>1135.1666666666667</ele><time>2026-05-02T12:24:02.999Z</time></trkpt><trkpt lat="46.09969250012796" lon="11.790326410814176"><ele>1131.0</ele><time>2026-05-02T12:24:03.999Z</time></trkpt><trkpt lat="46.09977849389038" lon="11.79021199807076"><ele>1123.6</ele><time>2026-05-02T12:24:05.999Z</time></trkpt><trkpt lat="46.09982076773244" lon="11.790041630742339"><ele>1116.1999999999998</ele><time>2026-05-02T12:24:07.999Z</time></trkpt><trkpt lat="46.09986235623528" lon="11.789910207647482"><ele>1108.8000000000002</ele><time>2026-05-02T12:24:09.999Z</time></trkpt><trkpt lat="46.09995114351493" lon="11.789845781023939"><ele>1101.4</ele><time>2026-05-02T12:24:11.999Z</time></trkpt><trkpt lat="46.10003970256467" lon="11.789904678279433"><ele>1094.0</ele><time>2026-05-02T12:24:13.999Z</time></trkpt><trkpt lat="46.1001258949612" lon="11.789921326574568"><ele>1094.0</ele><time>2026-05-02T12:24:15.999Z</time></trkpt><trkpt lat="46.100194178542274" lon="11.789872683909769"><ele>1094.0</ele><time>2026-05-02T12:24:16.999Z</time></trkpt><trkpt lat="46.10029893139008" lon="11.789761207081357"><ele>1094.0</ele><time>2026-05-02T12:24:18.999Z</time></trkpt><trkpt lat="46.1003629415152" lon="11.789687285424145"><ele>1094.0</ele><time>2026-05-02T12:24:19.999Z</time></trkpt><trkpt lat="46.10045952627118" lon="11.789583031773816"><ele>1094.0</ele><time>2026-05-02T12:24:21.999Z</time></trkpt><trkpt lat="46.1005146069298" lon="11.78953309255303"><ele>1094.0</ele><time>2026-05-02T12:24:22.999Z</time></trkpt><trkpt lat="46.10058187873659" lon="11.78949132484943"><ele>1094.0</ele><time>2026-05-02T12:24:23.999Z</time></trkpt><trkpt lat="46.100680462721016" lon="11.7894241356509"><ele>1094.0</ele><time>2026-05-02T12:24:25.999Z</time></trkpt><trkpt lat="46.10074944026502" lon="11.789406994487821"><ele>1094.0</ele><time>2026-05-02T12:24:26.999Z</time></trkpt><trkpt lat="46.10085327233046" lon="11.78940972787989"><ele>1094.0</ele><time>2026-05-02T12:24:28.999Z</time></trkpt><trkpt lat="46.10093613501941" lon="11.789465981250903"><ele>1094.0</ele><time>2026-05-02T12:24:30.999Z</time></trkpt><trkpt lat="46.10097919026554" lon="11.789635487178641"><ele>1098.0</ele><time>2026-05-02T12:24:32.999Z</time></trkpt><trkpt lat="46.10102673348164" lon="11.78977661303416"><ele>1102.0</ele><time>2026-05-02T12:24:34.999Z</time></trkpt><trkpt lat="46.101080143149034" lon="11.78983385867168"><ele>1106.0</ele><time>2026-05-02T12:24:35.999Z</time></trkpt><trkpt lat="46.10114479754397" lon="11.789876328721652"><ele>1110.0</ele><time>2026-05-02T12:24:36.999Z</time></trkpt><trkpt lat="46.10120528327276" lon="11.789995341093796"><ele>1114.0</ele><time>2026-05-02T12:24:38.999Z</time></trkpt><trkpt lat="46.101225641120415" lon="11.790187309834407"><ele>1122.0</ele><time>2026-05-02T12:24:40.999Z</time></trkpt><trkpt lat="46.10127764355789" lon="11.79036048722713"><ele>1130.0</ele><time>2026-05-02T12:24:42.999Z</time></trkpt><trkpt lat="46.10132707125572" lon="11.790424724451928"><ele>1138.0</ele><time>2026-05-02T12:24:43.999Z</time></trkpt><trkpt lat="46.10138729617258" lon="11.790481601081963"><ele>1146.0</ele><time>2026-05-02T12:24:44.999Z</time></trkpt><trkpt lat="46.10147462567117" lon="11.790589664840308"><ele>1154.0</ele><time>2026-05-02T12:24:46.999Z</time></trkpt><trkpt lat="46.10153355642078" lon="11.790638318862756"><ele>1145.8</ele><time>2026-05-02T12:24:47.999Z</time></trkpt><trkpt lat="46.10161156806965" lon="11.790665414706462"><ele>1137.6000000000001</ele><time>2026-05-02T12:24:48.999Z</time></trkpt><trkpt lat="46.10172562427014" lon="11.79069471323201"><ele>1129.4</ele><time>2026-05-02T12:24:50.999Z</time></trkpt><trkpt lat="46.10180572524773" lon="11.790759827259325"><ele>1121.2</ele><time>2026-05-02T12:24:52.998Z</time></trkpt><trkpt lat="46.10181636016441" lon="11.790862228001817"><ele>1113.0</ele><time>2026-05-02T12:24:54.998Z</time></trkpt><trkpt lat="46.10174962044941" lon="11.79099405072676"><ele>1116.1666666666667</ele><time>2026-05-02T12:24:56.998Z</time></trkpt><trkpt lat="46.101694499373224" lon="11.791148981195862"><ele>1119.3333333333333</ele><time>2026-05-02T12:24:58.998Z</time></trkpt><trkpt lat="46.10169340214387" lon="11.791259270213136"><ele>1122.5</ele><time>2026-05-02T12:24:59.998Z</time></trkpt><trkpt lat="46.10168430866024" lon="11.791367563295708"><ele>1125.6666666666665</ele><time>2026-05-02T12:25:00.998Z</time></trkpt><trkpt lat="46.101666729829844" lon="11.791487967003786"><ele>1128.8333333333333</ele><time>2026-05-02T12:25:01.998Z</time></trkpt><trkpt lat="46.101651986791495" lon="11.791598468129187"><ele>1132.0</ele><time>2026-05-02T12:25:02.998Z</time></trkpt><trkpt lat="46.10162501218664" lon="11.791757894065096"><ele>1136.6</ele><time>2026-05-02T12:25:04.998Z</time></trkpt><trkpt lat="46.10165542422092" lon="11.791937447695291"><ele>1141.2</ele><time>2026-05-02T12:25:07Z</time></trkpt><trkpt lat="46.101688724069106" lon="11.792022181281844"><ele>1145.8</ele><time>2026-05-02T12:25:08Z</time></trkpt><trkpt lat="46.10172995368933" lon="11.792106924389916"><ele>1150.4</ele><time>2026-05-02T12:25:09Z</time></trkpt><trkpt lat="46.10175438184859" lon="11.792218716693629"><ele>1155.0</ele><time>2026-05-02T12:25:10Z</time></trkpt><trkpt lat="46.101800249136225" lon="11.792403287062653"><ele>1155.0</ele><time>2026-05-02T12:25:12Z</time></trkpt><trkpt lat="46.10183313645964" lon="11.792510008058924"><ele>1155.0</ele><time>2026-05-02T12:25:13Z</time></trkpt><trkpt lat="46.10184868982593" lon="11.792608545543027"><ele>1155.0</ele><time>2026-05-02T12:25:14Z</time></trkpt><trkpt lat="46.10186048154089" lon="11.79270358502082"><ele>1155.0</ele><time>2026-05-02T12:25:15Z</time></trkpt><trkpt lat="46.101898118791205" lon="11.792801180828159"><ele>1155.0</ele><time>2026-05-02T12:25:16Z</time></trkpt><trkpt lat="46.10195171705375" lon="11.792879749258853"><ele>1155.0</ele><time>2026-05-02T12:25:17Z</time></trkpt><trkpt lat="46.102005251399824" lon="11.792959290970881"><ele>1155.0</ele><time>2026-05-02T12:25:18Z</time></trkpt><trkpt lat="46.10204461859587" lon="11.793050548521059"><ele>1160.5</ele><time>2026-05-02T12:25:19Z</time></trkpt><trkpt lat="46.10207975734707" lon="11.793157555562685"><ele>1166.0</ele><time>2026-05-02T12:25:20Z</time></trkpt><trkpt lat="46.10211377096325" lon="11.793285342444513"><ele>1171.5</ele><time>2026-05-02T12:25:21Z</time></trkpt><trkpt lat="46.10215857304375" lon="11.793366838189604"><ele>1177.0</ele><time>2026-05-02T12:25:22Z</time></trkpt><trkpt lat="46.10221334248299" lon="11.793433638532049"><ele>1182.5</ele><time>2026-05-02T12:25:23Z</time></trkpt><trkpt lat="46.102269127162955" lon="11.793597213711223"><ele>1188.0</ele><time>2026-05-02T12:25:25Z</time></trkpt><trkpt lat="46.10235033967733" lon="11.793678060878337"><ele>1183.2</ele><time>2026-05-02T12:25:27Z</time></trkpt><trkpt lat="46.10242336537251" lon="11.793707616530986"><ele>1178.4</ele><time>2026-05-02T12:25:28Z</time></trkpt><trkpt lat="46.10250660362205" lon="11.793838094162783"><ele>1173.6000000000001</ele><time>2026-05-02T12:25:30Z</time></trkpt><trkpt lat="46.10252267655102" lon="11.794012655167487"><ele>1168.8</ele><time>2026-05-02T12:25:32Z</time></trkpt><trkpt lat="46.102537837173905" lon="11.794113325617301"><ele>1164.0</ele><time>2026-05-02T12:25:33Z</time></trkpt><trkpt lat="46.10255847384602" lon="11.794226319016527"><ele>1166.6000000000001</ele><time>2026-05-02T12:25:34Z</time></trkpt><trkpt lat="46.102615365908214" lon="11.794442375298011"><ele>1169.2</ele><time>2026-05-02T12:25:36Z</time></trkpt><trkpt lat="46.10263718658561" lon="11.794552630715968"><ele>1171.8000000000002</ele><time>2026-05-02T12:25:37Z</time></trkpt><trkpt lat="46.102691902400174" lon="11.794713566215352"><ele>1174.4</ele><time>2026-05-02T12:25:39Z</time></trkpt><trkpt lat="46.10273311803875" lon="11.794786007585422"><ele>1177.0</ele><time>2026-05-02T12:25:40Z</time></trkpt><trkpt lat="46.10279675324157" lon="11.794939674585066"><ele>1177.0</ele><time>2026-05-02T12:25:42Z</time></trkpt><trkpt lat="46.10282194255459" lon="11.795033973790325"><ele>1177.0</ele><time>2026-05-02T12:25:43Z</time></trkpt><trkpt lat="46.102880514489755" lon="11.795124418659842"><ele>1177.0</ele><time>2026-05-02T12:25:44Z</time></trkpt><trkpt lat="46.102930584244284" lon="11.795193090169821"><ele>1177.0</ele><time>2026-05-02T12:25:45Z</time></trkpt><trkpt lat="46.10297487029302" lon="11.79528551189047"><ele>1177.0</ele><time>2026-05-02T12:25:46Z</time></trkpt><trkpt lat="46.10304032875559" lon="11.795399662729773"><ele>1177.0</ele><time>2026-05-02T12:25:47Z</time></trkpt><trkpt lat="46.10310121377881" lon="11.79545164345121"><ele>1178.6666666666665</ele><time>2026-05-02T12:25:49Z</time></trkpt><trkpt lat="46.103142998077075" lon="11.795537739868285"><ele>1180.3333333333333</ele><time>2026-05-02T12:25:50Z</time></trkpt><trkpt lat="46.103223119737436" lon="11.795562678771052"><ele>1182.0</ele><time>2026-05-02T12:25:51Z</time></trkpt><trkpt lat="46.103331514997286" lon="11.795565759369529"><ele>1183.6666666666667</ele><time>2026-05-02T12:25:52Z</time></trkpt><trkpt lat="46.10339844198812" lon="11.795585829704615"><ele>1185.3333333333335</ele><time>2026-05-02T12:25:53.999Z</time></trkpt><trkpt lat="46.10348240672209" lon="11.795602966275908"><ele>1187.0</ele><time>2026-05-02T12:25:59.999Z</time></trkpt><trkpt lat="46.103516701140904" lon="11.795522240182848"><ele>1187.0</ele><time>2026-05-02T12:26:13.999Z</time></trkpt><trkpt lat="46.10353411673284" lon="11.795423359278793"><ele>1187.0</ele><time>2026-05-02T12:26:15.999Z</time></trkpt><trkpt lat="46.10352272345985" lon="11.795309085323128"><ele>1187.0</ele><time>2026-05-02T12:26:18.999Z</time></trkpt><trkpt lat="46.1035073452454" lon="11.795184834249385"><ele>1187.0</ele><time>2026-05-02T12:26:20.999Z</time></trkpt><trkpt lat="46.10346557656776" lon="11.795046388953665"><ele>1187.0</ele><time>2026-05-02T12:26:22.999Z</time></trkpt><trkpt lat="46.10343882136601" lon="11.794895589352736"><ele>1187.0</ele><time>2026-05-02T12:26:24.999Z</time></trkpt><trkpt lat="46.10343367927862" lon="11.794751544525305"><ele>1187.0</ele><time>2026-05-02T12:26:26.999Z</time></trkpt><trkpt lat="46.10344858139299" lon="11.794577253244372"><ele>1187.0</ele><time>2026-05-02T12:26:28.999Z</time></trkpt><trkpt lat="46.10345968969658" lon="11.794475576078309"><ele>1187.0</ele><time>2026-05-02T12:26:29.999Z</time></trkpt><trkpt lat="46.10346564756977" lon="11.794377030121463"><ele>1187.0</ele><time>2026-05-02T12:26:30.999Z</time></trkpt><trkpt lat="46.10348475012813" lon="11.79428787994877"><ele>1187.0</ele><time>2026-05-02T12:26:31.999Z</time></trkpt><trkpt lat="46.10347480006573" lon="11.794173448914444"><ele>1187.0</ele><time>2026-05-02T12:26:32.999Z</time></trkpt><trkpt lat="46.10346898714691" lon="11.794053814284199"><ele>1187.0</ele><time>2026-05-02T12:26:33.999Z</time></trkpt><trkpt lat="46.1034623800788" lon="11.79396347662024"><ele>1187.0</ele><time>2026-05-02T12:26:34.999Z</time></trkpt><trkpt lat="46.10346414165917" lon="11.793810708380734"><ele>1187.0</ele><time>2026-05-02T12:26:36.999Z</time></trkpt><trkpt lat="46.10347827355386" lon="11.793718412947491"><ele>1187.0</ele><time>2026-05-02T12:26:37.999Z</time></trkpt><trkpt lat="46.103512868517676" lon="11.793611202104275"><ele>1187.0</ele><time>2026-05-02T12:26:38.999Z</time></trkpt><trkpt lat="46.10354373744862" lon="11.793507915576651"><ele>1187.0000000000002</ele><time>2026-05-02T12:26:39.999Z</time></trkpt><trkpt lat="46.10357138806121" lon="11.793394981273504"><ele>1187.0</ele><time>2026-05-02T12:26:40.999Z</time></trkpt><trkpt lat="46.103603148349585" lon="11.793295808249905"><ele>1187.0</ele><time>2026-05-02T12:26:41.999Z</time></trkpt><trkpt lat="46.10362586772937" lon="11.793206439332538"><ele>1187.0</ele><time>2026-05-02T12:26:42.999Z</time></trkpt><trkpt lat="46.1036280253907" lon="11.793113945336277"><ele>1187.0</ele><time>2026-05-02T12:26:43.999Z</time></trkpt><trkpt lat="46.10361568847761" lon="11.793005895392822"><ele>1187.0000000000002</ele><time>2026-05-02T12:26:44.999Z</time></trkpt><trkpt lat="46.10361885500962" lon="11.792898436082956"><ele>1187.0</ele><time>2026-05-02T12:26:45.999Z</time></trkpt><trkpt lat="46.103638345002445" lon="11.792803134289633"><ele>1164.1666666666667</ele><time>2026-05-02T12:26:46.999Z</time></trkpt><trkpt lat="46.10366731429442" lon="11.79272005038467"><ele>1141.3333333333335</ele><time>2026-05-02T12:26:47.999Z</time></trkpt><trkpt lat="46.10370091945814" lon="11.792635044816938"><ele>1118.5</ele><time>2026-05-02T12:26:48.999Z</time></trkpt><trkpt lat="46.10374341248352" lon="11.792553046648873"><ele>1095.6666666666667</ele><time>2026-05-02T12:26:49.999Z</time></trkpt><trkpt lat="46.10383207011145" lon="11.792444634729256"><ele>1072.8333333333333</ele><time>2026-05-02T12:26:51.999Z</time></trkpt><trkpt lat="46.10389546744126" lon="11.792379300892684"><ele>1050.0</ele><time>2026-05-02T12:26:52.998Z</time></trkpt><trkpt lat="46.10397452052923" lon="11.79237357953419"><ele>1050.0</ele><time>2026-05-02T12:26:53.998Z</time></trkpt><trkpt lat="46.104036920282795" lon="11.792330693426324"><ele>1050.0</ele><time>2026-05-02T12:26:54.998Z</time></trkpt><trkpt lat="46.10414817722051" lon="11.792252562760968"><ele>1050.0</ele><time>2026-05-02T12:26:56.998Z</time></trkpt><trkpt lat="46.10420820879371" lon="11.792220454415913"><ele>1050.0</ele><time>2026-05-02T12:26:57.998Z</time></trkpt><trkpt lat="46.104330632347576" lon="11.792148481220094"><ele>1050.0</ele><time>2026-05-02T12:26:59.998Z</time></trkpt><trkpt lat="46.104380472484756" lon="11.792088295041534"><ele>1076.8333333333333</ele><time>2026-05-02T12:27:00.998Z</time></trkpt><trkpt lat="46.104428849357596" lon="11.792020737314038"><ele>1103.6666666666667</ele><time>2026-05-02T12:27:01.998Z</time></trkpt><trkpt lat="46.10447634894166" lon="11.791957346673211"><ele>1130.5</ele><time>2026-05-02T12:27:02.998Z</time></trkpt><trkpt lat="46.10452690974063" lon="11.79189949510139"><ele>1157.3333333333335</ele><time>2026-05-02T12:27:03.998Z</time></trkpt><trkpt lat="46.1046021954003" lon="11.791804994043487"><ele>1184.1666666666667</ele><time>2026-05-02T12:27:05.998Z</time></trkpt><trkpt lat="46.104690564011676" lon="11.791767772484523"><ele>1211.0</ele><time>2026-05-02T12:27:07.998Z</time></trkpt><trkpt lat="46.10475975551886" lon="11.791655338731896"><ele>1211.0</ele><time>2026-05-02T12:27:09.998Z</time></trkpt><trkpt lat="46.104808371700294" lon="11.791527323334307"><ele>1211.0</ele><time>2026-05-02T12:27:12Z</time></trkpt><trkpt lat="46.10482147972699" lon="11.79141332106654"><ele>1211.0</ele><time>2026-05-02T12:27:13Z</time></trkpt><trkpt lat="46.10483269486527" lon="11.791235553681258"><ele>1211.0</ele><time>2026-05-02T12:27:15Z</time></trkpt><trkpt lat="46.10485910471987" lon="11.79109919418837"><ele>1211.0</ele><time>2026-05-02T12:27:17Z</time></trkpt><trkpt lat="46.10490700959127" lon="11.790966079932469"><ele>1208.25</ele><time>2026-05-02T12:27:19Z</time></trkpt><trkpt lat="46.10493123048301" lon="11.790823340055146"><ele>1205.5</ele><time>2026-05-02T12:27:21Z</time></trkpt><trkpt lat="46.10496299961435" lon="11.790659726223394"><ele>1202.75</ele><time>2026-05-02T12:27:23Z</time></trkpt><trkpt lat="46.10498618523023" lon="11.790508204714406"><ele>1200.0</ele><time>2026-05-02T12:27:25Z</time></trkpt><trkpt lat="46.10507306982923" lon="11.790356749542415"><ele>1200.0</ele><time>2026-05-02T12:27:27Z</time></trkpt><trkpt lat="46.10509301488307" lon="11.79025939200937"><ele>1200.0</ele><time>2026-05-02T12:27:28Z</time></trkpt><trkpt lat="46.10509864013776" lon="11.790157004123644"><ele>1200.0</ele><time>2026-05-02T12:27:29Z</time></trkpt><trkpt lat="46.105093906675485" lon="11.790062676865446"><ele>1200.0</ele><time>2026-05-02T12:27:30Z</time></trkpt><trkpt lat="46.10510520246127" lon="11.789925611218612"><ele>1200.0</ele><time>2026-05-02T12:27:32Z</time></trkpt><trkpt lat="46.10511756604955" lon="11.789833677215078"><ele>1200.0</ele><time>2026-05-02T12:27:33Z</time></trkpt><trkpt lat="46.10515474060349" lon="11.789654032092889"><ele>1200.0</ele><time>2026-05-02T12:27:35Z</time></trkpt><trkpt lat="46.10518798824507" lon="11.78953922554176"><ele>1200.0</ele><time>2026-05-02T12:27:36Z</time></trkpt><trkpt lat="46.10521926863101" lon="11.789445818542449"><ele>1200.0</ele><time>2026-05-02T12:27:37Z</time></trkpt><trkpt lat="46.10525128800245" lon="11.789342307808361"><ele>1200.0</ele><time>2026-05-02T12:27:38Z</time></trkpt><trkpt lat="46.1052994310782" lon="11.789192593861724"><ele>1200.0</ele><time>2026-05-02T12:27:40Z</time></trkpt><trkpt lat="46.10531470136166" lon="11.789015991567643"><ele>1200.0</ele><time>2026-05-02T12:27:42Z</time></trkpt><trkpt lat="46.10528751268571" lon="11.788918203434148"><ele>1200.0</ele><time>2026-05-02T12:27:43Z</time></trkpt><trkpt lat="46.10524215113578" lon="11.788816030819136"><ele>1200.0</ele><time>2026-05-02T12:27:44Z</time></trkpt><trkpt lat="46.10518809851341" lon="11.788708833872386"><ele>1200.0</ele><time>2026-05-02T12:27:45Z</time></trkpt><trkpt lat="46.10514127601923" lon="11.788618529572608"><ele>1200.0</ele><time>2026-05-02T12:27:46Z</time></trkpt><trkpt lat="46.10507938798032" lon="11.788464176398875"><ele>1200.0</ele><time>2026-05-02T12:27:48Z</time></trkpt><trkpt lat="46.105057365103676" lon="11.788304536073667"><ele>1200.0</ele><time>2026-05-02T12:27:50Z</time></trkpt><trkpt lat="46.10506657019813" lon="11.788138600933841"><ele>1200.0</ele><time>2026-05-02T12:27:52Z</time></trkpt><trkpt lat="46.10508303982464" lon="11.788049289584032"><ele>1200.0</ele><time>2026-05-02T12:27:52.999Z</time></trkpt><trkpt lat="46.105137643772636" lon="11.787957640817961"><ele>1200.0</ele><time>2026-05-02T12:27:53.999Z</time></trkpt><trkpt lat="46.105174937076505" lon="11.787856881289787"><ele>1200.0</ele><time>2026-05-02T12:27:54.999Z</time></trkpt><trkpt lat="46.10519907127689" lon="11.787756936414356"><ele>1200.0</ele><time>2026-05-02T12:27:55.999Z</time></trkpt><trkpt lat="46.105215427728204" lon="11.78765299563592"><ele>1200.0</ele><time>2026-05-02T12:27:56.999Z</time></trkpt><trkpt lat="46.10524284624286" lon="11.787454345451486"><ele>1200.0</ele><time>2026-05-02T12:27:58.999Z</time></trkpt><trkpt lat="46.10525734430844" lon="11.78735954848338"><ele>1200.0</ele><time>2026-05-02T12:27:59.999Z</time></trkpt><trkpt lat="46.10527554725166" lon="11.787264748944231"><ele>1200.0</ele><time>2026-05-02T12:28:00.999Z</time></trkpt><trkpt lat="46.105294261383065" lon="11.787168241393603"><ele>1200.0</ele><time>2026-05-02T12:28:01.999Z</time></trkpt><trkpt lat="46.105338632809435" lon="11.786994082194362"><ele>1200.0</ele><time>2026-05-02T12:28:03.999Z</time></trkpt><trkpt lat="46.1053611257708" lon="11.78690457402035"><ele>1200.0</ele><time>2026-05-02T12:28:04.999Z</time></trkpt><trkpt lat="46.10540063991612" lon="11.786829024554935"><ele>1200.0</ele><time>2026-05-02T12:28:05.999Z</time></trkpt><trkpt lat="46.10544325304778" lon="11.78675444092929"><ele>1200.0</ele><time>2026-05-02T12:28:06.999Z</time></trkpt><trkpt lat="46.105498594498776" lon="11.786679352684489"><ele>1200.0</ele><time>2026-05-02T12:28:07.999Z</time></trkpt><trkpt lat="46.105559368022256" lon="11.786545087732305"><ele>1195.4</ele><time>2026-05-02T12:28:09.999Z</time></trkpt><trkpt lat="46.10559830604692" lon="11.786453847443358"><ele>1190.8</ele><time>2026-05-02T12:28:11.999Z</time></trkpt><trkpt lat="46.105706632711076" lon="11.786492435084531"><ele>1186.2</ele><time>2026-05-02T12:28:15.999Z</time></trkpt><trkpt lat="46.10578322574103" lon="11.786512386966313"><ele>1181.6</ele><time>2026-05-02T12:28:16.999Z</time></trkpt><trkpt lat="46.105927464309566" lon="11.786469410474977"><ele>1177.0</ele><time>2026-05-02T12:28:18.999Z</time></trkpt><trkpt lat="46.106014948759615" lon="11.78646164176337"><ele>1177.0</ele><time>2026-05-02T12:28:20.999Z</time></trkpt><trkpt lat="46.10611448856894" lon="11.786538916746489"><ele>1177.0</ele><time>2026-05-02T12:28:22.999Z</time></trkpt><trkpt lat="46.10620177899316" lon="11.786646197274706"><ele>1177.0</ele><time>2026-05-02T12:28:24.999Z</time></trkpt><trkpt lat="46.10626488280752" lon="11.78672583624309"><ele>1177.0</ele><time>2026-05-02T12:28:26.999Z</time></trkpt><trkpt lat="46.10635543430028" lon="11.786980767480133"><ele>1177.0</ele><time>2026-05-02T12:28:27.999Z</time></trkpt><trkpt lat="46.106447051627526" lon="11.78699960698082"><ele>1177.0</ele><time>2026-05-02T12:28:28.999Z</time></trkpt><trkpt lat="46.10646535740741" lon="11.786786128184673"><ele>1177.0</ele><time>2026-05-02T12:28:34.999Z</time></trkpt><trkpt lat="46.106319014871886" lon="11.7867737859537"><ele>1177.0</ele><time>2026-05-02T12:28:36.999Z</time></trkpt><trkpt lat="46.106243516466705" lon="11.786753739598128"><ele>1177.0</ele><time>2026-05-02T12:28:37.999Z</time></trkpt><trkpt lat="46.10614315243007" lon="11.78673822197422"><ele>1177.0</ele><time>2026-05-02T12:28:39.999Z</time></trkpt><trkpt lat="46.106099477311545" lon="11.786463526291264"><ele>1177.0</ele><time>2026-05-02T12:28:41.999Z</time></trkpt><trkpt lat="46.106034022331" lon="11.786421730089277"><ele>1177.0</ele><time>2026-05-02T12:28:42.999Z</time></trkpt><trkpt lat="46.10587774204375" lon="11.786444918121589"><ele>1177.0</ele><time>2026-05-02T12:28:43.999Z</time></trkpt><trkpt lat="46.10578844287661" lon="11.786468944968515"><ele>1177.0</ele><time>2026-05-02T12:28:45.999Z</time></trkpt><trkpt lat="46.10554197260657" lon="11.786582535408334"><ele>1177.0</ele><time>2026-05-02T12:28:50.999Z</time></trkpt><trkpt lat="46.105862197025786" lon="11.786760379007747"><ele>1177.0</ele><time>2026-05-02T12:28:52.999Z</time></trkpt><trkpt lat="46.1059417903567" lon="11.786747258690545"><ele>1177.0</ele><time>2026-05-02T12:28:54.998Z</time></trkpt><trkpt lat="46.10602606486403" lon="11.78681916605102"><ele>1177.0</ele><time>2026-05-02T12:28:56.998Z</time></trkpt><trkpt lat="46.10606601574379" lon="11.786958258053541"><ele>1177.0</ele><time>2026-05-02T12:28:58.998Z</time></trkpt><trkpt lat="46.106344277942824" lon="11.786982506650961"><ele>1184.857142857143</ele><time>2026-05-02T12:29:02.998Z</time></trkpt><trkpt lat="46.10641134916288" lon="11.78701730385994"><ele>1192.7142857142858</ele><time>2026-05-02T12:29:03.998Z</time></trkpt><trkpt lat="46.1065247107733" lon="11.787044224972906"><ele>1200.5714285714284</ele><time>2026-05-02T12:29:05.998Z</time></trkpt><trkpt lat="46.10659294902127" lon="11.787028089370056"><ele>1208.4285714285716</ele><time>2026-05-02T12:29:06.998Z</time></trkpt><trkpt lat="46.1066529342498" lon="11.786991765072012"><ele>1216.2857142857142</ele><time>2026-05-02T12:29:07.998Z</time></trkpt><trkpt lat="46.10670963935186" lon="11.78694578670276"><ele>1224.142857142857</ele><time>2026-05-02T12:29:08.998Z</time></trkpt><trkpt lat="46.10676587692591" lon="11.786904665143384"><ele>1232.0</ele><time>2026-05-02T12:29:09.998Z</time></trkpt><trkpt lat="46.10683329316842" lon="11.786900601783248"><ele>1232.0</ele><time>2026-05-02T12:29:10.998Z</time></trkpt><trkpt lat="46.10694713660714" lon="11.78684444843201"><ele>1232.0</ele><time>2026-05-02T12:29:12.998Z</time></trkpt><trkpt lat="46.107049510887705" lon="11.786791780219051"><ele>1232.0</ele><time>2026-05-02T12:29:14.998Z</time></trkpt><trkpt lat="46.107136850442735" lon="11.786775328967792"><ele>1232.0</ele><time>2026-05-02T12:29:16.998Z</time></trkpt><trkpt lat="46.10725726971491" lon="11.786810819465959"><ele>1232.0</ele><time>2026-05-02T12:29:18.999Z</time></trkpt><trkpt lat="46.10732312848025" lon="11.786850349618208"><ele>1232.0</ele><time>2026-05-02T12:29:19.999Z</time></trkpt><trkpt lat="46.10739765789269" lon="11.786883142256492"><ele>1232.0</ele><time>2026-05-02T12:29:20.999Z</time></trkpt><trkpt lat="46.10747405212737" lon="11.78689841071379"><ele>1232.0</ele><time>2026-05-02T12:29:21.999Z</time></trkpt><trkpt lat="46.10754716959156" lon="11.786893360562274"><ele>1232.0</ele><time>2026-05-02T12:29:22.999Z</time></trkpt><trkpt lat="46.10761899592417" lon="11.786853781579829"><ele>1232.0</ele><time>2026-05-02T12:29:23.999Z</time></trkpt><trkpt lat="46.107710513229954" lon="11.786825580601898"><ele>1232.0</ele><time>2026-05-02T12:29:25.999Z</time></trkpt><trkpt lat="46.10783374426019" lon="11.786831513675809"><ele>1234.8</ele><time>2026-05-02T12:29:27.999Z</time></trkpt><trkpt lat="46.10794187661186" lon="11.786865584756846"><ele>1237.6</ele><time>2026-05-02T12:29:29.999Z</time></trkpt><trkpt lat="46.10804741048645" lon="11.78694086090311"><ele>1240.3999999999999</ele><time>2026-05-02T12:29:32Z</time></trkpt><trkpt lat="46.108136555186626" lon="11.786984806149148"><ele>1243.2</ele><time>2026-05-02T12:29:34Z</time></trkpt><trkpt lat="46.10820328561684" lon="11.787108815212873"><ele>1246.0</ele><time>2026-05-02T12:29:36Z</time></trkpt><trkpt lat="46.108168088746616" lon="11.787197048890073"><ele>1246.0</ele><time>2026-05-02T12:29:37Z</time></trkpt><trkpt lat="46.1081727491663" lon="11.787301221543865"><ele>1246.0</ele><time>2026-05-02T12:29:38Z</time></trkpt><trkpt lat="46.1081830030185" lon="11.787395874819527"><ele>1246.0</ele><time>2026-05-02T12:29:38.999Z</time></trkpt><trkpt lat="46.108200298729486" lon="11.787501319438233"><ele>1246.0</ele><time>2026-05-02T12:29:39.999Z</time></trkpt><trkpt lat="46.10824100785243" lon="11.787578194132797"><ele>1246.0</ele><time>2026-05-02T12:29:40.999Z</time></trkpt><trkpt lat="46.10826240107876" lon="11.787731359601034"><ele>1246.0</ele><time>2026-05-02T12:29:42.999Z</time></trkpt><trkpt lat="46.10819973759424" lon="11.78785452889613"><ele>1249.8333333333333</ele><time>2026-05-02T12:29:44.999Z</time></trkpt><trkpt lat="46.10810742284385" lon="11.787991244318814"><ele>1253.6666666666665</ele><time>2026-05-02T12:29:46.999Z</time></trkpt><trkpt lat="46.108063183026836" lon="11.788080320572522"><ele>1257.5</ele><time>2026-05-02T12:29:47.999Z</time></trkpt><trkpt lat="46.10803740251843" lon="11.788175470890613"><ele>1261.3333333333333</ele><time>2026-05-02T12:29:48.999Z</time></trkpt><trkpt lat="46.1080075523628" lon="11.788280711944243"><ele>1265.1666666666667</ele><time>2026-05-02T12:29:49.999Z</time></trkpt><trkpt lat="46.1079685429941" lon="11.788377434222554"><ele>1269.0</ele><time>2026-05-02T12:29:50.999Z</time></trkpt><trkpt lat="46.107946078870754" lon="11.788475524404031"><ele>1270.3333333333333</ele><time>2026-05-02T12:29:51.999Z</time></trkpt><trkpt lat="46.10792777208122" lon="11.788576536824396"><ele>1271.6666666666667</ele><time>2026-05-02T12:29:52.999Z</time></trkpt><trkpt lat="46.10791836913133" lon="11.78867967503666"><ele>1273.0</ele><time>2026-05-02T12:29:53.999Z</time></trkpt><trkpt lat="46.10792694239234" lon="11.78878016094137"><ele>1274.3333333333335</ele><time>2026-05-02T12:29:54.999Z</time></trkpt><trkpt lat="46.10795558533684" lon="11.78895565004617"><ele>1275.6666666666667</ele><time>2026-05-02T12:29:56.999Z</time></trkpt><trkpt lat="46.10797319024266" lon="11.78906105065856"><ele>1277.0</ele><time>2026-05-02T12:29:57.999Z</time></trkpt><trkpt lat="46.10799314355338" lon="11.789230291204403"><ele>1276.9999999999998</ele><time>2026-05-02T12:29:59.999Z</time></trkpt><trkpt lat="46.10799325141649" lon="11.78932327965878"><ele>1277.0</ele><time>2026-05-02T12:30:00.999Z</time></trkpt><trkpt lat="46.10800304096641" lon="11.789439507834185"><ele>1277.0</ele><time>2026-05-02T12:30:01.999Z</time></trkpt><trkpt lat="46.10800398202944" lon="11.789540119847205"><ele>1277.0</ele><time>2026-05-02T12:30:02.999Z</time></trkpt><trkpt lat="46.108022517325026" lon="11.789640365823923"><ele>1277.0</ele><time>2026-05-02T12:30:03.999Z</time></trkpt><trkpt lat="46.10806780714795" lon="11.789732103910293"><ele>1276.9999999999998</ele><time>2026-05-02T12:30:04.999Z</time></trkpt><trkpt lat="46.108105841234064" lon="11.789838223833273"><ele>1277.0</ele><time>2026-05-02T12:30:05.999Z</time></trkpt><trkpt lat="46.10815830456814" lon="11.789935816469544"><ele>1280.0</ele><time>2026-05-02T12:30:06.999Z</time></trkpt><trkpt lat="46.10820374506995" lon="11.79002086246437"><ele>1283.0</ele><time>2026-05-02T12:30:07.999Z</time></trkpt><trkpt lat="46.10830536467496" lon="11.79014200323478"><ele>1286.0</ele><time>2026-05-02T12:30:09.999Z</time></trkpt><trkpt lat="46.10836295582373" lon="11.790265333463848"><ele>1289.0</ele><time>2026-05-02T12:30:11.999Z</time></trkpt><trkpt lat="46.10839702793063" lon="11.790424004103377"><ele>1292.0</ele><time>2026-05-02T12:30:13.999Z</time></trkpt><trkpt lat="46.10839807773553" lon="11.790543637877212"><ele>1286.4285714285716</ele><time>2026-05-02T12:30:14.999Z</time></trkpt><trkpt lat="46.108393003835594" lon="11.790656169498794"><ele>1280.857142857143</ele><time>2026-05-02T12:30:15.999Z</time></trkpt><trkpt lat="46.10838047702088" lon="11.790756671728712"><ele>1275.2857142857142</ele><time>2026-05-02T12:30:16.999Z</time></trkpt><trkpt lat="46.10838256516376" lon="11.79085540610101"><ele>1269.7142857142858</ele><time>2026-05-02T12:30:17.999Z</time></trkpt><trkpt lat="46.10837455947094" lon="11.790960552770684"><ele>1264.142857142857</ele><time>2026-05-02T12:30:18.999Z</time></trkpt><trkpt lat="46.108404011068245" lon="11.791066136167009"><ele>1258.5714285714287</ele><time>2026-05-02T12:30:19.999Z</time></trkpt><trkpt lat="46.10840860430267" lon="11.791164427053868"><ele>1253.0</ele><time>2026-05-02T12:30:20.999Z</time></trkpt><trkpt lat="46.10845109506528" lon="11.791246584825435"><ele>1252.2</ele><time>2026-05-02T12:30:21.999Z</time></trkpt><trkpt lat="46.10852783865599" lon="11.791407919320624"><ele>1251.4</ele><time>2026-05-02T12:30:23.999Z</time></trkpt><trkpt lat="46.10854800847256" lon="11.791519905221353"><ele>1250.6000000000001</ele><time>2026-05-02T12:30:24.999Z</time></trkpt><trkpt lat="46.10857928791391" lon="11.791622734106003"><ele>1249.8</ele><time>2026-05-02T12:30:25.999Z</time></trkpt><trkpt lat="46.10860134949413" lon="11.791729730083922"><ele>1249.0</ele><time>2026-05-02T12:30:26.999Z</time></trkpt><trkpt lat="46.10865361511045" lon="11.791817742026243"><ele>1256.0</ele><time>2026-05-02T12:30:27.999Z</time></trkpt><trkpt lat="46.10870679363248" lon="11.791894607742277"><ele>1263.0</ele><time>2026-05-02T12:30:28.999Z</time></trkpt><trkpt lat="46.10875391356806" lon="11.79198019167491"><ele>1270.0</ele><time>2026-05-02T12:30:29.999Z</time></trkpt><trkpt lat="46.10879871527129" lon="11.792075330762136"><ele>1277.0</ele><time>2026-05-02T12:30:30.999Z</time></trkpt><trkpt lat="46.10883844666601" lon="11.792166769815758"><ele>1284.0</ele><time>2026-05-02T12:30:31.999Z</time></trkpt><trkpt lat="46.1088783766466" lon="11.7922548289933"><ele>1291.0</ele><time>2026-05-02T12:30:32.999Z</time></trkpt><trkpt lat="46.10889893949462" lon="11.792429213259977"><ele>1291.0</ele><time>2026-05-02T12:30:34.999Z</time></trkpt><trkpt lat="46.10895589088027" lon="11.792557418715369"><ele>1291.0</ele><time>2026-05-02T12:30:36.999Z</time></trkpt><trkpt lat="46.10900733131049" lon="11.79264514666704"><ele>1291.0</ele><time>2026-05-02T12:30:38.999Z</time></trkpt><trkpt lat="46.109090928532275" lon="11.792712457311932"><ele>1291.0</ele><time>2026-05-02T12:30:40.999Z</time></trkpt><trkpt lat="46.10915536639498" lon="11.792679684347382"><ele>1291.0</ele><time>2026-05-02T12:30:41.999Z</time></trkpt><trkpt lat="46.109225590951525" lon="11.7926307325074"><ele>1291.0</ele><time>2026-05-02T12:30:42.999Z</time></trkpt><trkpt lat="46.109298123864875" lon="11.792571772253595"><ele>1286.8333333333333</ele><time>2026-05-02T12:30:43.999Z</time></trkpt><trkpt lat="46.109343465783304" lon="11.792500827956749"><ele>1282.6666666666665</ele><time>2026-05-02T12:30:44.999Z</time></trkpt><trkpt lat="46.1094091697639" lon="11.792456919327739"><ele>1278.5</ele><time>2026-05-02T12:30:45.999Z</time></trkpt><trkpt lat="46.10945796991719" lon="11.792392719632211"><ele>1274.3333333333333</ele><time>2026-05-02T12:30:46.999Z</time></trkpt><trkpt lat="46.10955004372393" lon="11.792345990713546"><ele>1270.1666666666667</ele><time>2026-05-02T12:30:48.999Z</time></trkpt><trkpt lat="46.10966863769765" lon="11.792306161743593"><ele>1266.0</ele><time>2026-05-02T12:30:50.999Z</time></trkpt><trkpt lat="46.109734214909174" lon="11.792315084621057"><ele>1266.0</ele><time>2026-05-02T12:30:51.999Z</time></trkpt><trkpt lat="46.10979648885837" lon="11.792336993104827"><ele>1266.0</ele><time>2026-05-02T12:30:52.999Z</time></trkpt><trkpt lat="46.10992028329252" lon="11.79235578927572"><ele>1266.0</ele><time>2026-05-02T12:30:54.999Z</time></trkpt><trkpt lat="46.1099856079265" lon="11.792348165987384"><ele>1266.0</ele><time>2026-05-02T12:30:55.999Z</time></trkpt><trkpt lat="46.11004591033703" lon="11.792298774935357"><ele>1266.0</ele><time>2026-05-02T12:30:56.998Z</time></trkpt><trkpt lat="46.11013055260264" lon="11.792243280150407"><ele>1266.0</ele><time>2026-05-02T12:30:58.998Z</time></trkpt><trkpt lat="46.11023558140355" lon="11.792232780616335"><ele>1265.5</ele><time>2026-05-02T12:31:00.998Z</time></trkpt><trkpt lat="46.11034478920276" lon="11.79224369302492"><ele>1265.0</ele><time>2026-05-02T12:31:02.998Z</time></trkpt><trkpt lat="46.11041415707325" lon="11.792271375898299"><ele>1264.5</ele><time>2026-05-02T12:31:03.998Z</time></trkpt><trkpt lat="46.11048455883534" lon="11.79230503919001"><ele>1264.0</ele><time>2026-05-02T12:31:04.998Z</time></trkpt><trkpt lat="46.110550525610044" lon="11.79233723381133"><ele>1263.5</ele><time>2026-05-02T12:31:05.998Z</time></trkpt><trkpt lat="46.1106568352357" lon="11.792395449277112"><ele>1263.0</ele><time>2026-05-02T12:31:07.998Z</time></trkpt><trkpt lat="46.110725744179895" lon="11.792409240505174"><ele>1262.5</ele><time>2026-05-02T12:31:08.998Z</time></trkpt><trkpt lat="46.11078319220019" lon="11.792466230388877"><ele>1262.0</ele><time>2026-05-02T12:31:09.998Z</time></trkpt><trkpt lat="46.110864553774746" lon="11.792512637396474"><ele>1261.5</ele><time>2026-05-02T12:31:10.998Z</time></trkpt><trkpt lat="46.11094265628164" lon="11.792535132883916"><ele>1261.0</ele><time>2026-05-02T12:31:11.998Z</time></trkpt><trkpt lat="46.11102262889229" lon="11.79256718721303"><ele>1260.5</ele><time>2026-05-02T12:31:12.998Z</time></trkpt><trkpt lat="46.11109435986177" lon="11.792558821012785"><ele>1260.0</ele><time>2026-05-02T12:31:13.998Z</time></trkpt><trkpt lat="46.111174373200356" lon="11.79253559497485"><ele>1260.0</ele><time>2026-05-02T12:31:14.998Z</time></trkpt><trkpt lat="46.11123625252903" lon="11.792507939120004"><ele>1260.0</ele><time>2026-05-02T12:31:15.998Z</time></trkpt><trkpt lat="46.11131424213953" lon="11.792464304128755"><ele>1260.0</ele><time>2026-05-02T12:31:16.998Z</time></trkpt><trkpt lat="46.11142332597906" lon="11.792388111770054"><ele>1260.0</ele><time>2026-05-02T12:31:18.998Z</time></trkpt><trkpt lat="46.111487281101994" lon="11.792341146562105"><ele>1260.0</ele><time>2026-05-02T12:31:19.998Z</time></trkpt><trkpt lat="46.111548093090455" lon="11.79230657270551"><ele>1260.0</ele><time>2026-05-02T12:31:20.998Z</time></trkpt><trkpt lat="46.11160568064116" lon="11.792253173250316"><ele>1263.0</ele><time>2026-05-02T12:31:21.998Z</time></trkpt><trkpt lat="46.11170753998321" lon="11.792139704656464"><ele>1266.0</ele><time>2026-05-02T12:31:24Z</time></trkpt><trkpt lat="46.11174395111405" lon="11.792032740909264"><ele>1269.0</ele><time>2026-05-02T12:31:25Z</time></trkpt><trkpt lat="46.111771074460286" lon="11.79193990110243"><ele>1272.0</ele><time>2026-05-02T12:31:26Z</time></trkpt><trkpt lat="46.11177999542749" lon="11.791825342575395"><ele>1275.0</ele><time>2026-05-02T12:31:27Z</time></trkpt><trkpt lat="46.11177941958134" lon="11.791675006383842"><ele>1269.8333333333333</ele><time>2026-05-02T12:31:29Z</time></trkpt><trkpt lat="46.111816316988154" lon="11.791560938139465"><ele>1264.6666666666667</ele><time>2026-05-02T12:31:31Z</time></trkpt><trkpt lat="46.11189616148974" lon="11.791522029475031"><ele>1259.5</ele><time>2026-05-02T12:31:33Z</time></trkpt><trkpt lat="46.11200940169835" lon="11.79146681539071"><ele>1254.3333333333335</ele><time>2026-05-02T12:31:35Z</time></trkpt><trkpt lat="46.11206312725517" lon="11.791394928043324"><ele>1249.1666666666667</ele><time>2026-05-02T12:31:36Z</time></trkpt><trkpt lat="46.112118213191486" lon="11.7913336764983"><ele>1244.0</ele><time>2026-05-02T12:31:37Z</time></trkpt><trkpt lat="46.11218017456948" lon="11.791252892846494"><ele>1244.0</ele><time>2026-05-02T12:31:38Z</time></trkpt><trkpt lat="46.11225946537993" lon="11.79119878204137"><ele>1244.0</ele><time>2026-05-02T12:31:40Z</time></trkpt><trkpt lat="46.112340040346794" lon="11.791210908786947"><ele>1244.0</ele><time>2026-05-02T12:31:42Z</time></trkpt><trkpt lat="46.11247768141497" lon="11.791242488122801"><ele>1244.0</ele><time>2026-05-02T12:31:44Z</time></trkpt><trkpt lat="46.11253586715988" lon="11.791300829607644"><ele>1244.0</ele><time>2026-05-02T12:31:45Z</time></trkpt><trkpt lat="46.11259525541219" lon="11.791369294663644"><ele>1247.6666666666667</ele><time>2026-05-02T12:31:46Z</time></trkpt><trkpt lat="46.11265033587565" lon="11.79145801098389"><ele>1251.3333333333335</ele><time>2026-05-02T12:31:47Z</time></trkpt><trkpt lat="46.11272058792702" lon="11.79154432772728"><ele>1255.0</ele><time>2026-05-02T12:31:48Z</time></trkpt><trkpt lat="46.11279452957698" lon="11.791609904901387"><ele>1258.6666666666667</ele><time>2026-05-02T12:31:50Z</time></trkpt><trkpt lat="46.11284639553262" lon="11.79168248073356"><ele>1262.3333333333333</ele><time>2026-05-02T12:31:51Z</time></trkpt><trkpt lat="46.112896028796726" lon="11.791761409208462"><ele>1266.0</ele><time>2026-05-02T12:31:52Z</time></trkpt><trkpt lat="46.11294261983463" lon="11.791841111501304"><ele>1270.6666666666667</ele><time>2026-05-02T12:31:53Z</time></trkpt><trkpt lat="46.112990487908284" lon="11.791926595430557"><ele>1275.3333333333333</ele><time>2026-05-02T12:31:54Z</time></trkpt><trkpt lat="46.113043282290406" lon="11.791990502848245"><ele>1280.0</ele><time>2026-05-02T12:31:55Z</time></trkpt><trkpt lat="46.11310139728428" lon="11.792047245630247"><ele>1284.6666666666665</ele><time>2026-05-02T12:31:56Z</time></trkpt><trkpt lat="46.11316017355496" lon="11.792137850482687"><ele>1289.3333333333333</ele><time>2026-05-02T12:31:57Z</time></trkpt><trkpt lat="46.11325868746269" lon="11.792195949748624"><ele>1294.0</ele><time>2026-05-02T12:31:59Z</time></trkpt><trkpt lat="46.11336104419518" lon="11.792164379258457"><ele>1294.0</ele><time>2026-05-02T12:32:01Z</time></trkpt><trkpt lat="46.1134473245657" lon="11.792081941610727"><ele>1294.0</ele><time>2026-05-02T12:32:03Z</time></trkpt><trkpt lat="46.113545309556045" lon="11.792063951236749"><ele>1294.0</ele><time>2026-05-02T12:32:05Z</time></trkpt><trkpt lat="46.11363844390402" lon="11.792147789330967"><ele>1294.0</ele><time>2026-05-02T12:32:06.999Z</time></trkpt><trkpt lat="46.11368330310424" lon="11.79222010302935"><ele>1294.0</ele><time>2026-05-02T12:32:07.999Z</time></trkpt><trkpt lat="46.11380406946634" lon="11.792294917126867"><ele>1294.0</ele><time>2026-05-02T12:32:09.999Z</time></trkpt><trkpt lat="46.11387377393681" lon="11.792309869178835"><ele>1294.0</ele><time>2026-05-02T12:32:10.999Z</time></trkpt><trkpt lat="46.113941691948106" lon="11.792302696967914"><ele>1294.0</ele><time>2026-05-02T12:32:11.999Z</time></trkpt><trkpt lat="46.11402162352867" lon="11.792204686368475"><ele>1294.0</ele><time>2026-05-02T12:32:13.999Z</time></trkpt><trkpt lat="46.114091713494716" lon="11.792079928315342"><ele>1294.0</ele><time>2026-05-02T12:32:15.999Z</time></trkpt><trkpt lat="46.114160844289565" lon="11.791912785612801"><ele>1292.1666666666665</ele><time>2026-05-02T12:32:17.999Z</time></trkpt><trkpt lat="46.11421205410334" lon="11.791829221630124"><ele>1290.3333333333333</ele><time>2026-05-02T12:32:21.999Z</time></trkpt><trkpt lat="46.114169995366325" lon="11.791741587013346"><ele>1288.5</ele><time>2026-05-02T12:32:22.999Z</time></trkpt><trkpt lat="46.11413613567748" lon="11.791648506516415"><ele>1286.6666666666667</ele><time>2026-05-02T12:32:23.999Z</time></trkpt><trkpt lat="46.11408898053338" lon="11.79157920085986"><ele>1284.8333333333335</ele><time>2026-05-02T12:32:24.999Z</time></trkpt><trkpt lat="46.11403776935892" lon="11.79150393461512"><ele>1283.0</ele><time>2026-05-02T12:32:25.999Z</time></trkpt><trkpt lat="46.114021401429106" lon="11.79133587994424"><ele>1281.0</ele><time>2026-05-02T12:32:27.999Z</time></trkpt><trkpt lat="46.11402595181308" lon="11.791232041981182"><ele>1279.0</ele><time>2026-05-02T12:32:28.999Z</time></trkpt><trkpt lat="46.11402991903654" lon="11.79109117272674"><ele>1277.0</ele><time>2026-05-02T12:32:30.999Z</time></trkpt><trkpt lat="46.114060726650315" lon="11.790965186328656"><ele>1275.0</ele><time>2026-05-02T12:32:32.999Z</time></trkpt><trkpt lat="46.11411825991095" lon="11.790927758497942"><ele>1273.0</ele><time>2026-05-02T12:32:33.999Z</time></trkpt><trkpt lat="46.114214316131665" lon="11.79085871117072"><ele>1271.0</ele><time>2026-05-02T12:32:35.999Z</time></trkpt><trkpt lat="46.11429126935641" lon="11.790796136906414"><ele>1271.0</ele><time>2026-05-02T12:32:37.999Z</time></trkpt><trkpt lat="46.11432898172308" lon="11.790703459880161"><ele>1271.0</ele><time>2026-05-02T12:32:38.999Z</time></trkpt><trkpt lat="46.11438463464671" lon="11.790633563886743"><ele>1271.0</ele><time>2026-05-02T12:32:39.999Z</time></trkpt><trkpt lat="46.114418629865185" lon="11.790534052593696"><ele>1271.0</ele><time>2026-05-02T12:32:40.999Z</time></trkpt><trkpt lat="46.11444291211784" lon="11.790347349406858"><ele>1271.0</ele><time>2026-05-02T12:32:42.999Z</time></trkpt><trkpt lat="46.11442435152892" lon="11.790156363040676"><ele>1270.6666666666667</ele><time>2026-05-02T12:32:44.999Z</time></trkpt><trkpt lat="46.114411485685956" lon="11.790066213173487"><ele>1270.3333333333335</ele><time>2026-05-02T12:32:45.999Z</time></trkpt><trkpt lat="46.11435998031124" lon="11.789981301996214"><ele>1270.0</ele><time>2026-05-02T12:32:46.999Z</time></trkpt><trkpt lat="46.114321347144525" lon="11.78990077906146"><ele>1269.6666666666667</ele><time>2026-05-02T12:32:47.999Z</time></trkpt><trkpt lat="46.11427143192326" lon="11.789841316816062"><ele>1269.3333333333333</ele><time>2026-05-02T12:32:48.999Z</time></trkpt><trkpt lat="46.114207674731496" lon="11.789715808231685"><ele>1269.0</ele><time>2026-05-02T12:32:50.999Z</time></trkpt><trkpt lat="46.114176050844996" lon="11.789598526771274"><ele>1269.0</ele><time>2026-05-02T12:32:52.999Z</time></trkpt><trkpt lat="46.11422850801805" lon="11.789477592944811"><ele>1269.0</ele><time>2026-05-02T12:32:54.999Z</time></trkpt><trkpt lat="46.11429560741929" lon="11.78938855508429"><ele>1269.0</ele><time>2026-05-02T12:32:56.999Z</time></trkpt><trkpt lat="46.11435015141651" lon="11.78932774760498"><ele>1269.0</ele><time>2026-05-02T12:32:57.999Z</time></trkpt><trkpt lat="46.114443040857594" lon="11.789266342759687"><ele>1269.0</ele><time>2026-05-02T12:32:59.999Z</time></trkpt><trkpt lat="46.11455324516453" lon="11.789194111584681"><ele>1267.4</ele><time>2026-05-02T12:33:01.999Z</time></trkpt><trkpt lat="46.114656398894844" lon="11.789124834242193"><ele>1265.8000000000002</ele><time>2026-05-02T12:33:03.999Z</time></trkpt><trkpt lat="46.114743823421655" lon="11.789021362181748"><ele>1264.1999999999998</ele><time>2026-05-02T12:33:05.999Z</time></trkpt><trkpt lat="46.11474838121461" lon="11.788895922422219"><ele>1262.6</ele><time>2026-05-02T12:33:06.999Z</time></trkpt><trkpt lat="46.11480031961049" lon="11.788731597303059"><ele>1261.0</ele><time>2026-05-02T12:33:08.999Z</time></trkpt><trkpt lat="46.11483994648906" lon="11.788576575938462"><ele>1259.5</ele><time>2026-05-02T12:33:10.999Z</time></trkpt><trkpt lat="46.114863707363625" lon="11.788418412760663"><ele>1258.0</ele><time>2026-05-02T12:33:12.999Z</time></trkpt><trkpt lat="46.11490032079935" lon="11.788335775028244"><ele>1256.5</ele><time>2026-05-02T12:33:13.999Z</time></trkpt><trkpt lat="46.11491364339593" lon="11.788240084809944"><ele>1255.0</ele><time>2026-05-02T12:33:14.999Z</time></trkpt><trkpt lat="46.1149247400308" lon="11.788148578512642"><ele>1253.5</ele><time>2026-05-02T12:33:15.999Z</time></trkpt><trkpt lat="46.1149269753265" lon="11.787969722050232"><ele>1252.0</ele><time>2026-05-02T12:33:17.999Z</time></trkpt><trkpt lat="46.11489864159067" lon="11.787870143674585"><ele>1252.0</ele><time>2026-05-02T12:33:18.998Z</time></trkpt><trkpt lat="46.11488427380981" lon="11.787778849866873"><ele>1252.0</ele><time>2026-05-02T12:33:19.998Z</time></trkpt><trkpt lat="46.11483910049825" lon="11.787688469531878"><ele>1252.0</ele><time>2026-05-02T12:33:20.998Z</time></trkpt><trkpt lat="46.1147931455663" lon="11.787528492554802"><ele>1252.0</ele><time>2026-05-02T12:33:22.998Z</time></trkpt><trkpt lat="46.11476014180222" lon="11.78744597247061"><ele>1252.0</ele><time>2026-05-02T12:33:23.998Z</time></trkpt><trkpt lat="46.11478232054364" lon="11.787325768499734"><ele>1252.0</ele><time>2026-05-02T12:33:25.998Z</time></trkpt><trkpt lat="46.11481884443936" lon="11.787238115029853"><ele>1253.6</ele><time>2026-05-02T12:33:27.998Z</time></trkpt><trkpt lat="46.11488113777465" lon="11.787161555679615"><ele>1255.2</ele><time>2026-05-02T12:33:30Z</time></trkpt><trkpt lat="46.11497059650358" lon="11.787100397684966"><ele>1256.8</ele><time>2026-05-02T12:33:32Z</time></trkpt><trkpt lat="46.11506679603519" lon="11.787069351751544"><ele>1258.4</ele><time>2026-05-02T12:33:34Z</time></trkpt><trkpt lat="46.11519192980249" lon="11.787056699676583"><ele>1260.0</ele><time>2026-05-02T12:33:36Z</time></trkpt><trkpt lat="46.11530587648898" lon="11.787061263254264"><ele>1267.5</ele><time>2026-05-02T12:33:38Z</time></trkpt><trkpt lat="46.11540485295443" lon="11.787080378843147"><ele>1275.0</ele><time>2026-05-02T12:33:40Z</time></trkpt><trkpt lat="46.1155356806336" lon="11.787119140786947"><ele>1282.5</ele><time>2026-05-02T12:33:42Z</time></trkpt><trkpt lat="46.115653839431765" lon="11.787132109761513"><ele>1290.0</ele><time>2026-05-02T12:33:44Z</time></trkpt><trkpt lat="46.11576053274616" lon="11.78710759458623"><ele>1296.4</ele><time>2026-05-02T12:33:46Z</time></trkpt><trkpt lat="46.11582438313653" lon="11.78707600412321"><ele>1302.8</ele><time>2026-05-02T12:33:47Z</time></trkpt><trkpt lat="46.115934176876" lon="11.78701818829952"><ele>1309.1999999999998</ele><time>2026-05-02T12:33:49Z</time></trkpt><trkpt lat="46.11604557841583" lon="11.786979861905262"><ele>1315.6</ele><time>2026-05-02T12:33:51Z</time></trkpt><trkpt lat="46.11615132811762" lon="11.786951691078624"><ele>1322.0</ele><time>2026-05-02T12:33:53Z</time></trkpt><trkpt lat="46.11626473152247" lon="11.786935786802983"><ele>1322.0</ele><time>2026-05-02T12:33:55Z</time></trkpt><trkpt lat="46.11635060987124" lon="11.786960937996637"><ele>1322.0</ele><time>2026-05-02T12:33:57Z</time></trkpt><trkpt lat="46.1164412352019" lon="11.787030594169003"><ele>1322.0</ele><time>2026-05-02T12:33:59Z</time></trkpt><trkpt lat="46.116507642989454" lon="11.787104695417028"><ele>1322.0</ele><time>2026-05-02T12:34:01Z</time></trkpt><trkpt lat="46.1165601878954" lon="11.787171604481776"><ele>1322.0</ele><time>2026-05-02T12:34:02Z</time></trkpt><trkpt lat="46.116662598518275" lon="11.787295293047737"><ele>1321.5</ele><time>2026-05-02T12:34:04Z</time></trkpt><trkpt lat="46.11671171705646" lon="11.787375719564679"><ele>1321.0</ele><time>2026-05-02T12:34:05Z</time></trkpt><trkpt lat="46.116759570907924" lon="11.787457248753446"><ele>1320.5</ele><time>2026-05-02T12:34:06Z</time></trkpt><trkpt lat="46.11679444344248" lon="11.787567897959827"><ele>1320.0</ele><time>2026-05-02T12:34:07Z</time></trkpt><trkpt lat="46.1168350312349" lon="11.787655726558194"><ele>1319.5</ele><time>2026-05-02T12:34:08Z</time></trkpt><trkpt lat="46.116874260797196" lon="11.787740416360416"><ele>1319.0</ele><time>2026-05-02T12:34:09Z</time></trkpt><trkpt lat="46.11696268710774" lon="11.787874166231642"><ele>1325.6666666666667</ele><time>2026-05-02T12:34:11Z</time></trkpt><trkpt lat="46.11698970411236" lon="11.787965771941593"><ele>1332.3333333333335</ele><time>2026-05-02T12:34:12Z</time></trkpt><trkpt lat="46.11705787140267" lon="11.788095536770069"><ele>1339.0</ele><time>2026-05-02T12:34:14Z</time></trkpt><trkpt lat="46.117100875294796" lon="11.78816289479127"><ele>1345.6666666666667</ele><time>2026-05-02T12:34:15Z</time></trkpt><trkpt lat="46.11714780995264" lon="11.788224274689632"><ele>1352.3333333333333</ele><time>2026-05-02T12:34:16Z</time></trkpt><trkpt lat="46.11720735521714" lon="11.788262144365074"><ele>1359.0</ele><time>2026-05-02T12:34:17Z</time></trkpt><trkpt lat="46.117312220270655" lon="11.788261330485328"><ele>1355.8000000000002</ele><time>2026-05-02T12:34:19Z</time></trkpt><trkpt lat="46.11742860110726" lon="11.7882193940908"><ele>1352.6000000000001</ele><time>2026-05-02T12:34:21Z</time></trkpt><trkpt lat="46.117496025307645" lon="11.78819407676162"><ele>1349.4</ele><time>2026-05-02T12:34:22Z</time></trkpt><trkpt lat="46.11760893599971" lon="11.788136786188689"><ele>1346.2</ele><time>2026-05-02T12:34:24Z</time></trkpt><trkpt lat="46.11771047456561" lon="11.788075560724257"><ele>1343.0</ele><time>2026-05-02T12:34:25.999Z</time></trkpt><trkpt lat="46.11777163766544" lon="11.788037035492234"><ele>1343.0</ele><time>2026-05-02T12:34:26.999Z</time></trkpt><trkpt lat="46.1178323026414" lon="11.788000865595617"><ele>1343.0</ele><time>2026-05-02T12:34:27.999Z</time></trkpt><trkpt lat="46.117896371807305" lon="11.787963776296477"><ele>1343.0</ele><time>2026-05-02T12:34:28.999Z</time></trkpt><trkpt lat="46.11796003493258" lon="11.787926136002534"><ele>1343.0</ele><time>2026-05-02T12:34:29.999Z</time></trkpt><trkpt lat="46.11801961692232" lon="11.787894029371506"><ele>1343.0</ele><time>2026-05-02T12:34:30.999Z</time></trkpt><trkpt lat="46.118104096408835" lon="11.787858572931343"><ele>1343.0</ele><time>2026-05-02T12:34:32.999Z</time></trkpt><trkpt lat="46.11818076202624" lon="11.787828881514217"><ele>1343.0</ele><time>2026-05-02T12:34:33.999Z</time></trkpt><trkpt lat="46.11825349212557" lon="11.787802697718421"><ele>1343.0</ele><time>2026-05-02T12:34:34.999Z</time></trkpt><trkpt lat="46.11832092665029" lon="11.787782673812222"><ele>1343.0</ele><time>2026-05-02T12:34:35.999Z</time></trkpt><trkpt lat="46.118432003136036" lon="11.787766592943465"><ele>1343.0</ele><time>2026-05-02T12:34:37.999Z</time></trkpt><trkpt lat="46.11850604128933" lon="11.78778558537221"><ele>1343.0</ele><time>2026-05-02T12:34:38.999Z</time></trkpt><trkpt lat="46.118566851544934" lon="11.787816591562857"><ele>1343.0</ele><time>2026-05-02T12:34:39.999Z</time></trkpt><trkpt lat="46.11863457944384" lon="11.787874158456981"><ele>1343.0</ele><time>2026-05-02T12:34:40.999Z</time></trkpt><trkpt lat="46.118691413155844" lon="11.787933948553464"><ele>1343.0</ele><time>2026-05-02T12:34:41.999Z</time></trkpt><trkpt lat="46.1187583231646" lon="11.787999763158425"><ele>1343.0</ele><time>2026-05-02T12:34:42.999Z</time></trkpt><trkpt lat="46.11884198885011" lon="11.788077367241263"><ele>1343.0</ele><time>2026-05-02T12:34:43.999Z</time></trkpt><trkpt lat="46.11892753549602" lon="11.788180945916313"><ele>1343.0</ele><time>2026-05-02T12:34:44.999Z</time></trkpt><trkpt lat="46.1190035963961" lon="11.78827500316393"><ele>1343.0</ele><time>2026-05-02T12:34:45.999Z</time></trkpt><trkpt lat="46.119084121834206" lon="11.788347941111489"><ele>1344.6000000000001</ele><time>2026-05-02T12:34:46.999Z</time></trkpt><trkpt lat="46.11916025001764" lon="11.788409992627576"><ele>1346.2</ele><time>2026-05-02T12:34:47.999Z</time></trkpt><trkpt lat="46.11924304962549" lon="11.78848077753306"><ele>1347.8</ele><time>2026-05-02T12:34:48.999Z</time></trkpt><trkpt lat="46.11932741092687" lon="11.7885398831828"><ele>1349.4</ele><time>2026-05-02T12:34:49.999Z</time></trkpt><trkpt lat="46.119405722687134" lon="11.788597187333787"><ele>1351.0</ele><time>2026-05-02T12:34:50.999Z</time></trkpt><trkpt lat="46.11947008206675" lon="11.788676517221624"><ele>1351.0</ele><time>2026-05-02T12:34:51.999Z</time></trkpt><trkpt lat="46.11953927542393" lon="11.788742543714747"><ele>1351.0</ele><time>2026-05-02T12:34:52.999Z</time></trkpt><trkpt lat="46.11961242289598" lon="11.788796086922938"><ele>1351.0</ele><time>2026-05-02T12:34:53.999Z</time></trkpt><trkpt lat="46.11966805653207" lon="11.788889317249037"><ele>1351.0</ele><time>2026-05-02T12:34:54.999Z</time></trkpt><trkpt lat="46.119732568916405" lon="11.788972850983756"><ele>1351.0</ele><time>2026-05-02T12:34:55.999Z</time></trkpt><trkpt lat="46.11979307270221" lon="11.789053521107503"><ele>1351.0</ele><time>2026-05-02T12:34:56.999Z</time></trkpt><trkpt lat="46.11984732836696" lon="11.789129706999965"><ele>1351.0</ele><time>2026-05-02T12:34:57.999Z</time></trkpt><trkpt lat="46.11990937378253" lon="11.789220467853442"><ele>1351.0</ele><time>2026-05-02T12:34:58.999Z</time></trkpt><trkpt lat="46.11996697543846" lon="11.789309747591394"><ele>1351.0</ele><time>2026-05-02T12:34:59.999Z</time></trkpt><trkpt lat="46.120027570138376" lon="11.789409704226488"><ele>1351.0</ele><time>2026-05-02T12:35:00.999Z</time></trkpt><trkpt lat="46.12007842598379" lon="11.789521806613548"><ele>1351.0</ele><time>2026-05-02T12:35:01.999Z</time></trkpt><trkpt lat="46.1201184528376" lon="11.789609691262692"><ele>1351.0</ele><time>2026-05-02T12:35:02.999Z</time></trkpt><trkpt lat="46.1201567434758" lon="11.789698315539464"><ele>1351.0</ele><time>2026-05-02T12:35:03.999Z</time></trkpt><trkpt lat="46.12020336025653" lon="11.789807191233372"><ele>1351.0</ele><time>2026-05-02T12:35:04.999Z</time></trkpt><trkpt lat="46.120247784529894" lon="11.789907539932855"><ele>1351.0</ele><time>2026-05-02T12:35:05.999Z</time></trkpt><trkpt lat="46.12030633172192" lon="11.790001656002055"><ele>1351.0</ele><time>2026-05-02T12:35:06.999Z</time></trkpt><trkpt lat="46.12035589185932" lon="11.790087972332646"><ele>1351.0</ele><time>2026-05-02T12:35:07.999Z</time></trkpt><trkpt lat="46.1204291786473" lon="11.790150447910579"><ele>1351.0</ele><time>2026-05-02T12:35:08.999Z</time></trkpt><trkpt lat="46.12049467624128" lon="11.790226475559383"><ele>1350.0</ele><time>2026-05-02T12:35:09.999Z</time></trkpt><trkpt lat="46.12057004399881" lon="11.790315357989282"><ele>1349.0</ele><time>2026-05-02T12:35:10.999Z</time></trkpt><trkpt lat="46.12063940216651" lon="11.790381847637459"><ele>1348.0</ele><time>2026-05-02T12:35:11.999Z</time></trkpt><trkpt lat="46.1207169669646" lon="11.790458917455982"><ele>1347.0</ele><time>2026-05-02T12:35:12.999Z</time></trkpt><trkpt lat="46.120778630537416" lon="11.790508276999397"><ele>1346.0</ele><time>2026-05-02T12:35:13.999Z</time></trkpt><trkpt lat="46.12084411576708" lon="11.790597718327968"><ele>1345.0</ele><time>2026-05-02T12:35:14.999Z</time></trkpt><trkpt lat="46.12090428789195" lon="11.790674685392762"><ele>1345.0</ele><time>2026-05-02T12:35:15.999Z</time></trkpt><trkpt lat="46.12095323285967" lon="11.790778897719871"><ele>1345.0</ele><time>2026-05-02T12:35:16.999Z</time></trkpt><trkpt lat="46.12099535481643" lon="11.790893910892137"><ele>1345.0</ele><time>2026-05-02T12:35:17.999Z</time></trkpt><trkpt lat="46.12102924966902" lon="11.791013070804187"><ele>1345.0</ele><time>2026-05-02T12:35:18.999Z</time></trkpt><trkpt lat="46.12107133262118" lon="11.791125202695625"><ele>1345.0</ele><time>2026-05-02T12:35:19.999Z</time></trkpt><trkpt lat="46.12110432894925" lon="11.791240535156929"><ele>1345.0</ele><time>2026-05-02T12:35:20.999Z</time></trkpt><trkpt lat="46.12113931662176" lon="11.79135353017768"><ele>1349.0</ele><time>2026-05-02T12:35:21.999Z</time></trkpt><trkpt lat="46.121163160017524" lon="11.79150143714493"><ele>1353.0</ele><time>2026-05-02T12:35:22.999Z</time></trkpt><trkpt lat="46.121186752469335" lon="11.79164565773711"><ele>1357.0</ele><time>2026-05-02T12:35:23.999Z</time></trkpt><trkpt lat="46.12118705789425" lon="11.791786751664908"><ele>1361.0</ele><time>2026-05-02T12:35:24.999Z</time></trkpt><trkpt lat="46.1211981440328" lon="11.791900842410682"><ele>1365.0</ele><time>2026-05-02T12:35:25.999Z</time></trkpt><trkpt lat="46.12120748773212" lon="11.792027517369538"><ele>1364.8</ele><time>2026-05-02T12:35:26.999Z</time></trkpt><trkpt lat="46.121220865978955" lon="11.792174491757418"><ele>1364.6</ele><time>2026-05-02T12:35:27.999Z</time></trkpt><trkpt lat="46.12123010852503" lon="11.792306789205446"><ele>1364.4</ele><time>2026-05-02T12:35:28.999Z</time></trkpt><trkpt lat="46.121234614073735" lon="11.79242198966543"><ele>1364.2</ele><time>2026-05-02T12:35:29.999Z</time></trkpt><trkpt lat="46.12122852922451" lon="11.792545892972374"><ele>1364.0</ele><time>2026-05-02T12:35:30.999Z</time></trkpt><trkpt lat="46.12122570326697" lon="11.792685056089722"><ele>1364.0</ele><time>2026-05-02T12:35:31.998Z</time></trkpt><trkpt lat="46.12122094162397" lon="11.792820012233292"><ele>1364.0</ele><time>2026-05-02T12:35:32.998Z</time></trkpt><trkpt lat="46.121230016226434" lon="11.792955329748278"><ele>1364.0</ele><time>2026-05-02T12:35:33.998Z</time></trkpt><trkpt lat="46.1212192280497" lon="11.79310055560971"><ele>1364.0</ele><time>2026-05-02T12:35:34.998Z</time></trkpt><trkpt lat="46.1212147829801" lon="11.793243642841322"><ele>1364.0</ele><time>2026-05-02T12:35:36Z</time></trkpt><trkpt lat="46.12120552972642" lon="11.793383731797984"><ele>1364.0</ele><time>2026-05-02T12:35:37Z</time></trkpt><trkpt lat="46.121195637110716" lon="11.793504291241128"><ele>1364.0</ele><time>2026-05-02T12:35:38Z</time></trkpt><trkpt lat="46.12118085296848" lon="11.793603387201426"><ele>1364.0</ele><time>2026-05-02T12:35:39Z</time></trkpt><trkpt lat="46.12117252358936" lon="11.793754688723281"><ele>1364.0</ele><time>2026-05-02T12:35:41Z</time></trkpt><trkpt lat="46.12116802098109" lon="11.793892517553951"><ele>1364.0</ele><time>2026-05-02T12:35:43Z</time></trkpt><trkpt lat="46.12115980096493" lon="11.793993167977312"><ele>1364.0</ele><time>2026-05-02T12:35:44Z</time></trkpt><trkpt lat="46.12118793841818" lon="11.794085065893409"><ele>1362.8333333333335</ele><time>2026-05-02T12:35:45Z</time></trkpt><trkpt lat="46.12124287698232" lon="11.794135911573438"><ele>1361.6666666666667</ele><time>2026-05-02T12:35:46Z</time></trkpt><trkpt lat="46.121282970556386" lon="11.79425489046806"><ele>1360.5</ele><time>2026-05-02T12:35:48Z</time></trkpt><trkpt lat="46.12131532029305" lon="11.794378466043161"><ele>1359.3333333333333</ele><time>2026-05-02T12:35:50Z</time></trkpt><trkpt lat="46.1213260162147" lon="11.794506586175258"><ele>1358.1666666666665</ele><time>2026-05-02T12:35:52Z</time></trkpt><trkpt lat="46.12134016564865" lon="11.794615624704058"><ele>1357.0</ele><time>2026-05-02T12:35:54Z</time></trkpt><trkpt lat="46.121353098989836" lon="11.794745353836532"><ele>1355.3333333333333</ele><time>2026-05-02T12:35:57Z</time></trkpt><trkpt lat="46.12135630322053" lon="11.794861678507667"><ele>1353.6666666666665</ele><time>2026-05-02T12:35:59Z</time></trkpt><trkpt lat="46.12137188732291" lon="11.794960899785812"><ele>1352.0</ele><time>2026-05-02T12:36:01Z</time></trkpt><trkpt lat="46.12139268519513" lon="11.79509331620495"><ele>1350.3333333333333</ele><time>2026-05-02T12:36:04Z</time></trkpt><trkpt lat="46.12141129981977" lon="11.795183825439288"><ele>1348.6666666666667</ele><time>2026-05-02T12:36:06Z</time></trkpt><trkpt lat="46.12137391681138" lon="11.795264501505786"><ele>1347.0</ele><time>2026-05-02T12:36:08Z</time></trkpt><trkpt lat="46.12137384548035" lon="11.795378580659653"><ele>1343.1999999999998</ele><time>2026-05-02T12:36:10Z</time></trkpt><trkpt lat="46.12138137866577" lon="11.795485571914009"><ele>1339.4</ele><time>2026-05-02T12:36:12Z</time></trkpt><trkpt lat="46.12138728810776" lon="11.795634334005365"><ele>1335.6</ele><time>2026-05-02T12:36:14Z</time></trkpt><trkpt lat="46.12139409356023" lon="11.795781143507906"><ele>1331.8000000000002</ele><time>2026-05-02T12:36:16Z</time></trkpt><trkpt lat="46.12140250932912" lon="11.795947998734064"><ele>1328.0</ele><time>2026-05-02T12:36:18Z</time></trkpt><trkpt lat="46.121401732106456" lon="11.79604978578209"><ele>1325.8000000000002</ele><time>2026-05-02T12:36:19Z</time></trkpt><trkpt lat="46.12139904197374" lon="11.796148080342695"><ele>1323.6</ele><time>2026-05-02T12:36:20Z</time></trkpt><trkpt lat="46.121393042439436" lon="11.796317257737883"><ele>1321.4</ele><time>2026-05-02T12:36:22Z</time></trkpt><trkpt lat="46.12139994052734" lon="11.796490164702155"><ele>1319.1999999999998</ele><time>2026-05-02T12:36:24Z</time></trkpt><trkpt lat="46.121401467243096" lon="11.796631689210177"><ele>1317.0</ele><time>2026-05-02T12:36:26Z</time></trkpt><trkpt lat="46.12141300930843" lon="11.796796072676239"><ele>1315.5</ele><time>2026-05-02T12:36:28Z</time></trkpt><trkpt lat="46.12142868731243" lon="11.79697085690217"><ele>1314.0</ele><time>2026-05-02T12:36:29.999Z</time></trkpt><trkpt lat="46.12146752947969" lon="11.797068779642185"><ele>1312.5</ele><time>2026-05-02T12:36:30.999Z</time></trkpt><trkpt lat="46.12147716379633" lon="11.797175538616791"><ele>1311.0</ele><time>2026-05-02T12:36:31.999Z</time></trkpt><trkpt lat="46.121500071585764" lon="11.797273506759124"><ele>1309.5</ele><time>2026-05-02T12:36:32.999Z</time></trkpt><trkpt lat="46.1215230281696" lon="11.797364669647186"><ele>1308.0</ele><time>2026-05-02T12:36:33.999Z</time></trkpt><trkpt lat="46.12155832415706" lon="11.797444459563621"><ele>1307.8333333333333</ele><time>2026-05-02T12:36:34.999Z</time></trkpt><trkpt lat="46.12158918699706" lon="11.797597474332362"><ele>1307.6666666666667</ele><time>2026-05-02T12:36:36.999Z</time></trkpt><trkpt lat="46.12163256405458" lon="11.797744369031655"><ele>1307.5</ele><time>2026-05-02T12:36:38.999Z</time></trkpt><trkpt lat="46.12166230645574" lon="11.79783228254022"><ele>1307.3333333333335</ele><time>2026-05-02T12:36:39.999Z</time></trkpt><trkpt lat="46.12170555950873" lon="11.797926344409692"><ele>1307.1666666666667</ele><time>2026-05-02T12:36:40.999Z</time></trkpt><trkpt lat="46.12172368931801" lon="11.798015708175607"><ele>1307.0</ele><time>2026-05-02T12:36:41.999Z</time></trkpt><trkpt lat="46.12179267067355" lon="11.798129755160321"><ele>1307.0</ele><time>2026-05-02T12:36:43.999Z</time></trkpt><trkpt lat="46.12182863468827" lon="11.798222735720184"><ele>1307.0</ele><time>2026-05-02T12:36:44.999Z</time></trkpt><trkpt lat="46.121872725804494" lon="11.798299376000815"><ele>1307.0</ele><time>2026-05-02T12:36:45.999Z</time></trkpt><trkpt lat="46.121928658820195" lon="11.79838059448026"><ele>1307.0</ele><time>2026-05-02T12:36:46.999Z</time></trkpt><trkpt lat="46.12196809384374" lon="11.798464470328318"><ele>1307.0</ele><time>2026-05-02T12:36:47.999Z</time></trkpt><trkpt lat="46.122016959397655" lon="11.798527722883922"><ele>1307.0</ele><time>2026-05-02T12:36:48.999Z</time></trkpt><trkpt lat="46.12207407522941" lon="11.79860452256935"><ele>1307.0</ele><time>2026-05-02T12:36:49.999Z</time></trkpt><trkpt lat="46.12215564653074" lon="11.798711867153086"><ele>1308.0</ele><time>2026-05-02T12:36:51.999Z</time></trkpt><trkpt lat="46.12223360740958" lon="11.798794290139853"><ele>1309.0</ele><time>2026-05-02T12:36:53.999Z</time></trkpt><trkpt lat="46.122324179599836" lon="11.798858356803652"><ele>1310.0</ele><time>2026-05-02T12:36:55.999Z</time></trkpt><trkpt lat="46.122405273481355" lon="11.798911226384677"><ele>1311.0</ele><time>2026-05-02T12:36:58.999Z</time></trkpt><trkpt lat="46.12246387734251" lon="11.798949433547499"><ele>1312.0</ele><time>2026-05-02T12:37:00.999Z</time></trkpt><trkpt lat="46.12255493886026" lon="11.799007023092084"><ele>1312.8333333333333</ele><time>2026-05-02T12:37:03.999Z</time></trkpt><trkpt lat="46.122614409890545" lon="11.799043393023936"><ele>1313.6666666666665</ele><time>2026-05-02T12:37:05.999Z</time></trkpt><trkpt lat="46.12269221214181" lon="11.799070869125305"><ele>1314.5</ele><time>2026-05-02T12:37:07.999Z</time></trkpt><trkpt lat="46.122773144668145" lon="11.799123105258852"><ele>1315.3333333333333</ele><time>2026-05-02T12:37:09.999Z</time></trkpt><trkpt lat="46.12284938552374" lon="11.799172253600785"><ele>1316.1666666666667</ele><time>2026-05-02T12:37:11.999Z</time></trkpt><trkpt lat="46.12292832154359" lon="11.799215283889348"><ele>1317.0</ele><time>2026-05-02T12:37:13.999Z</time></trkpt><trkpt lat="46.1230098494223" lon="11.799259336913806"><ele>1315.6</ele><time>2026-05-02T12:37:15.999Z</time></trkpt><trkpt lat="46.12308828904647" lon="11.799354190705067"><ele>1314.1999999999998</ele><time>2026-05-02T12:37:17.999Z</time></trkpt><trkpt lat="46.12313089495708" lon="11.799474250545318"><ele>1312.8</ele><time>2026-05-02T12:37:19.999Z</time></trkpt><trkpt lat="46.1231540234561" lon="11.799615242477653"><ele>1311.4</ele><time>2026-05-02T12:37:21.999Z</time></trkpt><trkpt lat="46.12317659775171" lon="11.799791462735408"><ele>1310.0</ele><time>2026-05-02T12:37:23.999Z</time></trkpt><trkpt lat="46.12319117154732" lon="11.799897831747854"><ele>1310.0</ele><time>2026-05-02T12:37:24.999Z</time></trkpt><trkpt lat="46.123212426543965" lon="11.800064524454054"><ele>1310.0</ele><time>2026-05-02T12:37:26.999Z</time></trkpt><trkpt lat="46.12324252447264" lon="11.800231359114301"><ele>1310.0</ele><time>2026-05-02T12:37:28.999Z</time></trkpt><trkpt lat="46.12325221470787" lon="11.80032150990231"><ele>1310.0</ele><time>2026-05-02T12:37:29.999Z</time></trkpt><trkpt lat="46.123214074951065" lon="11.800492362048594"><ele>1310.0</ele><time>2026-05-02T12:37:31.998Z</time></trkpt><trkpt lat="46.12320331868667" lon="11.800585473946969"><ele>1308.0</ele><time>2026-05-02T12:37:32.998Z</time></trkpt><trkpt lat="46.123209961158246" lon="11.8006804652585"><ele>1306.0</ele><time>2026-05-02T12:37:33.998Z</time></trkpt><trkpt lat="46.12322400742912" lon="11.80085842385525"><ele>1304.0</ele><time>2026-05-02T12:37:35.998Z</time></trkpt><trkpt lat="46.12325828956721" lon="11.801007830930617"><ele>1302.0</ele><time>2026-05-02T12:37:37.998Z</time></trkpt><trkpt lat="46.12321259076218" lon="11.80113813705894"><ele>1300.0</ele><time>2026-05-02T12:37:39.998Z</time></trkpt><trkpt lat="46.12316212577667" lon="11.801197491350402"><ele>1298.3333333333333</ele><time>2026-05-02T12:37:40.998Z</time></trkpt><trkpt lat="46.12310031427171" lon="11.801261899585244"><ele>1296.6666666666665</ele><time>2026-05-02T12:37:42Z</time></trkpt><trkpt lat="46.12302754260779" lon="11.801301494363333"><ele>1295.0</ele><time>2026-05-02T12:37:43Z</time></trkpt><trkpt lat="46.12294726941078" lon="11.801342684299955"><ele>1293.3333333333333</ele><time>2026-05-02T12:37:44Z</time></trkpt><trkpt lat="46.1228738941184" lon="11.80137492527893"><ele>1291.6666666666667</ele><time>2026-05-02T12:37:45Z</time></trkpt><trkpt lat="46.122781794068366" lon="11.801394646855748"><ele>1290.0</ele><time>2026-05-02T12:37:46Z</time></trkpt><trkpt lat="46.12266859593288" lon="11.801413222679418"><ele>1290.0</ele><time>2026-05-02T12:37:47Z</time></trkpt><trkpt lat="46.122559568820826" lon="11.801448240228948"><ele>1290.0</ele><time>2026-05-02T12:37:48Z</time></trkpt><trkpt lat="46.122438916667946" lon="11.801516038914187"><ele>1290.0</ele><time>2026-05-02T12:37:49Z</time></trkpt><trkpt lat="46.12231935213871" lon="11.801578248979311"><ele>1290.0</ele><time>2026-05-02T12:37:50Z</time></trkpt><trkpt lat="46.122197497004464" lon="11.801649167375366"><ele>1290.8</ele><time>2026-05-02T12:37:51Z</time></trkpt><trkpt lat="46.122074998143425" lon="11.801727458354945"><ele>1291.6</ele><time>2026-05-02T12:37:52Z</time></trkpt><trkpt lat="46.121985450138254" lon="11.801775725820846"><ele>1292.4</ele><time>2026-05-02T12:37:53Z</time></trkpt><trkpt lat="46.121907959522346" lon="11.801828959767196"><ele>1293.2</ele><time>2026-05-02T12:37:54Z</time></trkpt><trkpt lat="46.121831100106164" lon="11.801877767338347"><ele>1294.0</ele><time>2026-05-02T12:37:55Z</time></trkpt><trkpt lat="46.121739918743046" lon="11.801932248438739"><ele>1294.0</ele><time>2026-05-02T12:37:56Z</time></trkpt><trkpt lat="46.12165884323096" lon="11.801983442265511"><ele>1294.0</ele><time>2026-05-02T12:37:57Z</time></trkpt><trkpt lat="46.12158612650893" lon="11.80202143399233"><ele>1294.0</ele><time>2026-05-02T12:37:58Z</time></trkpt><trkpt lat="46.12151966982132" lon="11.802075018025926"><ele>1294.0</ele><time>2026-05-02T12:37:59Z</time></trkpt><trkpt lat="46.12146330979098" lon="11.802151196523477"><ele>1294.0</ele><time>2026-05-02T12:38:00Z</time></trkpt><trkpt lat="46.121395230674096" lon="11.802271352005139"><ele>1294.0</ele><time>2026-05-02T12:38:01Z</time></trkpt><trkpt lat="46.12131309520339" lon="11.802409240400566"><ele>1296.6</ele><time>2026-05-02T12:38:02Z</time></trkpt><trkpt lat="46.12123033534867" lon="11.802528193726104"><ele>1299.2</ele><time>2026-05-02T12:38:03Z</time></trkpt><trkpt lat="46.121166199894965" lon="11.802612436349063"><ele>1301.8</ele><time>2026-05-02T12:38:04Z</time></trkpt><trkpt lat="46.12110110604706" lon="11.80271243487552"><ele>1304.3999999999999</ele><time>2026-05-02T12:38:05Z</time></trkpt><trkpt lat="46.12104549992941" lon="11.80279236063939"><ele>1307.0</ele><time>2026-05-02T12:38:06Z</time></trkpt><trkpt lat="46.12098887530369" lon="11.802886798178626"><ele>1307.0</ele><time>2026-05-02T12:38:07Z</time></trkpt><trkpt lat="46.120935074727065" lon="11.802993835721653"><ele>1307.0</ele><time>2026-05-02T12:38:08Z</time></trkpt><trkpt lat="46.12089115855471" lon="11.803093283426174"><ele>1307.0</ele><time>2026-05-02T12:38:09Z</time></trkpt><trkpt lat="46.120844865477636" lon="11.803179039051274"><ele>1307.0</ele><time>2026-05-02T12:38:10Z</time></trkpt><trkpt lat="46.12077908335199" lon="11.803293344319952"><ele>1307.0</ele><time>2026-05-02T12:38:12Z</time></trkpt><trkpt lat="46.12077234527722" lon="11.803420042040635"><ele>1307.0</ele><time>2026-05-02T12:38:14Z</time></trkpt><trkpt lat="46.12084661531368" lon="11.803493364861447"><ele>1307.0</ele><time>2026-05-02T12:38:16Z</time></trkpt><trkpt lat="46.120944207566936" lon="11.803496822916497"><ele>1307.0</ele><time>2026-05-02T12:38:18Z</time></trkpt><trkpt lat="46.12105501964611" lon="11.803459071312462"><ele>1307.0</ele><time>2026-05-02T12:38:20Z</time></trkpt><trkpt lat="46.12116731678067" lon="11.803453240383716"><ele>1307.0</ele><time>2026-05-02T12:38:22Z</time></trkpt><trkpt lat="46.12128540183122" lon="11.803439831349825"><ele>1307.0</ele><time>2026-05-02T12:38:24Z</time></trkpt><trkpt lat="46.12140502566492" lon="11.803435190061462"><ele>1307.0</ele><time>2026-05-02T12:38:26Z</time></trkpt><trkpt lat="46.12151977751094" lon="11.803449701688944"><ele>1307.0</ele><time>2026-05-02T12:38:27.999Z</time></trkpt><trkpt lat="46.12158493107716" lon="11.803467108062591"><ele>1307.0</ele><time>2026-05-02T12:38:28.999Z</time></trkpt><trkpt lat="46.12171412773552" lon="11.803509268522268"><ele>1307.0</ele><time>2026-05-02T12:38:30.999Z</time></trkpt><trkpt lat="46.12177899525547" lon="11.803532833530973"><ele>1307.0</ele><time>2026-05-02T12:38:31.999Z</time></trkpt><trkpt lat="46.121842713421664" lon="11.803557694829744"><ele>1307.0</ele><time>2026-05-02T12:38:32.999Z</time></trkpt><trkpt lat="46.12190806941058" lon="11.803585205214368"><ele>1310.7142857142856</ele><time>2026-05-02T12:38:33.999Z</time></trkpt><trkpt lat="46.12197297540962" lon="11.803599408529413"><ele>1314.4285714285716</ele><time>2026-05-02T12:38:34.999Z</time></trkpt><trkpt lat="46.12203465378913" lon="11.803640949313047"><ele>1318.142857142857</ele><time>2026-05-02T12:38:35.999Z</time></trkpt><trkpt lat="46.12208357619421" lon="11.803700140477874"><ele>1321.8571428571427</ele><time>2026-05-02T12:38:36.999Z</time></trkpt><trkpt lat="46.122144095531944" lon="11.803822471684787"><ele>1325.5714285714284</ele><time>2026-05-02T12:38:38.999Z</time></trkpt><trkpt lat="46.12215154773917" lon="11.803914193545689"><ele>1329.2857142857142</ele><time>2026-05-02T12:38:39.999Z</time></trkpt><trkpt lat="46.12214016264899" lon="11.804004098446086"><ele>1333.0</ele><time>2026-05-02T12:38:40.999Z</time></trkpt><trkpt lat="46.122122740350314" lon="11.804098155734415"><ele>1333.0</ele><time>2026-05-02T12:38:41.999Z</time></trkpt><trkpt lat="46.12209453254654" lon="11.804200574293533"><ele>1333.0</ele><time>2026-05-02T12:38:42.999Z</time></trkpt><trkpt lat="46.122061794248005" lon="11.804304938637896"><ele>1333.0</ele><time>2026-05-02T12:38:43.999Z</time></trkpt><trkpt lat="46.12202174504208" lon="11.804401971022264"><ele>1333.0</ele><time>2026-05-02T12:38:44.999Z</time></trkpt><trkpt lat="46.12199935985045" lon="11.804492511791185"><ele>1333.0</ele><time>2026-05-02T12:38:45.999Z</time></trkpt><trkpt lat="46.121960013998034" lon="11.80459628008158"><ele>1333.0</ele><time>2026-05-02T12:38:46.999Z</time></trkpt><trkpt lat="46.12191721406459" lon="11.804682945525537"><ele>1333.8333333333333</ele><time>2026-05-02T12:38:47.999Z</time></trkpt><trkpt lat="46.12189398520515" lon="11.804781502405794"><ele>1334.6666666666665</ele><time>2026-05-02T12:38:48.999Z</time></trkpt><trkpt lat="46.12188626872245" lon="11.804884019022676"><ele>1335.5</ele><time>2026-05-02T12:38:49.999Z</time></trkpt><trkpt lat="46.12188341555874" lon="11.80500520363458"><ele>1336.3333333333333</ele><time>2026-05-02T12:38:50.999Z</time></trkpt><trkpt lat="46.12188622717213" lon="11.805132056773406"><ele>1337.1666666666667</ele><time>2026-05-02T12:38:51.999Z</time></trkpt><trkpt lat="46.12188975951822" lon="11.805224299040058"><ele>1338.0</ele><time>2026-05-02T12:38:52.999Z</time></trkpt><trkpt lat="46.121893863057856" lon="11.805342246874861"><ele>1339.8000000000002</ele><time>2026-05-02T12:38:53.999Z</time></trkpt><trkpt lat="46.121895653423714" lon="11.80544297242073"><ele>1341.6</ele><time>2026-05-02T12:38:54.999Z</time></trkpt><trkpt lat="46.12193222824849" lon="11.805609974491796"><ele>1343.4</ele><time>2026-05-02T12:38:56.999Z</time></trkpt><trkpt lat="46.12202355344193" lon="11.80564855831366"><ele>1345.1999999999998</ele><time>2026-05-02T12:38:57.999Z</time></trkpt><trkpt lat="46.12213802544543" lon="11.805700311749856"><ele>1347.0</ele><time>2026-05-02T12:38:59.999Z</time></trkpt><trkpt lat="46.12222703979394" lon="11.805702532431342"><ele>1347.0</ele><time>2026-05-02T12:39:00.999Z</time></trkpt><trkpt lat="46.122313600037906" lon="11.805710094099119"><ele>1347.0</ele><time>2026-05-02T12:39:01.999Z</time></trkpt><trkpt lat="46.12240766560827" lon="11.805664235559295"><ele>1347.0</ele><time>2026-05-02T12:39:02.999Z</time></trkpt><trkpt lat="46.122485894573515" lon="11.805644438836378"><ele>1347.0</ele><time>2026-05-02T12:39:03.999Z</time></trkpt><trkpt lat="46.12254807638722" lon="11.805610237637897"><ele>1347.0</ele><time>2026-05-02T12:39:04.999Z</time></trkpt><trkpt lat="46.12265482677307" lon="11.805595934313256"><ele>1347.0</ele><time>2026-05-02T12:39:06.999Z</time></trkpt><trkpt lat="46.12274184964795" lon="11.805652698005046"><ele>1344.5</ele><time>2026-05-02T12:39:08.999Z</time></trkpt><trkpt lat="46.122788786320235" lon="11.805716162535843"><ele>1342.0</ele><time>2026-05-02T12:39:09.999Z</time></trkpt><trkpt lat="46.122798962318946" lon="11.805890085623995"><ele>1339.5</ele><time>2026-05-02T12:39:11.999Z</time></trkpt><trkpt lat="46.12280701714377" lon="11.805994868933228"><ele>1337.0</ele><time>2026-05-02T12:39:12.999Z</time></trkpt><trkpt lat="46.12279420158833" lon="11.806120906191182"><ele>1334.5</ele><time>2026-05-02T12:39:13.999Z</time></trkpt><trkpt lat="46.12281448917011" lon="11.806219589390098"><ele>1332.0</ele><time>2026-05-02T12:39:14.999Z</time></trkpt><trkpt lat="46.122845920905654" lon="11.806312924090317"><ele>1337.6666666666667</ele><time>2026-05-02T12:39:15.999Z</time></trkpt><trkpt lat="46.122876963353086" lon="11.806412474611962"><ele>1343.3333333333333</ele><time>2026-05-02T12:39:16.999Z</time></trkpt><trkpt lat="46.12292840520365" lon="11.806514850004179"><ele>1349.0</ele><time>2026-05-02T12:39:17.999Z</time></trkpt><trkpt lat="46.12298612517966" lon="11.806576164451036"><ele>1354.6666666666665</ele><time>2026-05-02T12:39:18.999Z</time></trkpt><trkpt lat="46.12306221466959" lon="11.806658427221024"><ele>1360.3333333333333</ele><time>2026-05-02T12:39:19.999Z</time></trkpt><trkpt lat="46.123142565280396" lon="11.806700584268112"><ele>1366.0</ele><time>2026-05-02T12:39:20.999Z</time></trkpt><trkpt lat="46.12322401837616" lon="11.806756136398315"><ele>1368.8333333333333</ele><time>2026-05-02T12:39:21.999Z</time></trkpt><trkpt lat="46.12330598841874" lon="11.806788295548657"><ele>1371.6666666666665</ele><time>2026-05-02T12:39:22.999Z</time></trkpt><trkpt lat="46.123367175372735" lon="11.80684983344"><ele>1374.5</ele><time>2026-05-02T12:39:23.999Z</time></trkpt><trkpt lat="46.123424582318016" lon="11.806923952034865"><ele>1377.3333333333333</ele><time>2026-05-02T12:39:24.999Z</time></trkpt><trkpt lat="46.12347808121356" lon="11.806995353948121"><ele>1380.1666666666667</ele><time>2026-05-02T12:39:25.999Z</time></trkpt><trkpt lat="46.12353137167147" lon="11.807075719487283"><ele>1383.0</ele><time>2026-05-02T12:39:26.999Z</time></trkpt><trkpt lat="46.123583971902555" lon="11.80720812835779"><ele>1383.0</ele><time>2026-05-02T12:39:28.999Z</time></trkpt><trkpt lat="46.123621347504766" lon="11.80739764608097"><ele>1383.0</ele><time>2026-05-02T12:39:30.998Z</time></trkpt><trkpt lat="46.12363275646946" lon="11.807512530883272"><ele>1383.0</ele><time>2026-05-02T12:39:31.998Z</time></trkpt><trkpt lat="46.123678347604816" lon="11.807586911314587"><ele>1383.0</ele><time>2026-05-02T12:39:32.998Z</time></trkpt><trkpt lat="46.12372977742981" lon="11.80766222493195"><ele>1383.0</ele><time>2026-05-02T12:39:33.998Z</time></trkpt><trkpt lat="46.123801900628514" lon="11.807685451513342"><ele>1383.0</ele><time>2026-05-02T12:39:34.998Z</time></trkpt><trkpt lat="46.12387893321351" lon="11.80772735656484"><ele>1385.1666666666667</ele><time>2026-05-02T12:39:35.998Z</time></trkpt><trkpt lat="46.123961836546066" lon="11.807750026327513"><ele>1387.3333333333333</ele><time>2026-05-02T12:39:36.998Z</time></trkpt><trkpt lat="46.124039350872124" lon="11.807773471135006"><ele>1389.5</ele><time>2026-05-02T12:39:37.998Z</time></trkpt><trkpt lat="46.124129520385274" lon="11.807794419195695"><ele>1391.6666666666665</ele><time>2026-05-02T12:39:38.998Z</time></trkpt><trkpt lat="46.12421099993087" lon="11.807788637909928"><ele>1393.8333333333333</ele><time>2026-05-02T12:39:39.998Z</time></trkpt><trkpt lat="46.12428590485062" lon="11.80777045023214"><ele>1396.0</ele><time>2026-05-02T12:39:40.998Z</time></trkpt><trkpt lat="46.12436479725372" lon="11.807731585835455"><ele>1396.0</ele><time>2026-05-02T12:39:41.998Z</time></trkpt><trkpt lat="46.12442701480741" lon="11.807750098453711"><ele>1396.0</ele><time>2026-05-02T12:39:42.998Z</time></trkpt><trkpt lat="46.124555827682585" lon="11.807803420258168"><ele>1396.0</ele><time>2026-05-02T12:39:44.998Z</time></trkpt><trkpt lat="46.12462295855605" lon="11.807838729508525"><ele>1396.0</ele><time>2026-05-02T12:39:45.998Z</time></trkpt><trkpt lat="46.12468551054628" lon="11.807872609264123"><ele>1396.0</ele><time>2026-05-02T12:39:46.998Z</time></trkpt><trkpt lat="46.124761646957595" lon="11.807904796433172"><ele>1396.0</ele><time>2026-05-02T12:39:48Z</time></trkpt><trkpt lat="46.12482538888351" lon="11.807966324209923"><ele>1396.0</ele><time>2026-05-02T12:39:49Z</time></trkpt><trkpt lat="46.12488042543187" lon="11.808015182984537"><ele>1396.0</ele><time>2026-05-02T12:39:50Z</time></trkpt><trkpt lat="46.124944059951204" lon="11.808063081382294"><ele>1396.0</ele><time>2026-05-02T12:39:51Z</time></trkpt><trkpt lat="46.12499533552601" lon="11.80815728013405"><ele>1396.0</ele><time>2026-05-02T12:39:52Z</time></trkpt><trkpt lat="46.1250427004369" lon="11.808255378586521"><ele>1396.0</ele><time>2026-05-02T12:39:53Z</time></trkpt><trkpt lat="46.12509442448042" lon="11.808338291661666"><ele>1396.0</ele><time>2026-05-02T12:39:54Z</time></trkpt><trkpt lat="46.12518921761365" lon="11.808431615191644"><ele>1394.0</ele><time>2026-05-02T12:39:56Z</time></trkpt><trkpt lat="46.125253395062636" lon="11.808440618846875"><ele>1392.0</ele><time>2026-05-02T12:39:57Z</time></trkpt><trkpt lat="46.12532947208808" lon="11.808439189331413"><ele>1390.0</ele><time>2026-05-02T12:39:58Z</time></trkpt><trkpt lat="46.12539771123602" lon="11.808418481879986"><ele>1388.0</ele><time>2026-05-02T12:39:59Z</time></trkpt><trkpt lat="46.12551367273703" lon="11.808459752388169"><ele>1386.0</ele><time>2026-05-02T12:40:01Z</time></trkpt><trkpt lat="46.12558740308689" lon="11.80848333656792"><ele>1384.0</ele><time>2026-05-02T12:40:02Z</time></trkpt><trkpt lat="46.12566328379362" lon="11.80848442787607"><ele>1383.6666666666665</ele><time>2026-05-02T12:40:03Z</time></trkpt><trkpt lat="46.125733575861126" lon="11.808452186252454"><ele>1383.3333333333333</ele><time>2026-05-02T12:40:04Z</time></trkpt><trkpt lat="46.125789793627504" lon="11.808408834244148"><ele>1383.0</ele><time>2026-05-02T12:40:05Z</time></trkpt><trkpt lat="46.12586707375925" lon="11.808382431135769"><ele>1382.6666666666667</ele><time>2026-05-02T12:40:07Z</time></trkpt><trkpt lat="46.125947188293594" lon="11.808329450798015"><ele>1382.3333333333335</ele><time>2026-05-02T12:40:09Z</time></trkpt><trkpt lat="46.1260304662219" lon="11.808293226395307"><ele>1382.0</ele><time>2026-05-02T12:40:11Z</time></trkpt><trkpt lat="46.1261203158275" lon="11.808287279731616"><ele>1382.0</ele><time>2026-05-02T12:40:13Z</time></trkpt><trkpt lat="46.12618787925903" lon="11.808288734533898"><ele>1382.0</ele><time>2026-05-02T12:40:14Z</time></trkpt><trkpt lat="46.12626596416361" lon="11.80828728714968"><ele>1382.0</ele><time>2026-05-02T12:40:15Z</time></trkpt><trkpt lat="46.12634669553007" lon="11.808260883455386"><ele>1382.0</ele><time>2026-05-02T12:40:16Z</time></trkpt><trkpt lat="46.12645075280057" lon="11.808238820300653"><ele>1382.0</ele><time>2026-05-02T12:40:18Z</time></trkpt><trkpt lat="46.126524504112055" lon="11.80830421179869"><ele>1382.0</ele><time>2026-05-02T12:40:21Z</time></trkpt><trkpt lat="46.126500509542616" lon="11.80843968593369"><ele>1388.1999999999998</ele><time>2026-05-02T12:40:23.999Z</time></trkpt><trkpt lat="46.12648419252552" lon="11.808535097184675"><ele>1394.4</ele><time>2026-05-02T12:40:25.999Z</time></trkpt><trkpt lat="46.126479613778294" lon="11.808654578712018"><ele>1400.6</ele><time>2026-05-02T12:40:27.999Z</time></trkpt><trkpt lat="46.12646049099946" lon="11.808816368664498"><ele>1406.8000000000002</ele><time>2026-05-02T12:40:29.999Z</time></trkpt><trkpt lat="46.12643986456981" lon="11.808977130371526"><ele>1413.0</ele><time>2026-05-02T12:40:31.999Z</time></trkpt><trkpt lat="46.126415057370615" lon="11.80911370248543"><ele>1413.0</ele><time>2026-05-02T12:40:33.999Z</time></trkpt><trkpt lat="46.12639846870204" lon="11.809232756110468"><ele>1413.0</ele><time>2026-05-02T12:40:35.999Z</time></trkpt><trkpt lat="46.126400140103456" lon="11.80938150036868"><ele>1413.0</ele><time>2026-05-02T12:40:37.999Z</time></trkpt><trkpt lat="46.126446226079224" lon="11.809500826839514"><ele>1413.0</ele><time>2026-05-02T12:40:39.999Z</time></trkpt><trkpt lat="46.126504242949814" lon="11.809634319590035"><ele>1413.0</ele><time>2026-05-02T12:40:41.999Z</time></trkpt><trkpt lat="46.12657830133611" lon="11.809744698721683"><ele>1404.8000000000002</ele><time>2026-05-02T12:40:43.999Z</time></trkpt><trkpt lat="46.12660018705958" lon="11.809865563319995"><ele>1396.6</ele><time>2026-05-02T12:40:45.999Z</time></trkpt><trkpt lat="46.12659956548378" lon="11.810028154152851"><ele>1388.4</ele><time>2026-05-02T12:40:47.999Z</time></trkpt><trkpt lat="46.12660040663384" lon="11.810186801450056"><ele>1380.1999999999998</ele><time>2026-05-02T12:40:49.999Z</time></trkpt><trkpt lat="46.12661887540474" lon="11.810359267778676"><ele>1372.0</ele><time>2026-05-02T12:40:51.999Z</time></trkpt><trkpt lat="46.1266792924942" lon="11.81040219356754"><ele>1372.0</ele><time>2026-05-02T12:40:52.999Z</time></trkpt><trkpt lat="46.126750053514805" lon="11.810529901845229"><ele>1372.0</ele><time>2026-05-02T12:40:54.999Z</time></trkpt><trkpt lat="46.12678268716676" lon="11.810645709642223"><ele>1372.0</ele><time>2026-05-02T12:40:56.999Z</time></trkpt><trkpt lat="46.12677022915974" lon="11.810818781279368"><ele>1372.0</ele><time>2026-05-02T12:40:58.999Z</time></trkpt><trkpt lat="46.12676502186666" lon="11.810915033290032"><ele>1372.0</ele><time>2026-05-02T12:40:59.999Z</time></trkpt><trkpt lat="46.12675019142979" lon="11.811004100395687"><ele>1371.0</ele><time>2026-05-02T12:41:00.999Z</time></trkpt><trkpt lat="46.126716793905324" lon="11.811163029103563"><ele>1370.0</ele><time>2026-05-02T12:41:02.999Z</time></trkpt><trkpt lat="46.12670904426562" lon="11.811259824056181"><ele>1369.0</ele><time>2026-05-02T12:41:03.999Z</time></trkpt><trkpt lat="46.12667876128367" lon="11.811426906637175"><ele>1368.0</ele><time>2026-05-02T12:41:05.999Z</time></trkpt><trkpt lat="46.12664563524677" lon="11.811584179275464"><ele>1367.0</ele><time>2026-05-02T12:41:07.999Z</time></trkpt><trkpt lat="46.12671083076785" lon="11.811730056858497"><ele>1366.1999999999998</ele><time>2026-05-02T12:41:09.999Z</time></trkpt><trkpt lat="46.12681914747137" lon="11.81182971021694"><ele>1365.4</ele><time>2026-05-02T12:41:11.999Z</time></trkpt><trkpt lat="46.12691003598364" lon="11.81191797374478"><ele>1364.6</ele><time>2026-05-02T12:41:13.999Z</time></trkpt><trkpt lat="46.12699622464859" lon="11.812013183258303"><ele>1363.8000000000002</ele><time>2026-05-02T12:41:15.999Z</time></trkpt><trkpt lat="46.126966626448336" lon="11.812137154193014"><ele>1363.0</ele><time>2026-05-02T12:41:18.999Z</time></trkpt><trkpt lat="46.126917948752364" lon="11.812219067400958"><ele>1363.0</ele><time>2026-05-02T12:41:20.999Z</time></trkpt><trkpt lat="46.12688083269761" lon="11.812298138777688"><ele>1363.0</ele><time>2026-05-02T12:41:21.999Z</time></trkpt><trkpt lat="46.12682431097871" lon="11.8123906947743"><ele>1363.0</ele><time>2026-05-02T12:41:22.999Z</time></trkpt><trkpt lat="46.12677348087871" lon="11.812473931328698"><ele>1363.0</ele><time>2026-05-02T12:41:23.999Z</time></trkpt><trkpt lat="46.126731445836825" lon="11.812547337349962"><ele>1363.0</ele><time>2026-05-02T12:41:24.999Z</time></trkpt><trkpt lat="46.126677106405026" lon="11.812681003521794"><ele>1363.0</ele><time>2026-05-02T12:41:26.999Z</time></trkpt><trkpt lat="46.126659060266974" lon="11.812771995263482"><ele>1358.6000000000001</ele><time>2026-05-02T12:41:27.998Z</time></trkpt><trkpt lat="46.12665285276298" lon="11.812880024170793"><ele>1354.2</ele><time>2026-05-02T12:41:28.998Z</time></trkpt><trkpt lat="46.126654246087924" lon="11.813040324948126"><ele>1349.8</ele><time>2026-05-02T12:41:30.998Z</time></trkpt><trkpt lat="46.12666690940163" lon="11.813210860691559"><ele>1345.4</ele><time>2026-05-02T12:41:32.998Z</time></trkpt><trkpt lat="46.126684799243876" lon="11.813298872017029"><ele>1341.0</ele><time>2026-05-02T12:41:33.998Z</time></trkpt><trkpt lat="46.12671754929178" lon="11.81345075283138"><ele>1338.8333333333333</ele><time>2026-05-02T12:41:35.998Z</time></trkpt><trkpt lat="46.12675926911538" lon="11.813524799234346"><ele>1336.6666666666667</ele><time>2026-05-02T12:41:36.998Z</time></trkpt><trkpt lat="46.12677639276788" lon="11.813652794332757"><ele>1334.5</ele><time>2026-05-02T12:41:38.998Z</time></trkpt><trkpt lat="46.12677412439597" lon="11.8137684684883"><ele>1332.3333333333335</ele><time>2026-05-02T12:41:40.998Z</time></trkpt><trkpt lat="46.126768871199054" lon="11.81386510358739"><ele>1330.1666666666667</ele><time>2026-05-02T12:41:41.998Z</time></trkpt><trkpt lat="46.12669610387352" lon="11.814012017368619"><ele>1328.0</ele><time>2026-05-02T12:41:43.998Z</time></trkpt><trkpt lat="46.12665839299174" lon="11.814101130438987"><ele>1328.0</ele><time>2026-05-02T12:41:44.998Z</time></trkpt><trkpt lat="46.126579624232456" lon="11.814194735807972"><ele>1328.0</ele><time>2026-05-02T12:41:46.998Z</time></trkpt><trkpt lat="46.1264673289698" lon="11.81424617533249"><ele>1328.0</ele><time>2026-05-02T12:41:48.998Z</time></trkpt><trkpt lat="46.12638324580065" lon="11.814233879900812"><ele>1328.0</ele><time>2026-05-02T12:41:49.998Z</time></trkpt><trkpt lat="46.126301780870314" lon="11.814250303667384"><ele>1328.0</ele><time>2026-05-02T12:41:50.998Z</time></trkpt><trkpt lat="46.12623449876825" lon="11.814299165563996"><ele>1329.8000000000002</ele><time>2026-05-02T12:41:51.998Z</time></trkpt><trkpt lat="46.12614136919289" lon="11.814451057733066"><ele>1331.6</ele><time>2026-05-02T12:41:54Z</time></trkpt><trkpt lat="46.12613865047317" lon="11.814559547393149"><ele>1333.4</ele><time>2026-05-02T12:41:55Z</time></trkpt><trkpt lat="46.12621080970379" lon="11.814667884266273"><ele>1335.1999999999998</ele><time>2026-05-02T12:41:56Z</time></trkpt><trkpt lat="46.12624957712994" lon="11.814837115755957"><ele>1337.0</ele><time>2026-05-02T12:41:58Z</time></trkpt><trkpt lat="46.12627427812308" lon="11.814931881149924"><ele>1337.0</ele><time>2026-05-02T12:41:59Z</time></trkpt><trkpt lat="46.12629496767315" lon="11.815019303502195"><ele>1337.0</ele><time>2026-05-02T12:42:00Z</time></trkpt><trkpt lat="46.1263104310157" lon="11.815159251600537"><ele>1337.0</ele><time>2026-05-02T12:42:02Z</time></trkpt><trkpt lat="46.1262475001865" lon="11.815192464108588"><ele>1337.0</ele><time>2026-05-02T12:42:03Z</time></trkpt><trkpt lat="46.12616936140654" lon="11.81530831189418"><ele>1337.0</ele><time>2026-05-02T12:42:05Z</time></trkpt><trkpt lat="46.12605895058853" lon="11.815387347235111"><ele>1334.8333333333335</ele><time>2026-05-02T12:42:07Z</time></trkpt><trkpt lat="46.125996331620364" lon="11.815426659826889"><ele>1332.6666666666667</ele><time>2026-05-02T12:42:08Z</time></trkpt><trkpt lat="46.12587334990968" lon="11.815504010661993"><ele>1330.5</ele><time>2026-05-02T12:42:10Z</time></trkpt><trkpt lat="46.125804156124836" lon="11.815545430707164"><ele>1328.3333333333333</ele><time>2026-05-02T12:42:11Z</time></trkpt><trkpt lat="46.12574115153775" lon="11.815594109126085"><ele>1326.1666666666665</ele><time>2026-05-02T12:42:12Z</time></trkpt><trkpt lat="46.125691043266464" lon="11.815674211665943"><ele>1324.0</ele><time>2026-05-02T12:42:13Z</time></trkpt><trkpt lat="46.125660987916824" lon="11.815769366951459"><ele>1324.0</ele><time>2026-05-02T12:42:14Z</time></trkpt><trkpt lat="46.12563033033828" lon="11.815852807211671"><ele>1324.0</ele><time>2026-05-02T12:42:15Z</time></trkpt><trkpt lat="46.125581372590574" lon="11.815928671301052"><ele>1324.0</ele><time>2026-05-02T12:42:17Z</time></trkpt><trkpt lat="46.12546219615163" lon="11.815987700312792"><ele>1324.0</ele><time>2026-05-02T12:42:19Z</time></trkpt><trkpt lat="46.12532643486166" lon="11.816013392881738"><ele>1324.0</ele><time>2026-05-02T12:42:21Z</time></trkpt><trkpt lat="46.125262086290846" lon="11.816014065955715"><ele>1324.0</ele><time>2026-05-02T12:42:22Z</time></trkpt><trkpt lat="46.1251345886981" lon="11.81595387600226"><ele>1324.0</ele><time>2026-05-02T12:42:24Z</time></trkpt><trkpt lat="46.12504534695386" lon="11.815923493882893"><ele>1324.0</ele><time>2026-05-02T12:42:25Z</time></trkpt><trkpt lat="46.12492428158244" lon="11.815956947458375"><ele>1324.0</ele><time>2026-05-02T12:42:27Z</time></trkpt><trkpt lat="46.124822159969966" lon="11.816035732729498"><ele>1319.8000000000002</ele><time>2026-05-02T12:42:29Z</time></trkpt><trkpt lat="46.12471732443065" lon="11.816116960858576"><ele>1315.6000000000001</ele><time>2026-05-02T12:42:31Z</time></trkpt><trkpt lat="46.12464877478439" lon="11.816187967317193"><ele>1311.4</ele><time>2026-05-02T12:42:32.999Z</time></trkpt><trkpt lat="46.12457257566322" lon="11.816146582481833"><ele>1307.2</ele><time>2026-05-02T12:42:34.999Z</time></trkpt><trkpt lat="46.124488764781006" lon="11.816146529987323"><ele>1303.0</ele><time>2026-05-02T12:42:35.999Z</time></trkpt><trkpt lat="46.12440561385911" lon="11.816198133425834"><ele>1303.0</ele><time>2026-05-02T12:42:36.999Z</time></trkpt><trkpt lat="46.12433928271679" lon="11.816266607678793"><ele>1303.0</ele><time>2026-05-02T12:42:37.999Z</time></trkpt><trkpt lat="46.12429419639152" lon="11.816367504244525"><ele>1303.0</ele><time>2026-05-02T12:42:38.999Z</time></trkpt><trkpt lat="46.124329261212324" lon="11.81651712819082"><ele>1303.0</ele><time>2026-05-02T12:42:39.999Z</time></trkpt><trkpt lat="46.12429052455867" lon="11.816599615467508"><ele>1303.0</ele><time>2026-05-02T12:42:40.999Z</time></trkpt><trkpt lat="46.12426953130602" lon="11.816692131926937"><ele>1303.0</ele><time>2026-05-02T12:42:41.999Z</time></trkpt><trkpt lat="46.12419745670388" lon="11.816745116543554"><ele>1303.0</ele><time>2026-05-02T12:42:43.999Z</time></trkpt><trkpt lat="46.124119124839375" lon="11.816761322632011"><ele>1303.0</ele><time>2026-05-02T12:42:44.999Z</time></trkpt><trkpt lat="46.12404051847994" lon="11.816810133484543"><ele>1303.0</ele><time>2026-05-02T12:42:45.999Z</time></trkpt><trkpt lat="46.1239780690754" lon="11.816911543193692"><ele>1303.0</ele><time>2026-05-02T12:42:46.999Z</time></trkpt><trkpt lat="46.1239324712984" lon="11.816975302377992"><ele>1303.0</ele><time>2026-05-02T12:42:47.999Z</time></trkpt><trkpt lat="46.12388023708795" lon="11.817037167513696"><ele>1303.0</ele><time>2026-05-02T12:42:48.999Z</time></trkpt><trkpt lat="46.123824051862094" lon="11.817094326617562"><ele>1302.2</ele><time>2026-05-02T12:42:49.999Z</time></trkpt><trkpt lat="46.12376463235766" lon="11.81716037901304"><ele>1301.4</ele><time>2026-05-02T12:42:50.999Z</time></trkpt><trkpt lat="46.123651476225994" lon="11.81721088671211"><ele>1300.6000000000001</ele><time>2026-05-02T12:42:52.999Z</time></trkpt><trkpt lat="46.123549411236965" lon="11.817227990318477"><ele>1299.8000000000002</ele><time>2026-05-02T12:42:54.999Z</time></trkpt><trkpt lat="46.123449546724295" lon="11.817248590382736"><ele>1299.0</ele><time>2026-05-02T12:42:56.999Z</time></trkpt><trkpt lat="46.123228178614454" lon="11.817368284275469"><ele>1297.0</ele><time>2026-05-02T12:42:58.999Z</time></trkpt><trkpt lat="46.1231456143694" lon="11.817475511973804"><ele>1295.0</ele><time>2026-05-02T12:43:00.999Z</time></trkpt><trkpt lat="46.12311886562823" lon="11.817569823464586"><ele>1293.0</ele><time>2026-05-02T12:43:01.999Z</time></trkpt><trkpt lat="46.12313389751016" lon="11.81766324513441"><ele>1291.0</ele><time>2026-05-02T12:43:02.999Z</time></trkpt><trkpt lat="46.123176409807435" lon="11.817761728557944"><ele>1289.0</ele><time>2026-05-02T12:43:03.999Z</time></trkpt><trkpt lat="46.123214328476315" lon="11.817856729876258"><ele>1287.0</ele><time>2026-05-02T12:43:04.999Z</time></trkpt><trkpt lat="46.123253440270645" lon="11.817955491892645"><ele>1287.0</ele><time>2026-05-02T12:43:05.999Z</time></trkpt><trkpt lat="46.123310087339455" lon="11.818043059654217"><ele>1287.0</ele><time>2026-05-02T12:43:06.999Z</time></trkpt><trkpt lat="46.1233694331636" lon="11.818135523875663"><ele>1287.0</ele><time>2026-05-02T12:43:07.999Z</time></trkpt><trkpt lat="46.12341757514742" lon="11.818214692146263"><ele>1287.0</ele><time>2026-05-02T12:43:08.999Z</time></trkpt><trkpt lat="46.12346354934619" lon="11.818283547923752"><ele>1287.0</ele><time>2026-05-02T12:43:09.999Z</time></trkpt><trkpt lat="46.123516426502825" lon="11.818341446958671"><ele>1287.0</ele><time>2026-05-02T12:43:10.999Z</time></trkpt><trkpt lat="46.123565611441634" lon="11.818476578685278"><ele>1282.0</ele><time>2026-05-02T12:43:12.999Z</time></trkpt><trkpt lat="46.12359519818924" lon="11.818644371786101"><ele>1277.0</ele><time>2026-05-02T12:43:14.999Z</time></trkpt><trkpt lat="46.12357380870503" lon="11.818802977478027"><ele>1272.0</ele><time>2026-05-02T12:43:16.999Z</time></trkpt><trkpt lat="46.12347794644646" lon="11.818894082206063"><ele>1267.0</ele><time>2026-05-02T12:43:18.999Z</time></trkpt><trkpt lat="46.12341362221731" lon="11.818952678389971"><ele>1262.0</ele><time>2026-05-02T12:43:19.999Z</time></trkpt><trkpt lat="46.12333388207007" lon="11.819011555369372"><ele>1267.0</ele><time>2026-05-02T12:43:20.999Z</time></trkpt><trkpt lat="46.12322101109004" lon="11.819090364650032"><ele>1272.0</ele><time>2026-05-02T12:43:21.999Z</time></trkpt><trkpt lat="46.123130256510194" lon="11.819146645393776"><ele>1277.0</ele><time>2026-05-02T12:43:22.999Z</time></trkpt><trkpt lat="46.12304896545036" lon="11.8191960364204"><ele>1282.0</ele><time>2026-05-02T12:43:23.999Z</time></trkpt><trkpt lat="46.122978849046916" lon="11.819236666423901"><ele>1287.0</ele><time>2026-05-02T12:43:24.999Z</time></trkpt><trkpt lat="46.122902216976314" lon="11.819299681630868"><ele>1279.8333333333333</ele><time>2026-05-02T12:43:25.999Z</time></trkpt><trkpt lat="46.12281359067597" lon="11.819325917192584"><ele>1272.6666666666667</ele><time>2026-05-02T12:43:26.999Z</time></trkpt><trkpt lat="46.12273523337361" lon="11.819368914833237"><ele>1265.5</ele><time>2026-05-02T12:43:27.999Z</time></trkpt><trkpt lat="46.12264663452505" lon="11.819381498188815"><ele>1258.3333333333335</ele><time>2026-05-02T12:43:28.999Z</time></trkpt><trkpt lat="46.12257825385336" lon="11.819401342930641"><ele>1251.1666666666667</ele><time>2026-05-02T12:43:29.999Z</time></trkpt><trkpt lat="46.122509345244076" lon="11.819422255399367"><ele>1244.0</ele><time>2026-05-02T12:43:30.999Z</time></trkpt><trkpt lat="46.122433884289975" lon="11.819469655381853"><ele>1245.7142857142856</ele><time>2026-05-02T12:43:31.999Z</time></trkpt><trkpt lat="46.12234889311111" lon="11.819489689150457"><ele>1247.4285714285716</ele><time>2026-05-02T12:43:32.999Z</time></trkpt><trkpt lat="46.122271973872294" lon="11.819511032470164"><ele>1249.142857142857</ele><time>2026-05-02T12:43:33.999Z</time></trkpt><trkpt lat="46.12220275754319" lon="11.819537454040965"><ele>1250.8571428571427</ele><time>2026-05-02T12:43:34.999Z</time></trkpt><trkpt lat="46.122135743399866" lon="11.819587218207857"><ele>1252.5714285714284</ele><time>2026-05-02T12:43:35.999Z</time></trkpt><trkpt lat="46.12208332085826" lon="11.819637604911367"><ele>1254.2857142857142</ele><time>2026-05-02T12:43:36.999Z</time></trkpt><trkpt lat="46.12202202085291" lon="11.819677895767812"><ele>1256.0</ele><time>2026-05-02T12:43:37.999Z</time></trkpt><trkpt lat="46.121958296570895" lon="11.819726386086387"><ele>1256.0</ele><time>2026-05-02T12:43:38.999Z</time></trkpt><trkpt lat="46.12187868823276" lon="11.819747458473806"><ele>1256.0</ele><time>2026-05-02T12:43:39.999Z</time></trkpt><trkpt lat="46.12179088005308" lon="11.819774328107206"><ele>1256.0</ele><time>2026-05-02T12:43:40.998Z</time></trkpt><trkpt lat="46.12169833022135" lon="11.819816442527065"><ele>1256.0</ele><time>2026-05-02T12:43:41.998Z</time></trkpt><trkpt lat="46.12162413936508" lon="11.819865283465427"><ele>1256.0</ele><time>2026-05-02T12:43:42.998Z</time></trkpt><trkpt lat="46.12153322994442" lon="11.819883216618502"><ele>1256.0</ele><time>2026-05-02T12:43:43.998Z</time></trkpt><trkpt lat="46.12142713607311" lon="11.819931416506916"><ele>1257.6</ele><time>2026-05-02T12:43:44.998Z</time></trkpt><trkpt lat="46.121339424031326" lon="11.819992376119952"><ele>1259.1999999999998</ele><time>2026-05-02T12:43:45.998Z</time></trkpt><trkpt lat="46.121249655802245" lon="11.820041878580485"><ele>1260.8000000000002</ele><time>2026-05-02T12:43:46.998Z</time></trkpt><trkpt lat="46.121159410682615" lon="11.820089330568475"><ele>1262.4</ele><time>2026-05-02T12:43:47.998Z</time></trkpt><trkpt lat="46.12107206937413" lon="11.820128687068028"><ele>1264.0</ele><time>2026-05-02T12:43:48.998Z</time></trkpt><trkpt lat="46.12099238848078" lon="11.820163338864868"><ele>1259.3333333333333</ele><time>2026-05-02T12:43:49.998Z</time></trkpt><trkpt lat="46.12091140814042" lon="11.820180870407375"><ele>1254.6666666666665</ele><time>2026-05-02T12:43:50.998Z</time></trkpt><trkpt lat="46.12083984049443" lon="11.820242709838968"><ele>1250.0</ele><time>2026-05-02T12:43:51.998Z</time></trkpt><trkpt lat="46.12076315416892" lon="11.820286100227499"><ele>1245.3333333333333</ele><time>2026-05-02T12:43:52.998Z</time></trkpt><trkpt lat="46.12069206527043" lon="11.820323884053872"><ele>1240.6666666666667</ele><time>2026-05-02T12:43:53.998Z</time></trkpt><trkpt lat="46.12062428846606" lon="11.820344811726484"><ele>1236.0</ele><time>2026-05-02T12:43:54.998Z</time></trkpt><trkpt lat="46.12055650721377" lon="11.820402420514434"><ele>1236.0</ele><time>2026-05-02T12:43:55.998Z</time></trkpt><trkpt lat="46.120490127121776" lon="11.82041762436556"><ele>1236.0</ele><time>2026-05-02T12:43:56.998Z</time></trkpt><trkpt lat="46.12040178066242" lon="11.820427039595481"><ele>1236.0</ele><time>2026-05-02T12:43:57.998Z</time></trkpt><trkpt lat="46.12032555755558" lon="11.820451934482959"><ele>1236.0</ele><time>2026-05-02T12:43:58.998Z</time></trkpt><trkpt lat="46.120249277998795" lon="11.82042607770349"><ele>1236.0</ele><time>2026-05-02T12:44:00Z</time></trkpt><trkpt lat="46.12017567741172" lon="11.82041087276589"><ele>1236.0</ele><time>2026-05-02T12:44:01Z</time></trkpt><trkpt lat="46.12010609905708" lon="11.82043178561403"><ele>1236.0</ele><time>2026-05-02T12:44:02Z</time></trkpt><trkpt lat="46.11997992396315" lon="11.820446986748731"><ele>1236.0</ele><time>2026-05-02T12:44:04Z</time></trkpt><trkpt lat="46.119854317723124" lon="11.820516766002243"><ele>1236.0</ele><time>2026-05-02T12:44:06Z</time></trkpt><trkpt lat="46.11979483286167" lon="11.820561296616745"><ele>1236.0</ele><time>2026-05-02T12:44:07Z</time></trkpt><trkpt lat="46.119674299672994" lon="11.820633602663364"><ele>1236.3333333333333</ele><time>2026-05-02T12:44:09Z</time></trkpt><trkpt lat="46.11960727991762" lon="11.820661690716301"><ele>1236.6666666666667</ele><time>2026-05-02T12:44:10Z</time></trkpt><trkpt lat="46.11947042910397" lon="11.820725669226594"><ele>1237.0</ele><time>2026-05-02T12:44:12Z</time></trkpt><trkpt lat="46.119396454097384" lon="11.820727869965358"><ele>1237.3333333333335</ele><time>2026-05-02T12:44:13Z</time></trkpt><trkpt lat="46.11932053723786" lon="11.820741771097959"><ele>1237.6666666666667</ele><time>2026-05-02T12:44:14Z</time></trkpt><trkpt lat="46.11924117046835" lon="11.820766375471981"><ele>1238.0</ele><time>2026-05-02T12:44:15Z</time></trkpt><trkpt lat="46.11917397100598" lon="11.820791422159337"><ele>1238.0</ele><time>2026-05-02T12:44:16Z</time></trkpt><trkpt lat="46.119091713697436" lon="11.82079159167314"><ele>1238.0</ele><time>2026-05-02T12:44:17Z</time></trkpt><trkpt lat="46.11897207872143" lon="11.82074624769261"><ele>1238.0</ele><time>2026-05-02T12:44:19Z</time></trkpt><trkpt lat="46.11885902059749" lon="11.820717337184895"><ele>1238.0</ele><time>2026-05-02T12:44:20Z</time></trkpt><trkpt lat="46.11878515946008" lon="11.82071207967443"><ele>1238.0</ele><time>2026-05-02T12:44:21Z</time></trkpt><trkpt lat="46.11870202971932" lon="11.820729469243565"><ele>1236.5</ele><time>2026-05-02T12:44:22Z</time></trkpt><trkpt lat="46.11862486088737" lon="11.820759836070478"><ele>1235.0</ele><time>2026-05-02T12:44:23Z</time></trkpt><trkpt lat="46.118560825282" lon="11.820805898491999"><ele>1233.5</ele><time>2026-05-02T12:44:24Z</time></trkpt><trkpt lat="46.118502226238284" lon="11.82085368705786"><ele>1232.0</ele><time>2026-05-02T12:44:25Z</time></trkpt><trkpt lat="46.1184460108345" lon="11.820903209387014"><ele>1230.5</ele><time>2026-05-02T12:44:26Z</time></trkpt><trkpt lat="46.1183509497024" lon="11.820975160725473"><ele>1229.0</ele><time>2026-05-02T12:44:28Z</time></trkpt><trkpt lat="46.1183229364579" lon="11.82106460637453"><ele>1229.0</ele><time>2026-05-02T12:44:29Z</time></trkpt><trkpt lat="46.118314749591306" lon="11.821160548835659"><ele>1229.0</ele><time>2026-05-02T12:44:30Z</time></trkpt><trkpt lat="46.11831868601547" lon="11.821251455299121"><ele>1229.0</ele><time>2026-05-02T12:44:31Z</time></trkpt><trkpt lat="46.118353832628" lon="11.821338399832916"><ele>1229.0</ele><time>2026-05-02T12:44:32Z</time></trkpt><trkpt lat="46.118442743300584" lon="11.821526482974475"><ele>1229.0</ele><time>2026-05-02T12:44:34Z</time></trkpt><trkpt lat="46.11852680151726" lon="11.821595616733822"><ele>1229.0</ele><time>2026-05-02T12:44:35Z</time></trkpt><trkpt lat="46.118594319228265" lon="11.821664962828274"><ele>1229.0</ele><time>2026-05-02T12:44:36Z</time></trkpt><trkpt lat="46.11865689016131" lon="11.821735828646165"><ele>1229.0</ele><time>2026-05-02T12:44:37Z</time></trkpt><trkpt lat="46.11875280316542" lon="11.821797104218032"><ele>1229.0</ele><time>2026-05-02T12:44:38Z</time></trkpt><trkpt lat="46.11886086036676" lon="11.821864436910872"><ele>1229.0</ele><time>2026-05-02T12:44:39Z</time></trkpt><trkpt lat="46.11895727834618" lon="11.8219246092266"><ele>1232.0</ele><time>2026-05-02T12:44:40Z</time></trkpt><trkpt lat="46.11902665417758" lon="11.821969555425133"><ele>1235.0</ele><time>2026-05-02T12:44:41Z</time></trkpt><trkpt lat="46.119095661170846" lon="11.82200648652393"><ele>1238.0</ele><time>2026-05-02T12:44:42Z</time></trkpt><trkpt lat="46.11916638206451" lon="11.82203522886359"><ele>1241.0</ele><time>2026-05-02T12:44:43Z</time></trkpt><trkpt lat="46.119285375686566" lon="11.822076792128462"><ele>1244.0</ele><time>2026-05-02T12:44:45Z</time></trkpt><trkpt lat="46.119389880618115" lon="11.822009758468486"><ele>1244.0</ele><time>2026-05-02T12:44:47Z</time></trkpt><trkpt lat="46.119457630756656" lon="11.82191600661539"><ele>1244.0</ele><time>2026-05-02T12:44:48Z</time></trkpt><trkpt lat="46.119505862382866" lon="11.821822175926048"><ele>1244.0</ele><time>2026-05-02T12:44:49Z</time></trkpt><trkpt lat="46.11956881932891" lon="11.821699699407642"><ele>1244.0</ele><time>2026-05-02T12:44:51Z</time></trkpt><trkpt lat="46.119622339980126" lon="11.821643836784268"><ele>1244.0</ele><time>2026-05-02T12:44:52.999Z</time></trkpt><trkpt lat="46.11974556286892" lon="11.821641732132122"><ele>1240.8333333333335</ele><time>2026-05-02T12:44:55.999Z</time></trkpt><trkpt lat="46.119824098824914" lon="11.821692563723106"><ele>1237.6666666666667</ele><time>2026-05-02T12:44:56.999Z</time></trkpt><trkpt lat="46.119895647929" lon="11.82179688059015"><ele>1234.5</ele><time>2026-05-02T12:44:57.999Z</time></trkpt><trkpt lat="46.11996930364045" lon="11.82185811332654"><ele>1231.3333333333333</ele><time>2026-05-02T12:44:58.999Z</time></trkpt><trkpt lat="46.12003983391635" lon="11.821925948810275"><ele>1228.1666666666665</ele><time>2026-05-02T12:44:59.999Z</time></trkpt><trkpt lat="46.12010898565065" lon="11.821989136324712"><ele>1225.0</ele><time>2026-05-02T12:45:00.999Z</time></trkpt><trkpt lat="46.12018898343973" lon="11.82204500442959"><ele>1223.2</ele><time>2026-05-02T12:45:01.999Z</time></trkpt><trkpt lat="46.120273027496765" lon="11.822082042279776"><ele>1221.4</ele><time>2026-05-02T12:45:02.999Z</time></trkpt><trkpt lat="46.120361596753355" lon="11.82208142113949"><ele>1219.6</ele><time>2026-05-02T12:45:03.999Z</time></trkpt><trkpt lat="46.120440928283834" lon="11.822063695942216"><ele>1217.8</ele><time>2026-05-02T12:45:04.999Z</time></trkpt><trkpt lat="46.120523885880054" lon="11.822038595185708"><ele>1216.0</ele><time>2026-05-02T12:45:05.999Z</time></trkpt><trkpt lat="46.12065329698372" lon="11.822024226841618"><ele>1212.0</ele><time>2026-05-02T12:45:07.999Z</time></trkpt><trkpt lat="46.12076615795212" lon="11.822110997403744"><ele>1208.0</ele><time>2026-05-02T12:45:09.999Z</time></trkpt><trkpt lat="46.12082225075769" lon="11.822228497887673"><ele>1204.0</ele><time>2026-05-02T12:45:11.999Z</time></trkpt><trkpt lat="46.120957604754445" lon="11.822224332578315"><ele>1200.0</ele><time>2026-05-02T12:45:13.999Z</time></trkpt><trkpt lat="46.12101288506212" lon="11.822175548951213"><ele>1196.0</ele><time>2026-05-02T12:45:14.999Z</time></trkpt><trkpt lat="46.121080010380936" lon="11.822064722666116"><ele>1196.0</ele><time>2026-05-02T12:45:16.999Z</time></trkpt><trkpt lat="46.12115391272107" lon="11.822093109011458"><ele>1196.0</ele><time>2026-05-02T12:45:18.999Z</time></trkpt><trkpt lat="46.12114719875568" lon="11.822186637806118"><ele>1196.0</ele><time>2026-05-02T12:45:19.999Z</time></trkpt><trkpt lat="46.12106180286766" lon="11.822281623816469"><ele>1196.0</ele><time>2026-05-02T12:45:21.999Z</time></trkpt><trkpt lat="46.120989960884536" lon="11.822330208271874"><ele>1196.0</ele><time>2026-05-02T12:45:22.999Z</time></trkpt><trkpt lat="46.120927910357125" lon="11.822384094874064"><ele>1196.0</ele><time>2026-05-02T12:45:23.999Z</time></trkpt><trkpt lat="46.12085484203699" lon="11.822436638550858"><ele>1196.0</ele><time>2026-05-02T12:45:24.999Z</time></trkpt><trkpt lat="46.12078582944926" lon="11.822483164107016"><ele>1196.0</ele><time>2026-05-02T12:45:25.999Z</time></trkpt><trkpt lat="46.12071919648079" lon="11.822539960918611"><ele>1196.0</ele><time>2026-05-02T12:45:26.999Z</time></trkpt><trkpt lat="46.12064840877271" lon="11.82269379604922"><ele>1196.0</ele><time>2026-05-02T12:45:28.999Z</time></trkpt><trkpt lat="46.12067598688486" lon="11.822865196671323"><ele>1196.0</ele><time>2026-05-02T12:45:30.999Z</time></trkpt><trkpt lat="46.12071672189643" lon="11.822943060786818"><ele>1201.5</ele><time>2026-05-02T12:45:31.999Z</time></trkpt><trkpt lat="46.12077809907182" lon="11.822986398717271"><ele>1207.0</ele><time>2026-05-02T12:45:32.999Z</time></trkpt><trkpt lat="46.12084785261928" lon="11.82302464665161"><ele>1212.5</ele><time>2026-05-02T12:45:33.999Z</time></trkpt><trkpt lat="46.12092965139956" lon="11.823058675068955"><ele>1218.0</ele><time>2026-05-02T12:45:34.999Z</time></trkpt><trkpt lat="46.120997691229256" lon="11.823098179873377"><ele>1223.5</ele><time>2026-05-02T12:45:35.999Z</time></trkpt><trkpt lat="46.12106525366257" lon="11.823153151196093"><ele>1229.0</ele><time>2026-05-02T12:45:36.999Z</time></trkpt><trkpt lat="46.12113478087545" lon="11.823192926878065"><ele>1229.0000000000002</ele><time>2026-05-02T12:45:37.999Z</time></trkpt><trkpt lat="46.12119957910153" lon="11.823233816846134"><ele>1229.0</ele><time>2026-05-02T12:45:38.999Z</time></trkpt><trkpt lat="46.121263118591884" lon="11.823267211219905"><ele>1229.0</ele><time>2026-05-02T12:45:39.999Z</time></trkpt><trkpt lat="46.12133223806247" lon="11.823298317919374"><ele>1229.0</ele><time>2026-05-02T12:45:40.999Z</time></trkpt><trkpt lat="46.121405048236866" lon="11.823330214681278"><ele>1229.0</ele><time>2026-05-02T12:45:41.999Z</time></trkpt><trkpt lat="46.12147380960283" lon="11.823355719074284"><ele>1229.0000000000002</ele><time>2026-05-02T12:45:42.999Z</time></trkpt><trkpt lat="46.121562448695215" lon="11.823385845179583"><ele>1229.0</ele><time>2026-05-02T12:45:43.999Z</time></trkpt><trkpt lat="46.121644503543344" lon="11.823413733355034"><ele>1229.0</ele><time>2026-05-02T12:45:44.999Z</time></trkpt><trkpt lat="46.121712226457596" lon="11.823439077265393"><ele>1229.0</ele><time>2026-05-02T12:45:45.999Z</time></trkpt><trkpt lat="46.12177538959561" lon="11.823466367949251"><ele>1229.0</ele><time>2026-05-02T12:45:46.999Z</time></trkpt><trkpt lat="46.12184620915949" lon="11.823502536089572"><ele>1229.0</ele><time>2026-05-02T12:45:47.999Z</time></trkpt><trkpt lat="46.121908840509974" lon="11.823538601546558"><ele>1229.0</ele><time>2026-05-02T12:45:48.999Z</time></trkpt><trkpt lat="46.12201907616782" lon="11.823621222402927"><ele>1229.0</ele><time>2026-05-02T12:45:50.999Z</time></trkpt><trkpt lat="46.1220859437778" lon="11.823674671116946"><ele>1226.1666666666667</ele><time>2026-05-02T12:45:51.999Z</time></trkpt><trkpt lat="46.12215000834411" lon="11.823727245138"><ele>1223.3333333333335</ele><time>2026-05-02T12:45:52.999Z</time></trkpt><trkpt lat="46.122208409651975" lon="11.823775171912462"><ele>1220.5</ele><time>2026-05-02T12:45:53.999Z</time></trkpt><trkpt lat="46.12226332257895" lon="11.823820053874076"><ele>1217.6666666666667</ele><time>2026-05-02T12:45:54.999Z</time></trkpt><trkpt lat="46.12238488185813" lon="11.823908592981905"><ele>1214.8333333333333</ele><time>2026-05-02T12:45:56.999Z</time></trkpt><trkpt lat="46.1224624068984" lon="11.823950281994925"><ele>1212.0</ele><time>2026-05-02T12:45:57.998Z</time></trkpt><trkpt lat="46.122554567807775" lon="11.82399626419873"><ele>1212.0</ele><time>2026-05-02T12:45:58.998Z</time></trkpt><trkpt lat="46.122636304598046" lon="11.824030902574103"><ele>1212.0</ele><time>2026-05-02T12:45:59.998Z</time></trkpt><trkpt lat="46.12273471328743" lon="11.824039734161103"><ele>1212.0</ele><time>2026-05-02T12:46:00.998Z</time></trkpt><trkpt lat="46.12281566526845" lon="11.82407302959783"><ele>1212.0</ele><time>2026-05-02T12:46:01.998Z</time></trkpt><trkpt lat="46.1229035093985" lon="11.824076784360638"><ele>1212.0</ele><time>2026-05-02T12:46:02.998Z</time></trkpt><trkpt lat="46.1230009094802" lon="11.824066103505915"><ele>1212.0</ele><time>2026-05-02T12:46:03.998Z</time></trkpt><trkpt lat="46.12311904293276" lon="11.824026707588152"><ele>1212.0</ele><time>2026-05-02T12:46:06Z</time></trkpt><trkpt lat="46.12319793918625" lon="11.824002206621872"><ele>1212.0</ele><time>2026-05-02T12:46:07Z</time></trkpt><trkpt lat="46.12327022622065" lon="11.823983914485408"><ele>1212.0</ele><time>2026-05-02T12:46:08Z</time></trkpt><trkpt lat="46.12334109477926" lon="11.82396180267906"><ele>1212.0</ele><time>2026-05-02T12:46:09Z</time></trkpt><trkpt lat="46.1234608578735" lon="11.823917218052205"><ele>1207.1666666666667</ele><time>2026-05-02T12:46:11Z</time></trkpt><trkpt lat="46.123541922574674" lon="11.823896904279735"><ele>1202.3333333333333</ele><time>2026-05-02T12:46:12Z</time></trkpt><trkpt lat="46.12362324539676" lon="11.823884470390668"><ele>1197.5</ele><time>2026-05-02T12:46:13Z</time></trkpt><trkpt lat="46.12371882687116" lon="11.82386424024467"><ele>1192.6666666666665</ele><time>2026-05-02T12:46:14Z</time></trkpt><trkpt lat="46.12380732514063" lon="11.823851558705691"><ele>1187.8333333333333</ele><time>2026-05-02T12:46:15Z</time></trkpt><trkpt lat="46.12389932996877" lon="11.82383255156074"><ele>1183.0</ele><time>2026-05-02T12:46:16Z</time></trkpt><trkpt lat="46.123991164552166" lon="11.823816981611799"><ele>1180.8333333333333</ele><time>2026-05-02T12:46:17Z</time></trkpt><trkpt lat="46.12408342728659" lon="11.823802470166298"><ele>1178.6666666666665</ele><time>2026-05-02T12:46:18Z</time></trkpt><trkpt lat="46.12417363284629" lon="11.823787504318855"><ele>1176.5</ele><time>2026-05-02T12:46:19Z</time></trkpt><trkpt lat="46.12424752323973" lon="11.823772618162216"><ele>1174.3333333333333</ele><time>2026-05-02T12:46:20Z</time></trkpt><trkpt lat="46.124325472813865" lon="11.823783788398941"><ele>1172.1666666666667</ele><time>2026-05-02T12:46:21Z</time></trkpt><trkpt lat="46.12441083068964" lon="11.823772324526908"><ele>1170.0</ele><time>2026-05-02T12:46:22Z</time></trkpt><trkpt lat="46.12451027255501" lon="11.823758969118469"><ele>1170.0</ele><time>2026-05-02T12:46:23Z</time></trkpt><trkpt lat="46.124596371783994" lon="11.823747405681287"><ele>1170.0</ele><time>2026-05-02T12:46:24Z</time></trkpt><trkpt lat="46.12467467636266" lon="11.823736891224003"><ele>1170.0</ele><time>2026-05-02T12:46:25Z</time></trkpt><trkpt lat="46.12475275025657" lon="11.823715738539411"><ele>1170.0</ele><time>2026-05-02T12:46:26Z</time></trkpt><trkpt lat="46.124871947262506" lon="11.823705961494934"><ele>1170.0</ele><time>2026-05-02T12:46:27Z</time></trkpt><trkpt lat="46.12497308920056" lon="11.82372924802515"><ele>1169.1666666666667</ele><time>2026-05-02T12:46:28Z</time></trkpt><trkpt lat="46.12507983287939" lon="11.823711808902434"><ele>1168.3333333333333</ele><time>2026-05-02T12:46:29Z</time></trkpt><trkpt lat="46.12517270660058" lon="11.823714434171148"><ele>1167.5</ele><time>2026-05-02T12:46:30Z</time></trkpt><trkpt lat="46.12524972440806" lon="11.823708115453073"><ele>1166.6666666666665</ele><time>2026-05-02T12:46:31Z</time></trkpt><trkpt lat="46.12532488791456" lon="11.823678171242301"><ele>1165.8333333333333</ele><time>2026-05-02T12:46:32Z</time></trkpt><trkpt lat="46.12541429442934" lon="11.823657164904464"><ele>1165.0</ele><time>2026-05-02T12:46:33Z</time></trkpt><trkpt lat="46.125490493564975" lon="11.82365384106273"><ele>1165.0</ele><time>2026-05-02T12:46:34Z</time></trkpt><trkpt lat="46.12558892478176" lon="11.82362940406703"><ele>1165.0</ele><time>2026-05-02T12:46:35Z</time></trkpt><trkpt lat="46.125668872366525" lon="11.82361855187945"><ele>1165.0</ele><time>2026-05-02T12:46:36Z</time></trkpt><trkpt lat="46.125758630012285" lon="11.823607173070306"><ele>1165.0</ele><time>2026-05-02T12:46:37Z</time></trkpt><trkpt lat="46.125842316329326" lon="11.823620431324304"><ele>1165.0</ele><time>2026-05-02T12:46:37.999Z</time></trkpt><trkpt lat="46.125924838026656" lon="11.823626581423369"><ele>1165.0</ele><time>2026-05-02T12:46:38.999Z</time></trkpt><trkpt lat="46.12601112745966" lon="11.823629618791953"><ele>1165.8333333333333</ele><time>2026-05-02T12:46:39.999Z</time></trkpt><trkpt lat="46.12608614834063" lon="11.82363985446985"><ele>1166.6666666666665</ele><time>2026-05-02T12:46:40.999Z</time></trkpt><trkpt lat="46.12616744898363" lon="11.823640045318404"><ele>1167.5</ele><time>2026-05-02T12:46:41.999Z</time></trkpt><trkpt lat="46.12624733520712" lon="11.823635540427842"><ele>1168.3333333333333</ele><time>2026-05-02T12:46:42.999Z</time></trkpt><trkpt lat="46.126326320092474" lon="11.823619674542153"><ele>1169.1666666666667</ele><time>2026-05-02T12:46:43.999Z</time></trkpt><trkpt lat="46.12639755939415" lon="11.823590056792508"><ele>1170.0</ele><time>2026-05-02T12:46:44.999Z</time></trkpt><trkpt lat="46.12646530158486" lon="11.823557837947536"><ele>1170.0</ele><time>2026-05-02T12:46:45.999Z</time></trkpt><trkpt lat="46.126546315316894" lon="11.823490233280591"><ele>1170.0</ele><time>2026-05-02T12:46:46.999Z</time></trkpt><trkpt lat="46.12659939885357" lon="11.82338586986921"><ele>1170.0</ele><time>2026-05-02T12:46:47.999Z</time></trkpt><trkpt lat="46.12666576782113" lon="11.823291520022476"><ele>1170.0</ele><time>2026-05-02T12:46:48.999Z</time></trkpt><trkpt lat="46.126727049260616" lon="11.823214561404532"><ele>1170.0</ele><time>2026-05-02T12:46:49.999Z</time></trkpt><trkpt lat="46.12679810242883" lon="11.823142597539332"><ele>1170.0</ele><time>2026-05-02T12:46:50.999Z</time></trkpt><trkpt lat="46.12685891642639" lon="11.823080601629282"><ele>1160.8</ele><time>2026-05-02T12:46:51.999Z</time></trkpt><trkpt lat="46.12691622037621" lon="11.823021049094287"><ele>1151.6</ele><time>2026-05-02T12:46:52.999Z</time></trkpt><trkpt lat="46.12700299238539" lon="11.822928005064917"><ele>1142.4</ele><time>2026-05-02T12:46:54.999Z</time></trkpt><trkpt lat="46.127101043536925" lon="11.822853441482426"><ele>1133.2</ele><time>2026-05-02T12:46:56.999Z</time></trkpt><trkpt lat="46.1271805123078" lon="11.822811964231574"><ele>1124.0</ele><time>2026-05-02T12:46:58.999Z</time></trkpt><trkpt lat="46.127258886614136" lon="11.822780619123476"><ele>1124.0</ele><time>2026-05-02T12:47:00.999Z</time></trkpt><trkpt lat="46.12733943447752" lon="11.82275708082318"><ele>1124.0</ele><time>2026-05-02T12:47:02.999Z</time></trkpt><trkpt lat="46.12741483691516" lon="11.822757327244709"><ele>1124.0</ele><time>2026-05-02T12:50:47Z</time></trkpt><trkpt lat="46.12748884992035" lon="11.822747358041838"><ele>1124.0</ele><time>2026-05-02T12:50:49Z</time></trkpt><trkpt lat="46.1275615422738" lon="11.822757826677803"><ele>1124.0</ele><time>2026-05-02T12:50:51Z</time></trkpt><trkpt lat="46.127651704495975" lon="11.822763768712987"><ele>1124.0</ele><time>2026-05-02T12:50:53Z</time></trkpt><trkpt lat="46.127739803185506" lon="11.822791870526826"><ele>1126.0</ele><time>2026-05-02T12:50:54.999Z</time></trkpt><trkpt lat="46.12784627448628" lon="11.82282415947736"><ele>1128.0</ele><time>2026-05-02T12:50:56.999Z</time></trkpt><trkpt lat="46.12790685705299" lon="11.82285669019725"><ele>1130.0</ele><time>2026-05-02T12:50:57.999Z</time></trkpt><trkpt lat="46.127976637249795" lon="11.822891375816532"><ele>1132.0</ele><time>2026-05-02T12:50:58.999Z</time></trkpt><trkpt lat="46.128044706306135" lon="11.822930324607889"><ele>1134.0</ele><time>2026-05-02T12:50:59.999Z</time></trkpt><trkpt lat="46.128127776600486" lon="11.822968122682681"><ele>1136.0</ele><time>2026-05-02T12:51:00.999Z</time></trkpt><trkpt lat="46.128221627395405" lon="11.822984579232287"><ele>1137.2</ele><time>2026-05-02T12:51:01.999Z</time></trkpt><trkpt lat="46.12830224115547" lon="11.822979740686593"><ele>1138.3999999999999</ele><time>2026-05-02T12:51:02.999Z</time></trkpt><trkpt lat="46.12839473666032" lon="11.822968939168533"><ele>1139.6</ele><time>2026-05-02T12:51:03.999Z</time></trkpt><trkpt lat="46.128495659900516" lon="11.822953766318133"><ele>1140.8</ele><time>2026-05-02T12:51:04.999Z</time></trkpt><trkpt lat="46.12860716480785" lon="11.82294372910933"><ele>1142.0</ele><time>2026-05-02T12:51:05.999Z</time></trkpt><trkpt lat="46.12871838057544" lon="11.822905717284652"><ele>1142.0</ele><time>2026-05-02T12:51:06.999Z</time></trkpt><trkpt lat="46.12881443207755" lon="11.822853255030147"><ele>1142.0</ele><time>2026-05-02T12:51:07.999Z</time></trkpt><trkpt lat="46.12891686401178" lon="11.822789888557407"><ele>1142.0</ele><time>2026-05-02T12:51:08.999Z</time></trkpt><trkpt lat="46.12900973563356" lon="11.822732004292645"><ele>1142.0</ele><time>2026-05-02T12:51:09.999Z</time></trkpt><trkpt lat="46.12909806882326" lon="11.822683557414114"><ele>1142.0</ele><time>2026-05-02T12:51:10.999Z</time></trkpt><trkpt lat="46.129186790060274" lon="11.822643294171352"><ele>1137.3333333333335</ele><time>2026-05-02T12:51:11.999Z</time></trkpt><trkpt lat="46.12926392245313" lon="11.822621322262554"><ele>1132.6666666666667</ele><time>2026-05-02T12:51:12.999Z</time></trkpt><trkpt lat="46.129357108896855" lon="11.822603510999175"><ele>1128.0</ele><time>2026-05-02T12:51:13.999Z</time></trkpt><trkpt lat="46.12942637431044" lon="11.822591660480121"><ele>1123.3333333333333</ele><time>2026-05-02T12:51:14.999Z</time></trkpt><trkpt lat="46.129491411235065" lon="11.82258650920944"><ele>1118.6666666666665</ele><time>2026-05-02T12:51:15.999Z</time></trkpt><trkpt lat="46.12956512834627" lon="11.822586363223568"><ele>1114.0</ele><time>2026-05-02T12:51:16.999Z</time></trkpt><trkpt lat="46.129650415586305" lon="11.82259070132339"><ele>1114.0</ele><time>2026-05-02T12:51:17.999Z</time></trkpt><trkpt lat="46.129749151749465" lon="11.822605849317373"><ele>1114.0</ele><time>2026-05-02T12:51:18.999Z</time></trkpt><trkpt lat="46.12983442048538" lon="11.822625376788626"><ele>1114.0</ele><time>2026-05-02T12:51:19.999Z</time></trkpt><trkpt lat="46.12989827537416" lon="11.822646806756909"><ele>1114.0</ele><time>2026-05-02T12:51:20.999Z</time></trkpt><trkpt lat="46.13001510665008" lon="11.822705356347816"><ele>1114.0</ele><time>2026-05-02T12:51:22.999Z</time></trkpt><trkpt lat="46.130104010423764" lon="11.822819214956192"><ele>1118.2</ele><time>2026-05-02T12:51:24.999Z</time></trkpt><trkpt lat="46.130123100241796" lon="11.82296808467831"><ele>1122.4</ele><time>2026-05-02T12:51:26.999Z</time></trkpt><trkpt lat="46.13010418725719" lon="11.82316455725058"><ele>1126.6</ele><time>2026-05-02T12:51:28.999Z</time></trkpt><trkpt lat="46.13008107572322" lon="11.823283071967962"><ele>1130.8</ele><time>2026-05-02T12:51:29.999Z</time></trkpt><trkpt lat="46.13004705413498" lon="11.823408260486074"><ele>1135.0</ele><time>2026-05-02T12:51:30.999Z</time></trkpt><trkpt lat="46.13001144957951" lon="11.823549426606425"><ele>1136.6</ele><time>2026-05-02T12:51:31.999Z</time></trkpt><trkpt lat="46.1299833293314" lon="11.82368351804523"><ele>1138.2</ele><time>2026-05-02T12:51:32.999Z</time></trkpt><trkpt lat="46.1299628774216" lon="11.823848776193651"><ele>1139.8</ele><time>2026-05-02T12:51:33.999Z</time></trkpt><trkpt lat="46.12997796410715" lon="11.82398763002725"><ele>1141.4</ele><time>2026-05-02T12:51:34.999Z</time></trkpt><trkpt lat="46.12996454216951" lon="11.824098348097145"><ele>1143.0</ele><time>2026-05-02T12:51:35.999Z</time></trkpt><trkpt lat="46.12998488435174" lon="11.824200716921618"><ele>1143.0</ele><time>2026-05-02T12:51:36.999Z</time></trkpt><trkpt lat="46.129989678087554" lon="11.824307445188508"><ele>1143.0</ele><time>2026-05-02T12:51:37.999Z</time></trkpt><trkpt lat="46.12998437429067" lon="11.82444525260461"><ele>1143.0</ele><time>2026-05-02T12:51:38.999Z</time></trkpt><trkpt lat="46.12998814459049" lon="11.824609066544985"><ele>1143.0</ele><time>2026-05-02T12:51:40.999Z</time></trkpt><trkpt lat="46.129962978515195" lon="11.824775185030402"><ele>1143.0</ele><time>2026-05-02T12:51:42.999Z</time></trkpt><trkpt lat="46.12995533412842" lon="11.824882596406347"><ele>1145.5</ele><time>2026-05-02T12:51:43.999Z</time></trkpt><trkpt lat="46.12991195459111" lon="11.824978151000323"><ele>1148.0</ele><time>2026-05-02T12:51:44.999Z</time></trkpt><trkpt lat="46.129919105037075" lon="11.82506864625795"><ele>1150.5</ele><time>2026-05-02T12:51:45.999Z</time></trkpt><trkpt lat="46.12990187209281" lon="11.82516660340572"><ele>1153.0</ele><time>2026-05-02T12:51:46.999Z</time></trkpt><trkpt lat="46.129946136629535" lon="11.82529854297232"><ele>1155.5</ele><time>2026-05-02T12:51:48.999Z</time></trkpt><trkpt lat="46.13001137222995" lon="11.82539120838207"><ele>1158.0</ele><time>2026-05-02T12:51:49.999Z</time></trkpt><trkpt lat="46.130076115150146" lon="11.825504123906226"><ele>1163.4</ele><time>2026-05-02T12:51:50.999Z</time></trkpt><trkpt lat="46.13013635579983" lon="11.825595365050342"><ele>1168.8</ele><time>2026-05-02T12:51:51.999Z</time></trkpt><trkpt lat="46.130201021147016" lon="11.825688674803544"><ele>1174.2</ele><time>2026-05-02T12:51:52.999Z</time></trkpt><trkpt lat="46.13027948820157" lon="11.825779376400735"><ele>1179.6</ele><time>2026-05-02T12:51:54.999Z</time></trkpt><trkpt lat="46.130388065204706" lon="11.825870837907289"><ele>1185.0</ele><time>2026-05-02T12:51:56.999Z</time></trkpt><trkpt lat="46.13044775683374" lon="11.82592444849736"><ele>1184.6</ele><time>2026-05-02T12:51:57.999Z</time></trkpt><trkpt lat="46.130512430184204" lon="11.82599505938602"><ele>1184.2</ele><time>2026-05-02T12:51:58.998Z</time></trkpt><trkpt lat="46.13057821919749" lon="11.826081279856261"><ele>1183.8</ele><time>2026-05-02T12:51:59.998Z</time></trkpt><trkpt lat="46.13065030055325" lon="11.826171025569172"><ele>1183.4</ele><time>2026-05-02T12:52:00.998Z</time></trkpt><trkpt lat="46.130713477759954" lon="11.826238439424193"><ele>1183.0</ele><time>2026-05-02T12:52:01.998Z</time></trkpt><trkpt lat="46.130828799561975" lon="11.82631673946662"><ele>1183.0</ele><time>2026-05-02T12:52:03.998Z</time></trkpt><trkpt lat="46.13091659668172" lon="11.826344947092755"><ele>1183.0</ele><time>2026-05-02T12:52:04.998Z</time></trkpt><trkpt lat="46.13101562310699" lon="11.826362248044745"><ele>1183.0</ele><time>2026-05-02T12:52:05.998Z</time></trkpt><trkpt lat="46.13111907630052" lon="11.826364447020888"><ele>1183.0</ele><time>2026-05-02T12:52:06.998Z</time></trkpt><trkpt lat="46.13120484910186" lon="11.82640168652795"><ele>1183.0</ele><time>2026-05-02T12:52:07.998Z</time></trkpt><trkpt lat="46.131301576075074" lon="11.826423714681342"><ele>1183.0</ele><time>2026-05-02T12:52:08.998Z</time></trkpt><trkpt lat="46.13138349266034" lon="11.82643964854021"><ele>1183.0</ele><time>2026-05-02T12:52:09.998Z</time></trkpt><trkpt lat="46.13147502469802" lon="11.826455689386648"><ele>1183.0</ele><time>2026-05-02T12:52:10.998Z</time></trkpt><trkpt lat="46.13154533516177" lon="11.826503477372846"><ele>1183.0</ele><time>2026-05-02T12:52:11.998Z</time></trkpt><trkpt lat="46.131615584159" lon="11.826550125323148"><ele>1183.0</ele><time>2026-05-02T12:52:12.998Z</time></trkpt><trkpt lat="46.13170174267701" lon="11.826664206749033"><ele>1183.0</ele><time>2026-05-02T12:52:14.998Z</time></trkpt><trkpt lat="46.13175940952874" lon="11.826813119324008"><ele>1178.2</ele><time>2026-05-02T12:52:16.998Z</time></trkpt><trkpt lat="46.13178417822216" lon="11.826962022476543"><ele>1173.4</ele><time>2026-05-02T12:52:18.998Z</time></trkpt><trkpt lat="46.13182464723661" lon="11.8271245703801"><ele>1168.6000000000001</ele><time>2026-05-02T12:52:20.998Z</time></trkpt><trkpt lat="46.13183388104723" lon="11.827220438929805"><ele>1163.8</ele><time>2026-05-02T12:52:21.998Z</time></trkpt><trkpt lat="46.13184538580365" lon="11.827404951011776"><ele>1159.0</ele><time>2026-05-02T12:52:23.999Z</time></trkpt><trkpt lat="46.13185129776266" lon="11.827518731891486"><ele>1157.5</ele><time>2026-05-02T12:52:24.999Z</time></trkpt><trkpt lat="46.131887605885666" lon="11.827697586958529"><ele>1156.0</ele><time>2026-05-02T12:52:26.999Z</time></trkpt><trkpt lat="46.13188635542259" lon="11.827875834284244"><ele>1154.5</ele><time>2026-05-02T12:52:28.999Z</time></trkpt><trkpt lat="46.13187786952977" lon="11.82803932869949"><ele>1153.0</ele><time>2026-05-02T12:52:30.999Z</time></trkpt><trkpt lat="46.131840806677936" lon="11.828176200316934"><ele>1153.0</ele><time>2026-05-02T12:52:32.999Z</time></trkpt><trkpt lat="46.13179807870935" lon="11.828274533067344"><ele>1153.0</ele><time>2026-05-02T12:52:33.999Z</time></trkpt><trkpt lat="46.13173725808253" lon="11.82838965917934"><ele>1153.0</ele><time>2026-05-02T12:52:34.999Z</time></trkpt><trkpt lat="46.13168513088291" lon="11.828498268957867"><ele>1153.0</ele><time>2026-05-02T12:52:35.999Z</time></trkpt><trkpt lat="46.131649199970575" lon="11.82859757622694"><ele>1153.0</ele><time>2026-05-02T12:52:36.999Z</time></trkpt><trkpt lat="46.13163150785135" lon="11.828702697080422"><ele>1153.0</ele><time>2026-05-02T12:52:37.999Z</time></trkpt><trkpt lat="46.131617436935855" lon="11.828806681781364"><ele>1152.3333333333333</ele><time>2026-05-02T12:52:38.999Z</time></trkpt><trkpt lat="46.13161614498407" lon="11.828929802040031"><ele>1151.6666666666665</ele><time>2026-05-02T12:52:39.999Z</time></trkpt><trkpt lat="46.13164355862136" lon="11.829027918345469"><ele>1151.0</ele><time>2026-05-02T12:52:40.999Z</time></trkpt><trkpt lat="46.131667933818605" lon="11.829148249821635"><ele>1150.3333333333333</ele><time>2026-05-02T12:52:41.999Z</time></trkpt><trkpt lat="46.13172867944254" lon="11.829246293940972"><ele>1149.6666666666667</ele><time>2026-05-02T12:52:42.999Z</time></trkpt><trkpt lat="46.13178562342375" lon="11.829340151245386"><ele>1149.0</ele><time>2026-05-02T12:52:43.999Z</time></trkpt><trkpt lat="46.13184892981722" lon="11.82944731894841"><ele>1148.5</ele><time>2026-05-02T12:52:44.999Z</time></trkpt><trkpt lat="46.131896032169415" lon="11.829541348858154"><ele>1148.0</ele><time>2026-05-02T12:52:45.999Z</time></trkpt><trkpt lat="46.131929376642056" lon="11.829633986103415"><ele>1147.5</ele><time>2026-05-02T12:52:46.999Z</time></trkpt><trkpt lat="46.13195991238428" lon="11.829794079180294"><ele>1147.0</ele><time>2026-05-02T12:52:48.999Z</time></trkpt><trkpt lat="46.13191949730277" lon="11.829897122861997"><ele>1146.5</ele><time>2026-05-02T12:52:51.999Z</time></trkpt><trkpt lat="46.1318373566072" lon="11.82995671446638"><ele>1146.0</ele><time>2026-05-02T12:52:52.999Z</time></trkpt><trkpt lat="46.131791038505064" lon="11.830075347150565"><ele>1145.3999999999999</ele><time>2026-05-02T12:52:54.999Z</time></trkpt><trkpt lat="46.131873492212705" lon="11.830229359966271"><ele>1144.8</ele><time>2026-05-02T12:52:56.999Z</time></trkpt><trkpt lat="46.131932387303635" lon="11.830292246069005"><ele>1144.1999999999998</ele><time>2026-05-02T12:52:57.999Z</time></trkpt><trkpt lat="46.13205780160871" lon="11.830417872230637"><ele>1143.6</ele><time>2026-05-02T12:52:59.999Z</time></trkpt><trkpt lat="46.1320953468248" lon="11.830509544905992"><ele>1143.0</ele><time>2026-05-02T12:53:00.999Z</time></trkpt><trkpt lat="46.132123315952576" lon="11.830676551961128"><ele>1143.0</ele><time>2026-05-02T12:53:02.999Z</time></trkpt><trkpt lat="46.132104012771755" lon="11.830764517319464"><ele>1143.0</ele><time>2026-05-02T12:53:03.999Z</time></trkpt><trkpt lat="46.13203124823436" lon="11.8309354452284"><ele>1143.0</ele><time>2026-05-02T12:53:05.999Z</time></trkpt><trkpt lat="46.13197172881329" lon="11.831043797457195"><ele>1143.0</ele><time>2026-05-02T12:53:06.999Z</time></trkpt><trkpt lat="46.1319065187161" lon="11.831165959384892"><ele>1143.0</ele><time>2026-05-02T12:53:07.999Z</time></trkpt><trkpt lat="46.13186363554983" lon="11.831273178955387"><ele>1144.4</ele><time>2026-05-02T12:53:08.999Z</time></trkpt><trkpt lat="46.131832989837875" lon="11.831380233420774"><ele>1145.8</ele><time>2026-05-02T12:53:09.999Z</time></trkpt><trkpt lat="46.13181752499954" lon="11.831484924937152"><ele>1147.2</ele><time>2026-05-02T12:53:10.999Z</time></trkpt><trkpt lat="46.13186162320801" lon="11.831613541925895"><ele>1148.6</ele><time>2026-05-02T12:53:11.999Z</time></trkpt><trkpt lat="46.1319022096184" lon="11.83173543401226"><ele>1150.0</ele><time>2026-05-02T12:53:12.999Z</time></trkpt><trkpt lat="46.131950637303966" lon="11.83186833342048"><ele>1151.0</ele><time>2026-05-02T12:53:13.999Z</time></trkpt><trkpt lat="46.13199781756376" lon="11.8320163849275"><ele>1152.0</ele><time>2026-05-02T12:53:14.999Z</time></trkpt><trkpt lat="46.13203356643102" lon="11.832177698389295"><ele>1153.0</ele><time>2026-05-02T12:53:15.999Z</time></trkpt><trkpt lat="46.13206764513966" lon="11.832334572054272"><ele>1154.0</ele><time>2026-05-02T12:53:16.999Z</time></trkpt><trkpt lat="46.13211764794481" lon="11.832474658910543"><ele>1154.0</ele><time>2026-05-02T12:53:17.999Z</time></trkpt><trkpt lat="46.13220185300443" lon="11.832587994899788"><ele>1154.0</ele><time>2026-05-02T12:53:18.999Z</time></trkpt><trkpt lat="46.132268561830486" lon="11.83270606720624"><ele>1154.0</ele><time>2026-05-02T12:53:19.999Z</time></trkpt><trkpt lat="46.1323257114092" lon="11.832810685437506"><ele>1154.0</ele><time>2026-05-02T12:53:20.999Z</time></trkpt><trkpt lat="46.13234210940882" lon="11.83291766301673"><ele>1154.0</ele><time>2026-05-02T12:53:21.999Z</time></trkpt><trkpt lat="46.13236310335676" lon="11.833005105509722"><ele>1154.5</ele><time>2026-05-02T12:53:22.999Z</time></trkpt><trkpt lat="46.132379289143216" lon="11.833097188889418"><ele>1155.0</ele><time>2026-05-02T12:53:23.999Z</time></trkpt><trkpt lat="46.13236548091783" lon="11.833189334149056"><ele>1155.5</ele><time>2026-05-02T12:53:24.999Z</time></trkpt><trkpt lat="46.13234264900742" lon="11.833306617631019"><ele>1156.0</ele><time>2026-05-02T12:53:25.999Z</time></trkpt><trkpt lat="46.132308913129265" lon="11.833444464197116"><ele>1156.5</ele><time>2026-05-02T12:53:26.999Z</time></trkpt><trkpt lat="46.13226494831299" lon="11.833592974590267"><ele>1157.0</ele><time>2026-05-02T12:53:27.999Z</time></trkpt><trkpt lat="46.13222815199255" lon="11.833756255733443"><ele>1153.25</ele><time>2026-05-02T12:53:28.999Z</time></trkpt><trkpt lat="46.13215131169787" lon="11.833902871309327"><ele>1149.5</ele><time>2026-05-02T12:53:29.999Z</time></trkpt><trkpt lat="46.13206909041127" lon="11.834070912303416"><ele>1145.75</ele><time>2026-05-02T12:53:30.999Z</time></trkpt><trkpt lat="46.13197927951955" lon="11.834231403229623"><ele>1142.0</ele><time>2026-05-02T12:53:31.999Z</time></trkpt><trkpt lat="46.131899270550484" lon="11.834381411195235"><ele>1135.0</ele><time>2026-05-02T12:53:32.999Z</time></trkpt><trkpt lat="46.131823068070176" lon="11.83454240634855"><ele>1128.0</ele><time>2026-05-02T12:53:33.999Z</time></trkpt><trkpt lat="46.131743368739116" lon="11.834710398492366"><ele>1121.0</ele><time>2026-05-02T12:53:34.999Z</time></trkpt><trkpt lat="46.13166337671719" lon="11.83490082881148"><ele>1114.0</ele><time>2026-05-02T12:53:35.999Z</time></trkpt><trkpt lat="46.13157976089995" lon="11.835093371731878"><ele>1123.5</ele><time>2026-05-02T12:53:36.999Z</time></trkpt><trkpt lat="46.13149671562781" lon="11.835273590398822"><ele>1133.0</ele><time>2026-05-02T12:53:37.999Z</time></trkpt><trkpt lat="46.131421967087775" lon="11.835448032749689"><ele>1142.5</ele><time>2026-05-02T12:53:38.999Z</time></trkpt><trkpt lat="46.131344405363606" lon="11.835631026361803"><ele>1152.0</ele><time>2026-05-02T12:53:39.999Z</time></trkpt><trkpt lat="46.13127252910498" lon="11.835803273643394"><ele>1152.0</ele><time>2026-05-02T12:53:40.999Z</time></trkpt><trkpt lat="46.13120781904538" lon="11.835966553011945"><ele>1152.0</ele><time>2026-05-02T12:53:41.999Z</time></trkpt><trkpt lat="46.13115279488607" lon="11.836116812131099"><ele>1152.0</ele><time>2026-05-02T12:53:42.999Z</time></trkpt><trkpt lat="46.131119213921224" lon="11.836264345391694"><ele>1152.0</ele><time>2026-05-02T12:53:43.999Z</time></trkpt><trkpt lat="46.13106695167332" lon="11.836400800717398"><ele>1147.8</ele><time>2026-05-02T12:53:44.999Z</time></trkpt><trkpt lat="46.131020665615665" lon="11.836566113724285"><ele>1143.6</ele><time>2026-05-02T12:53:45.999Z</time></trkpt><trkpt lat="46.130997255799734" lon="11.836733539279338"><ele>1139.3999999999999</ele><time>2026-05-02T12:53:46.999Z</time></trkpt><trkpt lat="46.130960197204814" lon="11.836874427278373"><ele>1135.2</ele><time>2026-05-02T12:53:47.999Z</time></trkpt><trkpt lat="46.13094335336779" lon="11.837011762438436"><ele>1131.0</ele><time>2026-05-02T12:53:48.999Z</time></trkpt><trkpt lat="46.130932811636754" lon="11.837134387202687"><ele>1130.2</ele><time>2026-05-02T12:53:49.999Z</time></trkpt><trkpt lat="46.13094461800486" lon="11.837251039462654"><ele>1129.3999999999999</ele><time>2026-05-02T12:53:50.999Z</time></trkpt><trkpt lat="46.130947393897074" lon="11.837378423549108"><ele>1128.6</ele><time>2026-05-02T12:53:51.999Z</time></trkpt><trkpt lat="46.13095455325185" lon="11.837534311910638"><ele>1127.8</ele><time>2026-05-02T12:53:52.999Z</time></trkpt><trkpt lat="46.131002368599255" lon="11.83768650882567"><ele>1127.0</ele><time>2026-05-02T12:53:53.999Z</time></trkpt><trkpt lat="46.13105256275464" lon="11.837854030466486"><ele>1127.0</ele><time>2026-05-02T12:53:54.999Z</time></trkpt><trkpt lat="46.131111889854395" lon="11.837989330124978"><ele>1127.0</ele><time>2026-05-02T12:53:55.999Z</time></trkpt><trkpt lat="46.13118064840722" lon="11.838135915601788"><ele>1127.0</ele><time>2026-05-02T12:53:56.999Z</time></trkpt><trkpt lat="46.13125137840217" lon="11.838254588158565"><ele>1127.0</ele><time>2026-05-02T12:53:57.999Z</time></trkpt><trkpt lat="46.13130347043111" lon="11.838376004029888"><ele>1127.0</ele><time>2026-05-02T12:53:58.998Z</time></trkpt><trkpt lat="46.131359439514014" lon="11.838478169761437"><ele>1127.0</ele><time>2026-05-02T12:53:59.998Z</time></trkpt><trkpt lat="46.13140538314289" lon="11.838601558484674"><ele>1127.0</ele><time>2026-05-02T12:54:00.998Z</time></trkpt><trkpt lat="46.131447887069555" lon="11.838686130416283"><ele>1127.0</ele><time>2026-05-02T12:54:01.998Z</time></trkpt><trkpt lat="46.13148576617926" lon="11.838778399719299"><ele>1127.0</ele><time>2026-05-02T12:54:02.998Z</time></trkpt><trkpt lat="46.13151920522829" lon="11.838941463157367"><ele>1127.0</ele><time>2026-05-02T12:54:04.998Z</time></trkpt><trkpt lat="46.13152576656312" lon="11.8390497224745"><ele>1127.0</ele><time>2026-05-02T12:54:05.998Z</time></trkpt><trkpt lat="46.131526130286936" lon="11.839176636435305"><ele>1127.0</ele><time>2026-05-02T12:54:06.998Z</time></trkpt><trkpt lat="46.13151725125959" lon="11.839287758011572"><ele>1127.0</ele><time>2026-05-02T12:54:07.998Z</time></trkpt><trkpt lat="46.131474807238654" lon="11.839372851829673"><ele>1127.0</ele><time>2026-05-02T12:54:08.998Z</time></trkpt><trkpt lat="46.13145076256279" lon="11.839460921304553"><ele>1127.0</ele><time>2026-05-02T12:54:09.998Z</time></trkpt><trkpt lat="46.13135972888042" lon="11.839521227462566"><ele>1127.0</ele><time>2026-05-02T12:54:11.998Z</time></trkpt><trkpt lat="46.13127717988538" lon="11.83962066369824"><ele>1127.0</ele><time>2026-05-02T12:54:13.998Z</time></trkpt><trkpt lat="46.1312279831823" lon="11.839690804375016"><ele>1126.8</ele><time>2026-05-02T12:54:14.998Z</time></trkpt><trkpt lat="46.13119224038913" lon="11.839771862530398"><ele>1126.6</ele><time>2026-05-02T12:54:15.998Z</time></trkpt><trkpt lat="46.13118378736889" lon="11.839876522383278"><ele>1126.3999999999999</ele><time>2026-05-02T12:54:16.998Z</time></trkpt><trkpt lat="46.13119749952757" lon="11.840020318751458"><ele>1126.2</ele><time>2026-05-02T12:54:18.998Z</time></trkpt><trkpt lat="46.13127414839848" lon="11.840172222893377"><ele>1126.0</ele><time>2026-05-02T12:54:20.998Z</time></trkpt><trkpt lat="46.13135785184336" lon="11.84020948715058"><ele>1126.0</ele><time>2026-05-02T12:54:21.998Z</time></trkpt><trkpt lat="46.13141616770305" lon="11.840274733841046"><ele>1126.0</ele><time>2026-05-02T12:54:22.998Z</time></trkpt><trkpt lat="46.13145899617873" lon="11.840356041898135"><ele>1126.0</ele><time>2026-05-02T12:54:23.998Z</time></trkpt><trkpt lat="46.13149252902559" lon="11.840434632877443"><ele>1126.0</ele><time>2026-05-02T12:54:24.998Z</time></trkpt><trkpt lat="46.13153650815132" lon="11.840607403526576"><ele>1126.0</ele><time>2026-05-02T12:54:26.998Z</time></trkpt><trkpt lat="46.13150959691775" lon="11.840703874596725"><ele>1126.0</ele><time>2026-05-02T12:54:27.998Z</time></trkpt><trkpt lat="46.13142530919068" lon="11.840860288552626"><ele>1125.6</ele><time>2026-05-02T12:54:29.999Z</time></trkpt><trkpt lat="46.13137128003622" lon="11.84097424255905"><ele>1125.1999999999998</ele><time>2026-05-02T12:54:30.999Z</time></trkpt><trkpt lat="46.13132445388433" lon="11.841132975791034"><ele>1124.8000000000002</ele><time>2026-05-02T12:54:31.999Z</time></trkpt><trkpt lat="46.131306626653135" lon="11.841295626781132"><ele>1124.4</ele><time>2026-05-02T12:54:32.999Z</time></trkpt><trkpt lat="46.131291580084664" lon="11.841420352556762"><ele>1124.0</ele><time>2026-05-02T12:54:33.999Z</time></trkpt><trkpt lat="46.13127876700343" lon="11.841546176400843"><ele>1124.0</ele><time>2026-05-02T12:54:34.999Z</time></trkpt><trkpt lat="46.131210612259856" lon="11.841659612536468"><ele>1124.0</ele><time>2026-05-02T12:54:35.999Z</time></trkpt><trkpt lat="46.131142855075666" lon="11.84171984129222"><ele>1124.0</ele><time>2026-05-02T12:54:36.999Z</time></trkpt><trkpt lat="46.13108510422424" lon="11.841756998312464"><ele>1124.0</ele><time>2026-05-02T12:54:37.999Z</time></trkpt><trkpt lat="46.13101692635439" lon="11.841807376001885"><ele>1124.0</ele><time>2026-05-02T12:54:38.999Z</time></trkpt><trkpt lat="46.130940711077486" lon="11.841866478472417"><ele>1124.0</ele><time>2026-05-02T12:54:39.999Z</time></trkpt><trkpt lat="46.130872202047506" lon="11.841928917369012"><ele>1125.6000000000001</ele><time>2026-05-02T12:54:40.999Z</time></trkpt><trkpt lat="46.13080516843707" lon="11.841984974607012"><ele>1127.2</ele><time>2026-05-02T12:54:41.999Z</time></trkpt><trkpt lat="46.130733726349064" lon="11.84205419361713"><ele>1128.8000000000002</ele><time>2026-05-02T12:54:42.999Z</time></trkpt><trkpt lat="46.13066462081957" lon="11.842181388160885"><ele>1130.4</ele><time>2026-05-02T12:54:43.999Z</time></trkpt><trkpt lat="46.13064949316512" lon="11.842345767241223"><ele>1132.0</ele><time>2026-05-02T12:54:44.999Z</time></trkpt><trkpt lat="46.13064100489994" lon="11.842495043378523"><ele>1130.0</ele><time>2026-05-02T12:54:45.999Z</time></trkpt><trkpt lat="46.13066322776799" lon="11.842657871645866"><ele>1128.0</ele><time>2026-05-02T12:54:46.999Z</time></trkpt><trkpt lat="46.13064153706578" lon="11.842785073175806"><ele>1126.0</ele><time>2026-05-02T12:54:47.999Z</time></trkpt><trkpt lat="46.13061578864856" lon="11.84288664889621"><ele>1124.0</ele><time>2026-05-02T12:54:48.999Z</time></trkpt><trkpt lat="46.13057782496562" lon="11.84297951236951"><ele>1122.0</ele><time>2026-05-02T12:54:49.999Z</time></trkpt><trkpt lat="46.13053019873218" lon="11.843081120341045"><ele>1120.0</ele><time>2026-05-02T12:54:50.999Z</time></trkpt><trkpt lat="46.13047563072697" lon="11.843171981744675"><ele>1120.0</ele><time>2026-05-02T12:54:51.999Z</time></trkpt><trkpt lat="46.13040645494269" lon="11.843268789544126"><ele>1120.0</ele><time>2026-05-02T12:54:52.999Z</time></trkpt><trkpt lat="46.13032802753351" lon="11.843378631820146"><ele>1120.0</ele><time>2026-05-02T12:54:53.999Z</time></trkpt><trkpt lat="46.1302410643976" lon="11.843491247478804"><ele>1120.0</ele><time>2026-05-02T12:54:54.999Z</time></trkpt><trkpt lat="46.13016281302893" lon="11.843607632156694"><ele>1120.0</ele><time>2026-05-02T12:54:55.999Z</time></trkpt><trkpt lat="46.130092239496484" lon="11.8437161867834"><ele>1118.4</ele><time>2026-05-02T12:54:56.999Z</time></trkpt><trkpt lat="46.13003583105706" lon="11.843820509314426"><ele>1116.8</ele><time>2026-05-02T12:54:57.999Z</time></trkpt><trkpt lat="46.12998210509287" lon="11.843923591346712"><ele>1115.2</ele><time>2026-05-02T12:54:58.999Z</time></trkpt><trkpt lat="46.129930082978774" lon="11.844034978180636"><ele>1113.6</ele><time>2026-05-02T12:54:59.999Z</time></trkpt><trkpt lat="46.129881918516155" lon="11.8441509806623"><ele>1112.0</ele><time>2026-05-02T12:55:00.999Z</time></trkpt><trkpt lat="46.129835803944616" lon="11.84425804362198"><ele>1112.0</ele><time>2026-05-02T12:55:01.999Z</time></trkpt><trkpt lat="46.12979036402323" lon="11.844353463928087"><ele>1112.0</ele><time>2026-05-02T12:55:02.999Z</time></trkpt><trkpt lat="46.129788922146595" lon="11.844503761624281"><ele>1112.0</ele><time>2026-05-02T12:55:04.999Z</time></trkpt><trkpt lat="46.12982814599312" lon="11.844582813065028"><ele>1112.0</ele><time>2026-05-02T12:55:05.999Z</time></trkpt><trkpt lat="46.129908733615906" lon="11.844663166078865"><ele>1112.0</ele><time>2026-05-02T12:55:06.999Z</time></trkpt><trkpt lat="46.12997257691571" lon="11.844765745336826"><ele>1112.0</ele><time>2026-05-02T12:55:07.999Z</time></trkpt><trkpt lat="46.13004594866037" lon="11.844882640064887"><ele>1112.0</ele><time>2026-05-02T12:55:08.999Z</time></trkpt><trkpt lat="46.130099935258485" lon="11.844977012243172"><ele>1112.0</ele><time>2026-05-02T12:55:09.999Z</time></trkpt><trkpt lat="46.13013588675072" lon="11.845071570560696"><ele>1112.0</ele><time>2026-05-02T12:55:10.999Z</time></trkpt><trkpt lat="46.130159178863614" lon="11.84518961746308"><ele>1112.0</ele><time>2026-05-02T12:55:12.999Z</time></trkpt><trkpt lat="46.13025536150869" lon="11.845229976427785"><ele>1112.0</ele><time>2026-05-02T12:55:14.999Z</time></trkpt><trkpt lat="46.13031716772559" lon="11.845210937268817"><ele>1112.0</ele><time>2026-05-02T12:55:15.999Z</time></trkpt><trkpt lat="46.13038089685784" lon="11.84515129850313"><ele>1112.0</ele><time>2026-05-02T12:55:16.999Z</time></trkpt><trkpt lat="46.130461612108206" lon="11.845082746092775"><ele>1112.0</ele><time>2026-05-02T12:55:17.999Z</time></trkpt><trkpt lat="46.13055370363136" lon="11.844992736622912"><ele>1112.0</ele><time>2026-05-02T12:55:18.999Z</time></trkpt><trkpt lat="46.13065886483284" lon="11.844853733295022"><ele>1112.0</ele><time>2026-05-02T12:55:19.999Z</time></trkpt><trkpt lat="46.13072320595188" lon="11.844725217579793"><ele>1111.4</ele><time>2026-05-02T12:55:20.999Z</time></trkpt><trkpt lat="46.13078154290831" lon="11.84461140830807"><ele>1110.8000000000002</ele><time>2026-05-02T12:55:21.999Z</time></trkpt><trkpt lat="46.13081973862867" lon="11.844508624126313"><ele>1110.2</ele><time>2026-05-02T12:55:22.999Z</time></trkpt><trkpt lat="46.130865168041964" lon="11.84439195836457"><ele>1109.6000000000001</ele><time>2026-05-02T12:55:24.999Z</time></trkpt><trkpt lat="46.130977219691175" lon="11.84432518451158"><ele>1109.0</ele><time>2026-05-02T12:55:27.999Z</time></trkpt><trkpt lat="46.131100812899945" lon="11.84423099378831"><ele>1108.9999999999998</ele><time>2026-05-02T12:55:29.999Z</time></trkpt><trkpt lat="46.131135106046266" lon="11.844149202719203"><ele>1109.0</ele><time>2026-05-02T12:55:30.999Z</time></trkpt><trkpt lat="46.131159376564256" lon="11.844059796638357"><ele>1109.0</ele><time>2026-05-02T12:55:31.999Z</time></trkpt><trkpt lat="46.13117373305203" lon="11.843923452951955"><ele>1109.0</ele><time>2026-05-02T12:55:32.999Z</time></trkpt><trkpt lat="46.13117277371295" lon="11.843815792882681"><ele>1109.0</ele><time>2026-05-02T12:55:33.999Z</time></trkpt><trkpt lat="46.131155155284176" lon="11.843717652745365"><ele>1108.9999999999998</ele><time>2026-05-02T12:55:34.999Z</time></trkpt><trkpt lat="46.13116685032564" lon="11.843611323613716"><ele>1109.0</ele><time>2026-05-02T12:55:35.999Z</time></trkpt><trkpt lat="46.131159573635145" lon="11.8434901857003"><ele>1113.0</ele><time>2026-05-02T12:55:36.999Z</time></trkpt><trkpt lat="46.13157139404038" lon="11.843656060598748"><ele>1117.0</ele><time>2026-05-02T12:55:37.999Z</time></trkpt><trkpt lat="46.131636411969694" lon="11.843590433865648"><ele>1117.0</ele><time>2026-05-02T12:55:38.999Z</time></trkpt><trkpt lat="46.13171261807665" lon="11.843511597887828"><ele>1117.0</ele><time>2026-05-02T12:55:39.999Z</time></trkpt><trkpt lat="46.13177415676404" lon="11.843439326527038"><ele>1117.0</ele><time>2026-05-02T12:55:40.999Z</time></trkpt><trkpt lat="46.131827765617004" lon="11.843364117817897"><ele>1117.0</ele><time>2026-05-02T12:55:41.999Z</time></trkpt><trkpt lat="46.131873777969474" lon="11.843273921323165"><ele>1117.0</ele><time>2026-05-02T12:55:42.999Z</time></trkpt><trkpt lat="46.131907839869505" lon="11.843181820946013"><ele>1117.0</ele><time>2026-05-02T12:55:43.999Z</time></trkpt><trkpt lat="46.13194383418773" lon="11.843091324269206"><ele>1114.1666666666665</ele><time>2026-05-02T12:55:44.999Z</time></trkpt><trkpt lat="46.13196561741814" lon="11.843002211981876"><ele>1111.3333333333333</ele><time>2026-05-02T12:55:45.999Z</time></trkpt><trkpt lat="46.13203012487288" lon="11.842822459004095"><ele>1108.5</ele><time>2026-05-02T12:55:47.999Z</time></trkpt><trkpt lat="46.13207267301491" lon="11.842722320170902"><ele>1105.6666666666667</ele><time>2026-05-02T12:55:48.999Z</time></trkpt><trkpt lat="46.132120695834374" lon="11.842638573766479"><ele>1102.8333333333335</ele><time>2026-05-02T12:55:49.999Z</time></trkpt><trkpt lat="46.13217782283689" lon="11.842578934698787"><ele>1100.0</ele><time>2026-05-02T12:55:50.999Z</time></trkpt><trkpt lat="46.132234001311176" lon="11.842535278789095"><ele>1099.0</ele><time>2026-05-02T12:55:51.999Z</time></trkpt><trkpt lat="46.13235347435816" lon="11.842488746664989"><ele>1098.0</ele><time>2026-05-02T12:55:53.999Z</time></trkpt><trkpt lat="46.13247253368013" lon="11.842501850299099"><ele>1097.0</ele><time>2026-05-02T12:55:55.999Z</time></trkpt><trkpt lat="46.13259257388305" lon="11.842466797662711"><ele>1096.0</ele><time>2026-05-02T12:55:57.999Z</time></trkpt><trkpt lat="46.13266456263603" lon="11.842331685813047"><ele>1096.0000000000002</ele><time>2026-05-02T12:55:59.999Z</time></trkpt><trkpt lat="46.13262099968788" lon="11.842239960298404"><ele>1096.0</ele><time>2026-05-02T12:56:00.999Z</time></trkpt><trkpt lat="46.13256216587539" lon="11.84219193992437"><ele>1096.0</ele><time>2026-05-02T12:56:01.999Z</time></trkpt><trkpt lat="46.13249331951349" lon="11.842176573740677"><ele>1096.0</ele><time>2026-05-02T12:56:02.999Z</time></trkpt><trkpt lat="46.13241364560728" lon="11.842162234690576"><ele>1096.0</ele><time>2026-05-02T12:56:03.999Z</time></trkpt><trkpt lat="46.13234473477826" lon="11.842140857667134"><ele>1096.0000000000002</ele><time>2026-05-02T12:56:04.999Z</time></trkpt><trkpt lat="46.13227074747484" lon="11.84215543176653"><ele>1096.0</ele><time>2026-05-02T12:56:05.999Z</time></trkpt><trkpt lat="46.13220129489002" lon="11.842101536944915"><ele>1096.0</ele><time>2026-05-02T12:56:07.999Z</time></trkpt><trkpt lat="46.13223443464263" lon="11.841987129488405"><ele>1096.0</ele><time>2026-05-02T12:56:09.999Z</time></trkpt><trkpt lat="46.13229734761671" lon="11.841975401843708"><ele>1096.0</ele><time>2026-05-02T12:56:10.999Z</time></trkpt><trkpt lat="46.132373993562275" lon="11.841982980762285"><ele>1096.0</ele><time>2026-05-02T12:56:11.999Z</time></trkpt><trkpt lat="46.13247560546718" lon="11.841990001632293"><ele>1096.0</ele><time>2026-05-02T12:56:12.999Z</time></trkpt><trkpt lat="46.13255675187314" lon="11.8420073960993"><ele>1096.0</ele><time>2026-05-02T12:56:13.999Z</time></trkpt><trkpt lat="46.1326402324811" lon="11.841987101569018"><ele>1095.5</ele><time>2026-05-02T12:56:14.999Z</time></trkpt><trkpt lat="46.132709023133636" lon="11.841949326070905"><ele>1095.0</ele><time>2026-05-02T12:56:15.999Z</time></trkpt><trkpt lat="46.13279717901832" lon="11.841929578868001"><ele>1094.5</ele><time>2026-05-02T12:56:16.999Z</time></trkpt><trkpt lat="46.132893456074356" lon="11.841932541719597"><ele>1094.0</ele><time>2026-05-02T12:56:17.999Z</time></trkpt><trkpt lat="46.132987515407486" lon="11.841927481806048"><ele>1093.5</ele><time>2026-05-02T12:56:18.999Z</time></trkpt><trkpt lat="46.133063142064756" lon="11.84193645222099"><ele>1093.0</ele><time>2026-05-02T12:56:19.999Z</time></trkpt><trkpt lat="46.133136889729435" lon="11.841878246767369"><ele>1093.0</ele><time>2026-05-02T12:56:20.999Z</time></trkpt><trkpt lat="46.133214115090325" lon="11.8418163148242"><ele>1093.0</ele><time>2026-05-02T12:56:21.999Z</time></trkpt><trkpt lat="46.13331957596835" lon="11.841780517696924"><ele>1093.0</ele><time>2026-05-02T12:56:22.999Z</time></trkpt><trkpt lat="46.1333929516345" lon="11.841674962500855"><ele>1093.0</ele><time>2026-05-02T12:56:23.998Z</time></trkpt><trkpt lat="46.133458317075515" lon="11.841550972355613"><ele>1093.0</ele><time>2026-05-02T12:56:24.998Z</time></trkpt><trkpt lat="46.133517178320645" lon="11.841413408687162"><ele>1091.0</ele><time>2026-05-02T12:56:25.998Z</time></trkpt><trkpt lat="46.1335658080683" lon="11.841277368519847"><ele>1089.0</ele><time>2026-05-02T12:56:26.998Z</time></trkpt><trkpt lat="46.13361059057075" lon="11.841121337658054"><ele>1087.0</ele><time>2026-05-02T12:56:27.998Z</time></trkpt><trkpt lat="46.13363782483476" lon="11.840956498938944"><ele>1085.0</ele><time>2026-05-02T12:56:28.998Z</time></trkpt><trkpt lat="46.133668466364874" lon="11.840795660248581"><ele>1083.5</ele><time>2026-05-02T12:56:29.998Z</time></trkpt><trkpt lat="46.13368934074499" lon="11.840636281764"><ele>1082.0</ele><time>2026-05-02T12:56:30.998Z</time></trkpt><trkpt lat="46.133717970956056" lon="11.840466518506547"><ele>1080.5</ele><time>2026-05-02T12:56:31.998Z</time></trkpt><trkpt lat="46.133734241266836" lon="11.840288186244344"><ele>1079.0</ele><time>2026-05-02T12:56:32.998Z</time></trkpt><trkpt lat="46.133751857881" lon="11.840105290356332"><ele>1077.4</ele><time>2026-05-02T12:56:33.998Z</time></trkpt><trkpt lat="46.13376759514969" lon="11.83994144949448"><ele>1075.8000000000002</ele><time>2026-05-02T12:56:34.998Z</time></trkpt><trkpt lat="46.13377816213821" lon="11.839802454945383"><ele>1074.1999999999998</ele><time>2026-05-02T12:56:36Z</time></trkpt><trkpt lat="46.133794018724565" lon="11.839648747310463"><ele>1072.6</ele><time>2026-05-02T12:56:37Z</time></trkpt><trkpt lat="46.133802560295685" lon="11.839490923468768"><ele>1071.0</ele><time>2026-05-02T12:56:38Z</time></trkpt><trkpt lat="46.13380967136956" lon="11.83932187774275"><ele>1068.8</ele><time>2026-05-02T12:56:39Z</time></trkpt><trkpt lat="46.13381782936857" lon="11.839154579095801"><ele>1066.6</ele><time>2026-05-02T12:56:40Z</time></trkpt><trkpt lat="46.133822589275844" lon="11.838988598774568"><ele>1064.4</ele><time>2026-05-02T12:56:41Z</time></trkpt><trkpt lat="46.133834802704214" lon="11.838826203783546"><ele>1062.2</ele><time>2026-05-02T12:56:42Z</time></trkpt><trkpt lat="46.13384648786207" lon="11.838680690952126"><ele>1060.0</ele><time>2026-05-02T12:56:43Z</time></trkpt><trkpt lat="46.13384893140935" lon="11.83853717712013"><ele>1058.8</ele><time>2026-05-02T12:56:44Z</time></trkpt><trkpt lat="46.13386354612143" lon="11.838445863633051"><ele>1057.6</ele><time>2026-05-02T12:56:45Z</time></trkpt><trkpt lat="46.13387126825737" lon="11.838284462650902"><ele>1056.4</ele><time>2026-05-02T12:56:47Z</time></trkpt><trkpt lat="46.13388747077141" lon="11.8381466081718"><ele>1055.2</ele><time>2026-05-02T12:56:49Z</time></trkpt><trkpt lat="46.13387767502501" lon="11.838029081301055"><ele>1054.0</ele><time>2026-05-02T12:56:52Z</time></trkpt><trkpt lat="46.13376442986186" lon="11.838014506811051"><ele>1054.0</ele><time>2026-05-02T12:56:54Z</time></trkpt><trkpt lat="46.133666506823594" lon="11.837938262250894"><ele>1054.0</ele><time>2026-05-02T12:56:56Z</time></trkpt><trkpt lat="46.133600016862324" lon="11.837787305472888"><ele>1054.0</ele><time>2026-05-02T12:56:58Z</time></trkpt><trkpt lat="46.13356468158868" lon="11.837701796291748"><ele>1054.0</ele><time>2026-05-02T12:56:59Z</time></trkpt><trkpt lat="46.133546563891905" lon="11.83760098011576"><ele>1054.0</ele><time>2026-05-02T12:57:00Z</time></trkpt><trkpt lat="46.133541439804894" lon="11.83750532920318"><ele>1054.0</ele><time>2026-05-02T12:57:01Z</time></trkpt><trkpt lat="46.13361435810164" lon="11.837344210326455"><ele>1051.857142857143</ele><time>2026-05-02T12:57:03Z</time></trkpt><trkpt lat="46.13367760044918" lon="11.837308602975902"><ele>1049.7142857142858</ele><time>2026-05-02T12:57:04Z</time></trkpt><trkpt lat="46.13373860983882" lon="11.83725896265452"><ele>1047.5714285714284</ele><time>2026-05-02T12:57:05Z</time></trkpt><trkpt lat="46.13379753276537" lon="11.837188869583915"><ele>1045.4285714285716</ele><time>2026-05-02T12:57:06Z</time></trkpt><trkpt lat="46.13387952134755" lon="11.837156351681529"><ele>1043.2857142857142</ele><time>2026-05-02T12:57:07Z</time></trkpt><trkpt lat="46.133946897220184" lon="11.837118869488037"><ele>1041.142857142857</ele><time>2026-05-02T12:57:08Z</time></trkpt><trkpt lat="46.13401302149693" lon="11.837081669772445"><ele>1039.0</ele><time>2026-05-02T12:57:09Z</time></trkpt><trkpt lat="46.1340755414853" lon="11.83704280596389"><ele>1039.0</ele><time>2026-05-02T12:57:10Z</time></trkpt><trkpt lat="46.134127913793236" lon="11.836983687963583"><ele>1039.0</ele><time>2026-05-02T12:57:11Z</time></trkpt><trkpt lat="46.13413797339486" lon="11.83684854381311"><ele>1039.0</ele><time>2026-05-02T12:57:13Z</time></trkpt><trkpt lat="46.1340807726619" lon="11.836808728160138"><ele>1039.0</ele><time>2026-05-02T12:57:14Z</time></trkpt><trkpt lat="46.134008697802805" lon="11.836848144226556"><ele>1039.0</ele><time>2026-05-02T12:57:15Z</time></trkpt><trkpt lat="46.1339294339216" lon="11.836876751656801"><ele>1039.0</ele><time>2026-05-02T12:57:16Z</time></trkpt><trkpt lat="46.13386776280252" lon="11.836934255853063"><ele>1036.6000000000001</ele><time>2026-05-02T12:57:17Z</time></trkpt><trkpt lat="46.133787325160114" lon="11.836988665533834"><ele>1034.2</ele><time>2026-05-02T12:57:19Z</time></trkpt><trkpt lat="46.13383434849887" lon="11.836829053764246"><ele>1031.8000000000002</ele><time>2026-05-02T12:57:22Z</time></trkpt><trkpt lat="46.13391836594138" lon="11.836772573384918"><ele>1029.4</ele><time>2026-05-02T12:57:23Z</time></trkpt><trkpt lat="46.13400628068522" lon="11.836699424781534"><ele>1027.0</ele><time>2026-05-02T12:57:24Z</time></trkpt><trkpt lat="46.13408580456963" lon="11.83660756490923"><ele>1025.0</ele><time>2026-05-02T12:57:24.999Z</time></trkpt><trkpt lat="46.13414133351303" lon="11.836481910561895"><ele>1023.0</ele><time>2026-05-02T12:57:25.999Z</time></trkpt><trkpt lat="46.13416897703518" lon="11.836343091862123"><ele>1021.0</ele><time>2026-05-02T12:57:26.999Z</time></trkpt><trkpt lat="46.13418959941404" lon="11.83618584193289"><ele>1019.0</ele><time>2026-05-02T12:57:27.999Z</time></trkpt><trkpt lat="46.13423761289203" lon="11.836037602008803"><ele>1017.0</ele><time>2026-05-02T12:57:28.999Z</time></trkpt><trkpt lat="46.13428177503094" lon="11.835895962973753"><ele>1012.1666666666666</ele><time>2026-05-02T12:57:29.999Z</time></trkpt><trkpt lat="46.134327586438104" lon="11.835740341090341"><ele>1007.3333333333333</ele><time>2026-05-02T12:57:30.999Z</time></trkpt><trkpt lat="46.13435092752397" lon="11.835587574096563"><ele>1002.5</ele><time>2026-05-02T12:57:31.999Z</time></trkpt><trkpt lat="46.134390016153326" lon="11.835470165764358"><ele>997.6666666666666</ele><time>2026-05-02T12:57:32.999Z</time></trkpt><trkpt lat="46.13442936904604" lon="11.835397272032992"><ele>992.8333333333333</ele><time>2026-05-02T12:57:33.999Z</time></trkpt><trkpt lat="46.134462580118964" lon="11.835314747530294"><ele>988.0</ele><time>2026-05-02T12:57:34.999Z</time></trkpt><trkpt lat="46.134520191572435" lon="11.835260835069144"><ele>988.0</ele><time>2026-05-02T12:57:35.999Z</time></trkpt><trkpt lat="46.13458090581628" lon="11.835229813533003"><ele>988.0</ele><time>2026-05-02T12:57:36.999Z</time></trkpt><trkpt lat="46.1346018523418" lon="11.835100748935917"><ele>988.0</ele><time>2026-05-02T12:57:38.999Z</time></trkpt><trkpt lat="46.134453076491546" lon="11.83506292905707"><ele>988.0</ele><time>2026-05-02T12:57:40.999Z</time></trkpt><trkpt lat="46.134357163083706" lon="11.835141105638872"><ele>988.0</ele><time>2026-05-02T12:57:41.999Z</time></trkpt><trkpt lat="46.13427531126752" lon="11.835267819974936"><ele>987.9999999999999</ele><time>2026-05-02T12:57:42.999Z</time></trkpt><trkpt lat="46.134219894806996" lon="11.83538163773822"><ele>988.0</ele><time>2026-05-02T12:57:43.999Z</time></trkpt><trkpt lat="46.13419442823009" lon="11.83548087498429"><ele>988.0</ele><time>2026-05-02T12:57:44.999Z</time></trkpt><trkpt lat="46.13413626819982" lon="11.835582055495639"><ele>988.0</ele><time>2026-05-02T12:57:46.999Z</time></trkpt><trkpt lat="46.1340828697067" lon="11.835486035889373"><ele>987.9999999999999</ele><time>2026-05-02T12:57:49.999Z</time></trkpt><trkpt lat="46.1340944486614" lon="11.835376674350899"><ele>988.0</ele><time>2026-05-02T12:57:50.999Z</time></trkpt><trkpt lat="46.13413721424895" lon="11.835273244563588"><ele>988.0</ele><time>2026-05-02T12:57:51.999Z</time></trkpt><trkpt lat="46.134213394642124" lon="11.835195501394242"><ele>988.0</ele><time>2026-05-02T12:57:52.999Z</time></trkpt><trkpt lat="46.1342709212779" lon="11.835078248774579"><ele>988.0</ele><time>2026-05-02T12:57:53.999Z</time></trkpt><trkpt lat="46.134329938431975" lon="11.834951687874996"><ele>988.0</ele><time>2026-05-02T12:57:54.999Z</time></trkpt><trkpt lat="46.134394310404545" lon="11.834817150343277"><ele>988.0</ele><time>2026-05-02T12:57:55.999Z</time></trkpt><trkpt lat="46.1344570366255" lon="11.834717365314807"><ele>982.3333333333333</ele><time>2026-05-02T12:57:56.999Z</time></trkpt><trkpt lat="46.13452373223687" lon="11.834658195509975"><ele>976.6666666666666</ele><time>2026-05-02T12:57:57.999Z</time></trkpt><trkpt lat="46.13458444214741" lon="11.834617300679158"><ele>971.0</ele><time>2026-05-02T12:57:58.999Z</time></trkpt><trkpt lat="46.13459149007444" lon="11.834477994147596"><ele>965.3333333333333</ele><time>2026-05-02T12:58:00.999Z</time></trkpt><trkpt lat="46.134533170948" lon="11.83443899829552"><ele>959.6666666666666</ele><time>2026-05-02T12:58:01.999Z</time></trkpt><trkpt lat="46.1344679727902" lon="11.834434120598454"><ele>954.0</ele><time>2026-05-02T12:58:02.999Z</time></trkpt><trkpt lat="46.1343750550936" lon="11.834473839692942"><ele>954.0</ele><time>2026-05-02T12:58:03.999Z</time></trkpt><trkpt lat="46.13429539923786" lon="11.83450549252518"><ele>954.0</ele><time>2026-05-02T12:58:04.999Z</time></trkpt><trkpt lat="46.13420423502032" lon="11.83447012139761"><ele>954.0</ele><time>2026-05-02T12:58:06.999Z</time></trkpt><trkpt lat="46.134139379457295" lon="11.834420197981874"><ele>954.0</ele><time>2026-05-02T12:58:07.999Z</time></trkpt><trkpt lat="46.13412251833694" lon="11.834291366650161"><ele>954.0</ele><time>2026-05-02T12:58:08.999Z</time></trkpt><trkpt lat="46.1341391475949" lon="11.83416818395427"><ele>954.0</ele><time>2026-05-02T12:58:09.999Z</time></trkpt><trkpt lat="46.134178180929034" lon="11.834046763168233"><ele>951.1666666666666</ele><time>2026-05-02T12:58:10.999Z</time></trkpt><trkpt lat="46.13422224961425" lon="11.8339347086735"><ele>948.3333333333333</ele><time>2026-05-02T12:58:11.999Z</time></trkpt><trkpt lat="46.13425113932852" lon="11.833810983745789"><ele>945.5</ele><time>2026-05-02T12:58:12.999Z</time></trkpt><trkpt lat="46.13429280548464" lon="11.83370660795202"><ele>942.6666666666666</ele><time>2026-05-02T12:58:13.999Z</time></trkpt><trkpt lat="46.13427748746517" lon="11.833579292301062"><ele>939.8333333333333</ele><time>2026-05-02T12:58:14.999Z</time></trkpt><trkpt lat="46.13428645647834" lon="11.833457108564232"><ele>937.0</ele><time>2026-05-02T12:58:15.999Z</time></trkpt><trkpt lat="46.1342819597978" lon="11.83332511087185"><ele>935.1666666666666</ele><time>2026-05-02T12:58:16.999Z</time></trkpt><trkpt lat="46.13427320789009" lon="11.833207742856084"><ele>933.3333333333333</ele><time>2026-05-02T12:58:17.999Z</time></trkpt><trkpt lat="46.13424974944131" lon="11.833114639937298"><ele>931.5</ele><time>2026-05-02T12:58:18.999Z</time></trkpt><trkpt lat="46.13420402555843" lon="11.83294061954274"><ele>929.6666666666667</ele><time>2026-05-02T12:58:20.999Z</time></trkpt><trkpt lat="46.13418323121382" lon="11.832843820153792"><ele>927.8333333333334</ele><time>2026-05-02T12:58:21.999Z</time></trkpt><trkpt lat="46.13413956141984" lon="11.832741260987307"><ele>926.0</ele><time>2026-05-02T12:58:22.999Z</time></trkpt><trkpt lat="46.13407099747884" lon="11.832626208457086"><ele>950.25</ele><time>2026-05-02T12:58:23.999Z</time></trkpt><trkpt lat="46.13401556798161" lon="11.832476471479051"><ele>974.5</ele><time>2026-05-02T12:58:24.999Z</time></trkpt><trkpt lat="46.13397409160593" lon="11.83232883330957"><ele>998.75</ele><time>2026-05-02T12:58:25.999Z</time></trkpt><trkpt lat="46.1339429899572" lon="11.832171634493875"><ele>1023.0</ele><time>2026-05-02T12:58:26.999Z</time></trkpt><trkpt lat="46.13388721754071" lon="11.832009110260062"><ele>1023.0</ele><time>2026-05-02T12:58:27.999Z</time></trkpt><trkpt lat="46.13386637093299" lon="11.831814781448715"><ele>1023.0</ele><time>2026-05-02T12:58:28.999Z</time></trkpt><trkpt lat="46.13384070953713" lon="11.831649756379457"><ele>1023.0</ele><time>2026-05-02T12:58:29.999Z</time></trkpt><trkpt lat="46.133825608308776" lon="11.831482389122371"><ele>1023.0</ele><time>2026-05-02T12:58:30.999Z</time></trkpt><trkpt lat="46.1338288345932" lon="11.83131745060184"><ele>1017.2</ele><time>2026-05-02T12:58:31.999Z</time></trkpt><trkpt lat="46.133870824163914" lon="11.831149802084735"><ele>1011.4</ele><time>2026-05-02T12:58:32.999Z</time></trkpt><trkpt lat="46.13389708756585" lon="11.830990581597979"><ele>1005.6000000000001</ele><time>2026-05-02T12:58:33.999Z</time></trkpt><trkpt lat="46.13392254318664" lon="11.830877805731026"><ele>999.8000000000001</ele><time>2026-05-02T12:58:34.999Z</time></trkpt><trkpt lat="46.13395269366857" lon="11.830724765716658"><ele>994.0</ele><time>2026-05-02T12:58:36.999Z</time></trkpt><trkpt lat="46.13398718500234" lon="11.83059082875113"><ele>982.6666666666666</ele><time>2026-05-02T12:58:38.999Z</time></trkpt><trkpt lat="46.133979217566484" lon="11.830485202356616"><ele>971.3333333333333</ele><time>2026-05-02T12:58:40.999Z</time></trkpt><trkpt lat="46.13398464018843" lon="11.830376021624316"><ele>960.0</ele><time>2026-05-02T12:58:44Z</time></trkpt><trkpt lat="46.13398246888766" lon="11.830277884093226"><ele>948.6666666666667</ele><time>2026-05-02T12:58:46Z</time></trkpt><trkpt lat="46.13397997844675" lon="11.830176533713813"><ele>937.3333333333334</ele><time>2026-05-02T12:58:47Z</time></trkpt><trkpt lat="46.13397886972807" lon="11.83006079568389"><ele>926.0</ele><time>2026-05-02T12:58:48Z</time></trkpt><trkpt lat="46.133974951406394" lon="11.829920187864532"><ele>926.0</ele><time>2026-05-02T12:58:49Z</time></trkpt><trkpt lat="46.13397923740313" lon="11.829749615579559"><ele>925.9999999999999</ele><time>2026-05-02T12:58:50Z</time></trkpt><trkpt lat="46.13398532732051" lon="11.829615066290728"><ele>925.9999999999999</ele><time>2026-05-02T12:58:51Z</time></trkpt><trkpt lat="46.13395871071302" lon="11.829504153850772"><ele>926.0</ele><time>2026-05-02T12:58:52Z</time></trkpt><trkpt lat="46.13393176339796" lon="11.829395838342888"><ele>926.0</ele><time>2026-05-02T12:58:53Z</time></trkpt><trkpt lat="46.13388495035354" lon="11.829250386265711"><ele>926.0</ele><time>2026-05-02T12:58:54Z</time></trkpt><trkpt lat="46.13382254506987" lon="11.82910061828476"><ele>926.0</ele><time>2026-05-02T12:58:55Z</time></trkpt><trkpt lat="46.133733712052745" lon="11.828956757221206"><ele>926.0</ele><time>2026-05-02T12:58:56Z</time></trkpt><trkpt lat="46.133679747788015" lon="11.82879211137386"><ele>926.0</ele><time>2026-05-02T12:58:57Z</time></trkpt><trkpt lat="46.133612885596676" lon="11.828649514992343"><ele>926.0</ele><time>2026-05-02T12:58:58Z</time></trkpt><trkpt lat="46.133550388702446" lon="11.828525101993318"><ele>926.0</ele><time>2026-05-02T12:58:59Z</time></trkpt><trkpt lat="46.13349573967759" lon="11.828416724213623"><ele>926.0</ele><time>2026-05-02T12:59:00Z</time></trkpt><trkpt lat="46.13341142408567" lon="11.828284045958155"><ele>926.0</ele><time>2026-05-02T12:59:01Z</time></trkpt><trkpt lat="46.13331738347213" lon="11.828125875082065"><ele>958.3333333333334</ele><time>2026-05-02T12:59:02Z</time></trkpt><trkpt lat="46.133231717974105" lon="11.827994422252468"><ele>990.6666666666667</ele><time>2026-05-02T12:59:03Z</time></trkpt><trkpt lat="46.133160775869584" lon="11.827897955535045"><ele>1023.0</ele><time>2026-05-02T12:59:04Z</time></trkpt><trkpt lat="46.133099462974016" lon="11.827814504926273"><ele>1055.3333333333333</ele><time>2026-05-02T12:59:05Z</time></trkpt><trkpt lat="46.13304537477207" lon="11.827740750308111"><ele>1087.6666666666665</ele><time>2026-05-02T12:59:06Z</time></trkpt><trkpt lat="46.1329962363824" lon="11.827676907557978"><ele>1120.0</ele><time>2026-05-02T12:59:07Z</time></trkpt><trkpt lat="46.13291167257652" lon="11.827516845040993"><ele>1120.0</ele><time>2026-05-02T12:59:09Z</time></trkpt><trkpt lat="46.13283991209701" lon="11.82740363201635"><ele>1120.0</ele><time>2026-05-02T12:59:10.021Z</time></trkpt><trkpt lat="46.132766677905245" lon="11.827267150151025"><ele>1120.0</ele><time>2026-05-02T12:59:11.016Z</time></trkpt><trkpt lat="46.1327059884516" lon="11.82711801094893"><ele>1120.0</ele><time>2026-05-02T12:59:12.017Z</time></trkpt><trkpt lat="46.13263665690229" lon="11.82691349400536"><ele>1120.0</ele><time>2026-05-02T12:59:13.019Z</time></trkpt><trkpt lat="46.13258529231157" lon="11.826708057536187"><ele>1120.0</ele><time>2026-05-02T12:59:14.021Z</time></trkpt><trkpt lat="46.132424078655035" lon="11.825899609176828"><ele>1122.75</ele><time>2026-05-02T12:59:18.21Z</time></trkpt><trkpt lat="46.13239917427529" lon="11.82569976818739"><ele>1125.5</ele><time>2026-05-02T12:59:19.215Z</time></trkpt><trkpt lat="46.13237789391421" lon="11.82550068556174"><ele>1128.25</ele><time>2026-05-02T12:59:20.211Z</time></trkpt><trkpt lat="46.132359622178484" lon="11.825299616514755"><ele>1131.0</ele><time>2026-05-02T12:59:21.215Z</time></trkpt><trkpt lat="46.13232689043507" lon="11.825101242918402"><ele>1114.75</ele><time>2026-05-02T12:59:22.215Z</time></trkpt><trkpt lat="46.132328250474394" lon="11.824897459311913"><ele>1098.5</ele><time>2026-05-02T12:59:23.215Z</time></trkpt><trkpt lat="46.13231470559719" lon="11.824696420872952"><ele>1082.25</ele><time>2026-05-02T12:59:24.212Z</time></trkpt><trkpt lat="46.132284981407814" lon="11.824496384964878"><ele>1066.0</ele><time>2026-05-02T12:59:25.215Z</time></trkpt><trkpt lat="46.13227403106379" lon="11.824294348641068"><ele>1066.0</ele><time>2026-05-02T12:59:26.215Z</time></trkpt><trkpt lat="46.1326025287119" lon="11.822921521972699"><ele>1066.0</ele><time>2026-05-02T12:59:37Z</time></trkpt><trkpt lat="46.1326205223008" lon="11.822787101753292"><ele>1066.0</ele><time>2026-05-02T12:59:38Z</time></trkpt><trkpt lat="46.13253133450098" lon="11.82272047328676"><ele>1066.0</ele><time>2026-05-02T12:59:39Z</time></trkpt><trkpt lat="46.13249105616482" lon="11.822628186137717"><ele>1066.0</ele><time>2026-05-02T12:59:40Z</time></trkpt><trkpt lat="46.132284188019995" lon="11.822554157407566"><ele>1066.0</ele><time>2026-05-02T12:59:41Z</time></trkpt><trkpt lat="46.13225364412432" lon="11.822397417110516"><ele>1066.0</ele><time>2026-05-02T12:59:42Z</time></trkpt><trkpt lat="46.13220791965481" lon="11.822201453705608"><ele>1066.0</ele><time>2026-05-02T12:59:43Z</time></trkpt><trkpt lat="46.13214782678464" lon="11.821939542984365"><ele>1066.0</ele><time>2026-05-02T12:59:44Z</time></trkpt><trkpt lat="46.132099878000254" lon="11.821672643041316"><ele>1066.0</ele><time>2026-05-02T12:59:44.999Z</time></trkpt><trkpt lat="46.132083301971385" lon="11.82136100143184"><ele>1066.0</ele><time>2026-05-02T12:59:45.999Z</time></trkpt><trkpt lat="46.132089832386434" lon="11.821149072276055"><ele>1066.0</ele><time>2026-05-02T12:59:46.999Z</time></trkpt><trkpt lat="46.132093986942465" lon="11.821026549347811"><ele>1066.0</ele><time>2026-05-02T12:59:47.999Z</time></trkpt><trkpt lat="46.132106368635554" lon="11.82087877445494"><ele>1066.0</ele><time>2026-05-02T12:59:48.999Z</time></trkpt><trkpt lat="46.13211434237425" lon="11.820732924486684"><ele>1066.0</ele><time>2026-05-02T12:59:49.999Z</time></trkpt><trkpt lat="46.13211768843519" lon="11.8205953972776"><ele>1066.0</ele><time>2026-05-02T12:59:50.999Z</time></trkpt><trkpt lat="46.13211364346846" lon="11.820462866286572"><ele>1066.0</ele><time>2026-05-02T12:59:51.999Z</time></trkpt><trkpt lat="46.13210109118157" lon="11.820371478899261"><ele>1066.0</ele><time>2026-05-02T12:59:52.999Z</time></trkpt><trkpt lat="46.13207913116144" lon="11.820256115202568"><ele>1066.0</ele><time>2026-05-02T12:59:53.999Z</time></trkpt><trkpt lat="46.13204267714684" lon="11.820109618167693"><ele>1066.0</ele><time>2026-05-02T12:59:54.999Z</time></trkpt><trkpt lat="46.13196925222849" lon="11.819953205743003"><ele>1066.0</ele><time>2026-05-02T12:59:55.999Z</time></trkpt><trkpt lat="46.13193267673534" lon="11.81978612769271"><ele>1066.0</ele><time>2026-05-02T12:59:56.999Z</time></trkpt><trkpt lat="46.13186592817386" lon="11.819637390195856"><ele>1066.0</ele><time>2026-05-02T12:59:57.999Z</time></trkpt><trkpt lat="46.13184116768254" lon="11.819483700342621"><ele>1066.0</ele><time>2026-05-02T12:59:58.999Z</time></trkpt><trkpt lat="46.131807942499606" lon="11.819358489193288"><ele>1066.0</ele><time>2026-05-02T12:59:59.999Z</time></trkpt><trkpt lat="46.1317819038834" lon="11.819246252252421"><ele>1066.0</ele><time>2026-05-02T13:00:00.999Z</time></trkpt><trkpt lat="46.13175839884446" lon="11.819140003972455"><ele>1066.0</ele><time>2026-05-02T13:00:01.999Z</time></trkpt><trkpt lat="46.13170372997504" lon="11.819006375404246"><ele>1066.0</ele><time>2026-05-02T13:00:02.999Z</time></trkpt><trkpt lat="46.131663595232155" lon="11.818864963136472"><ele>1066.0</ele><time>2026-05-02T13:00:03.999Z</time></trkpt><trkpt lat="46.13163820807315" lon="11.818698069649791"><ele>1066.0</ele><time>2026-05-02T13:00:04.999Z</time></trkpt><trkpt lat="46.131702610996136" lon="11.818542918805006"><ele>1066.0</ele><time>2026-05-02T13:00:05.999Z</time></trkpt><trkpt lat="46.131740466292946" lon="11.818386732201315"><ele>1066.0</ele><time>2026-05-02T13:00:06.999Z</time></trkpt><trkpt lat="46.13180603782601" lon="11.818256899522494"><ele>1066.0</ele><time>2026-05-02T13:00:07.999Z</time></trkpt><trkpt lat="46.13184792331323" lon="11.81813642321365"><ele>1066.0</ele><time>2026-05-02T13:00:08.999Z</time></trkpt><trkpt lat="46.13184967803943" lon="11.817999760027886"><ele>1066.0</ele><time>2026-05-02T13:00:09.999Z</time></trkpt><trkpt lat="46.131817957490874" lon="11.817853488803612"><ele>1066.0</ele><time>2026-05-02T13:00:10.999Z</time></trkpt><trkpt lat="46.13174308023885" lon="11.817708570127849"><ele>1066.0</ele><time>2026-05-02T13:00:11.999Z</time></trkpt><trkpt lat="46.13171671497329" lon="11.817530040062445"><ele>1066.0</ele><time>2026-05-02T13:00:12.999Z</time></trkpt><trkpt lat="46.131695870626075" lon="11.817364988516308"><ele>1066.0</ele><time>2026-05-02T13:00:13.999Z</time></trkpt><trkpt lat="46.131661736363135" lon="11.817231514353852"><ele>1066.0</ele><time>2026-05-02T13:00:14.999Z</time></trkpt><trkpt lat="46.13160479587283" lon="11.817083127641634"><ele>1066.0</ele><time>2026-05-02T13:00:15.999Z</time></trkpt><trkpt lat="46.131485615531645" lon="11.817011098435088"><ele>1066.0</ele><time>2026-05-02T13:00:16.999Z</time></trkpt><trkpt lat="46.131397804333005" lon="11.816952618198542"><ele>1066.0</ele><time>2026-05-02T13:00:17.999Z</time></trkpt><trkpt lat="46.131338022962865" lon="11.816888881404676"><ele>1066.0</ele><time>2026-05-02T13:00:18.999Z</time></trkpt><trkpt lat="46.131314178896034" lon="11.816790683879418"><ele>1066.0</ele><time>2026-05-02T13:00:19.999Z</time></trkpt><trkpt lat="46.13133748673239" lon="11.816659050421464"><ele>1066.0</ele><time>2026-05-02T13:00:20.999Z</time></trkpt><trkpt lat="46.13139648681452" lon="11.816506163600037"><ele>1066.0</ele><time>2026-05-02T13:00:21.999Z</time></trkpt><trkpt lat="46.13145402580048" lon="11.816328883751662"><ele>1066.0</ele><time>2026-05-02T13:00:22.999Z</time></trkpt><trkpt lat="46.13150063798599" lon="11.816149266997735"><ele>1066.0</ele><time>2026-05-02T13:00:23.999Z</time></trkpt><trkpt lat="46.131547465992725" lon="11.815969371079241"><ele>1066.0</ele><time>2026-05-02T13:00:24.999Z</time></trkpt><trkpt lat="46.13159594874958" lon="11.815787915980641"><ele>1066.0</ele><time>2026-05-02T13:00:26.016Z</time></trkpt><trkpt lat="46.13164625338501" lon="11.8156036531955"><ele>1066.0</ele><time>2026-05-02T13:00:27.02Z</time></trkpt><trkpt lat="46.13169709218813" lon="11.815414063685697"><ele>1066.0</ele><time>2026-05-02T13:00:28.017Z</time></trkpt><trkpt lat="46.13174704469304" lon="11.815233220847011"><ele>1066.0</ele><time>2026-05-02T13:00:29.014Z</time></trkpt><trkpt lat="46.13189584644468" lon="11.814673478236932"><ele>1066.0</ele><time>2026-05-02T13:00:32.209Z</time></trkpt><trkpt lat="46.131929080187845" lon="11.81448954398718"><ele>1066.0</ele><time>2026-05-02T13:00:33.214Z</time></trkpt><trkpt lat="46.131992992118185" lon="11.81432420468878"><ele>1066.0</ele><time>2026-05-02T13:00:34.214Z</time></trkpt><trkpt lat="46.13202265035879" lon="11.814139577239716"><ele>1066.0</ele><time>2026-05-02T13:00:35.213Z</time></trkpt><trkpt lat="46.132080357011354" lon="11.81396935959909"><ele>1066.0</ele><time>2026-05-02T13:00:36.213Z</time></trkpt><trkpt lat="46.132103788445725" lon="11.813782680304646"><ele>1066.0</ele><time>2026-05-02T13:00:37.214Z</time></trkpt><trkpt lat="46.132142297841874" lon="11.813603377040138"><ele>1066.0</ele><time>2026-05-02T13:00:38.214Z</time></trkpt><trkpt lat="46.132184516980814" lon="11.813426124781806"><ele>1066.0</ele><time>2026-05-02T13:00:39.213Z</time></trkpt><trkpt lat="46.13223305300783" lon="11.813252430575195"><ele>1066.0</ele><time>2026-05-02T13:00:40.211Z</time></trkpt><trkpt lat="46.132299656418695" lon="11.813089605514916"><ele>1066.0</ele><time>2026-05-02T13:00:41.211Z</time></trkpt><trkpt lat="46.1323374295556" lon="11.812908664267658"><ele>1066.0</ele><time>2026-05-02T13:00:42.21Z</time></trkpt><trkpt lat="46.13240566818553" lon="11.812747002474284"><ele>1066.0</ele><time>2026-05-02T13:00:43.21Z</time></trkpt><trkpt lat="46.13245839605372" lon="11.812574674418139"><ele>1066.0</ele><time>2026-05-02T13:00:44.209Z</time></trkpt><trkpt lat="46.132507095053555" lon="11.812399431180152"><ele>1066.0</ele><time>2026-05-02T13:00:45.213Z</time></trkpt><trkpt lat="46.13253695899803" lon="11.812215462800415"><ele>1066.0</ele><time>2026-05-02T13:00:46.21Z</time></trkpt><trkpt lat="46.132581221044276" lon="11.812038188000233"><ele>1066.0</ele><time>2026-05-02T13:00:47.214Z</time></trkpt><trkpt lat="46.1326268309815" lon="11.811862407916419"><ele>1066.0</ele><time>2026-05-02T13:00:48.214Z</time></trkpt><trkpt lat="46.132689434481335" lon="11.811696063725448"><ele>1066.0</ele><time>2026-05-02T13:00:49.214Z</time></trkpt><trkpt lat="46.132735782862746" lon="11.81152034468903"><ele>1066.0</ele><time>2026-05-02T13:00:50.214Z</time></trkpt><trkpt lat="46.13277958408472" lon="11.811342488760694"><ele>1066.0</ele><time>2026-05-02T13:00:51.214Z</time></trkpt><trkpt lat="46.13281267786071" lon="11.811159607815293"><ele>968.6666666666666</ele><time>2026-05-02T13:00:52.211Z</time></trkpt><trkpt lat="46.132840216884794" lon="11.810976625729149"><ele>871.3333333333333</ele><time>2026-05-02T13:00:53.214Z</time></trkpt><trkpt lat="46.13286941980239" lon="11.81079501283839"><ele>774.0</ele><time>2026-05-02T13:00:54.211Z</time></trkpt><trkpt lat="46.13391253635859" lon="11.809078054513604"><ele>774.0</ele><time>2026-05-02T13:01:03.999Z</time></trkpt><trkpt lat="46.13398428456083" lon="11.808921529982795"><ele>774.0</ele><time>2026-05-02T13:01:04.999Z</time></trkpt><trkpt lat="46.133920765592855" lon="11.808818488267788"><ele>774.0</ele><time>2026-05-02T13:01:05.999Z</time></trkpt><trkpt lat="46.133956388005544" lon="11.80870212567647"><ele>774.0</ele><time>2026-05-02T13:01:06.999Z</time></trkpt><trkpt lat="46.13400050783051" lon="11.808606850329488"><ele>774.0</ele><time>2026-05-02T13:01:07.999Z</time></trkpt><trkpt lat="46.134068226133344" lon="11.808499336923592"><ele>768.8000000000001</ele><time>2026-05-02T13:01:08.999Z</time></trkpt><trkpt lat="46.13415792821862" lon="11.808423900938124"><ele>763.6</ele><time>2026-05-02T13:01:10Z</time></trkpt><trkpt lat="46.13426564531925" lon="11.808392633602352"><ele>758.4</ele><time>2026-05-02T13:01:11Z</time></trkpt><trkpt lat="46.13434003277503" lon="11.808322515121851"><ele>753.2</ele><time>2026-05-02T13:01:12Z</time></trkpt><trkpt lat="46.13444076362247" lon="11.80830459150815"><ele>748.0</ele><time>2026-05-02T13:01:13Z</time></trkpt><trkpt lat="46.134517993143426" lon="11.808212012412195"><ele>748.0</ele><time>2026-05-02T13:01:14Z</time></trkpt><trkpt lat="46.134590932292554" lon="11.808107400130135"><ele>748.0</ele><time>2026-05-02T13:01:15Z</time></trkpt><trkpt lat="46.13465986394543" lon="11.807992595488644"><ele>748.0</ele><time>2026-05-02T13:01:16Z</time></trkpt><trkpt lat="46.134745586755066" lon="11.807860512986231"><ele>748.0</ele><time>2026-05-02T13:01:17Z</time></trkpt><trkpt lat="46.13483200581986" lon="11.807728679268525"><ele>741.5</ele><time>2026-05-02T13:01:18Z</time></trkpt><trkpt lat="46.13491638009428" lon="11.807592987462545"><ele>735.0</ele><time>2026-05-02T13:01:19Z</time></trkpt><trkpt lat="46.134996646319884" lon="11.807459316934771"><ele>728.5</ele><time>2026-05-02T13:01:20Z</time></trkpt><trkpt lat="46.13507432874585" lon="11.807324748649243"><ele>722.0</ele><time>2026-05-02T13:01:21Z</time></trkpt><trkpt lat="46.13513457957263" lon="11.807180217942687"><ele>722.0</ele><time>2026-05-02T13:01:22Z</time></trkpt><trkpt lat="46.135173683039554" lon="11.80703779094132"><ele>722.0</ele><time>2026-05-02T13:01:23Z</time></trkpt><trkpt lat="46.13521924234801" lon="11.806907308687798"><ele>722.0</ele><time>2026-05-02T13:01:24Z</time></trkpt><trkpt lat="46.13525778360651" lon="11.806815613994546"><ele>722.0</ele><time>2026-05-02T13:01:25Z</time></trkpt><trkpt lat="46.13530799698201" lon="11.806737474198405"><ele>722.0</ele><time>2026-05-02T13:01:26Z</time></trkpt><trkpt lat="46.13537374846472" lon="11.806702407815981"><ele>722.0</ele><time>2026-05-02T13:01:27Z</time></trkpt><trkpt lat="46.13546022254007" lon="11.80676143632071"><ele>751.0</ele><time>2026-05-02T13:01:29Z</time></trkpt><trkpt lat="46.13553948143795" lon="11.806796742453484"><ele>751.0</ele><time>2026-05-02T13:01:31Z</time></trkpt><trkpt lat="46.13561243467718" lon="11.80686581252492"><ele>722.0</ele><time>2026-05-02T13:01:33Z</time></trkpt><trkpt lat="46.1356693930338" lon="11.8069170122402"><ele>722.0</ele><time>2026-05-02T13:01:48Z</time></trkpt><trkpt lat="46.13567641401201" lon="11.807015450444286"><ele>722.0</ele><time>2026-05-02T13:04:22Z</time></trkpt><trkpt lat="46.13568571950296" lon="11.807108545465441"><ele>722.0</ele><time>2026-05-02T13:05:22.001Z</time></trkpt></trkseg><trkseg><trkpt lat="46.13569135504233" lon="11.807054982147472"><ele>723.5</ele><time>2026-05-02T14:05:56.999Z</time></trkpt><trkpt lat="46.13576311534285" lon="11.807020497288763"><ele>725.0</ele><time>2026-05-02T14:06:02.998Z</time></trkpt><trkpt lat="46.13584615431511" lon="11.807003650362441"><ele>726.5</ele><time>2026-05-02T14:06:04.998Z</time></trkpt><trkpt lat="46.13594503440994" lon="11.807009996369095"><ele>728.0</ele><time>2026-05-02T14:06:06.998Z</time></trkpt><trkpt lat="46.136044049188186" lon="11.80697081889444"><ele>729.5</ele><time>2026-05-02T14:06:08.998Z</time></trkpt><trkpt lat="46.13611742225594" lon="11.806920501341775"><ele>731.0</ele><time>2026-05-02T14:06:09.998Z</time></trkpt><trkpt lat="46.13619898145099" lon="11.806884355966568"><ele>731.0</ele><time>2026-05-02T14:06:10.998Z</time></trkpt><trkpt lat="46.13625668411275" lon="11.80684003749411"><ele>731.0</ele><time>2026-05-02T14:06:11.998Z</time></trkpt><trkpt lat="46.136295655531654" lon="11.806761626503791"><ele>731.0</ele><time>2026-05-02T14:06:12.998Z</time></trkpt><trkpt lat="46.13632233914593" lon="11.806671593977997"><ele>731.0</ele><time>2026-05-02T14:06:13.998Z</time></trkpt><trkpt lat="46.1363283195177" lon="11.806562546741217"><ele>731.0</ele><time>2026-05-02T14:06:14.998Z</time></trkpt><trkpt lat="46.136341915110066" lon="11.806451445140198"><ele>731.0</ele><time>2026-05-02T14:06:15.998Z</time></trkpt><trkpt lat="46.13636384810505" lon="11.806339404803865"><ele>731.0</ele><time>2026-05-02T14:06:16.998Z</time></trkpt><trkpt lat="46.13640018010393" lon="11.80625353207606"><ele>731.0</ele><time>2026-05-02T14:06:17.998Z</time></trkpt><trkpt lat="46.13649665561364" lon="11.80641453697299"><ele>731.0</ele><time>2026-05-02T14:06:20.998Z</time></trkpt><trkpt lat="46.13641338335516" lon="11.806581989199739"><ele>731.0</ele><time>2026-05-02T14:06:21.998Z</time></trkpt><trkpt lat="46.136430489910474" lon="11.806762724724447"><ele>731.0</ele><time>2026-05-02T14:06:22.998Z</time></trkpt><trkpt lat="46.13646123274817" lon="11.806913014898209"><ele>731.0</ele><time>2026-05-02T14:06:23.998Z</time></trkpt><trkpt lat="46.13654507793907" lon="11.807025261847661"><ele>731.0</ele><time>2026-05-02T14:06:24.998Z</time></trkpt><trkpt lat="46.13666496215389" lon="11.807108916945802"><ele>731.0</ele><time>2026-05-02T14:06:25.998Z</time></trkpt><trkpt lat="46.136822049943085" lon="11.807163640821496"><ele>731.0</ele><time>2026-05-02T14:06:26.998Z</time></trkpt><trkpt lat="46.136973681093075" lon="11.80719684905462"><ele>732.0</ele><time>2026-05-02T14:06:27.998Z</time></trkpt><trkpt lat="46.13708896752448" lon="11.807220697372905"><ele>733.0</ele><time>2026-05-02T14:06:28.998Z</time></trkpt><trkpt lat="46.137185002941145" lon="11.807194962955439"><ele>734.0</ele><time>2026-05-02T14:06:29.998Z</time></trkpt><trkpt lat="46.137274993677764" lon="11.80707129936097"><ele>735.0</ele><time>2026-05-02T14:06:30.998Z</time></trkpt><trkpt lat="46.13735278192648" lon="11.806904656506465"><ele>730.5</ele><time>2026-05-02T14:06:31.998Z</time></trkpt><trkpt lat="46.13738005875344" lon="11.806685346424034"><ele>726.0</ele><time>2026-05-02T14:06:32.998Z</time></trkpt><trkpt lat="46.13740679166697" lon="11.806492822550855"><ele>721.5</ele><time>2026-05-02T14:06:33.998Z</time></trkpt><trkpt lat="46.137440315393384" lon="11.806322465021491"><ele>717.0</ele><time>2026-05-02T14:06:34.998Z</time></trkpt><trkpt lat="46.137513968744656" lon="11.806162439695363"><ele>717.0</ele><time>2026-05-02T14:06:35.998Z</time></trkpt><trkpt lat="46.137594795686184" lon="11.806024396759767"><ele>717.0</ele><time>2026-05-02T14:06:36.998Z</time></trkpt><trkpt lat="46.1376637994621" lon="11.805892234406254"><ele>717.0</ele><time>2026-05-02T14:06:37.998Z</time></trkpt><trkpt lat="46.13771946806482" lon="11.805748338471021"><ele>717.0</ele><time>2026-05-02T14:06:38.998Z</time></trkpt><trkpt lat="46.13779929830547" lon="11.805604652908329"><ele>713.25</ele><time>2026-05-02T14:06:39.998Z</time></trkpt><trkpt lat="46.137900466625815" lon="11.805453017701124"><ele>709.5</ele><time>2026-05-02T14:06:40.998Z</time></trkpt><trkpt lat="46.13800231524349" lon="11.805297454350736"><ele>705.75</ele><time>2026-05-02T14:06:41.998Z</time></trkpt><trkpt lat="46.13810828965622" lon="11.805167897649234"><ele>702.0</ele><time>2026-05-02T14:06:43.016Z</time></trkpt><trkpt lat="46.13821391620093" lon="11.805043891650035"><ele>701.6666666666666</ele><time>2026-05-02T14:06:44.024Z</time></trkpt><trkpt lat="46.138308420937946" lon="11.8049452200456"><ele>701.3333333333333</ele><time>2026-05-02T14:06:44.998Z</time></trkpt><trkpt lat="46.13851533707407" lon="11.804736642643523"><ele>701.0</ele><time>2026-05-02T14:06:45.998Z</time></trkpt><trkpt lat="46.138637679772835" lon="11.804584351520537"><ele>701.0</ele><time>2026-05-02T14:06:46.998Z</time></trkpt><trkpt lat="46.138755374604386" lon="11.804475797653785"><ele>701.0</ele><time>2026-05-02T14:06:48Z</time></trkpt><trkpt lat="46.138836912342185" lon="11.804368970115561"><ele>701.0</ele><time>2026-05-02T14:06:49Z</time></trkpt><trkpt lat="46.138904469775305" lon="11.804265150974071"><ele>701.0</ele><time>2026-05-02T14:06:50Z</time></trkpt><trkpt lat="46.13897067747356" lon="11.804155214607924"><ele>701.0</ele><time>2026-05-02T14:06:51Z</time></trkpt><trkpt lat="46.139040807849334" lon="11.804037219884034"><ele>702.8</ele><time>2026-05-02T14:06:52.015Z</time></trkpt><trkpt lat="46.13911277205408" lon="11.80392760079424"><ele>704.5999999999999</ele><time>2026-05-02T14:06:53.022Z</time></trkpt><trkpt lat="46.139154045721405" lon="11.803802191906424"><ele>706.4</ele><time>2026-05-02T14:06:54.016Z</time></trkpt><trkpt lat="46.139197038482855" lon="11.80366800648805"><ele>708.2</ele><time>2026-05-02T14:06:55.019Z</time></trkpt><trkpt lat="46.13924741703698" lon="11.803479528875927"><ele>710.0</ele><time>2026-05-02T14:06:56.02Z</time></trkpt><trkpt lat="46.13931197657552" lon="11.803283581137153"><ele>700.0</ele><time>2026-05-02T14:06:57.02Z</time></trkpt><trkpt lat="46.1393841760265" lon="11.803138689830266"><ele>690.0</ele><time>2026-05-02T14:06:58.014Z</time></trkpt><trkpt lat="46.13959010229086" lon="11.802899250771667"><ele>680.0</ele><time>2026-05-02T14:07:01Z</time></trkpt><trkpt lat="46.13968237483011" lon="11.802841383637576"><ele>680.0</ele><time>2026-05-02T14:07:02Z</time></trkpt><trkpt lat="46.13979336693894" lon="11.802798354219107"><ele>680.0</ele><time>2026-05-02T14:07:03Z</time></trkpt><trkpt lat="46.139897390555056" lon="11.802743626990337"><ele>680.0</ele><time>2026-05-02T14:07:04Z</time></trkpt><trkpt lat="46.14003314888637" lon="11.802639461384047"><ele>680.0</ele><time>2026-05-02T14:07:05Z</time></trkpt><trkpt lat="46.14017658007488" lon="11.802474738116237"><ele>681.0</ele><time>2026-05-02T14:07:06Z</time></trkpt><trkpt lat="46.14031860839829" lon="11.802346685773088"><ele>682.0</ele><time>2026-05-02T14:07:07Z</time></trkpt><trkpt lat="46.140410324615885" lon="11.802229715195331"><ele>683.0</ele><time>2026-05-02T14:07:08Z</time></trkpt><trkpt lat="46.14049403243453" lon="11.802136150057802"><ele>684.0</ele><time>2026-05-02T14:07:09Z</time></trkpt><trkpt lat="46.1405815521497" lon="11.802064891848932"><ele>684.0</ele><time>2026-05-02T14:07:10Z</time></trkpt><trkpt lat="46.14069857583649" lon="11.802039586284465"><ele>684.0</ele><time>2026-05-02T14:07:11Z</time></trkpt><trkpt lat="46.14082275770552" lon="11.801979474266092"><ele>684.0</ele><time>2026-05-02T14:07:12Z</time></trkpt><trkpt lat="46.14095722530704" lon="11.801924198271019"><ele>684.0</ele><time>2026-05-02T14:07:13Z</time></trkpt><trkpt lat="46.141080681452394" lon="11.801845158068705"><ele>683.5</ele><time>2026-05-02T14:07:14Z</time></trkpt><trkpt lat="46.141189523138024" lon="11.801779783220235"><ele>683.0</ele><time>2026-05-02T14:07:15Z</time></trkpt><trkpt lat="46.14131420582363" lon="11.801743732635675"><ele>682.5</ele><time>2026-05-02T14:07:16Z</time></trkpt><trkpt lat="46.14144868333019" lon="11.801727263962299"><ele>682.0</ele><time>2026-05-02T14:07:16.999Z</time></trkpt><trkpt lat="46.141571194566545" lon="11.801711429150354"><ele>684.75</ele><time>2026-05-02T14:07:17.999Z</time></trkpt><trkpt lat="46.141686453832804" lon="11.801705297443435"><ele>687.5</ele><time>2026-05-02T14:07:18.999Z</time></trkpt><trkpt lat="46.141809173927186" lon="11.801746403708927"><ele>690.25</ele><time>2026-05-02T14:07:19.999Z</time></trkpt><trkpt lat="46.14195420972117" lon="11.80180147651791"><ele>693.0</ele><time>2026-05-02T14:07:20.999Z</time></trkpt><trkpt lat="46.142094445731715" lon="11.801821401963247"><ele>693.0</ele><time>2026-05-02T14:07:21.999Z</time></trkpt><trkpt lat="46.142212635919925" lon="11.801821621515643"><ele>693.0</ele><time>2026-05-02T14:07:22.999Z</time></trkpt><trkpt lat="46.14232881193332" lon="11.801776864507445"><ele>693.0</ele><time>2026-05-02T14:07:23.999Z</time></trkpt><trkpt lat="46.14242770543224" lon="11.801721752364777"><ele>693.0</ele><time>2026-05-02T14:07:24.999Z</time></trkpt><trkpt lat="46.1425094081454" lon="11.80168262948427"><ele>693.0</ele><time>2026-05-02T14:07:25.999Z</time></trkpt><trkpt lat="46.14257671902609" lon="11.801641876363465"><ele>691.0</ele><time>2026-05-02T14:07:26.999Z</time></trkpt><trkpt lat="46.142633824272686" lon="11.801594192504457"><ele>689.0</ele><time>2026-05-02T14:07:27.999Z</time></trkpt><trkpt lat="46.142697112189346" lon="11.801545513942406"><ele>687.0</ele><time>2026-05-02T14:07:28.999Z</time></trkpt><trkpt lat="46.142782406732465" lon="11.80150374345853"><ele>685.0</ele><time>2026-05-02T14:07:29.999Z</time></trkpt><trkpt lat="46.142888917642985" lon="11.801474253970715"><ele>683.0</ele><time>2026-05-02T14:07:30.999Z</time></trkpt><trkpt lat="46.142990617231085" lon="11.80147137465825"><ele>681.0</ele><time>2026-05-02T14:07:31.999Z</time></trkpt><trkpt lat="46.14306839290956" lon="11.801431950005462"><ele>681.0</ele><time>2026-05-02T14:07:32.999Z</time></trkpt><trkpt lat="46.143135675425874" lon="11.801396925052249"><ele>681.0</ele><time>2026-05-02T14:07:33.999Z</time></trkpt><trkpt lat="46.14318558193752" lon="11.801310816394965"><ele>681.0</ele><time>2026-05-02T14:07:34.999Z</time></trkpt><trkpt lat="46.143263540009286" lon="11.801239461940186"><ele>681.0</ele><time>2026-05-02T14:07:35.999Z</time></trkpt><trkpt lat="46.14334491414891" lon="11.801159463853267"><ele>681.0</ele><time>2026-05-02T14:07:36.999Z</time></trkpt><trkpt lat="46.14341274930124" lon="11.801092649064891"><ele>681.0</ele><time>2026-05-02T14:07:37.999Z</time></trkpt><trkpt lat="46.14348574771979" lon="11.80099490077647"><ele>678.0</ele><time>2026-05-02T14:07:39.999Z</time></trkpt><trkpt lat="46.14355597179042" lon="11.800908622908489"><ele>675.0</ele><time>2026-05-02T14:07:44.999Z</time></trkpt><trkpt lat="46.143650859270025" lon="11.800868625973465"><ele>672.0</ele><time>2026-05-02T14:07:46.999Z</time></trkpt><trkpt lat="46.14373253230588" lon="11.800855145981455"><ele>669.0</ele><time>2026-05-02T14:07:47.999Z</time></trkpt><trkpt lat="46.14382582208698" lon="11.800860202591732"><ele>666.0</ele><time>2026-05-02T14:07:48.999Z</time></trkpt><trkpt lat="46.14392040464322" lon="11.80086654873905"><ele>666.0</ele><time>2026-05-02T14:07:49.999Z</time></trkpt><trkpt lat="46.14402737788465" lon="11.800887957492575"><ele>666.0</ele><time>2026-05-02T14:07:50.999Z</time></trkpt><trkpt lat="46.14413038710083" lon="11.800929145620755"><ele>666.0</ele><time>2026-05-02T14:07:51.999Z</time></trkpt><trkpt lat="46.14422234375168" lon="11.800975697553637"><ele>666.0</ele><time>2026-05-02T14:07:52.999Z</time></trkpt><trkpt lat="46.14431628662847" lon="11.8010240416021"><ele>666.0</ele><time>2026-05-02T14:07:53.999Z</time></trkpt><trkpt lat="46.144415678561096" lon="11.801070493922362"><ele>663.8</ele><time>2026-05-02T14:07:54.999Z</time></trkpt><trkpt lat="46.144500910789574" lon="11.801129196992857"><ele>661.5999999999999</ele><time>2026-05-02T14:07:55.999Z</time></trkpt><trkpt lat="46.14458781884413" lon="11.80121047310342"><ele>659.4</ele><time>2026-05-02T14:07:56.999Z</time></trkpt><trkpt lat="46.14467844054761" lon="11.80130682977342"><ele>657.2</ele><time>2026-05-02T14:07:57.999Z</time></trkpt><trkpt lat="46.14478056101728" lon="11.8014247605349"><ele>655.0</ele><time>2026-05-02T14:07:58.999Z</time></trkpt><trkpt lat="46.14489363557203" lon="11.801564007972067"><ele>652.75</ele><time>2026-05-02T14:07:59.999Z</time></trkpt><trkpt lat="46.14500591254553" lon="11.801688205926494"><ele>650.5</ele><time>2026-05-02T14:08:00.999Z</time></trkpt><trkpt lat="46.14510223500525" lon="11.801823377343243"><ele>648.25</ele><time>2026-05-02T14:08:01.998Z</time></trkpt><trkpt lat="46.145191708632794" lon="11.801956585344449"><ele>646.0</ele><time>2026-05-02T14:08:02.998Z</time></trkpt><trkpt lat="46.145269859808636" lon="11.802075139917665"><ele>646.0</ele><time>2026-05-02T14:08:03.998Z</time></trkpt><trkpt lat="46.14534392986321" lon="11.80219036244788"><ele>646.0</ele><time>2026-05-02T14:08:04.998Z</time></trkpt><trkpt lat="46.14542840715599" lon="11.80230203646057"><ele>646.0</ele><time>2026-05-02T14:08:05.998Z</time></trkpt><trkpt lat="46.14552241521313" lon="11.802399882996534"><ele>646.0</ele><time>2026-05-02T14:08:06.998Z</time></trkpt><trkpt lat="46.14562059893036" lon="11.802491674133481"><ele>646.5</ele><time>2026-05-02T14:08:07.998Z</time></trkpt><trkpt lat="46.14572769562708" lon="11.802575712930434"><ele>647.0</ele><time>2026-05-02T14:08:08.998Z</time></trkpt><trkpt lat="46.14583855889421" lon="11.802651658848262"><ele>647.5</ele><time>2026-05-02T14:08:09.998Z</time></trkpt><trkpt lat="46.14593913932181" lon="11.802719530002017"><ele>648.0</ele><time>2026-05-02T14:08:10.998Z</time></trkpt><trkpt lat="46.14602688530226" lon="11.802790038018012"><ele>648.0</ele><time>2026-05-02T14:08:11.998Z</time></trkpt><trkpt lat="46.146108302032864" lon="11.8028543655883"><ele>648.0</ele><time>2026-05-02T14:08:12.998Z</time></trkpt><trkpt lat="46.14618569427031" lon="11.802908364599938"><ele>648.0</ele><time>2026-05-02T14:08:13.998Z</time></trkpt><trkpt lat="46.14626263094046" lon="11.802964114035246"><ele>648.0</ele><time>2026-05-02T14:08:14.998Z</time></trkpt><trkpt lat="46.14633655946038" lon="11.80302069960172"><ele>648.0</ele><time>2026-05-02T14:08:15.998Z</time></trkpt><trkpt lat="46.146417206023564" lon="11.803081106974176"><ele>648.0</ele><time>2026-05-02T14:08:16.998Z</time></trkpt><trkpt lat="46.14651274609532" lon="11.803146346402206"><ele>646.1999999999999</ele><time>2026-05-02T14:08:17.998Z</time></trkpt><trkpt lat="46.1466063205787" lon="11.803222743656969"><ele>644.4</ele><time>2026-05-02T14:08:18.998Z</time></trkpt><trkpt lat="46.14669890489648" lon="11.803312051634132"><ele>642.5999999999999</ele><time>2026-05-02T14:08:19.998Z</time></trkpt><trkpt lat="46.14678800446961" lon="11.803409058119918"><ele>640.8</ele><time>2026-05-02T14:08:20.998Z</time></trkpt><trkpt lat="46.14686588571089" lon="11.803516104838351"><ele>639.0</ele><time>2026-05-02T14:08:21.998Z</time></trkpt><trkpt lat="46.14693913025654" lon="11.803623539382695"><ele>639.0</ele><time>2026-05-02T14:08:22.998Z</time></trkpt><trkpt lat="46.14701354711735" lon="11.803724698112548"><ele>639.0</ele><time>2026-05-02T14:08:23.998Z</time></trkpt><trkpt lat="46.1470904636185" lon="11.803832695290673"><ele>639.0</ele><time>2026-05-02T14:08:24.998Z</time></trkpt><trkpt lat="46.14716867497721" lon="11.803944074853487"><ele>639.0</ele><time>2026-05-02T14:08:25.998Z</time></trkpt><trkpt lat="46.14724861675888" lon="11.804054206081542"><ele>639.0</ele><time>2026-05-02T14:08:26.998Z</time></trkpt><trkpt lat="46.14732840958587" lon="11.804165778409"><ele>639.0</ele><time>2026-05-02T14:08:27.998Z</time></trkpt><trkpt lat="46.14740794346053" lon="11.804279412268787"><ele>639.0</ele><time>2026-05-02T14:08:28.998Z</time></trkpt><trkpt lat="46.14748811059242" lon="11.804398348676665"><ele>639.0</ele><time>2026-05-02T14:08:29.998Z</time></trkpt><trkpt lat="46.14756386770886" lon="11.80452222014569"><ele>639.0</ele><time>2026-05-02T14:08:30.998Z</time></trkpt><trkpt lat="46.1476335194245" lon="11.804654709263032"><ele>639.0</ele><time>2026-05-02T14:08:31.998Z</time></trkpt><trkpt lat="46.147695752158235" lon="11.80480323053297"><ele>639.0</ele><time>2026-05-02T14:08:32.998Z</time></trkpt><trkpt lat="46.147757892738774" lon="11.804959470931989"><ele>639.0</ele><time>2026-05-02T14:08:33.998Z</time></trkpt><trkpt lat="46.147815878900474" lon="11.805123898497863"><ele>639.0</ele><time>2026-05-02T14:08:34.998Z</time></trkpt><trkpt lat="46.147870356817464" lon="11.805299533295821"><ele>644.5</ele><time>2026-05-02T14:08:35.998Z</time></trkpt><trkpt lat="46.147925434856525" lon="11.805480535174526"><ele>650.0</ele><time>2026-05-02T14:08:36.998Z</time></trkpt><trkpt lat="46.147976523168346" lon="11.805658347240616"><ele>655.5</ele><time>2026-05-02T14:08:37.998Z</time></trkpt><trkpt lat="46.148028039698204" lon="11.805842172875192"><ele>661.0</ele><time>2026-05-02T14:08:38.998Z</time></trkpt><trkpt lat="46.148083670572056" lon="11.806029361394062"><ele>669.0</ele><time>2026-05-02T14:08:39.998Z</time></trkpt><trkpt lat="46.148148116068676" lon="11.80622919883241"><ele>677.0</ele><time>2026-05-02T14:08:40.998Z</time></trkpt><trkpt lat="46.14821755396303" lon="11.806434446965978"><ele>685.0</ele><time>2026-05-02T14:08:41.998Z</time></trkpt><trkpt lat="46.148290371915" lon="11.80665301224695"><ele>671.6666666666667</ele><time>2026-05-02T14:08:42.998Z</time></trkpt><trkpt lat="46.1483541364597" lon="11.806863389980236"><ele>658.3333333333334</ele><time>2026-05-02T14:08:43.998Z</time></trkpt><trkpt lat="46.14841488174817" lon="11.807068786219709"><ele>645.0</ele><time>2026-05-02T14:08:44.998Z</time></trkpt><trkpt lat="46.14847068761472" lon="11.807299335789793"><ele>645.0</ele><time>2026-05-02T14:08:45.998Z</time></trkpt><trkpt lat="46.14850335348715" lon="11.807551358267885"><ele>645.0</ele><time>2026-05-02T14:08:46.998Z</time></trkpt><trkpt lat="46.14856305611621" lon="11.80775989900017"><ele>645.0</ele><time>2026-05-02T14:08:47.997Z</time></trkpt><trkpt lat="46.14862216087489" lon="11.807922379808243"><ele>642.4</ele><time>2026-05-02T14:08:48.997Z</time></trkpt><trkpt lat="46.14867801877812" lon="11.80804878136529"><ele>639.8</ele><time>2026-05-02T14:08:49.997Z</time></trkpt><trkpt lat="46.1487624921294" lon="11.808157725757077"><ele>637.2</ele><time>2026-05-02T14:08:50.997Z</time></trkpt><trkpt lat="46.14884946417473" lon="11.808199654340504"><ele>634.6</ele><time>2026-05-02T14:08:51.997Z</time></trkpt><trkpt lat="46.14897452126212" lon="11.808208408295325"><ele>632.0</ele><time>2026-05-02T14:08:52.997Z</time></trkpt><trkpt lat="46.149113332949995" lon="11.808108404611788"><ele>632.0</ele><time>2026-05-02T14:08:53.999Z</time></trkpt><trkpt lat="46.149265240911085" lon="11.808002024988504"><ele>632.0</ele><time>2026-05-02T14:08:54.999Z</time></trkpt><trkpt lat="46.14938765338837" lon="11.807916861165147"><ele>632.0</ele><time>2026-05-02T14:08:55.999Z</time></trkpt><trkpt lat="46.14950426049559" lon="11.807835017086765"><ele>632.0</ele><time>2026-05-02T14:08:56.999Z</time></trkpt><trkpt lat="46.14963887388561" lon="11.807792330355664"><ele>632.0</ele><time>2026-05-02T14:08:58.999Z</time></trkpt><trkpt lat="46.1497009974086" lon="11.8078366892174"><ele>632.0</ele><time>2026-05-02T14:08:59.999Z</time></trkpt><trkpt lat="46.149757809268735" lon="11.807944093140991"><ele>632.0</ele><time>2026-05-02T14:09:00.999Z</time></trkpt><trkpt lat="46.149785458847475" lon="11.808094882930293"><ele>632.0</ele><time>2026-05-02T14:09:01.999Z</time></trkpt><trkpt lat="46.149818382032905" lon="11.808276392107112"><ele>632.0</ele><time>2026-05-02T14:09:02.999Z</time></trkpt><trkpt lat="46.149912019971744" lon="11.80835858281277"><ele>631.0</ele><time>2026-05-02T14:09:03.999Z</time></trkpt><trkpt lat="46.149988471447536" lon="11.808565394920185"><ele>630.0</ele><time>2026-05-02T14:09:04.999Z</time></trkpt><trkpt lat="46.15007487667398" lon="11.808783424110906"><ele>629.0</ele><time>2026-05-02T14:09:05.999Z</time></trkpt><trkpt lat="46.15016841445332" lon="11.80897123758459"><ele>629.0</ele><time>2026-05-02T14:09:06.999Z</time></trkpt><trkpt lat="46.150245730239504" lon="11.80917974937895"><ele>629.0</ele><time>2026-05-02T14:09:07.999Z</time></trkpt><trkpt lat="46.15032244530961" lon="11.809374495876698"><ele>629.0</ele><time>2026-05-02T14:09:08.999Z</time></trkpt><trkpt lat="46.150403754567655" lon="11.809560924768224"><ele>629.0</ele><time>2026-05-02T14:09:09.999Z</time></trkpt><trkpt lat="46.150491538340184" lon="11.809743127752737"><ele>629.0</ele><time>2026-05-02T14:09:10.999Z</time></trkpt><trkpt lat="46.150580729183396" lon="11.80991699376842"><ele>629.0</ele><time>2026-05-02T14:09:11.999Z</time></trkpt><trkpt lat="46.15067112834704" lon="11.810086726392681"><ele>630.0</ele><time>2026-05-02T14:09:12.999Z</time></trkpt><trkpt lat="46.15077227873582" lon="11.810254877323576"><ele>631.0</ele><time>2026-05-02T14:09:13.999Z</time></trkpt><trkpt lat="46.15087557279575" lon="11.810419178187693"><ele>632.0</ele><time>2026-05-02T14:09:14.999Z</time></trkpt><trkpt lat="46.15098857450725" lon="11.810590634085951"><ele>632.0</ele><time>2026-05-02T14:09:15.999Z</time></trkpt><trkpt lat="46.151101776144074" lon="11.810761091260568"><ele>632.0</ele><time>2026-05-02T14:09:16.999Z</time></trkpt><trkpt lat="46.15121533095052" lon="11.810922182012181"><ele>632.0</ele><time>2026-05-02T14:09:17.999Z</time></trkpt><trkpt lat="46.15133100230889" lon="11.81107482352002"><ele>632.6666666666666</ele><time>2026-05-02T14:09:18.999Z</time></trkpt><trkpt lat="46.15145246505236" lon="11.811217829324693"><ele>633.3333333333334</ele><time>2026-05-02T14:09:19.999Z</time></trkpt><trkpt lat="46.15158103117067" lon="11.811355110273338"><ele>634.0</ele><time>2026-05-02T14:09:20.999Z</time></trkpt><trkpt lat="46.151707016784215" lon="11.811494402097788"><ele>634.3333333333334</ele><time>2026-05-02T14:09:21.999Z</time></trkpt><trkpt lat="46.1518413815511" lon="11.811633590045023"><ele>634.6666666666666</ele><time>2026-05-02T14:09:22.999Z</time></trkpt><trkpt lat="46.15198450595471" lon="11.811761500971544"><ele>635.0</ele><time>2026-05-02T14:09:23.999Z</time></trkpt><trkpt lat="46.152130619434715" lon="11.811891281581921"><ele>635.0</ele><time>2026-05-02T14:09:24.999Z</time></trkpt><trkpt lat="46.15228312561453" lon="11.812011295795708"><ele>635.0</ele><time>2026-05-02T14:09:25.999Z</time></trkpt><trkpt lat="46.152460758830046" lon="11.812105400605928"><ele>635.0</ele><time>2026-05-02T14:09:26.999Z</time></trkpt><trkpt lat="46.15262378261364" lon="11.812242746704399"><ele>635.0</ele><time>2026-05-02T14:09:27.999Z</time></trkpt><trkpt lat="46.15277245921927" lon="11.812370636655555"><ele>635.0</ele><time>2026-05-02T14:09:28.999Z</time></trkpt><trkpt lat="46.152919313498316" lon="11.812489831628803"><ele>635.0</ele><time>2026-05-02T14:09:29.999Z</time></trkpt><trkpt lat="46.15306423207417" lon="11.812597807445266"><ele>636.3333333333333</ele><time>2026-05-02T14:09:30.999Z</time></trkpt><trkpt lat="46.153212122738026" lon="11.81271454193339"><ele>637.6666666666666</ele><time>2026-05-02T14:09:31.999Z</time></trkpt><trkpt lat="46.1533605402637" lon="11.812840192771292"><ele>639.0</ele><time>2026-05-02T14:09:32.999Z</time></trkpt><trkpt lat="46.15351303559714" lon="11.812964034629285"><ele>639.0</ele><time>2026-05-02T14:09:33.999Z</time></trkpt><trkpt lat="46.15367589187822" lon="11.813068352055513"><ele>639.0</ele><time>2026-05-02T14:09:34.999Z</time></trkpt><trkpt lat="46.153844501990015" lon="11.813169782006813"><ele>639.0</ele><time>2026-05-02T14:09:35.999Z</time></trkpt><trkpt lat="46.15400567800802" lon="11.813271045015911"><ele>639.6666666666666</ele><time>2026-05-02T14:09:36.999Z</time></trkpt><trkpt lat="46.15417320740707" lon="11.813366124873284"><ele>640.3333333333333</ele><time>2026-05-02T14:09:37.999Z</time></trkpt><trkpt lat="46.15434834172891" lon="11.813452638899022"><ele>641.0</ele><time>2026-05-02T14:09:38.999Z</time></trkpt><trkpt lat="46.154519317659656" lon="11.813533838329846"><ele>641.6666666666666</ele><time>2026-05-02T14:09:39.999Z</time></trkpt><trkpt lat="46.15469263144924" lon="11.813609200457469"><ele>642.3333333333334</ele><time>2026-05-02T14:09:40.999Z</time></trkpt><trkpt lat="46.15485174594476" lon="11.81367507468738"><ele>643.0</ele><time>2026-05-02T14:09:41.999Z</time></trkpt><trkpt lat="46.15499423275904" lon="11.813733654710198"><ele>643.0</ele><time>2026-05-02T14:09:42.999Z</time></trkpt><trkpt lat="46.155121154991626" lon="11.813791246134391"><ele>643.0</ele><time>2026-05-02T14:09:43.999Z</time></trkpt><trkpt lat="46.1552428465894" lon="11.813857184096209"><ele>643.0</ele><time>2026-05-02T14:09:44.999Z</time></trkpt><trkpt lat="46.15535859594841" lon="11.81392703831687"><ele>643.0</ele><time>2026-05-02T14:09:45.999Z</time></trkpt><trkpt lat="46.15545975634931" lon="11.814001308765368"><ele>643.0</ele><time>2026-05-02T14:09:46.999Z</time></trkpt><trkpt lat="46.155563056828704" lon="11.814089084471615"><ele>643.0</ele><time>2026-05-02T14:09:47.999Z</time></trkpt><trkpt lat="46.15567265718792" lon="11.814174014883307"><ele>643.0</ele><time>2026-05-02T14:09:48.999Z</time></trkpt><trkpt lat="46.15579224199043" lon="11.814257995140824"><ele>643.0</ele><time>2026-05-02T14:09:49.999Z</time></trkpt><trkpt lat="46.15590627355897" lon="11.814330728338216"><ele>644.0</ele><time>2026-05-02T14:09:50.999Z</time></trkpt><trkpt lat="46.15601953475777" lon="11.814382710371016"><ele>645.0</ele><time>2026-05-02T14:09:51.999Z</time></trkpt><trkpt lat="46.15612045391514" lon="11.814516209209293"><ele>646.0</ele><time>2026-05-02T14:09:52.999Z</time></trkpt><trkpt lat="46.156223922811144" lon="11.814652344646083"><ele>647.0</ele><time>2026-05-02T14:09:53.999Z</time></trkpt><trkpt lat="46.15631522450655" lon="11.814822229843925"><ele>647.0</ele><time>2026-05-02T14:09:54.999Z</time></trkpt><trkpt lat="46.15639193461931" lon="11.815007351086361"><ele>647.0</ele><time>2026-05-02T14:09:55.999Z</time></trkpt><trkpt lat="46.15646901237134" lon="11.815195755568187"><ele>647.0</ele><time>2026-05-02T14:09:56.999Z</time></trkpt><trkpt lat="46.15655326471661" lon="11.815389349126441"><ele>649.0</ele><time>2026-05-02T14:09:57.999Z</time></trkpt><trkpt lat="46.15663831165183" lon="11.81559108103217"><ele>651.0</ele><time>2026-05-02T14:09:58.999Z</time></trkpt><trkpt lat="46.15672930619324" lon="11.815804006357597"><ele>653.0</ele><time>2026-05-02T14:09:59.999Z</time></trkpt><trkpt lat="46.156825537286814" lon="11.816021220036609"><ele>655.3333333333333</ele><time>2026-05-02T14:10:00.999Z</time></trkpt><trkpt lat="46.15692183816447" lon="11.816246309770225"><ele>657.6666666666666</ele><time>2026-05-02T14:10:01.999Z</time></trkpt><trkpt lat="46.15701799233391" lon="11.816474632221004"><ele>660.0</ele><time>2026-05-02T14:10:02.999Z</time></trkpt><trkpt lat="46.15711931052375" lon="11.8167049942509"><ele>660.0</ele><time>2026-05-02T14:10:03.999Z</time></trkpt><trkpt lat="46.15721669261298" lon="11.816926270019225"><ele>660.0</ele><time>2026-05-02T14:10:04.999Z</time></trkpt><trkpt lat="46.15730972416693" lon="11.817139727845369"><ele>660.0</ele><time>2026-05-02T14:10:05.998Z</time></trkpt><trkpt lat="46.15741416010575" lon="11.81733912438023"><ele>660.0</ele><time>2026-05-02T14:10:06.998Z</time></trkpt><trkpt lat="46.15753519181053" lon="11.817526369676974"><ele>660.0</ele><time>2026-05-02T14:10:07.998Z</time></trkpt><trkpt lat="46.157667738393236" lon="11.817690349997502"><ele>660.0</ele><time>2026-05-02T14:10:08.998Z</time></trkpt><trkpt lat="46.1578168580054" lon="11.81784701510499"><ele>660.0</ele><time>2026-05-02T14:10:09.998Z</time></trkpt><trkpt lat="46.157977481265604" lon="11.817987947522996"><ele>660.0</ele><time>2026-05-02T14:10:10.998Z</time></trkpt><trkpt lat="46.15814585872586" lon="11.818120583541512"><ele>660.0</ele><time>2026-05-02T14:10:11.998Z</time></trkpt><trkpt lat="46.15831029446621" lon="11.81826521485164"><ele>659.3333333333334</ele><time>2026-05-02T14:10:12.998Z</time></trkpt><trkpt lat="46.15847270217118" lon="11.81841627241281"><ele>658.6666666666667</ele><time>2026-05-02T14:10:13.998Z</time></trkpt><trkpt lat="46.1586335464404" lon="11.818559507204549"><ele>658.0</ele><time>2026-05-02T14:10:14.998Z</time></trkpt><trkpt lat="46.15879489257302" lon="11.818700167733938"><ele>658.0</ele><time>2026-05-02T14:10:15.998Z</time></trkpt><trkpt lat="46.15894684399392" lon="11.818833578988349"><ele>658.0</ele><time>2026-05-02T14:10:16.998Z</time></trkpt><trkpt lat="46.159091429552305" lon="11.818963043320187"><ele>658.0</ele><time>2026-05-02T14:10:17.998Z</time></trkpt><trkpt lat="46.15922909005751" lon="11.8190894049183"><ele>658.3333333333334</ele><time>2026-05-02T14:10:18.998Z</time></trkpt><trkpt lat="46.15936946497595" lon="11.819215721318782"><ele>658.6666666666666</ele><time>2026-05-02T14:10:19.998Z</time></trkpt><trkpt lat="46.15951582772493" lon="11.819345952159887"><ele>659.0</ele><time>2026-05-02T14:10:20.998Z</time></trkpt><trkpt lat="46.15966152184949" lon="11.819478348853096"><ele>659.0</ele><time>2026-05-02T14:10:21.998Z</time></trkpt><trkpt lat="46.15980188038459" lon="11.819603256883745"><ele>659.0</ele><time>2026-05-02T14:10:22.998Z</time></trkpt><trkpt lat="46.159937455889214" lon="11.819727167911768"><ele>659.0</ele><time>2026-05-02T14:10:23.998Z</time></trkpt><trkpt lat="46.160066406161334" lon="11.819841895924883"><ele>660.3333333333333</ele><time>2026-05-02T14:10:24.998Z</time></trkpt><trkpt lat="46.160198228582935" lon="11.819959140717746"><ele>661.6666666666666</ele><time>2026-05-02T14:10:25.998Z</time></trkpt><trkpt lat="46.160333508782564" lon="11.820078762709576"><ele>663.0</ele><time>2026-05-02T14:10:26.998Z</time></trkpt><trkpt lat="46.16046327052214" lon="11.820200640032255"><ele>663.0</ele><time>2026-05-02T14:10:27.998Z</time></trkpt><trkpt lat="46.160590989689" lon="11.820309763989721"><ele>663.0</ele><time>2026-05-02T14:10:28.998Z</time></trkpt><trkpt lat="46.160722161820615" lon="11.820419718024292"><ele>663.0</ele><time>2026-05-02T14:10:29.998Z</time></trkpt><trkpt lat="46.16086552799226" lon="11.820518404081842"><ele>664.3333333333334</ele><time>2026-05-02T14:10:30.998Z</time></trkpt><trkpt lat="46.16101230003281" lon="11.820593982777948"><ele>665.6666666666667</ele><time>2026-05-02T14:10:31.998Z</time></trkpt><trkpt lat="46.161155161945445" lon="11.820646828745371"><ele>667.0</ele><time>2026-05-02T14:10:32.998Z</time></trkpt><trkpt lat="46.161299347844434" lon="11.820685950569665"><ele>667.0</ele><time>2026-05-02T14:10:33.998Z</time></trkpt><trkpt lat="46.16143322414273" lon="11.820709858951169"><ele>667.0</ele><time>2026-05-02T14:10:34.998Z</time></trkpt><trkpt lat="46.161545283287765" lon="11.820719347155169"><ele>667.0</ele><time>2026-05-02T14:10:35.998Z</time></trkpt><trkpt lat="46.16165463135307" lon="11.820742816877319"><ele>667.0</ele><time>2026-05-02T14:10:36.998Z</time></trkpt><trkpt lat="46.1617746020201" lon="11.820765641364316"><ele>669.75</ele><time>2026-05-02T14:10:37.998Z</time></trkpt><trkpt lat="46.16189812715682" lon="11.82078795308442"><ele>672.5</ele><time>2026-05-02T14:10:38.998Z</time></trkpt><trkpt lat="46.162028816272596" lon="11.82081470471356"><ele>675.25</ele><time>2026-05-02T14:10:39.998Z</time></trkpt><trkpt lat="46.162159158667876" lon="11.82083621888129"><ele>678.0</ele><time>2026-05-02T14:10:40.998Z</time></trkpt><trkpt lat="46.1622912170651" lon="11.820862963745624"><ele>679.0</ele><time>2026-05-02T14:10:41.998Z</time></trkpt><trkpt lat="46.16241826764457" lon="11.820885540024092"><ele>680.0</ele><time>2026-05-02T14:10:42.998Z</time></trkpt><trkpt lat="46.162546103355844" lon="11.820908320488108"><ele>681.0</ele><time>2026-05-02T14:10:43.998Z</time></trkpt><trkpt lat="46.162677813522635" lon="11.820931553820015"><ele>682.0</ele><time>2026-05-02T14:10:44.998Z</time></trkpt><trkpt lat="46.16280619305122" lon="11.820953292110849"><ele>682.0</ele><time>2026-05-02T14:10:45.998Z</time></trkpt><trkpt lat="46.16291947932332" lon="11.820975289950722"><ele>682.0</ele><time>2026-05-02T14:10:46.998Z</time></trkpt><trkpt lat="46.16302647821793" lon="11.820999260257043"><ele>682.0</ele><time>2026-05-02T14:10:47.998Z</time></trkpt><trkpt lat="46.16313861216611" lon="11.821023218736531"><ele>682.0</ele><time>2026-05-02T14:10:48.998Z</time></trkpt><trkpt lat="46.16325484245014" lon="11.821040945044986"><ele>681.5</ele><time>2026-05-02T14:10:49.998Z</time></trkpt><trkpt lat="46.163369959858024" lon="11.821059808909641"><ele>681.0</ele><time>2026-05-02T14:10:50.998Z</time></trkpt><trkpt lat="46.16349294405174" lon="11.821079357037808"><ele>680.5</ele><time>2026-05-02T14:10:51.998Z</time></trkpt><trkpt lat="46.163621741552696" lon="11.821099446586365"><ele>680.0</ele><time>2026-05-02T14:10:52.998Z</time></trkpt><trkpt lat="46.163757777722886" lon="11.821115520217274"><ele>680.0</ele><time>2026-05-02T14:10:53.998Z</time></trkpt><trkpt lat="46.16389081291059" lon="11.821135234771406"><ele>680.0</ele><time>2026-05-02T14:10:54.998Z</time></trkpt><trkpt lat="46.16402068502539" lon="11.821149911861344"><ele>680.0</ele><time>2026-05-02T14:10:55.998Z</time></trkpt><trkpt lat="46.164147819702" lon="11.82116253518332"><ele>680.0</ele><time>2026-05-02T14:10:56.997Z</time></trkpt><trkpt lat="46.16427901726672" lon="11.821175906557224"><ele>680.75</ele><time>2026-05-02T14:10:57.997Z</time></trkpt><trkpt lat="46.16440654158728" lon="11.821188968293633"><ele>681.5</ele><time>2026-05-02T14:10:58.997Z</time></trkpt><trkpt lat="46.16453476036135" lon="11.821205886245943"><ele>682.25</ele><time>2026-05-02T14:10:59.999Z</time></trkpt><trkpt lat="46.16466485095194" lon="11.821224766253637"><ele>683.0</ele><time>2026-05-02T14:11:00.999Z</time></trkpt><trkpt lat="46.16479300476622" lon="11.82124282230757"><ele>682.0</ele><time>2026-05-02T14:11:01.999Z</time></trkpt><trkpt lat="46.164922694004446" lon="11.82125752290677"><ele>681.0</ele><time>2026-05-02T14:11:02.999Z</time></trkpt><trkpt lat="46.16505321844005" lon="11.821270458661079"><ele>680.0</ele><time>2026-05-02T14:11:03.999Z</time></trkpt><trkpt lat="46.165180357192874" lon="11.821287533802895"><ele>679.0</ele><time>2026-05-02T14:11:04.999Z</time></trkpt><trkpt lat="46.16530788148903" lon="11.821303969583603"><ele>679.0</ele><time>2026-05-02T14:11:05.999Z</time></trkpt><trkpt lat="46.16543792501152" lon="11.821322803123056"><ele>679.0</ele><time>2026-05-02T14:11:06.999Z</time></trkpt><trkpt lat="46.16556832814962" lon="11.821337336549986"><ele>679.0</ele><time>2026-05-02T14:11:07.999Z</time></trkpt><trkpt lat="46.16570795626076" lon="11.821353451459986"><ele>679.0</ele><time>2026-05-02T14:11:08.999Z</time></trkpt><trkpt lat="46.16585398298938" lon="11.821367931317683"><ele>680.5</ele><time>2026-05-02T14:11:09.999Z</time></trkpt><trkpt lat="46.165990473092116" lon="11.821382848102743"><ele>682.0</ele><time>2026-05-02T14:11:10.999Z</time></trkpt><trkpt lat="46.166129645434275" lon="11.821398784713052"><ele>683.5</ele><time>2026-05-02T14:11:11.999Z</time></trkpt><trkpt lat="46.16627423365222" lon="11.82142014624667"><ele>685.0</ele><time>2026-05-02T14:11:12.999Z</time></trkpt><trkpt lat="46.166418168652534" lon="11.821440454243158"><ele>685.5</ele><time>2026-05-02T14:11:13.999Z</time></trkpt><trkpt lat="46.16656566648306" lon="11.82145577461314"><ele>686.0</ele><time>2026-05-02T14:11:14.999Z</time></trkpt><trkpt lat="46.16671234728307" lon="11.821474654910986"><ele>686.5</ele><time>2026-05-02T14:11:15.999Z</time></trkpt><trkpt lat="46.16686111966467" lon="11.821492428320367"><ele>687.0</ele><time>2026-05-02T14:11:16.999Z</time></trkpt><trkpt lat="46.1670031588489" lon="11.821510725855918"><ele>687.0</ele><time>2026-05-02T14:11:17.999Z</time></trkpt><trkpt lat="46.16713446383216" lon="11.821527063145606"><ele>687.0</ele><time>2026-05-02T14:11:18.999Z</time></trkpt><trkpt lat="46.16726399280057" lon="11.821541576448968"><ele>687.0</ele><time>2026-05-02T14:11:19.999Z</time></trkpt><trkpt lat="46.16738915032085" lon="11.821556333155325"><ele>687.0</ele><time>2026-05-02T14:11:20.999Z</time></trkpt><trkpt lat="46.16751747045412" lon="11.821571442725505"><ele>687.75</ele><time>2026-05-02T14:11:21.999Z</time></trkpt><trkpt lat="46.16765114610083" lon="11.821585817341882"><ele>688.5</ele><time>2026-05-02T14:11:22.999Z</time></trkpt><trkpt lat="46.16779104538225" lon="11.82160249515081"><ele>689.25</ele><time>2026-05-02T14:11:23.999Z</time></trkpt><trkpt lat="46.167934616328" lon="11.821620777084693"><ele>690.0</ele><time>2026-05-02T14:11:24.999Z</time></trkpt><trkpt lat="46.16807984299737" lon="11.821639282912251"><ele>689.25</ele><time>2026-05-02T14:11:25.999Z</time></trkpt><trkpt lat="46.16822351577172" lon="11.821659078192603"><ele>688.5</ele><time>2026-05-02T14:11:26.999Z</time></trkpt><trkpt lat="46.16836017070461" lon="11.82167498509753"><ele>687.75</ele><time>2026-05-02T14:11:27.999Z</time></trkpt><trkpt lat="46.168492561677674" lon="11.821692814436036"><ele>687.0</ele><time>2026-05-02T14:11:28.999Z</time></trkpt><trkpt lat="46.16862905091786" lon="11.821721574390104"><ele>687.0</ele><time>2026-05-02T14:11:29.999Z</time></trkpt><trkpt lat="46.16877003633759" lon="11.82175812925569"><ele>687.0</ele><time>2026-05-02T14:11:30.999Z</time></trkpt><trkpt lat="46.16891071500464" lon="11.821803791786989"><ele>687.0</ele><time>2026-05-02T14:11:31.999Z</time></trkpt><trkpt lat="46.16904669430141" lon="11.821853584164726"><ele>687.0</ele><time>2026-05-02T14:11:32.999Z</time></trkpt><trkpt lat="46.169171602397014" lon="11.821897799633712"><ele>687.5</ele><time>2026-05-02T14:11:33.999Z</time></trkpt><trkpt lat="46.169285684692674" lon="11.821937415676208"><ele>688.0</ele><time>2026-05-02T14:11:34.999Z</time></trkpt><trkpt lat="46.16939719011066" lon="11.821974172861006"><ele>688.5</ele><time>2026-05-02T14:11:35.999Z</time></trkpt><trkpt lat="46.16951228276006" lon="11.82200743513576"><ele>689.0</ele><time>2026-05-02T14:11:36.999Z</time></trkpt><trkpt lat="46.16963053339747" lon="11.822047204124564"><ele>689.0</ele><time>2026-05-02T14:11:37.999Z</time></trkpt><trkpt lat="46.16974644889399" lon="11.822089375714555"><ele>689.0</ele><time>2026-05-02T14:11:38.999Z</time></trkpt><trkpt lat="46.169857272964165" lon="11.822132079384016"><ele>689.0</ele><time>2026-05-02T14:11:39.999Z</time></trkpt><trkpt lat="46.16997163700013" lon="11.822196887186934"><ele>689.0</ele><time>2026-05-02T14:11:40.999Z</time></trkpt><trkpt lat="46.17005395003123" lon="11.822269170636043"><ele>689.6</ele><time>2026-05-02T14:11:41.999Z</time></trkpt><trkpt lat="46.17014478162812" lon="11.822358543651127"><ele>690.2</ele><time>2026-05-02T14:11:42.999Z</time></trkpt><trkpt lat="46.1702095196471" lon="11.822450738144948"><ele>690.8000000000001</ele><time>2026-05-02T14:11:43.999Z</time></trkpt><trkpt lat="46.170272682514884" lon="11.822541890380206"><ele>691.4000000000001</ele><time>2026-05-02T14:11:44.999Z</time></trkpt><trkpt lat="46.17032775479781" lon="11.822605520046729"><ele>692.0</ele><time>2026-05-02T14:11:45.999Z</time></trkpt><trkpt lat="46.170418477592015" lon="11.822687326634346"><ele>692.0</ele><time>2026-05-02T14:11:46.999Z</time></trkpt><trkpt lat="46.17049782812586" lon="11.822821575919198"><ele>692.0</ele><time>2026-05-02T14:11:48.999Z</time></trkpt><trkpt lat="46.17052620760106" lon="11.822908727558222"><ele>692.0</ele><time>2026-05-02T14:11:49.999Z</time></trkpt><trkpt lat="46.17052155575686" lon="11.823023600457246"><ele>692.0</ele><time>2026-05-02T14:11:50.999Z</time></trkpt><trkpt lat="46.170501265745614" lon="11.823130823817205"><ele>692.0</ele><time>2026-05-02T14:11:51.999Z</time></trkpt><trkpt lat="46.170481909947654" lon="11.823250872496276"><ele>692.0</ele><time>2026-05-02T14:11:52.999Z</time></trkpt><trkpt lat="46.1705383676129" lon="11.823307785302067"><ele>692.0</ele><time>2026-05-02T14:11:53.999Z</time></trkpt><trkpt lat="46.17059191878885" lon="11.823402338090071"><ele>692.0</ele><time>2026-05-02T14:11:54.999Z</time></trkpt><trkpt lat="46.17068429896237" lon="11.823433285350088"><ele>692.0</ele><time>2026-05-02T14:11:55.999Z</time></trkpt><trkpt lat="46.17077384820274" lon="11.823385868132105"><ele>692.0</ele><time>2026-05-02T14:11:56.999Z</time></trkpt><trkpt lat="46.17083364584854" lon="11.823306866023525"><ele>692.0</ele><time>2026-05-02T14:11:57.999Z</time></trkpt><trkpt lat="46.17091625368304" lon="11.823356361963041"><ele>692.0</ele><time>2026-05-02T14:11:58.999Z</time></trkpt><trkpt lat="46.17099071387078" lon="11.823422261768268"><ele>692.4000000000001</ele><time>2026-05-02T14:11:59.999Z</time></trkpt><trkpt lat="46.171063275712065" lon="11.82352797838958"><ele>692.8000000000001</ele><time>2026-05-02T14:12:00.999Z</time></trkpt><trkpt lat="46.171136772200015" lon="11.823628427172666"><ele>693.2</ele><time>2026-05-02T14:12:01.999Z</time></trkpt><trkpt lat="46.171215784506856" lon="11.823739515939613"><ele>693.6</ele><time>2026-05-02T14:12:02.999Z</time></trkpt><trkpt lat="46.17128611871672" lon="11.823852472464658"><ele>694.0</ele><time>2026-05-02T14:12:03.999Z</time></trkpt><trkpt lat="46.17134251537991" lon="11.823965676002363"><ele>694.0</ele><time>2026-05-02T14:12:04.999Z</time></trkpt><trkpt lat="46.17139119860127" lon="11.824101231488807"><ele>694.0</ele><time>2026-05-02T14:12:05.999Z</time></trkpt><trkpt lat="46.17143230219312" lon="11.824246513193719"><ele>694.0</ele><time>2026-05-02T14:12:06.999Z</time></trkpt><trkpt lat="46.171470045871885" lon="11.824417905173897"><ele>694.0</ele><time>2026-05-02T14:12:07.999Z</time></trkpt><trkpt lat="46.171487650512375" lon="11.824612137769279"><ele>696.0</ele><time>2026-05-02T14:12:08.999Z</time></trkpt><trkpt lat="46.171524507529845" lon="11.824803267281995"><ele>698.0</ele><time>2026-05-02T14:12:09.999Z</time></trkpt><trkpt lat="46.17155949998837" lon="11.824986702680397"><ele>700.0</ele><time>2026-05-02T14:12:10.999Z</time></trkpt><trkpt lat="46.171592189577616" lon="11.82515915836176"><ele>702.0</ele><time>2026-05-02T14:12:11.999Z</time></trkpt><trkpt lat="46.17162400381191" lon="11.825310903703246"><ele>702.0</ele><time>2026-05-02T14:12:12.999Z</time></trkpt><trkpt lat="46.17166184156726" lon="11.825472615244148"><ele>702.0</ele><time>2026-05-02T14:12:13.999Z</time></trkpt><trkpt lat="46.1717149820073" lon="11.825633313134132"><ele>702.0</ele><time>2026-05-02T14:12:14.998Z</time></trkpt><trkpt lat="46.17178918020174" lon="11.825780437163463"><ele>702.0</ele><time>2026-05-02T14:12:15.998Z</time></trkpt><trkpt lat="46.17186146659568" lon="11.825936465326881"><ele>701.25</ele><time>2026-05-02T14:12:16.998Z</time></trkpt><trkpt lat="46.171953278168665" lon="11.82607832928033"><ele>700.5</ele><time>2026-05-02T14:12:17.998Z</time></trkpt><trkpt lat="46.172063405715235" lon="11.826208013725054"><ele>699.75</ele><time>2026-05-02T14:12:18.998Z</time></trkpt><trkpt lat="46.172191029558796" lon="11.826318796807554"><ele>699.0</ele><time>2026-05-02T14:12:19.998Z</time></trkpt><trkpt lat="46.172324684741845" lon="11.826405335904811"><ele>700.3333333333334</ele><time>2026-05-02T14:12:20.998Z</time></trkpt><trkpt lat="46.172459056679486" lon="11.826479701383807"><ele>701.6666666666667</ele><time>2026-05-02T14:12:21.998Z</time></trkpt><trkpt lat="46.1726215066093" lon="11.82651457502892"><ele>703.0</ele><time>2026-05-02T14:12:22.998Z</time></trkpt><trkpt lat="46.172751816266754" lon="11.82659492508896"><ele>703.0</ele><time>2026-05-02T14:12:23.998Z</time></trkpt><trkpt lat="46.1728838737813" lon="11.826676928001085"><ele>703.0</ele><time>2026-05-02T14:12:24.998Z</time></trkpt><trkpt lat="46.17301843963286" lon="11.82675870890539"><ele>703.0</ele><time>2026-05-02T14:12:25.998Z</time></trkpt><trkpt lat="46.173153570187324" lon="11.826838676331251"><ele>703.0</ele><time>2026-05-02T14:12:26.998Z</time></trkpt><trkpt lat="46.17328966585765" lon="11.826915620757951"><ele>703.25</ele><time>2026-05-02T14:12:27.998Z</time></trkpt><trkpt lat="46.173420105024775" lon="11.826989897216704"><ele>703.5</ele><time>2026-05-02T14:12:28.998Z</time></trkpt><trkpt lat="46.17355102943027" lon="11.82706864199536"><ele>703.75</ele><time>2026-05-02T14:12:29.998Z</time></trkpt><trkpt lat="46.17368628431643" lon="11.827147052007595"><ele>704.0</ele><time>2026-05-02T14:12:30.998Z</time></trkpt><trkpt lat="46.173816972576084" lon="11.827226433189727"><ele>704.0</ele><time>2026-05-02T14:12:31.998Z</time></trkpt><trkpt lat="46.17393910789362" lon="11.827293672927153"><ele>704.0</ele><time>2026-05-02T14:12:32.998Z</time></trkpt><trkpt lat="46.17403966903628" lon="11.827354883787978"><ele>704.0</ele><time>2026-05-02T14:12:33.998Z</time></trkpt><trkpt lat="46.17414925050997" lon="11.82741787124427"><ele>704.0</ele><time>2026-05-02T14:12:34.998Z</time></trkpt><trkpt lat="46.17426152685708" lon="11.827487781533783"><ele>704.6</ele><time>2026-05-02T14:12:35.998Z</time></trkpt><trkpt lat="46.17435879426329" lon="11.827549427828467"><ele>705.2</ele><time>2026-05-02T14:12:36.998Z</time></trkpt><trkpt lat="46.17444563426806" lon="11.827595358894698"><ele>705.8000000000001</ele><time>2026-05-02T14:12:37.998Z</time></trkpt><trkpt lat="46.17453323271901" lon="11.827650178548168"><ele>706.4000000000001</ele><time>2026-05-02T14:12:38.998Z</time></trkpt><trkpt lat="46.174619325138444" lon="11.827701381084243"><ele>707.0</ele><time>2026-05-02T14:12:39.998Z</time></trkpt><trkpt lat="46.17469563748082" lon="11.827743601256188"><ele>707.0</ele><time>2026-05-02T14:12:40.998Z</time></trkpt><trkpt lat="46.17477411208822" lon="11.827780279926941"><ele>707.0</ele><time>2026-05-02T14:12:41.998Z</time></trkpt><trkpt lat="46.174846688095485" lon="11.827825561994072"><ele>707.0</ele><time>2026-05-02T14:12:42.998Z</time></trkpt><trkpt lat="46.17491687391624" lon="11.827869330188582"><ele>707.0</ele><time>2026-05-02T14:12:43.998Z</time></trkpt><trkpt lat="46.17497861389534" lon="11.827903508525388"><ele>707.0</ele><time>2026-05-02T14:12:44.998Z</time></trkpt><trkpt lat="46.17507158700701" lon="11.82795071031154"><ele>707.0</ele><time>2026-05-02T14:12:46.998Z</time></trkpt><trkpt lat="46.17518196830648" lon="11.828024466020313"><ele>707.6666666666666</ele><time>2026-05-02T14:12:48.998Z</time></trkpt><trkpt lat="46.17525666241451" lon="11.828067382040365"><ele>708.3333333333333</ele><time>2026-05-02T14:12:49.998Z</time></trkpt><trkpt lat="46.17531892894817" lon="11.828100161259231"><ele>709.0</ele><time>2026-05-02T14:12:50.998Z</time></trkpt><trkpt lat="46.1753807366309" lon="11.828130713023183"><ele>709.6666666666666</ele><time>2026-05-02T14:12:51.998Z</time></trkpt><trkpt lat="46.1754818761578" lon="11.82815911681448"><ele>710.3333333333334</ele><time>2026-05-02T14:12:53.998Z</time></trkpt><trkpt lat="46.17558525152504" lon="11.828254978643594"><ele>711.0</ele><time>2026-05-02T14:12:55.998Z</time></trkpt><trkpt lat="46.17560842838098" lon="11.828370518411125"><ele>711.1999999999999</ele><time>2026-05-02T14:12:56.998Z</time></trkpt><trkpt lat="46.175617084593064" lon="11.828496343919662"><ele>711.4</ele><time>2026-05-02T14:12:57.998Z</time></trkpt><trkpt lat="46.17562852839247" lon="11.828620965400674"><ele>711.6</ele><time>2026-05-02T14:12:58.998Z</time></trkpt><trkpt lat="46.17565264248619" lon="11.828756745379879"><ele>711.8</ele><time>2026-05-02T14:12:59.998Z</time></trkpt><trkpt lat="46.175675360914624" lon="11.82889243919484"><ele>712.0</ele><time>2026-05-02T14:13:00.998Z</time></trkpt><trkpt lat="46.17569968774202" lon="11.829032902637776"><ele>712.0</ele><time>2026-05-02T14:13:01.998Z</time></trkpt><trkpt lat="46.17572693953329" lon="11.829184977385818"><ele>712.0</ele><time>2026-05-02T14:13:02.998Z</time></trkpt><trkpt lat="46.17573016294499" lon="11.829339204925947"><ele>712.0</ele><time>2026-05-02T14:13:03.998Z</time></trkpt><trkpt lat="46.17573921388816" lon="11.82948826750074"><ele>712.0</ele><time>2026-05-02T14:13:04.998Z</time></trkpt><trkpt lat="46.175737900329864" lon="11.829652145948652"><ele>712.0</ele><time>2026-05-02T14:13:05.998Z</time></trkpt><trkpt lat="46.17572339856377" lon="11.829818246118341"><ele>712.6</ele><time>2026-05-02T14:13:06.998Z</time></trkpt><trkpt lat="46.17570336335841" lon="11.829983179141804"><ele>713.2</ele><time>2026-05-02T14:13:07.998Z</time></trkpt><trkpt lat="46.17568517412577" lon="11.830118157305769"><ele>713.8</ele><time>2026-05-02T14:13:08.998Z</time></trkpt><trkpt lat="46.17567384196639" lon="11.83023731219173"><ele>714.4</ele><time>2026-05-02T14:13:09.998Z</time></trkpt><trkpt lat="46.175666270065825" lon="11.830365064215465"><ele>715.0</ele><time>2026-05-02T14:13:10.998Z</time></trkpt><trkpt lat="46.175668569798106" lon="11.830477330621745"><ele>714.6666666666667</ele><time>2026-05-02T14:13:11.999Z</time></trkpt><trkpt lat="46.17571710442028" lon="11.830576119167816"><ele>714.3333333333334</ele><time>2026-05-02T14:13:12.999Z</time></trkpt><trkpt lat="46.17581971440171" lon="11.830564477319301"><ele>714.0</ele><time>2026-05-02T14:13:13.999Z</time></trkpt><trkpt lat="46.17589641571989" lon="11.830557265072605"><ele>713.6666666666666</ele><time>2026-05-02T14:13:14.999Z</time></trkpt><trkpt lat="46.17598119331692" lon="11.830543293642696"><ele>713.3333333333333</ele><time>2026-05-02T14:13:15.999Z</time></trkpt><trkpt lat="46.17607435748506" lon="11.830544581642771"><ele>713.0</ele><time>2026-05-02T14:13:16.999Z</time></trkpt><trkpt lat="46.17617683311125" lon="11.830556030402118"><ele>713.0</ele><time>2026-05-02T14:13:17.999Z</time></trkpt><trkpt lat="46.17627958872217" lon="11.83056027889156"><ele>713.0</ele><time>2026-05-02T14:13:18.999Z</time></trkpt><trkpt lat="46.1763695731618" lon="11.8305651367692"><ele>713.0</ele><time>2026-05-02T14:13:19.999Z</time></trkpt><trkpt lat="46.176463014746396" lon="11.830572001080148"><ele>713.0</ele><time>2026-05-02T14:13:20.999Z</time></trkpt><trkpt lat="46.176556276307565" lon="11.830576677020732"><ele>713.0</ele><time>2026-05-02T14:13:21.999Z</time></trkpt><trkpt lat="46.17665164679516" lon="11.830584718368208"><ele>713.3333333333333</ele><time>2026-05-02T14:13:22.999Z</time></trkpt><trkpt lat="46.17674848148153" lon="11.830593047772126"><ele>713.6666666666666</ele><time>2026-05-02T14:13:23.999Z</time></trkpt><trkpt lat="46.17684316612045" lon="11.830604200353523"><ele>714.0</ele><time>2026-05-02T14:13:24.999Z</time></trkpt><trkpt lat="46.17693130403929" lon="11.830604037048918"><ele>714.3333333333334</ele><time>2026-05-02T14:13:25.999Z</time></trkpt><trkpt lat="46.17701463781571" lon="11.83060715400835"><ele>714.6666666666667</ele><time>2026-05-02T14:13:26.999Z</time></trkpt><trkpt lat="46.177096422802805" lon="11.83061360033507"><ele>715.0</ele><time>2026-05-02T14:13:27.999Z</time></trkpt><trkpt lat="46.17718470636905" lon="11.830626184753127"><ele>715.0</ele><time>2026-05-02T14:13:28.999Z</time></trkpt><trkpt lat="46.17727503414068" lon="11.830663042167568"><ele>715.0</ele><time>2026-05-02T14:13:29.999Z</time></trkpt><trkpt lat="46.17733842327173" lon="11.830771778205591"><ele>715.0</ele><time>2026-05-02T14:13:30.999Z</time></trkpt><trkpt lat="46.177389457543896" lon="11.830892245061628"><ele>715.0</ele><time>2026-05-02T14:13:31.999Z</time></trkpt><trkpt lat="46.17744315246396" lon="11.831018294454418"><ele>715.0</ele><time>2026-05-02T14:13:32.999Z</time></trkpt><trkpt lat="46.17750231250371" lon="11.831154698611728"><ele>716.0</ele><time>2026-05-02T14:13:33.999Z</time></trkpt><trkpt lat="46.17756267855658" lon="11.831294827089229"><ele>717.0</ele><time>2026-05-02T14:13:34.999Z</time></trkpt><trkpt lat="46.177623240281406" lon="11.83142680189142"><ele>718.0</ele><time>2026-05-02T14:13:35.999Z</time></trkpt><trkpt lat="46.17769175645057" lon="11.831552938542966"><ele>719.0</ele><time>2026-05-02T14:13:36.999Z</time></trkpt><trkpt lat="46.17776174277308" lon="11.831689921218308"><ele>718.75</ele><time>2026-05-02T14:13:37.999Z</time></trkpt><trkpt lat="46.17783230273482" lon="11.831823530295969"><ele>718.5</ele><time>2026-05-02T14:13:38.999Z</time></trkpt><trkpt lat="46.177902548162265" lon="11.831933597377857"><ele>718.25</ele><time>2026-05-02T14:13:39.999Z</time></trkpt><trkpt lat="46.17800720979439" lon="11.832015767629485"><ele>718.0</ele><time>2026-05-02T14:13:40.999Z</time></trkpt><trkpt lat="46.17812166010462" lon="11.832085118706072"><ele>719.0</ele><time>2026-05-02T14:13:41.999Z</time></trkpt><trkpt lat="46.17824717894645" lon="11.832138430810797"><ele>720.0</ele><time>2026-05-02T14:13:42.999Z</time></trkpt><trkpt lat="46.178356509583494" lon="11.83218946952697"><ele>721.0</ele><time>2026-05-02T14:13:43.999Z</time></trkpt><trkpt lat="46.178451036273096" lon="11.832236221385523"><ele>722.0</ele><time>2026-05-02T14:13:44.999Z</time></trkpt><trkpt lat="46.17853456946852" lon="11.832279770875067"><ele>723.0</ele><time>2026-05-02T14:13:45.999Z</time></trkpt><trkpt lat="46.17861342360251" lon="11.832320759496211"><ele>723.0</ele><time>2026-05-02T14:13:46.999Z</time></trkpt><trkpt lat="46.17867414197528" lon="11.832348368709019"><ele>723.0</ele><time>2026-05-02T14:13:47.999Z</time></trkpt><trkpt lat="46.17878227313422" lon="11.832398557067997"><ele>723.0</ele><time>2026-05-02T14:13:49.999Z</time></trkpt><trkpt lat="46.17888256837125" lon="11.83250419293842"><ele>723.0</ele><time>2026-05-02T14:13:51.999Z</time></trkpt><trkpt lat="46.178876549106896" lon="11.832734286373315"><ele>723.0</ele><time>2026-05-02T14:13:53.999Z</time></trkpt><trkpt lat="46.17884695151185" lon="11.832844588350106"><ele>723.0</ele><time>2026-05-02T14:13:54.999Z</time></trkpt><trkpt lat="46.17881369053569" lon="11.832950993658564"><ele>723.0</ele><time>2026-05-02T14:13:55.999Z</time></trkpt><trkpt lat="46.17879607702221" lon="11.833063771551602"><ele>723.0</ele><time>2026-05-02T14:13:56.999Z</time></trkpt><trkpt lat="46.17876443650181" lon="11.83318208408302"><ele>723.0</ele><time>2026-05-02T14:13:57.999Z</time></trkpt><trkpt lat="46.17876094643733" lon="11.833311998281074"><ele>723.0</ele><time>2026-05-02T14:13:58.999Z</time></trkpt><trkpt lat="46.1787596023282" lon="11.833456899033768"><ele>723.0</ele><time>2026-05-02T14:13:59.999Z</time></trkpt><trkpt lat="46.178822871682286" lon="11.833582066743533"><ele>723.0</ele><time>2026-05-02T14:14:00.999Z</time></trkpt><trkpt lat="46.17885980051384" lon="11.833692313015236"><ele>723.0</ele><time>2026-05-02T14:14:01.999Z</time></trkpt><trkpt lat="46.17890551013108" lon="11.83381590768415"><ele>723.0</ele><time>2026-05-02T14:14:02.999Z</time></trkpt><trkpt lat="46.17895304499149" lon="11.833921196282592"><ele>723.0</ele><time>2026-05-02T14:14:03.999Z</time></trkpt><trkpt lat="46.179004441118586" lon="11.834027577899253"><ele>723.8</ele><time>2026-05-02T14:14:04.999Z</time></trkpt><trkpt lat="46.17905778627571" lon="11.834135915277763"><ele>724.5999999999999</ele><time>2026-05-02T14:14:05.999Z</time></trkpt><trkpt lat="46.17911332143762" lon="11.83425023814832"><ele>725.4000000000001</ele><time>2026-05-02T14:14:06.999Z</time></trkpt><trkpt lat="46.17917173187193" lon="11.834371504835289"><ele>726.2</ele><time>2026-05-02T14:14:07.999Z</time></trkpt><trkpt lat="46.17922893475663" lon="11.834492566133347"><ele>727.0</ele><time>2026-05-02T14:14:08.999Z</time></trkpt><trkpt lat="46.179280357740026" lon="11.834623411429215"><ele>727.0</ele><time>2026-05-02T14:14:09.999Z</time></trkpt><trkpt lat="46.17930673618395" lon="11.834770118593454"><ele>727.0</ele><time>2026-05-02T14:14:10.999Z</time></trkpt><trkpt lat="46.179344771534026" lon="11.834925191318739"><ele>727.0</ele><time>2026-05-02T14:14:11.999Z</time></trkpt><trkpt lat="46.17938178630361" lon="11.835084490620424"><ele>727.0</ele><time>2026-05-02T14:14:12.999Z</time></trkpt><trkpt lat="46.179427844265206" lon="11.835250165853452"><ele>726.0</ele><time>2026-05-02T14:14:13.999Z</time></trkpt><trkpt lat="46.17946989374264" lon="11.835423563808224"><ele>725.0</ele><time>2026-05-02T14:14:14.999Z</time></trkpt><trkpt lat="46.17951332390225" lon="11.835598121801159"><ele>724.0</ele><time>2026-05-02T14:14:15.999Z</time></trkpt><trkpt lat="46.17954754930556" lon="11.835760003126277"><ele>723.0</ele><time>2026-05-02T14:14:16.999Z</time></trkpt><trkpt lat="46.17959506522769" lon="11.835910693519777"><ele>723.75</ele><time>2026-05-02T14:14:17.999Z</time></trkpt><trkpt lat="46.179645359973826" lon="11.836054514006142"><ele>724.5</ele><time>2026-05-02T14:14:18.999Z</time></trkpt><trkpt lat="46.179696871366055" lon="11.836193685464249"><ele>725.25</ele><time>2026-05-02T14:14:19.999Z</time></trkpt><trkpt lat="46.179752365119626" lon="11.836334000713777"><ele>726.0</ele><time>2026-05-02T14:14:20.999Z</time></trkpt><trkpt lat="46.17980787848661" lon="11.836484953907018"><ele>727.75</ele><time>2026-05-02T14:14:21.999Z</time></trkpt><trkpt lat="46.179862433370296" lon="11.836637487652403"><ele>729.5</ele><time>2026-05-02T14:14:22.999Z</time></trkpt><trkpt lat="46.17991901135352" lon="11.836798728061426"><ele>731.25</ele><time>2026-05-02T14:14:23.998Z</time></trkpt><trkpt lat="46.179978317845986" lon="11.836960269766786"><ele>733.0</ele><time>2026-05-02T14:14:24.998Z</time></trkpt><trkpt lat="46.180038065993465" lon="11.837132144150061"><ele>733.0</ele><time>2026-05-02T14:14:25.998Z</time></trkpt><trkpt lat="46.18012020303824" lon="11.837360019119545"><ele>733.0</ele><time>2026-05-02T14:14:26.998Z</time></trkpt><trkpt lat="46.180213981744124" lon="11.837603413147413"><ele>733.0</ele><time>2026-05-02T14:14:27.998Z</time></trkpt><trkpt lat="46.18028246508121" lon="11.837820510138345"><ele>733.3333333333334</ele><time>2026-05-02T14:14:28.998Z</time></trkpt><trkpt lat="46.18031779842036" lon="11.838035325945981"><ele>733.6666666666666</ele><time>2026-05-02T14:14:29.998Z</time></trkpt><trkpt lat="46.1803639446299" lon="11.83825580013534"><ele>734.0</ele><time>2026-05-02T14:14:30.998Z</time></trkpt><trkpt lat="46.18040797871621" lon="11.838445871724048"><ele>734.75</ele><time>2026-05-02T14:14:31.998Z</time></trkpt><trkpt lat="46.18045957981042" lon="11.838598046541868"><ele>735.5</ele><time>2026-05-02T14:14:32.998Z</time></trkpt><trkpt lat="46.18049949755791" lon="11.838768953381155"><ele>736.25</ele><time>2026-05-02T14:14:33.998Z</time></trkpt><trkpt lat="46.18053872191112" lon="11.838938881905186"><ele>737.0</ele><time>2026-05-02T14:14:34.998Z</time></trkpt><trkpt lat="46.180575479020064" lon="11.839100453660533"><ele>737.0</ele><time>2026-05-02T14:14:35.998Z</time></trkpt><trkpt lat="46.180608593330696" lon="11.839255628765136"><ele>737.0</ele><time>2026-05-02T14:14:36.998Z</time></trkpt><trkpt lat="46.1806475408588" lon="11.839394563571883"><ele>737.0</ele><time>2026-05-02T14:14:37.998Z</time></trkpt><trkpt lat="46.180680273515094" lon="11.839531431062596"><ele>737.0</ele><time>2026-05-02T14:14:38.998Z</time></trkpt><trkpt lat="46.18071092085814" lon="11.839672469377991"><ele>737.0</ele><time>2026-05-02T14:14:39.998Z</time></trkpt><trkpt lat="46.180741913638535" lon="11.839820099369117"><ele>738.25</ele><time>2026-05-02T14:14:40.998Z</time></trkpt><trkpt lat="46.18077633483348" lon="11.839975566034036"><ele>739.5</ele><time>2026-05-02T14:14:41.998Z</time></trkpt><trkpt lat="46.18081465160951" lon="11.84013474053288"><ele>740.75</ele><time>2026-05-02T14:14:42.998Z</time></trkpt><trkpt lat="46.180852014736026" lon="11.840300594011344"><ele>742.0</ele><time>2026-05-02T14:14:43.998Z</time></trkpt><trkpt lat="46.18089469054249" lon="11.840472422827068"><ele>742.25</ele><time>2026-05-02T14:14:44.998Z</time></trkpt><trkpt lat="46.180950823737" lon="11.840650271179928"><ele>742.5</ele><time>2026-05-02T14:14:45.998Z</time></trkpt><trkpt lat="46.18100537074026" lon="11.840833815578025"><ele>742.75</ele><time>2026-05-02T14:14:46.998Z</time></trkpt><trkpt lat="46.18109449776792" lon="11.840985321455946"><ele>743.0</ele><time>2026-05-02T14:14:47.998Z</time></trkpt><trkpt lat="46.18117338575089" lon="11.841147338863383"><ele>743.5</ele><time>2026-05-02T14:14:48.998Z</time></trkpt><trkpt lat="46.18125752326828" lon="11.841309184711244"><ele>744.0</ele><time>2026-05-02T14:14:49.998Z</time></trkpt><trkpt lat="46.181350737308314" lon="11.841465455313783"><ele>744.5</ele><time>2026-05-02T14:14:50.998Z</time></trkpt><trkpt lat="46.18144899253102" lon="11.841614525745797"><ele>745.0</ele><time>2026-05-02T14:14:51.998Z</time></trkpt><trkpt lat="46.18155082887356" lon="11.841763731922166"><ele>745.75</ele><time>2026-05-02T14:14:52.998Z</time></trkpt><trkpt lat="46.18165611180064" lon="11.84190516354061"><ele>746.5</ele><time>2026-05-02T14:14:53.998Z</time></trkpt><trkpt lat="46.18176043783895" lon="11.842033427145672"><ele>747.25</ele><time>2026-05-02T14:14:54.998Z</time></trkpt><trkpt lat="46.18186135149137" lon="11.842167959684224"><ele>748.0</ele><time>2026-05-02T14:14:55.998Z</time></trkpt><trkpt lat="46.18196357755325" lon="11.84230279299671"><ele>748.0</ele><time>2026-05-02T14:14:56.998Z</time></trkpt><trkpt lat="46.18206515933872" lon="11.842434643358867"><ele>748.0</ele><time>2026-05-02T14:14:57.998Z</time></trkpt><trkpt lat="46.182164627447875" lon="11.842563775805617"><ele>748.0</ele><time>2026-05-02T14:14:58.998Z</time></trkpt><trkpt lat="46.18226377000742" lon="11.842690556356372"><ele>748.0</ele><time>2026-05-02T14:14:59.998Z</time></trkpt><trkpt lat="46.182359831126504" lon="11.842818974238803"><ele>749.0</ele><time>2026-05-02T14:15:00.998Z</time></trkpt><trkpt lat="46.18245525223" lon="11.842943977305183"><ele>750.0</ele><time>2026-05-02T14:15:01.998Z</time></trkpt><trkpt lat="46.1825504938203" lon="11.84306927329926"><ele>751.0</ele><time>2026-05-02T14:15:02.998Z</time></trkpt><trkpt lat="46.18263941583628" lon="11.84320535445481"><ele>752.0</ele><time>2026-05-02T14:15:03.998Z</time></trkpt><trkpt lat="46.18273320766556" lon="11.843332202062525"><ele>752.0</ele><time>2026-05-02T14:15:04.998Z</time></trkpt><trkpt lat="46.182830799025545" lon="11.843455502713383"><ele>752.0</ele><time>2026-05-02T14:15:05.998Z</time></trkpt><trkpt lat="46.1829314672623" lon="11.843577191461902"><ele>752.0</ele><time>2026-05-02T14:15:06.998Z</time></trkpt><trkpt lat="46.1830272020193" lon="11.84370449525588"><ele>752.0</ele><time>2026-05-02T14:15:07.998Z</time></trkpt><trkpt lat="46.18312513315341" lon="11.843838843929804"><ele>753.75</ele><time>2026-05-02T14:15:08.998Z</time></trkpt><trkpt lat="46.18322330176035" lon="11.84397229628838"><ele>755.5</ele><time>2026-05-02T14:15:09.998Z</time></trkpt><trkpt lat="46.18332212545846" lon="11.844100511617158"><ele>757.25</ele><time>2026-05-02T14:15:10.998Z</time></trkpt><trkpt lat="46.18342398811093" lon="11.84422879479992"><ele>759.0</ele><time>2026-05-02T14:15:11.998Z</time></trkpt><trkpt lat="46.18352978243213" lon="11.844355081547809"><ele>760.5</ele><time>2026-05-02T14:15:12.998Z</time></trkpt><trkpt lat="46.18363414083839" lon="11.844487174756292"><ele>762.0</ele><time>2026-05-02T14:15:13.998Z</time></trkpt><trkpt lat="46.18373789368371" lon="11.84462239452955"><ele>763.5</ele><time>2026-05-02T14:15:14.998Z</time></trkpt><trkpt lat="46.18384961609082" lon="11.844743086551066"><ele>765.0</ele><time>2026-05-02T14:15:15.998Z</time></trkpt><trkpt lat="46.18397150761247" lon="11.84484906469165"><ele>764.75</ele><time>2026-05-02T14:15:16.998Z</time></trkpt><trkpt lat="46.18409475157306" lon="11.84495378604317"><ele>764.5</ele><time>2026-05-02T14:15:17.998Z</time></trkpt><trkpt lat="46.1842208385039" lon="11.845056873045086"><ele>764.25</ele><time>2026-05-02T14:15:18.998Z</time></trkpt><trkpt lat="46.18434744416407" lon="11.845164091787332"><ele>764.0</ele><time>2026-05-02T14:15:19.999Z</time></trkpt><trkpt lat="46.18447462669554" lon="11.845272942094061"><ele>764.75</ele><time>2026-05-02T14:15:20.999Z</time></trkpt><trkpt lat="46.18460374171139" lon="11.845383386290273"><ele>765.5</ele><time>2026-05-02T14:15:21.999Z</time></trkpt><trkpt lat="46.18472726834731" lon="11.845490781447587"><ele>766.25</ele><time>2026-05-02T14:15:22.999Z</time></trkpt><trkpt lat="46.18485061009595" lon="11.845596742795873"><ele>767.0</ele><time>2026-05-02T14:15:23.999Z</time></trkpt><trkpt lat="46.18496530945196" lon="11.845694530715422"><ele>769.5</ele><time>2026-05-02T14:15:24.999Z</time></trkpt><trkpt lat="46.18504550078837" lon="11.84580755901708"><ele>772.0</ele><time>2026-05-02T14:15:25.999Z</time></trkpt><trkpt lat="46.18509057679919" lon="11.845969316901309"><ele>774.5</ele><time>2026-05-02T14:15:26.999Z</time></trkpt><trkpt lat="46.185143743176944" lon="11.8461729661784"><ele>777.0</ele><time>2026-05-02T14:15:27.999Z</time></trkpt><trkpt lat="46.185194795972414" lon="11.846382197211858"><ele>777.0</ele><time>2026-05-02T14:15:28.999Z</time></trkpt><trkpt lat="46.18522302787986" lon="11.846614796953334"><ele>777.0</ele><time>2026-05-02T14:15:29.999Z</time></trkpt><trkpt lat="46.18524990262982" lon="11.846847019526553"><ele>777.0</ele><time>2026-05-02T14:15:30.999Z</time></trkpt><trkpt lat="46.18527248633216" lon="11.847083880747348"><ele>777.25</ele><time>2026-05-02T14:15:31.999Z</time></trkpt><trkpt lat="46.185304745271075" lon="11.847288493254954"><ele>777.5</ele><time>2026-05-02T14:15:32.999Z</time></trkpt><trkpt lat="46.18534633809114" lon="11.847456450077841"><ele>777.75</ele><time>2026-05-02T14:15:33.999Z</time></trkpt><trkpt lat="46.185365135327125" lon="11.84762497730001"><ele>778.0</ele><time>2026-05-02T14:15:34.999Z</time></trkpt><trkpt lat="46.185389310482705" lon="11.847793123118294"><ele>778.25</ele><time>2026-05-02T14:15:35.999Z</time></trkpt><trkpt lat="46.18541782988493" lon="11.847970206251764"><ele>778.5</ele><time>2026-05-02T14:15:36.999Z</time></trkpt><trkpt lat="46.1854455237421" lon="11.848165511524128"><ele>778.75</ele><time>2026-05-02T14:15:37.999Z</time></trkpt><trkpt lat="46.185472371622666" lon="11.84834210022795"><ele>779.0</ele><time>2026-05-02T14:15:38.999Z</time></trkpt><trkpt lat="46.185500388327256" lon="11.848519782384985"><ele>782.4000000000001</ele><time>2026-05-02T14:15:39.999Z</time></trkpt><trkpt lat="46.185530073481914" lon="11.848693930059799"><ele>785.8</ele><time>2026-05-02T14:15:40.999Z</time></trkpt><trkpt lat="46.18555323093812" lon="11.84884621992656"><ele>789.2</ele><time>2026-05-02T14:15:41.999Z</time></trkpt><trkpt lat="46.185579342950504" lon="11.848983612893171"><ele>792.5999999999999</ele><time>2026-05-02T14:15:42.999Z</time></trkpt><trkpt lat="46.18563191382519" lon="11.849118335377156"><ele>796.0</ele><time>2026-05-02T14:15:43.999Z</time></trkpt><trkpt lat="46.18570207346293" lon="11.849219143149517"><ele>795.5999999999999</ele><time>2026-05-02T14:15:44.999Z</time></trkpt><trkpt lat="46.18577839327333" lon="11.84931137630754"><ele>795.2</ele><time>2026-05-02T14:15:45.999Z</time></trkpt><trkpt lat="46.18585808012289" lon="11.84939402864814"><ele>794.8</ele><time>2026-05-02T14:15:46.999Z</time></trkpt><trkpt lat="46.18593760411287" lon="11.849488569002315"><ele>794.4000000000001</ele><time>2026-05-02T14:15:47.999Z</time></trkpt><trkpt lat="46.18600948057053" lon="11.84959917324199"><ele>794.0</ele><time>2026-05-02T14:15:48.999Z</time></trkpt><trkpt lat="46.18607594607235" lon="11.8497193005412"><ele>794.0</ele><time>2026-05-02T14:15:49.999Z</time></trkpt><trkpt lat="46.18614014206905" lon="11.849845711156371"><ele>794.0</ele><time>2026-05-02T14:15:50.999Z</time></trkpt><trkpt lat="46.1862018383166" lon="11.849962088497687"><ele>794.0</ele><time>2026-05-02T14:15:51.999Z</time></trkpt><trkpt lat="46.186264467322516" lon="11.850075664670605"><ele>794.0</ele><time>2026-05-02T14:15:52.999Z</time></trkpt><trkpt lat="46.18632027735184" lon="11.850178990801462"><ele>794.0</ele><time>2026-05-02T14:15:53.999Z</time></trkpt><trkpt lat="46.18637278553824" lon="11.850270697401248"><ele>795.8000000000001</ele><time>2026-05-02T14:15:54.999Z</time></trkpt><trkpt lat="46.18642919427072" lon="11.850372640693497"><ele>797.6</ele><time>2026-05-02T14:15:55.999Z</time></trkpt><trkpt lat="46.186484679963975" lon="11.850473352765256"><ele>799.4</ele><time>2026-05-02T14:15:56.999Z</time></trkpt><trkpt lat="46.18653741785089" lon="11.850576487830793"><ele>801.2</ele><time>2026-05-02T14:15:57.999Z</time></trkpt><trkpt lat="46.18658058598591" lon="11.850691935737288"><ele>803.0</ele><time>2026-05-02T14:15:58.999Z</time></trkpt><trkpt lat="46.18661079750613" lon="11.850820053559497"><ele>803.1666666666667</ele><time>2026-05-02T14:15:59.999Z</time></trkpt><trkpt lat="46.18662882681178" lon="11.850958129687132"><ele>803.3333333333334</ele><time>2026-05-02T14:16:00.999Z</time></trkpt><trkpt lat="46.186631006960866" lon="11.851098981817215"><ele>803.5</ele><time>2026-05-02T14:16:01.999Z</time></trkpt><trkpt lat="46.18661255307864" lon="11.851232016984401"><ele>803.6666666666667</ele><time>2026-05-02T14:16:02.999Z</time></trkpt><trkpt lat="46.18658532520402" lon="11.85133015554402"><ele>803.8333333333334</ele><time>2026-05-02T14:16:03.999Z</time></trkpt><trkpt lat="46.18654777822209" lon="11.851410934761878"><ele>804.0</ele><time>2026-05-02T14:16:04.999Z</time></trkpt><trkpt lat="46.186499466139956" lon="11.851487250454301"><ele>807.3333333333334</ele><time>2026-05-02T14:16:05.999Z</time></trkpt><trkpt lat="46.186446190516044" lon="11.851567226326301"><ele>810.6666666666667</ele><time>2026-05-02T14:16:06.999Z</time></trkpt><trkpt lat="46.18639550979108" lon="11.851638995020986"><ele>814.0</ele><time>2026-05-02T14:16:07.999Z</time></trkpt><trkpt lat="46.1863266405269" lon="11.851641601944664"><ele>817.3333333333334</ele><time>2026-05-02T14:16:08.999Z</time></trkpt><trkpt lat="46.18625313153881" lon="11.851588468065462"><ele>820.6666666666667</ele><time>2026-05-02T14:16:09.999Z</time></trkpt><trkpt lat="46.18616294419108" lon="11.851496996402132"><ele>824.0</ele><time>2026-05-02T14:16:10.999Z</time></trkpt><trkpt lat="46.18606991111935" lon="11.851375046984446"><ele>824.0</ele><time>2026-05-02T14:16:11.999Z</time></trkpt><trkpt lat="46.18596239927127" lon="11.851227341238003"><ele>824.0</ele><time>2026-05-02T14:16:12.999Z</time></trkpt><trkpt lat="46.185852402604276" lon="11.851099648500286"><ele>824.0</ele><time>2026-05-02T14:16:13.999Z</time></trkpt><trkpt lat="46.185758429389246" lon="11.850985935256725"><ele>824.0</ele><time>2026-05-02T14:16:14.999Z</time></trkpt><trkpt lat="46.18566905557676" lon="11.850888434560673"><ele>826.3333333333334</ele><time>2026-05-02T14:16:15.999Z</time></trkpt><trkpt lat="46.18561123344743" lon="11.850819549561338"><ele>828.6666666666667</ele><time>2026-05-02T14:16:16.999Z</time></trkpt><trkpt lat="46.18554894964247" lon="11.850792420274063"><ele>831.0</ele><time>2026-05-02T14:16:17.999Z</time></trkpt><trkpt lat="46.185483310157956" lon="11.850842923201089"><ele>833.3333333333333</ele><time>2026-05-02T14:16:18.999Z</time></trkpt><trkpt lat="46.18545916568672" lon="11.85095365880031"><ele>835.6666666666666</ele><time>2026-05-02T14:16:19.999Z</time></trkpt><trkpt lat="46.18549718326616" lon="11.851093629987849"><ele>838.0</ele><time>2026-05-02T14:16:20.999Z</time></trkpt><trkpt lat="46.18557647828085" lon="11.851219652039793"><ele>833.3333333333333</ele><time>2026-05-02T14:16:21.999Z</time></trkpt><trkpt lat="46.18568612570149" lon="11.851355095736562"><ele>828.6666666666667</ele><time>2026-05-02T14:16:22.999Z</time></trkpt><trkpt lat="46.18577030764042" lon="11.851534509867468"><ele>824.0</ele><time>2026-05-02T14:16:23.999Z</time></trkpt><trkpt lat="46.18583331092381" lon="11.851752528276485"><ele>827.5</ele><time>2026-05-02T14:16:24.999Z</time></trkpt><trkpt lat="46.18588693411201" lon="11.851963369698552"><ele>831.0</ele><time>2026-05-02T14:16:25.999Z</time></trkpt><trkpt lat="46.18593654782512" lon="11.85215368999939"><ele>834.5</ele><time>2026-05-02T14:16:26.999Z</time></trkpt><trkpt lat="46.18596179950252" lon="11.85232202927785"><ele>838.0</ele><time>2026-05-02T14:16:27.999Z</time></trkpt><trkpt lat="46.186004191810085" lon="11.852481790449882"><ele>842.5999999999999</ele><time>2026-05-02T14:16:28.999Z</time></trkpt><trkpt lat="46.18604395174358" lon="11.852631630779724"><ele>847.1999999999999</ele><time>2026-05-02T14:16:29.999Z</time></trkpt><trkpt lat="46.18607467039745" lon="11.852747499479324"><ele>851.8</ele><time>2026-05-02T14:16:30.999Z</time></trkpt><trkpt lat="46.1860973799444" lon="11.852849377500032"><ele>856.4</ele><time>2026-05-02T14:16:31.999Z</time></trkpt><trkpt lat="46.1860795378091" lon="11.852972769738058"><ele>861.0</ele><time>2026-05-02T14:16:33.999Z</time></trkpt><trkpt lat="46.18595521602244" lon="11.852958106660786"><ele>861.0</ele><time>2026-05-02T14:16:35.999Z</time></trkpt><trkpt lat="46.18590489102753" lon="11.852821668996507"><ele>861.0</ele><time>2026-05-02T14:16:36.999Z</time></trkpt><trkpt lat="46.18583867757494" lon="11.852752807527656"><ele>861.0</ele><time>2026-05-02T14:16:37.999Z</time></trkpt><trkpt lat="46.18578752093402" lon="11.85267902430845"><ele>861.0</ele><time>2026-05-02T14:16:38.999Z</time></trkpt><trkpt lat="46.18572655523707" lon="11.852602174189553"><ele>861.0</ele><time>2026-05-02T14:16:39.999Z</time></trkpt><trkpt lat="46.18568083837141" lon="11.852530521058727"><ele>861.0</ele><time>2026-05-02T14:16:40.999Z</time></trkpt><trkpt lat="46.185613190300415" lon="11.852452993841414"><ele>862.1999999999999</ele><time>2026-05-02T14:16:42.999Z</time></trkpt><trkpt lat="46.18553699579166" lon="11.852339254964145"><ele>863.3999999999999</ele><time>2026-05-02T14:16:44.999Z</time></trkpt><trkpt lat="46.18544427049645" lon="11.85223611189723"><ele>864.6</ele><time>2026-05-02T14:16:46.999Z</time></trkpt><trkpt lat="46.18532976294382" lon="11.852297919544084"><ele>865.8</ele><time>2026-05-02T14:16:48.999Z</time></trkpt><trkpt lat="46.18530593863556" lon="11.852406723185025"><ele>867.0</ele><time>2026-05-02T14:16:49.999Z</time></trkpt><trkpt lat="46.18533788598247" lon="11.852558251543535"><ele>872.5</ele><time>2026-05-02T14:16:50.999Z</time></trkpt><trkpt lat="46.185409962989766" lon="11.852700981619567"><ele>878.0</ele><time>2026-05-02T14:16:51.999Z</time></trkpt><trkpt lat="46.18549604065544" lon="11.852839190199658"><ele>883.5</ele><time>2026-05-02T14:16:52.999Z</time></trkpt><trkpt lat="46.18559293159723" lon="11.853015914263144"><ele>889.0</ele><time>2026-05-02T14:16:53.999Z</time></trkpt><trkpt lat="46.185677536063146" lon="11.853231912585741"><ele>889.75</ele><time>2026-05-02T14:16:54.999Z</time></trkpt><trkpt lat="46.185772972448454" lon="11.853397697178455"><ele>890.5</ele><time>2026-05-02T14:16:55.999Z</time></trkpt><trkpt lat="46.18584898326964" lon="11.853561113085858"><ele>891.25</ele><time>2026-05-02T14:16:56.999Z</time></trkpt><trkpt lat="46.18595864109263" lon="11.853732688696299"><ele>892.0</ele><time>2026-05-02T14:16:57.999Z</time></trkpt><trkpt lat="46.186079753984686" lon="11.853928032738535"><ele>892.0</ele><time>2026-05-02T14:16:58.999Z</time></trkpt><trkpt lat="46.18621447516436" lon="11.854112057220913"><ele>892.0</ele><time>2026-05-02T14:16:59.999Z</time></trkpt><trkpt lat="46.18637733356683" lon="11.854276962531532"><ele>892.0</ele><time>2026-05-02T14:17:00.999Z</time></trkpt><trkpt lat="46.18651259791991" lon="11.854426911655198"><ele>892.6666666666666</ele><time>2026-05-02T14:17:01.999Z</time></trkpt><trkpt lat="46.186636151292426" lon="11.854568448776861"><ele>893.3333333333333</ele><time>2026-05-02T14:17:02.999Z</time></trkpt><trkpt lat="46.1867682165498" lon="11.854717430520338"><ele>894.0</ele><time>2026-05-02T14:17:03.999Z</time></trkpt><trkpt lat="46.18688255405215" lon="11.85489253424619"><ele>894.0</ele><time>2026-05-02T14:17:04.999Z</time></trkpt><trkpt lat="46.18696484149941" lon="11.855098697161216"><ele>894.0</ele><time>2026-05-02T14:17:05.999Z</time></trkpt><trkpt lat="46.18704184313191" lon="11.855337528188953"><ele>894.0</ele><time>2026-05-02T14:17:06.999Z</time></trkpt><trkpt lat="46.18711465651727" lon="11.855565735124287"><ele>905.0</ele><time>2026-05-02T14:17:07.999Z</time></trkpt><trkpt lat="46.187189207581454" lon="11.855773884050533"><ele>916.0</ele><time>2026-05-02T14:17:08.999Z</time></trkpt><trkpt lat="46.18725351429251" lon="11.855965684017136"><ele>927.0</ele><time>2026-05-02T14:17:09.999Z</time></trkpt><trkpt lat="46.18731107038642" lon="11.856167084026778"><ele>935.3333333333333</ele><time>2026-05-02T14:17:10.999Z</time></trkpt><trkpt lat="46.187337541143314" lon="11.856377454421896"><ele>943.6666666666666</ele><time>2026-05-02T14:17:11.999Z</time></trkpt><trkpt lat="46.18734424423925" lon="11.856620204879077"><ele>952.0</ele><time>2026-05-02T14:17:12.999Z</time></trkpt><trkpt lat="46.187326187411806" lon="11.856890652708005"><ele>955.6666666666666</ele><time>2026-05-02T14:17:13.998Z</time></trkpt><trkpt lat="46.18730899716545" lon="11.857156276480268"><ele>959.3333333333333</ele><time>2026-05-02T14:17:14.998Z</time></trkpt><trkpt lat="46.18730239206112" lon="11.857399498656932"><ele>963.0</ele><time>2026-05-02T14:17:15.998Z</time></trkpt><trkpt lat="46.18729670615352" lon="11.857606902812092"><ele>962.75</ele><time>2026-05-02T14:17:16.998Z</time></trkpt><trkpt lat="46.18727907432906" lon="11.857803717335457"><ele>962.5</ele><time>2026-05-02T14:17:17.999Z</time></trkpt><trkpt lat="46.18725906647992" lon="11.857987835922016"><ele>962.25</ele><time>2026-05-02T14:17:18.999Z</time></trkpt><trkpt lat="46.18723790104801" lon="11.8581799186331"><ele>962.0</ele><time>2026-05-02T14:17:19.999Z</time></trkpt><trkpt lat="46.187206375127126" lon="11.85838900807011"><ele>955.3333333333334</ele><time>2026-05-02T14:17:20.999Z</time></trkpt><trkpt lat="46.18711666711962" lon="11.85856632772108"><ele>948.6666666666667</ele><time>2026-05-02T14:17:21.999Z</time></trkpt><trkpt lat="46.18701541485759" lon="11.858751090814852"><ele>942.0</ele><time>2026-05-02T14:17:22.999Z</time></trkpt><trkpt lat="46.18690876479702" lon="11.858954604668574"><ele>942.0</ele><time>2026-05-02T14:17:23.999Z</time></trkpt><trkpt lat="46.18677563550352" lon="11.859145499578453"><ele>942.0</ele><time>2026-05-02T14:17:24.999Z</time></trkpt><trkpt lat="46.18667328634599" lon="11.859336363459091"><ele>942.0</ele><time>2026-05-02T14:17:25.999Z</time></trkpt><trkpt lat="46.18660416471143" lon="11.85950266986069"><ele>940.75</ele><time>2026-05-02T14:17:26.999Z</time></trkpt><trkpt lat="46.186550615269574" lon="11.859654351735136"><ele>939.5</ele><time>2026-05-02T14:17:27.999Z</time></trkpt><trkpt lat="46.18650900366883" lon="11.85980898244945"><ele>938.25</ele><time>2026-05-02T14:17:28.999Z</time></trkpt><trkpt lat="46.18650266000569" lon="11.859982200503334"><ele>937.0</ele><time>2026-05-02T14:17:29.999Z</time></trkpt><trkpt lat="46.18652149532942" lon="11.86017171983767"><ele>939.5</ele><time>2026-05-02T14:17:30.999Z</time></trkpt><trkpt lat="46.186587172426094" lon="11.860344507912743"><ele>942.0</ele><time>2026-05-02T14:17:31.999Z</time></trkpt><trkpt lat="46.18668188056713" lon="11.860498177572312"><ele>944.5</ele><time>2026-05-02T14:17:32.999Z</time></trkpt><trkpt lat="46.18678720982532" lon="11.860604542105488"><ele>947.0</ele><time>2026-05-02T14:17:33.999Z</time></trkpt><trkpt lat="46.186918540807234" lon="11.860674528327287"><ele>947.0</ele><time>2026-05-02T14:17:34.999Z</time></trkpt><trkpt lat="46.1870604000183" lon="11.860684023087142"><ele>947.0</ele><time>2026-05-02T14:17:35.999Z</time></trkpt><trkpt lat="46.18722066900403" lon="11.860637693515038"><ele>947.0</ele><time>2026-05-02T14:17:36.999Z</time></trkpt><trkpt lat="46.18735501228316" lon="11.860483737921069"><ele>950.5</ele><time>2026-05-02T14:17:37.999Z</time></trkpt><trkpt lat="46.187485499587" lon="11.860363714719968"><ele>954.0</ele><time>2026-05-02T14:17:38.999Z</time></trkpt><trkpt lat="46.18761777102627" lon="11.860277527042868"><ele>957.5</ele><time>2026-05-02T14:17:39.999Z</time></trkpt><trkpt lat="46.18775155732537" lon="11.860214575248618"><ele>961.0</ele><time>2026-05-02T14:17:40.999Z</time></trkpt><trkpt lat="46.18785672632026" lon="11.860180485226016"><ele>961.0</ele><time>2026-05-02T14:17:41.999Z</time></trkpt><trkpt lat="46.18795089398871" lon="11.860150110215091"><ele>960.9999999999999</ele><time>2026-05-02T14:17:42.999Z</time></trkpt><trkpt lat="46.18804750312868" lon="11.860156239901713"><ele>960.9999999999999</ele><time>2026-05-02T14:17:43.999Z</time></trkpt><trkpt lat="46.18812787315449" lon="11.860198255323402"><ele>961.0</ele><time>2026-05-02T14:17:44.999Z</time></trkpt><trkpt lat="46.188199575235465" lon="11.860286676031375"><ele>961.0</ele><time>2026-05-02T14:17:45.999Z</time></trkpt><trkpt lat="46.188262508105296" lon="11.86042427214994"><ele>964.75</ele><time>2026-05-02T14:17:46.999Z</time></trkpt><trkpt lat="46.18832876843766" lon="11.860576841609415"><ele>968.5</ele><time>2026-05-02T14:17:47.999Z</time></trkpt><trkpt lat="46.188430371460655" lon="11.860703805051998"><ele>972.25</ele><time>2026-05-02T14:17:48.999Z</time></trkpt><trkpt lat="46.188537093213974" lon="11.86078731901609"><ele>976.0</ele><time>2026-05-02T14:17:49.999Z</time></trkpt><trkpt lat="46.18864692696409" lon="11.860817494052053"><ele>976.0</ele><time>2026-05-02T14:17:50.999Z</time></trkpt><trkpt lat="46.188750719769104" lon="11.860831890393333"><ele>975.9999999999999</ele><time>2026-05-02T14:17:51.999Z</time></trkpt><trkpt lat="46.18885192540731" lon="11.860819914618983"><ele>975.9999999999999</ele><time>2026-05-02T14:17:52.999Z</time></trkpt><trkpt lat="46.18896136102654" lon="11.860795339568192"><ele>976.0</ele><time>2026-05-02T14:17:53.999Z</time></trkpt><trkpt lat="46.18906549447049" lon="11.860813420948396"><ele>976.0</ele><time>2026-05-02T14:17:54.999Z</time></trkpt><trkpt lat="46.18916664022642" lon="11.86088709882391"><ele>979.25</ele><time>2026-05-02T14:17:55.999Z</time></trkpt><trkpt lat="46.18927843280096" lon="11.860998993913912"><ele>982.5</ele><time>2026-05-02T14:17:56.999Z</time></trkpt><trkpt lat="46.189378792518326" lon="11.861089661214166"><ele>985.75</ele><time>2026-05-02T14:17:57.999Z</time></trkpt><trkpt lat="46.18948891775136" lon="11.861191074670643"><ele>989.0</ele><time>2026-05-02T14:17:58.999Z</time></trkpt><trkpt lat="46.18958734672058" lon="11.861257465763645"><ele>989.0</ele><time>2026-05-02T14:17:59.999Z</time></trkpt><trkpt lat="46.189687838777566" lon="11.861293416923818"><ele>989.0000000000001</ele><time>2026-05-02T14:18:00.999Z</time></trkpt><trkpt lat="46.18979331635431" lon="11.861309150705454"><ele>989.0000000000001</ele><time>2026-05-02T14:18:01.999Z</time></trkpt><trkpt lat="46.18986571649227" lon="11.861332932241806"><ele>989.0</ele><time>2026-05-02T14:18:02.999Z</time></trkpt><trkpt lat="46.18990161619935" lon="11.861501471236046"><ele>989.0</ele><time>2026-05-02T14:18:04.999Z</time></trkpt><trkpt lat="46.18985980729926" lon="11.86158786169183"><ele>989.0</ele><time>2026-05-02T14:18:05.999Z</time></trkpt><trkpt lat="46.189767023274484" lon="11.861578840885452"><ele>989.0000000000001</ele><time>2026-05-02T14:18:06.999Z</time></trkpt><trkpt lat="46.18966553202817" lon="11.861531178423755"><ele>989.0000000000001</ele><time>2026-05-02T14:18:07.999Z</time></trkpt><trkpt lat="46.18954689296883" lon="11.861492531016959"><ele>989.0</ele><time>2026-05-02T14:18:08.999Z</time></trkpt><trkpt lat="46.189429696650144" lon="11.861484144665365"><ele>989.0</ele><time>2026-05-02T14:18:09.999Z</time></trkpt><trkpt lat="46.18932374297572" lon="11.861487625003392"><ele>989.0</ele><time>2026-05-02T14:18:10.999Z</time></trkpt><trkpt lat="46.18921905870612" lon="11.861524164218869"><ele>989.0</ele><time>2026-05-02T14:18:11.999Z</time></trkpt><trkpt lat="46.189119072025264" lon="11.861600062972395"><ele>989.0</ele><time>2026-05-02T14:18:12.999Z</time></trkpt><trkpt lat="46.18902618842671" lon="11.861702162229125"><ele>989.0</ele><time>2026-05-02T14:18:13.999Z</time></trkpt><trkpt lat="46.18893458606012" lon="11.861836330248492"><ele>988.3333333333334</ele><time>2026-05-02T14:18:14.999Z</time></trkpt><trkpt lat="46.18887360844452" lon="11.862018403826262"><ele>987.6666666666667</ele><time>2026-05-02T14:18:15.999Z</time></trkpt><trkpt lat="46.18883859982918" lon="11.86225359471535"><ele>987.0</ele><time>2026-05-02T14:18:16.999Z</time></trkpt><trkpt lat="46.18884041333445" lon="11.862525436439672"><ele>992.6666666666667</ele><time>2026-05-02T14:18:17.999Z</time></trkpt><trkpt lat="46.18887456292463" lon="11.862764951138747"><ele>998.3333333333334</ele><time>2026-05-02T14:18:18.999Z</time></trkpt><trkpt lat="46.18892013988487" lon="11.86303796625093"><ele>1004.0</ele><time>2026-05-02T14:18:19.999Z</time></trkpt><trkpt lat="46.18891603647363" lon="11.863249275980479"><ele>1004.0</ele><time>2026-05-02T14:18:20.999Z</time></trkpt><trkpt lat="46.18888424267123" lon="11.863401258111656"><ele>1004.0000000000001</ele><time>2026-05-02T14:18:21.999Z</time></trkpt><trkpt lat="46.18882622013625" lon="11.863521340567862"><ele>1004.0000000000001</ele><time>2026-05-02T14:18:22.999Z</time></trkpt><trkpt lat="46.188724409305536" lon="11.86361176194645"><ele>1004.0</ele><time>2026-05-02T14:18:23.999Z</time></trkpt><trkpt lat="46.188646331584316" lon="11.863700111564397"><ele>1004.0</ele><time>2026-05-02T14:18:24.999Z</time></trkpt><trkpt lat="46.18859769687286" lon="11.863774756717774"><ele>1008.25</ele><time>2026-05-02T14:18:25.999Z</time></trkpt><trkpt lat="46.188588399226276" lon="11.86390026495078"><ele>1012.5</ele><time>2026-05-02T14:18:26.999Z</time></trkpt><trkpt lat="46.188705389768224" lon="11.86400998525858"><ele>1016.75</ele><time>2026-05-02T14:18:27.999Z</time></trkpt><trkpt lat="46.18881669659137" lon="11.864036264518314"><ele>1021.0</ele><time>2026-05-02T14:18:28.999Z</time></trkpt><trkpt lat="46.18895175357345" lon="11.8639701858433"><ele>1021.8333333333333</ele><time>2026-05-02T14:18:29.999Z</time></trkpt><trkpt lat="46.18906586062675" lon="11.863935814266394"><ele>1022.6666666666666</ele><time>2026-05-02T14:18:30.999Z</time></trkpt><trkpt lat="46.1891433656136" lon="11.863939868763316"><ele>1023.5</ele><time>2026-05-02T14:18:31.999Z</time></trkpt><trkpt lat="46.18919141384684" lon="11.864007614948834"><ele>1024.3333333333333</ele><time>2026-05-02T14:18:32.999Z</time></trkpt><trkpt lat="46.189208756593466" lon="11.864109707115544"><ele>1025.1666666666667</ele><time>2026-05-02T14:18:33.999Z</time></trkpt><trkpt lat="46.189162700247" lon="11.864235044436928"><ele>1026.0</ele><time>2026-05-02T14:18:34.999Z</time></trkpt><trkpt lat="46.18904154054001" lon="11.864270976465013"><ele>1029.5</ele><time>2026-05-02T14:18:35.999Z</time></trkpt><trkpt lat="46.18890664364112" lon="11.864346030338655"><ele>1033.0</ele><time>2026-05-02T14:18:36.999Z</time></trkpt><trkpt lat="46.18877477318593" lon="11.864435326925909"><ele>1036.5</ele><time>2026-05-02T14:18:37.999Z</time></trkpt><trkpt lat="46.18864407312768" lon="11.864516013373915"><ele>1040.0</ele><time>2026-05-02T14:18:38.999Z</time></trkpt><trkpt lat="46.188506946890534" lon="11.86459709210495"><ele>1040.0</ele><time>2026-05-02T14:18:39.999Z</time></trkpt><trkpt lat="46.18835682490394" lon="11.864609398669444"><ele>1040.0</ele><time>2026-05-02T14:18:40.999Z</time></trkpt><trkpt lat="46.18821023134308" lon="11.864600694226926"><ele>1040.0</ele><time>2026-05-02T14:18:41.999Z</time></trkpt><trkpt lat="46.188066567630095" lon="11.864625384878408"><ele>1040.0</ele><time>2026-05-02T14:18:42.999Z</time></trkpt><trkpt lat="46.18792252808891" lon="11.86464847915722"><ele>1038.6666666666667</ele><time>2026-05-02T14:18:43.999Z</time></trkpt><trkpt lat="46.1877795351058" lon="11.864734950808655"><ele>1037.3333333333333</ele><time>2026-05-02T14:18:44.999Z</time></trkpt><trkpt lat="46.18762970274858" lon="11.864869412548968"><ele>1036.0</ele><time>2026-05-02T14:18:45.999Z</time></trkpt><trkpt lat="46.18750712197631" lon="11.864999074923803"><ele>1036.0</ele><time>2026-05-02T14:18:46.999Z</time></trkpt><trkpt lat="46.18739965559477" lon="11.86506489365341"><ele>1036.0</ele><time>2026-05-02T14:18:47.999Z</time></trkpt><trkpt lat="46.18729843304826" lon="11.865094296405744"><ele>1036.0</ele><time>2026-05-02T14:18:48.999Z</time></trkpt><trkpt lat="46.187216054630284" lon="11.865144272819942"><ele>1036.0</ele><time>2026-05-02T14:18:49.999Z</time></trkpt><trkpt lat="46.187141432032256" lon="11.865183973802273"><ele>1036.0</ele><time>2026-05-02T14:18:50.999Z</time></trkpt><trkpt lat="46.18708112784288" lon="11.865264841509742"><ele>1035.6666666666665</ele><time>2026-05-02T14:18:51.999Z</time></trkpt><trkpt lat="46.18697596669904" lon="11.865396875760178"><ele>1035.3333333333333</ele><time>2026-05-02T14:18:52.999Z</time></trkpt><trkpt lat="46.18708937745293" lon="11.865648012188993"><ele>1035.0</ele><time>2026-05-02T14:18:53.999Z</time></trkpt><trkpt lat="46.18707996187997" lon="11.865857134534876"><ele>1036.5</ele><time>2026-05-02T14:18:54.999Z</time></trkpt><trkpt lat="46.187045532947465" lon="11.866046150093059"><ele>1038.0</ele><time>2026-05-02T14:18:55.999Z</time></trkpt><trkpt lat="46.18700094630607" lon="11.866253157586048"><ele>1039.5</ele><time>2026-05-02T14:18:56.999Z</time></trkpt><trkpt lat="46.18695463126946" lon="11.86646950279702"><ele>1041.0</ele><time>2026-05-02T14:18:57.999Z</time></trkpt><trkpt lat="46.18690695267728" lon="11.866709170191596"><ele>1045.6666666666667</ele><time>2026-05-02T14:18:58.999Z</time></trkpt><trkpt lat="46.18685337631489" lon="11.8669605258651"><ele>1050.3333333333335</ele><time>2026-05-02T14:18:59.999Z</time></trkpt><trkpt lat="46.18678540858886" lon="11.867218644600179"><ele>1055.0</ele><time>2026-05-02T14:19:00.999Z</time></trkpt><trkpt lat="46.186690756490606" lon="11.867451632635364"><ele>1061.3333333333335</ele><time>2026-05-02T14:19:01.999Z</time></trkpt><trkpt lat="46.186631185831466" lon="11.867675002462839"><ele>1067.6666666666667</ele><time>2026-05-02T14:19:02.999Z</time></trkpt><trkpt lat="46.186554051399064" lon="11.867900945243944"><ele>1074.0</ele><time>2026-05-02T14:19:03.999Z</time></trkpt><trkpt lat="46.186473373189756" lon="11.868158118617364"><ele>1074.6666666666667</ele><time>2026-05-02T14:19:04.999Z</time></trkpt><trkpt lat="46.186376280576525" lon="11.868400332514911"><ele>1075.3333333333335</ele><time>2026-05-02T14:19:05.999Z</time></trkpt><trkpt lat="46.186311836654326" lon="11.868622144020417"><ele>1076.0</ele><time>2026-05-02T14:19:06.999Z</time></trkpt><trkpt lat="46.186293274229236" lon="11.868855502663573"><ele>1077.2</ele><time>2026-05-02T14:19:07.999Z</time></trkpt><trkpt lat="46.18628632697082" lon="11.869040351088676"><ele>1078.3999999999999</ele><time>2026-05-02T14:19:08.999Z</time></trkpt><trkpt lat="46.18627208727998" lon="11.869200952428812"><ele>1079.6</ele><time>2026-05-02T14:19:09.999Z</time></trkpt><trkpt lat="46.1862275672709" lon="11.86931031179829"><ele>1080.8</ele><time>2026-05-02T14:19:10.999Z</time></trkpt><trkpt lat="46.18615383186188" lon="11.869404357488733"><ele>1082.0</ele><time>2026-05-02T14:19:11.999Z</time></trkpt><trkpt lat="46.18603282167455" lon="11.869387563171006"><ele>1082.8</ele><time>2026-05-02T14:19:12.999Z</time></trkpt><trkpt lat="46.185908192724476" lon="11.869405291727597"><ele>1083.6</ele><time>2026-05-02T14:19:13.999Z</time></trkpt><trkpt lat="46.1858015056136" lon="11.86938779147394"><ele>1084.3999999999999</ele><time>2026-05-02T14:19:14.999Z</time></trkpt><trkpt lat="46.18571915155413" lon="11.869422074734228"><ele>1085.2</ele><time>2026-05-02T14:19:15.999Z</time></trkpt><trkpt lat="46.18566417651843" lon="11.869528875687754"><ele>1086.0</ele><time>2026-05-02T14:19:16.999Z</time></trkpt><trkpt lat="46.18565106289797" lon="11.869677500445801"><ele>1086.0</ele><time>2026-05-02T14:19:17.999Z</time></trkpt><trkpt lat="46.185686070634986" lon="11.869811267403191"><ele>1086.0</ele><time>2026-05-02T14:19:18.999Z</time></trkpt><trkpt lat="46.185775020708945" lon="11.869907815454443"><ele>1086.0</ele><time>2026-05-02T14:19:19.999Z</time></trkpt><trkpt lat="46.18589537107295" lon="11.869941939968193"><ele>1086.0</ele><time>2026-05-02T14:19:20.999Z</time></trkpt><trkpt lat="46.18603767667764" lon="11.869900122260523"><ele>1086.0</ele><time>2026-05-02T14:19:21.999Z</time></trkpt><trkpt lat="46.18615331205196" lon="11.869855044421776"><ele>1086.0</ele><time>2026-05-02T14:19:22.999Z</time></trkpt><trkpt lat="46.1862382751112" lon="11.86988623414254"><ele>1086.0</ele><time>2026-05-02T14:19:23.999Z</time></trkpt><trkpt lat="46.18632399792152" lon="11.869907994215486"><ele>1086.0</ele><time>2026-05-02T14:19:24.999Z</time></trkpt><trkpt lat="46.18638480214697" lon="11.87004214265904"><ele>1086.0</ele><time>2026-05-02T14:19:25.999Z</time></trkpt><trkpt lat="46.1863734372014" lon="11.870185968561103"><ele>1088.0</ele><time>2026-05-02T14:19:26.999Z</time></trkpt><trkpt lat="46.18629838164168" lon="11.870305268380303"><ele>1090.0</ele><time>2026-05-02T14:19:27.999Z</time></trkpt><trkpt lat="46.186200801051356" lon="11.87043409223922"><ele>1092.0</ele><time>2026-05-02T14:19:28.999Z</time></trkpt><trkpt lat="46.18609879727725" lon="11.870593869241297"><ele>1094.0</ele><time>2026-05-02T14:19:29.999Z</time></trkpt><trkpt lat="46.186001519236314" lon="11.870791376521604"><ele>1097.3333333333335</ele><time>2026-05-02T14:19:30.999Z</time></trkpt><trkpt lat="46.18592116269586" lon="11.87102272235807"><ele>1100.6666666666667</ele><time>2026-05-02T14:19:31.999Z</time></trkpt><trkpt lat="46.18588818923599" lon="11.87124314525645"><ele>1104.0</ele><time>2026-05-02T14:19:32.999Z</time></trkpt><trkpt lat="46.18586001963631" lon="11.871456373692515"><ele>1104.0</ele><time>2026-05-02T14:19:33.999Z</time></trkpt><trkpt lat="46.185883204020165" lon="11.87168775873465"><ele>1104.0</ele><time>2026-05-02T14:19:34.999Z</time></trkpt><trkpt lat="46.18594053704608" lon="11.871937356833925"><ele>1104.0</ele><time>2026-05-02T14:19:35.999Z</time></trkpt><trkpt lat="46.185976608663395" lon="11.8722276968646"><ele>1105.0</ele><time>2026-05-02T14:19:36.999Z</time></trkpt><trkpt lat="46.18599476060949" lon="11.87247583682576"><ele>1106.0</ele><time>2026-05-02T14:19:37.999Z</time></trkpt><trkpt lat="46.18598874236594" lon="11.872723761349903"><ele>1107.0</ele><time>2026-05-02T14:19:39Z</time></trkpt><trkpt lat="46.18595013998974" lon="11.872961345422125"><ele>1107.0</ele><time>2026-05-02T14:19:40Z</time></trkpt><trkpt lat="46.18587384874287" lon="11.873189421675614"><ele>1107.0</ele><time>2026-05-02T14:19:41Z</time></trkpt><trkpt lat="46.18575874059809" lon="11.873407151741352"><ele>1107.0</ele><time>2026-05-02T14:19:42Z</time></trkpt><trkpt lat="46.18562449642308" lon="11.87363528021458"><ele>1108.3333333333333</ele><time>2026-05-02T14:19:43Z</time></trkpt><trkpt lat="46.185472044817985" lon="11.873833806393142"><ele>1109.6666666666665</ele><time>2026-05-02T14:19:44Z</time></trkpt><trkpt lat="46.185342899423226" lon="11.874016581047268"><ele>1111.0</ele><time>2026-05-02T14:19:45Z</time></trkpt><trkpt lat="46.18523188047099" lon="11.874183057539959"><ele>1111.3333333333333</ele><time>2026-05-02T14:19:46Z</time></trkpt><trkpt lat="46.18512782412394" lon="11.87435640224352"><ele>1111.6666666666667</ele><time>2026-05-02T14:19:47Z</time></trkpt><trkpt lat="46.185033440604194" lon="11.874541927509041"><ele>1112.0</ele><time>2026-05-02T14:19:48Z</time></trkpt><trkpt lat="46.18496844575462" lon="11.874770578847059"><ele>1112.0</ele><time>2026-05-02T14:19:49Z</time></trkpt><trkpt lat="46.18493901428637" lon="11.875023741470573"><ele>1112.0</ele><time>2026-05-02T14:19:50Z</time></trkpt><trkpt lat="46.18496010712251" lon="11.875298544631148"><ele>1112.0</ele><time>2026-05-02T14:19:51Z</time></trkpt><trkpt lat="46.185006795501344" lon="11.875600719095026"><ele>1115.0</ele><time>2026-05-02T14:19:52Z</time></trkpt><trkpt lat="46.18507257764061" lon="11.8759161254179"><ele>1118.0</ele><time>2026-05-02T14:19:53Z</time></trkpt><trkpt lat="46.18512224034422" lon="11.876213827499242"><ele>1121.0</ele><time>2026-05-02T14:19:54Z</time></trkpt><trkpt lat="46.18515409879858" lon="11.876515267734606"><ele>1128.5</ele><time>2026-05-02T14:19:55Z</time></trkpt><trkpt lat="46.185188123949274" lon="11.87683277993003"><ele>1136.0</ele><time>2026-05-02T14:19:56Z</time></trkpt><trkpt lat="46.18522292269829" lon="11.87715707656969"><ele>1136.0</ele><time>2026-05-02T14:19:57Z</time></trkpt><trkpt lat="46.18524651580517" lon="11.877473305280795"><ele>1136.0</ele><time>2026-05-02T14:19:58Z</time></trkpt><trkpt lat="46.185274118489964" lon="11.877771472659532"><ele>1136.0</ele><time>2026-05-02T14:19:59Z</time></trkpt><trkpt lat="46.185301071461204" lon="11.878049564042188"><ele>1139.6666666666667</ele><time>2026-05-02T14:20:00Z</time></trkpt><trkpt lat="46.185334808203514" lon="11.878326480859718"><ele>1143.3333333333333</ele><time>2026-05-02T14:20:01Z</time></trkpt><trkpt lat="46.185391975792086" lon="11.87862107087292"><ele>1147.0</ele><time>2026-05-02T14:20:02Z</time></trkpt><trkpt lat="46.18547072211171" lon="11.87891803203995"><ele>1149.0</ele><time>2026-05-02T14:20:03Z</time></trkpt><trkpt lat="46.18557144830333" lon="11.87921103715273"><ele>1151.0</ele><time>2026-05-02T14:20:04Z</time></trkpt><trkpt lat="46.185679401504146" lon="11.879508645875072"><ele>1151.0</ele><time>2026-05-02T14:20:05Z</time></trkpt><trkpt lat="46.18578520580926" lon="11.879818146552909"><ele>1151.0</ele><time>2026-05-02T14:20:06Z</time></trkpt><trkpt lat="46.18589379168096" lon="11.880136393365852"><ele>1157.0</ele><time>2026-05-02T14:20:07Z</time></trkpt><trkpt lat="46.186006122815186" lon="11.880456479917376"><ele>1163.0</ele><time>2026-05-02T14:20:08Z</time></trkpt><trkpt lat="46.1861166998059" lon="11.88076895110383"><ele>1168.0</ele><time>2026-05-02T14:20:09Z</time></trkpt><trkpt lat="46.18622839956609" lon="11.881080687524657"><ele>1173.0</ele><time>2026-05-02T14:20:10Z</time></trkpt><trkpt lat="46.18633388209758" lon="11.881381940696368"><ele>1173.0</ele><time>2026-05-02T14:20:11Z</time></trkpt><trkpt lat="46.18643955635075" lon="11.881676729031474"><ele>1173.0</ele><time>2026-05-02T14:20:12Z</time></trkpt><trkpt lat="46.186544194654914" lon="11.881970961548651"><ele>1172.3333333333333</ele><time>2026-05-02T14:20:13Z</time></trkpt><trkpt lat="46.18664392414422" lon="11.882253358800419"><ele>1171.6666666666665</ele><time>2026-05-02T14:20:14Z</time></trkpt><trkpt lat="46.18674604225303" lon="11.882550244174782"><ele>1171.0</ele><time>2026-05-02T14:20:15Z</time></trkpt><trkpt lat="46.18684418577217" lon="11.882869298084469"><ele>1179.5</ele><time>2026-05-02T14:20:16Z</time></trkpt><trkpt lat="46.1869342043752" lon="11.883189160682273"><ele>1188.0</ele><time>2026-05-02T14:20:17Z</time></trkpt><trkpt lat="46.18700404982539" lon="11.88347783847296"><ele>1191.0</ele><time>2026-05-02T14:20:18Z</time></trkpt><trkpt lat="46.18707138822385" lon="11.883747105851747"><ele>1194.0</ele><time>2026-05-02T14:20:19Z</time></trkpt><trkpt lat="46.18714114553765" lon="11.884017292985172"><ele>1197.0</ele><time>2026-05-02T14:20:20Z</time></trkpt><trkpt lat="46.1872201945164" lon="11.884274172050544"><ele>1196.0</ele><time>2026-05-02T14:20:21Z</time></trkpt><trkpt lat="46.187325231957175" lon="11.884531537025822"><ele>1195.0</ele><time>2026-05-02T14:20:22Z</time></trkpt><trkpt lat="46.18746785421197" lon="11.884765225398077"><ele>1194.0</ele><time>2026-05-02T14:20:23Z</time></trkpt><trkpt lat="46.187630306542665" lon="11.884984642426156"><ele>1205.5</ele><time>2026-05-02T14:20:24Z</time></trkpt><trkpt lat="46.18780378562221" lon="11.88519735306213"><ele>1217.0</ele><time>2026-05-02T14:20:25Z</time></trkpt><trkpt lat="46.187969612519474" lon="11.88543574369185"><ele>1217.0</ele><time>2026-05-02T14:20:26Z</time></trkpt><trkpt lat="46.188137784149546" lon="11.88568794622618"><ele>1217.0</ele><time>2026-05-02T14:20:27Z</time></trkpt><trkpt lat="46.188303884555346" lon="11.885924567290608"><ele>1225.6666666666667</ele><time>2026-05-02T14:20:28Z</time></trkpt><trkpt lat="46.18845225811319" lon="11.886143687107793"><ele>1234.3333333333333</ele><time>2026-05-02T14:20:29Z</time></trkpt><trkpt lat="46.18858774115328" lon="11.886342912382457"><ele>1243.0</ele><time>2026-05-02T14:20:30Z</time></trkpt><trkpt lat="46.188712724192044" lon="11.886530692324435"><ele>1243.0</ele><time>2026-05-02T14:20:31Z</time></trkpt><trkpt lat="46.18882622315278" lon="11.886698498384966"><ele>1243.0</ele><time>2026-05-02T14:20:32Z</time></trkpt><trkpt lat="46.1889396368232" lon="11.886868264546443"><ele>1243.0</ele><time>2026-05-02T14:20:33Z</time></trkpt><trkpt lat="46.189060369266954" lon="11.887043019271125"><ele>1244.6666666666665</ele><time>2026-05-02T14:20:34Z</time></trkpt><trkpt lat="46.18916387784815" lon="11.887236366394667"><ele>1246.3333333333333</ele><time>2026-05-02T14:20:35Z</time></trkpt><trkpt lat="46.189250064474784" lon="11.887460126806902"><ele>1248.0</ele><time>2026-05-02T14:20:36Z</time></trkpt><trkpt lat="46.189304850054704" lon="11.88771840921066"><ele>1248.0</ele><time>2026-05-02T14:20:37Z</time></trkpt><trkpt lat="46.18931413454928" lon="11.88799350135014"><ele>1248.0</ele><time>2026-05-02T14:20:38Z</time></trkpt><trkpt lat="46.189339724661664" lon="11.888245933963315"><ele>1248.0</ele><time>2026-05-02T14:20:39Z</time></trkpt><trkpt lat="46.18937996422649" lon="11.88849394928671"><ele>1256.0</ele><time>2026-05-02T14:20:40Z</time></trkpt><trkpt lat="46.189430430921796" lon="11.88875372746147"><ele>1264.0</ele><time>2026-05-02T14:20:41Z</time></trkpt><trkpt lat="46.18950549419487" lon="11.88900092618663"><ele>1272.0</ele><time>2026-05-02T14:20:42Z</time></trkpt><trkpt lat="46.189575152406775" lon="11.889241301921757"><ele>1277.75</ele><time>2026-05-02T14:20:43Z</time></trkpt><trkpt lat="46.189634744487805" lon="11.889438831194285"><ele>1283.5</ele><time>2026-05-02T14:20:44Z</time></trkpt><trkpt lat="46.18967370813889" lon="11.889581269974999"><ele>1289.25</ele><time>2026-05-02T14:20:45Z</time></trkpt><trkpt lat="46.18972661033542" lon="11.889704136475586"><ele>1295.0</ele><time>2026-05-02T14:20:46Z</time></trkpt><trkpt lat="46.18981618294835" lon="11.889772121576142"><ele>1283.75</ele><time>2026-05-02T14:20:47Z</time></trkpt><trkpt lat="46.189906196298146" lon="11.889830797824365"><ele>1272.5</ele><time>2026-05-02T14:20:48Z</time></trkpt><trkpt lat="46.190055539043044" lon="11.889725866770707"><ele>1261.25</ele><time>2026-05-02T14:20:49Z</time></trkpt><trkpt lat="46.19016503400355" lon="11.889681502181169"><ele>1250.0</ele><time>2026-05-02T14:20:50Z</time></trkpt><trkpt lat="46.19028208923528" lon="11.889636173335784"><ele>1250.0</ele><time>2026-05-02T14:20:51Z</time></trkpt><trkpt lat="46.19037193582492" lon="11.889606733338265"><ele>1250.0</ele><time>2026-05-02T14:20:52Z</time></trkpt><trkpt lat="46.19046633213438" lon="11.889679009334543"><ele>1250.0</ele><time>2026-05-02T14:20:53Z</time></trkpt><trkpt lat="46.19052635965435" lon="11.889802659885405"><ele>1250.0</ele><time>2026-05-02T14:20:54Z</time></trkpt><trkpt lat="46.19054172742287" lon="11.889964721894911"><ele>1250.0</ele><time>2026-05-02T14:20:55Z</time></trkpt><trkpt lat="46.19054706075019" lon="11.89014969744608"><ele>1250.25</ele><time>2026-05-02T14:20:56Z</time></trkpt><trkpt lat="46.1905721658117" lon="11.890295500627646"><ele>1250.5</ele><time>2026-05-02T14:20:57Z</time></trkpt><trkpt lat="46.19063239824048" lon="11.890444818873558"><ele>1250.75</ele><time>2026-05-02T14:20:58Z</time></trkpt><trkpt lat="46.19073187575302" lon="11.890529897829229"><ele>1251.0</ele><time>2026-05-02T14:20:59Z</time></trkpt><trkpt lat="46.19084553365675" lon="11.890577829688588"><ele>1251.0</ele><time>2026-05-02T14:21:00Z</time></trkpt><trkpt lat="46.19098223872623" lon="11.890539068964651"><ele>1251.0</ele><time>2026-05-02T14:21:01Z</time></trkpt><trkpt lat="46.19107599408565" lon="11.890417732777802"><ele>1251.0</ele><time>2026-05-02T14:21:02Z</time></trkpt><trkpt lat="46.19114876316126" lon="11.890232757694283"><ele>1251.0</ele><time>2026-05-02T14:21:03Z</time></trkpt><trkpt lat="46.19119152137079" lon="11.890092444380686"><ele>1251.0</ele><time>2026-05-02T14:21:04Z</time></trkpt><trkpt lat="46.191221677575705" lon="11.88999944540374"><ele>1251.0</ele><time>2026-05-02T14:21:05Z</time></trkpt><trkpt lat="46.19128392725729" lon="11.889913230639442"><ele>1251.0</ele><time>2026-05-02T14:21:06.999Z</time></trkpt><trkpt lat="46.191343354785296" lon="11.890101467797113"><ele>1251.0</ele><time>2026-05-02T14:21:08.999Z</time></trkpt><trkpt lat="46.19130878291153" lon="11.89024536996207"><ele>1251.0</ele><time>2026-05-02T14:21:09.999Z</time></trkpt><trkpt lat="46.19129602031087" lon="11.890447268890297"><ele>1251.0</ele><time>2026-05-02T14:21:10.999Z</time></trkpt><trkpt lat="46.191307887467055" lon="11.890687128706434"><ele>1251.0</ele><time>2026-05-02T14:21:11.999Z</time></trkpt><trkpt lat="46.191299204417646" lon="11.890837533592517"><ele>1251.0</ele><time>2026-05-02T14:21:12.999Z</time></trkpt><trkpt lat="46.19129718829091" lon="11.89100782973479"><ele>1251.0</ele><time>2026-05-02T14:21:13.999Z</time></trkpt><trkpt lat="46.19130452479182" lon="11.891146984448401"><ele>1253.5</ele><time>2026-05-02T14:21:14.999Z</time></trkpt><trkpt lat="46.19131447055862" lon="11.891300727452643"><ele>1256.0</ele><time>2026-05-02T14:21:15.999Z</time></trkpt><trkpt lat="46.191331259962446" lon="11.891410611824094"><ele>1258.5</ele><time>2026-05-02T14:21:16.999Z</time></trkpt><trkpt lat="46.19138226359858" lon="11.891485397619709"><ele>1261.0</ele><time>2026-05-02T14:21:17.999Z</time></trkpt><trkpt lat="46.19146105675338" lon="11.891504970042138"><ele>1263.5</ele><time>2026-05-02T14:21:18.999Z</time></trkpt><trkpt lat="46.19150812025597" lon="11.891373893150757"><ele>1266.0</ele><time>2026-05-02T14:21:19.999Z</time></trkpt><trkpt lat="46.191550346188926" lon="11.891213276238826"><ele>1267.0</ele><time>2026-05-02T14:21:20.999Z</time></trkpt><trkpt lat="46.19157337672371" lon="11.891026129468242"><ele>1268.0</ele><time>2026-05-02T14:21:21.999Z</time></trkpt><trkpt lat="46.191613220337814" lon="11.8908365445862"><ele>1269.0</ele><time>2026-05-02T14:21:22.999Z</time></trkpt><trkpt lat="46.1916465948138" lon="11.890657675989042"><ele>1270.0</ele><time>2026-05-02T14:21:23.999Z</time></trkpt><trkpt lat="46.19167568364742" lon="11.89050177644082"><ele>1270.0</ele><time>2026-05-02T14:21:24.999Z</time></trkpt><trkpt lat="46.191702251803854" lon="11.890359386375517"><ele>1270.0</ele><time>2026-05-02T14:21:25.999Z</time></trkpt><trkpt lat="46.19172330649236" lon="11.89024654424859"><ele>1270.0</ele><time>2026-05-02T14:21:26.999Z</time></trkpt><trkpt lat="46.191740400824486" lon="11.890157652374304"><ele>1270.0</ele><time>2026-05-02T14:21:27.999Z</time></trkpt><trkpt lat="46.19180653660392" lon="11.890138516601024"><ele>1270.0</ele><time>2026-05-02T14:21:29Z</time></trkpt><trkpt lat="46.191867233706375" lon="11.890192336603224"><ele>1270.0</ele><time>2026-05-02T14:21:30Z</time></trkpt><trkpt lat="46.19187398612009" lon="11.890313197538742"><ele>1270.0</ele><time>2026-05-02T14:21:31Z</time></trkpt><trkpt lat="46.19183461497524" lon="11.890449710743903"><ele>1270.0</ele><time>2026-05-02T14:21:32Z</time></trkpt><trkpt lat="46.191828705355555" lon="11.890622266979905"><ele>1270.0</ele><time>2026-05-02T14:21:33Z</time></trkpt><trkpt lat="46.19184482889252" lon="11.890853321638984"><ele>1270.0</ele><time>2026-05-02T14:21:34Z</time></trkpt><trkpt lat="46.191865149701336" lon="11.891039236877896"><ele>1272.3333333333333</ele><time>2026-05-02T14:21:35Z</time></trkpt><trkpt lat="46.19188790264668" lon="11.891252622837976"><ele>1274.6666666666667</ele><time>2026-05-02T14:21:36Z</time></trkpt><trkpt lat="46.191906772875775" lon="11.891496502215565"><ele>1277.0</ele><time>2026-05-02T14:21:37Z</time></trkpt><trkpt lat="46.1919330012908" lon="11.891778035406112"><ele>1280.6666666666667</ele><time>2026-05-02T14:21:38Z</time></trkpt><trkpt lat="46.19192781747522" lon="11.892072217210375"><ele>1284.3333333333333</ele><time>2026-05-02T14:21:39Z</time></trkpt><trkpt lat="46.19191636449109" lon="11.892339280737888"><ele>1288.0</ele><time>2026-05-02T14:21:40Z</time></trkpt><trkpt lat="46.19189689393635" lon="11.892609023432632"><ele>1289.0</ele><time>2026-05-02T14:21:41Z</time></trkpt><trkpt lat="46.19186144398884" lon="11.892851920016765"><ele>1290.0</ele><time>2026-05-02T14:21:42Z</time></trkpt><trkpt lat="46.191851922119795" lon="11.893092687232423"><ele>1291.0</ele><time>2026-05-02T14:21:43Z</time></trkpt><trkpt lat="46.1918528842042" lon="11.893351021112293"><ele>1293.3333333333333</ele><time>2026-05-02T14:21:44Z</time></trkpt><trkpt lat="46.19185962842645" lon="11.893625660596413"><ele>1295.6666666666667</ele><time>2026-05-02T14:21:45Z</time></trkpt><trkpt lat="46.19188041004984" lon="11.89390400329652"><ele>1298.0</ele><time>2026-05-02T14:21:46Z</time></trkpt><trkpt lat="46.19187289031397" lon="11.894190918887315"><ele>1300.6666666666667</ele><time>2026-05-02T14:21:47Z</time></trkpt><trkpt lat="46.19185213915397" lon="11.89448642583889"><ele>1303.3333333333333</ele><time>2026-05-02T14:21:48Z</time></trkpt><trkpt lat="46.1918120006427" lon="11.894814700956337"><ele>1306.0</ele><time>2026-05-02T14:21:49Z</time></trkpt><trkpt lat="46.19177835494823" lon="11.895153194225754"><ele>1307.6666666666665</ele><time>2026-05-02T14:21:50Z</time></trkpt><trkpt lat="46.19173601930602" lon="11.895447376131834"><ele>1309.3333333333333</ele><time>2026-05-02T14:21:51Z</time></trkpt><trkpt lat="46.19172989893991" lon="11.89569048066144"><ele>1311.0</ele><time>2026-05-02T14:21:52Z</time></trkpt><trkpt lat="46.191706769904634" lon="11.895937369809436"><ele>1313.5</ele><time>2026-05-02T14:21:53Z</time></trkpt><trkpt lat="46.19168681399435" lon="11.896131618017929"><ele>1316.0</ele><time>2026-05-02T14:21:54Z</time></trkpt><trkpt lat="46.191672941496634" lon="11.896326784370789"><ele>1318.5</ele><time>2026-05-02T14:21:55Z</time></trkpt><trkpt lat="46.19165809876209" lon="11.896497586282207"><ele>1321.0</ele><time>2026-05-02T14:21:56Z</time></trkpt><trkpt lat="46.191646749381896" lon="11.89660049634041"><ele>1324.6666666666665</ele><time>2026-05-02T14:21:57Z</time></trkpt><trkpt lat="46.19161457743907" lon="11.897034135734332"><ele>1328.3333333333333</ele><time>2026-05-02T14:21:58Z</time></trkpt><trkpt lat="46.191602682772526" lon="11.897150512523297"><ele>1332.0</ele><time>2026-05-02T14:21:59Z</time></trkpt><trkpt lat="46.19166243664469" lon="11.897274498171008"><ele>1332.0</ele><time>2026-05-02T14:22:01Z</time></trkpt><trkpt lat="46.191739679781286" lon="11.897253659420006"><ele>1332.0</ele><time>2026-05-02T14:22:02Z</time></trkpt><trkpt lat="46.19181805004331" lon="11.897154479465662"><ele>1332.0</ele><time>2026-05-02T14:22:03Z</time></trkpt><trkpt lat="46.191885011813596" lon="11.896991280060872"><ele>1332.0</ele><time>2026-05-02T14:22:04Z</time></trkpt><trkpt lat="46.191939644458714" lon="11.896844195499636"><ele>1332.0</ele><time>2026-05-02T14:22:05Z</time></trkpt><trkpt lat="46.19198260531714" lon="11.896739455766106"><ele>1332.0</ele><time>2026-05-02T14:22:06Z</time></trkpt><trkpt lat="46.19201817136239" lon="11.896654281459156"><ele>1332.0</ele><time>2026-05-02T14:22:07Z</time></trkpt><trkpt lat="46.19212892541461" lon="11.896656593890508"><ele>1332.0</ele><time>2026-05-02T14:22:09Z</time></trkpt><trkpt lat="46.192108127092695" lon="11.896891241946307"><ele>1332.0</ele><time>2026-05-02T14:22:11Z</time></trkpt><trkpt lat="46.192092183910795" lon="11.897065254281717"><ele>1332.0</ele><time>2026-05-02T14:22:12Z</time></trkpt><trkpt lat="46.192094393155486" lon="11.897267831480994"><ele>1332.0</ele><time>2026-05-02T14:22:13Z</time></trkpt><trkpt lat="46.1920807721854" lon="11.89749279708649"><ele>1332.0</ele><time>2026-05-02T14:22:14Z</time></trkpt><trkpt lat="46.192078254841554" lon="11.897736597189411"><ele>1334.6666666666667</ele><time>2026-05-02T14:22:15Z</time></trkpt><trkpt lat="46.192092161410706" lon="11.89797487214384"><ele>1337.3333333333335</ele><time>2026-05-02T14:22:16Z</time></trkpt><trkpt lat="46.19211373147658" lon="11.898222377425942"><ele>1340.0</ele><time>2026-05-02T14:22:17Z</time></trkpt><trkpt lat="46.192137764091925" lon="11.898498740256798"><ele>1343.6666666666667</ele><time>2026-05-02T14:22:18Z</time></trkpt><trkpt lat="46.19216102407206" lon="11.898788403345261"><ele>1347.3333333333333</ele><time>2026-05-02T14:22:19Z</time></trkpt><trkpt lat="46.192185650593636" lon="11.899088465901658"><ele>1351.0</ele><time>2026-05-02T14:22:20Z</time></trkpt><trkpt lat="46.192203358874" lon="11.899349375997378"><ele>1354.0</ele><time>2026-05-02T14:22:21Z</time></trkpt><trkpt lat="46.19221784378175" lon="11.899609435127752"><ele>1357.0</ele><time>2026-05-02T14:22:22Z</time></trkpt><trkpt lat="46.19223860957676" lon="11.899833252168813"><ele>1360.0</ele><time>2026-05-02T14:22:23Z</time></trkpt><trkpt lat="46.19227226238742" lon="11.900047801684819"><ele>1358.3333333333333</ele><time>2026-05-02T14:22:24Z</time></trkpt><trkpt lat="46.19231699960261" lon="11.90027579613259"><ele>1356.6666666666667</ele><time>2026-05-02T14:22:25Z</time></trkpt><trkpt lat="46.192388776888414" lon="11.900517061619878"><ele>1355.0</ele><time>2026-05-02T14:22:26Z</time></trkpt><trkpt lat="46.192441855528976" lon="11.900757450770161"><ele>1355.3333333333335</ele><time>2026-05-02T14:22:27Z</time></trkpt><trkpt lat="46.19248770964367" lon="11.900988153336035"><ele>1355.6666666666667</ele><time>2026-05-02T14:22:28Z</time></trkpt><trkpt lat="46.1925082619008" lon="11.901241786730735"><ele>1356.0</ele><time>2026-05-02T14:22:29Z</time></trkpt><trkpt lat="46.1925278251816" lon="11.901491302443821"><ele>1357.6666666666667</ele><time>2026-05-02T14:22:30Z</time></trkpt><trkpt lat="46.1925607010012" lon="11.901748816697008"><ele>1359.3333333333335</ele><time>2026-05-02T14:22:31Z</time></trkpt><trkpt lat="46.1925721255448" lon="11.901983178607514"><ele>1361.0</ele><time>2026-05-02T14:22:32Z</time></trkpt><trkpt lat="46.192587325793816" lon="11.902218806384385"><ele>1361.0</ele><time>2026-05-02T14:22:33Z</time></trkpt><trkpt lat="46.19260786452938" lon="11.902443315188203"><ele>1361.0</ele><time>2026-05-02T14:22:34Z</time></trkpt><trkpt lat="46.19263150259316" lon="11.902662666612779"><ele>1361.0</ele><time>2026-05-02T14:22:35Z</time></trkpt><trkpt lat="46.19265790689103" lon="11.902871966562959"><ele>1362.25</ele><time>2026-05-02T14:22:36Z</time></trkpt><trkpt lat="46.19268653478444" lon="11.903084158685044"><ele>1363.5</ele><time>2026-05-02T14:22:37Z</time></trkpt><trkpt lat="46.1927210973549" lon="11.903287347434349"><ele>1364.75</ele><time>2026-05-02T14:22:38Z</time></trkpt><trkpt lat="46.19275433960748" lon="11.903495145674833"><ele>1366.0</ele><time>2026-05-02T14:22:39Z</time></trkpt><trkpt lat="46.192785940698926" lon="11.9037001900139"><ele>1368.5</ele><time>2026-05-02T14:22:40Z</time></trkpt><trkpt lat="46.19281376220781" lon="11.903889938988852"><ele>1371.0</ele><time>2026-05-02T14:22:41Z</time></trkpt><trkpt lat="46.19283718870188" lon="11.904054340944251"><ele>1373.5</ele><time>2026-05-02T14:22:42Z</time></trkpt><trkpt lat="46.19285822677888" lon="11.904198005346746"><ele>1376.0</ele><time>2026-05-02T14:22:43Z</time></trkpt><trkpt lat="46.192877358986294" lon="11.904357582025607"><ele>1379.75</ele><time>2026-05-02T14:22:44Z</time></trkpt><trkpt lat="46.19290306322433" lon="11.90454062583494"><ele>1383.5</ele><time>2026-05-02T14:22:45Z</time></trkpt><trkpt lat="46.19292784339949" lon="11.904734962103033"><ele>1387.25</ele><time>2026-05-02T14:22:46Z</time></trkpt><trkpt lat="46.19295627376086" lon="11.904926816156474"><ele>1391.0</ele><time>2026-05-02T14:22:47Z</time></trkpt><trkpt lat="46.19298845106127" lon="11.90511304619486"><ele>1391.75</ele><time>2026-05-02T14:22:48Z</time></trkpt><trkpt lat="46.19301629490295" lon="11.905299457512646"><ele>1392.5</ele><time>2026-05-02T14:22:49Z</time></trkpt><trkpt lat="46.19304644968417" lon="11.905484866883588"><ele>1393.25</ele><time>2026-05-02T14:22:50Z</time></trkpt><trkpt lat="46.19307555744885" lon="11.9056640994554"><ele>1394.0</ele><time>2026-05-02T14:22:51Z</time></trkpt><trkpt lat="46.19310468398656" lon="11.905841269774719"><ele>1391.5</ele><time>2026-05-02T14:22:52Z</time></trkpt><trkpt lat="46.1931396312594" lon="11.906027976633835"><ele>1389.0</ele><time>2026-05-02T14:22:53Z</time></trkpt><trkpt lat="46.19317863231212" lon="11.906225717913498"><ele>1386.5</ele><time>2026-05-02T14:22:54Z</time></trkpt><trkpt lat="46.19321319776248" lon="11.906408903127957"><ele>1384.0</ele><time>2026-05-02T14:22:55Z</time></trkpt><trkpt lat="46.193243109305605" lon="11.906597153865109"><ele>1379.75</ele><time>2026-05-02T14:22:56Z</time></trkpt><trkpt lat="46.193267217921836" lon="11.906791510059897"><ele>1375.5</ele><time>2026-05-02T14:22:57Z</time></trkpt><trkpt lat="46.19328702604693" lon="11.90699694533335"><ele>1371.25</ele><time>2026-05-02T14:22:58Z</time></trkpt><trkpt lat="46.19330817557812" lon="11.907218341176982"><ele>1367.0</ele><time>2026-05-02T14:22:59Z</time></trkpt><trkpt lat="46.19333246168072" lon="11.90744877130822"><ele>1365.6666666666667</ele><time>2026-05-02T14:23:00Z</time></trkpt><trkpt lat="46.1933599148899" lon="11.907694199407942"><ele>1364.3333333333333</ele><time>2026-05-02T14:23:01Z</time></trkpt><trkpt lat="46.193373757973134" lon="11.907967979751058"><ele>1363.0</ele><time>2026-05-02T14:23:02Z</time></trkpt><trkpt lat="46.19340590214329" lon="11.90827520259407"><ele>1363.0</ele><time>2026-05-02T14:23:03Z</time></trkpt><trkpt lat="46.19344656427938" lon="11.90856915042384"><ele>1363.0</ele><time>2026-05-02T14:23:04Z</time></trkpt><trkpt lat="46.19347032638931" lon="11.908851326199875"><ele>1363.0</ele><time>2026-05-02T14:23:05Z</time></trkpt><trkpt lat="46.19349201915091" lon="11.909123197641753"><ele>1361.0</ele><time>2026-05-02T14:23:06Z</time></trkpt><trkpt lat="46.19350020959585" lon="11.90937657413715"><ele>1359.0</ele><time>2026-05-02T14:23:07Z</time></trkpt><trkpt lat="46.19350340048827" lon="11.909630676891778"><ele>1357.0</ele><time>2026-05-02T14:23:08Z</time></trkpt><trkpt lat="46.19350701909979" lon="11.909882079207778"><ele>1355.3333333333333</ele><time>2026-05-02T14:23:09Z</time></trkpt><trkpt lat="46.193510680000635" lon="11.910141524599428"><ele>1353.6666666666667</ele><time>2026-05-02T14:23:10Z</time></trkpt><trkpt lat="46.19352056931172" lon="11.910397615752839"><ele>1352.0</ele><time>2026-05-02T14:23:11Z</time></trkpt><trkpt lat="46.19355233157851" lon="11.9106764928114"><ele>1350.5</ele><time>2026-05-02T14:23:12Z</time></trkpt><trkpt lat="46.19361442260384" lon="11.9109855952481"><ele>1349.0</ele><time>2026-05-02T14:23:13Z</time></trkpt><trkpt lat="46.19370140392357" lon="11.91130966169037"><ele>1349.0</ele><time>2026-05-02T14:23:14Z</time></trkpt><trkpt lat="46.193772560809286" lon="11.91160983363288"><ele>1349.0</ele><time>2026-05-02T14:23:15Z</time></trkpt><trkpt lat="46.193837712643926" lon="11.911875847108346"><ele>1349.0</ele><time>2026-05-02T14:23:16Z</time></trkpt><trkpt lat="46.19389731966671" lon="11.912135630289011"><ele>1346.3333333333335</ele><time>2026-05-02T14:23:17Z</time></trkpt><trkpt lat="46.193956457364536" lon="11.912386421527565"><ele>1343.6666666666667</ele><time>2026-05-02T14:23:18Z</time></trkpt><trkpt lat="46.19401151228867" lon="11.912627261434244"><ele>1341.0</ele><time>2026-05-02T14:23:19Z</time></trkpt><trkpt lat="46.1940663565557" lon="11.912875948706489"><ele>1340.6666666666667</ele><time>2026-05-02T14:23:20Z</time></trkpt><trkpt lat="46.19412118116275" lon="11.913115725148998"><ele>1340.3333333333335</ele><time>2026-05-02T14:23:21Z</time></trkpt><trkpt lat="46.19417350410037" lon="11.913356070054288"><ele>1340.0</ele><time>2026-05-02T14:23:22Z</time></trkpt><trkpt lat="46.1941801076828" lon="11.91359451761458"><ele>1337.75</ele><time>2026-05-02T14:23:23Z</time></trkpt><trkpt lat="46.194199335843386" lon="11.913822300779755"><ele>1335.5</ele><time>2026-05-02T14:23:24Z</time></trkpt><trkpt lat="46.19419712514634" lon="11.914036666190238"><ele>1333.25</ele><time>2026-05-02T14:23:25Z</time></trkpt><trkpt lat="46.19420181884335" lon="11.9142100775471"><ele>1331.0</ele><time>2026-05-02T14:23:26Z</time></trkpt><trkpt lat="46.19420671126902" lon="11.914355465046025"><ele>1329.25</ele><time>2026-05-02T14:23:27Z</time></trkpt><trkpt lat="46.194240197152254" lon="11.914476755717411"><ele>1327.5</ele><time>2026-05-02T14:23:28Z</time></trkpt><trkpt lat="46.19430428947117" lon="11.91458623065873"><ele>1325.75</ele><time>2026-05-02T14:23:29Z</time></trkpt><trkpt lat="46.19441893087479" lon="11.914665922684534"><ele>1324.0</ele><time>2026-05-02T14:23:30Z</time></trkpt><trkpt lat="46.194575292115395" lon="11.91469425014663"><ele>1324.0</ele><time>2026-05-02T14:23:31Z</time></trkpt><trkpt lat="46.194755440976394" lon="11.914696799023547"><ele>1324.0</ele><time>2026-05-02T14:23:32Z</time></trkpt><trkpt lat="46.19494199470931" lon="11.91476534595945"><ele>1324.0</ele><time>2026-05-02T14:23:33Z</time></trkpt><trkpt lat="46.19510881542739" lon="11.91485290349788"><ele>1323.6666666666665</ele><time>2026-05-02T14:23:34Z</time></trkpt><trkpt lat="46.19526326635136" lon="11.914957486218402"><ele>1323.3333333333333</ele><time>2026-05-02T14:23:35.001Z</time></trkpt><trkpt lat="46.195408491763644" lon="11.915127583004642"><ele>1323.0</ele><time>2026-05-02T14:23:36.001Z</time></trkpt><trkpt lat="46.19555316917329" lon="11.91534298588488"><ele>1321.0</ele><time>2026-05-02T14:23:37.001Z</time></trkpt><trkpt lat="46.19568427295429" lon="11.915551744162897"><ele>1319.0</ele><time>2026-05-02T14:23:38.001Z</time></trkpt><trkpt lat="46.19580414664234" lon="11.915741761672079"><ele>1317.0</ele><time>2026-05-02T14:23:39.001Z</time></trkpt><trkpt lat="46.19591609849057" lon="11.915923301816559"><ele>1313.6666666666667</ele><time>2026-05-02T14:23:40.001Z</time></trkpt><trkpt lat="46.196015434760945" lon="11.916112140154016"><ele>1310.3333333333335</ele><time>2026-05-02T14:23:41.001Z</time></trkpt><trkpt lat="46.19609908915593" lon="11.916303598998295"><ele>1307.0</ele><time>2026-05-02T14:23:42.001Z</time></trkpt><trkpt lat="46.196181904790535" lon="11.916489485698198"><ele>1307.0</ele><time>2026-05-02T14:23:43.001Z</time></trkpt><trkpt lat="46.196264472433384" lon="11.916666140657489"><ele>1307.0</ele><time>2026-05-02T14:23:44.001Z</time></trkpt><trkpt lat="46.19634682333193" lon="11.916827673628912"><ele>1307.0</ele><time>2026-05-02T14:23:45.001Z</time></trkpt><trkpt lat="46.19643406003528" lon="11.916974472752104"><ele>1307.0</ele><time>2026-05-02T14:23:46Z</time></trkpt><trkpt lat="46.19653299031839" lon="11.917100544300375"><ele>1306.25</ele><time>2026-05-02T14:23:47Z</time></trkpt><trkpt lat="46.19663069298072" lon="11.917219489756901"><ele>1305.5</ele><time>2026-05-02T14:23:48Z</time></trkpt><trkpt lat="46.19673131005224" lon="11.917348586723016"><ele>1304.75</ele><time>2026-05-02T14:23:49Z</time></trkpt><trkpt lat="46.196842820624504" lon="11.917479505796832"><ele>1304.0</ele><time>2026-05-02T14:23:50Z</time></trkpt><trkpt lat="46.196964704425156" lon="11.917609395061925"><ele>1304.0</ele><time>2026-05-02T14:23:51Z</time></trkpt><trkpt lat="46.19709183639175" lon="11.917737416584362"><ele>1304.0</ele><time>2026-05-02T14:23:52Z</time></trkpt><trkpt lat="46.19719443532462" lon="11.917889785568127"><ele>1304.0</ele><time>2026-05-02T14:23:53Z</time></trkpt><trkpt lat="46.19729231131222" lon="11.918039634549645"><ele>1304.0</ele><time>2026-05-02T14:23:54Z</time></trkpt><trkpt lat="46.19739129178535" lon="11.918196699864474"><ele>1304.0</ele><time>2026-05-02T14:23:55Z</time></trkpt><trkpt lat="46.19746195746802" lon="11.91839155785203"><ele>1304.0</ele><time>2026-05-02T14:23:56Z</time></trkpt><trkpt lat="46.19751967212449" lon="11.9185786019897"><ele>1304.0</ele><time>2026-05-02T14:23:57Z</time></trkpt><trkpt lat="46.197566010740715" lon="11.918766950022212"><ele>1304.0</ele><time>2026-05-02T14:23:58Z</time></trkpt><trkpt lat="46.19760143749787" lon="11.918968434946615"><ele>1302.75</ele><time>2026-05-02T14:23:59Z</time></trkpt><trkpt lat="46.19763221217666" lon="11.91916241256895"><ele>1301.5</ele><time>2026-05-02T14:24:00Z</time></trkpt><trkpt lat="46.197660169365584" lon="11.91935578495085"><ele>1300.25</ele><time>2026-05-02T14:24:01Z</time></trkpt><trkpt lat="46.19767874247914" lon="11.91954812692416"><ele>1299.0</ele><time>2026-05-02T14:24:02Z</time></trkpt><trkpt lat="46.19768394983137" lon="11.91974366884821"><ele>1297.25</ele><time>2026-05-02T14:24:03Z</time></trkpt><trkpt lat="46.19766679346913" lon="11.919930420964338"><ele>1295.5</ele><time>2026-05-02T14:24:04Z</time></trkpt><trkpt lat="46.19763214593101" lon="11.920104873953557"><ele>1293.75</ele><time>2026-05-02T14:24:05Z</time></trkpt><trkpt lat="46.197571088829484" lon="11.920260378126352"><ele>1292.0</ele><time>2026-05-02T14:24:06Z</time></trkpt><trkpt lat="46.197474582382185" lon="11.920381799265202"><ele>1292.1999999999998</ele><time>2026-05-02T14:24:07Z</time></trkpt><trkpt lat="46.19736698294972" lon="11.920464657777702"><ele>1292.4</ele><time>2026-05-02T14:24:08Z</time></trkpt><trkpt lat="46.19727333645194" lon="11.92052947210425"><ele>1292.6</ele><time>2026-05-02T14:24:09Z</time></trkpt><trkpt lat="46.197224415026994" lon="11.920641061447286"><ele>1292.8000000000002</ele><time>2026-05-02T14:24:10Z</time></trkpt><trkpt lat="46.19723595588233" lon="11.920782839546323"><ele>1293.0</ele><time>2026-05-02T14:24:11Z</time></trkpt><trkpt lat="46.19729151316782" lon="11.92091036007615"><ele>1289.5</ele><time>2026-05-02T14:24:12Z</time></trkpt><trkpt lat="46.19737868913155" lon="11.920996818793913"><ele>1286.0</ele><time>2026-05-02T14:24:13Z</time></trkpt><trkpt lat="46.19749916000716" lon="11.92101731936925"><ele>1282.5</ele><time>2026-05-02T14:24:14Z</time></trkpt><trkpt lat="46.197635339794616" lon="11.920969802568102"><ele>1279.0</ele><time>2026-05-02T14:24:15Z</time></trkpt><trkpt lat="46.1977736429366" lon="11.920912349325635"><ele>1278.75</ele><time>2026-05-02T14:24:16Z</time></trkpt><trkpt lat="46.19790144949893" lon="11.920885571124701"><ele>1278.5</ele><time>2026-05-02T14:24:17Z</time></trkpt><trkpt lat="46.19802580680221" lon="11.920864849127684"><ele>1278.25</ele><time>2026-05-02T14:24:18Z</time></trkpt><trkpt lat="46.1981483869659" lon="11.920835012336758"><ele>1278.0</ele><time>2026-05-02T14:24:19Z</time></trkpt><trkpt lat="46.198269003081954" lon="11.920810196671383"><ele>1278.0</ele><time>2026-05-02T14:24:20Z</time></trkpt><trkpt lat="46.19839719231345" lon="11.920792937592308"><ele>1278.0</ele><time>2026-05-02T14:24:21Z</time></trkpt><trkpt lat="46.19854161632844" lon="11.920797130752403"><ele>1278.0</ele><time>2026-05-02T14:24:22Z</time></trkpt><trkpt lat="46.19868555251429" lon="11.920834241653836"><ele>1278.0</ele><time>2026-05-02T14:24:23Z</time></trkpt><trkpt lat="46.19882683105157" lon="11.920908023262184"><ele>1276.2</ele><time>2026-05-02T14:24:24Z</time></trkpt><trkpt lat="46.19893869141342" lon="11.920992867414054"><ele>1274.4</ele><time>2026-05-02T14:24:25Z</time></trkpt><trkpt lat="46.199023630468474" lon="11.921095025027793"><ele>1272.6000000000001</ele><time>2026-05-02T14:24:26Z</time></trkpt><trkpt lat="46.199087098743846" lon="11.921200122596016"><ele>1270.8</ele><time>2026-05-02T14:24:27Z</time></trkpt><trkpt lat="46.1991818984868" lon="11.921255512529362"><ele>1269.0</ele><time>2026-05-02T14:24:28Z</time></trkpt><trkpt lat="46.19931676146462" lon="11.92125230030001"><ele>1264.0</ele><time>2026-05-02T14:24:29Z</time></trkpt><trkpt lat="46.19949052105914" lon="11.92118462466405"><ele>1259.0</ele><time>2026-05-02T14:24:30Z</time></trkpt><trkpt lat="46.19967393745655" lon="11.921121017567856"><ele>1254.0</ele><time>2026-05-02T14:24:31Z</time></trkpt><trkpt lat="46.19984469144175" lon="11.921084064912385"><ele>1248.0</ele><time>2026-05-02T14:24:32Z</time></trkpt><trkpt lat="46.20000664586539" lon="11.921048699237488"><ele>1242.0</ele><time>2026-05-02T14:24:33Z</time></trkpt><trkpt lat="46.2001615570064" lon="11.921018984768047"><ele>1236.0</ele><time>2026-05-02T14:24:34Z</time></trkpt><trkpt lat="46.20030901533543" lon="11.920985598624815"><ele>1236.0</ele><time>2026-05-02T14:24:35Z</time></trkpt><trkpt lat="46.20045271468003" lon="11.920950023034846"><ele>1236.0</ele><time>2026-05-02T14:24:36Z</time></trkpt><trkpt lat="46.20058993107303" lon="11.920939141179781"><ele>1236.0</ele><time>2026-05-02T14:24:37Z</time></trkpt><trkpt lat="46.200705719008326" lon="11.92094864023649"><ele>1236.0</ele><time>2026-05-02T14:24:38Z</time></trkpt><trkpt lat="46.20080752390087" lon="11.920982004641298"><ele>1234.1666666666667</ele><time>2026-05-02T14:24:39Z</time></trkpt><trkpt lat="46.20089867715153" lon="11.921008051670654"><ele>1232.3333333333333</ele><time>2026-05-02T14:24:40Z</time></trkpt><trkpt lat="46.20097931004592" lon="11.920977430614492"><ele>1230.5</ele><time>2026-05-02T14:24:41Z</time></trkpt><trkpt lat="46.201055879507784" lon="11.920904698903584"><ele>1228.6666666666665</ele><time>2026-05-02T14:24:42Z</time></trkpt><trkpt lat="46.20112761713339" lon="11.920834565766443"><ele>1226.8333333333333</ele><time>2026-05-02T14:24:43Z</time></trkpt><trkpt lat="46.20121259398201" lon="11.920811714358782"><ele>1225.0</ele><time>2026-05-02T14:24:44Z</time></trkpt><trkpt lat="46.20131159932957" lon="11.920866979280843"><ele>1225.0</ele><time>2026-05-02T14:24:45Z</time></trkpt><trkpt lat="46.201429733891594" lon="11.920963192413215"><ele>1225.0</ele><time>2026-05-02T14:24:46Z</time></trkpt><trkpt lat="46.201566858069675" lon="11.921051549934166"><ele>1225.0</ele><time>2026-05-02T14:24:47Z</time></trkpt><trkpt lat="46.20170666046453" lon="11.921096276122183"><ele>1225.0</ele><time>2026-05-02T14:24:48Z</time></trkpt><trkpt lat="46.20184913570873" lon="11.921142810189211"><ele>1224.0</ele><time>2026-05-02T14:24:49Z</time></trkpt><trkpt lat="46.20199084557576" lon="11.921212992143289"><ele>1223.0</ele><time>2026-05-02T14:24:50Z</time></trkpt><trkpt lat="46.2021399260085" lon="11.921266381278773"><ele>1222.0</ele><time>2026-05-02T14:24:51Z</time></trkpt><trkpt lat="46.20229399929021" lon="11.921276507421467"><ele>1222.0</ele><time>2026-05-02T14:24:52Z</time></trkpt><trkpt lat="46.202439034763806" lon="11.921269605418942"><ele>1222.0</ele><time>2026-05-02T14:24:53Z</time></trkpt><trkpt lat="46.2025822884295" lon="11.92123628923109"><ele>1222.0</ele><time>2026-05-02T14:24:54Z</time></trkpt><trkpt lat="46.202730337053836" lon="11.921163742031124"><ele>1222.0</ele><time>2026-05-02T14:24:55Z</time></trkpt><trkpt lat="46.20287217728462" lon="11.92110102571731"><ele>1222.0</ele><time>2026-05-02T14:24:56Z</time></trkpt><trkpt lat="46.20301176010512" lon="11.921044105984757"><ele>1222.0</ele><time>2026-05-02T14:24:57Z</time></trkpt><trkpt lat="46.20314880643014" lon="11.920984471786156"><ele>1222.0</ele><time>2026-05-02T14:24:58Z</time></trkpt><trkpt lat="46.203279858617" lon="11.920929792289147"><ele>1222.0</ele><time>2026-05-02T14:24:59Z</time></trkpt><trkpt lat="46.20339849542151" lon="11.92087999792419"><ele>1226.0</ele><time>2026-05-02T14:25:00Z</time></trkpt><trkpt lat="46.203508403557564" lon="11.92083317883451"><ele>1230.0</ele><time>2026-05-02T14:25:01Z</time></trkpt><trkpt lat="46.20362083077973" lon="11.92077655982811"><ele>1234.0</ele><time>2026-05-02T14:25:02Z</time></trkpt><trkpt lat="46.20372691692318" lon="11.920695860164997"><ele>1238.0</ele><time>2026-05-02T14:25:03Z</time></trkpt><trkpt lat="46.203816413500164" lon="11.920597869032697"><ele>1238.0</ele><time>2026-05-02T14:25:04Z</time></trkpt><trkpt lat="46.20390052444923" lon="11.920506769035343"><ele>1238.0</ele><time>2026-05-02T14:25:05Z</time></trkpt><trkpt lat="46.2039857615436" lon="11.920414209673158"><ele>1238.0</ele><time>2026-05-02T14:25:06Z</time></trkpt><trkpt lat="46.20405176746868" lon="11.920343361422882"><ele>1238.0</ele><time>2026-05-02T14:25:07Z</time></trkpt><trkpt lat="46.20410509037526" lon="11.920292155735607"><ele>1238.0</ele><time>2026-05-02T14:25:08Z</time></trkpt><trkpt lat="46.204148081337095" lon="11.920405694627748"><ele>1238.0</ele><time>2026-05-02T14:25:11Z</time></trkpt><trkpt lat="46.20407027476553" lon="11.920487000969686"><ele>1238.0</ele><time>2026-05-02T14:25:12Z</time></trkpt><trkpt lat="46.20396871251336" lon="11.920594921215319"><ele>1238.0</ele><time>2026-05-02T14:25:13Z</time></trkpt><trkpt lat="46.20384628873167" lon="11.920721205391295"><ele>1238.0</ele><time>2026-05-02T14:25:14Z</time></trkpt><trkpt lat="46.20371235015154" lon="11.92085778746513"><ele>1238.0</ele><time>2026-05-02T14:25:15Z</time></trkpt><trkpt lat="46.203578280689996" lon="11.920993642349805"><ele>1232.6666666666667</ele><time>2026-05-02T14:25:16Z</time></trkpt><trkpt lat="46.203427036333224" lon="11.921148880315853"><ele>1227.3333333333333</ele><time>2026-05-02T14:25:17Z</time></trkpt><trkpt lat="46.203275156962285" lon="11.921302423062167"><ele>1222.0</ele><time>2026-05-02T14:25:18Z</time></trkpt><trkpt lat="46.203132444468196" lon="11.921447687743864"><ele>1222.0</ele><time>2026-05-02T14:25:19Z</time></trkpt><trkpt lat="46.202990183159244" lon="11.921594164828019"><ele>1222.0</ele><time>2026-05-02T14:25:20Z</time></trkpt><trkpt lat="46.20286506745493" lon="11.92170771833532"><ele>1222.0</ele><time>2026-05-02T14:25:21Z</time></trkpt><trkpt lat="46.202760291004026" lon="11.921764757578067"><ele>1222.0</ele><time>2026-05-02T14:25:22Z</time></trkpt><trkpt lat="46.202634773381206" lon="11.92183003642792"><ele>1214.5</ele><time>2026-05-02T14:25:23Z</time></trkpt><trkpt lat="46.20251469002922" lon="11.921896028994768"><ele>1207.0</ele><time>2026-05-02T14:25:24Z</time></trkpt><trkpt lat="46.2024054375324" lon="11.921956068736186"><ele>1199.5</ele><time>2026-05-02T14:25:25Z</time></trkpt><trkpt lat="46.20227174198174" lon="11.922029532372465"><ele>1192.0</ele><time>2026-05-02T14:25:26Z</time></trkpt><trkpt lat="46.202123842284436" lon="11.922104536763651"><ele>1192.0</ele><time>2026-05-02T14:25:27Z</time></trkpt><trkpt lat="46.20199158954835" lon="11.92216956968284"><ele>1192.0</ele><time>2026-05-02T14:25:28Z</time></trkpt><trkpt lat="46.20188771697589" lon="11.92222612992381"><ele>1192.0</ele><time>2026-05-02T14:25:29Z</time></trkpt><trkpt lat="46.201805952458585" lon="11.9222812223741"><ele>1192.0</ele><time>2026-05-02T14:25:30Z</time></trkpt><trkpt lat="46.2017423739626" lon="11.922348954598812"><ele>1192.0</ele><time>2026-05-02T14:25:31Z</time></trkpt><trkpt lat="46.20171155115938" lon="11.922430691112346"><ele>1192.0</ele><time>2026-05-02T14:25:32Z</time></trkpt><trkpt lat="46.2017608719514" lon="11.92255989735042"><ele>1192.0</ele><time>2026-05-02T14:25:34Z</time></trkpt><trkpt lat="46.2018676867184" lon="11.922596441004575"><ele>1192.0</ele><time>2026-05-02T14:25:35Z</time></trkpt><trkpt lat="46.20199481902138" lon="11.922607418568981"><ele>1192.0</ele><time>2026-05-02T14:25:36Z</time></trkpt><trkpt lat="46.202146967253825" lon="11.92261155775278"><ele>1185.6666666666665</ele><time>2026-05-02T14:25:37Z</time></trkpt><trkpt lat="46.20229320072908" lon="11.922619673344075"><ele>1179.3333333333333</ele><time>2026-05-02T14:25:38Z</time></trkpt><trkpt lat="46.20245048549741" lon="11.922637543446593"><ele>1173.0</ele><time>2026-05-02T14:25:39Z</time></trkpt><trkpt lat="46.202636100667476" lon="11.922672878569735"><ele>1170.3333333333333</ele><time>2026-05-02T14:25:40Z</time></trkpt><trkpt lat="46.20281718359996" lon="11.922702633678146"><ele>1167.6666666666665</ele><time>2026-05-02T14:25:41.001Z</time></trkpt><trkpt lat="46.2029899213547" lon="11.922729670011245"><ele>1165.0</ele><time>2026-05-02T14:25:42.001Z</time></trkpt><trkpt lat="46.203157249470344" lon="11.922757865116985"><ele>1161.25</ele><time>2026-05-02T14:25:43.001Z</time></trkpt><trkpt lat="46.20331725175492" lon="11.922787793799762"><ele>1157.5</ele><time>2026-05-02T14:25:44.001Z</time></trkpt><trkpt lat="46.20345629948323" lon="11.922794785584475"><ele>1153.75</ele><time>2026-05-02T14:25:45.001Z</time></trkpt><trkpt lat="46.203579373337426" lon="11.922774196796205"><ele>1150.0</ele><time>2026-05-02T14:25:46.001Z</time></trkpt><trkpt lat="46.20369056674211" lon="11.922723968899604"><ele>1150.0</ele><time>2026-05-02T14:25:47.001Z</time></trkpt><trkpt lat="46.20378713918271" lon="11.922604561286576"><ele>1150.0</ele><time>2026-05-02T14:25:48.001Z</time></trkpt><trkpt lat="46.203887157025996" lon="11.922441004234075"><ele>1150.0</ele><time>2026-05-02T14:25:49.001Z</time></trkpt><trkpt lat="46.203966929109875" lon="11.922257160188169"><ele>1150.0</ele><time>2026-05-02T14:25:50.001Z</time></trkpt><trkpt lat="46.20403212292925" lon="11.922106707159884"><ele>1150.8</ele><time>2026-05-02T14:25:51.001Z</time></trkpt><trkpt lat="46.20408600834519" lon="11.92197669201236"><ele>1151.6</ele><time>2026-05-02T14:25:52.001Z</time></trkpt><trkpt lat="46.204135473928936" lon="11.921879414088751"><ele>1152.4</ele><time>2026-05-02T14:25:53.001Z</time></trkpt><trkpt lat="46.20421889587296" lon="11.921872593803606"><ele>1153.2</ele><time>2026-05-02T14:25:54.001Z</time></trkpt><trkpt lat="46.20429784056966" lon="11.921916714152049"><ele>1154.0</ele><time>2026-05-02T14:25:55.001Z</time></trkpt><trkpt lat="46.20437227282283" lon="11.922032301416513"><ele>1154.0</ele><time>2026-05-02T14:25:56.001Z</time></trkpt><trkpt lat="46.20448408073754" lon="11.922157505658934"><ele>1154.0</ele><time>2026-05-02T14:25:57.001Z</time></trkpt><trkpt lat="46.20461662145219" lon="11.922268775319449"><ele>1154.0</ele><time>2026-05-02T14:25:58.001Z</time></trkpt><trkpt lat="46.20475332446704" lon="11.922374649766574"><ele>1156.0</ele><time>2026-05-02T14:25:59.001Z</time></trkpt><trkpt lat="46.204859464311454" lon="11.922514606716868"><ele>1158.0</ele><time>2026-05-02T14:26:00.001Z</time></trkpt><trkpt lat="46.204941685419826" lon="11.922670236869218"><ele>1160.0</ele><time>2026-05-02T14:26:01.001Z</time></trkpt><trkpt lat="46.205000696571766" lon="11.922836854223233"><ele>1162.0</ele><time>2026-05-02T14:26:02.001Z</time></trkpt><trkpt lat="46.20503357022183" lon="11.922998748803293"><ele>1157.6</ele><time>2026-05-02T14:26:03.001Z</time></trkpt><trkpt lat="46.20502246161332" lon="11.92315275723224"><ele>1153.2</ele><time>2026-05-02T14:26:04.001Z</time></trkpt><trkpt lat="46.20504015664819" lon="11.923304697233645"><ele>1148.8</ele><time>2026-05-02T14:26:05.001Z</time></trkpt><trkpt lat="46.205092552322114" lon="11.923433451215177"><ele>1144.4</ele><time>2026-05-02T14:26:06.001Z</time></trkpt><trkpt lat="46.205184714122254" lon="11.923552003444987"><ele>1140.0</ele><time>2026-05-02T14:26:07.001Z</time></trkpt><trkpt lat="46.205317288771724" lon="11.923629029564966"><ele>1137.4</ele><time>2026-05-02T14:26:08.001Z</time></trkpt><trkpt lat="46.20543134517984" lon="11.923653558975724"><ele>1134.8</ele><time>2026-05-02T14:26:09Z</time></trkpt><trkpt lat="46.205528448702545" lon="11.923694577949377"><ele>1132.2</ele><time>2026-05-02T14:26:10Z</time></trkpt><trkpt lat="46.20560328114942" lon="11.923800367019929"><ele>1129.6</ele><time>2026-05-02T14:26:11Z</time></trkpt><trkpt lat="46.20561883624189" lon="11.92395525813281"><ele>1127.0</ele><time>2026-05-02T14:26:12Z</time></trkpt><trkpt lat="46.20558356922816" lon="11.92407088966213"><ele>1127.0</ele><time>2026-05-02T14:26:13Z</time></trkpt><trkpt lat="46.20552092211973" lon="11.924111665791798"><ele>1127.0</ele><time>2026-05-02T14:26:14Z</time></trkpt><trkpt lat="46.20543563586843" lon="11.924094119826158"><ele>1127.0</ele><time>2026-05-02T14:26:15Z</time></trkpt><trkpt lat="46.205335804003376" lon="11.924145822221567"><ele>1127.0</ele><time>2026-05-02T14:26:16Z</time></trkpt><trkpt lat="46.205224753286465" lon="11.924190164185806"><ele>1127.0</ele><time>2026-05-02T14:26:17Z</time></trkpt><trkpt lat="46.205093533479186" lon="11.924200736528721"><ele>1126.25</ele><time>2026-05-02T14:26:18Z</time></trkpt><trkpt lat="46.20499065333178" lon="11.924237605471298"><ele>1125.5</ele><time>2026-05-02T14:26:19Z</time></trkpt><trkpt lat="46.20489744362178" lon="11.924327450692479"><ele>1124.75</ele><time>2026-05-02T14:26:20Z</time></trkpt><trkpt lat="46.20484764501692" lon="11.924500477902686"><ele>1124.0</ele><time>2026-05-02T14:26:21Z</time></trkpt><trkpt lat="46.20481128832221" lon="11.924659150015867"><ele>1121.8</ele><time>2026-05-02T14:26:22Z</time></trkpt><trkpt lat="46.20478303800958" lon="11.924824839919548"><ele>1119.6000000000001</ele><time>2026-05-02T14:26:23Z</time></trkpt><trkpt lat="46.20476036750083" lon="11.924973672650234"><ele>1117.4</ele><time>2026-05-02T14:26:24Z</time></trkpt><trkpt lat="46.20476230722326" lon="11.925119040678721"><ele>1115.2</ele><time>2026-05-02T14:26:25Z</time></trkpt><trkpt lat="46.20480190979145" lon="11.925265460614362"><ele>1113.0</ele><time>2026-05-02T14:26:26Z</time></trkpt><trkpt lat="46.20484860558897" lon="11.925438408438257"><ele>1113.0</ele><time>2026-05-02T14:26:27Z</time></trkpt><trkpt lat="46.20491519549232" lon="11.925587412665159"><ele>1113.0</ele><time>2026-05-02T14:26:28Z</time></trkpt><trkpt lat="46.20498949227152" lon="11.925711865180734"><ele>1113.0</ele><time>2026-05-02T14:26:29Z</time></trkpt><trkpt lat="46.205049659566946" lon="11.925861331109175"><ele>1113.0</ele><time>2026-05-02T14:26:30Z</time></trkpt><trkpt lat="46.20511556915195" lon="11.926005274518648"><ele>1112.6</ele><time>2026-05-02T14:26:31Z</time></trkpt><trkpt lat="46.205171013697225" lon="11.926136473194298"><ele>1112.1999999999998</ele><time>2026-05-02T14:26:32Z</time></trkpt><trkpt lat="46.20522385865146" lon="11.926254067570056"><ele>1111.8</ele><time>2026-05-02T14:26:33Z</time></trkpt><trkpt lat="46.20527326771028" lon="11.926363396643023"><ele>1111.3999999999999</ele><time>2026-05-02T14:26:34Z</time></trkpt><trkpt lat="46.205322328239255" lon="11.926481883364138"><ele>1111.0</ele><time>2026-05-02T14:26:35Z</time></trkpt><trkpt lat="46.20538102854382" lon="11.926618301944496"><ele>1110.2</ele><time>2026-05-02T14:26:36Z</time></trkpt><trkpt lat="46.20543750928092" lon="11.926749487841922"><ele>1109.3999999999999</ele><time>2026-05-02T14:26:37Z</time></trkpt><trkpt lat="46.20549727645475" lon="11.926881356146133"><ele>1108.6</ele><time>2026-05-02T14:26:38Z</time></trkpt><trkpt lat="46.2055518557631" lon="11.927002096236249"><ele>1107.8</ele><time>2026-05-02T14:26:39Z</time></trkpt><trkpt lat="46.20560280282422" lon="11.92711951361304"><ele>1107.0</ele><time>2026-05-02T14:26:40Z</time></trkpt><trkpt lat="46.20565899095598" lon="11.927233896740367"><ele>1109.75</ele><time>2026-05-02T14:26:41Z</time></trkpt><trkpt lat="46.20574001325798" lon="11.92734021297113"><ele>1112.5</ele><time>2026-05-02T14:26:42Z</time></trkpt><trkpt lat="46.20585808190379" lon="11.927421185371557"><ele>1115.25</ele><time>2026-05-02T14:26:43Z</time></trkpt><trkpt lat="46.205986762032694" lon="11.92745802437081"><ele>1118.0</ele><time>2026-05-02T14:26:44Z</time></trkpt><trkpt lat="46.206098997993145" lon="11.927496668641876"><ele>1118.0</ele><time>2026-05-02T14:26:45Z</time></trkpt><trkpt lat="46.20619979282521" lon="11.927534204374322"><ele>1118.0</ele><time>2026-05-02T14:26:46Z</time></trkpt><trkpt lat="46.20631048120112" lon="11.92754994805478"><ele>1118.0</ele><time>2026-05-02T14:26:47Z</time></trkpt><trkpt lat="46.20643060527671" lon="11.927524687188935"><ele>1118.0</ele><time>2026-05-02T14:26:48Z</time></trkpt><trkpt lat="46.206536629978814" lon="11.927491513045602"><ele>1118.0</ele><time>2026-05-02T14:26:49Z</time></trkpt><trkpt lat="46.206633219271936" lon="11.927457480735736"><ele>1118.8</ele><time>2026-05-02T14:26:50Z</time></trkpt><trkpt lat="46.20673047085081" lon="11.927422266165188"><ele>1119.6</ele><time>2026-05-02T14:26:51Z</time></trkpt><trkpt lat="46.20682605232749" lon="11.927392365131753"><ele>1120.4</ele><time>2026-05-02T14:26:52Z</time></trkpt><trkpt lat="46.20692116027743" lon="11.927367952220509"><ele>1121.2</ele><time>2026-05-02T14:26:53Z</time></trkpt><trkpt lat="46.20701497381307" lon="11.927340868020817"><ele>1122.0</ele><time>2026-05-02T14:26:54Z</time></trkpt><trkpt lat="46.20710503713439" lon="11.92731953347768"><ele>1122.0</ele><time>2026-05-02T14:26:55Z</time></trkpt><trkpt lat="46.20718552916375" lon="11.927311287387083"><ele>1122.0</ele><time>2026-05-02T14:26:56Z</time></trkpt><trkpt lat="46.20725063026627" lon="11.927363465250197"><ele>1122.0</ele><time>2026-05-02T14:26:57Z</time></trkpt><trkpt lat="46.207296820336246" lon="11.927468314200665"><ele>1122.0</ele><time>2026-05-02T14:26:58Z</time></trkpt><trkpt lat="46.20731915403449" lon="11.927580777322454"><ele>1122.0</ele><time>2026-05-02T14:26:59Z</time></trkpt><trkpt lat="46.20733946933939" lon="11.927674540394314"><ele>1122.0</ele><time>2026-05-02T14:27:00Z</time></trkpt><trkpt lat="46.20736265764313" lon="11.927760752666213"><ele>1120.6</ele><time>2026-05-02T14:27:01Z</time></trkpt><trkpt lat="46.207424638964575" lon="11.927912097045079"><ele>1119.2</ele><time>2026-05-02T14:27:03Z</time></trkpt><trkpt lat="46.207485790929184" lon="11.928052747657546"><ele>1117.8</ele><time>2026-05-02T14:27:05Z</time></trkpt><trkpt lat="46.20759175603036" lon="11.92813161177127"><ele>1116.4</ele><time>2026-05-02T14:27:07Z</time></trkpt><trkpt lat="46.207657910749596" lon="11.928070676646115"><ele>1115.0</ele><time>2026-05-02T14:27:08Z</time></trkpt><trkpt lat="46.207720628997876" lon="11.927984061612724"><ele>1115.0</ele><time>2026-05-02T14:27:09Z</time></trkpt><trkpt lat="46.20778941379174" lon="11.92789695650676"><ele>1115.0</ele><time>2026-05-02T14:27:10Z</time></trkpt><trkpt lat="46.20785753779016" lon="11.92781930757035"><ele>1115.0</ele><time>2026-05-02T14:27:11Z</time></trkpt><trkpt lat="46.20791963343434" lon="11.92773886426504"><ele>1115.0</ele><time>2026-05-02T14:27:12Z</time></trkpt><trkpt lat="46.20798396270124" lon="11.927663596664248"><ele>1115.0</ele><time>2026-05-02T14:27:13Z</time></trkpt><trkpt lat="46.20805524015726" lon="11.927598110961963"><ele>1115.0</ele><time>2026-05-02T14:27:14Z</time></trkpt><trkpt lat="46.20813463535281" lon="11.92755288784967"><ele>1114.6</ele><time>2026-05-02T14:27:15Z</time></trkpt><trkpt lat="46.20822326026743" lon="11.92752169470269"><ele>1114.2</ele><time>2026-05-02T14:27:16Z</time></trkpt><trkpt lat="46.20832522918606" lon="11.927531637783522"><ele>1113.8</ele><time>2026-05-02T14:27:17Z</time></trkpt><trkpt lat="46.208434374111924" lon="11.927545969401347"><ele>1113.4</ele><time>2026-05-02T14:27:18Z</time></trkpt><trkpt lat="46.20852203670622" lon="11.927544087812125"><ele>1113.0</ele><time>2026-05-02T14:27:19Z</time></trkpt><trkpt lat="46.208592205703944" lon="11.927563195794153"><ele>1113.0</ele><time>2026-05-02T14:27:20Z</time></trkpt><trkpt lat="46.20865568512657" lon="11.927609842517919"><ele>1113.0</ele><time>2026-05-02T14:27:21Z</time></trkpt><trkpt lat="46.20873812506146" lon="11.927630746461075"><ele>1113.0</ele><time>2026-05-02T14:27:22Z</time></trkpt><trkpt lat="46.208833667302876" lon="11.927676314380253"><ele>1113.0</ele><time>2026-05-02T14:27:23Z</time></trkpt><trkpt lat="46.20890260811241" lon="11.927753161776355"><ele>1113.0</ele><time>2026-05-02T14:27:24Z</time></trkpt><trkpt lat="46.20898994805252" lon="11.92790187651242"><ele>1114.6</ele><time>2026-05-02T14:27:25Z</time></trkpt><trkpt lat="46.209052247528305" lon="11.928033003758385"><ele>1116.1999999999998</ele><time>2026-05-02T14:27:26Z</time></trkpt><trkpt lat="46.20910108842742" lon="11.928155883438006"><ele>1117.8</ele><time>2026-05-02T14:27:27Z</time></trkpt><trkpt lat="46.20914453555526" lon="11.92829541048365"><ele>1119.3999999999999</ele><time>2026-05-02T14:27:28Z</time></trkpt><trkpt lat="46.20919523688025" lon="11.928411590353267"><ele>1121.0</ele><time>2026-05-02T14:27:29Z</time></trkpt><trkpt lat="46.209236258154256" lon="11.928540599347366"><ele>1121.75</ele><time>2026-05-02T14:27:30Z</time></trkpt><trkpt lat="46.20927384867265" lon="11.92868117338188"><ele>1122.5</ele><time>2026-05-02T14:27:31Z</time></trkpt><trkpt lat="46.20930210989503" lon="11.92883568717786"><ele>1123.25</ele><time>2026-05-02T14:27:32Z</time></trkpt><trkpt lat="46.20929797910612" lon="11.929028398141368"><ele>1124.0</ele><time>2026-05-02T14:27:33Z</time></trkpt><trkpt lat="46.209244055715835" lon="11.92923793140366"><ele>1126.25</ele><time>2026-05-02T14:27:34Z</time></trkpt><trkpt lat="46.209177117387455" lon="11.929440035245545"><ele>1128.5</ele><time>2026-05-02T14:27:35Z</time></trkpt><trkpt lat="46.20910943028214" lon="11.929638219638647"><ele>1130.75</ele><time>2026-05-02T14:27:36Z</time></trkpt><trkpt lat="46.20905638706808" lon="11.929809646624634"><ele>1133.0</ele><time>2026-05-02T14:27:37Z</time></trkpt><trkpt lat="46.209005185501475" lon="11.929983510048114"><ele>1129.75</ele><time>2026-05-02T14:27:38Z</time></trkpt><trkpt lat="46.20895279098583" lon="11.930158813511753"><ele>1126.5</ele><time>2026-05-02T14:27:39Z</time></trkpt><trkpt lat="46.208893388675264" lon="11.93033200977551"><ele>1123.25</ele><time>2026-05-02T14:27:40Z</time></trkpt><trkpt lat="46.20882576941189" lon="11.93051425441188"><ele>1120.0</ele><time>2026-05-02T14:27:41Z</time></trkpt><trkpt lat="46.20876224839697" lon="11.93070532164678"><ele>1122.6666666666665</ele><time>2026-05-02T14:27:42Z</time></trkpt><trkpt lat="46.20869916554137" lon="11.930901244318385"><ele>1125.3333333333333</ele><time>2026-05-02T14:27:43Z</time></trkpt><trkpt lat="46.20864949133502" lon="11.931108501803788"><ele>1128.0</ele><time>2026-05-02T14:27:44Z</time></trkpt><trkpt lat="46.20861083183935" lon="11.931326741229393"><ele>1128.0</ele><time>2026-05-02T14:27:45Z</time></trkpt><trkpt lat="46.20857403389333" lon="11.931548464742669"><ele>1128.0</ele><time>2026-05-02T14:27:46Z</time></trkpt><trkpt lat="46.208539806176894" lon="11.931763970555654"><ele>1128.0</ele><time>2026-05-02T14:27:47.001Z</time></trkpt><trkpt lat="46.20850944479794" lon="11.931984095500777"><ele>1131.0</ele><time>2026-05-02T14:27:48.001Z</time></trkpt><trkpt lat="46.208481132543156" lon="11.93219722362382"><ele>1134.0</ele><time>2026-05-02T14:27:49.001Z</time></trkpt><trkpt lat="46.20845317927393" lon="11.932411034320822"><ele>1137.0</ele><time>2026-05-02T14:27:50.001Z</time></trkpt><trkpt lat="46.20842223316406" lon="11.932624022040324"><ele>1140.0</ele><time>2026-05-02T14:27:51.001Z</time></trkpt><trkpt lat="46.20839144651276" lon="11.932836046574582"><ele>1143.0</ele><time>2026-05-02T14:27:52.001Z</time></trkpt><trkpt lat="46.2083654094389" lon="11.933046057877283"><ele>1146.0</ele><time>2026-05-02T14:27:53.001Z</time></trkpt><trkpt lat="46.20833514201576" lon="11.933246852221933"><ele>1149.0</ele><time>2026-05-02T14:27:54.001Z</time></trkpt><trkpt lat="46.2083080699363" lon="11.933441527317648"><ele>1151.5</ele><time>2026-05-02T14:27:55.001Z</time></trkpt><trkpt lat="46.20827659421609" lon="11.933634732970386"><ele>1154.0</ele><time>2026-05-02T14:27:56.001Z</time></trkpt><trkpt lat="46.2082506405528" lon="11.933826536480087"><ele>1156.5</ele><time>2026-05-02T14:27:57.001Z</time></trkpt><trkpt lat="46.208226974644234" lon="11.934017244826933"><ele>1159.0</ele><time>2026-05-02T14:27:58.001Z</time></trkpt><trkpt lat="46.20819803749003" lon="11.934217793533008"><ele>1162.25</ele><time>2026-05-02T14:27:59.001Z</time></trkpt><trkpt lat="46.20817630587409" lon="11.934409682989655"><ele>1165.5</ele><time>2026-05-02T14:28:00.001Z</time></trkpt><trkpt lat="46.208154302825186" lon="11.9346007780392"><ele>1168.75</ele><time>2026-05-02T14:28:01.001Z</time></trkpt><trkpt lat="46.208129506446824" lon="11.934798707102631"><ele>1172.0</ele><time>2026-05-02T14:28:02.001Z</time></trkpt><trkpt lat="46.20810157472526" lon="11.935001766997214"><ele>1166.0</ele><time>2026-05-02T14:28:03.001Z</time></trkpt><trkpt lat="46.20807154548819" lon="11.935211457549885"><ele>1160.0</ele><time>2026-05-02T14:28:04.001Z</time></trkpt><trkpt lat="46.208025182129404" lon="11.935419667840852"><ele>1154.0</ele><time>2026-05-02T14:28:05.001Z</time></trkpt><trkpt lat="46.20799789993944" lon="11.93561697491444"><ele>1148.0</ele><time>2026-05-02T14:28:06.001Z</time></trkpt><trkpt lat="46.20797207724751" lon="11.935805126249965"><ele>1150.25</ele><time>2026-05-02T14:28:07.001Z</time></trkpt><trkpt lat="46.20793610832479" lon="11.936000637503618"><ele>1152.5</ele><time>2026-05-02T14:28:08.001Z</time></trkpt><trkpt lat="46.20788730530877" lon="11.936197658441596"><ele>1154.75</ele><time>2026-05-02T14:28:09.001Z</time></trkpt><trkpt lat="46.20783277109439" lon="11.93640331318936"><ele>1157.0</ele><time>2026-05-02T14:28:10.001Z</time></trkpt><trkpt lat="46.20773227734123" lon="11.936568560410118"><ele>1159.75</ele><time>2026-05-02T14:28:11Z</time></trkpt><trkpt lat="46.207645297610014" lon="11.936748014625826"><ele>1162.5</ele><time>2026-05-02T14:28:12Z</time></trkpt><trkpt lat="46.20755443650022" lon="11.93691845063723"><ele>1165.25</ele><time>2026-05-02T14:28:13Z</time></trkpt><trkpt lat="46.207459338301135" lon="11.937058144471228"><ele>1168.0</ele><time>2026-05-02T14:28:14Z</time></trkpt><trkpt lat="46.20738277724428" lon="11.937197735022487"><ele>1164.25</ele><time>2026-05-02T14:28:15Z</time></trkpt><trkpt lat="46.20730336192127" lon="11.937342530315664"><ele>1160.5</ele><time>2026-05-02T14:28:16Z</time></trkpt><trkpt lat="46.2072340335583" lon="11.937491382088856"><ele>1156.75</ele><time>2026-05-02T14:28:17Z</time></trkpt><trkpt lat="46.20715576393143" lon="11.937617833788831"><ele>1153.0</ele><time>2026-05-02T14:28:18Z</time></trkpt><trkpt lat="46.207082366189354" lon="11.937731611967914"><ele>1153.0</ele><time>2026-05-02T14:28:19Z</time></trkpt><trkpt lat="46.20701441736869" lon="11.93785406175078"><ele>1153.0</ele><time>2026-05-02T14:28:20Z</time></trkpt><trkpt lat="46.20695355648313" lon="11.938011812255603"><ele>1153.0</ele><time>2026-05-02T14:28:21Z</time></trkpt><trkpt lat="46.20687890438835" lon="11.938186335668858"><ele>1153.0</ele><time>2026-05-02T14:28:22Z</time></trkpt><trkpt lat="46.20680757174072" lon="11.938357375794723"><ele>1155.75</ele><time>2026-05-02T14:28:23Z</time></trkpt><trkpt lat="46.20675173766434" lon="11.938524619420262"><ele>1158.5</ele><time>2026-05-02T14:28:24Z</time></trkpt><trkpt lat="46.206686789908325" lon="11.938684418644625"><ele>1161.25</ele><time>2026-05-02T14:28:25Z</time></trkpt><trkpt lat="46.20661110941633" lon="11.938828012885905"><ele>1164.0</ele><time>2026-05-02T14:28:26Z</time></trkpt><trkpt lat="46.206554782363256" lon="11.93897021203269"><ele>1164.0</ele><time>2026-05-02T14:28:27Z</time></trkpt><trkpt lat="46.20649919753719" lon="11.939128786814596"><ele>1164.0</ele><time>2026-05-02T14:28:28Z</time></trkpt><trkpt lat="46.20645908971746" lon="11.939319107792281"><ele>1164.0</ele><time>2026-05-02T14:28:29Z</time></trkpt><trkpt lat="46.20643397601362" lon="11.939522820715938"><ele>1164.0</ele><time>2026-05-02T14:28:30Z</time></trkpt><trkpt lat="46.206417965613134" lon="11.939736686983666"><ele>1159.0</ele><time>2026-05-02T14:28:31Z</time></trkpt><trkpt lat="46.20640032073877" lon="11.939951660798481"><ele>1154.0</ele><time>2026-05-02T14:28:32Z</time></trkpt><trkpt lat="46.206385465262024" lon="11.940164452763787"><ele>1149.0</ele><time>2026-05-02T14:28:33Z</time></trkpt><trkpt lat="46.2063671787351" lon="11.940367928476764"><ele>1144.0</ele><time>2026-05-02T14:28:34Z</time></trkpt><trkpt lat="46.20633663843354" lon="11.940559859508435"><ele>1144.0</ele><time>2026-05-02T14:28:35Z</time></trkpt><trkpt lat="46.20630313200993" lon="11.940755622587183"><ele>1144.0</ele><time>2026-05-02T14:28:36Z</time></trkpt><trkpt lat="46.206286463047356" lon="11.940961910363136"><ele>1144.0</ele><time>2026-05-02T14:28:37Z</time></trkpt><trkpt lat="46.206263162531855" lon="11.941160817375835"><ele>1144.0</ele><time>2026-05-02T14:28:38Z</time></trkpt><trkpt lat="46.206226279774484" lon="11.941348738605933"><ele>1144.0</ele><time>2026-05-02T14:28:39Z</time></trkpt><trkpt lat="46.206210723343844" lon="11.941549626363765"><ele>1144.0</ele><time>2026-05-02T14:28:40Z</time></trkpt><trkpt lat="46.20621200086482" lon="11.941756907273517"><ele>1144.0</ele><time>2026-05-02T14:28:41Z</time></trkpt><trkpt lat="46.20623829776081" lon="11.94195500645595"><ele>1144.0</ele><time>2026-05-02T14:28:42Z</time></trkpt><trkpt lat="46.20628466475262" lon="11.942150922603508"><ele>1144.0</ele><time>2026-05-02T14:28:43Z</time></trkpt><trkpt lat="46.20636384185404" lon="11.942333586569385"><ele>1144.0</ele><time>2026-05-02T14:28:44Z</time></trkpt><trkpt lat="46.20643622906701" lon="11.942491962434902"><ele>1144.0</ele><time>2026-05-02T14:28:45Z</time></trkpt><trkpt lat="46.206491903091255" lon="11.94263016746825"><ele>1144.0</ele><time>2026-05-02T14:28:46Z</time></trkpt><trkpt lat="46.206528721504554" lon="11.942766498112617"><ele>1143.75</ele><time>2026-05-02T14:28:47Z</time></trkpt><trkpt lat="46.20652795444485" lon="11.942945714940022"><ele>1143.5</ele><time>2026-05-02T14:28:48Z</time></trkpt><trkpt lat="46.206505012806026" lon="11.943132670899953"><ele>1143.25</ele><time>2026-05-02T14:28:49Z</time></trkpt><trkpt lat="46.20648934110413" lon="11.943328784245512"><ele>1143.0</ele><time>2026-05-02T14:28:50Z</time></trkpt><trkpt lat="46.20648983457708" lon="11.943534185156562"><ele>1151.5</ele><time>2026-05-02T14:28:51Z</time></trkpt><trkpt lat="46.20652677079075" lon="11.943740926667918"><ele>1160.0</ele><time>2026-05-02T14:28:52Z</time></trkpt><trkpt lat="46.2065695114381" lon="11.943924860196134"><ele>1168.5</ele><time>2026-05-02T14:28:53Z</time></trkpt><trkpt lat="46.20656438960543" lon="11.94409572330275"><ele>1177.0</ele><time>2026-05-02T14:28:54Z</time></trkpt><trkpt lat="46.20655322743399" lon="11.94426964002045"><ele>1177.5</ele><time>2026-05-02T14:28:55Z</time></trkpt><trkpt lat="46.20653450556291" lon="11.944441491003413"><ele>1178.0</ele><time>2026-05-02T14:28:56Z</time></trkpt><trkpt lat="46.20651295348189" lon="11.944607261836394"><ele>1178.5</ele><time>2026-05-02T14:28:57Z</time></trkpt><trkpt lat="46.206489666372214" lon="11.94477020448283"><ele>1179.0</ele><time>2026-05-02T14:28:58Z</time></trkpt><trkpt lat="46.20646565936925" lon="11.944943002324536"><ele>1170.0</ele><time>2026-05-02T14:28:59Z</time></trkpt><trkpt lat="46.20645532481719" lon="11.945136161787511"><ele>1161.0</ele><time>2026-05-02T14:29:00Z</time></trkpt><trkpt lat="46.206444173661914" lon="11.945337290331713"><ele>1152.0</ele><time>2026-05-02T14:29:01Z</time></trkpt><trkpt lat="46.206446879645775" lon="11.945532951574714"><ele>1143.0</ele><time>2026-05-02T14:29:02Z</time></trkpt><trkpt lat="46.20646433274253" lon="11.945717126992015"><ele>1152.25</ele><time>2026-05-02T14:29:03Z</time></trkpt><trkpt lat="46.2065063903266" lon="11.94589696965688"><ele>1161.5</ele><time>2026-05-02T14:29:04Z</time></trkpt><trkpt lat="46.20656021699057" lon="11.946076587716915"><ele>1170.75</ele><time>2026-05-02T14:29:05Z</time></trkpt><trkpt lat="46.20662090588684" lon="11.946244487598344"><ele>1180.0</ele><time>2026-05-02T14:29:06Z</time></trkpt><trkpt lat="46.206673606565836" lon="11.946408179786456"><ele>1180.0</ele><time>2026-05-02T14:29:07Z</time></trkpt><trkpt lat="46.206693395363295" lon="11.94657948235886"><ele>1180.0</ele><time>2026-05-02T14:29:08Z</time></trkpt><trkpt lat="46.20670062906721" lon="11.94676737914741"><ele>1180.0</ele><time>2026-05-02T14:29:09Z</time></trkpt><trkpt lat="46.206706933749516" lon="11.946946974066753"><ele>1180.0</ele><time>2026-05-02T14:29:10Z</time></trkpt><trkpt lat="46.20671584438001" lon="11.947132868631089"><ele>1181.5</ele><time>2026-05-02T14:29:11Z</time></trkpt><trkpt lat="46.20672381660129" lon="11.947316710832997"><ele>1183.0</ele><time>2026-05-02T14:29:12Z</time></trkpt><trkpt lat="46.20672526900452" lon="11.947495190049237"><ele>1184.5</ele><time>2026-05-02T14:29:13Z</time></trkpt><trkpt lat="46.20671653482197" lon="11.94767998843293"><ele>1186.0</ele><time>2026-05-02T14:29:14Z</time></trkpt><trkpt lat="46.20669568069292" lon="11.94785648426568"><ele>1187.0</ele><time>2026-05-02T14:29:15Z</time></trkpt><trkpt lat="46.206671922974586" lon="11.948019460160236"><ele>1188.0</ele><time>2026-05-02T14:29:16Z</time></trkpt><trkpt lat="46.20664092965492" lon="11.948200478065587"><ele>1189.0</ele><time>2026-05-02T14:29:17Z</time></trkpt><trkpt lat="46.20662380901953" lon="11.948392629480384"><ele>1190.0</ele><time>2026-05-02T14:29:18Z</time></trkpt><trkpt lat="46.20663294801913" lon="11.948589419845831"><ele>1190.0</ele><time>2026-05-02T14:29:19Z</time></trkpt><trkpt lat="46.2066582287881" lon="11.94878617404444"><ele>1190.0</ele><time>2026-05-02T14:29:20Z</time></trkpt><trkpt lat="46.206703991773445" lon="11.948979423193874"><ele>1190.0</ele><time>2026-05-02T14:29:21Z</time></trkpt><trkpt lat="46.20675900459282" lon="11.949172004479637"><ele>1190.0</ele><time>2026-05-02T14:29:22Z</time></trkpt><trkpt lat="46.20681746222947" lon="11.94936801814906"><ele>1186.5</ele><time>2026-05-02T14:29:23Z</time></trkpt><trkpt lat="46.206877155048595" lon="11.949554493266307"><ele>1183.0</ele><time>2026-05-02T14:29:24Z</time></trkpt><trkpt lat="46.20693737727596" lon="11.949714320936813"><ele>1179.5</ele><time>2026-05-02T14:29:25Z</time></trkpt><trkpt lat="46.20699750712437" lon="11.94985705680439"><ele>1176.0</ele><time>2026-05-02T14:29:26Z</time></trkpt><trkpt lat="46.20705636027693" lon="11.949991856023265"><ele>1172.0</ele><time>2026-05-02T14:29:27Z</time></trkpt><trkpt lat="46.2071195093133" lon="11.950132259572879"><ele>1168.0</ele><time>2026-05-02T14:29:28Z</time></trkpt><trkpt lat="46.20719786640371" lon="11.950258826961262"><ele>1164.0</ele><time>2026-05-02T14:29:29Z</time></trkpt><trkpt lat="46.2072929689655" lon="11.950363132700891"><ele>1160.0</ele><time>2026-05-02T14:29:30Z</time></trkpt><trkpt lat="46.20738490588396" lon="11.950464900913303"><ele>1165.5</ele><time>2026-05-02T14:29:31Z</time></trkpt><trkpt lat="46.20747998163784" lon="11.950560762310324"><ele>1171.0</ele><time>2026-05-02T14:29:32Z</time></trkpt><trkpt lat="46.20755536673163" lon="11.950713252205285"><ele>1176.5</ele><time>2026-05-02T14:29:33Z</time></trkpt><trkpt lat="46.20761331746934" lon="11.950878080162145"><ele>1182.0</ele><time>2026-05-02T14:29:34Z</time></trkpt><trkpt lat="46.20765038330928" lon="11.951032446520216"><ele>1182.0</ele><time>2026-05-02T14:29:35Z</time></trkpt><trkpt lat="46.20767979757794" lon="11.951171996501364"><ele>1182.0</ele><time>2026-05-02T14:29:36Z</time></trkpt><trkpt lat="46.207722341662645" lon="11.951314925572008"><ele>1182.0</ele><time>2026-05-02T14:29:37Z</time></trkpt><trkpt lat="46.20776782647247" lon="11.951478062772193"><ele>1182.0</ele><time>2026-05-02T14:29:38Z</time></trkpt><trkpt lat="46.207822746177825" lon="11.951666090669995"><ele>1182.0</ele><time>2026-05-02T14:29:38.999Z</time></trkpt><trkpt lat="46.20787976283388" lon="11.951875949192202"><ele>1182.0</ele><time>2026-05-02T14:29:39.999Z</time></trkpt><trkpt lat="46.20789683654746" lon="11.95206269687939"><ele>1182.0</ele><time>2026-05-02T14:29:40.999Z</time></trkpt><trkpt lat="46.20790356416702" lon="11.952245866590832"><ele>1182.0</ele><time>2026-05-02T14:29:41.999Z</time></trkpt><trkpt lat="46.20791289715658" lon="11.952426953139286"><ele>1182.25</ele><time>2026-05-02T14:29:42.999Z</time></trkpt><trkpt lat="46.20792178029122" lon="11.95261301383572"><ele>1182.5</ele><time>2026-05-02T14:29:43.999Z</time></trkpt><trkpt lat="46.20794173848118" lon="11.952782931356952"><ele>1182.75</ele><time>2026-05-02T14:29:44.999Z</time></trkpt><trkpt lat="46.20796763686404" lon="11.952947871233754"><ele>1183.0</ele><time>2026-05-02T14:29:45.999Z</time></trkpt><trkpt lat="46.207984999351176" lon="11.953121380681111"><ele>1183.0</ele><time>2026-05-02T14:29:46.999Z</time></trkpt><trkpt lat="46.208003163624376" lon="11.953308882143267"><ele>1183.0</ele><time>2026-05-02T14:29:47.999Z</time></trkpt><trkpt lat="46.20800051199479" lon="11.953506827390783"><ele>1183.0</ele><time>2026-05-02T14:29:48.999Z</time></trkpt><trkpt lat="46.20794403712367" lon="11.953681912282768"><ele>1183.0</ele><time>2026-05-02T14:29:49.999Z</time></trkpt><trkpt lat="46.20787408060618" lon="11.953841740971614"><ele>1185.0</ele><time>2026-05-02T14:29:50.999Z</time></trkpt><trkpt lat="46.207817490525024" lon="11.953999166901529"><ele>1187.0</ele><time>2026-05-02T14:29:51.999Z</time></trkpt><trkpt lat="46.20778603173125" lon="11.954173876481706"><ele>1189.0</ele><time>2026-05-02T14:29:53.001Z</time></trkpt><trkpt lat="46.20777502502706" lon="11.954343617081879"><ele>1191.0</ele><time>2026-05-02T14:29:54.001Z</time></trkpt><trkpt lat="46.20780154746298" lon="11.954511259743386"><ele>1191.0</ele><time>2026-05-02T14:29:55Z</time></trkpt><trkpt lat="46.207867890671395" lon="11.954649552040692"><ele>1191.0</ele><time>2026-05-02T14:29:56Z</time></trkpt><trkpt lat="46.207980821905245" lon="11.954753057303893"><ele>1191.0</ele><time>2026-05-02T14:29:57Z</time></trkpt><trkpt lat="46.20810259474401" lon="11.954860963142238"><ele>1191.0</ele><time>2026-05-02T14:29:58Z</time></trkpt><trkpt lat="46.20822643935965" lon="11.954980423359746"><ele>1189.0</ele><time>2026-05-02T14:29:59Z</time></trkpt><trkpt lat="46.2083569740626" lon="11.955079580780495"><ele>1187.0</ele><time>2026-05-02T14:30:00Z</time></trkpt><trkpt lat="46.20850501965229" lon="11.955130764596284"><ele>1185.0</ele><time>2026-05-02T14:30:01Z</time></trkpt><trkpt lat="46.2086640460758" lon="11.955158114185037"><ele>1185.0</ele><time>2026-05-02T14:30:02Z</time></trkpt><trkpt lat="46.20882737352314" lon="11.955178325186726"><ele>1185.0</ele><time>2026-05-02T14:30:03Z</time></trkpt><trkpt lat="46.208969650123805" lon="11.955221312632878"><ele>1185.0</ele><time>2026-05-02T14:30:04Z</time></trkpt><trkpt lat="46.20910551328007" lon="11.95529010061149"><ele>1188.25</ele><time>2026-05-02T14:30:05Z</time></trkpt><trkpt lat="46.20922282664491" lon="11.955373351596645"><ele>1191.5</ele><time>2026-05-02T14:30:06Z</time></trkpt><trkpt lat="46.209327077230725" lon="11.955453785304293"><ele>1194.75</ele><time>2026-05-02T14:30:07Z</time></trkpt><trkpt lat="46.20941985622341" lon="11.95554634542855"><ele>1198.0</ele><time>2026-05-02T14:30:08Z</time></trkpt><trkpt lat="46.209502600225065" lon="11.955624164940788"><ele>1198.0</ele><time>2026-05-02T14:30:09Z</time></trkpt><trkpt lat="46.2095902159296" lon="11.955668493173622"><ele>1198.0</ele><time>2026-05-02T14:30:10Z</time></trkpt><trkpt lat="46.20967887821397" lon="11.955676299503269"><ele>1198.0</ele><time>2026-05-02T14:30:11Z</time></trkpt><trkpt lat="46.20976066204554" lon="11.955717151809987"><ele>1198.0</ele><time>2026-05-02T14:30:12Z</time></trkpt><trkpt lat="46.209853069208286" lon="11.955715678141221"><ele>1198.0</ele><time>2026-05-02T14:30:13Z</time></trkpt><trkpt lat="46.20996204832715" lon="11.955659952350954"><ele>1198.75</ele><time>2026-05-02T14:30:14Z</time></trkpt><trkpt lat="46.21007824038636" lon="11.955557951811478"><ele>1199.5</ele><time>2026-05-02T14:30:15Z</time></trkpt><trkpt lat="46.21018885113482" lon="11.95546044310371"><ele>1200.25</ele><time>2026-05-02T14:30:16Z</time></trkpt><trkpt lat="46.210293978134544" lon="11.955377599321096"><ele>1201.0</ele><time>2026-05-02T14:30:17Z</time></trkpt><trkpt lat="46.21039483151255" lon="11.955301217100141"><ele>1201.0</ele><time>2026-05-02T14:30:18Z</time></trkpt><trkpt lat="46.21052135808639" lon="11.955221652512277"><ele>1201.0</ele><time>2026-05-02T14:30:19Z</time></trkpt><trkpt lat="46.21063915651571" lon="11.955162755501657"><ele>1201.0</ele><time>2026-05-02T14:30:20Z</time></trkpt><trkpt lat="46.21075349245166" lon="11.955087079784363"><ele>1201.0</ele><time>2026-05-02T14:30:21Z</time></trkpt><trkpt lat="46.21086454781582" lon="11.955044025032283"><ele>1200.25</ele><time>2026-05-02T14:30:22Z</time></trkpt><trkpt lat="46.21096911170391" lon="11.955010595344357"><ele>1199.5</ele><time>2026-05-02T14:30:23Z</time></trkpt><trkpt lat="46.21106576733071" lon="11.95491674748367"><ele>1198.75</ele><time>2026-05-02T14:30:24Z</time></trkpt><trkpt lat="46.21114774657624" lon="11.954786895710196"><ele>1198.0</ele><time>2026-05-02T14:30:25Z</time></trkpt><trkpt lat="46.21122855090729" lon="11.954634646644084"><ele>1198.0</ele><time>2026-05-02T14:30:26Z</time></trkpt><trkpt lat="46.21132345490826" lon="11.954508708584298"><ele>1198.0</ele><time>2026-05-02T14:30:27Z</time></trkpt><trkpt lat="46.21143285747733" lon="11.954407565245857"><ele>1198.0</ele><time>2026-05-02T14:30:28Z</time></trkpt><trkpt lat="46.211534177676974" lon="11.954339020183228"><ele>1198.0</ele><time>2026-05-02T14:30:29Z</time></trkpt><trkpt lat="46.21161872303093" lon="11.954291661477198"><ele>1197.4</ele><time>2026-05-02T14:30:30Z</time></trkpt><trkpt lat="46.21171594337067" lon="11.954265691539351"><ele>1196.8</ele><time>2026-05-02T14:30:31Z</time></trkpt><trkpt lat="46.21180818546796" lon="11.954263218690476"><ele>1196.2</ele><time>2026-05-02T14:30:32Z</time></trkpt><trkpt lat="46.21188963080397" lon="11.954237367257665"><ele>1195.6</ele><time>2026-05-02T14:30:33Z</time></trkpt><trkpt lat="46.21198264470212" lon="11.95418753107647"><ele>1195.0</ele><time>2026-05-02T14:30:34Z</time></trkpt><trkpt lat="46.212062642022275" lon="11.95406472135156"><ele>1195.0</ele><time>2026-05-02T14:30:35Z</time></trkpt><trkpt lat="46.2121259082481" lon="11.95391279001748"><ele>1195.0</ele><time>2026-05-02T14:30:36Z</time></trkpt><trkpt lat="46.21218919929135" lon="11.953766801599711"><ele>1195.0</ele><time>2026-05-02T14:30:37Z</time></trkpt><trkpt lat="46.2122588512608" lon="11.953629865882059"><ele>1195.0</ele><time>2026-05-02T14:30:38Z</time></trkpt><trkpt lat="46.21233303571374" lon="11.953492942414778"><ele>1195.0</ele><time>2026-05-02T14:30:39Z</time></trkpt><trkpt lat="46.212457505401446" lon="11.953426164463629"><ele>1195.0</ele><time>2026-05-02T14:30:40Z</time></trkpt><trkpt lat="46.21259900262259" lon="11.953348010709737"><ele>1195.0</ele><time>2026-05-02T14:30:41Z</time></trkpt><trkpt lat="46.21277973687845" lon="11.953231832106306"><ele>1195.0</ele><time>2026-05-02T14:30:42Z</time></trkpt><trkpt lat="46.21293262638735" lon="11.953126051071822"><ele>1195.0</ele><time>2026-05-02T14:30:43Z</time></trkpt><trkpt lat="46.213062463201354" lon="11.9530379170161"><ele>1195.0</ele><time>2026-05-02T14:30:44Z</time></trkpt><trkpt lat="46.21321004698061" lon="11.953038148709878"><ele>1193.0</ele><time>2026-05-02T14:30:45Z</time></trkpt><trkpt lat="46.21333964988255" lon="11.953050171600642"><ele>1191.0</ele><time>2026-05-02T14:30:46Z</time></trkpt><trkpt lat="46.2134528307653" lon="11.953059909182084"><ele>1189.0</ele><time>2026-05-02T14:30:47Z</time></trkpt><trkpt lat="46.213553960312645" lon="11.95305119228504"><ele>1187.0</ele><time>2026-05-02T14:30:48Z</time></trkpt><trkpt lat="46.21365722576923" lon="11.952997422021461"><ele>1187.0</ele><time>2026-05-02T14:30:49Z</time></trkpt><trkpt lat="46.21374028851981" lon="11.95289624454918"><ele>1187.0</ele><time>2026-05-02T14:30:50Z</time></trkpt><trkpt lat="46.21379664753727" lon="11.952762193983283"><ele>1187.0</ele><time>2026-05-02T14:30:51Z</time></trkpt><trkpt lat="46.21384623461904" lon="11.952570724428448"><ele>1187.0</ele><time>2026-05-02T14:30:52Z</time></trkpt><trkpt lat="46.213903037821915" lon="11.952418182753938"><ele>1188.75</ele><time>2026-05-02T14:30:53Z</time></trkpt><trkpt lat="46.214004948819245" lon="11.952305282155345"><ele>1190.5</ele><time>2026-05-02T14:30:54Z</time></trkpt><trkpt lat="46.2141334994137" lon="11.952221748689867"><ele>1192.25</ele><time>2026-05-02T14:30:55Z</time></trkpt><trkpt lat="46.214258143198435" lon="11.95217606152948"><ele>1194.0</ele><time>2026-05-02T14:30:56Z</time></trkpt><trkpt lat="46.214387190859156" lon="11.952128484208743"><ele>1194.0</ele><time>2026-05-02T14:30:57Z</time></trkpt><trkpt lat="46.21451846382282" lon="11.952106442113182"><ele>1194.0</ele><time>2026-05-02T14:30:58Z</time></trkpt><trkpt lat="46.21463445637124" lon="11.95212344467128"><ele>1194.0</ele><time>2026-05-02T14:30:59Z</time></trkpt><trkpt lat="46.214718326531" lon="11.952138562695358"><ele>1194.0</ele><time>2026-05-02T14:31:00Z</time></trkpt><trkpt lat="46.21479081646204" lon="11.952169104400808"><ele>1194.0</ele><time>2026-05-02T14:31:02Z</time></trkpt><trkpt lat="46.214839108497955" lon="11.952246308824629"><ele>1191.8333333333333</ele><time>2026-05-02T14:31:11Z</time></trkpt><trkpt lat="46.21491764136955" lon="11.95222275792482"><ele>1189.6666666666667</ele><time>2026-05-02T14:32:32Z</time></trkpt><trkpt lat="46.21502158840107" lon="11.952275898632497"><ele>1187.5</ele><time>2026-05-02T14:32:34Z</time></trkpt><trkpt lat="46.215101003645316" lon="11.952362413961584"><ele>1185.3333333333335</ele><time>2026-05-02T14:32:35Z</time></trkpt><trkpt lat="46.21516536335408" lon="11.952418176742338"><ele>1183.1666666666667</ele><time>2026-05-02T14:32:36Z</time></trkpt><trkpt lat="46.2152331210721" lon="11.952475639709661"><ele>1181.0</ele><time>2026-05-02T14:32:37Z</time></trkpt><trkpt lat="46.21529984363731" lon="11.952520665890695"><ele>1175.8</ele><time>2026-05-02T14:32:38Z</time></trkpt><trkpt lat="46.215391780585506" lon="11.952558824476037"><ele>1170.6</ele><time>2026-05-02T14:32:39Z</time></trkpt><trkpt lat="46.215481277852135" lon="11.952588726161185"><ele>1165.4</ele><time>2026-05-02T14:32:40Z</time></trkpt><trkpt lat="46.215588124228894" lon="11.952618576369515"><ele>1160.2</ele><time>2026-05-02T14:32:41Z</time></trkpt><trkpt lat="46.215702296337035" lon="11.952644419093076"><ele>1155.0</ele><time>2026-05-02T14:32:42Z</time></trkpt><trkpt lat="46.21581409874051" lon="11.95263739207028"><ele>1155.0</ele><time>2026-05-02T14:32:43Z</time></trkpt><trkpt lat="46.21592266125244" lon="11.95267274381251"><ele>1155.0</ele><time>2026-05-02T14:32:44Z</time></trkpt><trkpt lat="46.21603382106914" lon="11.952691728170203"><ele>1155.0</ele><time>2026-05-02T14:32:45Z</time></trkpt><trkpt lat="46.216143926066465" lon="11.952724704132912"><ele>1155.0</ele><time>2026-05-02T14:32:46Z</time></trkpt><trkpt lat="46.21624965089159" lon="11.952773258855114"><ele>1155.0</ele><time>2026-05-02T14:32:47Z</time></trkpt><trkpt lat="46.21634875921064" lon="11.95283780622986"><ele>1155.0</ele><time>2026-05-02T14:32:48Z</time></trkpt><trkpt lat="46.216442112376846" lon="11.952904108928811"><ele>1155.0</ele><time>2026-05-02T14:32:49Z</time></trkpt><trkpt lat="46.21654041938836" lon="11.952966418142815"><ele>1155.0</ele><time>2026-05-02T14:32:50Z</time></trkpt><trkpt lat="46.2166459917258" lon="11.953017974825604"><ele>1155.0</ele><time>2026-05-02T14:32:51Z</time></trkpt><trkpt lat="46.216750177849356" lon="11.953060066678368"><ele>1155.0</ele><time>2026-05-02T14:32:52Z</time></trkpt><trkpt lat="46.21685608835185" lon="11.953092978278114"><ele>1154.25</ele><time>2026-05-02T14:32:53Z</time></trkpt><trkpt lat="46.216968024154035" lon="11.953108568083742"><ele>1153.5</ele><time>2026-05-02T14:32:54Z</time></trkpt><trkpt lat="46.21708671146426" lon="11.953133057169076"><ele>1152.75</ele><time>2026-05-02T14:32:55Z</time></trkpt><trkpt lat="46.2171989092476" lon="11.953134126057336"><ele>1152.0</ele><time>2026-05-02T14:32:56Z</time></trkpt><trkpt lat="46.21731627161463" lon="11.953125025823196"><ele>1148.75</ele><time>2026-05-02T14:32:57Z</time></trkpt><trkpt lat="46.21743677048187" lon="11.953080824575657"><ele>1145.5</ele><time>2026-05-02T14:32:58Z</time></trkpt><trkpt lat="46.21754195034982" lon="11.952976042037818"><ele>1142.25</ele><time>2026-05-02T14:32:59Z</time></trkpt><trkpt lat="46.21766232693679" lon="11.952928946991891"><ele>1139.0</ele><time>2026-05-02T14:33:00Z</time></trkpt><trkpt lat="46.21779273613983" lon="11.952930810468823"><ele>1139.0</ele><time>2026-05-02T14:33:01Z</time></trkpt><trkpt lat="46.21792511191338" lon="11.952903514900926"><ele>1139.0</ele><time>2026-05-02T14:33:02Z</time></trkpt><trkpt lat="46.218049204616214" lon="11.952917664101241"><ele>1139.0</ele><time>2026-05-02T14:33:03Z</time></trkpt><trkpt lat="46.21816772051558" lon="11.952935717248128"><ele>1139.0</ele><time>2026-05-02T14:33:04Z</time></trkpt><trkpt lat="46.218280565066635" lon="11.952968795497856"><ele>1137.6000000000001</ele><time>2026-05-02T14:33:05Z</time></trkpt><trkpt lat="46.2183821206483" lon="11.9530464408874"><ele>1136.2</ele><time>2026-05-02T14:33:06Z</time></trkpt><trkpt lat="46.21848013691535" lon="11.953126163445214"><ele>1134.8000000000002</ele><time>2026-05-02T14:33:07Z</time></trkpt><trkpt lat="46.218563747464245" lon="11.953185840197861"><ele>1133.4</ele><time>2026-05-02T14:33:08Z</time></trkpt><trkpt lat="46.21866631341251" lon="11.953267840431494"><ele>1132.0</ele><time>2026-05-02T14:33:09Z</time></trkpt><trkpt lat="46.21881679925544" lon="11.953301559950958"><ele>1132.0</ele><time>2026-05-02T14:33:10Z</time></trkpt><trkpt lat="46.21894657409873" lon="11.953314203101618"><ele>1132.0</ele><time>2026-05-02T14:33:11Z</time></trkpt><trkpt lat="46.21906850172186" lon="11.953344218828015"><ele>1132.0</ele><time>2026-05-02T14:33:12Z</time></trkpt><trkpt lat="46.21918736928612" lon="11.953366817684019"><ele>1132.0</ele><time>2026-05-02T14:33:13Z</time></trkpt><trkpt lat="46.21929130961663" lon="11.953414486300721"><ele>1130.2</ele><time>2026-05-02T14:33:14Z</time></trkpt><trkpt lat="46.21940130605812" lon="11.953468715476982"><ele>1128.4</ele><time>2026-05-02T14:33:14.999Z</time></trkpt><trkpt lat="46.219501979489564" lon="11.953521343837853"><ele>1126.6</ele><time>2026-05-02T14:33:15.999Z</time></trkpt><trkpt lat="46.219596544552026" lon="11.953563439585015"><ele>1124.8</ele><time>2026-05-02T14:33:16.999Z</time></trkpt><trkpt lat="46.21968805822859" lon="11.95360799497172"><ele>1123.0</ele><time>2026-05-02T14:33:17.999Z</time></trkpt><trkpt lat="46.21977461202158" lon="11.953626550948073"><ele>1124.8</ele><time>2026-05-02T14:33:18.999Z</time></trkpt><trkpt lat="46.219869219346116" lon="11.953641250899048"><ele>1126.6</ele><time>2026-05-02T14:33:19.999Z</time></trkpt><trkpt lat="46.21998551701421" lon="11.953589358166008"><ele>1128.4</ele><time>2026-05-02T14:33:20.999Z</time></trkpt><trkpt lat="46.220083014159684" lon="11.953496168322433"><ele>1130.2</ele><time>2026-05-02T14:33:21.999Z</time></trkpt><trkpt lat="46.220174813239154" lon="11.95341482927264"><ele>1132.0</ele><time>2026-05-02T14:33:22.999Z</time></trkpt><trkpt lat="46.2202613444095" lon="11.953332533192047"><ele>1133.8333333333333</ele><time>2026-05-02T14:33:23.999Z</time></trkpt><trkpt lat="46.22034074695361" lon="11.953256530202237"><ele>1135.6666666666665</ele><time>2026-05-02T14:33:24.999Z</time></trkpt><trkpt lat="46.22042106586946" lon="11.95320167926984"><ele>1137.5</ele><time>2026-05-02T14:33:25.999Z</time></trkpt><trkpt lat="46.22050552051591" lon="11.953177863606392"><ele>1139.3333333333333</ele><time>2026-05-02T14:33:26.999Z</time></trkpt><trkpt lat="46.22058847432783" lon="11.953177541087207"><ele>1141.1666666666667</ele><time>2026-05-02T14:33:27.999Z</time></trkpt><trkpt lat="46.22065931191957" lon="11.953201106762439"><ele>1143.0</ele><time>2026-05-02T14:33:28.999Z</time></trkpt><trkpt lat="46.22073884046252" lon="11.953284288991272"><ele>1143.0</ele><time>2026-05-02T14:33:30.999Z</time></trkpt><trkpt lat="46.22079618213759" lon="11.953355335434956"><ele>1143.0</ele><time>2026-05-02T14:33:34.999Z</time></trkpt><trkpt lat="46.22084486653513" lon="11.953080690622153"><ele>1143.0</ele><time>2026-05-02T14:33:39.999Z</time></trkpt><trkpt lat="46.22079178911427" lon="11.953159508855999"><ele>1143.0</ele><time>2026-05-02T14:33:42.999Z</time></trkpt><trkpt lat="46.22080445513479" lon="11.953264805576081"><ele>1143.0</ele><time>2026-05-02T14:41:53.999Z</time></trkpt><trkpt lat="46.22084900911088" lon="11.9533933141265"><ele>1142.5</ele><time>2026-05-02T14:41:55.999Z</time></trkpt><trkpt lat="46.220921408745575" lon="11.953525105271941"><ele>1142.0</ele><time>2026-05-02T14:41:57.999Z</time></trkpt><trkpt lat="46.22097045649685" lon="11.953594141392847"><ele>1141.5</ele><time>2026-05-02T14:41:58.999Z</time></trkpt><trkpt lat="46.22102021501587" lon="11.95369009249572"><ele>1141.0</ele><time>2026-05-02T14:41:59.998Z</time></trkpt><trkpt lat="46.22105705085576" lon="11.953783269319525"><ele>1140.5</ele><time>2026-05-02T14:42:00.998Z</time></trkpt><trkpt lat="46.22109288742748" lon="11.953882032851483"><ele>1140.0</ele><time>2026-05-02T14:42:01.998Z</time></trkpt><trkpt lat="46.22113060556881" lon="11.953987338306678"><ele>1140.0</ele><time>2026-05-02T14:42:02.998Z</time></trkpt><trkpt lat="46.221165782334964" lon="11.95408801275125"><ele>1140.0</ele><time>2026-05-02T14:42:03.998Z</time></trkpt><trkpt lat="46.22119983642393" lon="11.954191135966592"><ele>1140.0</ele><time>2026-05-02T14:42:04.998Z</time></trkpt><trkpt lat="46.22123251857046" lon="11.954292895230191"><ele>1140.0</ele><time>2026-05-02T14:42:05.998Z</time></trkpt><trkpt lat="46.221271477196815" lon="11.954391541266073"><ele>1140.0</ele><time>2026-05-02T14:42:06.998Z</time></trkpt><trkpt lat="46.221306337409764" lon="11.954489521057724"><ele>1140.0</ele><time>2026-05-02T14:42:07.998Z</time></trkpt><trkpt lat="46.22132656595902" lon="11.95460117200676"><ele>1139.6</ele><time>2026-05-02T14:42:08.998Z</time></trkpt><trkpt lat="46.221367371911846" lon="11.954700513699917"><ele>1139.2</ele><time>2026-05-02T14:42:09.998Z</time></trkpt><trkpt lat="46.22138149867338" lon="11.954828562620758"><ele>1138.8</ele><time>2026-05-02T14:42:10.998Z</time></trkpt><trkpt lat="46.221390125626385" lon="11.954956429022806"><ele>1138.4</ele><time>2026-05-02T14:42:11.998Z</time></trkpt><trkpt lat="46.22140206295831" lon="11.95510929682186"><ele>1138.0</ele><time>2026-05-02T14:42:12.998Z</time></trkpt><trkpt lat="46.221415365313426" lon="11.955279645375002"><ele>1138.6</ele><time>2026-05-02T14:42:13.998Z</time></trkpt><trkpt lat="46.221429171765855" lon="11.955456448969828"><ele>1139.1999999999998</ele><time>2026-05-02T14:42:14.998Z</time></trkpt><trkpt lat="46.22144112932391" lon="11.95560957423673"><ele>1139.8</ele><time>2026-05-02T14:42:15.998Z</time></trkpt><trkpt lat="46.22145338243599" lon="11.955758407386172"><ele>1140.3999999999999</ele><time>2026-05-02T14:42:16.998Z</time></trkpt><trkpt lat="46.22149033596066" lon="11.955896988286558"><ele>1141.0</ele><time>2026-05-02T14:42:17.998Z</time></trkpt><trkpt lat="46.221501433282114" lon="11.956039623797487"><ele>1141.0</ele><time>2026-05-02T14:42:18.998Z</time></trkpt><trkpt lat="46.221517285829506" lon="11.95618269622197"><ele>1141.0</ele><time>2026-05-02T14:42:19.998Z</time></trkpt><trkpt lat="46.22154167163403" lon="11.956317501160132"><ele>1141.0</ele><time>2026-05-02T14:42:20.998Z</time></trkpt><trkpt lat="46.2215715545297" lon="11.956459452943827"><ele>1141.0</ele><time>2026-05-02T14:42:21.998Z</time></trkpt><trkpt lat="46.221577440911716" lon="11.956628123934474"><ele>1141.0</ele><time>2026-05-02T14:42:22.998Z</time></trkpt><trkpt lat="46.22161015677358" lon="11.956800552763646"><ele>1139.75</ele><time>2026-05-02T14:42:23.998Z</time></trkpt><trkpt lat="46.22164527526729" lon="11.956984699255095"><ele>1138.5</ele><time>2026-05-02T14:42:24.998Z</time></trkpt><trkpt lat="46.2216851284664" lon="11.9571766754435"><ele>1137.25</ele><time>2026-05-02T14:42:25.998Z</time></trkpt><trkpt lat="46.22172887846156" lon="11.957356673137362"><ele>1136.0</ele><time>2026-05-02T14:42:26.998Z</time></trkpt><trkpt lat="46.22178451649307" lon="11.957546076955806"><ele>1136.0</ele><time>2026-05-02T14:42:27.998Z</time></trkpt><trkpt lat="46.22178475767476" lon="11.95776492077759"><ele>1136.0</ele><time>2026-05-02T14:42:29Z</time></trkpt><trkpt lat="46.221777269936744" lon="11.958020124291815"><ele>1136.0</ele><time>2026-05-02T14:42:30Z</time></trkpt><trkpt lat="46.22177001702114" lon="11.958296253721588"><ele>1135.3333333333335</ele><time>2026-05-02T14:42:31Z</time></trkpt><trkpt lat="46.22176371817049" lon="11.958553784121644"><ele>1134.6666666666667</ele><time>2026-05-02T14:42:32Z</time></trkpt><trkpt lat="46.22175776118772" lon="11.958797449871568"><ele>1134.0</ele><time>2026-05-02T14:42:33Z</time></trkpt><trkpt lat="46.221748012454626" lon="11.95902538185282"><ele>1132.0</ele><time>2026-05-02T14:42:34Z</time></trkpt><trkpt lat="46.22174192121599" lon="11.959222106944246"><ele>1130.0</ele><time>2026-05-02T14:42:35Z</time></trkpt><trkpt lat="46.221739830934574" lon="11.959370997857807"><ele>1128.0</ele><time>2026-05-02T14:42:36Z</time></trkpt><trkpt lat="46.22174810570391" lon="11.959491878035623"><ele>1126.0</ele><time>2026-05-02T14:42:37Z</time></trkpt><trkpt lat="46.22178473734923" lon="11.959614614370535"><ele>1124.0</ele><time>2026-05-02T14:42:38Z</time></trkpt><trkpt lat="46.22187666469666" lon="11.959730701632823"><ele>1124.0</ele><time>2026-05-02T14:42:39Z</time></trkpt><trkpt lat="46.22201295224624" lon="11.959787668083875"><ele>1124.0</ele><time>2026-05-02T14:42:40Z</time></trkpt><trkpt lat="46.222141674436045" lon="11.959814304436778"><ele>1124.0</ele><time>2026-05-02T14:42:41Z</time></trkpt><trkpt lat="46.22228569269944" lon="11.959844041450364"><ele>1124.0</ele><time>2026-05-02T14:42:42Z</time></trkpt><trkpt lat="46.22242826368087" lon="11.959873479617931"><ele>1125.0</ele><time>2026-05-02T14:42:43Z</time></trkpt><trkpt lat="46.22256044116154" lon="11.959901470679817"><ele>1126.0</ele><time>2026-05-02T14:42:44Z</time></trkpt><trkpt lat="46.22268033638867" lon="11.959933040341971"><ele>1127.0</ele><time>2026-05-02T14:42:45Z</time></trkpt><trkpt lat="46.22279388521558" lon="11.959999209541483"><ele>1128.0</ele><time>2026-05-02T14:42:46Z</time></trkpt><trkpt lat="46.22291321180142" lon="11.960134950293604"><ele>1128.0</ele><time>2026-05-02T14:42:47Z</time></trkpt><trkpt lat="46.223031446164384" lon="11.960297833385024"><ele>1128.0</ele><time>2026-05-02T14:42:48Z</time></trkpt><trkpt lat="46.223132526146856" lon="11.96043804931017"><ele>1128.0</ele><time>2026-05-02T14:42:49Z</time></trkpt><trkpt lat="46.223214304616626" lon="11.960567580010627"><ele>1128.0</ele><time>2026-05-02T14:42:50Z</time></trkpt><trkpt lat="46.22325724160937" lon="11.960703494808724"><ele>1129.6</ele><time>2026-05-02T14:42:51Z</time></trkpt><trkpt lat="46.22323414638508" lon="11.960849884700316"><ele>1131.1999999999998</ele><time>2026-05-02T14:42:52Z</time></trkpt><trkpt lat="46.22321673995953" lon="11.960948752162246"><ele>1132.8</ele><time>2026-05-02T14:42:52.999Z</time></trkpt><trkpt lat="46.22315404511658" lon="11.961068767626244"><ele>1134.3999999999999</ele><time>2026-05-02T14:42:53.999Z</time></trkpt><trkpt lat="46.22305556270795" lon="11.96110902311641"><ele>1136.0</ele><time>2026-05-02T14:42:54.999Z</time></trkpt><trkpt lat="46.22293732807161" lon="11.961126771590692"><ele>1141.6666666666667</ele><time>2026-05-02T14:42:55.999Z</time></trkpt><trkpt lat="46.222801472513055" lon="11.961076395267249"><ele>1147.3333333333333</ele><time>2026-05-02T14:42:56.999Z</time></trkpt><trkpt lat="46.22262799619678" lon="11.961018431847288"><ele>1153.0</ele><time>2026-05-02T14:42:57.999Z</time></trkpt><trkpt lat="46.22243202226971" lon="11.961015424065808"><ele>1149.3333333333333</ele><time>2026-05-02T14:42:58.999Z</time></trkpt><trkpt lat="46.22224902779799" lon="11.96103120571262"><ele>1145.6666666666667</ele><time>2026-05-02T14:42:59.999Z</time></trkpt><trkpt lat="46.2220816117581" lon="11.961049468231685"><ele>1142.0</ele><time>2026-05-02T14:43:00.999Z</time></trkpt><trkpt lat="46.221922407733835" lon="11.961060896542055"><ele>1142.0</ele><time>2026-05-02T14:43:01.999Z</time></trkpt><trkpt lat="46.22176829823989" lon="11.961100152917492"><ele>1142.0</ele><time>2026-05-02T14:43:02.999Z</time></trkpt><trkpt lat="46.221612000315965" lon="11.961134261851825"><ele>1142.0</ele><time>2026-05-02T14:43:03.999Z</time></trkpt><trkpt lat="46.22146049382579" lon="11.9612001802854"><ele>1138.25</ele><time>2026-05-02T14:43:04.999Z</time></trkpt><trkpt lat="46.221326515029915" lon="11.961277761949669"><ele>1134.5</ele><time>2026-05-02T14:43:05.999Z</time></trkpt><trkpt lat="46.221198692854735" lon="11.961370024437906"><ele>1130.75</ele><time>2026-05-02T14:43:06.999Z</time></trkpt><trkpt lat="46.22109775693819" lon="11.961473441637287"><ele>1127.0</ele><time>2026-05-02T14:43:07.999Z</time></trkpt><trkpt lat="46.221007314875806" lon="11.961594616621234"><ele>1129.2</ele><time>2026-05-02T14:43:08.999Z</time></trkpt><trkpt lat="46.220917514199975" lon="11.96170896715916"><ele>1131.4</ele><time>2026-05-02T14:43:09.999Z</time></trkpt><trkpt lat="46.22083821032848" lon="11.961802395590642"><ele>1133.6</ele><time>2026-05-02T14:43:10.999Z</time></trkpt><trkpt lat="46.22076180957773" lon="11.961875004012105"><ele>1135.8</ele><time>2026-05-02T14:43:11.999Z</time></trkpt><trkpt lat="46.220707954057" lon="11.961965676974145"><ele>1138.0</ele><time>2026-05-02T14:43:12.999Z</time></trkpt><trkpt lat="46.220694907044816" lon="11.962108158662204"><ele>1138.0</ele><time>2026-05-02T14:43:13.999Z</time></trkpt><trkpt lat="46.220704686531455" lon="11.962302524277833"><ele>1138.0</ele><time>2026-05-02T14:43:14.999Z</time></trkpt><trkpt lat="46.220733044791864" lon="11.962543395279443"><ele>1138.0</ele><time>2026-05-02T14:43:15.999Z</time></trkpt><trkpt lat="46.22070035509371" lon="11.962725201937435"><ele>1138.0</ele><time>2026-05-02T14:43:16.999Z</time></trkpt><trkpt lat="46.220626435031605" lon="11.962896982148404"><ele>1134.5</ele><time>2026-05-02T14:43:17.999Z</time></trkpt><trkpt lat="46.22055074571665" lon="11.9630602517399"><ele>1131.0</ele><time>2026-05-02T14:43:18.999Z</time></trkpt><trkpt lat="46.220510610840755" lon="11.963240243895383"><ele>1127.5</ele><time>2026-05-02T14:43:19.999Z</time></trkpt><trkpt lat="46.22046075399954" lon="11.963431370485127"><ele>1124.0</ele><time>2026-05-02T14:43:20.999Z</time></trkpt><trkpt lat="46.22042579256777" lon="11.963614376583926"><ele>1124.0</ele><time>2026-05-02T14:43:21.999Z</time></trkpt><trkpt lat="46.220374930244006" lon="11.963793511441608"><ele>1124.0</ele><time>2026-05-02T14:43:22.999Z</time></trkpt><trkpt lat="46.220333249821266" lon="11.963969564767607"><ele>1124.0</ele><time>2026-05-02T14:43:23.999Z</time></trkpt><trkpt lat="46.220279738251875" lon="11.964135510044065"><ele>1124.0</ele><time>2026-05-02T14:43:24.999Z</time></trkpt><trkpt lat="46.22022786098721" lon="11.964320775827655"><ele>1124.25</ele><time>2026-05-02T14:43:25.999Z</time></trkpt><trkpt lat="46.22018232424775" lon="11.96451317381821"><ele>1124.5</ele><time>2026-05-02T14:43:26.999Z</time></trkpt><trkpt lat="46.220144539708734" lon="11.964697376420213"><ele>1124.75</ele><time>2026-05-02T14:43:27.999Z</time></trkpt><trkpt lat="46.220155628552455" lon="11.964896548395487"><ele>1125.0</ele><time>2026-05-02T14:43:28.999Z</time></trkpt><trkpt lat="46.22016821920256" lon="11.965114842433797"><ele>1123.3333333333333</ele><time>2026-05-02T14:43:29.999Z</time></trkpt><trkpt lat="46.220215486578304" lon="11.965338811929414"><ele>1121.6666666666665</ele><time>2026-05-02T14:43:30.999Z</time></trkpt><trkpt lat="46.22025031131503" lon="11.965575585708512"><ele>1120.0</ele><time>2026-05-02T14:43:31.999Z</time></trkpt><trkpt lat="46.22031178194773" lon="11.965801754745998"><ele>1115.6666666666665</ele><time>2026-05-02T14:43:32.999Z</time></trkpt><trkpt lat="46.22039794046966" lon="11.9660370377895"><ele>1111.3333333333333</ele><time>2026-05-02T14:43:33.999Z</time></trkpt><trkpt lat="46.22049792554929" lon="11.96625688888574"><ele>1107.0</ele><time>2026-05-02T14:43:34.999Z</time></trkpt><trkpt lat="46.22058678641267" lon="11.966466356728084"><ele>1118.6666666666667</ele><time>2026-05-02T14:43:35.999Z</time></trkpt><trkpt lat="46.2206745927008" lon="11.966680924742292"><ele>1130.3333333333335</ele><time>2026-05-02T14:43:36.999Z</time></trkpt><trkpt lat="46.220768947566135" lon="11.966908336251722"><ele>1142.0</ele><time>2026-05-02T14:43:37.999Z</time></trkpt><trkpt lat="46.22087397170523" lon="11.967120740326095"><ele>1142.0</ele><time>2026-05-02T14:43:38.999Z</time></trkpt><trkpt lat="46.220944123683765" lon="11.967321077323694"><ele>1142.0</ele><time>2026-05-02T14:43:39.999Z</time></trkpt><trkpt lat="46.22102040546979" lon="11.967512956602766"><ele>1142.0</ele><time>2026-05-02T14:43:40.999Z</time></trkpt><trkpt lat="46.22107476395057" lon="11.967723497166451"><ele>1139.3333333333335</ele><time>2026-05-02T14:43:41.999Z</time></trkpt><trkpt lat="46.221099491503544" lon="11.967968382588577"><ele>1136.6666666666667</ele><time>2026-05-02T14:43:42.999Z</time></trkpt><trkpt lat="46.22110793309714" lon="11.968224481954397"><ele>1134.0</ele><time>2026-05-02T14:43:43.999Z</time></trkpt><trkpt lat="46.22112760176024" lon="11.968463560512863"><ele>1134.0</ele><time>2026-05-02T14:43:44.999Z</time></trkpt><trkpt lat="46.22111371704587" lon="11.968683700840362"><ele>1134.0</ele><time>2026-05-02T14:43:45.999Z</time></trkpt><trkpt lat="46.22113057979053" lon="11.968884780550733"><ele>1134.0</ele><time>2026-05-02T14:43:46.999Z</time></trkpt><trkpt lat="46.2211198690194" lon="11.969068595918534"><ele>1134.0</ele><time>2026-05-02T14:43:47.999Z</time></trkpt><trkpt lat="46.22113912910957" lon="11.969241137736608"><ele>1136.75</ele><time>2026-05-02T14:43:48.999Z</time></trkpt><trkpt lat="46.22113931318331" lon="11.969407698407375"><ele>1139.5</ele><time>2026-05-02T14:43:49.998Z</time></trkpt><trkpt lat="46.221137894936454" lon="11.969573356560295"><ele>1142.25</ele><time>2026-05-02T14:43:50.998Z</time></trkpt><trkpt lat="46.22113806125238" lon="11.96973792641647"><ele>1145.0</ele><time>2026-05-02T14:43:51.998Z</time></trkpt><trkpt lat="46.22109929822853" lon="11.969908516834163"><ele>1148.0</ele><time>2026-05-02T14:43:52.998Z</time></trkpt><trkpt lat="46.22102517144038" lon="11.970076735936036"><ele>1151.0</ele><time>2026-05-02T14:43:53.998Z</time></trkpt><trkpt lat="46.220917721631075" lon="11.970228409325427"><ele>1154.0</ele><time>2026-05-02T14:43:54.998Z</time></trkpt><trkpt lat="46.22081710731852" lon="11.970386696489367"><ele>1157.0</ele><time>2026-05-02T14:43:55.998Z</time></trkpt><trkpt lat="46.22072602421238" lon="11.970516671446132"><ele>1153.75</ele><time>2026-05-02T14:43:56.998Z</time></trkpt><trkpt lat="46.220649039337964" lon="11.970649137306204"><ele>1150.5</ele><time>2026-05-02T14:43:57.998Z</time></trkpt><trkpt lat="46.22058300319701" lon="11.970812486115832"><ele>1147.25</ele><time>2026-05-02T14:43:58.998Z</time></trkpt><trkpt lat="46.22053759963968" lon="11.97101720543684"><ele>1144.0</ele><time>2026-05-02T14:43:59.998Z</time></trkpt><trkpt lat="46.22049159685443" lon="11.971246128382468"><ele>1144.0</ele><time>2026-05-02T14:44:00.998Z</time></trkpt><trkpt lat="46.22042847306903" lon="11.97143950733713"><ele>1144.0</ele><time>2026-05-02T14:44:01.998Z</time></trkpt><trkpt lat="46.220379709683705" lon="11.971615895219733"><ele>1144.0</ele><time>2026-05-02T14:44:02.998Z</time></trkpt><trkpt lat="46.22031516129586" lon="11.971778131451792"><ele>1144.0</ele><time>2026-05-02T14:44:03.998Z</time></trkpt><trkpt lat="46.22023122685562" lon="11.971934443305262"><ele>1149.0</ele><time>2026-05-02T14:44:04.998Z</time></trkpt><trkpt lat="46.2201206516753" lon="11.972034075563515"><ele>1154.0</ele><time>2026-05-02T14:44:05.998Z</time></trkpt><trkpt lat="46.220003656393324" lon="11.972050268339737"><ele>1159.0</ele><time>2026-05-02T14:44:06.998Z</time></trkpt><trkpt lat="46.21987621137104" lon="11.972056954773333"><ele>1164.0</ele><time>2026-05-02T14:44:07.998Z</time></trkpt><trkpt lat="46.21971724092153" lon="11.97205539289697"><ele>1164.0</ele><time>2026-05-02T14:44:08.998Z</time></trkpt><trkpt lat="46.219553041263936" lon="11.972067210164326"><ele>1164.0</ele><time>2026-05-02T14:44:09.998Z</time></trkpt><trkpt lat="46.21939509864333" lon="11.972065039624894"><ele>1164.0</ele><time>2026-05-02T14:44:10.998Z</time></trkpt><trkpt lat="46.219252695237564" lon="11.972059588640342"><ele>1164.0</ele><time>2026-05-02T14:44:11.998Z</time></trkpt><trkpt lat="46.219112104518665" lon="11.9720495398576"><ele>1164.0</ele><time>2026-05-02T14:44:12.998Z</time></trkpt><trkpt lat="46.21898152075113" lon="11.972052980775867"><ele>1164.0</ele><time>2026-05-02T14:44:13.998Z</time></trkpt><trkpt lat="46.21885477609101" lon="11.972078476896138"><ele>1164.0</ele><time>2026-05-02T14:44:14.998Z</time></trkpt><trkpt lat="46.21872157406056" lon="11.97217404431909"><ele>1160.0</ele><time>2026-05-02T14:44:15.998Z</time></trkpt><trkpt lat="46.21857093102128" lon="11.972321850052788"><ele>1156.0</ele><time>2026-05-02T14:44:16.998Z</time></trkpt><trkpt lat="46.21842143894392" lon="11.972449507078332"><ele>1152.0</ele><time>2026-05-02T14:44:17.998Z</time></trkpt><trkpt lat="46.21828826323274" lon="11.972518567164979"><ele>1148.5</ele><time>2026-05-02T14:44:18.998Z</time></trkpt><trkpt lat="46.218190946987065" lon="11.97263611536597"><ele>1145.0</ele><time>2026-05-02T14:44:19.998Z</time></trkpt><trkpt lat="46.21809713413745" lon="11.972776192181803"><ele>1141.5</ele><time>2026-05-02T14:44:20.998Z</time></trkpt><trkpt lat="46.218005503099555" lon="11.972964992889942"><ele>1138.0</ele><time>2026-05-02T14:44:21.998Z</time></trkpt><trkpt lat="46.21790612862392" lon="11.973134015925107"><ele>1138.0</ele><time>2026-05-02T14:44:22.998Z</time></trkpt><trkpt lat="46.2177786596596" lon="11.97320567992494"><ele>1138.0</ele><time>2026-05-02T14:44:23.998Z</time></trkpt><trkpt lat="46.217676605683536" lon="11.973289564277396"><ele>1138.0</ele><time>2026-05-02T14:44:24.998Z</time></trkpt><trkpt lat="46.21760430062228" lon="11.973383614695813"><ele>1138.0</ele><time>2026-05-02T14:44:25.998Z</time></trkpt><trkpt lat="46.217534309645785" lon="11.973477809515844"><ele>1138.0</ele><time>2026-05-02T14:44:26.998Z</time></trkpt><trkpt lat="46.217495552939205" lon="11.973625283051655"><ele>1142.75</ele><time>2026-05-02T14:44:27.998Z</time></trkpt><trkpt lat="46.21748007528769" lon="11.973791266974793"><ele>1147.5</ele><time>2026-05-02T14:44:28.998Z</time></trkpt><trkpt lat="46.21744687670459" lon="11.973940106687452"><ele>1152.25</ele><time>2026-05-02T14:44:29.998Z</time></trkpt><trkpt lat="46.21744451030102" lon="11.974104708992861"><ele>1157.0</ele><time>2026-05-02T14:44:30.998Z</time></trkpt><trkpt lat="46.217467461382626" lon="11.974282261523156"><ele>1159.25</ele><time>2026-05-02T14:44:31.998Z</time></trkpt><trkpt lat="46.21746766132067" lon="11.974435938192231"><ele>1161.5</ele><time>2026-05-02T14:44:32.998Z</time></trkpt><trkpt lat="46.21740879156575" lon="11.974571267665956"><ele>1163.75</ele><time>2026-05-02T14:44:33.998Z</time></trkpt><trkpt lat="46.21735028662873" lon="11.97473291501423"><ele>1166.0</ele><time>2026-05-02T14:44:34.999Z</time></trkpt><trkpt lat="46.21729981676156" lon="11.974883053567766"><ele>1149.75</ele><time>2026-05-02T14:44:35.999Z</time></trkpt><trkpt lat="46.217272861393106" lon="11.975025681862897"><ele>1133.5</ele><time>2026-05-02T14:44:36.999Z</time></trkpt><trkpt lat="46.21724663014926" lon="11.975178322604544"><ele>1117.25</ele><time>2026-05-02T14:44:37.999Z</time></trkpt><trkpt lat="46.217254696602254" lon="11.97534279352626"><ele>1101.0</ele><time>2026-05-02T14:44:38.999Z</time></trkpt><trkpt lat="46.21729616938246" lon="11.975512311137681"><ele>1108.5</ele><time>2026-05-02T14:44:39.999Z</time></trkpt><trkpt lat="46.21736601532389" lon="11.97568083074848"><ele>1116.0</ele><time>2026-05-02T14:44:40.999Z</time></trkpt><trkpt lat="46.217444493580395" lon="11.97586109267306"><ele>1123.5</ele><time>2026-05-02T14:44:41.999Z</time></trkpt><trkpt lat="46.21749884634944" lon="11.976043231209786"><ele>1131.0</ele><time>2026-05-02T14:44:42.999Z</time></trkpt><trkpt lat="46.217574886596154" lon="11.976201356023271"><ele>1131.0</ele><time>2026-05-02T14:44:43.999Z</time></trkpt><trkpt lat="46.21760987652912" lon="11.976364220197112"><ele>1131.0</ele><time>2026-05-02T14:44:44.999Z</time></trkpt><trkpt lat="46.21764895291069" lon="11.976515943745262"><ele>1131.0</ele><time>2026-05-02T14:44:45.999Z</time></trkpt><trkpt lat="46.21769010714012" lon="11.97665167491251"><ele>1131.0</ele><time>2026-05-02T14:44:46.999Z</time></trkpt><trkpt lat="46.217724645350046" lon="11.97677613193561"><ele>1131.0</ele><time>2026-05-02T14:44:47.999Z</time></trkpt><trkpt lat="46.21778747742942" lon="11.976870113372398"><ele>1134.0</ele><time>2026-05-02T14:44:48.999Z</time></trkpt><trkpt lat="46.217892474492054" lon="11.976912885932562"><ele>1137.0</ele><time>2026-05-02T14:44:49.999Z</time></trkpt><trkpt lat="46.21803461875176" lon="11.976912597679394"><ele>1140.0</ele><time>2026-05-02T14:44:50.999Z</time></trkpt><trkpt lat="46.218172867151594" lon="11.976957413854363"><ele>1143.0</ele><time>2026-05-02T14:44:51.999Z</time></trkpt><trkpt lat="46.21828680572444" lon="11.97703109687927"><ele>1143.0</ele><time>2026-05-02T14:44:52.999Z</time></trkpt><trkpt lat="46.21838466481318" lon="11.977142387104204"><ele>1143.0</ele><time>2026-05-02T14:44:53.999Z</time></trkpt><trkpt lat="46.21845118943495" lon="11.977284114334616"><ele>1143.0</ele><time>2026-05-02T14:44:54.999Z</time></trkpt><trkpt lat="46.218503259139375" lon="11.977446031345666"><ele>1143.0</ele><time>2026-05-02T14:44:55.999Z</time></trkpt><trkpt lat="46.21855826247596" lon="11.9775950747139"><ele>1140.0</ele><time>2026-05-02T14:44:56.999Z</time></trkpt><trkpt lat="46.218636701117944" lon="11.977703426380868"><ele>1137.0</ele><time>2026-05-02T14:44:57.999Z</time></trkpt><trkpt lat="46.2187253764839" lon="11.97778671607926"><ele>1134.0</ele><time>2026-05-02T14:44:58.999Z</time></trkpt><trkpt lat="46.21882017977403" lon="11.977863878341264"><ele>1131.0</ele><time>2026-05-02T14:44:59.999Z</time></trkpt><trkpt lat="46.21892460069333" lon="11.977868726407698"><ele>1128.0</ele><time>2026-05-02T14:45:00.999Z</time></trkpt><trkpt lat="46.21902686786368" lon="11.977864548342504"><ele>1128.0</ele><time>2026-05-02T14:45:01.999Z</time></trkpt><trkpt lat="46.21914897227718" lon="11.977815901919966"><ele>1128.0</ele><time>2026-05-02T14:45:02.999Z</time></trkpt><trkpt lat="46.219270891136624" lon="11.977804812333726"><ele>1128.0</ele><time>2026-05-02T14:45:03.999Z</time></trkpt><trkpt lat="46.21938014155607" lon="11.977748909126722"><ele>1128.0</ele><time>2026-05-02T14:45:04.999Z</time></trkpt><trkpt lat="46.21949599599949" lon="11.97773296722194"><ele>1128.0</ele><time>2026-05-02T14:45:05.999Z</time></trkpt><trkpt lat="46.21959996000033" lon="11.977694066844156"><ele>1128.0</ele><time>2026-05-02T14:45:06.999Z</time></trkpt><trkpt lat="46.21969420008157" lon="11.977563939187393"><ele>1128.0</ele><time>2026-05-02T14:45:07.999Z</time></trkpt><trkpt lat="46.21978243998227" lon="11.97749174266067"><ele>1128.0</ele><time>2026-05-02T14:45:08.999Z</time></trkpt><trkpt lat="46.21987552369984" lon="11.977420499105607"><ele>1128.0</ele><time>2026-05-02T14:45:09.999Z</time></trkpt><trkpt lat="46.21997165629621" lon="11.977382521869556"><ele>1127.8</ele><time>2026-05-02T14:45:10.999Z</time></trkpt><trkpt lat="46.220060378018495" lon="11.977378983821618"><ele>1127.6</ele><time>2026-05-02T14:45:11.999Z</time></trkpt><trkpt lat="46.22013917751917" lon="11.977432642191154"><ele>1127.4</ele><time>2026-05-02T14:45:12.999Z</time></trkpt><trkpt lat="46.22020104413304" lon="11.977530653440025"><ele>1127.2</ele><time>2026-05-02T14:45:13.999Z</time></trkpt><trkpt lat="46.2202330605081" lon="11.977695349805673"><ele>1127.0</ele><time>2026-05-02T14:45:14.999Z</time></trkpt><trkpt lat="46.220275476095495" lon="11.977874307912629"><ele>1127.0</ele><time>2026-05-02T14:45:15.999Z</time></trkpt><trkpt lat="46.22031264830422" lon="11.978032198484367"><ele>1127.0</ele><time>2026-05-02T14:45:16.999Z</time></trkpt><trkpt lat="46.22034740415005" lon="11.978182899596034"><ele>1127.0</ele><time>2026-05-02T14:45:17.999Z</time></trkpt><trkpt lat="46.22038048611944" lon="11.978333339364422"><ele>1127.0</ele><time>2026-05-02T14:45:18.999Z</time></trkpt><trkpt lat="46.22042756349664" lon="11.978484050399642"><ele>1127.0</ele><time>2026-05-02T14:45:19.999Z</time></trkpt><trkpt lat="46.2204834220295" lon="11.978637059368111"><ele>1130.0</ele><time>2026-05-02T14:45:20.999Z</time></trkpt><trkpt lat="46.22057974522093" lon="11.978779442024878"><ele>1133.0</ele><time>2026-05-02T14:45:21.999Z</time></trkpt><trkpt lat="46.220685075665685" lon="11.978932449890808"><ele>1136.0</ele><time>2026-05-02T14:45:22.999Z</time></trkpt><trkpt lat="46.22080368017204" lon="11.979047551414023"><ele>1139.0</ele><time>2026-05-02T14:45:23.999Z</time></trkpt><trkpt lat="46.22092173560843" lon="11.979191148683006"><ele>1129.3333333333335</ele><time>2026-05-02T14:45:24.999Z</time></trkpt><trkpt lat="46.22105926010201" lon="11.979356769552428"><ele>1119.6666666666667</ele><time>2026-05-02T14:45:25.999Z</time></trkpt><trkpt lat="46.22118155279751" lon="11.97954389468094"><ele>1110.0</ele><time>2026-05-02T14:45:26.999Z</time></trkpt><trkpt lat="46.221326808360224" lon="11.979727661626248"><ele>1110.0</ele><time>2026-05-02T14:45:27.999Z</time></trkpt><trkpt lat="46.221468234541746" lon="11.979904126312688"><ele>1110.0</ele><time>2026-05-02T14:45:28.999Z</time></trkpt><trkpt lat="46.221603580733266" lon="11.980072029656036"><ele>1110.0</ele><time>2026-05-02T14:45:29.999Z</time></trkpt><trkpt lat="46.22173320473996" lon="11.98023137852237"><ele>1111.25</ele><time>2026-05-02T14:45:30.999Z</time></trkpt><trkpt lat="46.22185411935758" lon="11.980379977556364"><ele>1112.5</ele><time>2026-05-02T14:45:31.999Z</time></trkpt><trkpt lat="46.221964250597665" lon="11.9805152048718"><ele>1113.75</ele><time>2026-05-02T14:45:32.999Z</time></trkpt><trkpt lat="46.22206739261949" lon="11.9806370948835"><ele>1115.0</ele><time>2026-05-02T14:45:33.999Z</time></trkpt><trkpt lat="46.22217049384939" lon="11.98071678084127"><ele>1115.0</ele><time>2026-05-02T14:45:34.999Z</time></trkpt><trkpt lat="46.22229173465057" lon="11.980734338250029"><ele>1115.0</ele><time>2026-05-02T14:45:35.999Z</time></trkpt><trkpt lat="46.22242277307131" lon="11.980659437070983"><ele>1115.0</ele><time>2026-05-02T14:45:36.999Z</time></trkpt><trkpt lat="46.2225465373798" lon="11.980543065439216"><ele>1115.0</ele><time>2026-05-02T14:45:37.999Z</time></trkpt><trkpt lat="46.22266514976306" lon="11.980444143688931"><ele>1118.4</ele><time>2026-05-02T14:45:38.999Z</time></trkpt><trkpt lat="46.22275481953538" lon="11.980343449547949"><ele>1121.8</ele><time>2026-05-02T14:45:39.999Z</time></trkpt><trkpt lat="46.22284033585507" lon="11.9802549038284"><ele>1125.2</ele><time>2026-05-02T14:45:40.999Z</time></trkpt><trkpt lat="46.22291993731605" lon="11.980170540094038"><ele>1128.6</ele><time>2026-05-02T14:45:41.999Z</time></trkpt><trkpt lat="46.223017190451344" lon="11.980189973914797"><ele>1132.0</ele><time>2026-05-02T14:45:42.999Z</time></trkpt><trkpt lat="46.22311810367865" lon="11.980232494905781"><ele>1129.4</ele><time>2026-05-02T14:45:43.999Z</time></trkpt><trkpt lat="46.22321074610204" lon="11.980290843270089"><ele>1126.8000000000002</ele><time>2026-05-02T14:45:44.999Z</time></trkpt><trkpt lat="46.2232981280434" lon="11.980325220546268"><ele>1124.2</ele><time>2026-05-02T14:45:45.999Z</time></trkpt><trkpt lat="46.22339550054234" lon="11.980361285034153"><ele>1121.6000000000001</ele><time>2026-05-02T14:45:46.999Z</time></trkpt><trkpt lat="46.223498034875" lon="11.98029129491283"><ele>1119.0</ele><time>2026-05-02T14:45:47.999Z</time></trkpt><trkpt lat="46.223595014885596" lon="11.980222480418004"><ele>1119.0</ele><time>2026-05-02T14:45:48.999Z</time></trkpt><trkpt lat="46.22368769759574" lon="11.980164840730367"><ele>1119.0</ele><time>2026-05-02T14:45:49.999Z</time></trkpt><trkpt lat="46.22378526211913" lon="11.980133378992884"><ele>1119.0</ele><time>2026-05-02T14:45:50.999Z</time></trkpt><trkpt lat="46.2238906476403" lon="11.980165570232083"><ele>1119.0</ele><time>2026-05-02T14:45:51.999Z</time></trkpt><trkpt lat="46.22397849181641" lon="11.980247680502785"><ele>1119.0</ele><time>2026-05-02T14:45:52.998Z</time></trkpt><trkpt lat="46.22402939994144" lon="11.9803923620786"><ele>1120.75</ele><time>2026-05-02T14:45:53.998Z</time></trkpt><trkpt lat="46.224101605160556" lon="11.980541624586285"><ele>1122.5</ele><time>2026-05-02T14:45:54.998Z</time></trkpt><trkpt lat="46.22416092845115" lon="11.980724007451833"><ele>1124.25</ele><time>2026-05-02T14:45:55.998Z</time></trkpt><trkpt lat="46.224215828787365" lon="11.980903326463965"><ele>1126.0</ele><time>2026-05-02T14:45:56.998Z</time></trkpt><trkpt lat="46.22425051421268" lon="11.981085587675302"><ele>1119.5</ele><time>2026-05-02T14:45:57.998Z</time></trkpt><trkpt lat="46.224284557290055" lon="11.981263805390226"><ele>1113.0</ele><time>2026-05-02T14:45:58.998Z</time></trkpt><trkpt lat="46.22431317943571" lon="11.981420725752589"><ele>1106.5</ele><time>2026-05-02T14:45:59.998Z</time></trkpt><trkpt lat="46.22433556170748" lon="11.98157378922291"><ele>1100.0</ele><time>2026-05-02T14:46:00.998Z</time></trkpt><trkpt lat="46.22437675266132" lon="11.981719176627045"><ele>1100.5</ele><time>2026-05-02T14:46:01.998Z</time></trkpt><trkpt lat="46.22445722594531" lon="11.981851986958457"><ele>1101.0</ele><time>2026-05-02T14:46:02.998Z</time></trkpt><trkpt lat="46.224575150341266" lon="11.981957925665933"><ele>1101.5</ele><time>2026-05-02T14:46:03.998Z</time></trkpt><trkpt lat="46.22471312435144" lon="11.982040418073154"><ele>1102.0</ele><time>2026-05-02T14:46:04.998Z</time></trkpt><trkpt lat="46.224836430955854" lon="11.982111767380399"><ele>1102.0</ele><time>2026-05-02T14:46:05.998Z</time></trkpt><trkpt lat="46.22495484916396" lon="11.982172495205482"><ele>1102.0</ele><time>2026-05-02T14:46:06.998Z</time></trkpt><trkpt lat="46.22506989981565" lon="11.982216219275525"><ele>1102.0</ele><time>2026-05-02T14:46:07.998Z</time></trkpt><trkpt lat="46.225200828624445" lon="11.982214438228263"><ele>1102.0</ele><time>2026-05-02T14:46:08.998Z</time></trkpt><trkpt lat="46.22533935294038" lon="11.982169774145971"><ele>1102.0</ele><time>2026-05-02T14:46:09.998Z</time></trkpt><trkpt lat="46.22546503272458" lon="11.982141710846484"><ele>1102.0</ele><time>2026-05-02T14:46:10.998Z</time></trkpt><trkpt lat="46.22557155381252" lon="11.98216688077313"><ele>1102.0</ele><time>2026-05-02T14:46:11.998Z</time></trkpt><trkpt lat="46.22567266582521" lon="11.982231155097997"><ele>1102.0</ele><time>2026-05-02T14:46:12.998Z</time></trkpt><trkpt lat="46.225761008417216" lon="11.982248798380455"><ele>1102.0</ele><time>2026-05-02T14:46:13.998Z</time></trkpt><trkpt lat="46.22586110980558" lon="11.982260720681273"><ele>1101.2</ele><time>2026-05-02T14:46:14.998Z</time></trkpt><trkpt lat="46.22596843983737" lon="11.982242211872594"><ele>1100.4</ele><time>2026-05-02T14:46:15.998Z</time></trkpt><trkpt lat="46.22608181811801" lon="11.98218698673643"><ele>1099.6</ele><time>2026-05-02T14:46:16.998Z</time></trkpt><trkpt lat="46.226174423812054" lon="11.982130462407417"><ele>1098.8</ele><time>2026-05-02T14:46:17.998Z</time></trkpt><trkpt lat="46.226284813706904" lon="11.982145017229275"><ele>1098.0</ele><time>2026-05-02T14:46:18.998Z</time></trkpt><trkpt lat="46.22642589079094" lon="11.982166132856914"><ele>1095.8</ele><time>2026-05-02T14:46:19.998Z</time></trkpt><trkpt lat="46.22653112844264" lon="11.982186022922079"><ele>1093.6</ele><time>2026-05-02T14:46:20.998Z</time></trkpt><trkpt lat="46.22662048358961" lon="11.98217979777909"><ele>1091.4</ele><time>2026-05-02T14:46:21.998Z</time></trkpt><trkpt lat="46.22671043402659" lon="11.982165762506558"><ele>1089.2</ele><time>2026-05-02T14:46:22.998Z</time></trkpt><trkpt lat="46.226803785502824" lon="11.982146226916607"><ele>1087.0</ele><time>2026-05-02T14:46:23.998Z</time></trkpt><trkpt lat="46.22690278731946" lon="11.982148419123531"><ele>1087.0</ele><time>2026-05-02T14:46:24.998Z</time></trkpt><trkpt lat="46.22700676632269" lon="11.982123130324288"><ele>1087.0</ele><time>2026-05-02T14:46:25.998Z</time></trkpt><trkpt lat="46.22710628466386" lon="11.982148255141142"><ele>1087.0</ele><time>2026-05-02T14:46:26.998Z</time></trkpt><trkpt lat="46.227205101158454" lon="11.982182477231078"><ele>1087.0</ele><time>2026-05-02T14:46:27.998Z</time></trkpt><trkpt lat="46.227291113880504" lon="11.982246010510256"><ele>1087.0</ele><time>2026-05-02T14:46:28.998Z</time></trkpt><trkpt lat="46.2273748091536" lon="11.98228724025221"><ele>1089.0</ele><time>2026-05-02T14:46:29.998Z</time></trkpt><trkpt lat="46.22745375156085" lon="11.982327807588243"><ele>1091.0</ele><time>2026-05-02T14:46:30.998Z</time></trkpt><trkpt lat="46.227541653899905" lon="11.982364982200584"><ele>1093.0</ele><time>2026-05-02T14:46:31.998Z</time></trkpt><trkpt lat="46.227595725582304" lon="11.98246043267982"><ele>1095.0</ele><time>2026-05-02T14:46:32.998Z</time></trkpt><trkpt lat="46.227619535417304" lon="11.982580517944546"><ele>1097.0</ele><time>2026-05-02T14:46:33.998Z</time></trkpt><trkpt lat="46.227618340762184" lon="11.982709586043361"><ele>1099.0</ele><time>2026-05-02T14:46:34.998Z</time></trkpt><trkpt lat="46.22757451153628" lon="11.982824375032706"><ele>1099.0</ele><time>2026-05-02T14:46:35.998Z</time></trkpt><trkpt lat="46.22749843301807" lon="11.982883913378474"><ele>1099.0</ele><time>2026-05-02T14:46:36.998Z</time></trkpt><trkpt lat="46.22740882499162" lon="11.982944066554598"><ele>1099.0</ele><time>2026-05-02T14:46:37.998Z</time></trkpt><trkpt lat="46.22734944479917" lon="11.983028196544252"><ele>1099.0</ele><time>2026-05-02T14:46:38.998Z</time></trkpt><trkpt lat="46.227322181047185" lon="11.98314409698177"><ele>1099.0</ele><time>2026-05-02T14:46:39.998Z</time></trkpt><trkpt lat="46.22733361932019" lon="11.98326584075029"><ele>1099.0</ele><time>2026-05-02T14:46:40.999Z</time></trkpt><trkpt lat="46.227388240969816" lon="11.983381697295796"><ele>1094.5</ele><time>2026-05-02T14:46:41.999Z</time></trkpt><trkpt lat="46.227457318185955" lon="11.983524443206404"><ele>1090.0</ele><time>2026-05-02T14:46:42.999Z</time></trkpt><trkpt lat="46.22753080262169" lon="11.983682344222233"><ele>1085.5</ele><time>2026-05-02T14:46:43.999Z</time></trkpt><trkpt lat="46.22760311836176" lon="11.983844736788782"><ele>1081.0</ele><time>2026-05-02T14:46:44.999Z</time></trkpt><trkpt lat="46.227673401432504" lon="11.98400413902476"><ele>1081.0</ele><time>2026-05-02T14:46:45.999Z</time></trkpt><trkpt lat="46.2277484964905" lon="11.984167260398422"><ele>1081.0</ele><time>2026-05-02T14:46:46.999Z</time></trkpt><trkpt lat="46.22782287234651" lon="11.98433527165645"><ele>1081.0</ele><time>2026-05-02T14:46:47.999Z</time></trkpt><trkpt lat="46.22789681469167" lon="11.984500917505134"><ele>1081.0</ele><time>2026-05-02T14:46:48.999Z</time></trkpt><trkpt lat="46.22797760260405" lon="11.984660218344803"><ele>1077.75</ele><time>2026-05-02T14:46:49.999Z</time></trkpt><trkpt lat="46.228029696987605" lon="11.98483221845449"><ele>1074.5</ele><time>2026-05-02T14:46:50.999Z</time></trkpt><trkpt lat="46.22808716759876" lon="11.984995193590247"><ele>1071.25</ele><time>2026-05-02T14:46:51.999Z</time></trkpt><trkpt lat="46.22810176439123" lon="11.985195324259053"><ele>1068.0</ele><time>2026-05-02T14:46:52.999Z</time></trkpt><trkpt lat="46.228066176695044" lon="11.985407419209373"><ele>1066.0</ele><time>2026-05-02T14:46:53.999Z</time></trkpt><trkpt lat="46.22802933147734" lon="11.98561090359192"><ele>1064.0</ele><time>2026-05-02T14:46:54.999Z</time></trkpt><trkpt lat="46.228006561105424" lon="11.98581201483808"><ele>1062.0</ele><time>2026-05-02T14:46:55.999Z</time></trkpt><trkpt lat="46.22796939035287" lon="11.985984365362109"><ele>1060.0</ele><time>2026-05-02T14:46:56.999Z</time></trkpt><trkpt lat="46.22794677491336" lon="11.986152170774261"><ele>1059.6</ele><time>2026-05-02T14:46:57.999Z</time></trkpt><trkpt lat="46.2279357464757" lon="11.98628169618482"><ele>1059.2</ele><time>2026-05-02T14:46:58.999Z</time></trkpt><trkpt lat="46.22795476303455" lon="11.986410083458075"><ele>1058.8</ele><time>2026-05-02T14:46:59.999Z</time></trkpt><trkpt lat="46.22801061033471" lon="11.986522958962377"><ele>1058.4</ele><time>2026-05-02T14:47:00.999Z</time></trkpt><trkpt lat="46.22809507127743" lon="11.986595089770967"><ele>1058.0</ele><time>2026-05-02T14:47:01.999Z</time></trkpt><trkpt lat="46.22820942532846" lon="11.986620575721052"><ele>1061.5</ele><time>2026-05-02T14:47:02.999Z</time></trkpt><trkpt lat="46.228347511508574" lon="11.986674561914697"><ele>1065.0</ele><time>2026-05-02T14:47:03.999Z</time></trkpt><trkpt lat="46.22847461061107" lon="11.986697428007396"><ele>1068.5</ele><time>2026-05-02T14:47:04.999Z</time></trkpt><trkpt lat="46.22857605323104" lon="11.98673568032604"><ele>1072.0</ele><time>2026-05-02T14:47:05.999Z</time></trkpt><trkpt lat="46.22864818004597" lon="11.98680128149142"><ele>1072.0</ele><time>2026-05-02T14:47:06.999Z</time></trkpt><trkpt lat="46.22867299915499" lon="11.986933981450543"><ele>1072.0</ele><time>2026-05-02T14:47:07.999Z</time></trkpt><trkpt lat="46.22866204422526" lon="11.987067107766734"><ele>1072.0</ele><time>2026-05-02T14:47:08.999Z</time></trkpt><trkpt lat="46.22861297465061" lon="11.987187460729759"><ele>1072.0</ele><time>2026-05-02T14:47:09.999Z</time></trkpt><trkpt lat="46.22853574263203" lon="11.987292236988672"><ele>1072.0</ele><time>2026-05-02T14:47:10.999Z</time></trkpt><trkpt lat="46.22848730139044" lon="11.987435346625366"><ele>1071.0</ele><time>2026-05-02T14:47:11.999Z</time></trkpt><trkpt lat="46.22846181579611" lon="11.987572081116692"><ele>1070.0</ele><time>2026-05-02T14:47:12.999Z</time></trkpt><trkpt lat="46.22845293035622" lon="11.987707854581167"><ele>1069.0</ele><time>2026-05-02T14:47:13.999Z</time></trkpt><trkpt lat="46.22844154493697" lon="11.987842182979808"><ele>1068.0</ele><time>2026-05-02T14:47:14.999Z</time></trkpt><trkpt lat="46.228488346764834" lon="11.987973936630311"><ele>1067.0</ele><time>2026-05-02T14:47:15.999Z</time></trkpt><trkpt lat="46.228565702842545" lon="11.988097607108964"><ele>1067.0</ele><time>2026-05-02T14:47:16.999Z</time></trkpt><trkpt lat="46.22865107326572" lon="11.988215323341077"><ele>1067.0</ele><time>2026-05-02T14:47:17.999Z</time></trkpt><trkpt lat="46.228711520804104" lon="11.988334943125102"><ele>1067.0</ele><time>2026-05-02T14:47:18.999Z</time></trkpt><trkpt lat="46.22875457574664" lon="11.988465994776416"><ele>1067.0</ele><time>2026-05-02T14:47:19.999Z</time></trkpt><trkpt lat="46.22875114840103" lon="11.988611642900695"><ele>1067.0</ele><time>2026-05-02T14:47:20.999Z</time></trkpt><trkpt lat="46.22867515301675" lon="11.988695695295021"><ele>1065.75</ele><time>2026-05-02T14:47:21.999Z</time></trkpt><trkpt lat="46.228623592503084" lon="11.98882311856435"><ele>1064.5</ele><time>2026-05-02T14:47:22.999Z</time></trkpt><trkpt lat="46.228579732666944" lon="11.98897260340598"><ele>1063.25</ele><time>2026-05-02T14:47:23.999Z</time></trkpt><trkpt lat="46.228567880824265" lon="11.989144621767643"><ele>1062.0</ele><time>2026-05-02T14:47:24.999Z</time></trkpt><trkpt lat="46.22857450449265" lon="11.989318438625956"><ele>1059.75</ele><time>2026-05-02T14:47:25.999Z</time></trkpt><trkpt lat="46.22858790743667" lon="11.989495230807272"><ele>1057.5</ele><time>2026-05-02T14:47:26.999Z</time></trkpt><trkpt lat="46.22860194963797" lon="11.989680455724367"><ele>1055.25</ele><time>2026-05-02T14:47:27.999Z</time></trkpt><trkpt lat="46.22862242100839" lon="11.989820551367679"><ele>1053.0</ele><time>2026-05-02T14:47:28.999Z</time></trkpt><trkpt lat="46.228630737852455" lon="11.989978438186625"><ele>1051.6666666666667</ele><time>2026-05-02T14:47:29.999Z</time></trkpt><trkpt lat="46.22862390146105" lon="11.990137723376485"><ele>1050.3333333333333</ele><time>2026-05-02T14:47:30.999Z</time></trkpt><trkpt lat="46.228597110938885" lon="11.990264093240858"><ele>1049.0</ele><time>2026-05-02T14:47:31.999Z</time></trkpt><trkpt lat="46.22856805593596" lon="11.990373791344474"><ele>1047.6666666666665</ele><time>2026-05-02T14:47:32.999Z</time></trkpt><trkpt lat="46.22857224524336" lon="11.990477699258658"><ele>1046.3333333333333</ele><time>2026-05-02T14:47:33.999Z</time></trkpt><trkpt lat="46.228625030248104" lon="11.990573896518205"><ele>1045.0</ele><time>2026-05-02T14:47:34.999Z</time></trkpt><trkpt lat="46.228726860959476" lon="11.990641143163012"><ele>1045.0</ele><time>2026-05-02T14:47:35.999Z</time></trkpt><trkpt lat="46.22885206751618" lon="11.990696362739259"><ele>1045.0</ele><time>2026-05-02T14:47:36.999Z</time></trkpt><trkpt lat="46.22896146782253" lon="11.99076068750502"><ele>1045.0</ele><time>2026-05-02T14:47:37.999Z</time></trkpt><trkpt lat="46.22906218907814" lon="11.990854916339051"><ele>1045.0</ele><time>2026-05-02T14:47:38.999Z</time></trkpt><trkpt lat="46.229143985249856" lon="11.990996548692044"><ele>1044.5</ele><time>2026-05-02T14:47:39.999Z</time></trkpt><trkpt lat="46.22917296310882" lon="11.991169394331253"><ele>1044.0</ele><time>2026-05-02T14:47:40.999Z</time></trkpt><trkpt lat="46.22919113018026" lon="11.991335422128284"><ele>1043.5</ele><time>2026-05-02T14:47:41.999Z</time></trkpt><trkpt lat="46.22918423541623" lon="11.99151169027243"><ele>1043.0</ele><time>2026-05-02T14:47:42.999Z</time></trkpt><trkpt lat="46.22919671962956" lon="11.991684206231616"><ele>1043.0</ele><time>2026-05-02T14:47:43.999Z</time></trkpt><trkpt lat="46.22920913372039" lon="11.991870441635523"><ele>1043.0</ele><time>2026-05-02T14:47:44.999Z</time></trkpt><trkpt lat="46.22925020618659" lon="11.99208186425773"><ele>1043.0</ele><time>2026-05-02T14:47:45.999Z</time></trkpt><trkpt lat="46.22931969195756" lon="11.992292324679786"><ele>1043.0</ele><time>2026-05-02T14:47:46.999Z</time></trkpt><trkpt lat="46.22939672022188" lon="11.992492298693444"><ele>1041.0</ele><time>2026-05-02T14:47:47.999Z</time></trkpt><trkpt lat="46.22947067294324" lon="11.992681514316272"><ele>1039.0</ele><time>2026-05-02T14:47:48.999Z</time></trkpt><trkpt lat="46.22954673052826" lon="11.992852768607323"><ele>1037.0</ele><time>2026-05-02T14:47:49.999Z</time></trkpt><trkpt lat="46.229577524991335" lon="11.993041903012175"><ele>1035.0</ele><time>2026-05-02T14:47:50.999Z</time></trkpt><trkpt lat="46.2295839408572" lon="11.99325190715308"><ele>1035.25</ele><time>2026-05-02T14:47:51.999Z</time></trkpt><trkpt lat="46.22957546003479" lon="11.99345160261332"><ele>1035.5</ele><time>2026-05-02T14:47:52.999Z</time></trkpt><trkpt lat="46.22956680583058" lon="11.993639551318296"><ele>1035.75</ele><time>2026-05-02T14:47:53.999Z</time></trkpt><trkpt lat="46.229552471686965" lon="11.993820023881002"><ele>1036.0</ele><time>2026-05-02T14:47:54.999Z</time></trkpt><trkpt lat="46.22951178889046" lon="11.993977946294073"><ele>1036.0</ele><time>2026-05-02T14:47:55.999Z</time></trkpt><trkpt lat="46.2294323824539" lon="11.994085617384606"><ele>1036.0</ele><time>2026-05-02T14:47:56.999Z</time></trkpt><trkpt lat="46.22933471197729" lon="11.994155653474794"><ele>1036.0</ele><time>2026-05-02T14:47:57.999Z</time></trkpt><trkpt lat="46.22924276993524" lon="11.994216733274062"><ele>1036.0</ele><time>2026-05-02T14:47:58.999Z</time></trkpt><trkpt lat="46.229180823719325" lon="11.994265241044383"><ele>1036.0</ele><time>2026-05-02T14:47:59.999Z</time></trkpt><trkpt lat="46.22911180880271" lon="11.994313796435149"><ele>1035.75</ele><time>2026-05-02T14:48:00.999Z</time></trkpt><trkpt lat="46.22905108762613" lon="11.994424317163435"><ele>1035.5</ele><time>2026-05-02T14:48:01.999Z</time></trkpt><trkpt lat="46.22901584470927" lon="11.994618732158806"><ele>1035.25</ele><time>2026-05-02T14:48:02.999Z</time></trkpt><trkpt lat="46.22903149367268" lon="11.994824690420351"><ele>1035.0</ele><time>2026-05-02T14:48:03.999Z</time></trkpt><trkpt lat="46.22909302400087" lon="11.99502580079541"><ele>1035.0</ele><time>2026-05-02T14:48:04.999Z</time></trkpt><trkpt lat="46.22913906499448" lon="11.995136548756632"><ele>1035.0</ele><time>2026-05-02T14:48:05.999Z</time></trkpt><trkpt lat="46.22917405111809" lon="11.995237876927227"><ele>1035.0</ele><time>2026-05-02T14:48:06.999Z</time></trkpt><trkpt lat="46.22921144947812" lon="11.995361165602974"><ele>1035.0</ele><time>2026-05-02T14:48:07.999Z</time></trkpt><trkpt lat="46.229178992124424" lon="11.99571771514771"><ele>1034.5</ele><time>2026-05-02T14:48:09.999Z</time></trkpt><trkpt lat="46.2291871811934" lon="11.995897740614915"><ele>1034.0</ele><time>2026-05-02T14:48:10.999Z</time></trkpt><trkpt lat="46.22917849324265" lon="11.99606802400296"><ele>1033.5</ele><time>2026-05-02T14:48:11.999Z</time></trkpt><trkpt lat="46.22916803831546" lon="11.996236047091061"><ele>1033.0</ele><time>2026-05-02T14:48:12.999Z</time></trkpt><trkpt lat="46.22913027282092" lon="11.996388930566244"><ele>1033.0</ele><time>2026-05-02T14:48:13.999Z</time></trkpt><trkpt lat="46.229093929159355" lon="11.996532661596639"><ele>1033.0</ele><time>2026-05-02T14:48:14.999Z</time></trkpt><trkpt lat="46.22905719419977" lon="11.996691650728463"><ele>1033.0</ele><time>2026-05-02T14:48:15.999Z</time></trkpt><trkpt lat="46.22900202317584" lon="11.996859722952053"><ele>1033.0</ele><time>2026-05-02T14:48:16.999Z</time></trkpt><trkpt lat="46.2289475940567" lon="11.997029785205193"><ele>1028.25</ele><time>2026-05-02T14:48:17.999Z</time></trkpt><trkpt lat="46.22888911735478" lon="11.9972042578906"><ele>1023.5</ele><time>2026-05-02T14:48:18.999Z</time></trkpt><trkpt lat="46.22880018824297" lon="11.997349153620728"><ele>1018.75</ele><time>2026-05-02T14:48:19.999Z</time></trkpt><trkpt lat="46.22869490490366" lon="11.997428873154602"><ele>1014.0</ele><time>2026-05-02T14:48:20.999Z</time></trkpt><trkpt lat="46.22857691635732" lon="11.997478935408711"><ele>1018.0</ele><time>2026-05-02T14:48:21.998Z</time></trkpt><trkpt lat="46.228452827440684" lon="11.997519031984472"><ele>1022.0</ele><time>2026-05-02T14:48:22.998Z</time></trkpt><trkpt lat="46.22834413248535" lon="11.997569263070465"><ele>1026.0</ele><time>2026-05-02T14:48:23.998Z</time></trkpt><trkpt lat="46.22825238015723" lon="11.997642047237544"><ele>1030.0</ele><time>2026-05-02T14:48:24.998Z</time></trkpt><trkpt lat="46.22816659046399" lon="11.997745990004713"><ele>1019.75</ele><time>2026-05-02T14:48:25.998Z</time></trkpt><trkpt lat="46.22809462646299" lon="11.9979059427076"><ele>1009.5</ele><time>2026-05-02T14:48:26.998Z</time></trkpt><trkpt lat="46.22803495771761" lon="11.998096593499193"><ele>999.25</ele><time>2026-05-02T14:48:27.998Z</time></trkpt><trkpt lat="46.22799074526699" lon="11.998279616263842"><ele>989.0</ele><time>2026-05-02T14:48:28.998Z</time></trkpt><trkpt lat="46.22795369803983" lon="11.998445065352929"><ele>986.75</ele><time>2026-05-02T14:48:29.998Z</time></trkpt><trkpt lat="46.22792743073259" lon="11.99859408213748"><ele>984.5</ele><time>2026-05-02T14:48:30.998Z</time></trkpt><trkpt lat="46.22792067083288" lon="11.998759454744095"><ele>982.25</ele><time>2026-05-02T14:48:31.998Z</time></trkpt><trkpt lat="46.227953028436566" lon="11.998943723763832"><ele>980.0</ele><time>2026-05-02T14:48:32.998Z</time></trkpt><trkpt lat="46.22803096870652" lon="11.999130421109262"><ele>978.0</ele><time>2026-05-02T14:48:33.998Z</time></trkpt><trkpt lat="46.228119046110756" lon="11.999324000034491"><ele>976.0</ele><time>2026-05-02T14:48:34.998Z</time></trkpt><trkpt lat="46.22818649066075" lon="11.99950281329452"><ele>974.0</ele><time>2026-05-02T14:48:35.998Z</time></trkpt><trkpt lat="46.22824619165098" lon="11.999692246238045"><ele>972.0</ele><time>2026-05-02T14:48:36.998Z</time></trkpt><trkpt lat="46.22826806171811" lon="11.999895708602535"><ele>981.75</ele><time>2026-05-02T14:48:37.998Z</time></trkpt><trkpt lat="46.22828578400237" lon="12.000085524187291"><ele>991.5</ele><time>2026-05-02T14:48:38.998Z</time></trkpt><trkpt lat="46.22829764714655" lon="12.000269295751606"><ele>1001.25</ele><time>2026-05-02T14:48:39.998Z</time></trkpt><trkpt lat="46.228323844988154" lon="12.000441686008894"><ele>1011.0</ele><time>2026-05-02T14:48:40.998Z</time></trkpt><trkpt lat="46.22834833368991" lon="12.000628835526566"><ele>1011.0</ele><time>2026-05-02T14:48:41.998Z</time></trkpt><trkpt lat="46.22841537692363" lon="12.00082555472"><ele>1011.0</ele><time>2026-05-02T14:48:42.998Z</time></trkpt><trkpt lat="46.228500285838955" lon="12.00103741050004"><ele>1011.0</ele><time>2026-05-02T14:48:43.998Z</time></trkpt><trkpt lat="46.228576227150185" lon="12.001257567108249"><ele>1009.25</ele><time>2026-05-02T14:48:44.998Z</time></trkpt><trkpt lat="46.22865311178971" lon="12.001434081598235"><ele>1007.5</ele><time>2026-05-02T14:48:45.998Z</time></trkpt><trkpt lat="46.22871545348088" lon="12.001617676632316"><ele>1005.75</ele><time>2026-05-02T14:48:47Z</time></trkpt><trkpt lat="46.228761057288175" lon="12.001803463699618"><ele>1004.0</ele><time>2026-05-02T14:48:48Z</time></trkpt><trkpt lat="46.22881883132284" lon="12.001974162023846"><ele>1004.25</ele><time>2026-05-02T14:48:49Z</time></trkpt><trkpt lat="46.22888177652075" lon="12.002141771976763"><ele>1004.5</ele><time>2026-05-02T14:48:50Z</time></trkpt><trkpt lat="46.22896435034808" lon="12.00229628201684"><ele>1004.75</ele><time>2026-05-02T14:48:51Z</time></trkpt><trkpt lat="46.22904334226112" lon="12.002457196062117"><ele>1005.0</ele><time>2026-05-02T14:48:52Z</time></trkpt><trkpt lat="46.229129890024154" lon="12.002631893637288"><ele>1005.0</ele><time>2026-05-02T14:48:53Z</time></trkpt><trkpt lat="46.22920863246629" lon="12.002817984940208"><ele>1005.0</ele><time>2026-05-02T14:48:54Z</time></trkpt><trkpt lat="46.229236014855246" lon="12.003027689404894"><ele>1005.0</ele><time>2026-05-02T14:48:55Z</time></trkpt><trkpt lat="46.22926960883737" lon="12.003234293970108"><ele>1005.0</ele><time>2026-05-02T14:48:56Z</time></trkpt><trkpt lat="46.2292761381799" lon="12.003429158818971"><ele>1003.5</ele><time>2026-05-02T14:48:57Z</time></trkpt><trkpt lat="46.22928767615539" lon="12.003617813635662"><ele>1002.0</ele><time>2026-05-02T14:48:58Z</time></trkpt><trkpt lat="46.22930896088863" lon="12.003814489195209"><ele>1000.5</ele><time>2026-05-02T14:48:59Z</time></trkpt><trkpt lat="46.22932144398381" lon="12.004007197216039"><ele>999.0</ele><time>2026-05-02T14:49:00Z</time></trkpt><trkpt lat="46.2293352915551" lon="12.004180064383903"><ele>996.75</ele><time>2026-05-02T14:49:01Z</time></trkpt><trkpt lat="46.22935429026146" lon="12.004353621511372"><ele>994.5</ele><time>2026-05-02T14:49:02Z</time></trkpt><trkpt lat="46.22939802317682" lon="12.00454548781896"><ele>992.25</ele><time>2026-05-02T14:49:03Z</time></trkpt><trkpt lat="46.22947948672419" lon="12.00473696552697"><ele>990.0</ele><time>2026-05-02T14:49:04Z</time></trkpt><trkpt lat="46.22956417865961" lon="12.00488720762614"><ele>987.5</ele><time>2026-05-02T14:49:05Z</time></trkpt><trkpt lat="46.22965448198394" lon="12.005035693141945"><ele>985.0</ele><time>2026-05-02T14:49:06Z</time></trkpt><trkpt lat="46.22975779814224" lon="12.005167906988616"><ele>982.5</ele><time>2026-05-02T14:49:07Z</time></trkpt><trkpt lat="46.22984308812645" lon="12.005328316129276"><ele>980.0</ele><time>2026-05-02T14:49:08Z</time></trkpt><trkpt lat="46.22992762632108" lon="12.005489159482584"><ele>988.0</ele><time>2026-05-02T14:49:09Z</time></trkpt><trkpt lat="46.22998474475425" lon="12.005696529934909"><ele>996.0</ele><time>2026-05-02T14:49:10Z</time></trkpt><trkpt lat="46.230033739332235" lon="12.005929330835164"><ele>1004.0</ele><time>2026-05-02T14:49:11Z</time></trkpt><trkpt lat="46.23007425761457" lon="12.006166753529964"><ele>1004.0</ele><time>2026-05-02T14:49:12Z</time></trkpt><trkpt lat="46.23012372349249" lon="12.006365638712351"><ele>1004.0</ele><time>2026-05-02T14:49:13Z</time></trkpt><trkpt lat="46.23015407463056" lon="12.006554996454703"><ele>1004.0</ele><time>2026-05-02T14:49:14Z</time></trkpt><trkpt lat="46.23016177709717" lon="12.006750151838135"><ele>1004.0</ele><time>2026-05-02T14:49:15Z</time></trkpt><trkpt lat="46.23016313186838" lon="12.006949183259449"><ele>1003.0</ele><time>2026-05-02T14:49:16Z</time></trkpt><trkpt lat="46.2301265190573" lon="12.007163327331078"><ele>1002.0</ele><time>2026-05-02T14:49:17Z</time></trkpt><trkpt lat="46.23007265356605" lon="12.00734676784638"><ele>1001.0</ele><time>2026-05-02T14:49:18Z</time></trkpt><trkpt lat="46.23003428080047" lon="12.007548110142986"><ele>1000.0</ele><time>2026-05-02T14:49:19Z</time></trkpt><trkpt lat="46.230006497857545" lon="12.007752863775464"><ele>1000.0</ele><time>2026-05-02T14:49:20Z</time></trkpt><trkpt lat="46.23000656399592" lon="12.007973618895909"><ele>1000.0</ele><time>2026-05-02T14:49:21Z</time></trkpt><trkpt lat="46.23000889809221" lon="12.00818232107365"><ele>1000.0</ele><time>2026-05-02T14:49:22Z</time></trkpt><trkpt lat="46.23000310892125" lon="12.008369326892192"><ele>1000.0</ele><time>2026-05-02T14:49:23Z</time></trkpt><trkpt lat="46.23000199132603" lon="12.00855313104876"><ele>1000.0</ele><time>2026-05-02T14:49:24Z</time></trkpt><trkpt lat="46.23001775524466" lon="12.008748408714348"><ele>1000.0</ele><time>2026-05-02T14:49:25Z</time></trkpt><trkpt lat="46.23005081586347" lon="12.008928637340368"><ele>1000.0</ele><time>2026-05-02T14:49:26Z</time></trkpt><trkpt lat="46.23010282365596" lon="12.00910927033806"><ele>1000.0</ele><time>2026-05-02T14:49:27Z</time></trkpt><trkpt lat="46.23016267532533" lon="12.009282740000355"><ele>998.25</ele><time>2026-05-02T14:49:28Z</time></trkpt><trkpt lat="46.230225516607995" lon="12.009443558929362"><ele>996.5</ele><time>2026-05-02T14:49:29Z</time></trkpt><trkpt lat="46.23029346858662" lon="12.009572958474148"><ele>994.75</ele><time>2026-05-02T14:49:30Z</time></trkpt><trkpt lat="46.2303655139878" lon="12.009680702630654"><ele>993.0</ele><time>2026-05-02T14:49:30.999Z</time></trkpt><trkpt lat="46.230460094394935" lon="12.009761211007339"><ele>993.0</ele><time>2026-05-02T14:49:31.999Z</time></trkpt><trkpt lat="46.23056665619834" lon="12.009832428627247"><ele>993.0</ele><time>2026-05-02T14:49:32.999Z</time></trkpt><trkpt lat="46.23066066284729" lon="12.009908999729312"><ele>993.0</ele><time>2026-05-02T14:49:33.999Z</time></trkpt><trkpt lat="46.2307456284125" lon="12.009985993508764"><ele>993.0</ele><time>2026-05-02T14:49:34.999Z</time></trkpt><trkpt lat="46.230851978157716" lon="12.0100840294338"><ele>996.3333333333333</ele><time>2026-05-02T14:49:35.999Z</time></trkpt><trkpt lat="46.23096954937301" lon="12.010227001140445"><ele>999.6666666666666</ele><time>2026-05-02T14:49:36.999Z</time></trkpt><trkpt lat="46.23108232654747" lon="12.01043683093681"><ele>1003.0</ele><time>2026-05-02T14:49:37.999Z</time></trkpt><trkpt lat="46.23121759819378" lon="12.010627780392275"><ele>1003.0</ele><time>2026-05-02T14:49:38.999Z</time></trkpt><trkpt lat="46.23134220404802" lon="12.01081813941471"><ele>1003.0</ele><time>2026-05-02T14:49:39.999Z</time></trkpt><trkpt lat="46.231474321687294" lon="12.010968969295698"><ele>1003.0</ele><time>2026-05-02T14:49:40.999Z</time></trkpt><trkpt lat="46.23161052891117" lon="12.011098384723438"><ele>1002.0</ele><time>2026-05-02T14:49:41.999Z</time></trkpt><trkpt lat="46.23172059399639" lon="12.011283493106701"><ele>1001.0</ele><time>2026-05-02T14:49:42.999Z</time></trkpt><trkpt lat="46.231847059014015" lon="12.01147417319563"><ele>1000.0</ele><time>2026-05-02T14:49:43.999Z</time></trkpt><trkpt lat="46.231975208814035" lon="12.01166418034215"><ele>1000.0</ele><time>2026-05-02T14:49:44.999Z</time></trkpt><trkpt lat="46.23212497933922" lon="12.011860275944741"><ele>1000.0</ele><time>2026-05-02T14:49:45.999Z</time></trkpt><trkpt lat="46.23228582671211" lon="12.01201840320522"><ele>1000.0</ele><time>2026-05-02T14:49:46.999Z</time></trkpt><trkpt lat="46.23242455414249" lon="12.012158243284352"><ele>999.75</ele><time>2026-05-02T14:49:47.999Z</time></trkpt><trkpt lat="46.23253364295813" lon="12.012303096432301"><ele>999.5</ele><time>2026-05-02T14:49:48.999Z</time></trkpt><trkpt lat="46.232639371513066" lon="12.012449242171492"><ele>999.25</ele><time>2026-05-02T14:49:49.999Z</time></trkpt><trkpt lat="46.232722545261616" lon="12.012619225894607"><ele>999.0</ele><time>2026-05-02T14:49:50.999Z</time></trkpt><trkpt lat="46.23282057759768" lon="12.01278085328916"><ele>999.0</ele><time>2026-05-02T14:49:51.999Z</time></trkpt><trkpt lat="46.23295000710643" lon="12.01291866844395"><ele>999.0</ele><time>2026-05-02T14:49:52.999Z</time></trkpt><trkpt lat="46.23309270303186" lon="12.013061485294786"><ele>999.0</ele><time>2026-05-02T14:49:53.999Z</time></trkpt><trkpt lat="46.23326427462292" lon="12.013169488273485"><ele>999.0</ele><time>2026-05-02T14:49:54.999Z</time></trkpt><trkpt lat="46.23344579630069" lon="12.013262538729569"><ele>999.0</ele><time>2026-05-02T14:49:55.999Z</time></trkpt><trkpt lat="46.233628195203195" lon="12.013356072091433"><ele>999.0</ele><time>2026-05-02T14:49:56.999Z</time></trkpt><trkpt lat="46.23382057079783" lon="12.013455372546405"><ele>1002.3333333333333</ele><time>2026-05-02T14:49:57.999Z</time></trkpt><trkpt lat="46.234007169572266" lon="12.013551691120227"><ele>1005.6666666666666</ele><time>2026-05-02T14:49:58.999Z</time></trkpt><trkpt lat="46.234183131684674" lon="12.013642519288783"><ele>1009.0</ele><time>2026-05-02T14:49:59.999Z</time></trkpt><trkpt lat="46.23435033167303" lon="12.01372663401118"><ele>1009.0</ele><time>2026-05-02T14:50:00.999Z</time></trkpt><trkpt lat="46.23451692011032" lon="12.013809509807473"><ele>1009.0</ele><time>2026-05-02T14:50:01.999Z</time></trkpt><trkpt lat="46.23467769639412" lon="12.013893648468542"><ele>1009.0</ele><time>2026-05-02T14:50:02.999Z</time></trkpt><trkpt lat="46.234834556794176" lon="12.013998394183977"><ele>1003.6666666666666</ele><time>2026-05-02T14:50:03.999Z</time></trkpt><trkpt lat="46.23496992837605" lon="12.014140309066727"><ele>998.3333333333333</ele><time>2026-05-02T14:50:04.999Z</time></trkpt><trkpt lat="46.23510864749334" lon="12.014305313453178"><ele>993.0</ele><time>2026-05-02T14:50:05.999Z</time></trkpt><trkpt lat="46.23525447283197" lon="12.014492447421347"><ele>993.0</ele><time>2026-05-02T14:50:06.999Z</time></trkpt><trkpt lat="46.23539147719521" lon="12.014676900290482"><ele>993.0</ele><time>2026-05-02T14:50:07.999Z</time></trkpt><trkpt lat="46.235511824203115" lon="12.014840914212682"><ele>993.0</ele><time>2026-05-02T14:50:08.999Z</time></trkpt><trkpt lat="46.23562745580302" lon="12.015001142862603"><ele>994.75</ele><time>2026-05-02T14:50:09.999Z</time></trkpt><trkpt lat="46.23573650720182" lon="12.015154385727914"><ele>996.5</ele><time>2026-05-02T14:50:10.999Z</time></trkpt><trkpt lat="46.23584073383394" lon="12.015308642295189"><ele>998.25</ele><time>2026-05-02T14:50:11.999Z</time></trkpt><trkpt lat="46.23594154920339" lon="12.01546079361367"><ele>1000.0</ele><time>2026-05-02T14:50:12.999Z</time></trkpt><trkpt lat="46.23603335013309" lon="12.01559561258064"><ele>1000.0</ele><time>2026-05-02T14:50:13.999Z</time></trkpt><trkpt lat="46.23611947688093" lon="12.015708992808658"><ele>1000.0</ele><time>2026-05-02T14:50:14.999Z</time></trkpt><trkpt lat="46.23621148392743" lon="12.015815162787897"><ele>1000.0</ele><time>2026-05-02T14:50:15.999Z</time></trkpt><trkpt lat="46.23632478235565" lon="12.015903519717964"><ele>1000.0</ele><time>2026-05-02T14:50:16.999Z</time></trkpt><trkpt lat="46.236420016505896" lon="12.015955863811515"><ele>999.0</ele><time>2026-05-02T14:50:17.999Z</time></trkpt><trkpt lat="46.23651192199791" lon="12.015993996080969"><ele>998.0</ele><time>2026-05-02T14:50:18.999Z</time></trkpt><trkpt lat="46.236602597221214" lon="12.016022450382618"><ele>997.0</ele><time>2026-05-02T14:50:19.999Z</time></trkpt><trkpt lat="46.236711529164324" lon="12.016041308817451"><ele>996.0</ele><time>2026-05-02T14:50:20.999Z</time></trkpt><trkpt lat="46.2368216826524" lon="12.01604626908613"><ele>995.0</ele><time>2026-05-02T14:50:21.999Z</time></trkpt><trkpt lat="46.23692899057622" lon="12.016028240902557"><ele>995.0</ele><time>2026-05-02T14:50:22.999Z</time></trkpt><trkpt lat="46.23704677840673" lon="12.01601013565481"><ele>995.0</ele><time>2026-05-02T14:50:23.999Z</time></trkpt><trkpt lat="46.23714968850508" lon="12.016016602303441"><ele>995.0</ele><time>2026-05-02T14:50:24.999Z</time></trkpt><trkpt lat="46.23724473728994" lon="12.016062231663728"><ele>995.0</ele><time>2026-05-02T14:50:25.999Z</time></trkpt><trkpt lat="46.23733104177718" lon="12.016139178264227"><ele>995.0</ele><time>2026-05-02T14:50:26.999Z</time></trkpt><trkpt lat="46.23741421244065" lon="12.01621458140364"><ele>997.25</ele><time>2026-05-02T14:50:27.999Z</time></trkpt><trkpt lat="46.237476107651744" lon="12.01632877916595"><ele>999.5</ele><time>2026-05-02T14:50:28.999Z</time></trkpt><trkpt lat="46.23752623685681" lon="12.016481939251392"><ele>1001.75</ele><time>2026-05-02T14:50:29.999Z</time></trkpt><trkpt lat="46.23761115195906" lon="12.016670149739383"><ele>1004.0</ele><time>2026-05-02T14:50:30.999Z</time></trkpt><trkpt lat="46.237711648740174" lon="12.016898300528126"><ele>996.3333333333334</ele><time>2026-05-02T14:50:31.999Z</time></trkpt><trkpt lat="46.23781932435205" lon="12.01709546610413"><ele>988.6666666666667</ele><time>2026-05-02T14:50:32.999Z</time></trkpt><trkpt lat="46.23790931554919" lon="12.017277357015336"><ele>981.0</ele><time>2026-05-02T14:50:33.999Z</time></trkpt><trkpt lat="46.23799717402257" lon="12.017422226080333"><ele>978.0</ele><time>2026-05-02T14:50:34.999Z</time></trkpt><trkpt lat="46.23809879960251" lon="12.01751687080127"><ele>975.0</ele><time>2026-05-02T14:50:35.999Z</time></trkpt><trkpt lat="46.23821866949368" lon="12.017542421634095"><ele>972.0</ele><time>2026-05-02T14:50:36.999Z</time></trkpt><trkpt lat="46.23836624767847" lon="12.017540438258852"><ele>969.0</ele><time>2026-05-02T14:50:37.999Z</time></trkpt><trkpt lat="46.23853811812612" lon="12.017509752899072"><ele>969.0</ele><time>2026-05-02T14:50:38.999Z</time></trkpt><trkpt lat="46.23871990544703" lon="12.017514293599781"><ele>969.0</ele><time>2026-05-02T14:50:39.999Z</time></trkpt><trkpt lat="46.23888681393373" lon="12.0175073214467"><ele>969.0</ele><time>2026-05-02T14:50:40.999Z</time></trkpt><trkpt lat="46.239059433280424" lon="12.01752495064404"><ele>971.6666666666667</ele><time>2026-05-02T14:50:41.999Z</time></trkpt><trkpt lat="46.23922550843782" lon="12.017560159660423"><ele>974.3333333333334</ele><time>2026-05-02T14:50:42.999Z</time></trkpt><trkpt lat="46.239385106599016" lon="12.017620518708844"><ele>977.0</ele><time>2026-05-02T14:50:43.999Z</time></trkpt><trkpt lat="46.2395313293789" lon="12.017673900242764"><ele>977.0</ele><time>2026-05-02T14:50:44.999Z</time></trkpt><trkpt lat="46.23968668039906" lon="12.017762122833295"><ele>977.0</ele><time>2026-05-02T14:50:45.999Z</time></trkpt><trkpt lat="46.23983454963301" lon="12.017864772335143"><ele>977.0</ele><time>2026-05-02T14:50:46.999Z</time></trkpt><trkpt lat="46.23998484315967" lon="12.017962324431016"><ele>980.0</ele><time>2026-05-02T14:50:47.999Z</time></trkpt><trkpt lat="46.240119884328806" lon="12.018070757319611"><ele>983.0</ele><time>2026-05-02T14:50:48.999Z</time></trkpt><trkpt lat="46.24025252731695" lon="12.018154368715626"><ele>986.0</ele><time>2026-05-02T14:50:49.999Z</time></trkpt><trkpt lat="46.24037268209413" lon="12.018247265935784"><ele>989.0</ele><time>2026-05-02T14:50:50.999Z</time></trkpt><trkpt lat="46.2404746988474" lon="12.018372669374438"><ele>987.5</ele><time>2026-05-02T14:50:51.999Z</time></trkpt><trkpt lat="46.24057973597205" lon="12.018539794284225"><ele>986.0</ele><time>2026-05-02T14:50:53Z</time></trkpt><trkpt lat="46.2406429522388" lon="12.018714225766963"><ele>984.5</ele><time>2026-05-02T14:50:54Z</time></trkpt><trkpt lat="46.24073100930447" lon="12.018837638720079"><ele>983.0</ele><time>2026-05-02T14:50:55Z</time></trkpt><trkpt lat="46.24085802225495" lon="12.018949540473152"><ele>983.0</ele><time>2026-05-02T14:50:56Z</time></trkpt><trkpt lat="46.24102696046166" lon="12.018991263413064"><ele>983.0</ele><time>2026-05-02T14:50:57Z</time></trkpt><trkpt lat="46.24120800838518" lon="12.019025128942005"><ele>983.0</ele><time>2026-05-02T14:50:58Z</time></trkpt><trkpt lat="46.241372213756485" lon="12.019055792246562"><ele>989.3333333333334</ele><time>2026-05-02T14:50:59Z</time></trkpt><trkpt lat="46.24152935518642" lon="12.019085731970428"><ele>995.6666666666667</ele><time>2026-05-02T14:51:00Z</time></trkpt><trkpt lat="46.24169068308438" lon="12.019094276340132"><ele>1002.0</ele><time>2026-05-02T14:51:01Z</time></trkpt><trkpt lat="46.24185617232495" lon="12.0191270570282"><ele>993.6666666666667</ele><time>2026-05-02T14:51:02Z</time></trkpt><trkpt lat="46.24200420584747" lon="12.019201049094855"><ele>985.3333333333334</ele><time>2026-05-02T14:51:03Z</time></trkpt><trkpt lat="46.242156545282214" lon="12.019274416726477"><ele>977.0</ele><time>2026-05-02T14:51:04Z</time></trkpt><trkpt lat="46.242300900189385" lon="12.019356244595471"><ele>977.0</ele><time>2026-05-02T14:51:05Z</time></trkpt><trkpt lat="46.242446335028056" lon="12.01942945221451"><ele>977.0</ele><time>2026-05-02T14:51:06Z</time></trkpt><trkpt lat="46.24259674394523" lon="12.019477728270651"><ele>977.0</ele><time>2026-05-02T14:51:07Z</time></trkpt><trkpt lat="46.24275575369018" lon="12.01949862500572"><ele>977.0</ele><time>2026-05-02T14:51:08Z</time></trkpt><trkpt lat="46.242904742846" lon="12.019486061151751"><ele>977.0</ele><time>2026-05-02T14:51:09Z</time></trkpt><trkpt lat="46.24304998306748" lon="12.019527280301398"><ele>977.0</ele><time>2026-05-02T14:51:10Z</time></trkpt><trkpt lat="46.24319333033952" lon="12.019597096107685"><ele>977.0</ele><time>2026-05-02T14:51:11Z</time></trkpt><trkpt lat="46.24333003588296" lon="12.019704320029335"><ele>979.6666666666667</ele><time>2026-05-02T14:51:12Z</time></trkpt><trkpt lat="46.243475954633205" lon="12.019792478149006"><ele>982.3333333333333</ele><time>2026-05-02T14:51:13Z</time></trkpt><trkpt lat="46.24362616722857" lon="12.019881972335392"><ele>985.0</ele><time>2026-05-02T14:51:14Z</time></trkpt><trkpt lat="46.243777782401516" lon="12.019954423418207"><ele>982.25</ele><time>2026-05-02T14:51:15Z</time></trkpt><trkpt lat="46.24392182685888" lon="12.020014479747894"><ele>979.5</ele><time>2026-05-02T14:51:16Z</time></trkpt><trkpt lat="46.24405665168334" lon="12.020067564568452"><ele>976.75</ele><time>2026-05-02T14:51:17Z</time></trkpt><trkpt lat="46.24418812786276" lon="12.020109683464813"><ele>974.0</ele><time>2026-05-02T14:51:18Z</time></trkpt><trkpt lat="46.244323968764256" lon="12.020124967881722"><ele>974.0</ele><time>2026-05-02T14:51:19Z</time></trkpt><trkpt lat="46.24446681461024" lon="12.02007147580194"><ele>974.0</ele><time>2026-05-02T14:51:20Z</time></trkpt><trkpt lat="46.24458654828251" lon="12.019978684598081"><ele>974.0</ele><time>2026-05-02T14:51:21Z</time></trkpt><trkpt lat="46.24470415773872" lon="12.019925898723717"><ele>974.0</ele><time>2026-05-02T14:51:22Z</time></trkpt><trkpt lat="46.24481829773762" lon="12.019915140166852"><ele>975.2</ele><time>2026-05-02T14:51:23Z</time></trkpt><trkpt lat="46.24492755997713" lon="12.01995706712773"><ele>976.4000000000001</ele><time>2026-05-02T14:51:24Z</time></trkpt><trkpt lat="46.24502444186725" lon="12.020044306867465"><ele>977.6</ele><time>2026-05-02T14:51:25Z</time></trkpt><trkpt lat="46.245085212897834" lon="12.020183313943301"><ele>978.8</ele><time>2026-05-02T14:51:26Z</time></trkpt><trkpt lat="46.24514184829602" lon="12.020313687660535"><ele>980.0</ele><time>2026-05-02T14:51:27Z</time></trkpt><trkpt lat="46.245186359471845" lon="12.02044189293181"><ele>980.0</ele><time>2026-05-02T14:51:28Z</time></trkpt><trkpt lat="46.24536895434891" lon="12.020562885900143"><ele>980.0</ele><time>2026-05-02T14:51:29Z</time></trkpt><trkpt lat="46.24550588752883" lon="12.020667026859133"><ele>980.0</ele><time>2026-05-02T14:51:30Z</time></trkpt><trkpt lat="46.2456516634448" lon="12.02076432454061"><ele>978.0</ele><time>2026-05-02T14:51:31Z</time></trkpt><trkpt lat="46.24580075693642" lon="12.020862588578506"><ele>976.0</ele><time>2026-05-02T14:51:32Z</time></trkpt><trkpt lat="46.24594067076863" lon="12.020954802526468"><ele>974.0</ele><time>2026-05-02T14:51:33Z</time></trkpt><trkpt lat="46.246082939446694" lon="12.021051953970735"><ele>974.0</ele><time>2026-05-02T14:51:34Z</time></trkpt><trkpt lat="46.24622588405434" lon="12.021153536676874"><ele>974.0</ele><time>2026-05-02T14:51:35Z</time></trkpt><trkpt lat="46.246370607409716" lon="12.021256242038376"><ele>974.0</ele><time>2026-05-02T14:51:36Z</time></trkpt><trkpt lat="46.2465169111551" lon="12.0213538632262"><ele>978.0</ele><time>2026-05-02T14:51:37Z</time></trkpt><trkpt lat="46.24667273589154" lon="12.021442734999912"><ele>982.0</ele><time>2026-05-02T14:51:38Z</time></trkpt><trkpt lat="46.24683060398442" lon="12.021520290417183"><ele>986.0</ele><time>2026-05-02T14:51:39Z</time></trkpt><trkpt lat="46.24699048223315" lon="12.021588079242814"><ele>986.0</ele><time>2026-05-02T14:51:40Z</time></trkpt><trkpt lat="46.24715682086051" lon="12.021629681622969"><ele>986.0</ele><time>2026-05-02T14:51:41Z</time></trkpt><trkpt lat="46.24731305814665" lon="12.021631397631765"><ele>986.0</ele><time>2026-05-02T14:51:42Z</time></trkpt><trkpt lat="46.24746811721315" lon="12.021679434766948"><ele>981.0</ele><time>2026-05-02T14:51:43Z</time></trkpt><trkpt lat="46.24763006896171" lon="12.021705230879748"><ele>976.0</ele><time>2026-05-02T14:51:44Z</time></trkpt><trkpt lat="46.24779052937602" lon="12.021732355991075"><ele>971.0</ele><time>2026-05-02T14:51:45Z</time></trkpt><trkpt lat="46.247956365578744" lon="12.021760389789371"><ele>971.0</ele><time>2026-05-02T14:51:46Z</time></trkpt><trkpt lat="46.24812131169922" lon="12.021788273149014"><ele>971.0</ele><time>2026-05-02T14:51:47Z</time></trkpt><trkpt lat="46.24829107474408" lon="12.021816767448735"><ele>971.0</ele><time>2026-05-02T14:51:48Z</time></trkpt><trkpt lat="46.24845420364066" lon="12.021841687885315"><ele>973.25</ele><time>2026-05-02T14:51:49Z</time></trkpt><trkpt lat="46.248598003109784" lon="12.021873445042727"><ele>975.5</ele><time>2026-05-02T14:51:50Z</time></trkpt><trkpt lat="46.24869532091688" lon="12.021934670222173"><ele>977.75</ele><time>2026-05-02T14:51:50.999Z</time></trkpt><trkpt lat="46.24878848900171" lon="12.02203482286417"><ele>980.0</ele><time>2026-05-02T14:51:51.999Z</time></trkpt><trkpt lat="46.24886101153147" lon="12.022178044389126"><ele>980.0</ele><time>2026-05-02T14:51:52.999Z</time></trkpt><trkpt lat="46.248955365787914" lon="12.022343430698847"><ele>980.0</ele><time>2026-05-02T14:51:53.999Z</time></trkpt><trkpt lat="46.24903861481171" lon="12.022481175922218"><ele>980.0</ele><time>2026-05-02T14:51:54.999Z</time></trkpt><trkpt lat="46.24911787015749" lon="12.022599490454285"><ele>980.0</ele><time>2026-05-02T14:51:55.999Z</time></trkpt><trkpt lat="46.249210645727494" lon="12.022699853945078"><ele>977.0</ele><time>2026-05-02T14:51:56.999Z</time></trkpt><trkpt lat="46.24933767740834" lon="12.02273813254299"><ele>974.0</ele><time>2026-05-02T14:51:57.999Z</time></trkpt><trkpt lat="46.24946912171633" lon="12.022685434207112"><ele>971.0</ele><time>2026-05-02T14:51:58.999Z</time></trkpt><trkpt lat="46.24961695051138" lon="12.022645155293112"><ele>968.0</ele><time>2026-05-02T14:51:59.999Z</time></trkpt><trkpt lat="46.24973199987548" lon="12.022562391582158"><ele>969.0</ele><time>2026-05-02T14:52:00.999Z</time></trkpt><trkpt lat="46.249853346764965" lon="12.022559906646597"><ele>970.0</ele><time>2026-05-02T14:52:01.999Z</time></trkpt><trkpt lat="46.24997603990259" lon="12.022613556334328"><ele>971.0</ele><time>2026-05-02T14:52:02.999Z</time></trkpt><trkpt lat="46.25008970237791" lon="12.022737172807703"><ele>972.0</ele><time>2026-05-02T14:52:03.999Z</time></trkpt><trkpt lat="46.25014175734991" lon="12.022933001094732"><ele>972.0</ele><time>2026-05-02T14:52:04.999Z</time></trkpt><trkpt lat="46.25019891989153" lon="12.023093010895714"><ele>972.0</ele><time>2026-05-02T14:52:05.999Z</time></trkpt><trkpt lat="46.250288378114156" lon="12.023195500774486"><ele>972.0</ele><time>2026-05-02T14:52:06.999Z</time></trkpt><trkpt lat="46.250388079209976" lon="12.023298162177674"><ele>972.0</ele><time>2026-05-02T14:52:07.999Z</time></trkpt><trkpt lat="46.25051304576507" lon="12.023297719265056"><ele>973.0</ele><time>2026-05-02T14:52:08.999Z</time></trkpt><trkpt lat="46.25064041490612" lon="12.02328784763981"><ele>974.0</ele><time>2026-05-02T14:52:09.999Z</time></trkpt><trkpt lat="46.25078476869703" lon="12.023246146751747"><ele>975.0</ele><time>2026-05-02T14:52:10.999Z</time></trkpt><trkpt lat="46.250928019769596" lon="12.023235650333131"><ele>976.0</ele><time>2026-05-02T14:52:11.999Z</time></trkpt><trkpt lat="46.25106824852685" lon="12.02321088951405"><ele>976.0</ele><time>2026-05-02T14:52:12.999Z</time></trkpt><trkpt lat="46.25121882917087" lon="12.023184961906082"><ele>976.0</ele><time>2026-05-02T14:52:13.999Z</time></trkpt><trkpt lat="46.25136134872239" lon="12.023157484676002"><ele>976.0</ele><time>2026-05-02T14:52:14.999Z</time></trkpt><trkpt lat="46.251479650103434" lon="12.023135273118603"><ele>976.0</ele><time>2026-05-02T14:52:15.999Z</time></trkpt><trkpt lat="46.25159392453225" lon="12.02313401012071"><ele>975.25</ele><time>2026-05-02T14:52:16.999Z</time></trkpt><trkpt lat="46.25170707653979" lon="12.023161063679462"><ele>974.5</ele><time>2026-05-02T14:52:17.999Z</time></trkpt><trkpt lat="46.25180971762396" lon="12.023217166973645"><ele>973.75</ele><time>2026-05-02T14:52:18.999Z</time></trkpt><trkpt lat="46.25190537578058" lon="12.023337386077046"><ele>973.0</ele><time>2026-05-02T14:52:19.999Z</time></trkpt><trkpt lat="46.25200125490357" lon="12.02349221563157"><ele>973.0</ele><time>2026-05-02T14:52:20.999Z</time></trkpt><trkpt lat="46.25210677736435" lon="12.02365657586455"><ele>973.0</ele><time>2026-05-02T14:52:21.999Z</time></trkpt><trkpt lat="46.252198367872644" lon="12.02380052672356"><ele>973.0</ele><time>2026-05-02T14:52:22.999Z</time></trkpt><trkpt lat="46.25228483861374" lon="12.023936431221964"><ele>973.0</ele><time>2026-05-02T14:52:23.999Z</time></trkpt><trkpt lat="46.25236287995397" lon="12.024060132535139"><ele>971.0</ele><time>2026-05-02T14:52:24.999Z</time></trkpt><trkpt lat="46.2524360704696" lon="12.024176927524415"><ele>969.0</ele><time>2026-05-02T14:52:25.999Z</time></trkpt><trkpt lat="46.252512586052475" lon="12.024296150943224"><ele>967.0</ele><time>2026-05-02T14:52:26.999Z</time></trkpt><trkpt lat="46.2525962862638" lon="12.02442560198537"><ele>965.0</ele><time>2026-05-02T14:52:27.999Z</time></trkpt><trkpt lat="46.25268008704193" lon="12.02454733701168"><ele>965.0</ele><time>2026-05-02T14:52:28.999Z</time></trkpt><trkpt lat="46.25277656399974" lon="12.024674892827658"><ele>965.0</ele><time>2026-05-02T14:52:29.999Z</time></trkpt><trkpt lat="46.2528723635852" lon="12.024758232698886"><ele>965.0</ele><time>2026-05-02T14:52:30.999Z</time></trkpt><trkpt lat="46.25296392970769" lon="12.02486145764712"><ele>965.0</ele><time>2026-05-02T14:52:31.999Z</time></trkpt><trkpt lat="46.253043632071574" lon="12.024970471447332"><ele>964.1666666666667</ele><time>2026-05-02T14:52:32.999Z</time></trkpt><trkpt lat="46.25312514365361" lon="12.02505032646598"><ele>963.3333333333334</ele><time>2026-05-02T14:52:33.999Z</time></trkpt><trkpt lat="46.253186988623305" lon="12.025112111100636"><ele>962.5</ele><time>2026-05-02T14:52:34.999Z</time></trkpt><trkpt lat="46.25327199108648" lon="12.02519780428516"><ele>961.6666666666667</ele><time>2026-05-02T14:52:36.999Z</time></trkpt><trkpt lat="46.25333315747251" lon="12.02525962274251"><ele>960.8333333333334</ele><time>2026-05-02T14:52:39.999Z</time></trkpt><trkpt lat="46.25340506488139" lon="12.025332296597544"><ele>960.0</ele><time>2026-05-02T14:53:07Z</time></trkpt><trkpt lat="46.25346264910463" lon="12.025390494597909"><ele>960.0</ele><time>2026-05-02T14:53:08Z</time></trkpt><trkpt lat="46.253524040644365" lon="12.025453711077157"><ele>960.0</ele><time>2026-05-02T14:53:09Z</time></trkpt><trkpt lat="46.25358673620842" lon="12.025519812444244"><ele>960.0</ele><time>2026-05-02T14:53:10Z</time></trkpt><trkpt lat="46.25365463949729" lon="12.02559049916697"><ele>960.0</ele><time>2026-05-02T14:53:11Z</time></trkpt><trkpt lat="46.25372706686728" lon="12.025659705272696"><ele>960.0</ele><time>2026-05-02T14:53:12Z</time></trkpt><trkpt lat="46.25381092247627" lon="12.025727876592827"><ele>960.0</ele><time>2026-05-02T14:53:13Z</time></trkpt><trkpt lat="46.253901667765135" lon="12.025792682226049"><ele>957.5</ele><time>2026-05-02T14:53:14Z</time></trkpt><trkpt lat="46.254015873082906" lon="12.025844837731842"><ele>955.0</ele><time>2026-05-02T14:53:15Z</time></trkpt><trkpt lat="46.25412146578843" lon="12.02592275179737"><ele>952.5</ele><time>2026-05-02T14:53:16Z</time></trkpt><trkpt lat="46.254240975371566" lon="12.026014340168164"><ele>950.0</ele><time>2026-05-02T14:53:17Z</time></trkpt><trkpt lat="46.25438916596506" lon="12.026099461618536"><ele>950.0</ele><time>2026-05-02T14:53:18Z</time></trkpt><trkpt lat="46.25454457996884" lon="12.026199057995594"><ele>950.0</ele><time>2026-05-02T14:53:19Z</time></trkpt><trkpt lat="46.254702060773404" lon="12.026296265660594"><ele>950.0</ele><time>2026-05-02T14:53:20Z</time></trkpt><trkpt lat="46.25487498154764" lon="12.026396620641831"><ele>949.6666666666667</ele><time>2026-05-02T14:53:21Z</time></trkpt><trkpt lat="46.255020943554875" lon="12.026483136422033"><ele>949.3333333333333</ele><time>2026-05-02T14:53:22Z</time></trkpt><trkpt lat="46.25516679536609" lon="12.026565573294548"><ele>949.0</ele><time>2026-05-02T14:53:23Z</time></trkpt><trkpt lat="46.25531798470839" lon="12.026646542543379"><ele>946.6666666666666</ele><time>2026-05-02T14:53:24Z</time></trkpt><trkpt lat="46.2554702665671" lon="12.026733514478389"><ele>944.3333333333333</ele><time>2026-05-02T14:53:25Z</time></trkpt><trkpt lat="46.25562640477162" lon="12.026820055881819"><ele>942.0</ele><time>2026-05-02T14:53:26Z</time></trkpt><trkpt lat="46.25578740593527" lon="12.026888966499023"><ele>942.0</ele><time>2026-05-02T14:53:27Z</time></trkpt><trkpt lat="46.25596474846235" lon="12.026949854969738"><ele>942.0</ele><time>2026-05-02T14:53:28Z</time></trkpt><trkpt lat="46.256129064612026" lon="12.027013656664016"><ele>942.0</ele><time>2026-05-02T14:53:29Z</time></trkpt><trkpt lat="46.25628095371297" lon="12.027061911533574"><ele>942.0</ele><time>2026-05-02T14:53:30Z</time></trkpt><trkpt lat="46.256434237293306" lon="12.027126996500332"><ele>942.0</ele><time>2026-05-02T14:53:31Z</time></trkpt><trkpt lat="46.25657229653519" lon="12.027225067059955"><ele>942.0</ele><time>2026-05-02T14:53:32Z</time></trkpt><trkpt lat="46.25668389630207" lon="12.027385767876114"><ele>937.6666666666667</ele><time>2026-05-02T14:53:33Z</time></trkpt><trkpt lat="46.256795152643704" lon="12.027564095190172"><ele>933.3333333333334</ele><time>2026-05-02T14:53:34Z</time></trkpt><trkpt lat="46.25691334121832" lon="12.027760503725151"><ele>929.0</ele><time>2026-05-02T14:53:35Z</time></trkpt><trkpt lat="46.25702498936477" lon="12.027965047135648"><ele>929.0</ele><time>2026-05-02T14:53:36Z</time></trkpt><trkpt lat="46.25714204265497" lon="12.028137899551872"><ele>929.0</ele><time>2026-05-02T14:53:37Z</time></trkpt><trkpt lat="46.257256554657374" lon="12.028334074700183"><ele>929.0</ele><time>2026-05-02T14:53:38Z</time></trkpt><trkpt lat="46.25737760937486" lon="12.028539776280029"><ele>929.6666666666667</ele><time>2026-05-02T14:53:39Z</time></trkpt><trkpt lat="46.25749793761633" lon="12.028738942679805"><ele>930.3333333333333</ele><time>2026-05-02T14:53:40Z</time></trkpt><trkpt lat="46.257615004064846" lon="12.028939114370225"><ele>931.0</ele><time>2026-05-02T14:53:41Z</time></trkpt><trkpt lat="46.25771512567411" lon="12.029138992110012"><ele>925.0</ele><time>2026-05-02T14:53:42Z</time></trkpt><trkpt lat="46.25780052545105" lon="12.029339944500064"><ele>919.0</ele><time>2026-05-02T14:53:43Z</time></trkpt><trkpt lat="46.257870719966675" lon="12.029510728100284"><ele>913.0</ele><time>2026-05-02T14:53:44Z</time></trkpt><trkpt lat="46.25794759670052" lon="12.029654004415121"><ele>907.0</ele><time>2026-05-02T14:53:45Z</time></trkpt><trkpt lat="46.258052059133405" lon="12.029777218431835"><ele>913.3333333333333</ele><time>2026-05-02T14:53:46Z</time></trkpt><trkpt lat="46.25819774351446" lon="12.029862225578787"><ele>919.6666666666667</ele><time>2026-05-02T14:53:47Z</time></trkpt><trkpt lat="46.25836454264564" lon="12.029885617692253"><ele>926.0</ele><time>2026-05-02T14:53:48Z</time></trkpt><trkpt lat="46.25853313146221" lon="12.02990177620024"><ele>926.0</ele><time>2026-05-02T14:53:49Z</time></trkpt><trkpt lat="46.25869216520162" lon="12.029886126489625"><ele>926.0</ele><time>2026-05-02T14:53:50Z</time></trkpt><trkpt lat="46.25885689193139" lon="12.029815858733112"><ele>926.0</ele><time>2026-05-02T14:53:51Z</time></trkpt><trkpt lat="46.25902042650429" lon="12.029712751121389"><ele>923.6666666666667</ele><time>2026-05-02T14:53:52Z</time></trkpt><trkpt lat="46.25920880956432" lon="12.029598355695363"><ele>921.3333333333333</ele><time>2026-05-02T14:53:53Z</time></trkpt><trkpt lat="46.25938487525482" lon="12.02946543900053"><ele>919.0</ele><time>2026-05-02T14:53:54Z</time></trkpt><trkpt lat="46.25954080967404" lon="12.02934712673266"><ele>919.0</ele><time>2026-05-02T14:53:55Z</time></trkpt><trkpt lat="46.259704494689366" lon="12.029243080392012"><ele>919.0</ele><time>2026-05-02T14:53:56Z</time></trkpt><trkpt lat="46.25986764134775" lon="12.029157158108527"><ele>919.0</ele><time>2026-05-02T14:53:57Z</time></trkpt><trkpt lat="46.26003393913702" lon="12.029092310900522"><ele>918.0</ele><time>2026-05-02T14:53:58Z</time></trkpt><trkpt lat="46.26018834694633" lon="12.029041784961413"><ele>917.0</ele><time>2026-05-02T14:53:59Z</time></trkpt><trkpt lat="46.26034686485825" lon="12.028993160062733"><ele>916.0</ele><time>2026-05-02T14:54:00Z</time></trkpt><trkpt lat="46.26049264092645" lon="12.028920271091788"><ele>909.75</ele><time>2026-05-02T14:54:01Z</time></trkpt><trkpt lat="46.26063300608931" lon="12.028861745364516"><ele>903.5</ele><time>2026-05-02T14:54:01.999Z</time></trkpt><trkpt lat="46.260759870920175" lon="12.028766047454573"><ele>897.25</ele><time>2026-05-02T14:54:02.999Z</time></trkpt><trkpt lat="46.26087370897628" lon="12.0286542685227"><ele>891.0</ele><time>2026-05-02T14:54:03.999Z</time></trkpt><trkpt lat="46.26096798468619" lon="12.028513043673732"><ele>891.0</ele><time>2026-05-02T14:54:04.999Z</time></trkpt><trkpt lat="46.2610424170536" lon="12.02836458373206"><ele>891.0</ele><time>2026-05-02T14:54:05.999Z</time></trkpt><trkpt lat="46.26109972500599" lon="12.028240690548863"><ele>891.0</ele><time>2026-05-02T14:54:06.999Z</time></trkpt><trkpt lat="46.26114656264375" lon="12.028167679360763"><ele>891.0</ele><time>2026-05-02T14:54:07.999Z</time></trkpt><trkpt lat="46.261215492009896" lon="12.028177900081683"><ele>891.0</ele><time>2026-05-02T14:54:08.999Z</time></trkpt><trkpt lat="46.261266403240995" lon="12.028248696636066"><ele>891.0</ele><time>2026-05-02T14:54:09.999Z</time></trkpt><trkpt lat="46.2612847675746" lon="12.028376690177142"><ele>891.0</ele><time>2026-05-02T14:54:10.999Z</time></trkpt><trkpt lat="46.26126202326731" lon="12.028530437682301"><ele>891.0</ele><time>2026-05-02T14:54:11.999Z</time></trkpt><trkpt lat="46.261258094424626" lon="12.028721295091698"><ele>891.0</ele><time>2026-05-02T14:54:12.999Z</time></trkpt><trkpt lat="46.26124587335654" lon="12.028944364936807"><ele>891.0</ele><time>2026-05-02T14:54:13.999Z</time></trkpt><trkpt lat="46.261229289599754" lon="12.029158556958228"><ele>888.6666666666667</ele><time>2026-05-02T14:54:14.999Z</time></trkpt><trkpt lat="46.26120708279277" lon="12.029382823724376"><ele>886.3333333333334</ele><time>2026-05-02T14:54:15.999Z</time></trkpt><trkpt lat="46.26116605340568" lon="12.029620451216168"><ele>884.0</ele><time>2026-05-02T14:54:16.999Z</time></trkpt><trkpt lat="46.261103161638516" lon="12.029850231644717"><ele>882.0</ele><time>2026-05-02T14:54:17.999Z</time></trkpt><trkpt lat="46.26103505819539" lon="12.030050591151172"><ele>880.0</ele><time>2026-05-02T14:54:18.999Z</time></trkpt><trkpt lat="46.260960788172916" lon="12.030229304285916"><ele>878.0</ele><time>2026-05-02T14:54:19.999Z</time></trkpt><trkpt lat="46.26087730037652" lon="12.030367916921925"><ele>876.0</ele><time>2026-05-02T14:54:20.999Z</time></trkpt><trkpt lat="46.260774938457395" lon="12.030467528376635"><ele>876.0</ele><time>2026-05-02T14:54:21.999Z</time></trkpt><trkpt lat="46.26064431130391" lon="12.030533536693644"><ele>876.0</ele><time>2026-05-02T14:54:22.999Z</time></trkpt><trkpt lat="46.26049179712542" lon="12.03055178949162"><ele>876.0</ele><time>2026-05-02T14:54:23.999Z</time></trkpt><trkpt lat="46.260329066971714" lon="12.030594713557804"><ele>878.6666666666667</ele><time>2026-05-02T14:54:24.999Z</time></trkpt><trkpt lat="46.260170745782936" lon="12.03062003368071"><ele>881.3333333333334</ele><time>2026-05-02T14:54:25.999Z</time></trkpt><trkpt lat="46.260022113690745" lon="12.030684764160604"><ele>884.0</ele><time>2026-05-02T14:54:26.999Z</time></trkpt><trkpt lat="46.25987473825586" lon="12.030816300834267"><ele>881.3333333333334</ele><time>2026-05-02T14:54:27.999Z</time></trkpt><trkpt lat="46.25972606191729" lon="12.031002952867837"><ele>878.6666666666667</ele><time>2026-05-02T14:54:28.999Z</time></trkpt><trkpt lat="46.25958843491029" lon="12.031177300400037"><ele>876.0</ele><time>2026-05-02T14:54:29.999Z</time></trkpt><trkpt lat="46.25946408187022" lon="12.031359952803179"><ele>876.0</ele><time>2026-05-02T14:54:30.999Z</time></trkpt><trkpt lat="46.25936280780902" lon="12.031529096068944"><ele>876.0</ele><time>2026-05-02T14:54:31.999Z</time></trkpt><trkpt lat="46.259261831227555" lon="12.031648993062275"><ele>876.0</ele><time>2026-05-02T14:54:32.999Z</time></trkpt><trkpt lat="46.25915073594814" lon="12.03174061188683"><ele>876.0</ele><time>2026-05-02T14:54:33.999Z</time></trkpt><trkpt lat="46.259033546309304" lon="12.031795149580157"><ele>869.0</ele><time>2026-05-02T14:54:34.999Z</time></trkpt><trkpt lat="46.2588868052821" lon="12.031828173470506"><ele>862.0</ele><time>2026-05-02T14:54:35.999Z</time></trkpt><trkpt lat="46.25871649894219" lon="12.031826669837791"><ele>855.0</ele><time>2026-05-02T14:54:36.999Z</time></trkpt><trkpt lat="46.258540471866205" lon="12.031837182448522"><ele>855.0</ele><time>2026-05-02T14:54:37.999Z</time></trkpt><trkpt lat="46.25838022264654" lon="12.031867060407981"><ele>855.0</ele><time>2026-05-02T14:54:38.999Z</time></trkpt><trkpt lat="46.25822353595244" lon="12.031900764066966"><ele>855.0</ele><time>2026-05-02T14:54:39.999Z</time></trkpt><trkpt lat="46.25806231512673" lon="12.031945391304443"><ele>850.0</ele><time>2026-05-02T14:54:40.999Z</time></trkpt><trkpt lat="46.25789995801933" lon="12.032002328366419"><ele>845.0</ele><time>2026-05-02T14:54:41.999Z</time></trkpt><trkpt lat="46.25774667707918" lon="12.032045628229117"><ele>840.0</ele><time>2026-05-02T14:54:42.999Z</time></trkpt><trkpt lat="46.257583563798434" lon="12.032034271440361"><ele>840.0</ele><time>2026-05-02T14:54:43.999Z</time></trkpt><trkpt lat="46.25745152178653" lon="12.031930522117529"><ele>840.0</ele><time>2026-05-02T14:54:45.999Z</time></trkpt><trkpt lat="46.25735380149883" lon="12.031799311656442"><ele>840.0</ele><time>2026-05-02T14:54:46.999Z</time></trkpt><trkpt lat="46.25725426420478" lon="12.031647456141087"><ele>840.0</ele><time>2026-05-02T14:54:47.999Z</time></trkpt><trkpt lat="46.257144221893604" lon="12.03153250063102"><ele>839.25</ele><time>2026-05-02T14:54:48.999Z</time></trkpt><trkpt lat="46.257008345137976" lon="12.031486449519834"><ele>838.5</ele><time>2026-05-02T14:54:49.999Z</time></trkpt><trkpt lat="46.256879755236206" lon="12.031430615196406"><ele>837.75</ele><time>2026-05-02T14:54:50.999Z</time></trkpt><trkpt lat="46.25676155183666" lon="12.031406183929802"><ele>837.0</ele><time>2026-05-02T14:54:51.999Z</time></trkpt><trkpt lat="46.25666556760579" lon="12.031388694020576"><ele>837.0</ele><time>2026-05-02T14:54:52.999Z</time></trkpt><trkpt lat="46.25657163607248" lon="12.03138144204587"><ele>837.0</ele><time>2026-05-02T14:54:53.999Z</time></trkpt><trkpt lat="46.25650323450034" lon="12.031426158308244"><ele>837.0</ele><time>2026-05-02T14:54:54.999Z</time></trkpt><trkpt lat="46.25647941025413" lon="12.031534428859949"><ele>837.0</ele><time>2026-05-02T14:54:55.999Z</time></trkpt><trkpt lat="46.25648618258448" lon="12.031675253380483"><ele>837.0</ele><time>2026-05-02T14:54:56.999Z</time></trkpt><trkpt lat="46.25654948200825" lon="12.031802244476392"><ele>833.5</ele><time>2026-05-02T14:54:57.999Z</time></trkpt><trkpt lat="46.25665026426442" lon="12.031907642365974"><ele>830.0</ele><time>2026-05-02T14:54:58.999Z</time></trkpt><trkpt lat="46.256762482278006" lon="12.032010699538784"><ele>826.5</ele><time>2026-05-02T14:54:59.999Z</time></trkpt><trkpt lat="46.25687408486881" lon="12.032101996381344"><ele>823.0</ele><time>2026-05-02T14:55:00.999Z</time></trkpt><trkpt lat="46.256992221253434" lon="12.032195855644389"><ele>823.0</ele><time>2026-05-02T14:55:01.999Z</time></trkpt><trkpt lat="46.25712409240981" lon="12.032276839647086"><ele>823.0</ele><time>2026-05-02T14:55:02.999Z</time></trkpt><trkpt lat="46.25726186768713" lon="12.032342478421077"><ele>823.0</ele><time>2026-05-02T14:55:03.999Z</time></trkpt><trkpt lat="46.25741563317264" lon="12.032404965887807"><ele>823.0</ele><time>2026-05-02T14:55:05Z</time></trkpt><trkpt lat="46.25757429352647" lon="12.032459365310821"><ele>822.0</ele><time>2026-05-02T14:55:06Z</time></trkpt><trkpt lat="46.257720779037555" lon="12.032536274602089"><ele>821.0</ele><time>2026-05-02T14:55:07Z</time></trkpt><trkpt lat="46.257874259673066" lon="12.032576997286814"><ele>820.0</ele><time>2026-05-02T14:55:08Z</time></trkpt><trkpt lat="46.258020887698365" lon="12.032643934002682"><ele>821.0</ele><time>2026-05-02T14:55:09Z</time></trkpt><trkpt lat="46.25816694572244" lon="12.032694679367491"><ele>822.0</ele><time>2026-05-02T14:55:10Z</time></trkpt><trkpt lat="46.25831565683054" lon="12.032744120796085"><ele>823.0</ele><time>2026-05-02T14:55:11Z</time></trkpt><trkpt lat="46.258465076576506" lon="12.032782507809314"><ele>823.0</ele><time>2026-05-02T14:55:12Z</time></trkpt><trkpt lat="46.25860981577721" lon="12.032805129268468"><ele>823.0</ele><time>2026-05-02T14:55:13Z</time></trkpt><trkpt lat="46.25875365214754" lon="12.032821776639215"><ele>823.0</ele><time>2026-05-02T14:55:14Z</time></trkpt><trkpt lat="46.25891359890432" lon="12.032839526831433"><ele>824.3333333333333</ele><time>2026-05-02T14:55:15Z</time></trkpt><trkpt lat="46.25907213416557" lon="12.032850080087806"><ele>825.6666666666667</ele><time>2026-05-02T14:55:16Z</time></trkpt><trkpt lat="46.259221552525794" lon="12.032858228077107"><ele>827.0</ele><time>2026-05-02T14:55:17Z</time></trkpt><trkpt lat="46.259363422332534" lon="12.032869366728017"><ele>827.0</ele><time>2026-05-02T14:55:18Z</time></trkpt><trkpt lat="46.259499224042386" lon="12.032876657025268"><ele>827.0</ele><time>2026-05-02T14:55:19Z</time></trkpt><trkpt lat="46.25963404741545" lon="12.03278568158903"><ele>827.0</ele><time>2026-05-02T14:55:20Z</time></trkpt><trkpt lat="46.25977085672852" lon="12.032709372396576"><ele>827.0</ele><time>2026-05-02T14:55:21Z</time></trkpt><trkpt lat="46.25987759208165" lon="12.032586359356845"><ele>829.8</ele><time>2026-05-02T14:55:22Z</time></trkpt><trkpt lat="46.25995556599211" lon="12.0324465515151"><ele>832.6</ele><time>2026-05-02T14:55:23Z</time></trkpt><trkpt lat="46.25999638507367" lon="12.032329054754994"><ele>835.4</ele><time>2026-05-02T14:55:24Z</time></trkpt><trkpt lat="46.2600352022387" lon="12.032248850589625"><ele>838.1999999999999</ele><time>2026-05-02T14:55:25Z</time></trkpt><trkpt lat="46.26011276663315" lon="12.032308912914466"><ele>841.0</ele><time>2026-05-02T14:55:27Z</time></trkpt><trkpt lat="46.26011488277913" lon="12.032426167168785"><ele>837.5</ele><time>2026-05-02T14:55:28Z</time></trkpt><trkpt lat="46.26007347052668" lon="12.032548531137568"><ele>834.0</ele><time>2026-05-02T14:55:29Z</time></trkpt><trkpt lat="46.2599732572928" lon="12.032643092938912"><ele>830.5</ele><time>2026-05-02T14:55:30Z</time></trkpt><trkpt lat="46.25986472814421" lon="12.03273837416495"><ele>827.0</ele><time>2026-05-02T14:55:31Z</time></trkpt><trkpt lat="46.259743706852596" lon="12.03287919422885"><ele>827.0</ele><time>2026-05-02T14:55:32Z</time></trkpt><trkpt lat="46.259626534147124" lon="12.033023796968054"><ele>827.0</ele><time>2026-05-02T14:55:33Z</time></trkpt><trkpt lat="46.25949315892267" lon="12.03317652478379"><ele>827.0</ele><time>2026-05-02T14:55:34Z</time></trkpt><trkpt lat="46.25934318056963" lon="12.033312588566357"><ele>816.0</ele><time>2026-05-02T14:55:35Z</time></trkpt><trkpt lat="46.259202164987954" lon="12.033442297343035"><ele>805.0</ele><time>2026-05-02T14:55:36Z</time></trkpt><trkpt lat="46.25907445919194" lon="12.033565928662705"><ele>794.0</ele><time>2026-05-02T14:55:37Z</time></trkpt><trkpt lat="46.258932503879684" lon="12.033616157348057"><ele>793.3333333333334</ele><time>2026-05-02T14:55:38Z</time></trkpt><trkpt lat="46.258790172506984" lon="12.033601447690833"><ele>792.6666666666667</ele><time>2026-05-02T14:55:39Z</time></trkpt><trkpt lat="46.258615745795204" lon="12.033542037768184"><ele>792.0</ele><time>2026-05-02T14:55:40Z</time></trkpt><trkpt lat="46.25841886055991" lon="12.033458534978235"><ele>792.0</ele><time>2026-05-02T14:55:41Z</time></trkpt><trkpt lat="46.25822645713699" lon="12.033356924855907"><ele>792.0</ele><time>2026-05-02T14:55:42Z</time></trkpt><trkpt lat="46.25805993660049" lon="12.033272343436906"><ele>792.0</ele><time>2026-05-02T14:55:43Z</time></trkpt><trkpt lat="46.25789241142388" lon="12.033218450356241"><ele>801.3333333333333</ele><time>2026-05-02T14:55:44Z</time></trkpt><trkpt lat="46.25772083713004" lon="12.033204254883191"><ele>810.6666666666666</ele><time>2026-05-02T14:55:45Z</time></trkpt><trkpt lat="46.257549027986805" lon="12.033208536923333"><ele>820.0</ele><time>2026-05-02T14:55:46Z</time></trkpt><trkpt lat="46.257375139444655" lon="12.033253707618371"><ele>810.3333333333333</ele><time>2026-05-02T14:55:47Z</time></trkpt><trkpt lat="46.257191857278656" lon="12.03334114490392"><ele>800.6666666666667</ele><time>2026-05-02T14:55:48Z</time></trkpt><trkpt lat="46.25699875569608" lon="12.033431009780603"><ele>791.0</ele><time>2026-05-02T14:55:49Z</time></trkpt><trkpt lat="46.25683480925583" lon="12.033485909089814"><ele>791.0</ele><time>2026-05-02T14:55:50Z</time></trkpt><trkpt lat="46.25669940060623" lon="12.033517824708648"><ele>791.0</ele><time>2026-05-02T14:55:51Z</time></trkpt><trkpt lat="46.25658797185158" lon="12.03354880785825"><ele>791.0</ele><time>2026-05-02T14:55:52Z</time></trkpt><trkpt lat="46.25648853489321" lon="12.033577577452398"><ele>791.0</ele><time>2026-05-02T14:55:53Z</time></trkpt><trkpt lat="46.256398389452855" lon="12.033603756350788"><ele>791.0</ele><time>2026-05-02T14:55:54Z</time></trkpt><trkpt lat="46.25632898228185" lon="12.033673511893262"><ele>791.0</ele><time>2026-05-02T14:55:55Z</time></trkpt><trkpt lat="46.25630967135889" lon="12.033791583566433"><ele>791.0</ele><time>2026-05-02T14:55:56Z</time></trkpt><trkpt lat="46.25635149908244" lon="12.03390707582268"><ele>791.0</ele><time>2026-05-02T14:55:57Z</time></trkpt><trkpt lat="46.256417752793226" lon="12.03401528505067"><ele>791.0</ele><time>2026-05-02T14:55:58Z</time></trkpt><trkpt lat="46.25656727011364" lon="12.034024135327721"><ele>791.0</ele><time>2026-05-02T14:55:59Z</time></trkpt><trkpt lat="46.25671489330153" lon="12.03393932086481"><ele>791.0</ele><time>2026-05-02T14:56:00Z</time></trkpt><trkpt lat="46.256867758039505" lon="12.033888293337801"><ele>791.0</ele><time>2026-05-02T14:56:01Z</time></trkpt><trkpt lat="46.25703788489318" lon="12.033842390709875"><ele>791.0</ele><time>2026-05-02T14:56:02Z</time></trkpt><trkpt lat="46.25720400728669" lon="12.03382904119316"><ele>790.3333333333334</ele><time>2026-05-02T14:56:02.999Z</time></trkpt><trkpt lat="46.25737958405031" lon="12.033833019410078"><ele>789.6666666666667</ele><time>2026-05-02T14:56:03.999Z</time></trkpt><trkpt lat="46.257550219733076" lon="12.03385058154634"><ele>789.0</ele><time>2026-05-02T14:56:04.999Z</time></trkpt><trkpt lat="46.25771205902493" lon="12.033877559546532"><ele>789.0</ele><time>2026-05-02T14:56:05.999Z</time></trkpt><trkpt lat="46.25785934805626" lon="12.033932494543889"><ele>789.0</ele><time>2026-05-02T14:56:06.999Z</time></trkpt><trkpt lat="46.25799837687698" lon="12.034035955407424"><ele>789.0</ele><time>2026-05-02T14:56:07.999Z</time></trkpt><trkpt lat="46.25812685035533" lon="12.03418752770734"><ele>782.3333333333333</ele><time>2026-05-02T14:56:08.999Z</time></trkpt><trkpt lat="46.25825707746641" lon="12.034331705009402"><ele>775.6666666666666</ele><time>2026-05-02T14:56:09.999Z</time></trkpt><trkpt lat="46.25838362203715" lon="12.034491836983063"><ele>769.0</ele><time>2026-05-02T14:56:10.999Z</time></trkpt><trkpt lat="46.25853582048333" lon="12.034622370088114"><ele>769.0</ele><time>2026-05-02T14:56:11.999Z</time></trkpt><trkpt lat="46.25869112334609" lon="12.034712250485901"><ele>769.0</ele><time>2026-05-02T14:56:12.999Z</time></trkpt><trkpt lat="46.2588419970834" lon="12.034789381719063"><ele>769.0</ele><time>2026-05-02T14:56:13.999Z</time></trkpt><trkpt lat="46.25899483384552" lon="12.034831441938339"><ele>771.3333333333333</ele><time>2026-05-02T14:56:14.999Z</time></trkpt><trkpt lat="46.259145100458596" lon="12.034825451142146"><ele>773.6666666666667</ele><time>2026-05-02T14:56:15.999Z</time></trkpt><trkpt lat="46.25929016542162" lon="12.034791239240286"><ele>776.0</ele><time>2026-05-02T14:56:16.999Z</time></trkpt><trkpt lat="46.25943543550887" lon="12.03471598232799"><ele>776.0</ele><time>2026-05-02T14:56:17.999Z</time></trkpt><trkpt lat="46.25959117487707" lon="12.034586326133532"><ele>776.0</ele><time>2026-05-02T14:56:18.999Z</time></trkpt><trkpt lat="46.25976465755096" lon="12.034440100898498"><ele>776.0</ele><time>2026-05-02T14:56:19.999Z</time></trkpt><trkpt lat="46.25992156351811" lon="12.034286981680692"><ele>777.3333333333334</ele><time>2026-05-02T14:56:20.999Z</time></trkpt><trkpt lat="46.2600670657819" lon="12.034140112208593"><ele>778.6666666666667</ele><time>2026-05-02T14:56:21.999Z</time></trkpt><trkpt lat="46.26020459794598" lon="12.033981602866394"><ele>780.0</ele><time>2026-05-02T14:56:22.999Z</time></trkpt><trkpt lat="46.26032122013701" lon="12.03381593202644"><ele>780.0</ele><time>2026-05-02T14:56:23.999Z</time></trkpt><trkpt lat="46.260439734479796" lon="12.033699277505937"><ele>780.0</ele><time>2026-05-02T14:56:24.999Z</time></trkpt><trkpt lat="46.260562325231916" lon="12.033627538475058"><ele>780.0</ele><time>2026-05-02T14:56:25.999Z</time></trkpt><trkpt lat="46.26070868493399" lon="12.033596155735097"><ele>780.0</ele><time>2026-05-02T14:56:26.999Z</time></trkpt><trkpt lat="46.26088103331262" lon="12.033579313439994"><ele>770.6666666666666</ele><time>2026-05-02T14:56:27.999Z</time></trkpt><trkpt lat="46.26107018512899" lon="12.03353830834103"><ele>761.3333333333333</ele><time>2026-05-02T14:56:28.999Z</time></trkpt><trkpt lat="46.26124984893269" lon="12.033477838385936"><ele>752.0</ele><time>2026-05-02T14:56:29.999Z</time></trkpt><trkpt lat="46.26141004642204" lon="12.033425908550543"><ele>749.25</ele><time>2026-05-02T14:56:30.999Z</time></trkpt><trkpt lat="46.261552571336495" lon="12.033424105664274"><ele>746.5</ele><time>2026-05-02T14:56:31.999Z</time></trkpt><trkpt lat="46.26169440805446" lon="12.033482587158481"><ele>743.75</ele><time>2026-05-02T14:56:32.999Z</time></trkpt><trkpt lat="46.26183906398318" lon="12.03356779111979"><ele>741.0</ele><time>2026-05-02T14:56:33.999Z</time></trkpt><trkpt lat="46.26199852872697" lon="12.03364687929187"><ele>741.0</ele><time>2026-05-02T14:56:34.999Z</time></trkpt><trkpt lat="46.26216446654873" lon="12.033734948389066"><ele>741.0</ele><time>2026-05-02T14:56:35.999Z</time></trkpt><trkpt lat="46.2623499107365" lon="12.033816984219492"><ele>741.0</ele><time>2026-05-02T14:56:36.999Z</time></trkpt><trkpt lat="46.262519716061796" lon="12.033880805691883"><ele>745.3333333333334</ele><time>2026-05-02T14:56:37.999Z</time></trkpt><trkpt lat="46.2626768157792" lon="12.033951585111376"><ele>749.6666666666667</ele><time>2026-05-02T14:56:38.999Z</time></trkpt><trkpt lat="46.26283604661574" lon="12.034006289836999"><ele>754.0</ele><time>2026-05-02T14:56:39.999Z</time></trkpt><trkpt lat="46.263002508629945" lon="12.034037039553764"><ele>754.6666666666667</ele><time>2026-05-02T14:56:40.999Z</time></trkpt><trkpt lat="46.26316303197399" lon="12.034025711837137"><ele>755.3333333333334</ele><time>2026-05-02T14:56:41.999Z</time></trkpt><trkpt lat="46.263320960616376" lon="12.034001126694491"><ele>756.0</ele><time>2026-05-02T14:56:42.999Z</time></trkpt><trkpt lat="46.26347688781847" lon="12.034008076170954"><ele>756.0</ele><time>2026-05-02T14:56:43.999Z</time></trkpt><trkpt lat="46.2636275827239" lon="12.03404154138544"><ele>756.0</ele><time>2026-05-02T14:56:44.999Z</time></trkpt><trkpt lat="46.26377979975546" lon="12.034108271598626"><ele>756.0</ele><time>2026-05-02T14:56:45.999Z</time></trkpt><trkpt lat="46.26393957105264" lon="12.034159330586856"><ele>741.3333333333334</ele><time>2026-05-02T14:56:46.999Z</time></trkpt><trkpt lat="46.264099046293985" lon="12.034197019756736"><ele>726.6666666666667</ele><time>2026-05-02T14:56:47.999Z</time></trkpt><trkpt lat="46.26423714992073" lon="12.034334170114535"><ele>712.0</ele><time>2026-05-02T14:56:48.999Z</time></trkpt><trkpt lat="46.26438054006549" lon="12.034417037210984"><ele>712.0</ele><time>2026-05-02T14:56:49.999Z</time></trkpt><trkpt lat="46.264520823195554" lon="12.03449390920574"><ele>712.0</ele><time>2026-05-02T14:56:50.999Z</time></trkpt><trkpt lat="46.264663707168154" lon="12.034545669698648"><ele>712.0</ele><time>2026-05-02T14:56:51.999Z</time></trkpt><trkpt lat="46.2648116081718" lon="12.034567877759416"><ele>712.0</ele><time>2026-05-02T14:56:52.999Z</time></trkpt><trkpt lat="46.26497319040776" lon="12.034553325070034"><ele>712.0</ele><time>2026-05-02T14:56:53.999Z</time></trkpt><trkpt lat="46.265145816042136" lon="12.034512390972484"><ele>712.0</ele><time>2026-05-02T14:56:54.999Z</time></trkpt><trkpt lat="46.26531903593002" lon="12.034464931739047"><ele>712.0</ele><time>2026-05-02T14:56:55.999Z</time></trkpt><trkpt lat="46.26548591499012" lon="12.034424593967016"><ele>710.6666666666667</ele><time>2026-05-02T14:56:56.999Z</time></trkpt><trkpt lat="46.265646304300816" lon="12.034379961180944"><ele>709.3333333333334</ele><time>2026-05-02T14:56:57.999Z</time></trkpt><trkpt lat="46.265798997704835" lon="12.03433762667737"><ele>708.0</ele><time>2026-05-02T14:56:58.999Z</time></trkpt><trkpt lat="46.265948113000384" lon="12.034291136025596"><ele>708.0</ele><time>2026-05-02T14:56:59.999Z</time></trkpt><trkpt lat="46.2661074561187" lon="12.034217874484899"><ele>708.0</ele><time>2026-05-02T14:57:00.999Z</time></trkpt><trkpt lat="46.26625782455198" lon="12.034119354328281"><ele>708.0</ele><time>2026-05-02T14:57:01.999Z</time></trkpt><trkpt lat="46.26640867839361" lon="12.03401703901094"><ele>710.3333333333334</ele><time>2026-05-02T14:57:02.999Z</time></trkpt><trkpt lat="46.266559573190655" lon="12.033913249794777"><ele>712.6666666666667</ele><time>2026-05-02T14:57:03.999Z</time></trkpt><trkpt lat="46.26670540435412" lon="12.033813050207133"><ele>715.0</ele><time>2026-05-02T14:57:04.999Z</time></trkpt><trkpt lat="46.26685102615361" lon="12.033724110532704"><ele>715.0</ele><time>2026-05-02T14:57:05.999Z</time></trkpt><trkpt lat="46.266997344406036" lon="12.033637066169177"><ele>715.0</ele><time>2026-05-02T14:57:06.999Z</time></trkpt><trkpt lat="46.26713364686742" lon="12.03354046258545"><ele>715.0</ele><time>2026-05-02T14:57:07.999Z</time></trkpt><trkpt lat="46.267257067916766" lon="12.033418005034818"><ele>709.0</ele><time>2026-05-02T14:57:08.999Z</time></trkpt><trkpt lat="46.267376823097806" lon="12.033274972177352"><ele>703.0</ele><time>2026-05-02T14:57:09.999Z</time></trkpt><trkpt lat="46.267461443702665" lon="12.033083800779316"><ele>697.0</ele><time>2026-05-02T14:57:11Z</time></trkpt><trkpt lat="46.267529283460014" lon="12.032901244092168"><ele>697.0</ele><time>2026-05-02T14:57:12Z</time></trkpt><trkpt lat="46.26757731826779" lon="12.032763498462192"><ele>697.0</ele><time>2026-05-02T14:57:13Z</time></trkpt><trkpt lat="46.26761742983466" lon="12.032679604750527"><ele>697.0</ele><time>2026-05-02T14:57:14Z</time></trkpt><trkpt lat="46.26771558487894" lon="12.032650191448404"><ele>697.0</ele><time>2026-05-02T14:57:16Z</time></trkpt><trkpt lat="46.26776272028918" lon="12.032763156128004"><ele>697.0</ele><time>2026-05-02T14:57:17Z</time></trkpt><trkpt lat="46.267746521449915" lon="12.032902335518054"><ele>697.0</ele><time>2026-05-02T14:57:18Z</time></trkpt><trkpt lat="46.26767908969183" lon="12.033052624833193"><ele>697.0</ele><time>2026-05-02T14:57:19Z</time></trkpt><trkpt lat="46.267583031309435" lon="12.033206655002957"><ele>697.0</ele><time>2026-05-02T14:57:20Z</time></trkpt><trkpt lat="46.267486659956525" lon="12.033377474974994"><ele>697.0</ele><time>2026-05-02T14:57:21Z</time></trkpt><trkpt lat="46.26737050614561" lon="12.033551254033723"><ele>703.0</ele><time>2026-05-02T14:57:22Z</time></trkpt><trkpt lat="46.267244782038865" lon="12.033734559612535"><ele>709.0</ele><time>2026-05-02T14:57:23Z</time></trkpt><trkpt lat="46.267096088838855" lon="12.033916952470685"><ele>715.0</ele><time>2026-05-02T14:57:24Z</time></trkpt><trkpt lat="46.26695183356169" lon="12.034068586530559"><ele>707.0</ele><time>2026-05-02T14:57:25Z</time></trkpt><trkpt lat="46.26682240827601" lon="12.034217711783171"><ele>699.0</ele><time>2026-05-02T14:57:26Z</time></trkpt><trkpt lat="46.26668503657854" lon="12.034370920647524"><ele>691.0</ele><time>2026-05-02T14:57:27Z</time></trkpt><trkpt lat="46.266544491648844" lon="12.034521362303675"><ele>696.6666666666667</ele><time>2026-05-02T14:57:28Z</time></trkpt><trkpt lat="46.2663789204045" lon="12.034644215223802"><ele>702.3333333333334</ele><time>2026-05-02T14:57:29Z</time></trkpt><trkpt lat="46.266206429883" lon="12.034730129120058"><ele>708.0</ele><time>2026-05-02T14:57:30Z</time></trkpt><trkpt lat="46.26603786068791" lon="12.034829640193756"><ele>708.0</ele><time>2026-05-02T14:57:31Z</time></trkpt><trkpt lat="46.26587541448334" lon="12.034933148923457"><ele>708.0</ele><time>2026-05-02T14:57:32Z</time></trkpt><trkpt lat="46.26571811575999" lon="12.035023537645813"><ele>708.0</ele><time>2026-05-02T14:57:33Z</time></trkpt><trkpt lat="46.26555378476016" lon="12.035117886937893"><ele>699.6666666666666</ele><time>2026-05-02T14:57:34Z</time></trkpt><trkpt lat="46.26538228170871" lon="12.035199608746533"><ele>691.3333333333333</ele><time>2026-05-02T14:57:35Z</time></trkpt><trkpt lat="46.26520806107616" lon="12.03527180350806"><ele>683.0</ele><time>2026-05-02T14:57:36Z</time></trkpt><trkpt lat="46.2650340457745" lon="12.035324611412006"><ele>683.0</ele><time>2026-05-02T14:57:37Z</time></trkpt><trkpt lat="46.26486517386144" lon="12.035384278145107"><ele>683.0</ele><time>2026-05-02T14:57:38Z</time></trkpt><trkpt lat="46.26470001913965" lon="12.035446273806011"><ele>683.0</ele><time>2026-05-02T14:57:39Z</time></trkpt><trkpt lat="46.264540363302935" lon="12.035503479104854"><ele>685.0</ele><time>2026-05-02T14:57:40Z</time></trkpt><trkpt lat="46.26437938545232" lon="12.035561892603884"><ele>687.0</ele><time>2026-05-02T14:57:41Z</time></trkpt><trkpt lat="46.26422457094598" lon="12.035647916730197"><ele>689.0</ele><time>2026-05-02T14:57:42Z</time></trkpt><trkpt lat="46.26407299230075" lon="12.035682287580808"><ele>687.0</ele><time>2026-05-02T14:57:43Z</time></trkpt><trkpt lat="46.26391916206959" lon="12.035742344013423"><ele>685.0</ele><time>2026-05-02T14:57:44Z</time></trkpt><trkpt lat="46.26376342550341" lon="12.03578667527938"><ele>683.0</ele><time>2026-05-02T14:57:45Z</time></trkpt><trkpt lat="46.26360912191702" lon="12.035767089497643"><ele>683.0</ele><time>2026-05-02T14:57:46Z</time></trkpt><trkpt lat="46.26345098944543" lon="12.035716376942393"><ele>683.0</ele><time>2026-05-02T14:57:47Z</time></trkpt><trkpt lat="46.2632594276689" lon="12.035697644124053"><ele>683.0</ele><time>2026-05-02T14:57:49Z</time></trkpt><trkpt lat="46.26312050841833" lon="12.035730241670285"><ele>683.4</ele><time>2026-05-02T14:57:50Z</time></trkpt><trkpt lat="46.26298583768577" lon="12.035742028876792"><ele>683.8</ele><time>2026-05-02T14:57:51Z</time></trkpt><trkpt lat="46.26286999986935" lon="12.035766675036983"><ele>684.2</ele><time>2026-05-02T14:57:52Z</time></trkpt><trkpt lat="46.262793267328654" lon="12.035792022819624"><ele>684.6</ele><time>2026-05-02T14:57:53Z</time></trkpt><trkpt lat="46.26272754576948" lon="12.035810856571139"><ele>685.0</ele><time>2026-05-02T14:57:54Z</time></trkpt><trkpt lat="46.262677170910706" lon="12.035867347889546"><ele>679.0</ele><time>2026-05-02T14:57:55Z</time></trkpt><trkpt lat="46.26265771291089" lon="12.035969830730727"><ele>673.0</ele><time>2026-05-02T14:57:56Z</time></trkpt><trkpt lat="46.262679706726004" lon="12.03607139215353"><ele>667.0</ele><time>2026-05-02T14:57:57Z</time></trkpt><trkpt lat="46.26275487961273" lon="12.036149679348982"><ele>661.0</ele><time>2026-05-02T14:57:58Z</time></trkpt><trkpt lat="46.26286150510938" lon="12.036196635783467"><ele>655.0</ele><time>2026-05-02T14:57:59Z</time></trkpt><trkpt lat="46.26300217446125" lon="12.036170564555771"><ele>653.3333333333334</ele><time>2026-05-02T14:58:00Z</time></trkpt><trkpt lat="46.263163856148545" lon="12.0361124692297"><ele>651.6666666666666</ele><time>2026-05-02T14:58:00.999Z</time></trkpt><trkpt lat="46.263328038782106" lon="12.036059759253558"><ele>650.0</ele><time>2026-05-02T14:58:01.999Z</time></trkpt><trkpt lat="46.26351083311482" lon="12.036069223791495"><ele>650.0</ele><time>2026-05-02T14:58:02.999Z</time></trkpt><trkpt lat="46.26367793492477" lon="12.036106344488603"><ele>650.0</ele><time>2026-05-02T14:58:03.999Z</time></trkpt><trkpt lat="46.26384466413738" lon="12.036158836798895"><ele>650.0</ele><time>2026-05-02T14:58:04.999Z</time></trkpt><trkpt lat="46.26400916574258" lon="12.036241239592288"><ele>649.3333333333333</ele><time>2026-05-02T14:58:05.999Z</time></trkpt><trkpt lat="46.26416660520487" lon="12.036303084677543"><ele>648.6666666666666</ele><time>2026-05-02T14:58:06.999Z</time></trkpt><trkpt lat="46.2643202390233" lon="12.036364519988078"><ele>648.0</ele><time>2026-05-02T14:58:07.999Z</time></trkpt><trkpt lat="46.26447412703976" lon="12.036399131997472"><ele>648.0</ele><time>2026-05-02T14:58:08.999Z</time></trkpt><trkpt lat="46.264646239381065" lon="12.036385215274152"><ele>648.0</ele><time>2026-05-02T14:58:09.999Z</time></trkpt><trkpt lat="46.26486570175963" lon="12.036293265974084"><ele>648.0</ele><time>2026-05-02T14:58:10.999Z</time></trkpt><trkpt lat="46.26503913027702" lon="12.036236477139136"><ele>646.0</ele><time>2026-05-02T14:58:11.999Z</time></trkpt><trkpt lat="46.2652064928111" lon="12.036174248720272"><ele>644.0</ele><time>2026-05-02T14:58:12.999Z</time></trkpt><trkpt lat="46.26537176295355" lon="12.03613918903622"><ele>642.0</ele><time>2026-05-02T14:58:13.999Z</time></trkpt><trkpt lat="46.26553971317572" lon="12.036108692787916"><ele>639.3333333333334</ele><time>2026-05-02T14:58:14.999Z</time></trkpt><trkpt lat="46.26571479255876" lon="12.036171275822536"><ele>636.6666666666667</ele><time>2026-05-02T14:58:15.999Z</time></trkpt><trkpt lat="46.26589666137399" lon="12.036187945333127"><ele>634.0</ele><time>2026-05-02T14:58:16.999Z</time></trkpt><trkpt lat="46.26607220414505" lon="12.03623203868172"><ele>634.0</ele><time>2026-05-02T14:58:17.999Z</time></trkpt><trkpt lat="46.266236996395385" lon="12.03627487094326"><ele>634.0</ele><time>2026-05-02T14:58:18.999Z</time></trkpt><trkpt lat="46.26639180316848" lon="12.036309214812013"><ele>634.0</ele><time>2026-05-02T14:58:19.999Z</time></trkpt><trkpt lat="46.2665298415403" lon="12.03632013610195"><ele>632.0</ele><time>2026-05-02T14:58:20.999Z</time></trkpt><trkpt lat="46.26667227185931" lon="12.036290783121679"><ele>630.0</ele><time>2026-05-02T14:58:21.999Z</time></trkpt><trkpt lat="46.2668405875715" lon="12.036212194288103"><ele>628.0</ele><time>2026-05-02T14:58:22.999Z</time></trkpt><trkpt lat="46.26700230238748" lon="12.036132665903024"><ele>628.0</ele><time>2026-05-02T14:58:23.999Z</time></trkpt><trkpt lat="46.26716302264412" lon="12.036054415032922"><ele>628.0</ele><time>2026-05-02T14:58:24.999Z</time></trkpt><trkpt lat="46.2673360173466" lon="12.03597090250019"><ele>628.0</ele><time>2026-05-02T14:58:25.999Z</time></trkpt><trkpt lat="46.267489629471726" lon="12.035819602380174"><ele>632.0</ele><time>2026-05-02T14:58:26.999Z</time></trkpt><trkpt lat="46.267616851914696" lon="12.035664957348528"><ele>636.0</ele><time>2026-05-02T14:58:27.999Z</time></trkpt><trkpt lat="46.26774984604888" lon="12.035552462523377"><ele>640.0</ele><time>2026-05-02T14:58:28.999Z</time></trkpt><trkpt lat="46.26790172561737" lon="12.035525124235608"><ele>640.0</ele><time>2026-05-02T14:58:29.999Z</time></trkpt><trkpt lat="46.26806035523503" lon="12.03549419899019"><ele>640.0</ele><time>2026-05-02T14:58:30.999Z</time></trkpt><trkpt lat="46.26821362084176" lon="12.035485574517983"><ele>640.0</ele><time>2026-05-02T14:58:31.999Z</time></trkpt><trkpt lat="46.26836196207104" lon="12.035470380161238"><ele>635.5</ele><time>2026-05-02T14:58:32.999Z</time></trkpt><trkpt lat="46.268506416449675" lon="12.03544385686244"><ele>631.0</ele><time>2026-05-02T14:58:33.999Z</time></trkpt><trkpt lat="46.26864934564485" lon="12.035414255675676"><ele>626.5</ele><time>2026-05-02T14:58:34.999Z</time></trkpt><trkpt lat="46.26879285894872" lon="12.035356341056168"><ele>622.0</ele><time>2026-05-02T14:58:35.999Z</time></trkpt><trkpt lat="46.26893955827121" lon="12.035321211798552"><ele>618.2</ele><time>2026-05-02T14:58:36.999Z</time></trkpt><trkpt lat="46.269070685206856" lon="12.035269421708556"><ele>614.4000000000001</ele><time>2026-05-02T14:58:37.999Z</time></trkpt><trkpt lat="46.26917559624063" lon="12.03522478309097"><ele>610.5999999999999</ele><time>2026-05-02T14:58:38.999Z</time></trkpt><trkpt lat="46.269268571289444" lon="12.035169677343948"><ele>606.8</ele><time>2026-05-02T14:58:39.999Z</time></trkpt><trkpt lat="46.269348975308795" lon="12.035099836171105"><ele>603.0</ele><time>2026-05-02T14:58:40.999Z</time></trkpt><trkpt lat="46.26941000734137" lon="12.035060935974439"><ele>603.0</ele><time>2026-05-02T14:58:41.999Z</time></trkpt><trkpt lat="46.26951388506379" lon="12.035093258282958"><ele>603.0</ele><time>2026-05-02T14:58:43.999Z</time></trkpt><trkpt lat="46.26953938455216" lon="12.03522531998684"><ele>603.0</ele><time>2026-05-02T14:58:44.999Z</time></trkpt><trkpt lat="46.269595493994004" lon="12.035337800583736"><ele>603.0</ele><time>2026-05-02T14:58:45.999Z</time></trkpt><trkpt lat="46.269628597585296" lon="12.035450369847862"><ele>603.0</ele><time>2026-05-02T14:58:46.999Z</time></trkpt><trkpt lat="46.26967356048502" lon="12.035577117562852"><ele>603.0</ele><time>2026-05-02T14:58:47.999Z</time></trkpt><trkpt lat="46.26971776480078" lon="12.035725046035312"><ele>603.0</ele><time>2026-05-02T14:58:48.999Z</time></trkpt><trkpt lat="46.2697574900032" lon="12.035885083445628"><ele>603.0</ele><time>2026-05-02T14:58:49.999Z</time></trkpt><trkpt lat="46.26978929212833" lon="12.036031949567295"><ele>603.0</ele><time>2026-05-02T14:58:50.999Z</time></trkpt><trkpt lat="46.269823729922756" lon="12.036158422712491"><ele>603.0</ele><time>2026-05-02T14:58:51.999Z</time></trkpt><trkpt lat="46.26985890637485" lon="12.036292640178907"><ele>601.4</ele><time>2026-05-02T14:58:52.999Z</time></trkpt><trkpt lat="46.26988718959757" lon="12.036423665042125"><ele>599.8</ele><time>2026-05-02T14:58:53.999Z</time></trkpt><trkpt lat="46.26990162558801" lon="12.036524949962363"><ele>598.2</ele><time>2026-05-02T14:58:54.999Z</time></trkpt><trkpt lat="46.2699135033464" lon="12.036631945559867"><ele>596.6</ele><time>2026-05-02T14:58:55.999Z</time></trkpt><trkpt lat="46.269918370671014" lon="12.036786069925558"><ele>595.0</ele><time>2026-05-02T14:58:56.999Z</time></trkpt><trkpt lat="46.26991288947729" lon="12.03698659808882"><ele>595.0</ele><time>2026-05-02T14:58:57.999Z</time></trkpt><trkpt lat="46.269903496179175" lon="12.037212060478664"><ele>595.0</ele><time>2026-05-02T14:58:58.999Z</time></trkpt><trkpt lat="46.26992720824465" lon="12.037416749168782"><ele>595.0</ele><time>2026-05-02T14:58:59.999Z</time></trkpt><trkpt lat="46.26997339322016" lon="12.037606164110123"><ele>595.0</ele><time>2026-05-02T14:59:00.999Z</time></trkpt><trkpt lat="46.27003751922463" lon="12.037786183982837"><ele>595.5</ele><time>2026-05-02T14:59:01.999Z</time></trkpt><trkpt lat="46.27012048210665" lon="12.037951581824306"><ele>596.0</ele><time>2026-05-02T14:59:02.999Z</time></trkpt><trkpt lat="46.27022473340376" lon="12.038076560340716"><ele>596.5</ele><time>2026-05-02T14:59:03.999Z</time></trkpt><trkpt lat="46.27034380115705" lon="12.03818492065891"><ele>597.0</ele><time>2026-05-02T14:59:04.999Z</time></trkpt><trkpt lat="46.27045723337737" lon="12.038293416976904"><ele>594.75</ele><time>2026-05-02T14:59:05.999Z</time></trkpt><trkpt lat="46.27055235755145" lon="12.038427965290987"><ele>592.5</ele><time>2026-05-02T14:59:06.999Z</time></trkpt><trkpt lat="46.270619693285084" lon="12.038604668742824"><ele>590.25</ele><time>2026-05-02T14:59:07.999Z</time></trkpt><trkpt lat="46.27066021923117" lon="12.038796503216957"><ele>588.0</ele><time>2026-05-02T14:59:08.999Z</time></trkpt><trkpt lat="46.270680440494864" lon="12.038984773802124"><ele>587.0</ele><time>2026-05-02T14:59:09.999Z</time></trkpt><trkpt lat="46.27068134430279" lon="12.039185099313976"><ele>586.0</ele><time>2026-05-02T14:59:10.999Z</time></trkpt><trkpt lat="46.27066797922519" lon="12.039397151308581"><ele>585.0</ele><time>2026-05-02T14:59:11.999Z</time></trkpt><trkpt lat="46.27065268142947" lon="12.039601225636865"><ele>584.0</ele><time>2026-05-02T14:59:12.999Z</time></trkpt><trkpt lat="46.27060681530055" lon="12.039791049798314"><ele>584.0</ele><time>2026-05-02T14:59:13.999Z</time></trkpt><trkpt lat="46.27055561487131" lon="12.039965150383438"><ele>584.0</ele><time>2026-05-02T14:59:14.999Z</time></trkpt><trkpt lat="46.270475662945486" lon="12.040108810692342"><ele>584.0</ele><time>2026-05-02T14:59:15.999Z</time></trkpt><trkpt lat="46.270365665297625" lon="12.040216312844873"><ele>584.0</ele><time>2026-05-02T14:59:17Z</time></trkpt><trkpt lat="46.27023270993071" lon="12.040272679173883"><ele>584.5</ele><time>2026-05-02T14:59:18Z</time></trkpt><trkpt lat="46.270095430829706" lon="12.040259551986074"><ele>585.0</ele><time>2026-05-02T14:59:19Z</time></trkpt><trkpt lat="46.269964016942566" lon="12.04019772638245"><ele>585.5</ele><time>2026-05-02T14:59:20Z</time></trkpt><trkpt lat="46.269849390478875" lon="12.04008556182092"><ele>586.0</ele><time>2026-05-02T14:59:21Z</time></trkpt><trkpt lat="46.26975884790893" lon="12.039915904968776"><ele>586.0</ele><time>2026-05-02T14:59:22Z</time></trkpt><trkpt lat="46.269674634578216" lon="12.039737572140055"><ele>586.0</ele><time>2026-05-02T14:59:23Z</time></trkpt><trkpt lat="46.26960938579432" lon="12.039572326192323"><ele>586.0</ele><time>2026-05-02T14:59:24Z</time></trkpt><trkpt lat="46.269530715163015" lon="12.039448916644192"><ele>586.0</ele><time>2026-05-02T14:59:25Z</time></trkpt><trkpt lat="46.26943612098215" lon="12.039352423303464"><ele>586.0</ele><time>2026-05-02T14:59:26Z</time></trkpt><trkpt lat="46.2693287075626" lon="12.039310470781983"><ele>586.0</ele><time>2026-05-02T14:59:27Z</time></trkpt><trkpt lat="46.26922040708489" lon="12.039296386328385"><ele>586.0</ele><time>2026-05-02T14:59:28Z</time></trkpt><trkpt lat="46.269106643761376" lon="12.03930323472283"><ele>586.0</ele><time>2026-05-02T14:59:29Z</time></trkpt><trkpt lat="46.2689834376573" lon="12.039359987669398"><ele>583.0</ele><time>2026-05-02T14:59:30Z</time></trkpt><trkpt lat="46.26885356954508" lon="12.039453164825089"><ele>580.0</ele><time>2026-05-02T14:59:31Z</time></trkpt><trkpt lat="46.26873200322308" lon="12.039542756746675"><ele>577.0</ele><time>2026-05-02T14:59:32Z</time></trkpt><trkpt lat="46.268617221967574" lon="12.039606772630483"><ele>574.0</ele><time>2026-05-02T14:59:33Z</time></trkpt><trkpt lat="46.26849386546092" lon="12.039651012447163"><ele>574.0</ele><time>2026-05-02T14:59:34Z</time></trkpt><trkpt lat="46.26836073427558" lon="12.03969659534227"><ele>574.0</ele><time>2026-05-02T14:59:35Z</time></trkpt><trkpt lat="46.268218971165446" lon="12.039719512499461"><ele>574.0</ele><time>2026-05-02T14:59:36Z</time></trkpt><trkpt lat="46.26806713311675" lon="12.039714297666292"><ele>574.0</ele><time>2026-05-02T14:59:37Z</time></trkpt><trkpt lat="46.26790769705665" lon="12.039682915537705"><ele>573.0</ele><time>2026-05-02T14:59:38Z</time></trkpt><trkpt lat="46.26774861713201" lon="12.039636408987716"><ele>572.0</ele><time>2026-05-02T14:59:39Z</time></trkpt><trkpt lat="46.267587981762354" lon="12.039578839633782"><ele>571.0</ele><time>2026-05-02T14:59:40Z</time></trkpt><trkpt lat="46.26742817214739" lon="12.039526291099474"><ele>572.0</ele><time>2026-05-02T14:59:41Z</time></trkpt><trkpt lat="46.26726930142834" lon="12.039469683957664"><ele>573.0</ele><time>2026-05-02T14:59:42Z</time></trkpt><trkpt lat="46.2671192750407" lon="12.039419398558644"><ele>574.0</ele><time>2026-05-02T14:59:43Z</time></trkpt><trkpt lat="46.26696452593797" lon="12.039367493609996"><ele>574.0</ele><time>2026-05-02T14:59:44Z</time></trkpt><trkpt lat="46.26680353148221" lon="12.039330048362293"><ele>574.0</ele><time>2026-05-02T14:59:45Z</time></trkpt><trkpt lat="46.266635514686996" lon="12.039327375011517"><ele>574.0</ele><time>2026-05-02T14:59:46Z</time></trkpt><trkpt lat="46.26645823684676" lon="12.039361330109575"><ele>573.6666666666667</ele><time>2026-05-02T14:59:47Z</time></trkpt><trkpt lat="46.266269766411575" lon="12.039426713930615"><ele>573.3333333333334</ele><time>2026-05-02T14:59:48Z</time></trkpt><trkpt lat="46.266078963885334" lon="12.039526084219924"><ele>573.0</ele><time>2026-05-02T14:59:49Z</time></trkpt><trkpt lat="46.26589577408054" lon="12.039644459540058"><ele>573.0</ele><time>2026-05-02T14:59:50Z</time></trkpt><trkpt lat="46.26572162327921" lon="12.039743876719664"><ele>573.0</ele><time>2026-05-02T14:59:51Z</time></trkpt><trkpt lat="46.26555251692147" lon="12.039825617157422"><ele>573.0</ele><time>2026-05-02T14:59:52Z</time></trkpt><trkpt lat="46.2653948899668" lon="12.039909642450809"><ele>574.0</ele><time>2026-05-02T14:59:53Z</time></trkpt><trkpt lat="46.26523963211905" lon="12.039993106273485"><ele>575.0</ele><time>2026-05-02T14:59:54Z</time></trkpt><trkpt lat="46.26507401385098" lon="12.040073105609801"><ele>576.0</ele><time>2026-05-02T14:59:55Z</time></trkpt><trkpt lat="46.264906208335546" lon="12.04015616846319"><ele>575.6666666666666</ele><time>2026-05-02T14:59:56Z</time></trkpt><trkpt lat="46.264741218729284" lon="12.040223216946995"><ele>575.3333333333333</ele><time>2026-05-02T14:59:57Z</time></trkpt><trkpt lat="46.26458530112236" lon="12.040269406576451"><ele>575.0</ele><time>2026-05-02T14:59:58Z</time></trkpt><trkpt lat="46.26441905263955" lon="12.04030876257314"><ele>575.0</ele><time>2026-05-02T14:59:59Z</time></trkpt><trkpt lat="46.26425611435824" lon="12.040342645676958"><ele>575.0</ele><time>2026-05-02T15:00:00Z</time></trkpt><trkpt lat="46.26409487440612" lon="12.04038353207178"><ele>575.0</ele><time>2026-05-02T15:00:00.999Z</time></trkpt><trkpt lat="46.26392970998345" lon="12.04042323694661"><ele>573.3333333333333</ele><time>2026-05-02T15:00:01.999Z</time></trkpt><trkpt lat="46.26376087189644" lon="12.040463530302798"><ele>571.6666666666666</ele><time>2026-05-02T15:00:02.999Z</time></trkpt><trkpt lat="46.263605035069205" lon="12.0404992626075"><ele>570.0</ele><time>2026-05-02T15:00:03.999Z</time></trkpt><trkpt lat="46.263453183072095" lon="12.040535437583323"><ele>570.0</ele><time>2026-05-02T15:00:04.999Z</time></trkpt><trkpt lat="46.26331216748661" lon="12.04056765651923"><ele>570.0</ele><time>2026-05-02T15:00:05.999Z</time></trkpt><trkpt lat="46.263172990635816" lon="12.040599889294775"><ele>570.0</ele><time>2026-05-02T15:00:06.999Z</time></trkpt><trkpt lat="46.26304397178805" lon="12.040626095349579"><ele>570.0</ele><time>2026-05-02T15:00:07.999Z</time></trkpt><trkpt lat="46.262918430593125" lon="12.040656254979694"><ele>567.5</ele><time>2026-05-02T15:00:08.999Z</time></trkpt><trkpt lat="46.2628001948627" lon="12.040687935619946"><ele>565.0</ele><time>2026-05-02T15:00:09.999Z</time></trkpt><trkpt lat="46.262680789594405" lon="12.040716709149356"><ele>562.5</ele><time>2026-05-02T15:00:10.999Z</time></trkpt><trkpt lat="46.2625548925395" lon="12.040747834684202"><ele>560.0</ele><time>2026-05-02T15:00:11.999Z</time></trkpt><trkpt lat="46.26241945272999" lon="12.040779287050151"><ele>563.6666666666666</ele><time>2026-05-02T15:00:12.999Z</time></trkpt><trkpt lat="46.26227801063062" lon="12.040810089155187"><ele>567.3333333333334</ele><time>2026-05-02T15:00:13.999Z</time></trkpt><trkpt lat="46.26212366459019" lon="12.040841363212872"><ele>571.0</ele><time>2026-05-02T15:00:14.999Z</time></trkpt><trkpt lat="46.26197161964547" lon="12.040876731944335"><ele>571.0</ele><time>2026-05-02T15:00:15.999Z</time></trkpt><trkpt lat="46.26182341843169" lon="12.040910769894463"><ele>571.0</ele><time>2026-05-02T15:00:16.999Z</time></trkpt><trkpt lat="46.261668436935146" lon="12.040947250058027"><ele>571.0</ele><time>2026-05-02T15:00:17.999Z</time></trkpt><trkpt lat="46.261514518985976" lon="12.040988691126932"><ele>567.3333333333334</ele><time>2026-05-02T15:00:18.999Z</time></trkpt><trkpt lat="46.26135416352193" lon="12.04102697808901"><ele>563.6666666666666</ele><time>2026-05-02T15:00:19.999Z</time></trkpt><trkpt lat="46.26119731037087" lon="12.041064627117153"><ele>560.0</ele><time>2026-05-02T15:00:20.999Z</time></trkpt><trkpt lat="46.26104722479734" lon="12.04109725101898"><ele>560.0</ele><time>2026-05-02T15:00:21.999Z</time></trkpt><trkpt lat="46.260891223684254" lon="12.041147007875928"><ele>560.0</ele><time>2026-05-02T15:00:22.999Z</time></trkpt><trkpt lat="46.26072864897381" lon="12.041206437586995"><ele>560.0</ele><time>2026-05-02T15:00:23.999Z</time></trkpt><trkpt lat="46.260564555883484" lon="12.041286627182725"><ele>558.0</ele><time>2026-05-02T15:00:24.999Z</time></trkpt><trkpt lat="46.26040278336379" lon="12.041395641118617"><ele>556.0</ele><time>2026-05-02T15:00:25.999Z</time></trkpt><trkpt lat="46.26023980904613" lon="12.04150438731164"><ele>554.0</ele><time>2026-05-02T15:00:26.999Z</time></trkpt><trkpt lat="46.26006597494169" lon="12.041624498855228"><ele>552.3333333333333</ele><time>2026-05-02T15:00:27.999Z</time></trkpt><trkpt lat="46.25989619823127" lon="12.041740345729231"><ele>550.6666666666666</ele><time>2026-05-02T15:00:28.999Z</time></trkpt><trkpt lat="46.259734034141644" lon="12.041877813268556"><ele>549.0</ele><time>2026-05-02T15:00:29.999Z</time></trkpt><trkpt lat="46.25957720081624" lon="12.042045445995536"><ele>549.0</ele><time>2026-05-02T15:00:30.999Z</time></trkpt><trkpt lat="46.25942409118698" lon="12.042230348027823"><ele>549.0</ele><time>2026-05-02T15:00:31.999Z</time></trkpt><trkpt lat="46.25927601468933" lon="12.042423514741634"><ele>549.0</ele><time>2026-05-02T15:00:32.999Z</time></trkpt><trkpt lat="46.25912772353023" lon="12.042618466557823"><ele>546.3333333333334</ele><time>2026-05-02T15:00:33.999Z</time></trkpt><trkpt lat="46.25898876197612" lon="12.042816426160842"><ele>543.6666666666667</ele><time>2026-05-02T15:00:34.999Z</time></trkpt><trkpt lat="46.25886071918087" lon="12.043021365207734"><ele>541.0</ele><time>2026-05-02T15:00:35.999Z</time></trkpt><trkpt lat="46.25874191430592" lon="12.043247664463113"><ele>541.3333333333334</ele><time>2026-05-02T15:00:36.999Z</time></trkpt><trkpt lat="46.25863182886333" lon="12.043480786850244"><ele>541.6666666666666</ele><time>2026-05-02T15:00:37.999Z</time></trkpt><trkpt lat="46.258529134137" lon="12.043698169487424"><ele>542.0</ele><time>2026-05-02T15:00:38.999Z</time></trkpt><trkpt lat="46.25843158455278" lon="12.043913934937603"><ele>546.0</ele><time>2026-05-02T15:00:39.999Z</time></trkpt><trkpt lat="46.25832391613" lon="12.044150956935091"><ele>550.0</ele><time>2026-05-02T15:00:40.999Z</time></trkpt><trkpt lat="46.25824085144874" lon="12.044405739510484"><ele>554.0</ele><time>2026-05-02T15:00:41.999Z</time></trkpt><trkpt lat="46.25815562918731" lon="12.044669794737402"><ele>549.6666666666666</ele><time>2026-05-02T15:00:42.999Z</time></trkpt><trkpt lat="46.258106986111095" lon="12.044955189768299"><ele>545.3333333333334</ele><time>2026-05-02T15:00:43.999Z</time></trkpt><trkpt lat="46.25804325858823" lon="12.045246676543185"><ele>541.0</ele><time>2026-05-02T15:00:44.999Z</time></trkpt><trkpt lat="46.257974002745996" lon="12.045538401754362"><ele>540.0</ele><time>2026-05-02T15:00:45.999Z</time></trkpt><trkpt lat="46.257899573559214" lon="12.045825857324237"><ele>539.0</ele><time>2026-05-02T15:00:46.999Z</time></trkpt><trkpt lat="46.257819559507816" lon="12.046118935159683"><ele>538.0</ele><time>2026-05-02T15:00:47.999Z</time></trkpt><trkpt lat="46.25771317118658" lon="12.046389658543143"><ele>540.0</ele><time>2026-05-02T15:00:48.999Z</time></trkpt><trkpt lat="46.2576144616785" lon="12.046670137070263"><ele>542.0</ele><time>2026-05-02T15:00:49.999Z</time></trkpt><trkpt lat="46.25751826139998" lon="12.04692927540717"><ele>544.0</ele><time>2026-05-02T15:00:50.999Z</time></trkpt><trkpt lat="46.257429226520394" lon="12.047179378736258"><ele>544.0</ele><time>2026-05-02T15:00:51.999Z</time></trkpt><trkpt lat="46.257343551384004" lon="12.047416727677168"><ele>544.0</ele><time>2026-05-02T15:00:52.999Z</time></trkpt><trkpt lat="46.25725967861074" lon="12.047646649927982"><ele>544.0</ele><time>2026-05-02T15:00:53.999Z</time></trkpt><trkpt lat="46.25718073668885" lon="12.047876428314117"><ele>542.0</ele><time>2026-05-02T15:00:54.999Z</time></trkpt><trkpt lat="46.25710127983625" lon="12.048104911620772"><ele>540.0</ele><time>2026-05-02T15:00:55.999Z</time></trkpt><trkpt lat="46.25703491822473" lon="12.048338416596414"><ele>538.0</ele><time>2026-05-02T15:00:56.999Z</time></trkpt><trkpt lat="46.256988154971864" lon="12.048582272820562"><ele>538.0</ele><time>2026-05-02T15:00:57.999Z</time></trkpt><trkpt lat="46.25697369988145" lon="12.048839234087914"><ele>538.0</ele><time>2026-05-02T15:00:58.999Z</time></trkpt><trkpt lat="46.25698201364954" lon="12.049115762831674"><ele>538.0</ele><time>2026-05-02T15:00:59.999Z</time></trkpt><trkpt lat="46.25701285397578" lon="12.0494034467609"><ele>538.6666666666667</ele><time>2026-05-02T15:01:00.999Z</time></trkpt><trkpt lat="46.25705381099332" lon="12.049692256713593"><ele>539.3333333333334</ele><time>2026-05-02T15:01:01.999Z</time></trkpt><trkpt lat="46.25709205936764" lon="12.049962854907319"><ele>540.0</ele><time>2026-05-02T15:01:02.999Z</time></trkpt><trkpt lat="46.25713788811544" lon="12.05023599300565"><ele>540.0</ele><time>2026-05-02T15:01:03.999Z</time></trkpt><trkpt lat="46.257203184054134" lon="12.050504441158516"><ele>540.0</ele><time>2026-05-02T15:01:04.999Z</time></trkpt><trkpt lat="46.25727439570041" lon="12.050770741012082"><ele>540.0</ele><time>2026-05-02T15:01:05.999Z</time></trkpt><trkpt lat="46.2573508727538" lon="12.051023086282168"><ele>540.3333333333334</ele><time>2026-05-02T15:01:06.999Z</time></trkpt><trkpt lat="46.257421897301114" lon="12.051258836848689"><ele>540.6666666666667</ele><time>2026-05-02T15:01:07.999Z</time></trkpt><trkpt lat="46.257486790605924" lon="12.051485384956761"><ele>541.0</ele><time>2026-05-02T15:01:08.999Z</time></trkpt><trkpt lat="46.25753197857495" lon="12.05172856284231"><ele>541.0</ele><time>2026-05-02T15:01:09.999Z</time></trkpt><trkpt lat="46.257557592646585" lon="12.051963577093884"><ele>541.0</ele><time>2026-05-02T15:01:10.999Z</time></trkpt><trkpt lat="46.25754662520981" lon="12.052224822427839"><ele>541.0</ele><time>2026-05-02T15:01:11.999Z</time></trkpt><trkpt lat="46.257519013682284" lon="12.052489920934534"><ele>541.0</ele><time>2026-05-02T15:01:12.999Z</time></trkpt><trkpt lat="46.2574841820459" lon="12.05271963932704"><ele>541.0</ele><time>2026-05-02T15:01:13.999Z</time></trkpt><trkpt lat="46.25742305548078" lon="12.052954532794416"><ele>541.0</ele><time>2026-05-02T15:01:14.999Z</time></trkpt><trkpt lat="46.25731115208914" lon="12.053173383872418"><ele>537.3333333333334</ele><time>2026-05-02T15:01:15.999Z</time></trkpt><trkpt lat="46.25718224292596" lon="12.053364692413421"><ele>533.6666666666666</ele><time>2026-05-02T15:01:16.999Z</time></trkpt><trkpt lat="46.25704079811459" lon="12.053536772000324"><ele>530.0</ele><time>2026-05-02T15:01:17.999Z</time></trkpt><trkpt lat="46.2569064032733" lon="12.053703494910623"><ele>530.0</ele><time>2026-05-02T15:01:18.999Z</time></trkpt><trkpt lat="46.25677719222192" lon="12.053861465600669"><ele>530.0</ele><time>2026-05-02T15:01:19.999Z</time></trkpt><trkpt lat="46.25663363115335" lon="12.054036902246448"><ele>530.0</ele><time>2026-05-02T15:01:20.999Z</time></trkpt><trkpt lat="46.256512852388724" lon="12.054184257787586"><ele>528.0</ele><time>2026-05-02T15:01:21.999Z</time></trkpt><trkpt lat="46.256373781134236" lon="12.054341838417802"><ele>526.0</ele><time>2026-05-02T15:01:23Z</time></trkpt><trkpt lat="46.256225626607296" lon="12.054501011948553"><ele>524.0</ele><time>2026-05-02T15:01:24Z</time></trkpt><trkpt lat="46.25607104474463" lon="12.054660828582726"><ele>524.0</ele><time>2026-05-02T15:01:25Z</time></trkpt><trkpt lat="46.25591033078819" lon="12.054824303543983"><ele>524.0</ele><time>2026-05-02T15:01:26Z</time></trkpt><trkpt lat="46.255754611073066" lon="12.054983300578437"><ele>524.0</ele><time>2026-05-02T15:01:27Z</time></trkpt><trkpt lat="46.25558863704079" lon="12.055156712761939"><ele>527.3333333333333</ele><time>2026-05-02T15:01:28Z</time></trkpt><trkpt lat="46.25545319947992" lon="12.055338889847597"><ele>530.6666666666666</ele><time>2026-05-02T15:01:29Z</time></trkpt><trkpt lat="46.25532440319158" lon="12.055531717682646"><ele>534.0</ele><time>2026-05-02T15:01:30Z</time></trkpt><trkpt lat="46.255177838861755" lon="12.055804409400249"><ele>534.0</ele><time>2026-05-02T15:01:31Z</time></trkpt><trkpt lat="46.25504885821379" lon="12.056080585231989"><ele>534.0</ele><time>2026-05-02T15:01:32Z</time></trkpt><trkpt lat="46.25488007263929" lon="12.05631960047046"><ele>534.0</ele><time>2026-05-02T15:01:33Z</time></trkpt><trkpt lat="46.25478804189638" lon="12.056488943829597"><ele>534.0</ele><time>2026-05-02T15:01:34Z</time></trkpt><trkpt lat="46.25470366227714" lon="12.056707553585039"><ele>534.0</ele><time>2026-05-02T15:01:35Z</time></trkpt><trkpt lat="46.25460759536663" lon="12.056891856811427"><ele>533.3333333333334</ele><time>2026-05-02T15:01:36Z</time></trkpt><trkpt lat="46.25447369783646" lon="12.057089771224286"><ele>532.6666666666667</ele><time>2026-05-02T15:01:37Z</time></trkpt><trkpt lat="46.254324118948546" lon="12.057277733637278"><ele>532.0</ele><time>2026-05-02T15:01:38Z</time></trkpt><trkpt lat="46.25419092534207" lon="12.0574627892816"><ele>533.3333333333334</ele><time>2026-05-02T15:01:39Z</time></trkpt><trkpt lat="46.2540661611383" lon="12.057633447005434"><ele>534.6666666666666</ele><time>2026-05-02T15:01:40Z</time></trkpt><trkpt lat="46.253957028902455" lon="12.05780842676095"><ele>536.0</ele><time>2026-05-02T15:01:41Z</time></trkpt><trkpt lat="46.25386214861" lon="12.05801363673727"><ele>538.0</ele><time>2026-05-02T15:01:42Z</time></trkpt><trkpt lat="46.25378684330037" lon="12.058244501034514"><ele>540.0</ele><time>2026-05-02T15:01:43Z</time></trkpt><trkpt lat="46.253727464520885" lon="12.05849022645471"><ele>542.0</ele><time>2026-05-02T15:01:44Z</time></trkpt><trkpt lat="46.25366265089158" lon="12.058734962286094"><ele>536.3333333333333</ele><time>2026-05-02T15:01:45Z</time></trkpt><trkpt lat="46.2535871525727" lon="12.058992630015112"><ele>530.6666666666666</ele><time>2026-05-02T15:01:46Z</time></trkpt><trkpt lat="46.2535206682578" lon="12.059242497056953"><ele>525.0</ele><time>2026-05-02T15:01:47Z</time></trkpt><trkpt lat="46.253454935433446" lon="12.059488882512424"><ele>525.0</ele><time>2026-05-02T15:01:48Z</time></trkpt><trkpt lat="46.25339243037151" lon="12.059731902482346"><ele>525.0</ele><time>2026-05-02T15:01:49Z</time></trkpt><trkpt lat="46.253335625693914" lon="12.059984662654681"><ele>525.0</ele><time>2026-05-02T15:01:50Z</time></trkpt><trkpt lat="46.25327552822406" lon="12.060239093095788"><ele>524.0</ele><time>2026-05-02T15:01:51Z</time></trkpt><trkpt lat="46.25321491097015" lon="12.060495665080937"><ele>523.0</ele><time>2026-05-02T15:01:52Z</time></trkpt><trkpt lat="46.253159792642144" lon="12.060755372965032"><ele>522.0</ele><time>2026-05-02T15:01:53Z</time></trkpt><trkpt lat="46.25310336070319" lon="12.06101088366342"><ele>522.0</ele><time>2026-05-02T15:01:54Z</time></trkpt><trkpt lat="46.253044676591685" lon="12.061270327823626"><ele>522.0</ele><time>2026-05-02T15:01:55Z</time></trkpt><trkpt lat="46.25298537461611" lon="12.061532360771032"><ele>522.0</ele><time>2026-05-02T15:01:56Z</time></trkpt><trkpt lat="46.252935307982135" lon="12.061801402805598"><ele>521.3333333333334</ele><time>2026-05-02T15:01:57Z</time></trkpt><trkpt lat="46.252886787441554" lon="12.062074477026178"><ele>520.6666666666667</ele><time>2026-05-02T15:01:58Z</time></trkpt><trkpt lat="46.252830609705114" lon="12.062353886394657"><ele>520.0</ele><time>2026-05-02T15:01:59Z</time></trkpt><trkpt lat="46.25277288810611" lon="12.062648631381128"><ele>524.3333333333334</ele><time>2026-05-02T15:02:00Z</time></trkpt><trkpt lat="46.2527102708213" lon="12.062950077949022"><ele>528.6666666666666</ele><time>2026-05-02T15:02:01.023Z</time></trkpt><trkpt lat="46.252652193927176" lon="12.063243810565632"><ele>533.0</ele><time>2026-05-02T15:02:02.022Z</time></trkpt><trkpt lat="46.25259554704658" lon="12.063539581122757"><ele>548.0</ele><time>2026-05-02T15:02:03.014Z</time></trkpt><trkpt lat="46.2525358555629" lon="12.063837350747924"><ele>563.0</ele><time>2026-05-02T15:02:04.015Z</time></trkpt><trkpt lat="46.252358419843475" lon="12.064997379936003"><ele>564.3333333333333</ele><time>2026-05-02T15:02:07.906Z</time></trkpt><trkpt lat="46.25228722259778" lon="12.065286758941324"><ele>565.6666666666666</ele><time>2026-05-02T15:02:08.909Z</time></trkpt><trkpt lat="46.25223121606807" lon="12.065581392050506"><ele>567.0</ele><time>2026-05-02T15:02:09.909Z</time></trkpt><trkpt lat="46.25217523957719" lon="12.065876013079333"><ele>567.0</ele><time>2026-05-02T15:02:10.909Z</time></trkpt><trkpt lat="46.252120261865656" lon="12.066170891762175"><ele>567.0</ele><time>2026-05-02T15:02:11.909Z</time></trkpt><trkpt lat="46.252064930564316" lon="12.066464879395424"><ele>567.0</ele><time>2026-05-02T15:02:12.907Z</time></trkpt><trkpt lat="46.252025284645406" lon="12.066765914139776"><ele>614.3333333333334</ele><time>2026-05-02T15:02:13.907Z</time></trkpt><trkpt lat="46.251954020402025" lon="12.067054790986857"><ele>661.6666666666667</ele><time>2026-05-02T15:02:14.908Z</time></trkpt><trkpt lat="46.25189918324798" lon="12.067350126127128"><ele>709.0</ele><time>2026-05-02T15:02:15.909Z</time></trkpt><trkpt lat="46.25184462537418" lon="12.067643957137665"><ele>709.0</ele><time>2026-05-02T15:02:16.905Z</time></trkpt><trkpt lat="46.25180555261267" lon="12.06794622704678"><ele>709.0</ele><time>2026-05-02T15:02:17.909Z</time></trkpt><trkpt lat="46.25173368648394" lon="12.068234462227428"><ele>709.0</ele><time>2026-05-02T15:02:18.909Z</time></trkpt><trkpt lat="46.251678012670624" lon="12.068528287517712"><ele>709.0</ele><time>2026-05-02T15:02:19.906Z</time></trkpt><trkpt lat="46.25162235257715" lon="12.068823874536672"><ele>709.0</ele><time>2026-05-02T15:02:20.909Z</time></trkpt><trkpt lat="46.251583831966876" lon="12.069125118320908"><ele>709.0</ele><time>2026-05-02T15:02:21.909Z</time></trkpt><trkpt lat="46.25152927836247" lon="12.06941992671022"><ele>704.3333333333334</ele><time>2026-05-02T15:02:22.908Z</time></trkpt><trkpt lat="46.25147473676019" lon="12.06971467023989"><ele>699.6666666666666</ele><time>2026-05-02T15:02:23.907Z</time></trkpt><trkpt lat="46.251420070821005" lon="12.070009590211841"><ele>695.0</ele><time>2026-05-02T15:02:24.907Z</time></trkpt><trkpt lat="46.25136408205624" lon="12.070304799898032"><ele>654.0</ele><time>2026-05-02T15:02:25.909Z</time></trkpt><trkpt lat="46.25129247304334" lon="12.07059249652635"><ele>613.0</ele><time>2026-05-02T15:02:26.906Z</time></trkpt><trkpt lat="46.25123766716047" lon="12.070887179618696"><ele>572.0</ele><time>2026-05-02T15:02:27.906Z</time></trkpt><trkpt lat="46.25119873636573" lon="12.07118914590702"><ele>571.0</ele><time>2026-05-02T15:02:28.908Z</time></trkpt><trkpt lat="46.25112788798316" lon="12.071477446025462"><ele>570.0</ele><time>2026-05-02T15:02:29.907Z</time></trkpt><trkpt lat="46.25107311128167" lon="12.07177197219474"><ele>569.0</ele><time>2026-05-02T15:02:30.905Z</time></trkpt><trkpt lat="46.25101806936666" lon="12.072067924485488"><ele>569.0</ele><time>2026-05-02T15:02:31.909Z</time></trkpt><trkpt lat="46.250963211650756" lon="12.07236288629739"><ele>569.0</ele><time>2026-05-02T15:02:32.909Z</time></trkpt><trkpt lat="46.25092356966934" lon="12.072663745840543"><ele>569.0</ele><time>2026-05-02T15:02:33.909Z</time></trkpt><trkpt lat="46.2508518664388" lon="12.072952113502105"><ele>576.3333333333333</ele><time>2026-05-02T15:02:34.909Z</time></trkpt><trkpt lat="46.25081311079823" lon="12.07325191640692"><ele>583.6666666666666</ele><time>2026-05-02T15:02:35.904Z</time></trkpt><trkpt lat="46.250758193656196" lon="12.073548224224064"><ele>591.0</ele><time>2026-05-02T15:02:36.909Z</time></trkpt><trkpt lat="46.25070413335574" lon="12.073843005432476"><ele>585.3333333333334</ele><time>2026-05-02T15:02:37.907Z</time></trkpt><trkpt lat="46.25064953135943" lon="12.074137765196326"><ele>579.6666666666667</ele><time>2026-05-02T15:02:38.906Z</time></trkpt><trkpt lat="46.25057809514927" lon="12.074426974231173"><ele>574.0</ele><time>2026-05-02T15:02:39.909Z</time></trkpt><trkpt lat="46.250522656894475" lon="12.074721654352606"><ele>585.0</ele><time>2026-05-02T15:02:40.909Z</time></trkpt><trkpt lat="46.250467204776555" lon="12.075016408146595"><ele>596.0</ele><time>2026-05-02T15:02:41.909Z</time></trkpt><trkpt lat="46.25042811701787" lon="12.075317514751722"><ele>607.0</ele><time>2026-05-02T15:02:42.909Z</time></trkpt><trkpt lat="46.250373443712334" lon="12.0756125217133"><ele>634.0</ele><time>2026-05-02T15:02:43.909Z</time></trkpt><trkpt lat="46.2503029319548" lon="12.07590004405444"><ele>661.0</ele><time>2026-05-02T15:02:44.904Z</time></trkpt><trkpt lat="46.250247662677694" lon="12.076195978518664"><ele>688.0</ele><time>2026-05-02T15:02:45.908Z</time></trkpt><trkpt lat="46.25019241735566" lon="12.07649064786955"><ele>715.0</ele><time>2026-05-02T15:02:46.908Z</time></trkpt><trkpt lat="46.250137487688015" lon="12.07678600251744"><ele>742.0</ele><time>2026-05-02T15:02:47.909Z</time></trkpt><trkpt lat="46.25009900537319" lon="12.077086395454128"><ele>769.0</ele><time>2026-05-02T15:02:48.906Z</time></trkpt><trkpt lat="46.2500267290516" lon="12.07737444907362"><ele>781.6666666666666</ele><time>2026-05-02T15:02:49.906Z</time></trkpt><trkpt lat="46.24998655193946" lon="12.077675188700434"><ele>794.3333333333333</ele><time>2026-05-02T15:02:50.906Z</time></trkpt><trkpt lat="46.24991522445982" lon="12.077964058288112"><ele>807.0</ele><time>2026-05-02T15:02:51.907Z</time></trkpt><trkpt lat="46.24987636695683" lon="12.0782643203718"><ele>808.3333333333333</ele><time>2026-05-02T15:02:52.904Z</time></trkpt><trkpt lat="46.24982128680855" lon="12.078559164950384"><ele>809.6666666666666</ele><time>2026-05-02T15:02:53.904Z</time></trkpt><trkpt lat="46.249750068036484" lon="12.078848142096607"><ele>811.0</ele><time>2026-05-02T15:02:54.905Z</time></trkpt><trkpt lat="46.24969502354365" lon="12.079142973172871"><ele>802.3333333333333</ele><time>2026-05-02T15:02:55.906Z</time></trkpt><trkpt lat="46.24963941834922" lon="12.079437352177395"><ele>793.6666666666667</ele><time>2026-05-02T15:02:56.904Z</time></trkpt><trkpt lat="46.249600846079026" lon="12.079739779369113"><ele>785.0</ele><time>2026-05-02T15:02:57.908Z</time></trkpt><trkpt lat="46.24954644774472" lon="12.080034649447352"><ele>781.0</ele><time>2026-05-02T15:02:58.907Z</time></trkpt><trkpt lat="46.24949182001201" lon="12.080328754459455"><ele>777.0</ele><time>2026-05-02T15:02:59.905Z</time></trkpt><trkpt lat="46.24943615477815" lon="12.080623422113264"><ele>773.0</ele><time>2026-05-02T15:03:00.905Z</time></trkpt><trkpt lat="46.24936422206669" lon="12.080912899552823"><ele>762.3333333333334</ele><time>2026-05-02T15:03:01.909Z</time></trkpt><trkpt lat="46.24932496212762" lon="12.081213957872146"><ele>751.6666666666667</ele><time>2026-05-02T15:03:02.909Z</time></trkpt><trkpt lat="46.249269939078495" lon="12.081508809745799"><ele>741.0</ele><time>2026-05-02T15:03:03.908Z</time></trkpt><trkpt lat="46.2492149100338" lon="12.081803693747897"><ele>727.3333333333334</ele><time>2026-05-02T15:03:04.909Z</time></trkpt><trkpt lat="46.24916005817984" lon="12.082097628238463"><ele>713.6666666666667</ele><time>2026-05-02T15:03:05.905Z</time></trkpt><trkpt lat="46.2490889760509" lon="12.082386233445456"><ele>700.0</ele><time>2026-05-02T15:03:06.905Z</time></trkpt><trkpt lat="46.24903407409625" lon="12.082681716665038"><ele>686.3333333333334</ele><time>2026-05-02T15:03:07.907Z</time></trkpt><trkpt lat="46.24899530158976" lon="12.082983355310807"><ele>672.6666666666666</ele><time>2026-05-02T15:03:08.908Z</time></trkpt><trkpt lat="46.24894050754674" lon="12.083277309790688"><ele>659.0</ele><time>2026-05-02T15:03:09.905Z</time></trkpt><trkpt lat="46.24886843925121" lon="12.083566435327594"><ele>645.3333333333333</ele><time>2026-05-02T15:03:10.908Z</time></trkpt><trkpt lat="46.248828819109825" lon="12.08386640640424"><ele>631.6666666666666</ele><time>2026-05-02T15:03:11.905Z</time></trkpt><trkpt lat="46.24875744542718" lon="12.084154997709064"><ele>618.0</ele><time>2026-05-02T15:03:12.905Z</time></trkpt><trkpt lat="46.24871842626944" lon="12.084457035393752"><ele>605.3333333333334</ele><time>2026-05-02T15:03:13.908Z</time></trkpt><trkpt lat="46.24866426234382" lon="12.084752142880182"><ele>592.6666666666667</ele><time>2026-05-02T15:03:14.908Z</time></trkpt><trkpt lat="46.248599964987115" lon="12.085045238302596"><ele>580.0</ele><time>2026-05-02T15:03:15.908Z</time></trkpt><trkpt lat="46.24858869091572" lon="12.085352124634703"><ele>484.0</ele><time>2026-05-02T15:03:16.908Z</time></trkpt><trkpt lat="46.24867988117274" lon="12.086668199660553"><ele>484.0</ele><time>2026-05-02T15:03:17.999Z</time></trkpt><trkpt lat="46.24878765947867" lon="12.086953324470995"><ele>484.0</ele><time>2026-05-02T15:03:18.999Z</time></trkpt><trkpt lat="46.24887083237435" lon="12.087269798494875"><ele>489.5</ele><time>2026-05-02T15:03:19.999Z</time></trkpt><trkpt lat="46.248983391955996" lon="12.087625909796637"><ele>495.0</ele><time>2026-05-02T15:03:20.999Z</time></trkpt><trkpt lat="46.249071768470415" lon="12.087916399667588"><ele>495.0</ele><time>2026-05-02T15:03:21.999Z</time></trkpt><trkpt lat="46.249089160830074" lon="12.088087125323788"><ele>495.0</ele><time>2026-05-02T15:03:22.999Z</time></trkpt><trkpt lat="46.24913441107887" lon="12.088382399585383"><ele>495.0</ele><time>2026-05-02T15:03:23.999Z</time></trkpt><trkpt lat="46.24916702828254" lon="12.088707919074935"><ele>494.5</ele><time>2026-05-02T15:03:24.999Z</time></trkpt><trkpt lat="46.24917258924559" lon="12.08906341295671"><ele>494.0</ele><time>2026-05-02T15:03:25.999Z</time></trkpt><trkpt lat="46.24919553698267" lon="12.089395519453348"><ele>494.0</ele><time>2026-05-02T15:03:26.999Z</time></trkpt><trkpt lat="46.249157714684394" lon="12.089779771479876"><ele>494.0</ele><time>2026-05-02T15:03:27.999Z</time></trkpt><trkpt lat="46.24910656924692" lon="12.090121824021113"><ele>494.0</ele><time>2026-05-02T15:03:29Z</time></trkpt><trkpt lat="46.24907321920895" lon="12.090471338447472"><ele>494.0</ele><time>2026-05-02T15:03:30Z</time></trkpt><trkpt lat="46.249024440598674" lon="12.090826028969966"><ele>494.0</ele><time>2026-05-02T15:03:31Z</time></trkpt><trkpt lat="46.248974234806994" lon="12.0911707070375"><ele>494.0</ele><time>2026-05-02T15:03:32Z</time></trkpt><trkpt lat="46.24892014961826" lon="12.091525384966047"><ele>488.0</ele><time>2026-05-02T15:03:33Z</time></trkpt><trkpt lat="46.248850413659305" lon="12.091871051433657"><ele>482.0</ele><time>2026-05-02T15:03:34Z</time></trkpt><trkpt lat="46.2487745121962" lon="12.092192406999002"><ele>481.3333333333333</ele><time>2026-05-02T15:03:35Z</time></trkpt><trkpt lat="46.248710939636226" lon="12.09249328138573"><ele>480.66666666666663</ele><time>2026-05-02T15:03:36Z</time></trkpt><trkpt lat="46.24865807506621" lon="12.092779455875371"><ele>480.0</ele><time>2026-05-02T15:03:37Z</time></trkpt><trkpt lat="46.24861019752564" lon="12.093051837811219"><ele>480.0</ele><time>2026-05-02T15:03:38Z</time></trkpt><trkpt lat="46.248555279240705" lon="12.093312352924997"><ele>480.0</ele><time>2026-05-02T15:03:39Z</time></trkpt><trkpt lat="46.248474814855385" lon="12.093579343699123"><ele>480.0</ele><time>2026-05-02T15:03:40Z</time></trkpt><trkpt lat="46.2483726070862" lon="12.093862132645919"><ele>477.5</ele><time>2026-05-02T15:03:41Z</time></trkpt><trkpt lat="46.248252602862486" lon="12.094146461600186"><ele>475.0</ele><time>2026-05-02T15:03:42Z</time></trkpt><trkpt lat="46.24812529070028" lon="12.09443863667521"><ele>475.0</ele><time>2026-05-02T15:03:43Z</time></trkpt><trkpt lat="46.2480037693606" lon="12.094738563076964"><ele>475.0</ele><time>2026-05-02T15:03:44Z</time></trkpt><trkpt lat="46.2479050605875" lon="12.095016843621675"><ele>475.6666666666667</ele><time>2026-05-02T15:03:45Z</time></trkpt><trkpt lat="46.247817097989845" lon="12.095280585282154"><ele>476.33333333333337</ele><time>2026-05-02T15:03:46Z</time></trkpt><trkpt lat="46.24773204168181" lon="12.09553869186628"><ele>477.0</ele><time>2026-05-02T15:03:47Z</time></trkpt><trkpt lat="46.24765171191184" lon="12.095797895496553"><ele>478.33333333333337</ele><time>2026-05-02T15:03:48Z</time></trkpt><trkpt lat="46.24760658465673" lon="12.096073969479674"><ele>479.6666666666667</ele><time>2026-05-02T15:03:49Z</time></trkpt><trkpt lat="46.247537375139075" lon="12.096304114596668"><ele>481.0</ele><time>2026-05-02T15:03:50Z</time></trkpt><trkpt lat="46.247473014768396" lon="12.096559033678513"><ele>480.33333333333337</ele><time>2026-05-02T15:03:51Z</time></trkpt><trkpt lat="46.24741128135195" lon="12.09681036751265"><ele>479.66666666666663</ele><time>2026-05-02T15:03:52Z</time></trkpt><trkpt lat="46.24734679456633" lon="12.097059642593234"><ele>479.0</ele><time>2026-05-02T15:03:53Z</time></trkpt><trkpt lat="46.2472857186431" lon="12.097306430018255"><ele>477.0</ele><time>2026-05-02T15:03:54Z</time></trkpt><trkpt lat="46.247225336648036" lon="12.097550914063666"><ele>475.0</ele><time>2026-05-02T15:03:55Z</time></trkpt><trkpt lat="46.24716999035843" lon="12.097800482065985"><ele>473.0</ele><time>2026-05-02T15:03:56Z</time></trkpt><trkpt lat="46.24711152959799" lon="12.09805349917008"><ele>474.0</ele><time>2026-05-02T15:03:57Z</time></trkpt><trkpt lat="46.247067787238876" lon="12.098307080435811"><ele>475.0</ele><time>2026-05-02T15:03:58Z</time></trkpt><trkpt lat="46.247035833916996" lon="12.098537619193161"><ele>476.0</ele><time>2026-05-02T15:03:59Z</time></trkpt><trkpt lat="46.246995904860334" lon="12.09871635261799"><ele>476.0</ele><time>2026-05-02T15:04:00Z</time></trkpt><trkpt lat="46.24695210409327" lon="12.09891753389004"><ele>476.0</ele><time>2026-05-02T15:04:01Z</time></trkpt><trkpt lat="46.2469295495545" lon="12.099133659870363"><ele>476.0</ele><time>2026-05-02T15:04:02Z</time></trkpt><trkpt lat="46.246900210280884" lon="12.099354915612542"><ele>477.0</ele><time>2026-05-02T15:04:03Z</time></trkpt><trkpt lat="46.24687061594042" lon="12.099583543481225"><ele>478.0</ele><time>2026-05-02T15:04:04Z</time></trkpt><trkpt lat="46.24683814683249" lon="12.099814754355979"><ele>479.0</ele><time>2026-05-02T15:04:05Z</time></trkpt><trkpt lat="46.2468003712462" lon="12.100050143370714"><ele>479.0</ele><time>2026-05-02T15:04:06Z</time></trkpt><trkpt lat="46.24676304912085" lon="12.100291313488118"><ele>479.0</ele><time>2026-05-02T15:04:07Z</time></trkpt><trkpt lat="46.24672893733607" lon="12.100537087207686"><ele>479.0</ele><time>2026-05-02T15:04:08Z</time></trkpt><trkpt lat="46.24669870018032" lon="12.100797150046924"><ele>479.66666666666663</ele><time>2026-05-02T15:04:09Z</time></trkpt><trkpt lat="46.24665066980524" lon="12.10103584313024"><ele>480.33333333333337</ele><time>2026-05-02T15:04:10Z</time></trkpt><trkpt lat="46.24661906523346" lon="12.101270150536523"><ele>481.0</ele><time>2026-05-02T15:04:11Z</time></trkpt><trkpt lat="46.24660073394803" lon="12.101516762324728"><ele>482.6666666666667</ele><time>2026-05-02T15:04:12Z</time></trkpt><trkpt lat="46.246564542994044" lon="12.101770422251606"><ele>484.33333333333337</ele><time>2026-05-02T15:04:13Z</time></trkpt><trkpt lat="46.24650076545477" lon="12.10202552914788"><ele>486.0</ele><time>2026-05-02T15:04:14Z</time></trkpt><trkpt lat="46.246426393914604" lon="12.102287189450314"><ele>480.66666666666663</ele><time>2026-05-02T15:04:15Z</time></trkpt><trkpt lat="46.24632010736989" lon="12.102541731312476"><ele>475.3333333333333</ele><time>2026-05-02T15:04:16Z</time></trkpt><trkpt lat="46.246194643218054" lon="12.102776451058874"><ele>470.0</ele><time>2026-05-02T15:04:17Z</time></trkpt><trkpt lat="46.24605450782502" lon="12.103001112252976"><ele>470.0</ele><time>2026-05-02T15:04:18Z</time></trkpt><trkpt lat="46.24589554621863" lon="12.103204768991487"><ele>470.0</ele><time>2026-05-02T15:04:19Z</time></trkpt><trkpt lat="46.24571209336438" lon="12.103383426868877"><ele>470.0</ele><time>2026-05-02T15:04:20Z</time></trkpt><trkpt lat="46.24552534217502" lon="12.103554448668199"><ele>471.3333333333333</ele><time>2026-05-02T15:04:21Z</time></trkpt><trkpt lat="46.24535450674072" lon="12.103716697836564"><ele>472.66666666666663</ele><time>2026-05-02T15:04:22Z</time></trkpt><trkpt lat="46.2451845495484" lon="12.103858895088754"><ele>474.0</ele><time>2026-05-02T15:04:23Z</time></trkpt><trkpt lat="46.2450251195451" lon="12.104001115939216"><ele>472.66666666666663</ele><time>2026-05-02T15:04:24Z</time></trkpt><trkpt lat="46.244868388103406" lon="12.1041423394472"><ele>471.3333333333333</ele><time>2026-05-02T15:04:25Z</time></trkpt><trkpt lat="46.2447151263557" lon="12.104311971550668"><ele>470.0</ele><time>2026-05-02T15:04:26Z</time></trkpt><trkpt lat="46.24456325435031" lon="12.104519030935041"><ele>470.0</ele><time>2026-05-02T15:04:27Z</time></trkpt><trkpt lat="46.2444172598505" lon="12.104742570668895"><ele>470.0</ele><time>2026-05-02T15:04:28Z</time></trkpt><trkpt lat="46.24426810603931" lon="12.104967555082439"><ele>470.0</ele><time>2026-05-02T15:04:29Z</time></trkpt><trkpt lat="46.24411456281818" lon="12.10517529101952"><ele>469.3333333333333</ele><time>2026-05-02T15:04:30Z</time></trkpt><trkpt lat="46.24395767965468" lon="12.105351070105336"><ele>468.66666666666663</ele><time>2026-05-02T15:04:31Z</time></trkpt><trkpt lat="46.24380591675836" lon="12.105523865441222"><ele>468.0</ele><time>2026-05-02T15:04:32Z</time></trkpt><trkpt lat="46.24364149122855" lon="12.10568909865227"><ele>471.66666666666663</ele><time>2026-05-02T15:04:33Z</time></trkpt><trkpt lat="46.243474276733465" lon="12.105855420541426"><ele>475.3333333333333</ele><time>2026-05-02T15:04:33.999Z</time></trkpt><trkpt lat="46.243314314870496" lon="12.106020820490883"><ele>479.0</ele><time>2026-05-02T15:04:34.999Z</time></trkpt><trkpt lat="46.24315990446071" lon="12.106189106626392"><ele>480.0</ele><time>2026-05-02T15:04:35.999Z</time></trkpt><trkpt lat="46.242998778773234" lon="12.106360758918557"><ele>481.0</ele><time>2026-05-02T15:04:36.999Z</time></trkpt><trkpt lat="46.24283536542865" lon="12.106530910753358"><ele>482.0</ele><time>2026-05-02T15:04:37.999Z</time></trkpt><trkpt lat="46.242645469562056" lon="12.106648493055866"><ele>482.0</ele><time>2026-05-02T15:04:38.999Z</time></trkpt><trkpt lat="46.24244200597007" lon="12.106754125889495"><ele>482.0</ele><time>2026-05-02T15:04:39.999Z</time></trkpt><trkpt lat="46.24223825853348" lon="12.106823378454814"><ele>482.0</ele><time>2026-05-02T15:04:40.999Z</time></trkpt><trkpt lat="46.242043114183524" lon="12.10687793620171"><ele>478.3333333333333</ele><time>2026-05-02T15:04:41.999Z</time></trkpt><trkpt lat="46.241844874315404" lon="12.106873627780692"><ele>474.66666666666663</ele><time>2026-05-02T15:04:42.999Z</time></trkpt><trkpt lat="46.24165699578072" lon="12.106896651910033"><ele>471.0</ele><time>2026-05-02T15:04:43.999Z</time></trkpt><trkpt lat="46.241475462827104" lon="12.106884365540477"><ele>471.0</ele><time>2026-05-02T15:04:44.999Z</time></trkpt><trkpt lat="46.24129276312109" lon="12.106869218141835"><ele>471.0</ele><time>2026-05-02T15:04:45.999Z</time></trkpt><trkpt lat="46.24110252260043" lon="12.10684847022044"><ele>471.0</ele><time>2026-05-02T15:04:46.999Z</time></trkpt><trkpt lat="46.24092369937251" lon="12.10677575839297"><ele>471.0</ele><time>2026-05-02T15:04:47.999Z</time></trkpt><trkpt lat="46.24073743948556" lon="12.106719212653525"><ele>471.0</ele><time>2026-05-02T15:04:48.999Z</time></trkpt><trkpt lat="46.240551360894294" lon="12.106628260171869"><ele>471.0</ele><time>2026-05-02T15:04:49.999Z</time></trkpt><trkpt lat="46.24036080779356" lon="12.106535499221057"><ele>467.33333333333337</ele><time>2026-05-02T15:04:50.999Z</time></trkpt><trkpt lat="46.240169344846656" lon="12.106455415903879"><ele>463.6666666666667</ele><time>2026-05-02T15:04:51.999Z</time></trkpt><trkpt lat="46.23999867750295" lon="12.106367236510982"><ele>460.0</ele><time>2026-05-02T15:04:52.999Z</time></trkpt><trkpt lat="46.2398364541549" lon="12.106286755044907"><ele>462.0</ele><time>2026-05-02T15:04:53.999Z</time></trkpt><trkpt lat="46.23967750109539" lon="12.106213998806151"><ele>464.0</ele><time>2026-05-02T15:04:54.999Z</time></trkpt><trkpt lat="46.23952857678244" lon="12.106141377262901"><ele>466.0</ele><time>2026-05-02T15:04:55.999Z</time></trkpt><trkpt lat="46.239380895759" lon="12.106079017713197"><ele>466.0</ele><time>2026-05-02T15:04:56.999Z</time></trkpt><trkpt lat="46.239219629691675" lon="12.10603208102035"><ele>466.0</ele><time>2026-05-02T15:04:57.999Z</time></trkpt><trkpt lat="46.2390545598743" lon="12.10603086249851"><ele>466.0</ele><time>2026-05-02T15:04:58.999Z</time></trkpt><trkpt lat="46.23887835148024" lon="12.106054361220156"><ele>464.6666666666667</ele><time>2026-05-02T15:04:59.999Z</time></trkpt><trkpt lat="46.238710496115964" lon="12.106108419172935"><ele>463.33333333333337</ele><time>2026-05-02T15:05:00.999Z</time></trkpt><trkpt lat="46.23854793412823" lon="12.106199232998067"><ele>462.0</ele><time>2026-05-02T15:05:01.999Z</time></trkpt><trkpt lat="46.238396737281036" lon="12.106326038349094"><ele>462.0</ele><time>2026-05-02T15:05:02.999Z</time></trkpt><trkpt lat="46.23825932932562" lon="12.106475646745306"><ele>462.0</ele><time>2026-05-02T15:05:03.999Z</time></trkpt><trkpt lat="46.23812751186488" lon="12.106647721107878"><ele>462.0</ele><time>2026-05-02T15:05:04.999Z</time></trkpt><trkpt lat="46.23801311619961" lon="12.106855028918208"><ele>462.33333333333337</ele><time>2026-05-02T15:05:05.999Z</time></trkpt><trkpt lat="46.23789915827033" lon="12.107072429517714"><ele>462.6666666666667</ele><time>2026-05-02T15:05:06.999Z</time></trkpt><trkpt lat="46.23778073865315" lon="12.107282261522164"><ele>463.0</ele><time>2026-05-02T15:05:07.999Z</time></trkpt><trkpt lat="46.23766066309145" lon="12.107495024540757"><ele>463.6666666666667</ele><time>2026-05-02T15:05:08.999Z</time></trkpt><trkpt lat="46.237534432495636" lon="12.107703238960232"><ele>464.33333333333337</ele><time>2026-05-02T15:05:09.999Z</time></trkpt><trkpt lat="46.23740716132375" lon="12.107893709683827"><ele>465.0</ele><time>2026-05-02T15:05:10.999Z</time></trkpt><trkpt lat="46.23726874638034" lon="12.108092888968486"><ele>465.66666666666663</ele><time>2026-05-02T15:05:11.999Z</time></trkpt><trkpt lat="46.23712657964322" lon="12.108274226140164"><ele>466.3333333333333</ele><time>2026-05-02T15:05:12.999Z</time></trkpt><trkpt lat="46.23697813614301" lon="12.108452199894268"><ele>467.0</ele><time>2026-05-02T15:05:13.999Z</time></trkpt><trkpt lat="46.236830204240086" lon="12.10862908813887"><ele>467.0</ele><time>2026-05-02T15:05:14.999Z</time></trkpt><trkpt lat="46.236684883305784" lon="12.108811791001225"><ele>467.0</ele><time>2026-05-02T15:05:15.999Z</time></trkpt><trkpt lat="46.236532592025" lon="12.108992574413346"><ele>467.0</ele><time>2026-05-02T15:05:16.999Z</time></trkpt><trkpt lat="46.23637754485713" lon="12.10917232538375"><ele>466.3333333333333</ele><time>2026-05-02T15:05:17.999Z</time></trkpt><trkpt lat="46.23621455224864" lon="12.109348650056004"><ele>465.66666666666663</ele><time>2026-05-02T15:05:18.999Z</time></trkpt><trkpt lat="46.236029293182796" lon="12.109487589607587"><ele>465.0</ele><time>2026-05-02T15:05:19.999Z</time></trkpt><trkpt lat="46.235826404003596" lon="12.109605347360057"><ele>464.66666666666663</ele><time>2026-05-02T15:05:20.999Z</time></trkpt><trkpt lat="46.23561982646858" lon="12.109715365243837"><ele>464.3333333333333</ele><time>2026-05-02T15:05:21.999Z</time></trkpt><trkpt lat="46.23540695713653" lon="12.109787674340154"><ele>464.0</ele><time>2026-05-02T15:05:22.999Z</time></trkpt><trkpt lat="46.23521907282393" lon="12.109864025435728"><ele>463.3333333333333</ele><time>2026-05-02T15:05:23.999Z</time></trkpt><trkpt lat="46.235040427084996" lon="12.109959430826233"><ele>462.66666666666663</ele><time>2026-05-02T15:05:24.999Z</time></trkpt><trkpt lat="46.23486619765787" lon="12.110067672243762"><ele>462.0</ele><time>2026-05-02T15:05:25.999Z</time></trkpt><trkpt lat="46.23469870651387" lon="12.110205162127542"><ele>462.0</ele><time>2026-05-02T15:05:26.999Z</time></trkpt><trkpt lat="46.23454128727718" lon="12.11037559399073"><ele>462.0</ele><time>2026-05-02T15:05:27.999Z</time></trkpt><trkpt lat="46.23437962305501" lon="12.11055670898621"><ele>462.0</ele><time>2026-05-02T15:05:28.999Z</time></trkpt><trkpt lat="46.23419694874094" lon="12.110719877341962"><ele>460.0</ele><time>2026-05-02T15:05:29.999Z</time></trkpt><trkpt lat="46.23402607218404" lon="12.11091363715783"><ele>458.0</ele><time>2026-05-02T15:05:30.999Z</time></trkpt><trkpt lat="46.233849292352986" lon="12.111091566459537"><ele>456.0</ele><time>2026-05-02T15:05:31.999Z</time></trkpt><trkpt lat="46.233673047381515" lon="12.11126143984651"><ele>456.0</ele><time>2026-05-02T15:05:32.999Z</time></trkpt><trkpt lat="46.233504683011105" lon="12.111420219836347"><ele>456.0</ele><time>2026-05-02T15:05:33.999Z</time></trkpt><trkpt lat="46.23333394441768" lon="12.111556293788611"><ele>456.0</ele><time>2026-05-02T15:05:35Z</time></trkpt><trkpt lat="46.23315467657001" lon="12.111643427484797"><ele>458.33333333333337</ele><time>2026-05-02T15:05:36Z</time></trkpt><trkpt lat="46.23298388158658" lon="12.111730762101883"><ele>460.6666666666667</ele><time>2026-05-02T15:05:37Z</time></trkpt><trkpt lat="46.23279936123588" lon="12.111822135820296"><ele>463.0</ele><time>2026-05-02T15:05:38Z</time></trkpt><trkpt lat="46.23261639561716" lon="12.111913197114385"><ele>463.0</ele><time>2026-05-02T15:05:39Z</time></trkpt><trkpt lat="46.232439775494946" lon="12.112001674043379"><ele>463.0</ele><time>2026-05-02T15:05:40Z</time></trkpt><trkpt lat="46.23225307521609" lon="12.112096271849783"><ele>463.0</ele><time>2026-05-02T15:05:41Z</time></trkpt><trkpt lat="46.23205911077526" lon="12.112194780178807"><ele>460.6666666666667</ele><time>2026-05-02T15:05:42Z</time></trkpt><trkpt lat="46.23186011645037" lon="12.112297297777436"><ele>458.33333333333337</ele><time>2026-05-02T15:05:43Z</time></trkpt><trkpt lat="46.23165981150873" lon="12.112400491058262"><ele>456.0</ele><time>2026-05-02T15:05:44Z</time></trkpt><trkpt lat="46.231499655410914" lon="12.11248298314444"><ele>455.33333333333337</ele><time>2026-05-02T15:05:45Z</time></trkpt><trkpt lat="46.23135400681622" lon="12.112559915080242"><ele>454.6666666666667</ele><time>2026-05-02T15:05:46Z</time></trkpt><trkpt lat="46.23120410705556" lon="12.112639750754896"><ele>454.0</ele><time>2026-05-02T15:05:47Z</time></trkpt><trkpt lat="46.23104614407972" lon="12.112733551493566"><ele>454.0</ele><time>2026-05-02T15:05:48Z</time></trkpt><trkpt lat="46.230904459961934" lon="12.112868327496011"><ele>454.0</ele><time>2026-05-02T15:05:49Z</time></trkpt><trkpt lat="46.23075460910334" lon="12.112980544680536"><ele>454.0</ele><time>2026-05-02T15:05:50Z</time></trkpt><trkpt lat="46.230616642804044" lon="12.113123618192073"><ele>455.0</ele><time>2026-05-02T15:05:51Z</time></trkpt><trkpt lat="46.230478653461475" lon="12.113267547391356"><ele>456.0</ele><time>2026-05-02T15:05:52Z</time></trkpt><trkpt lat="46.23034274491838" lon="12.113410208183076"><ele>457.0</ele><time>2026-05-02T15:05:53Z</time></trkpt><trkpt lat="46.230205156442096" lon="12.113556076425864"><ele>457.0</ele><time>2026-05-02T15:05:54Z</time></trkpt><trkpt lat="46.23006669104797" lon="12.113702861340816"><ele>457.0</ele><time>2026-05-02T15:05:55Z</time></trkpt><trkpt lat="46.22992897669325" lon="12.113848543757967"><ele>457.0</ele><time>2026-05-02T15:05:56Z</time></trkpt><trkpt lat="46.2297911419393" lon="12.11399423213628"><ele>457.33333333333337</ele><time>2026-05-02T15:05:57Z</time></trkpt><trkpt lat="46.22965380993407" lon="12.114139549570181"><ele>457.66666666666663</ele><time>2026-05-02T15:05:58Z</time></trkpt><trkpt lat="46.22951138333545" lon="12.114290390694883"><ele>458.0</ele><time>2026-05-02T15:05:59Z</time></trkpt><trkpt lat="46.22936083664072" lon="12.114450523151188"><ele>458.0</ele><time>2026-05-02T15:06:00Z</time></trkpt><trkpt lat="46.229208637286206" lon="12.114612678253623"><ele>458.0</ele><time>2026-05-02T15:06:01Z</time></trkpt><trkpt lat="46.229054355168905" lon="12.11477687513534"><ele>458.0</ele><time>2026-05-02T15:06:02Z</time></trkpt><trkpt lat="46.22890069981632" lon="12.114943619455554"><ele>457.0</ele><time>2026-05-02T15:06:03Z</time></trkpt><trkpt lat="46.22874987205025" lon="12.115120300925014"><ele>456.0</ele><time>2026-05-02T15:06:04Z</time></trkpt><trkpt lat="46.22860222693548" lon="12.11528194178513"><ele>455.0</ele><time>2026-05-02T15:06:05Z</time></trkpt><trkpt lat="46.22845287431177" lon="12.115452094399354"><ele>455.0</ele><time>2026-05-02T15:06:06Z</time></trkpt><trkpt lat="46.22829624803736" lon="12.115605942012285"><ele>455.0</ele><time>2026-05-02T15:06:07Z</time></trkpt><trkpt lat="46.22814862674357" lon="12.115735321407888"><ele>455.0</ele><time>2026-05-02T15:06:08Z</time></trkpt><trkpt lat="46.22800017133762" lon="12.115860184844458"><ele>454.0</ele><time>2026-05-02T15:06:09Z</time></trkpt><trkpt lat="46.22784801820294" lon="12.11597034407459"><ele>453.0</ele><time>2026-05-02T15:06:10Z</time></trkpt><trkpt lat="46.22769463398607" lon="12.116084659840896"><ele>452.0</ele><time>2026-05-02T15:06:11Z</time></trkpt><trkpt lat="46.227541622006505" lon="12.11620670577266"><ele>452.0</ele><time>2026-05-02T15:06:12Z</time></trkpt><trkpt lat="46.227385317814765" lon="12.116326747263544"><ele>452.0</ele><time>2026-05-02T15:06:13Z</time></trkpt><trkpt lat="46.22722160497784" lon="12.116450481106693"><ele>452.0</ele><time>2026-05-02T15:06:14Z</time></trkpt><trkpt lat="46.22709066098629" lon="12.116595621282483"><ele>451.0</ele><time>2026-05-02T15:06:15Z</time></trkpt><trkpt lat="46.22694295620607" lon="12.116732286770839"><ele>450.0</ele><time>2026-05-02T15:06:16Z</time></trkpt><trkpt lat="46.22679356793426" lon="12.116869126592311"><ele>449.0</ele><time>2026-05-02T15:06:17Z</time></trkpt><trkpt lat="46.226648180956786" lon="12.117004619484888"><ele>449.0</ele><time>2026-05-02T15:06:18Z</time></trkpt><trkpt lat="46.22650309539459" lon="12.117154299259003"><ele>449.0</ele><time>2026-05-02T15:06:19Z</time></trkpt><trkpt lat="46.22636524152772" lon="12.117323569812879"><ele>449.0</ele><time>2026-05-02T15:06:20Z</time></trkpt><trkpt lat="46.22623482341315" lon="12.11750139237789"><ele>449.0</ele><time>2026-05-02T15:06:21Z</time></trkpt><trkpt lat="46.22611250230805" lon="12.117693776958088"><ele>449.0</ele><time>2026-05-02T15:06:22Z</time></trkpt><trkpt lat="46.225985798949054" lon="12.11788400068348"><ele>449.0</ele><time>2026-05-02T15:06:23Z</time></trkpt><trkpt lat="46.225829399700444" lon="12.118015501188935"><ele>449.0</ele><time>2026-05-02T15:06:24Z</time></trkpt><trkpt lat="46.22566691604063" lon="12.118130976959263"><ele>449.0</ele><time>2026-05-02T15:06:25Z</time></trkpt><trkpt lat="46.225494692733236" lon="12.118221307768351"><ele>449.0</ele><time>2026-05-02T15:06:26Z</time></trkpt><trkpt lat="46.22531720920592" lon="12.118287163603433"><ele>448.0</ele><time>2026-05-02T15:06:27Z</time></trkpt><trkpt lat="46.225134263788696" lon="12.118332550397305"><ele>447.0</ele><time>2026-05-02T15:06:28Z</time></trkpt><trkpt lat="46.22494736188857" lon="12.118368361119238"><ele>446.0</ele><time>2026-05-02T15:06:29Z</time></trkpt><trkpt lat="46.22477612314127" lon="12.118418047225289"><ele>446.0</ele><time>2026-05-02T15:06:30Z</time></trkpt><trkpt lat="46.22461912698135" lon="12.118490961497855"><ele>446.0</ele><time>2026-05-02T15:06:31Z</time></trkpt><trkpt lat="46.224468735808614" lon="12.118614207553774"><ele>446.0</ele><time>2026-05-02T15:06:32Z</time></trkpt><trkpt lat="46.22432217594082" lon="12.118738148935625"><ele>446.0</ele><time>2026-05-02T15:06:33Z</time></trkpt><trkpt lat="46.22418626120117" lon="12.118894753645774"><ele>446.0</ele><time>2026-05-02T15:06:34Z</time></trkpt><trkpt lat="46.22407224224366" lon="12.119076474142442"><ele>446.0</ele><time>2026-05-02T15:06:35Z</time></trkpt><trkpt lat="46.223974277252054" lon="12.119281290666155"><ele>446.66666666666663</ele><time>2026-05-02T15:06:36Z</time></trkpt><trkpt lat="46.22388727629298" lon="12.11950660646172"><ele>447.33333333333337</ele><time>2026-05-02T15:06:37Z</time></trkpt><trkpt lat="46.223805486257135" lon="12.119744934287946"><ele>448.0</ele><time>2026-05-02T15:06:38Z</time></trkpt><trkpt lat="46.2237133557844" lon="12.119978803474517"><ele>448.0</ele><time>2026-05-02T15:06:39Z</time></trkpt><trkpt lat="46.223616628214096" lon="12.120204612693467"><ele>448.0</ele><time>2026-05-02T15:06:40Z</time></trkpt><trkpt lat="46.22351507512673" lon="12.120439998322663"><ele>448.0</ele><time>2026-05-02T15:06:40.999Z</time></trkpt><trkpt lat="46.2233805472463" lon="12.120634517432874"><ele>446.33333333333337</ele><time>2026-05-02T15:06:41.999Z</time></trkpt><trkpt lat="46.22323923136074" lon="12.12079295668029"><ele>444.66666666666663</ele><time>2026-05-02T15:06:42.999Z</time></trkpt><trkpt lat="46.22313580471995" lon="12.120995509939151"><ele>443.0</ele><time>2026-05-02T15:06:43.999Z</time></trkpt><trkpt lat="46.223009477075074" lon="12.12118584636649"><ele>443.0</ele><time>2026-05-02T15:06:44.999Z</time></trkpt><trkpt lat="46.222872428676865" lon="12.121329448666893"><ele>443.0</ele><time>2026-05-02T15:06:45.999Z</time></trkpt><trkpt lat="46.22273568310985" lon="12.121463415257276"><ele>443.0</ele><time>2026-05-02T15:06:46.999Z</time></trkpt><trkpt lat="46.222572777750855" lon="12.121554947722611"><ele>444.0</ele><time>2026-05-02T15:06:47.999Z</time></trkpt><trkpt lat="46.22239453711007" lon="12.12163009018741"><ele>445.0</ele><time>2026-05-02T15:06:48.999Z</time></trkpt><trkpt lat="46.22223182171998" lon="12.12169612586554"><ele>446.0</ele><time>2026-05-02T15:06:49.999Z</time></trkpt><trkpt lat="46.22207091653001" lon="12.121763973701368"><ele>446.0</ele><time>2026-05-02T15:06:50.999Z</time></trkpt><trkpt lat="46.22191633217714" lon="12.121840774039512"><ele>446.0</ele><time>2026-05-02T15:06:51.999Z</time></trkpt><trkpt lat="46.22176861241264" lon="12.12195071138778"><ele>446.0</ele><time>2026-05-02T15:06:52.999Z</time></trkpt><trkpt lat="46.221635259244024" lon="12.122099530424608"><ele>446.0</ele><time>2026-05-02T15:06:53.999Z</time></trkpt><trkpt lat="46.2215001968024" lon="12.122260663380308"><ele>446.0</ele><time>2026-05-02T15:06:54.999Z</time></trkpt><trkpt lat="46.22136217312867" lon="12.12244348885631"><ele>446.0</ele><time>2026-05-02T15:06:55.999Z</time></trkpt><trkpt lat="46.22123284166012" lon="12.122633408037986"><ele>443.66666666666663</ele><time>2026-05-02T15:06:56.999Z</time></trkpt><trkpt lat="46.22109450554998" lon="12.122829910923178"><ele>441.33333333333337</ele><time>2026-05-02T15:06:57.999Z</time></trkpt><trkpt lat="46.220948529669" lon="12.123002596777754"><ele>439.0</ele><time>2026-05-02T15:06:58.999Z</time></trkpt><trkpt lat="46.2207777548773" lon="12.123181288105139"><ele>439.0</ele><time>2026-05-02T15:06:59.999Z</time></trkpt><trkpt lat="46.22059188593857" lon="12.123372085194692"><ele>439.0</ele><time>2026-05-02T15:07:00.999Z</time></trkpt><trkpt lat="46.22038504661246" lon="12.12358588209332"><ele>439.0</ele><time>2026-05-02T15:07:01.999Z</time></trkpt><trkpt lat="46.22017762864616" lon="12.123800844222968"><ele>439.0</ele><time>2026-05-02T15:07:02.999Z</time></trkpt><trkpt lat="46.219992895485575" lon="12.123993280365728"><ele>439.5</ele><time>2026-05-02T15:07:03.999Z</time></trkpt><trkpt lat="46.21977431575094" lon="12.124221228281534"><ele>440.0</ele><time>2026-05-02T15:07:04.999Z</time></trkpt><trkpt lat="46.219546726496915" lon="12.124458837943974"><ele>440.0</ele><time>2026-05-02T15:07:05.999Z</time></trkpt><trkpt lat="46.21931449460923" lon="12.124701206479115"><ele>440.0</ele><time>2026-05-02T15:07:06.999Z</time></trkpt><trkpt lat="46.21907599905683" lon="12.12494934909114"><ele>440.0</ele><time>2026-05-02T15:07:07.999Z</time></trkpt><trkpt lat="46.218836481889824" lon="12.125197704992184"><ele>440.0</ele><time>2026-05-02T15:07:08.999Z</time></trkpt><trkpt lat="46.21859924834446" lon="12.125443652635099"><ele>440.0</ele><time>2026-05-02T15:07:09.999Z</time></trkpt><trkpt lat="46.21836505337253" lon="12.125685611977612"><ele>440.0</ele><time>2026-05-02T15:07:10.999Z</time></trkpt><trkpt lat="46.21812884148947" lon="12.125934027125439"><ele>440.5</ele><time>2026-05-02T15:07:11.999Z</time></trkpt><trkpt lat="46.21789311327498" lon="12.126181711308996"><ele>441.0</ele><time>2026-05-02T15:07:12.999Z</time></trkpt><trkpt lat="46.217656444397015" lon="12.1264279951782"><ele>444.0</ele><time>2026-05-02T15:07:13.999Z</time></trkpt><trkpt lat="46.21742911973537" lon="12.126663888954369"><ele>447.0</ele><time>2026-05-02T15:07:14.999Z</time></trkpt><trkpt lat="46.2172271133017" lon="12.126872947309403"><ele>441.0</ele><time>2026-05-02T15:07:15.999Z</time></trkpt><trkpt lat="46.21703313933886" lon="12.127074858284463"><ele>435.0</ele><time>2026-05-02T15:07:16.999Z</time></trkpt><trkpt lat="46.216853848169016" lon="12.12726232416881"><ele>436.0</ele><time>2026-05-02T15:07:17.999Z</time></trkpt><trkpt lat="46.21668742984864" lon="12.127464477859458"><ele>437.0</ele><time>2026-05-02T15:07:18.999Z</time></trkpt><trkpt lat="46.216507535640986" lon="12.127618883459496"><ele>438.0</ele><time>2026-05-02T15:07:19.999Z</time></trkpt><trkpt lat="46.21634372563641" lon="12.127801276274084"><ele>438.0</ele><time>2026-05-02T15:07:20.999Z</time></trkpt><trkpt lat="46.21617459731484" lon="12.127945203087146"><ele>438.0</ele><time>2026-05-02T15:07:21.999Z</time></trkpt><trkpt lat="46.21599745970679" lon="12.12803428179903"><ele>438.0</ele><time>2026-05-02T15:07:22.999Z</time></trkpt><trkpt lat="46.215806897585175" lon="12.12809871393304"><ele>437.33333333333337</ele><time>2026-05-02T15:07:23.999Z</time></trkpt><trkpt lat="46.215601501947475" lon="12.128148575310256"><ele>436.6666666666667</ele><time>2026-05-02T15:07:24.999Z</time></trkpt><trkpt lat="46.215381723984066" lon="12.1281721106442"><ele>436.0</ele><time>2026-05-02T15:07:25.999Z</time></trkpt><trkpt lat="46.2151760237489" lon="12.128176392312062"><ele>436.0</ele><time>2026-05-02T15:07:26.999Z</time></trkpt><trkpt lat="46.215009742797676" lon="12.128173802096718"><ele>436.0</ele><time>2026-05-02T15:07:27.999Z</time></trkpt><trkpt lat="46.21485879850893" lon="12.128177876646154"><ele>436.0</ele><time>2026-05-02T15:07:28.999Z</time></trkpt><trkpt lat="46.2146984795291" lon="12.128212101685843"><ele>434.33333333333337</ele><time>2026-05-02T15:07:29.999Z</time></trkpt><trkpt lat="46.214510553335906" lon="12.12826451192718"><ele>432.66666666666663</ele><time>2026-05-02T15:07:30.999Z</time></trkpt><trkpt lat="46.21431604852438" lon="12.128324236989618"><ele>431.0</ele><time>2026-05-02T15:07:31.999Z</time></trkpt><trkpt lat="46.214118013365265" lon="12.128389451456984"><ele>431.66666666666663</ele><time>2026-05-02T15:07:32.999Z</time></trkpt><trkpt lat="46.21391362619631" lon="12.128465975843737"><ele>432.33333333333337</ele><time>2026-05-02T15:07:33.999Z</time></trkpt><trkpt lat="46.2137027741244" lon="12.128554150740744"><ele>433.0</ele><time>2026-05-02T15:07:34.999Z</time></trkpt><trkpt lat="46.21349468473653" lon="12.128645486318238"><ele>433.0</ele><time>2026-05-02T15:07:35.999Z</time></trkpt><trkpt lat="46.21329859932642" lon="12.128733283653316"><ele>433.0</ele><time>2026-05-02T15:07:36.999Z</time></trkpt><trkpt lat="46.213118213071425" lon="12.128815021627943"><ele>433.0</ele><time>2026-05-02T15:07:37.999Z</time></trkpt><trkpt lat="46.212931704905266" lon="12.128897340790605"><ele>433.6666666666667</ele><time>2026-05-02T15:07:38.999Z</time></trkpt><trkpt lat="46.21275508008254" lon="12.12897547397178"><ele>434.33333333333337</ele><time>2026-05-02T15:07:39.999Z</time></trkpt><trkpt lat="46.212597264522635" lon="12.129041468032833"><ele>435.0</ele><time>2026-05-02T15:07:41Z</time></trkpt><trkpt lat="46.2124791368633" lon="12.129086924197706"><ele>435.0</ele><time>2026-05-02T15:07:42Z</time></trkpt><trkpt lat="46.21238466856018" lon="12.129129689031867"><ele>435.0</ele><time>2026-05-02T15:07:43Z</time></trkpt><trkpt lat="46.21231223257073" lon="12.12916130716286"><ele>435.0</ele><time>2026-05-02T15:07:44Z</time></trkpt><trkpt lat="46.21223176830031" lon="12.129185905137975"><ele>435.0</ele><time>2026-05-02T15:07:45Z</time></trkpt><trkpt lat="46.21215117866078" lon="12.129213848079388"><ele>435.0</ele><time>2026-05-02T15:07:46Z</time></trkpt><trkpt lat="46.212060097877725" lon="12.129249531671897"><ele>435.0</ele><time>2026-05-02T15:07:47Z</time></trkpt><trkpt lat="46.21196223973316" lon="12.129293651262378"><ele>434.5</ele><time>2026-05-02T15:07:48Z</time></trkpt><trkpt lat="46.2118549708302" lon="12.12934260183636"><ele>434.0</ele><time>2026-05-02T15:07:49Z</time></trkpt><trkpt lat="46.2117439047944" lon="12.129393139956349"><ele>433.5</ele><time>2026-05-02T15:07:50Z</time></trkpt><trkpt lat="46.211616048785174" lon="12.12944438580965"><ele>433.0</ele><time>2026-05-02T15:07:51Z</time></trkpt><trkpt lat="46.211484160514004" lon="12.129483457033697"><ele>432.5</ele><time>2026-05-02T15:07:52Z</time></trkpt><trkpt lat="46.21135565844202" lon="12.129508995757659"><ele>432.0</ele><time>2026-05-02T15:07:53Z</time></trkpt><trkpt lat="46.21121354930352" lon="12.129531156157261"><ele>431.5</ele><time>2026-05-02T15:07:54Z</time></trkpt><trkpt lat="46.21106018530092" lon="12.129562856258442"><ele>431.0</ele><time>2026-05-02T15:07:55Z</time></trkpt><trkpt lat="46.21089383439095" lon="12.129602270373574"><ele>431.0</ele><time>2026-05-02T15:07:56Z</time></trkpt><trkpt lat="46.21072101001487" lon="12.129643144302454"><ele>431.0</ele><time>2026-05-02T15:07:57Z</time></trkpt><trkpt lat="46.210541507430214" lon="12.129689617107484"><ele>431.0</ele><time>2026-05-02T15:07:58Z</time></trkpt><trkpt lat="46.21035970110732" lon="12.129733693883754"><ele>431.0</ele><time>2026-05-02T15:07:59Z</time></trkpt><trkpt lat="46.21016489294395" lon="12.129767516830432"><ele>431.0</ele><time>2026-05-02T15:08:00Z</time></trkpt><trkpt lat="46.20997392649622" lon="12.129815646737365"><ele>431.0</ele><time>2026-05-02T15:08:01Z</time></trkpt><trkpt lat="46.20978271129852" lon="12.12985967450592"><ele>429.3333333333333</ele><time>2026-05-02T15:08:02Z</time></trkpt><trkpt lat="46.20958656157798" lon="12.129888568722432"><ele>427.66666666666663</ele><time>2026-05-02T15:08:03Z</time></trkpt><trkpt lat="46.20938856161801" lon="12.129893854042324"><ele>426.0</ele><time>2026-05-02T15:08:04Z</time></trkpt><trkpt lat="46.20919668872769" lon="12.129893158358524"><ele>426.0</ele><time>2026-05-02T15:08:05Z</time></trkpt><trkpt lat="46.20900618840553" lon="12.129882745974255"><ele>426.0</ele><time>2026-05-02T15:08:06Z</time></trkpt><trkpt lat="46.208812166155816" lon="12.129866317063955"><ele>426.0</ele><time>2026-05-02T15:08:07Z</time></trkpt><trkpt lat="46.20861394729735" lon="12.129841503068583"><ele>426.0</ele><time>2026-05-02T15:08:08Z</time></trkpt><trkpt lat="46.2084182512172" lon="12.129818820638695"><ele>426.0</ele><time>2026-05-02T15:08:09Z</time></trkpt><trkpt lat="46.20823700339369" lon="12.129800668399913"><ele>426.0</ele><time>2026-05-02T15:08:10Z</time></trkpt><trkpt lat="46.208058352813815" lon="12.129776500214716"><ele>426.0</ele><time>2026-05-02T15:08:11Z</time></trkpt><trkpt lat="46.20789058398321" lon="12.129756312959067"><ele>426.0</ele><time>2026-05-02T15:08:12Z</time></trkpt><trkpt lat="46.207715669142544" lon="12.129733470279252"><ele>426.0</ele><time>2026-05-02T15:08:13Z</time></trkpt><trkpt lat="46.20754012399193" lon="12.129712637817011"><ele>426.0</ele><time>2026-05-02T15:08:14Z</time></trkpt><trkpt lat="46.20736841693341" lon="12.129697328274151"><ele>426.0</ele><time>2026-05-02T15:08:15Z</time></trkpt><trkpt lat="46.207192803558904" lon="12.12967718863601"><ele>426.0</ele><time>2026-05-02T15:08:16Z</time></trkpt><trkpt lat="46.20702113756516" lon="12.129651747460725"><ele>426.0</ele><time>2026-05-02T15:08:17Z</time></trkpt><trkpt lat="46.20685246488851" lon="12.129631693388736"><ele>426.0</ele><time>2026-05-02T15:08:18Z</time></trkpt><trkpt lat="46.20668122020373" lon="12.129598085593862"><ele>426.0</ele><time>2026-05-02T15:08:19Z</time></trkpt><trkpt lat="46.2065081624924" lon="12.129544957688708"><ele>426.0</ele><time>2026-05-02T15:08:20Z</time></trkpt><trkpt lat="46.20632964577108" lon="12.129462867726389"><ele>426.0</ele><time>2026-05-02T15:08:21Z</time></trkpt><trkpt lat="46.206142387680615" lon="12.129354927820195"><ele>426.0</ele><time>2026-05-02T15:08:22Z</time></trkpt><trkpt lat="46.20595691583652" lon="12.129249207677054"><ele>426.66666666666663</ele><time>2026-05-02T15:08:23Z</time></trkpt><trkpt lat="46.205769740212055" lon="12.129143805083588"><ele>427.3333333333333</ele><time>2026-05-02T15:08:24Z</time></trkpt><trkpt lat="46.20559961008521" lon="12.12904233449893"><ele>428.0</ele><time>2026-05-02T15:08:25Z</time></trkpt><trkpt lat="46.20543534136413" lon="12.128946735981703"><ele>428.0</ele><time>2026-05-02T15:08:26Z</time></trkpt><trkpt lat="46.2052569659004" lon="12.128849498132723"><ele>428.0</ele><time>2026-05-02T15:08:27Z</time></trkpt><trkpt lat="46.205077365745844" lon="12.128753894566998"><ele>428.0</ele><time>2026-05-02T15:08:28Z</time></trkpt><trkpt lat="46.20489196809288" lon="12.128650959687937"><ele>428.3333333333333</ele><time>2026-05-02T15:08:29Z</time></trkpt><trkpt lat="46.20472331572967" lon="12.128541084073492"><ele>428.66666666666663</ele><time>2026-05-02T15:08:30Z</time></trkpt><trkpt lat="46.20455879522634" lon="12.128416935647357"><ele>429.0</ele><time>2026-05-02T15:08:31Z</time></trkpt><trkpt lat="46.20438409051489" lon="12.128269057722944"><ele>428.0</ele><time>2026-05-02T15:08:32Z</time></trkpt><trkpt lat="46.20421108413363" lon="12.128095572079507"><ele>427.0</ele><time>2026-05-02T15:08:33Z</time></trkpt><trkpt lat="46.204041731640935" lon="12.12793380319316"><ele>426.0</ele><time>2026-05-02T15:08:34Z</time></trkpt><trkpt lat="46.20386628940028" lon="12.127792645086437"><ele>426.0</ele><time>2026-05-02T15:08:35Z</time></trkpt><trkpt lat="46.20368300637408" lon="12.127651373834862"><ele>426.0</ele><time>2026-05-02T15:08:36Z</time></trkpt><trkpt lat="46.20348444459973" lon="12.127524901534562"><ele>426.0</ele><time>2026-05-02T15:08:37Z</time></trkpt><trkpt lat="46.203264743636446" lon="12.127405998283992"><ele>425.0</ele><time>2026-05-02T15:08:38Z</time></trkpt><trkpt lat="46.20304047064413" lon="12.12726236347225"><ele>424.0</ele><time>2026-05-02T15:08:39Z</time></trkpt><trkpt lat="46.20280110458475" lon="12.127148088928287"><ele>424.0</ele><time>2026-05-02T15:08:40Z</time></trkpt><trkpt lat="46.20255279256058" lon="12.127051435536869"><ele>424.0</ele><time>2026-05-02T15:08:41Z</time></trkpt><trkpt lat="46.20231639505261" lon="12.126925319496912"><ele>421.5</ele><time>2026-05-02T15:08:42Z</time></trkpt><trkpt lat="46.202088152429646" lon="12.12681200532843"><ele>419.0</ele><time>2026-05-02T15:08:43Z</time></trkpt><trkpt lat="46.20186441260404" lon="12.126705697578373"><ele>419.0</ele><time>2026-05-02T15:08:44Z</time></trkpt><trkpt lat="46.201649136043166" lon="12.126610647063686"><ele>419.0</ele><time>2026-05-02T15:08:45Z</time></trkpt><trkpt lat="46.201435526464756" lon="12.126517348198538"><ele>419.0</ele><time>2026-05-02T15:08:45.999Z</time></trkpt><trkpt lat="46.20123005244964" lon="12.126424796108331"><ele>418.66666666666663</ele><time>2026-05-02T15:08:46.999Z</time></trkpt><trkpt lat="46.20103077144474" lon="12.126329548137344"><ele>418.33333333333337</ele><time>2026-05-02T15:08:47.999Z</time></trkpt><trkpt lat="46.20083258968803" lon="12.126234958698678"><ele>418.0</ele><time>2026-05-02T15:08:48.999Z</time></trkpt><trkpt lat="46.200636680601406" lon="12.126148794021713"><ele>417.33333333333337</ele><time>2026-05-02T15:08:49.999Z</time></trkpt><trkpt lat="46.20044219852719" lon="12.126064912557096"><ele>416.66666666666663</ele><time>2026-05-02T15:08:50.999Z</time></trkpt><trkpt lat="46.20025168434684" lon="12.125976063739047"><ele>416.0</ele><time>2026-05-02T15:08:51.999Z</time></trkpt><trkpt lat="46.20007008455046" lon="12.125887812476515"><ele>416.0</ele><time>2026-05-02T15:08:52.999Z</time></trkpt><trkpt lat="46.19990162159637" lon="12.125808180905114"><ele>416.0</ele><time>2026-05-02T15:08:53.999Z</time></trkpt><trkpt lat="46.199744198074406" lon="12.125741367418307"><ele>416.0</ele><time>2026-05-02T15:08:54.999Z</time></trkpt><trkpt lat="46.19958381135623" lon="12.125664293368533"><ele>416.5</ele><time>2026-05-02T15:08:55.999Z</time></trkpt><trkpt lat="46.199433576040875" lon="12.125589327791078"><ele>417.0</ele><time>2026-05-02T15:08:56.999Z</time></trkpt><trkpt lat="46.19929224969255" lon="12.125531431140747"><ele>417.5</ele><time>2026-05-02T15:08:57.999Z</time></trkpt><trkpt lat="46.199152105404956" lon="12.12548605852565"><ele>418.0</ele><time>2026-05-02T15:08:58.999Z</time></trkpt><trkpt lat="46.199020420106734" lon="12.125454741829072"><ele>418.6666666666667</ele><time>2026-05-02T15:08:59.999Z</time></trkpt><trkpt lat="46.198878132891686" lon="12.125431132384488"><ele>419.33333333333337</ele><time>2026-05-02T15:09:00.999Z</time></trkpt><trkpt lat="46.1987280999755" lon="12.125412532597695"><ele>420.0</ele><time>2026-05-02T15:09:01.999Z</time></trkpt><trkpt lat="46.19856932071535" lon="12.125398276273643"><ele>420.0</ele><time>2026-05-02T15:09:02.999Z</time></trkpt><trkpt lat="46.1983977808046" lon="12.125378400367829"><ele>420.0</ele><time>2026-05-02T15:09:03.999Z</time></trkpt><trkpt lat="46.19822243325252" lon="12.125357377215183"><ele>420.0</ele><time>2026-05-02T15:09:04.999Z</time></trkpt><trkpt lat="46.198040601051865" lon="12.12533359424021"><ele>419.0</ele><time>2026-05-02T15:09:05.999Z</time></trkpt><trkpt lat="46.197854273539846" lon="12.125309939056889"><ele>418.0</ele><time>2026-05-02T15:09:06.999Z</time></trkpt><trkpt lat="46.1976606737302" lon="12.125288840055985"><ele>417.0</ele><time>2026-05-02T15:09:07.999Z</time></trkpt><trkpt lat="46.197468392194565" lon="12.125267250023281"><ele>416.66666666666663</ele><time>2026-05-02T15:09:08.999Z</time></trkpt><trkpt lat="46.19726745809422" lon="12.125239655528196"><ele>416.3333333333333</ele><time>2026-05-02T15:09:09.999Z</time></trkpt><trkpt lat="46.19706285835264" lon="12.125215075508901"><ele>416.0</ele><time>2026-05-02T15:09:10.999Z</time></trkpt><trkpt lat="46.19685221011001" lon="12.12519900264141"><ele>416.0</ele><time>2026-05-02T15:09:11.999Z</time></trkpt><trkpt lat="46.19663490312007" lon="12.125181396053685"><ele>416.0</ele><time>2026-05-02T15:09:12.999Z</time></trkpt><trkpt lat="46.19641495119128" lon="12.125157249483657"><ele>416.0</ele><time>2026-05-02T15:09:13.999Z</time></trkpt><trkpt lat="46.196194168720936" lon="12.12513046521899"><ele>415.0</ele><time>2026-05-02T15:09:14.999Z</time></trkpt><trkpt lat="46.19597099289609" lon="12.125107872813798"><ele>414.0</ele><time>2026-05-02T15:09:15.999Z</time></trkpt><trkpt lat="46.195760311303744" lon="12.125083391401063"><ele>413.0</ele><time>2026-05-02T15:09:16.999Z</time></trkpt><trkpt lat="46.1955546898941" lon="12.125058794251014"><ele>412.3333333333333</ele><time>2026-05-02T15:09:17.999Z</time></trkpt><trkpt lat="46.19534834646821" lon="12.12503393383737"><ele>411.66666666666663</ele><time>2026-05-02T15:09:18.999Z</time></trkpt><trkpt lat="46.195144633780686" lon="12.125009167056406"><ele>411.0</ele><time>2026-05-02T15:09:19.999Z</time></trkpt><trkpt lat="46.19494101337727" lon="12.124986090104391"><ele>410.66666666666663</ele><time>2026-05-02T15:09:20.999Z</time></trkpt><trkpt lat="46.19473849415139" lon="12.124965630166244"><ele>410.3333333333333</ele><time>2026-05-02T15:09:21.999Z</time></trkpt><trkpt lat="46.19453416599164" lon="12.12493878631532"><ele>410.0</ele><time>2026-05-02T15:09:22.999Z</time></trkpt><trkpt lat="46.19432813735533" lon="12.124910167291755"><ele>409.66666666666663</ele><time>2026-05-02T15:09:23.999Z</time></trkpt><trkpt lat="46.19412543958375" lon="12.124885463508768"><ele>409.33333333333337</ele><time>2026-05-02T15:09:24.999Z</time></trkpt><trkpt lat="46.193924859709924" lon="12.124860265842342"><ele>409.0</ele><time>2026-05-02T15:09:25.999Z</time></trkpt><trkpt lat="46.19372801997487" lon="12.124839873733013"><ele>408.33333333333337</ele><time>2026-05-02T15:09:26.999Z</time></trkpt><trkpt lat="46.19353076029144" lon="12.124827717773904"><ele>407.66666666666663</ele><time>2026-05-02T15:09:27.999Z</time></trkpt><trkpt lat="46.193326702189225" lon="12.12483201802844"><ele>407.0</ele><time>2026-05-02T15:09:28.999Z</time></trkpt><trkpt lat="46.193116203189376" lon="12.124844458744402"><ele>407.0</ele><time>2026-05-02T15:09:29.999Z</time></trkpt><trkpt lat="46.19290145004881" lon="12.124875390501257"><ele>407.0</ele><time>2026-05-02T15:09:30.999Z</time></trkpt><trkpt lat="46.192681318205594" lon="12.12491535789371"><ele>407.0</ele><time>2026-05-02T15:09:31.999Z</time></trkpt><trkpt lat="46.19246173868695" lon="12.124963867682998"><ele>409.5</ele><time>2026-05-02T15:09:32.999Z</time></trkpt><trkpt lat="46.1922406980497" lon="12.12501992066774"><ele>412.0</ele><time>2026-05-02T15:09:33.999Z</time></trkpt><trkpt lat="46.19201851539779" lon="12.125081774267324"><ele>412.0</ele><time>2026-05-02T15:09:34.999Z</time></trkpt><trkpt lat="46.19179549488002" lon="12.125143040100863"><ele>412.0</ele><time>2026-05-02T15:09:35.999Z</time></trkpt><trkpt lat="46.19156881593045" lon="12.125206195237572"><ele>413.0</ele><time>2026-05-02T15:09:36.999Z</time></trkpt><trkpt lat="46.19134400823748" lon="12.125271936232922"><ele>414.0</ele><time>2026-05-02T15:09:37.999Z</time></trkpt><trkpt lat="46.19113107489553" lon="12.125330357427451"><ele>415.0</ele><time>2026-05-02T15:09:38.999Z</time></trkpt><trkpt lat="46.19093154419212" lon="12.125357807964491"><ele>415.0</ele><time>2026-05-02T15:09:39.999Z</time></trkpt><trkpt lat="46.19072647771852" lon="12.125340886774454"><ele>415.0</ele><time>2026-05-02T15:09:40.999Z</time></trkpt><trkpt lat="46.19051943300836" lon="12.125277507919776"><ele>415.0</ele><time>2026-05-02T15:09:41.999Z</time></trkpt><trkpt lat="46.190316323492354" lon="12.125179460953603"><ele>414.6666666666667</ele><time>2026-05-02T15:09:42.999Z</time></trkpt><trkpt lat="46.190122977584444" lon="12.125048652612831"><ele>414.33333333333337</ele><time>2026-05-02T15:09:43.999Z</time></trkpt><trkpt lat="46.189947541753064" lon="12.124891144815306"><ele>414.0</ele><time>2026-05-02T15:09:44.999Z</time></trkpt><trkpt lat="46.18979446179624" lon="12.124712798825367"><ele>414.0</ele><time>2026-05-02T15:09:45.999Z</time></trkpt><trkpt lat="46.18963994541268" lon="12.124546445199982"><ele>414.0</ele><time>2026-05-02T15:09:47Z</time></trkpt><trkpt lat="46.18948777831512" lon="12.124409233467162"><ele>414.0</ele><time>2026-05-02T15:09:48Z</time></trkpt><trkpt lat="46.18932235209951" lon="12.124305151960087"><ele>414.0</ele><time>2026-05-02T15:09:49Z</time></trkpt><trkpt lat="46.18914703097327" lon="12.124240349992464"><ele>414.0</ele><time>2026-05-02T15:09:50Z</time></trkpt><trkpt lat="46.18897994375756" lon="12.124207919844391"><ele>414.0</ele><time>2026-05-02T15:09:51Z</time></trkpt><trkpt lat="46.188803794967235" lon="12.124210349952701"><ele>414.0</ele><time>2026-05-02T15:09:52Z</time></trkpt><trkpt lat="46.18862417082341" lon="12.124270977346088"><ele>414.0</ele><time>2026-05-02T15:09:53Z</time></trkpt><trkpt lat="46.188450992183" lon="12.124351281555146"><ele>414.0</ele><time>2026-05-02T15:09:54Z</time></trkpt><trkpt lat="46.188271606201084" lon="12.124431503475094"><ele>412.66666666666663</ele><time>2026-05-02T15:09:55Z</time></trkpt><trkpt lat="46.18809635090163" lon="12.124525018674998"><ele>411.3333333333333</ele><time>2026-05-02T15:09:56Z</time></trkpt><trkpt lat="46.18790183248581" lon="12.124611028891932"><ele>410.0</ele><time>2026-05-02T15:09:57Z</time></trkpt><trkpt lat="46.187705953430125" lon="12.124658260317608"><ele>410.0</ele><time>2026-05-02T15:09:58Z</time></trkpt><trkpt lat="46.18751749621661" lon="12.12466022564315"><ele>410.0</ele><time>2026-05-02T15:09:59Z</time></trkpt><trkpt lat="46.18732552922966" lon="12.124623443716887"><ele>410.0</ele><time>2026-05-02T15:10:00Z</time></trkpt><trkpt lat="46.18713491439159" lon="12.124557039275823"><ele>411.0</ele><time>2026-05-02T15:10:01Z</time></trkpt><trkpt lat="46.1869440680873" lon="12.124448427596366"><ele>412.0</ele><time>2026-05-02T15:10:02Z</time></trkpt><trkpt lat="46.186760574798896" lon="12.124302298836543"><ele>413.0</ele><time>2026-05-02T15:10:03Z</time></trkpt><trkpt lat="46.18657644035691" lon="12.124163467038358"><ele>412.0</ele><time>2026-05-02T15:10:04Z</time></trkpt><trkpt lat="46.186388141253595" lon="12.12403517455043"><ele>411.0</ele><time>2026-05-02T15:10:05Z</time></trkpt><trkpt lat="46.186213707390564" lon="12.123879153175755"><ele>410.0</ele><time>2026-05-02T15:10:06Z</time></trkpt><trkpt lat="46.18604866249722" lon="12.123733263795984"><ele>410.0</ele><time>2026-05-02T15:10:07Z</time></trkpt><trkpt lat="46.18586390955697" lon="12.123585847669059"><ele>410.0</ele><time>2026-05-02T15:10:08Z</time></trkpt><trkpt lat="46.18568733396071" lon="12.123440532132994"><ele>410.0</ele><time>2026-05-02T15:10:09Z</time></trkpt><trkpt lat="46.185509526343104" lon="12.12329507769242"><ele>408.3333333333333</ele><time>2026-05-02T15:10:10Z</time></trkpt><trkpt lat="46.18533669271004" lon="12.123160352405673"><ele>406.66666666666663</ele><time>2026-05-02T15:10:11Z</time></trkpt><trkpt lat="46.18515975694388" lon="12.123026908617081"><ele>405.0</ele><time>2026-05-02T15:10:12Z</time></trkpt><trkpt lat="46.18497824232621" lon="12.122919613400128"><ele>411.66666666666663</ele><time>2026-05-02T15:10:13Z</time></trkpt><trkpt lat="46.184793097042075" lon="12.122826243305575"><ele>418.3333333333333</ele><time>2026-05-02T15:10:14Z</time></trkpt><trkpt lat="46.18460751390032" lon="12.122734565998812"><ele>425.0</ele><time>2026-05-02T15:10:15Z</time></trkpt><trkpt lat="46.18441980861807" lon="12.122655330848556"><ele>425.0</ele><time>2026-05-02T15:10:16Z</time></trkpt><trkpt lat="46.1842303729862" lon="12.122563790251323"><ele>425.0</ele><time>2026-05-02T15:10:17Z</time></trkpt><trkpt lat="46.184044219768865" lon="12.122454476620744"><ele>425.0</ele><time>2026-05-02T15:10:18Z</time></trkpt><trkpt lat="46.18386161614672" lon="12.122328498385727"><ele>421.0</ele><time>2026-05-02T15:10:19Z</time></trkpt><trkpt lat="46.183687563768" lon="12.12219836562577"><ele>417.0</ele><time>2026-05-02T15:10:20Z</time></trkpt><trkpt lat="46.18350336646736" lon="12.122066160694352"><ele>413.0</ele><time>2026-05-02T15:10:21Z</time></trkpt><trkpt lat="46.18332853454782" lon="12.121923751688943"><ele>411.0</ele><time>2026-05-02T15:10:22Z</time></trkpt><trkpt lat="46.183150389061026" lon="12.12178536168361"><ele>409.0</ele><time>2026-05-02T15:10:23Z</time></trkpt><trkpt lat="46.182968618504354" lon="12.121644625702823"><ele>407.0</ele><time>2026-05-02T15:10:24Z</time></trkpt><trkpt lat="46.18278928287131" lon="12.121498000604454"><ele>407.0</ele><time>2026-05-02T15:10:25Z</time></trkpt><trkpt lat="46.182613546578175" lon="12.121342776010472"><ele>407.0</ele><time>2026-05-02T15:10:26Z</time></trkpt><trkpt lat="46.182435868386364" lon="12.121184047585196"><ele>407.0</ele><time>2026-05-02T15:10:27Z</time></trkpt><trkpt lat="46.18226188062774" lon="12.121031341648038"><ele>406.0</ele><time>2026-05-02T15:10:28Z</time></trkpt><trkpt lat="46.182093863016625" lon="12.120867846294379"><ele>405.0</ele><time>2026-05-02T15:10:29Z</time></trkpt><trkpt lat="46.18193615672108" lon="12.120719042018976"><ele>404.0</ele><time>2026-05-02T15:10:30Z</time></trkpt><trkpt lat="46.181785740956016" lon="12.120574243812687"><ele>404.0</ele><time>2026-05-02T15:10:31Z</time></trkpt><trkpt lat="46.1816408987022" lon="12.120454265391137"><ele>404.0</ele><time>2026-05-02T15:10:32Z</time></trkpt><trkpt lat="46.181509668936606" lon="12.120303184846556"><ele>404.0</ele><time>2026-05-02T15:10:33Z</time></trkpt><trkpt lat="46.18137162204393" lon="12.12016077508465"><ele>406.66666666666663</ele><time>2026-05-02T15:10:34Z</time></trkpt><trkpt lat="46.18124017559855" lon="12.119995696893698"><ele>409.33333333333337</ele><time>2026-05-02T15:10:35Z</time></trkpt><trkpt lat="46.18112692104883" lon="12.119801586557003"><ele>412.0</ele><time>2026-05-02T15:10:36Z</time></trkpt><trkpt lat="46.18100586569087" lon="12.119604281885039"><ele>412.0</ele><time>2026-05-02T15:10:37Z</time></trkpt><trkpt lat="46.180913183651626" lon="12.119377129105942"><ele>412.0</ele><time>2026-05-02T15:10:38Z</time></trkpt><trkpt lat="46.18080195821515" lon="12.119165571344142"><ele>412.0</ele><time>2026-05-02T15:10:39Z</time></trkpt><trkpt lat="46.180680686157345" lon="12.118967142955162"><ele>412.33333333333337</ele><time>2026-05-02T15:10:40Z</time></trkpt><trkpt lat="46.1805341205523" lon="12.118782266024864"><ele>412.66666666666663</ele><time>2026-05-02T15:10:41Z</time></trkpt><trkpt lat="46.18036515805895" lon="12.11866030731308"><ele>413.0</ele><time>2026-05-02T15:10:42Z</time></trkpt><trkpt lat="46.1802025521972" lon="12.118524826868535"><ele>413.0</ele><time>2026-05-02T15:10:43Z</time></trkpt><trkpt lat="46.18001964367029" lon="12.11844803451946"><ele>413.0</ele><time>2026-05-02T15:10:44Z</time></trkpt><trkpt lat="46.17983642916136" lon="12.118336828669255"><ele>413.0</ele><time>2026-05-02T15:10:45Z</time></trkpt><trkpt lat="46.17965301332127" lon="12.11823079323822"><ele>411.66666666666663</ele><time>2026-05-02T15:10:46Z</time></trkpt><trkpt lat="46.179469258259914" lon="12.118125282166323"><ele>410.33333333333337</ele><time>2026-05-02T15:10:47Z</time></trkpt><trkpt lat="46.179287055564764" lon="12.118019099089263"><ele>409.0</ele><time>2026-05-02T15:10:48Z</time></trkpt><trkpt lat="46.17910202463278" lon="12.11791087079238"><ele>414.33333333333337</ele><time>2026-05-02T15:10:48.999Z</time></trkpt><trkpt lat="46.17891002761795" lon="12.117806544342125"><ele>419.66666666666663</ele><time>2026-05-02T15:10:49.999Z</time></trkpt><trkpt lat="46.17872245455045" lon="12.117704318816081"><ele>425.0</ele><time>2026-05-02T15:10:50.999Z</time></trkpt><trkpt lat="46.17853373123031" lon="12.117599165849956"><ele>425.0</ele><time>2026-05-02T15:10:51.999Z</time></trkpt><trkpt lat="46.1783457665557" lon="12.117489669707284"><ele>425.0</ele><time>2026-05-02T15:10:52.999Z</time></trkpt><trkpt lat="46.178157093548464" lon="12.117386624805075"><ele>425.0</ele><time>2026-05-02T15:10:53.999Z</time></trkpt><trkpt lat="46.17796907986115" lon="12.117280414190168"><ele>419.0</ele><time>2026-05-02T15:10:54.999Z</time></trkpt><trkpt lat="46.17778015713934" lon="12.117178854572233"><ele>413.0</ele><time>2026-05-02T15:10:55.999Z</time></trkpt><trkpt lat="46.17758968742387" lon="12.117075660551592"><ele>407.0</ele><time>2026-05-02T15:10:56.999Z</time></trkpt><trkpt lat="46.17740180099119" lon="12.11696287059232"><ele>411.3333333333333</ele><time>2026-05-02T15:10:57.999Z</time></trkpt><trkpt lat="46.177215066410916" lon="12.116853576110364"><ele>415.66666666666663</ele><time>2026-05-02T15:10:58.999Z</time></trkpt><trkpt lat="46.177011308984476" lon="12.116740544215226"><ele>420.0</ele><time>2026-05-02T15:10:59.999Z</time></trkpt><trkpt lat="46.17680076100599" lon="12.116589111772274"><ele>411.0</ele><time>2026-05-02T15:11:00.999Z</time></trkpt><trkpt lat="46.176595721805555" lon="12.116398831539504"><ele>402.0</ele><time>2026-05-02T15:11:01.999Z</time></trkpt><trkpt lat="46.17642213646421" lon="12.116169303233796"><ele>405.66666666666663</ele><time>2026-05-02T15:11:02.999Z</time></trkpt><trkpt lat="46.176276334516885" lon="12.11592074285341"><ele>409.3333333333333</ele><time>2026-05-02T15:11:03.999Z</time></trkpt><trkpt lat="46.17615861378038" lon="12.115662369461171"><ele>413.0</ele><time>2026-05-02T15:11:04.999Z</time></trkpt><trkpt lat="46.17604693976794" lon="12.115384584480088"><ele>413.0</ele><time>2026-05-02T15:11:05.999Z</time></trkpt><trkpt lat="46.175933215476704" lon="12.115110955778956"><ele>413.0</ele><time>2026-05-02T15:11:06.999Z</time></trkpt><trkpt lat="46.175814713904245" lon="12.114870778326623"><ele>413.0</ele><time>2026-05-02T15:11:07.999Z</time></trkpt><trkpt lat="46.17566782861518" lon="12.11465054613892"><ele>407.3333333333333</ele><time>2026-05-02T15:11:08.999Z</time></trkpt><trkpt lat="46.175498264311656" lon="12.11450525215764"><ele>401.66666666666663</ele><time>2026-05-02T15:11:09.999Z</time></trkpt><trkpt lat="46.1753287193896" lon="12.11441883129929"><ele>396.0</ele><time>2026-05-02T15:11:10.999Z</time></trkpt><trkpt lat="46.175207750278666" lon="12.114358797755697"><ele>396.0</ele><time>2026-05-02T15:11:11.999Z</time></trkpt><trkpt lat="46.175055010901104" lon="12.114302549993182"><ele>396.0</ele><time>2026-05-02T15:11:12.999Z</time></trkpt><trkpt lat="46.17493377892441" lon="12.114268295386312"><ele>396.0</ele><time>2026-05-02T15:11:13.999Z</time></trkpt><trkpt lat="46.174799623489335" lon="12.114301583214715"><ele>396.0</ele><time>2026-05-02T15:11:14.999Z</time></trkpt><trkpt lat="46.17467707674543" lon="12.114362333060013"><ele>394.33333333333337</ele><time>2026-05-02T15:11:15.999Z</time></trkpt><trkpt lat="46.17452577046935" lon="12.114478057368308"><ele>392.6666666666667</ele><time>2026-05-02T15:11:16.999Z</time></trkpt><trkpt lat="46.17435831837677" lon="12.1146028923294"><ele>391.0</ele><time>2026-05-02T15:11:17.999Z</time></trkpt><trkpt lat="46.17419050993234" lon="12.114738758260838"><ele>392.0</ele><time>2026-05-02T15:11:18.999Z</time></trkpt><trkpt lat="46.1740199378991" lon="12.114883617558089"><ele>393.0</ele><time>2026-05-02T15:11:19.999Z</time></trkpt><trkpt lat="46.173839008106164" lon="12.115026542208566"><ele>394.0</ele><time>2026-05-02T15:11:20.999Z</time></trkpt><trkpt lat="46.17366090777716" lon="12.115166889448924"><ele>394.6666666666667</ele><time>2026-05-02T15:11:21.999Z</time></trkpt><trkpt lat="46.17348368975782" lon="12.115308855876592"><ele>395.33333333333337</ele><time>2026-05-02T15:11:22.999Z</time></trkpt><trkpt lat="46.173307699388985" lon="12.115444992139608"><ele>396.0</ele><time>2026-05-02T15:11:23.999Z</time></trkpt><trkpt lat="46.17313585903547" lon="12.115577706451344"><ele>396.0</ele><time>2026-05-02T15:11:24.999Z</time></trkpt><trkpt lat="46.1729289725146" lon="12.115746875037711"><ele>396.0</ele><time>2026-05-02T15:11:25.999Z</time></trkpt><trkpt lat="46.17275945576417" lon="12.115893396156196"><ele>396.0</ele><time>2026-05-02T15:11:26.999Z</time></trkpt><trkpt lat="46.17255460808556" lon="12.116084432780687"><ele>396.0</ele><time>2026-05-02T15:11:27.999Z</time></trkpt><trkpt lat="46.17238024062104" lon="12.11626716264249"><ele>396.0</ele><time>2026-05-02T15:11:28.999Z</time></trkpt><trkpt lat="46.17221772615029" lon="12.116465103975083"><ele>396.0</ele><time>2026-05-02T15:11:29.999Z</time></trkpt><trkpt lat="46.172068857418736" lon="12.116668898157881"><ele>395.66666666666663</ele><time>2026-05-02T15:11:30.999Z</time></trkpt><trkpt lat="46.17192732057363" lon="12.11685332221727"><ele>395.3333333333333</ele><time>2026-05-02T15:11:31.999Z</time></trkpt><trkpt lat="46.17178558373475" lon="12.117025193708669"><ele>395.0</ele><time>2026-05-02T15:11:32.999Z</time></trkpt><trkpt lat="46.171629846621954" lon="12.11717778157237"><ele>394.3333333333333</ele><time>2026-05-02T15:11:33.999Z</time></trkpt><trkpt lat="46.17146609178726" lon="12.117316064023221"><ele>393.66666666666663</ele><time>2026-05-02T15:11:34.999Z</time></trkpt><trkpt lat="46.171293419547986" lon="12.11743970805974"><ele>393.0</ele><time>2026-05-02T15:11:35.999Z</time></trkpt><trkpt lat="46.1711144123155" lon="12.117546720185576"><ele>393.0</ele><time>2026-05-02T15:11:36.999Z</time></trkpt><trkpt lat="46.17092997655613" lon="12.11764276876622"><ele>393.0</ele><time>2026-05-02T15:11:37.999Z</time></trkpt><trkpt lat="46.170741478720934" lon="12.117729165195609"><ele>393.0</ele><time>2026-05-02T15:11:38.999Z</time></trkpt><trkpt lat="46.17055430688186" lon="12.117826674703226"><ele>391.33333333333337</ele><time>2026-05-02T15:11:39.999Z</time></trkpt><trkpt lat="46.17037643338859" lon="12.117952085218956"><ele>389.6666666666667</ele><time>2026-05-02T15:11:40.999Z</time></trkpt><trkpt lat="46.170205673863215" lon="12.118094383752293"><ele>388.0</ele><time>2026-05-02T15:11:41.999Z</time></trkpt><trkpt lat="46.17003167948779" lon="12.11822363198166"><ele>388.33333333333337</ele><time>2026-05-02T15:11:42.999Z</time></trkpt><trkpt lat="46.16985936341301" lon="12.11834346282549"><ele>388.66666666666663</ele><time>2026-05-02T15:11:43.999Z</time></trkpt><trkpt lat="46.16969693029047" lon="12.118458260549051"><ele>389.0</ele><time>2026-05-02T15:11:44.999Z</time></trkpt><trkpt lat="46.16952895693479" lon="12.118572173253149"><ele>389.3333333333333</ele><time>2026-05-02T15:11:45.999Z</time></trkpt><trkpt lat="46.16935774805838" lon="12.11868850460885"><ele>389.66666666666663</ele><time>2026-05-02T15:11:46.999Z</time></trkpt><trkpt lat="46.16918417167075" lon="12.118811339720494"><ele>390.0</ele><time>2026-05-02T15:11:47.999Z</time></trkpt><trkpt lat="46.16901373575057" lon="12.118932896637151"><ele>389.33333333333337</ele><time>2026-05-02T15:11:48.999Z</time></trkpt><trkpt lat="46.16884013200672" lon="12.119059177760372"><ele>388.6666666666667</ele><time>2026-05-02T15:11:49.999Z</time></trkpt><trkpt lat="46.16865834324509" lon="12.119185383291603"><ele>388.0</ele><time>2026-05-02T15:11:50.999Z</time></trkpt><trkpt lat="46.16847164505192" lon="12.11931627173493"><ele>387.6666666666667</ele><time>2026-05-02T15:11:51.999Z</time></trkpt><trkpt lat="46.168312322078094" lon="12.119438359078178"><ele>387.33333333333337</ele><time>2026-05-02T15:11:53Z</time></trkpt><trkpt lat="46.16815159685717" lon="12.119564429645616"><ele>387.0</ele><time>2026-05-02T15:11:54Z</time></trkpt><trkpt lat="46.16798395802826" lon="12.11967762535692"><ele>385.6666666666667</ele><time>2026-05-02T15:11:55Z</time></trkpt><trkpt lat="46.16781200516684" lon="12.119778685222133"><ele>384.33333333333337</ele><time>2026-05-02T15:11:56Z</time></trkpt><trkpt lat="46.16762740088887" lon="12.119825674591004"><ele>383.0</ele><time>2026-05-02T15:11:57Z</time></trkpt><trkpt lat="46.16745247883564" lon="12.119856333819735"><ele>383.6666666666667</ele><time>2026-05-02T15:11:58Z</time></trkpt><trkpt lat="46.16729123439681" lon="12.119884954136282"><ele>384.33333333333337</ele><time>2026-05-02T15:11:59Z</time></trkpt><trkpt lat="46.167131462227935" lon="12.11993740505882"><ele>385.0</ele><time>2026-05-02T15:12:00Z</time></trkpt><trkpt lat="46.16695815876339" lon="12.11994326672324"><ele>386.0</ele><time>2026-05-02T15:12:01Z</time></trkpt><trkpt lat="46.16677434945879" lon="12.119989584363621"><ele>387.0</ele><time>2026-05-02T15:12:02Z</time></trkpt><trkpt lat="46.16658120716347" lon="12.120023666371484"><ele>388.0</ele><time>2026-05-02T15:12:03Z</time></trkpt><trkpt lat="46.16640427791855" lon="12.120048971318766"><ele>388.0</ele><time>2026-05-02T15:12:04Z</time></trkpt><trkpt lat="46.166238471365844" lon="12.120074457751276"><ele>388.0</ele><time>2026-05-02T15:12:05Z</time></trkpt><trkpt lat="46.16608265974497" lon="12.120118244863422"><ele>388.0</ele><time>2026-05-02T15:12:06Z</time></trkpt><trkpt lat="46.16593030717952" lon="12.120194783865351"><ele>388.0</ele><time>2026-05-02T15:12:07Z</time></trkpt><trkpt lat="46.16578616066905" lon="12.120310965658245"><ele>388.0</ele><time>2026-05-02T15:12:08Z</time></trkpt><trkpt lat="46.16564704637445" lon="12.120442095073395"><ele>388.0</ele><time>2026-05-02T15:12:09Z</time></trkpt><trkpt lat="46.16552549888464" lon="12.120589486137545"><ele>387.75</ele><time>2026-05-02T15:12:10Z</time></trkpt><trkpt lat="46.16542200540357" lon="12.12074242371112"><ele>387.5</ele><time>2026-05-02T15:12:11Z</time></trkpt><trkpt lat="46.1653378341652" lon="12.120907243156749"><ele>387.25</ele><time>2026-05-02T15:12:12Z</time></trkpt><trkpt lat="46.165275639397336" lon="12.121078963598015"><ele>387.0</ele><time>2026-05-02T15:12:13Z</time></trkpt><trkpt lat="46.16523534530151" lon="12.121253444401658"><ele>387.0</ele><time>2026-05-02T15:12:14Z</time></trkpt><trkpt lat="46.16520220843683" lon="12.121430301753824"><ele>387.0</ele><time>2026-05-02T15:12:15Z</time></trkpt><trkpt lat="46.16522181671393" lon="12.121599296928691"><ele>387.0</ele><time>2026-05-02T15:12:16Z</time></trkpt><trkpt lat="46.16523262311438" lon="12.121775103642465"><ele>387.0</ele><time>2026-05-02T15:12:17Z</time></trkpt><trkpt lat="46.16524445597133" lon="12.121937195413109"><ele>387.0</ele><time>2026-05-02T15:12:18Z</time></trkpt><trkpt lat="46.16523458894236" lon="12.122096224746185"><ele>387.0</ele><time>2026-05-02T15:12:19Z</time></trkpt><trkpt lat="46.165257722487866" lon="12.12226570240453"><ele>387.0</ele><time>2026-05-02T15:12:20Z</time></trkpt><trkpt lat="46.165262291739516" lon="12.122451325414294"><ele>387.0</ele><time>2026-05-02T15:12:21Z</time></trkpt><trkpt lat="46.16524361951881" lon="12.122640184965444"><ele>386.75</ele><time>2026-05-02T15:12:22Z</time></trkpt><trkpt lat="46.16522156764523" lon="12.12283125986826"><ele>386.5</ele><time>2026-05-02T15:12:23Z</time></trkpt><trkpt lat="46.16518177660609" lon="12.123015729421613"><ele>386.25</ele><time>2026-05-02T15:12:24Z</time></trkpt><trkpt lat="46.16512740281147" lon="12.123177366991477"><ele>386.0</ele><time>2026-05-02T15:12:25Z</time></trkpt><trkpt lat="46.165054980943935" lon="12.123334406080696"><ele>386.0</ele><time>2026-05-02T15:12:26Z</time></trkpt><trkpt lat="46.1649614826005" lon="12.123473009615928"><ele>386.0</ele><time>2026-05-02T15:12:27Z</time></trkpt><trkpt lat="46.1648562493897" lon="12.123614871374205"><ele>386.0</ele><time>2026-05-02T15:12:28Z</time></trkpt><trkpt lat="46.16474012139782" lon="12.123765130539022"><ele>386.0</ele><time>2026-05-02T15:12:29Z</time></trkpt><trkpt lat="46.16463586642587" lon="12.123935120717869"><ele>385.0</ele><time>2026-05-02T15:12:30Z</time></trkpt><trkpt lat="46.16451256805859" lon="12.124082151495676"><ele>384.0</ele><time>2026-05-02T15:12:31Z</time></trkpt><trkpt lat="46.16438298872305" lon="12.124229988372823"><ele>383.0</ele><time>2026-05-02T15:12:32Z</time></trkpt><trkpt lat="46.16426866977576" lon="12.124405472248688"><ele>383.0</ele><time>2026-05-02T15:12:33Z</time></trkpt><trkpt lat="46.16414455703884" lon="12.124567458236703"><ele>383.0</ele><time>2026-05-02T15:12:34Z</time></trkpt><trkpt lat="46.16401675998287" lon="12.124730523019794"><ele>383.0</ele><time>2026-05-02T15:12:35Z</time></trkpt><trkpt lat="46.163887762692056" lon="12.124891213017168"><ele>382.6666666666667</ele><time>2026-05-02T15:12:36Z</time></trkpt><trkpt lat="46.1637634970158" lon="12.125056158667975"><ele>382.3333333333333</ele><time>2026-05-02T15:12:37Z</time></trkpt><trkpt lat="46.1636361489336" lon="12.12522462277683"><ele>382.0</ele><time>2026-05-02T15:12:38Z</time></trkpt><trkpt lat="46.16349124349437" lon="12.125378817595656"><ele>382.0</ele><time>2026-05-02T15:12:39Z</time></trkpt><trkpt lat="46.1633561943212" lon="12.125551806792446"><ele>382.0</ele><time>2026-05-02T15:12:40Z</time></trkpt><trkpt lat="46.163224691467796" lon="12.125720253255572"><ele>382.0</ele><time>2026-05-02T15:12:41Z</time></trkpt><trkpt lat="46.163094636749754" lon="12.12588781103746"><ele>381.3333333333333</ele><time>2026-05-02T15:12:42Z</time></trkpt><trkpt lat="46.162958134433" lon="12.126062235747462"><ele>380.6666666666667</ele><time>2026-05-02T15:12:43Z</time></trkpt><trkpt lat="46.16282693898715" lon="12.12622980881601"><ele>380.0</ele><time>2026-05-02T15:12:44Z</time></trkpt><trkpt lat="46.162713725710255" lon="12.12641548665692"><ele>380.33333333333337</ele><time>2026-05-02T15:12:45Z</time></trkpt><trkpt lat="46.16258780448169" lon="12.126581199111573"><ele>380.6666666666667</ele><time>2026-05-02T15:12:46Z</time></trkpt><trkpt lat="46.162465578863454" lon="12.126741638825449"><ele>381.0</ele><time>2026-05-02T15:12:46.999Z</time></trkpt><trkpt lat="46.16235349264977" lon="12.126888634846674"><ele>381.0</ele><time>2026-05-02T15:12:47.999Z</time></trkpt><trkpt lat="46.16221747720619" lon="12.127012415301037"><ele>381.0</ele><time>2026-05-02T15:12:48.999Z</time></trkpt><trkpt lat="46.16211184172316" lon="12.12715009226818"><ele>381.0</ele><time>2026-05-02T15:12:49.999Z</time></trkpt><trkpt lat="46.16200989703833" lon="12.127281766699541"><ele>381.0</ele><time>2026-05-02T15:12:50.999Z</time></trkpt><trkpt lat="46.161913650124816" lon="12.127405732849914"><ele>381.0</ele><time>2026-05-02T15:12:51.999Z</time></trkpt><trkpt lat="46.16181556387758" lon="12.127529238601266"><ele>381.0</ele><time>2026-05-02T15:12:52.999Z</time></trkpt><trkpt lat="46.16170474586369" lon="12.127665094361936"><ele>381.0</ele><time>2026-05-02T15:12:53.999Z</time></trkpt><trkpt lat="46.1615848334739" lon="12.127810473469186"><ele>381.0</ele><time>2026-05-02T15:12:54.999Z</time></trkpt><trkpt lat="46.1614567862814" lon="12.127957794977402"><ele>381.0</ele><time>2026-05-02T15:12:55.999Z</time></trkpt><trkpt lat="46.16132551290827" lon="12.12808725092332"><ele>381.0</ele><time>2026-05-02T15:12:56.999Z</time></trkpt><trkpt lat="46.16119943329376" lon="12.128184145253625"><ele>381.0</ele><time>2026-05-02T15:12:57.999Z</time></trkpt><trkpt lat="46.161061751341634" lon="12.128259798594527"><ele>381.0</ele><time>2026-05-02T15:12:58.999Z</time></trkpt><trkpt lat="46.160907186794" lon="12.128323533822153"><ele>381.3333333333333</ele><time>2026-05-02T15:12:59.999Z</time></trkpt><trkpt lat="46.160747169266784" lon="12.128388106707332"><ele>381.66666666666663</ele><time>2026-05-02T15:13:00.999Z</time></trkpt><trkpt lat="46.160586522125115" lon="12.128486837434203"><ele>382.0</ele><time>2026-05-02T15:13:01.999Z</time></trkpt><trkpt lat="46.160409935379214" lon="12.12856327540044"><ele>381.3333333333333</ele><time>2026-05-02T15:13:02.999Z</time></trkpt><trkpt lat="46.16022390088682" lon="12.12863177656255"><ele>380.6666666666667</ele><time>2026-05-02T15:13:03.999Z</time></trkpt><trkpt lat="46.1600338149937" lon="12.12869671294964"><ele>380.0</ele><time>2026-05-02T15:13:04.999Z</time></trkpt><trkpt lat="46.159844155551646" lon="12.128729928760826"><ele>379.33333333333337</ele><time>2026-05-02T15:13:05.999Z</time></trkpt><trkpt lat="46.15967073869106" lon="12.128819322641922"><ele>378.6666666666667</ele><time>2026-05-02T15:13:06.999Z</time></trkpt><trkpt lat="46.15949221468529" lon="12.128880065828605"><ele>378.0</ele><time>2026-05-02T15:13:07.999Z</time></trkpt><trkpt lat="46.15930759640304" lon="12.128915673941657"><ele>378.0</ele><time>2026-05-02T15:13:08.999Z</time></trkpt><trkpt lat="46.159128847661435" lon="12.128935943472937"><ele>378.0</ele><time>2026-05-02T15:13:09.999Z</time></trkpt><trkpt lat="46.1589604973779" lon="12.128915444626147"><ele>378.0</ele><time>2026-05-02T15:13:10.999Z</time></trkpt><trkpt lat="46.15878352594594" lon="12.128856195082392"><ele>379.3333333333333</ele><time>2026-05-02T15:13:11.999Z</time></trkpt><trkpt lat="46.158611933453855" lon="12.128780596744583"><ele>380.66666666666663</ele><time>2026-05-02T15:13:12.999Z</time></trkpt><trkpt lat="46.15846671955911" lon="12.128672246947925"><ele>382.0</ele><time>2026-05-02T15:13:13.999Z</time></trkpt><trkpt lat="46.158324536927076" lon="12.128576392279543"><ele>387.66666666666663</ele><time>2026-05-02T15:13:14.999Z</time></trkpt><trkpt lat="46.15817398895863" lon="12.128481873147722"><ele>393.3333333333333</ele><time>2026-05-02T15:13:15.999Z</time></trkpt><trkpt lat="46.15801423639367" lon="12.12838809761707"><ele>399.0</ele><time>2026-05-02T15:13:16.999Z</time></trkpt><trkpt lat="46.15785796954014" lon="12.128276264512417"><ele>395.33333333333337</ele><time>2026-05-02T15:13:17.999Z</time></trkpt><trkpt lat="46.15771626414455" lon="12.128142690368417"><ele>391.6666666666667</ele><time>2026-05-02T15:13:18.999Z</time></trkpt><trkpt lat="46.15760686294398" lon="12.12796234739938"><ele>388.0</ele><time>2026-05-02T15:13:19.999Z</time></trkpt><trkpt lat="46.15749536900357" lon="12.127800132051297"><ele>388.0</ele><time>2026-05-02T15:13:20.999Z</time></trkpt><trkpt lat="46.157419568967136" lon="12.127612553812382"><ele>388.0</ele><time>2026-05-02T15:13:21.999Z</time></trkpt><trkpt lat="46.15735032912235" lon="12.127418715403042"><ele>388.0</ele><time>2026-05-02T15:13:22.999Z</time></trkpt><trkpt lat="46.157277299511904" lon="12.127229848846218"><ele>389.5</ele><time>2026-05-02T15:13:23.999Z</time></trkpt><trkpt lat="46.15720873461726" lon="12.127063314243989"><ele>391.0</ele><time>2026-05-02T15:13:24.999Z</time></trkpt><trkpt lat="46.157144611443705" lon="12.126904674853046"><ele>392.5</ele><time>2026-05-02T15:13:25.999Z</time></trkpt><trkpt lat="46.15708918669301" lon="12.126758826723975"><ele>394.0</ele><time>2026-05-02T15:13:26.999Z</time></trkpt><trkpt lat="46.15703738044371" lon="12.126622653873376"><ele>389.5</ele><time>2026-05-02T15:13:27.999Z</time></trkpt><trkpt lat="46.156973227416195" lon="12.126484132841773"><ele>385.0</ele><time>2026-05-02T15:13:28.999Z</time></trkpt><trkpt lat="46.15689964227139" lon="12.126341534559073"><ele>380.5</ele><time>2026-05-02T15:13:29.999Z</time></trkpt><trkpt lat="46.15680472183992" lon="12.126219693328474"><ele>376.0</ele><time>2026-05-02T15:13:30.999Z</time></trkpt><trkpt lat="46.156696118604124" lon="12.126108815268122"><ele>376.0</ele><time>2026-05-02T15:13:31.999Z</time></trkpt><trkpt lat="46.156582920496405" lon="12.126018618492326"><ele>376.0</ele><time>2026-05-02T15:13:32.999Z</time></trkpt><trkpt lat="46.15646319153247" lon="12.125962968882524"><ele>376.0</ele><time>2026-05-02T15:13:33.999Z</time></trkpt><trkpt lat="46.15633171607317" lon="12.12594626914113"><ele>376.0</ele><time>2026-05-02T15:13:34.999Z</time></trkpt><trkpt lat="46.15619849653029" lon="12.12595576650912"><ele>376.5</ele><time>2026-05-02T15:13:35.999Z</time></trkpt><trkpt lat="46.156065532608366" lon="12.125973674169472"><ele>377.0</ele><time>2026-05-02T15:13:36.999Z</time></trkpt><trkpt lat="46.15592427236438" lon="12.125989869961296"><ele>377.5</ele><time>2026-05-02T15:13:37.999Z</time></trkpt><trkpt lat="46.15578393839051" lon="12.126018020600636"><ele>378.0</ele><time>2026-05-02T15:13:38.999Z</time></trkpt><trkpt lat="46.15564494448256" lon="12.126033453841831"><ele>379.5</ele><time>2026-05-02T15:13:39.999Z</time></trkpt><trkpt lat="46.1555128159325" lon="12.12604984850914"><ele>381.0</ele><time>2026-05-02T15:13:40.999Z</time></trkpt><trkpt lat="46.15537180872052" lon="12.126018551994074"><ele>382.5</ele><time>2026-05-02T15:13:41.999Z</time></trkpt><trkpt lat="46.155239372991865" lon="12.126015257165609"><ele>384.0</ele><time>2026-05-02T15:13:42.999Z</time></trkpt><trkpt lat="46.15511534484896" lon="12.125962614393641"><ele>384.0</ele><time>2026-05-02T15:13:43.999Z</time></trkpt><trkpt lat="46.154993158394895" lon="12.125905110312143"><ele>384.0</ele><time>2026-05-02T15:13:44.999Z</time></trkpt><trkpt lat="46.15487674505584" lon="12.12583956633329"><ele>384.0</ele><time>2026-05-02T15:13:45.999Z</time></trkpt><trkpt lat="46.15477778630227" lon="12.125772477997609"><ele>384.0</ele><time>2026-05-02T15:13:46.999Z</time></trkpt><trkpt lat="46.15469885032262" lon="12.125736514405785"><ele>384.0</ele><time>2026-05-02T15:13:47.999Z</time></trkpt><trkpt lat="46.15459610919868" lon="12.125686873929213"><ele>382.2</ele><time>2026-05-02T15:13:49.999Z</time></trkpt><trkpt lat="46.154533891345295" lon="12.125652988348957"><ele>380.4</ele><time>2026-05-02T15:13:50.999Z</time></trkpt><trkpt lat="46.1544527092835" lon="12.125643290761431"><ele>378.6</ele><time>2026-05-02T15:13:51.999Z</time></trkpt><trkpt lat="46.154357145830865" lon="12.125634536770393"><ele>376.8</ele><time>2026-05-02T15:13:52.999Z</time></trkpt><trkpt lat="46.15425307065121" lon="12.125630754523597"><ele>375.0</ele><time>2026-05-02T15:13:53.999Z</time></trkpt><trkpt lat="46.15413098444437" lon="12.125669188271267"><ele>375.0</ele><time>2026-05-02T15:13:54.999Z</time></trkpt><trkpt lat="46.15400917338582" lon="12.125768453833587"><ele>375.0</ele><time>2026-05-02T15:13:55.999Z</time></trkpt><trkpt lat="46.15388038224718" lon="12.125890933520097"><ele>375.0</ele><time>2026-05-02T15:13:56.999Z</time></trkpt><trkpt lat="46.153734379030276" lon="12.125985240966349"><ele>375.0</ele><time>2026-05-02T15:13:57.999Z</time></trkpt><trkpt lat="46.15358381473601" lon="12.126104752699787"><ele>375.0</ele><time>2026-05-02T15:13:59Z</time></trkpt><trkpt lat="46.15342742933311" lon="12.126225788220879"><ele>375.0</ele><time>2026-05-02T15:14:00Z</time></trkpt><trkpt lat="46.15327971060465" lon="12.126341230773022"><ele>375.25</ele><time>2026-05-02T15:14:01Z</time></trkpt><trkpt lat="46.15314323088838" lon="12.126447890255273"><ele>375.5</ele><time>2026-05-02T15:14:02Z</time></trkpt><trkpt lat="46.15301174582782" lon="12.126550469008844"><ele>375.75</ele><time>2026-05-02T15:14:03Z</time></trkpt><trkpt lat="46.152892028920434" lon="12.126643862805974"><ele>376.0</ele><time>2026-05-02T15:14:04Z</time></trkpt><trkpt lat="46.152772368916494" lon="12.126737212202016"><ele>376.0</ele><time>2026-05-02T15:14:05Z</time></trkpt><trkpt lat="46.152658493331316" lon="12.12685289099488"><ele>376.0</ele><time>2026-05-02T15:14:06Z</time></trkpt><trkpt lat="46.152525257527124" lon="12.126929989225006"><ele>376.0</ele><time>2026-05-02T15:14:07Z</time></trkpt><trkpt lat="46.15240026760533" lon="12.127026678368122"><ele>376.0</ele><time>2026-05-02T15:14:08Z</time></trkpt><trkpt lat="46.15227054514494" lon="12.127127325941457"><ele>375.5</ele><time>2026-05-02T15:14:09Z</time></trkpt><trkpt lat="46.1521447194006" lon="12.127248219500276"><ele>375.0</ele><time>2026-05-02T15:14:10Z</time></trkpt><trkpt lat="46.152013884835185" lon="12.127356148154632"><ele>374.5</ele><time>2026-05-02T15:14:11Z</time></trkpt><trkpt lat="46.151885927587934" lon="12.127454284965076"><ele>374.0</ele><time>2026-05-02T15:14:12Z</time></trkpt><trkpt lat="46.15176158742024" lon="12.127550210908428"><ele>374.0</ele><time>2026-05-02T15:14:13Z</time></trkpt><trkpt lat="46.15164186547398" lon="12.127647523168598"><ele>374.0</ele><time>2026-05-02T15:14:14Z</time></trkpt><trkpt lat="46.15152618960741" lon="12.12773760629909"><ele>374.0</ele><time>2026-05-02T15:14:15Z</time></trkpt><trkpt lat="46.15141337056286" lon="12.127828283973859"><ele>374.0</ele><time>2026-05-02T15:14:16Z</time></trkpt><trkpt lat="46.151294995363685" lon="12.127890437565119"><ele>374.0</ele><time>2026-05-02T15:14:17Z</time></trkpt><trkpt lat="46.15119393412757" lon="12.127996870345626"><ele>374.0</ele><time>2026-05-02T15:14:18Z</time></trkpt><trkpt lat="46.15108544561155" lon="12.128081360881682"><ele>374.0</ele><time>2026-05-02T15:14:19Z</time></trkpt><trkpt lat="46.150970487250795" lon="12.128164519661732"><ele>374.0</ele><time>2026-05-02T15:14:20Z</time></trkpt><trkpt lat="46.1508491578434" lon="12.128255861043412"><ele>374.33333333333337</ele><time>2026-05-02T15:14:21Z</time></trkpt><trkpt lat="46.15072277238193" lon="12.12835124815164"><ele>374.6666666666667</ele><time>2026-05-02T15:14:22Z</time></trkpt><trkpt lat="46.15057611227701" lon="12.128426125169756"><ele>375.0</ele><time>2026-05-02T15:14:23Z</time></trkpt><trkpt lat="46.15042739056877" lon="12.128536040852442"><ele>374.3333333333333</ele><time>2026-05-02T15:14:24Z</time></trkpt><trkpt lat="46.15026494321516" lon="12.128595049946746"><ele>373.66666666666663</ele><time>2026-05-02T15:14:25Z</time></trkpt><trkpt lat="46.15009261596261" lon="12.128675920760177"><ele>373.0</ele><time>2026-05-02T15:14:26Z</time></trkpt><trkpt lat="46.14992418954994" lon="12.128779853158074"><ele>373.0</ele><time>2026-05-02T15:14:27Z</time></trkpt><trkpt lat="46.14974923352481" lon="12.128856696865178"><ele>373.0</ele><time>2026-05-02T15:14:28Z</time></trkpt><trkpt lat="46.14956486371641" lon="12.128940659928858"><ele>373.0</ele><time>2026-05-02T15:14:29Z</time></trkpt><trkpt lat="46.1493830719797" lon="12.129030467783313"><ele>372.66666666666663</ele><time>2026-05-02T15:14:30Z</time></trkpt><trkpt lat="46.14919755687339" lon="12.129096336230685"><ele>372.3333333333333</ele><time>2026-05-02T15:14:31Z</time></trkpt><trkpt lat="46.14901713063727" lon="12.129181607074807"><ele>372.0</ele><time>2026-05-02T15:14:32Z</time></trkpt><trkpt lat="46.148831927221714" lon="12.129268953069802"><ele>372.0</ele><time>2026-05-02T15:14:33Z</time></trkpt><trkpt lat="46.14864062710254" lon="12.129359955960702"><ele>372.0</ele><time>2026-05-02T15:14:34Z</time></trkpt><trkpt lat="46.14844571812499" lon="12.129452136868487"><ele>372.0</ele><time>2026-05-02T15:14:35Z</time></trkpt><trkpt lat="46.148271050891445" lon="12.129534746510116"><ele>372.6666666666667</ele><time>2026-05-02T15:14:36Z</time></trkpt><trkpt lat="46.14810521113682" lon="12.12961270160302"><ele>373.33333333333337</ele><time>2026-05-02T15:14:37Z</time></trkpt><trkpt lat="46.14795443749879" lon="12.12968323996012"><ele>374.0</ele><time>2026-05-02T15:14:38Z</time></trkpt><trkpt lat="46.14781806037383" lon="12.129746628984464"><ele>374.0</ele><time>2026-05-02T15:14:39Z</time></trkpt><trkpt lat="46.14769026254831" lon="12.129817750271892"><ele>374.0</ele><time>2026-05-02T15:14:40Z</time></trkpt><trkpt lat="46.147563001338476" lon="12.129853553303613"><ele>374.0</ele><time>2026-05-02T15:14:41Z</time></trkpt><trkpt lat="46.14745295471154" lon="12.129877984998823"><ele>374.0</ele><time>2026-05-02T15:14:41.999Z</time></trkpt><trkpt lat="46.14735189227403" lon="12.129894833630436"><ele>374.6666666666667</ele><time>2026-05-02T15:14:42.999Z</time></trkpt><trkpt lat="46.147262139251765" lon="12.12989925852084"><ele>375.33333333333337</ele><time>2026-05-02T15:14:43.999Z</time></trkpt><trkpt lat="46.14716375375871" lon="12.129895595449321"><ele>376.0</ele><time>2026-05-02T15:14:44.999Z</time></trkpt><trkpt lat="46.147086160207856" lon="12.129909852010814"><ele>376.6666666666667</ele><time>2026-05-02T15:14:45.999Z</time></trkpt><trkpt lat="46.14702474026131" lon="12.129950969006094"><ele>377.3333333333333</ele><time>2026-05-02T15:14:46.999Z</time></trkpt><trkpt lat="46.14696882920563" lon="12.130033098241297"><ele>378.0</ele><time>2026-05-02T15:14:47.999Z</time></trkpt><trkpt lat="46.14692482881712" lon="12.130152237920264"><ele>378.0</ele><time>2026-05-02T15:14:48.999Z</time></trkpt><trkpt lat="46.146883039678954" lon="12.13028014876155"><ele>378.0</ele><time>2026-05-02T15:14:49.999Z</time></trkpt><trkpt lat="46.14681653388233" lon="12.130367150631"><ele>378.0</ele><time>2026-05-02T15:14:50.999Z</time></trkpt><trkpt lat="46.14672227213448" lon="12.13038437329767"><ele>378.0</ele><time>2026-05-02T15:14:51.999Z</time></trkpt><trkpt lat="46.14663276668731" lon="12.130412319875346"><ele>378.0</ele><time>2026-05-02T15:14:52.999Z</time></trkpt><trkpt lat="46.146508922599836" lon="12.130438718528925"><ele>378.0</ele><time>2026-05-02T15:14:53.999Z</time></trkpt><trkpt lat="46.14636510002254" lon="12.130480802077681"><ele>378.0</ele><time>2026-05-02T15:14:54.999Z</time></trkpt><trkpt lat="46.146212285053956" lon="12.130536633228276"><ele>378.0</ele><time>2026-05-02T15:14:55.999Z</time></trkpt><trkpt lat="46.14606967236767" lon="12.130602549625465"><ele>378.0</ele><time>2026-05-02T15:14:56.999Z</time></trkpt><trkpt lat="46.14592123954606" lon="12.130697002324752"><ele>378.0</ele><time>2026-05-02T15:14:57.999Z</time></trkpt><trkpt lat="46.1457530839879" lon="12.130794854136216"><ele>378.0</ele><time>2026-05-02T15:14:58.999Z</time></trkpt><trkpt lat="46.14556996611589" lon="12.130904361084434"><ele>378.3333333333333</ele><time>2026-05-02T15:14:59.999Z</time></trkpt><trkpt lat="46.1454005512606" lon="12.131011258804493"><ele>378.66666666666663</ele><time>2026-05-02T15:15:00.999Z</time></trkpt><trkpt lat="46.145247529548314" lon="12.131118962751287"><ele>379.0</ele><time>2026-05-02T15:15:01.999Z</time></trkpt><trkpt lat="46.145096520840234" lon="12.13122344438087"><ele>379.0</ele><time>2026-05-02T15:15:02.999Z</time></trkpt><trkpt lat="46.14494328673054" lon="12.131328470834255"><ele>379.0</ele><time>2026-05-02T15:15:03.999Z</time></trkpt><trkpt lat="46.1447887098338" lon="12.131428681112862"><ele>379.0</ele><time>2026-05-02T15:15:04.999Z</time></trkpt><trkpt lat="46.14463839087282" lon="12.131524418121124"><ele>379.3333333333333</ele><time>2026-05-02T15:15:05.999Z</time></trkpt><trkpt lat="46.14448949015974" lon="12.13162151046761"><ele>379.6666666666667</ele><time>2026-05-02T15:15:06.999Z</time></trkpt><trkpt lat="46.14434617689411" lon="12.13171617772844"><ele>380.0</ele><time>2026-05-02T15:15:07.999Z</time></trkpt><trkpt lat="46.14421439044901" lon="12.131794624638454"><ele>380.0</ele><time>2026-05-02T15:15:08.999Z</time></trkpt><trkpt lat="46.14409634298359" lon="12.131869971988696"><ele>380.0</ele><time>2026-05-02T15:15:09.999Z</time></trkpt><trkpt lat="46.143987014966555" lon="12.131939347117644"><ele>380.0</ele><time>2026-05-02T15:15:10.999Z</time></trkpt><trkpt lat="46.14388633252696" lon="12.132005451657514"><ele>380.0</ele><time>2026-05-02T15:15:11.999Z</time></trkpt><trkpt lat="46.143786158744035" lon="12.132069058334057"><ele>383.0</ele><time>2026-05-02T15:15:12.999Z</time></trkpt><trkpt lat="46.14369844557531" lon="12.132118444950645"><ele>383.0</ele><time>2026-05-02T15:15:13.999Z</time></trkpt><trkpt lat="46.14362464194757" lon="12.132164101292533"><ele>383.0</ele><time>2026-05-02T15:15:14.999Z</time></trkpt><trkpt lat="46.143551774163264" lon="12.132169427264882"><ele>383.0</ele><time>2026-05-02T15:15:16.999Z</time></trkpt></trkseg></trk></gpx>